<?xml version="1.0" encoding="UTF-8" standalone="no" ?>
<gpx xmlns="http://www.topografix.com/GPX/1/1" xmlns:xsi="http://www.w3.org/2001/XMLSchema-instance" xsi:schemaLocation="http://www.topografix.com/GPX/1/1 http://www.topografix.com/GPX/1/1/gpx.xsd" version="1.1" creator="VisuGPX - https://www.visugpx.com">
  <metadata>
    <name>VTT - GTJ 2014</name>
    <desc><![CDATA[de Pontarlier à Bellegarde.
Avec Nono, Pierrot, David et Charly]]></desc>
  </metadata>
  <trk>
    <name><![CDATA[VTT - GTJ 2014_1]]></name>
    <trkseg>
      <trkpt lat="46.90071" lon="6.35392">
        <ele>823.3</ele>
        <time>2014-08-15T09:17:59.795Z</time>
      </trkpt>
      <trkpt lat="46.90067" lon="6.35418">
        <ele>814.9</ele>
        <time>2014-08-15T09:18:16.700Z</time>
      </trkpt>
      <trkpt lat="46.90061" lon="6.35431">
        <ele>816.6</ele>
        <time>2014-08-15T09:18:22.360Z</time>
      </trkpt>
      <trkpt lat="46.9007" lon="6.35432">
        <ele>822.1</ele>
        <time>2014-08-15T09:18:25.941Z</time>
      </trkpt>
      <trkpt lat="46.90095" lon="6.35328">
        <ele>826</ele>
        <time>2014-08-15T09:18:54.976Z</time>
      </trkpt>
      <trkpt lat="46.90095" lon="6.35312">
        <ele>825.3</ele>
        <time>2014-08-15T09:19:00.798Z</time>
      </trkpt>
      <trkpt lat="46.90084" lon="6.35353">
        <ele>821.5</ele>
        <time>2014-08-15T09:19:51.023Z</time>
      </trkpt>
      <trkpt lat="46.90094" lon="6.35358">
        <ele>820.7</ele>
        <time>2014-08-15T09:19:56.456Z</time>
      </trkpt>
      <trkpt lat="46.90106" lon="6.35361">
        <ele>819.8</ele>
        <time>2014-08-15T09:20:01.386Z</time>
      </trkpt>
      <trkpt lat="46.90114" lon="6.35366">
        <ele>820.3</ele>
        <time>2014-08-15T09:20:04.793Z</time>
      </trkpt>
      <trkpt lat="46.90133" lon="6.35391">
        <ele>821.4</ele>
        <time>2014-08-15T09:20:17.692Z</time>
      </trkpt>
      <trkpt lat="46.90156" lon="6.354">
        <ele>822.8</ele>
        <time>2014-08-15T09:20:25.296Z</time>
      </trkpt>
      <trkpt lat="46.90167" lon="6.35403">
        <ele>824.5</ele>
        <time>2014-08-15T09:20:28.765Z</time>
      </trkpt>
      <trkpt lat="46.90197" lon="6.3543">
        <ele>829.5</ele>
        <time>2014-08-15T09:20:38.991Z</time>
      </trkpt>
      <trkpt lat="46.90215" lon="6.35451">
        <ele>830.7</ele>
        <time>2014-08-15T09:20:46.597Z</time>
      </trkpt>
      <trkpt lat="46.90224" lon="6.35454">
        <ele>830.4</ele>
        <time>2014-08-15T09:20:49.801Z</time>
      </trkpt>
      <trkpt lat="46.90244" lon="6.35439">
        <ele>829.6</ele>
        <time>2014-08-15T09:21:38.150Z</time>
      </trkpt>
      <trkpt lat="46.90258" lon="6.35418">
        <ele>827.9</ele>
        <time>2014-08-15T09:21:44.602Z</time>
      </trkpt>
      <trkpt lat="46.90284" lon="6.35386">
        <ele>824.6</ele>
        <time>2014-08-15T09:21:52.445Z</time>
      </trkpt>
      <trkpt lat="46.90294" lon="6.35377">
        <ele>824.1</ele>
        <time>2014-08-15T09:21:54.562Z</time>
      </trkpt>
      <trkpt lat="46.90328" lon="6.3533">
        <ele>822.6</ele>
        <time>2014-08-15T09:22:04.801Z</time>
      </trkpt>
      <trkpt lat="46.90322" lon="6.3529">
        <ele>819.2</ele>
        <time>2014-08-15T09:24:55.802Z</time>
      </trkpt>
      <trkpt lat="46.90329" lon="6.35323">
        <ele>818.4</ele>
        <time>2014-08-15T09:28:08.800Z</time>
      </trkpt>
      <trkpt lat="46.90308" lon="6.35352">
        <ele>818.5</ele>
        <time>2014-08-15T09:29:06.327Z</time>
      </trkpt>
      <trkpt lat="46.90297" lon="6.35375">
        <ele>827.5</ele>
        <time>2014-08-15T09:29:20.482Z</time>
      </trkpt>
      <trkpt lat="46.90246" lon="6.35433">
        <ele>826</ele>
        <time>2014-08-15T09:29:49.720Z</time>
      </trkpt>
      <trkpt lat="46.90243" lon="6.35447">
        <ele>824.8</ele>
        <time>2014-08-15T09:29:52.911Z</time>
      </trkpt>
      <trkpt lat="46.90235" lon="6.35458">
        <ele>822.5</ele>
        <time>2014-08-15T09:29:55.908Z</time>
      </trkpt>
      <trkpt lat="46.90214" lon="6.35459">
        <ele>819.7</ele>
        <time>2014-08-15T09:30:00.937Z</time>
      </trkpt>
      <trkpt lat="46.90154" lon="6.35531">
        <ele>833.4</ele>
        <time>2014-08-15T09:30:16.582Z</time>
      </trkpt>
      <trkpt lat="46.90067" lon="6.35664">
        <ele>827.8</ele>
        <time>2014-08-15T09:30:43.731Z</time>
      </trkpt>
      <trkpt lat="46.90058" lon="6.35671">
        <ele>827.4</ele>
        <time>2014-08-15T09:30:45.804Z</time>
      </trkpt>
      <trkpt lat="46.90046" lon="6.35669">
        <ele>827.6</ele>
        <time>2014-08-15T09:32:48.426Z</time>
      </trkpt>
      <trkpt lat="46.90038" lon="6.35678">
        <ele>828.3</ele>
        <time>2014-08-15T09:32:53.107Z</time>
      </trkpt>
      <trkpt lat="46.89982" lon="6.35863">
        <ele>821.2</ele>
        <time>2014-08-15T09:33:18.926Z</time>
      </trkpt>
      <trkpt lat="46.89973" lon="6.35872">
        <ele>820.6</ele>
        <time>2014-08-15T09:33:20.838Z</time>
      </trkpt>
      <trkpt lat="46.899" lon="6.35913">
        <ele>824</ele>
        <time>2014-08-15T09:33:32.626Z</time>
      </trkpt>
      <trkpt lat="46.89787" lon="6.35951">
        <ele>825.4</ele>
        <time>2014-08-15T09:33:51.569Z</time>
      </trkpt>
      <trkpt lat="46.89767" lon="6.35964">
        <ele>826.4</ele>
        <time>2014-08-15T09:33:55.504Z</time>
      </trkpt>
      <trkpt lat="46.89706" lon="6.36016">
        <ele>824.9</ele>
        <time>2014-08-15T09:34:10.690Z</time>
      </trkpt>
      <trkpt lat="46.89696" lon="6.36026">
        <ele>826</ele>
        <time>2014-08-15T09:34:13.563Z</time>
      </trkpt>
      <trkpt lat="46.89643" lon="6.36075">
        <ele>830.9</ele>
        <time>2014-08-15T09:34:28.104Z</time>
      </trkpt>
      <trkpt lat="46.89634" lon="6.36086">
        <ele>831.3</ele>
        <time>2014-08-15T09:34:31.297Z</time>
      </trkpt>
      <trkpt lat="46.89618" lon="6.36111">
        <ele>831.3</ele>
        <time>2014-08-15T09:34:37.308Z</time>
      </trkpt>
      <trkpt lat="46.89528" lon="6.36287">
        <ele>835.1</ele>
        <time>2014-08-15T09:35:13.149Z</time>
      </trkpt>
      <trkpt lat="46.89503" lon="6.36326">
        <ele>835</ele>
        <time>2014-08-15T09:35:22.320Z</time>
      </trkpt>
      <trkpt lat="46.89483" lon="6.36364">
        <ele>834.1</ele>
        <time>2014-08-15T09:35:31.288Z</time>
      </trkpt>
      <trkpt lat="46.89475" lon="6.36374">
        <ele>833.4</ele>
        <time>2014-08-15T09:35:33.759Z</time>
      </trkpt>
      <trkpt lat="46.89467" lon="6.36382">
        <ele>833.8</ele>
        <time>2014-08-15T09:35:35.945Z</time>
      </trkpt>
      <trkpt lat="46.89448" lon="6.36406">
        <ele>836.8</ele>
        <time>2014-08-15T09:35:42.267Z</time>
      </trkpt>
      <trkpt lat="46.89438" lon="6.36417">
        <ele>836.8</ele>
        <time>2014-08-15T09:35:45.484Z</time>
      </trkpt>
      <trkpt lat="46.89407" lon="6.36436">
        <ele>834.9</ele>
        <time>2014-08-15T09:35:53.099Z</time>
      </trkpt>
      <trkpt lat="46.89372" lon="6.36463">
        <ele>833.6</ele>
        <time>2014-08-15T09:36:01.741Z</time>
      </trkpt>
      <trkpt lat="46.89351" lon="6.36474">
        <ele>835.4</ele>
        <time>2014-08-15T09:36:07.160Z</time>
      </trkpt>
      <trkpt lat="46.89339" lon="6.36479">
        <ele>836.2</ele>
        <time>2014-08-15T09:36:09.931Z</time>
      </trkpt>
      <trkpt lat="46.89327" lon="6.36482">
        <ele>837.1</ele>
        <time>2014-08-15T09:36:12.774Z</time>
      </trkpt>
      <trkpt lat="46.89258" lon="6.36485">
        <ele>837.3</ele>
        <time>2014-08-15T09:36:29.583Z</time>
      </trkpt>
      <trkpt lat="46.89247" lon="6.36485">
        <ele>838.1</ele>
        <time>2014-08-15T09:36:31.716Z</time>
      </trkpt>
      <trkpt lat="46.88912" lon="6.36512">
        <ele>844.7</ele>
        <time>2014-08-15T09:37:29.040Z</time>
      </trkpt>
      <trkpt lat="46.88873" lon="6.36522">
        <ele>840.5</ele>
        <time>2014-08-15T09:37:36.351Z</time>
      </trkpt>
      <trkpt lat="46.8881" lon="6.36529">
        <ele>841.3</ele>
        <time>2014-08-15T09:37:49.237Z</time>
      </trkpt>
      <trkpt lat="46.888" lon="6.36528">
        <ele>839.7</ele>
        <time>2014-08-15T09:37:51.808Z</time>
      </trkpt>
      <trkpt lat="46.8877" lon="6.36518">
        <ele>839.1</ele>
        <time>2014-08-15T09:38:15.405Z</time>
      </trkpt>
      <trkpt lat="46.88726" lon="6.36514">
        <ele>842.6</ele>
        <time>2014-08-15T09:38:25.193Z</time>
      </trkpt>
      <trkpt lat="46.88677" lon="6.36514">
        <ele>845.9</ele>
        <time>2014-08-15T09:38:36.120Z</time>
      </trkpt>
      <trkpt lat="46.8865" lon="6.3651">
        <ele>847.4</ele>
        <time>2014-08-15T09:38:41.985Z</time>
      </trkpt>
      <trkpt lat="46.88472" lon="6.36486">
        <ele>850.7</ele>
        <time>2014-08-15T09:39:17.579Z</time>
      </trkpt>
      <trkpt lat="46.88453" lon="6.36487">
        <ele>854.7</ele>
        <time>2014-08-15T09:39:23.809Z</time>
      </trkpt>
      <trkpt lat="46.88462" lon="6.365">
        <ele>855.7</ele>
        <time>2014-08-15T09:40:43.525Z</time>
      </trkpt>
      <trkpt lat="46.88471" lon="6.365">
        <ele>855.1</ele>
        <time>2014-08-15T09:40:45.567Z</time>
      </trkpt>
      <trkpt lat="46.88501" lon="6.36495">
        <ele>855</ele>
        <time>2014-08-15T09:40:51.551Z</time>
      </trkpt>
      <trkpt lat="46.88532" lon="6.36496">
        <ele>856.9</ele>
        <time>2014-08-15T09:40:57.472Z</time>
      </trkpt>
      <trkpt lat="46.88567" lon="6.36502">
        <ele>856</ele>
        <time>2014-08-15T09:41:03.466Z</time>
      </trkpt>
      <trkpt lat="46.88587" lon="6.36506">
        <ele>854.2</ele>
        <time>2014-08-15T09:41:06.588Z</time>
      </trkpt>
      <trkpt lat="46.88769" lon="6.36528">
        <ele>840.8</ele>
        <time>2014-08-15T09:41:32.715Z</time>
      </trkpt>
      <trkpt lat="46.88796" lon="6.3653">
        <ele>841.5</ele>
        <time>2014-08-15T09:41:35.931Z</time>
      </trkpt>
      <trkpt lat="46.88872" lon="6.36526">
        <ele>848</ele>
        <time>2014-08-15T09:41:44.729Z</time>
      </trkpt>
      <trkpt lat="46.88993" lon="6.36508">
        <ele>848.4</ele>
        <time>2014-08-15T09:41:59.490Z</time>
      </trkpt>
      <trkpt lat="46.89326" lon="6.36483">
        <ele>842.2</ele>
        <time>2014-08-15T09:42:40.337Z</time>
      </trkpt>
      <trkpt lat="46.89353" lon="6.36477">
        <ele>842.6</ele>
        <time>2014-08-15T09:42:43.416Z</time>
      </trkpt>
      <trkpt lat="46.89383" lon="6.36464">
        <ele>843.2</ele>
        <time>2014-08-15T09:42:47.171Z</time>
      </trkpt>
      <trkpt lat="46.89412" lon="6.36448">
        <ele>842.1</ele>
        <time>2014-08-15T09:42:51.683Z</time>
      </trkpt>
      <trkpt lat="46.89422" lon="6.36447">
        <ele>841</ele>
        <time>2014-08-15T09:42:53.484Z</time>
      </trkpt>
      <trkpt lat="46.89428" lon="6.36465">
        <ele>839.9</ele>
        <time>2014-08-15T09:42:56.454Z</time>
      </trkpt>
      <trkpt lat="46.8944" lon="6.36583">
        <ele>840.5</ele>
        <time>2014-08-15T09:43:14.746Z</time>
      </trkpt>
      <trkpt lat="46.89446" lon="6.36614">
        <ele>839</ele>
        <time>2014-08-15T09:43:21.143Z</time>
      </trkpt>
      <trkpt lat="46.89448" lon="6.36628">
        <ele>839.6</ele>
        <time>2014-08-15T09:43:24.809Z</time>
      </trkpt>
      <trkpt lat="46.89466" lon="6.36679">
        <ele>838.4</ele>
        <time>2014-08-15T09:46:31.015Z</time>
      </trkpt>
      <trkpt lat="46.89434" lon="6.36837">
        <ele>838</ele>
        <time>2014-08-15T09:47:12.015Z</time>
      </trkpt>
      <trkpt lat="46.89428" lon="6.36849">
        <ele>838.6</ele>
        <time>2014-08-15T09:47:15.613Z</time>
      </trkpt>
      <trkpt lat="46.89416" lon="6.36862">
        <ele>840.7</ele>
        <time>2014-08-15T09:47:21.553Z</time>
      </trkpt>
      <trkpt lat="46.89387" lon="6.3688">
        <ele>841.8</ele>
        <time>2014-08-15T09:47:34.889Z</time>
      </trkpt>
      <trkpt lat="46.89378" lon="6.36883">
        <ele>839.6</ele>
        <time>2014-08-15T09:47:39.023Z</time>
      </trkpt>
      <trkpt lat="46.89368" lon="6.36885">
        <ele>839</ele>
        <time>2014-08-15T09:47:43.196Z</time>
      </trkpt>
      <trkpt lat="46.89347" lon="6.36897">
        <ele>846.6</ele>
        <time>2014-08-15T09:47:52.035Z</time>
      </trkpt>
      <trkpt lat="46.89326" lon="6.36899">
        <ele>853.7</ele>
        <time>2014-08-15T09:48:00.129Z</time>
      </trkpt>
      <trkpt lat="46.89315" lon="6.36903">
        <ele>853.1</ele>
        <time>2014-08-15T09:48:04.498Z</time>
      </trkpt>
      <trkpt lat="46.89287" lon="6.36918">
        <ele>853.8</ele>
        <time>2014-08-15T09:48:15.933Z</time>
      </trkpt>
      <trkpt lat="46.89267" lon="6.36923">
        <ele>860.9</ele>
        <time>2014-08-15T09:48:24.029Z</time>
      </trkpt>
      <trkpt lat="46.89258" lon="6.36924">
        <ele>863.2</ele>
        <time>2014-08-15T09:48:28.079Z</time>
      </trkpt>
      <trkpt lat="46.89247" lon="6.36923">
        <ele>863.8</ele>
        <time>2014-08-15T09:48:33.202Z</time>
      </trkpt>
      <trkpt lat="46.89237" lon="6.36924">
        <ele>863.4</ele>
        <time>2014-08-15T09:48:38.796Z</time>
      </trkpt>
      <trkpt lat="46.89207" lon="6.36918">
        <ele>864.7</ele>
        <time>2014-08-15T09:48:53.328Z</time>
      </trkpt>
      <trkpt lat="46.89195" lon="6.36918">
        <ele>865.7</ele>
        <time>2014-08-15T09:48:57.855Z</time>
      </trkpt>
      <trkpt lat="46.89166" lon="6.36911">
        <ele>865.7</ele>
        <time>2014-08-15T09:49:09.360Z</time>
      </trkpt>
      <trkpt lat="46.89154" lon="6.3691">
        <ele>867.1</ele>
        <time>2014-08-15T09:49:14.096Z</time>
      </trkpt>
      <trkpt lat="46.89145" lon="6.36911">
        <ele>868.5</ele>
        <time>2014-08-15T09:49:18.011Z</time>
      </trkpt>
      <trkpt lat="46.89135" lon="6.36914">
        <ele>869.8</ele>
        <time>2014-08-15T09:49:21.989Z</time>
      </trkpt>
      <trkpt lat="46.89127" lon="6.3692">
        <ele>870.6</ele>
        <time>2014-08-15T09:49:25.921Z</time>
      </trkpt>
      <trkpt lat="46.8912" lon="6.36929">
        <ele>870.9</ele>
        <time>2014-08-15T09:49:29.814Z</time>
      </trkpt>
      <trkpt lat="46.89105" lon="6.36931">
        <ele>869.1</ele>
        <time>2014-08-15T09:52:29.503Z</time>
      </trkpt>
      <trkpt lat="46.89096" lon="6.36925">
        <ele>868.7</ele>
        <time>2014-08-15T09:52:35.443Z</time>
      </trkpt>
      <trkpt lat="46.89087" lon="6.36921">
        <ele>868.5</ele>
        <time>2014-08-15T09:52:40.207Z</time>
      </trkpt>
      <trkpt lat="46.89078" lon="6.36916">
        <ele>868.8</ele>
        <time>2014-08-15T09:52:45.149Z</time>
      </trkpt>
      <trkpt lat="46.89068" lon="6.36913">
        <ele>870</ele>
        <time>2014-08-15T09:52:50.106Z</time>
      </trkpt>
      <trkpt lat="46.89059" lon="6.3692">
        <ele>872.1</ele>
        <time>2014-08-15T09:52:55.795Z</time>
      </trkpt>
      <trkpt lat="46.89053" lon="6.3693">
        <ele>873.7</ele>
        <time>2014-08-15T09:53:01.570Z</time>
      </trkpt>
      <trkpt lat="46.89043" lon="6.36953">
        <ele>874.8</ele>
        <time>2014-08-15T09:53:14.748Z</time>
      </trkpt>
      <trkpt lat="46.89042" lon="6.36967">
        <ele>879.3</ele>
        <time>2014-08-15T09:53:20.850Z</time>
      </trkpt>
      <trkpt lat="46.89044" lon="6.36981">
        <ele>886.8</ele>
        <time>2014-08-15T09:53:26.695Z</time>
      </trkpt>
      <trkpt lat="46.89048" lon="6.36994">
        <ele>892</ele>
        <time>2014-08-15T09:53:31.990Z</time>
      </trkpt>
      <trkpt lat="46.89051" lon="6.37007">
        <ele>891.7</ele>
        <time>2014-08-15T09:53:36.817Z</time>
      </trkpt>
      <trkpt lat="46.89048" lon="6.37034">
        <ele>887.4</ele>
        <time>2014-08-15T09:55:12.968Z</time>
      </trkpt>
      <trkpt lat="46.89042" lon="6.37046">
        <ele>892.6</ele>
        <time>2014-08-15T09:55:21.087Z</time>
      </trkpt>
      <trkpt lat="46.89022" lon="6.3704">
        <ele>915.9</ele>
        <time>2014-08-15T09:55:29.541Z</time>
      </trkpt>
      <trkpt lat="46.89013" lon="6.37043">
        <ele>923.6</ele>
        <time>2014-08-15T09:55:33.507Z</time>
      </trkpt>
      <trkpt lat="46.89003" lon="6.37044">
        <ele>928.1</ele>
        <time>2014-08-15T09:55:38.201Z</time>
      </trkpt>
      <trkpt lat="46.88993" lon="6.37042">
        <ele>930.2</ele>
        <time>2014-08-15T09:55:42.818Z</time>
      </trkpt>
      <trkpt lat="46.88983" lon="6.37037">
        <ele>929</ele>
        <time>2014-08-15T09:55:52.815Z</time>
      </trkpt>
      <trkpt lat="46.88967" lon="6.37028">
        <ele>928.5</ele>
        <time>2014-08-15T09:56:34.013Z</time>
      </trkpt>
      <trkpt lat="46.88958" lon="6.37023">
        <ele>926.5</ele>
        <time>2014-08-15T09:56:41.281Z</time>
      </trkpt>
      <trkpt lat="46.88948" lon="6.37024">
        <ele>922.1</ele>
        <time>2014-08-15T09:56:49.167Z</time>
      </trkpt>
      <trkpt lat="46.8893" lon="6.37009">
        <ele>915.8</ele>
        <time>2014-08-15T09:57:02.991Z</time>
      </trkpt>
      <trkpt lat="46.8892" lon="6.37005">
        <ele>915.5</ele>
        <time>2014-08-15T09:57:07.955Z</time>
      </trkpt>
      <trkpt lat="46.88902" lon="6.36988">
        <ele>915.8</ele>
        <time>2014-08-15T09:57:16.286Z</time>
      </trkpt>
      <trkpt lat="46.88893" lon="6.36984">
        <ele>916.8</ele>
        <time>2014-08-15T09:57:19.815Z</time>
      </trkpt>
      <trkpt lat="46.8887" lon="6.36993">
        <ele>920.9</ele>
        <time>2014-08-15T09:58:03.352Z</time>
      </trkpt>
      <trkpt lat="46.88862" lon="6.37">
        <ele>919.2</ele>
        <time>2014-08-15T09:58:12.328Z</time>
      </trkpt>
      <trkpt lat="46.88852" lon="6.36997">
        <ele>918.4</ele>
        <time>2014-08-15T09:58:21.120Z</time>
      </trkpt>
      <trkpt lat="46.88837" lon="6.36972">
        <ele>926.8</ele>
        <time>2014-08-15T09:59:48.707Z</time>
      </trkpt>
      <trkpt lat="46.88827" lon="6.36968">
        <ele>927.4</ele>
        <time>2014-08-15T09:59:56.421Z</time>
      </trkpt>
      <trkpt lat="46.88819" lon="6.36962">
        <ele>939.6</ele>
        <time>2014-08-15T10:00:03.341Z</time>
      </trkpt>
      <trkpt lat="46.8881" lon="6.36966">
        <ele>943.4</ele>
        <time>2014-08-15T10:00:09.818Z</time>
      </trkpt>
      <trkpt lat="46.88793" lon="6.36979">
        <ele>945.2</ele>
        <time>2014-08-15T10:00:26.852Z</time>
      </trkpt>
      <trkpt lat="46.88783" lon="6.36981">
        <ele>945.7</ele>
        <time>2014-08-15T10:00:32.820Z</time>
      </trkpt>
      <trkpt lat="46.88769" lon="6.36994">
        <ele>950.3</ele>
        <time>2014-08-15T10:01:16.976Z</time>
      </trkpt>
      <trkpt lat="46.8876" lon="6.36993">
        <ele>950</ele>
        <time>2014-08-15T10:01:23.903Z</time>
      </trkpt>
      <trkpt lat="46.8875" lon="6.36991">
        <ele>956.3</ele>
        <time>2014-08-15T10:01:29.976Z</time>
      </trkpt>
      <trkpt lat="46.88739" lon="6.36997">
        <ele>959</ele>
        <time>2014-08-15T10:01:36.621Z</time>
      </trkpt>
      <trkpt lat="46.8873" lon="6.36997">
        <ele>961.1</ele>
        <time>2014-08-15T10:01:42.577Z</time>
      </trkpt>
      <trkpt lat="46.88722" lon="6.37009">
        <ele>960.5</ele>
        <time>2014-08-15T10:01:50.821Z</time>
      </trkpt>
      <trkpt lat="46.88712" lon="6.37019">
        <ele>958.5</ele>
        <time>2014-08-15T10:02:40.787Z</time>
      </trkpt>
      <trkpt lat="46.88699" lon="6.37039">
        <ele>958.7</ele>
        <time>2014-08-15T10:03:04.855Z</time>
      </trkpt>
      <trkpt lat="46.88671" lon="6.37029">
        <ele>960.8</ele>
        <time>2014-08-15T10:04:18.987Z</time>
      </trkpt>
      <trkpt lat="46.8866" lon="6.37031">
        <ele>960.2</ele>
        <time>2014-08-15T10:04:25.082Z</time>
      </trkpt>
      <trkpt lat="46.88651" lon="6.37031">
        <ele>960.4</ele>
        <time>2014-08-15T10:04:30.062Z</time>
      </trkpt>
      <trkpt lat="46.88642" lon="6.37032">
        <ele>961.8</ele>
        <time>2014-08-15T10:04:34.638Z</time>
      </trkpt>
      <trkpt lat="46.88629" lon="6.37035">
        <ele>963.6</ele>
        <time>2014-08-15T10:04:40.494Z</time>
      </trkpt>
      <trkpt lat="46.88619" lon="6.37034">
        <ele>965.6</ele>
        <time>2014-08-15T10:04:45.602Z</time>
      </trkpt>
      <trkpt lat="46.88609" lon="6.37031">
        <ele>968.9</ele>
        <time>2014-08-15T10:04:50.579Z</time>
      </trkpt>
      <trkpt lat="46.88589" lon="6.37028">
        <ele>976.4</ele>
        <time>2014-08-15T10:05:01.629Z</time>
      </trkpt>
      <trkpt lat="46.8858" lon="6.37028">
        <ele>978.3</ele>
        <time>2014-08-15T10:05:06.935Z</time>
      </trkpt>
      <trkpt lat="46.88568" lon="6.3703">
        <ele>979.8</ele>
        <time>2014-08-15T10:05:13.610Z</time>
      </trkpt>
      <trkpt lat="46.88557" lon="6.3703">
        <ele>981.1</ele>
        <time>2014-08-15T10:05:19.756Z</time>
      </trkpt>
      <trkpt lat="46.88547" lon="6.37027">
        <ele>981.7</ele>
        <time>2014-08-15T10:05:25.663Z</time>
      </trkpt>
      <trkpt lat="46.88519" lon="6.37034">
        <ele>983.2</ele>
        <time>2014-08-15T10:05:50.086Z</time>
      </trkpt>
      <trkpt lat="46.88508" lon="6.37036">
        <ele>983.1</ele>
        <time>2014-08-15T10:05:55.041Z</time>
      </trkpt>
      <trkpt lat="46.88498" lon="6.37036">
        <ele>984.6</ele>
        <time>2014-08-15T10:05:59.822Z</time>
      </trkpt>
      <trkpt lat="46.88479" lon="6.37029">
        <ele>985.8</ele>
        <time>2014-08-15T10:07:01.822Z</time>
      </trkpt>
      <trkpt lat="46.88461" lon="6.37026">
        <ele>984.8</ele>
        <time>2014-08-15T10:09:33.431Z</time>
      </trkpt>
      <trkpt lat="46.88452" lon="6.37025">
        <ele>985</ele>
        <time>2014-08-15T10:09:39.655Z</time>
      </trkpt>
      <trkpt lat="46.88432" lon="6.37028">
        <ele>987.7</ele>
        <time>2014-08-15T10:09:48.876Z</time>
      </trkpt>
      <trkpt lat="46.88414" lon="6.37039">
        <ele>989.4</ele>
        <time>2014-08-15T10:09:56.922Z</time>
      </trkpt>
      <trkpt lat="46.88376" lon="6.37049">
        <ele>987.6</ele>
        <time>2014-08-15T10:11:07.829Z</time>
      </trkpt>
      <trkpt lat="46.88364" lon="6.37074">
        <ele>986.7</ele>
        <time>2014-08-15T10:12:02.841Z</time>
      </trkpt>
      <trkpt lat="46.8836" lon="6.37106">
        <ele>991.9</ele>
        <time>2014-08-15T10:12:11.824Z</time>
      </trkpt>
      <trkpt lat="46.88353" lon="6.37113">
        <ele>995.6</ele>
        <time>2014-08-15T10:12:40.435Z</time>
      </trkpt>
      <trkpt lat="46.88347" lon="6.37124">
        <ele>995.6</ele>
        <time>2014-08-15T10:12:50.583Z</time>
      </trkpt>
      <trkpt lat="46.88349" lon="6.37152">
        <ele>1002.3</ele>
        <time>2014-08-15T10:13:14.823Z</time>
      </trkpt>
      <trkpt lat="46.88352" lon="6.37168">
        <ele>1003.6</ele>
        <time>2014-08-15T10:13:52.603Z</time>
      </trkpt>
      <trkpt lat="46.8836" lon="6.37175">
        <ele>1003.7</ele>
        <time>2014-08-15T10:13:57.855Z</time>
      </trkpt>
      <trkpt lat="46.88366" lon="6.37188">
        <ele>1005.5</ele>
        <time>2014-08-15T10:14:03.387Z</time>
      </trkpt>
      <trkpt lat="46.88373" lon="6.37197">
        <ele>1006.4</ele>
        <time>2014-08-15T10:14:08.449Z</time>
      </trkpt>
      <trkpt lat="46.88379" lon="6.37209">
        <ele>1004.8</ele>
        <time>2014-08-15T10:14:15.302Z</time>
      </trkpt>
      <trkpt lat="46.8838" lon="6.37223">
        <ele>1005</ele>
        <time>2014-08-15T10:14:22.767Z</time>
      </trkpt>
      <trkpt lat="46.88376" lon="6.37237">
        <ele>1010.2</ele>
        <time>2014-08-15T10:14:31.122Z</time>
      </trkpt>
      <trkpt lat="46.8837" lon="6.37248">
        <ele>1009.5</ele>
        <time>2014-08-15T10:14:38.501Z</time>
      </trkpt>
      <trkpt lat="46.8835" lon="6.37264">
        <ele>1008.2</ele>
        <time>2014-08-15T10:14:51.602Z</time>
      </trkpt>
      <trkpt lat="46.88337" lon="6.37302">
        <ele>1017</ele>
        <time>2014-08-15T10:15:03.895Z</time>
      </trkpt>
      <trkpt lat="46.88331" lon="6.37314">
        <ele>1015.2</ele>
        <time>2014-08-15T10:15:09.486Z</time>
      </trkpt>
      <trkpt lat="46.88329" lon="6.37327">
        <ele>1015.8</ele>
        <time>2014-08-15T10:15:16.028Z</time>
      </trkpt>
      <trkpt lat="46.88326" lon="6.3734">
        <ele>1016.8</ele>
        <time>2014-08-15T10:15:22.736Z</time>
      </trkpt>
      <trkpt lat="46.8831" lon="6.37422">
        <ele>1022.5</ele>
        <time>2014-08-15T10:15:55.611Z</time>
      </trkpt>
      <trkpt lat="46.8831" lon="6.37436">
        <ele>1021.9</ele>
        <time>2014-08-15T10:15:59.814Z</time>
      </trkpt>
      <trkpt lat="46.88285" lon="6.3751">
        <ele>1003.9</ele>
        <time>2014-08-15T10:16:19.317Z</time>
      </trkpt>
      <trkpt lat="46.8828" lon="6.37521">
        <ele>1002.5</ele>
        <time>2014-08-15T10:16:22.532Z</time>
      </trkpt>
      <trkpt lat="46.88274" lon="6.3755">
        <ele>1006.4</ele>
        <time>2014-08-15T10:16:31.415Z</time>
      </trkpt>
      <trkpt lat="46.88274" lon="6.37564">
        <ele>1008.1</ele>
        <time>2014-08-15T10:16:36.451Z</time>
      </trkpt>
      <trkpt lat="46.88268" lon="6.37575">
        <ele>1007.9</ele>
        <time>2014-08-15T10:16:41.725Z</time>
      </trkpt>
      <trkpt lat="46.88263" lon="6.37589">
        <ele>1005.4</ele>
        <time>2014-08-15T10:16:47.698Z</time>
      </trkpt>
      <trkpt lat="46.88261" lon="6.37604">
        <ele>1000.1</ele>
        <time>2014-08-15T10:16:53.318Z</time>
      </trkpt>
      <trkpt lat="46.88255" lon="6.37615">
        <ele>995</ele>
        <time>2014-08-15T10:16:58.452Z</time>
      </trkpt>
      <trkpt lat="46.88251" lon="6.37628">
        <ele>993.6</ele>
        <time>2014-08-15T10:17:03.621Z</time>
      </trkpt>
      <trkpt lat="46.88256" lon="6.37639">
        <ele>996.3</ele>
        <time>2014-08-15T10:17:10.070Z</time>
      </trkpt>
      <trkpt lat="46.88258" lon="6.37654">
        <ele>1002.7</ele>
        <time>2014-08-15T10:17:19.416Z</time>
      </trkpt>
      <trkpt lat="46.88258" lon="6.37667">
        <ele>1011.3</ele>
        <time>2014-08-15T10:17:28.454Z</time>
      </trkpt>
      <trkpt lat="46.88253" lon="6.37683">
        <ele>1018.5</ele>
        <time>2014-08-15T10:17:38.830Z</time>
      </trkpt>
      <trkpt lat="46.88244" lon="6.3768">
        <ele>1020.9</ele>
        <time>2014-08-15T10:19:27.833Z</time>
      </trkpt>
      <trkpt lat="46.88242" lon="6.37694">
        <ele>1020.4</ele>
        <time>2014-08-15T10:19:39.252Z</time>
      </trkpt>
      <trkpt lat="46.8822" lon="6.37756">
        <ele>1039.5</ele>
        <time>2014-08-15T10:20:02.930Z</time>
      </trkpt>
      <trkpt lat="46.88216" lon="6.37773">
        <ele>1039</ele>
        <time>2014-08-15T10:20:04.961Z</time>
      </trkpt>
      <trkpt lat="46.88209" lon="6.37785">
        <ele>1038.9</ele>
        <time>2014-08-15T10:20:06.832Z</time>
      </trkpt>
      <trkpt lat="46.882" lon="6.37811">
        <ele>1037.7</ele>
        <time>2014-08-15T10:22:00.538Z</time>
      </trkpt>
      <trkpt lat="46.88191" lon="6.37815">
        <ele>1037.5</ele>
        <time>2014-08-15T10:22:12.450Z</time>
      </trkpt>
      <trkpt lat="46.88183" lon="6.37828">
        <ele>1037.5</ele>
        <time>2014-08-15T10:22:24.588Z</time>
      </trkpt>
      <trkpt lat="46.88186" lon="6.37841">
        <ele>1038.9</ele>
        <time>2014-08-15T10:22:33.833Z</time>
      </trkpt>
      <trkpt lat="46.88174" lon="6.37857">
        <ele>1043.3</ele>
        <time>2014-08-15T10:23:04.544Z</time>
      </trkpt>
      <trkpt lat="46.88176" lon="6.37872">
        <ele>1040.7</ele>
        <time>2014-08-15T10:23:10.183Z</time>
      </trkpt>
      <trkpt lat="46.88173" lon="6.37887">
        <ele>1038.9</ele>
        <time>2014-08-15T10:23:14.241Z</time>
      </trkpt>
      <trkpt lat="46.88176" lon="6.37902">
        <ele>1038.4</ele>
        <time>2014-08-15T10:23:17.836Z</time>
      </trkpt>
      <trkpt lat="46.88176" lon="6.37929">
        <ele>1037.6</ele>
        <time>2014-08-15T10:24:02.359Z</time>
      </trkpt>
      <trkpt lat="46.88178" lon="6.37945">
        <ele>1038</ele>
        <time>2014-08-15T10:24:07.263Z</time>
      </trkpt>
      <trkpt lat="46.88175" lon="6.37973">
        <ele>1045.8</ele>
        <time>2014-08-15T10:24:13.437Z</time>
      </trkpt>
      <trkpt lat="46.88166" lon="6.37999">
        <ele>1055.6</ele>
        <time>2014-08-15T10:24:19.761Z</time>
      </trkpt>
      <trkpt lat="46.88158" lon="6.38008">
        <ele>1057.4</ele>
        <time>2014-08-15T10:24:23.516Z</time>
      </trkpt>
      <trkpt lat="46.88147" lon="6.38012">
        <ele>1056.6</ele>
        <time>2014-08-15T10:24:27.835Z</time>
      </trkpt>
      <trkpt lat="46.88136" lon="6.38011">
        <ele>1053.8</ele>
        <time>2014-08-15T10:24:32.465Z</time>
      </trkpt>
      <trkpt lat="46.88116" lon="6.37978">
        <ele>1048.7</ele>
        <time>2014-08-15T10:24:43.423Z</time>
      </trkpt>
      <trkpt lat="46.88107" lon="6.37947">
        <ele>1057.4</ele>
        <time>2014-08-15T10:24:50.372Z</time>
      </trkpt>
      <trkpt lat="46.88095" lon="6.37925">
        <ele>1053.3</ele>
        <time>2014-08-15T10:24:55.817Z</time>
      </trkpt>
      <trkpt lat="46.88086" lon="6.37913">
        <ele>1045.7</ele>
        <time>2014-08-15T10:24:59.258Z</time>
      </trkpt>
      <trkpt lat="46.88079" lon="6.37905">
        <ele>1038</ele>
        <time>2014-08-15T10:25:01.981Z</time>
      </trkpt>
      <trkpt lat="46.88053" lon="6.37887">
        <ele>1028.6</ele>
        <time>2014-08-15T10:25:10.848Z</time>
      </trkpt>
      <trkpt lat="46.88042" lon="6.37883">
        <ele>1024.2</ele>
        <time>2014-08-15T10:25:14.459Z</time>
      </trkpt>
      <trkpt lat="46.88013" lon="6.37882">
        <ele>998.6</ele>
        <time>2014-08-15T10:25:28.760Z</time>
      </trkpt>
      <trkpt lat="46.87999" lon="6.37878">
        <ele>999.6</ele>
        <time>2014-08-15T10:25:33.789Z</time>
      </trkpt>
      <trkpt lat="46.87986" lon="6.37878">
        <ele>997.2</ele>
        <time>2014-08-15T10:25:38.260Z</time>
      </trkpt>
      <trkpt lat="46.87949" lon="6.37883">
        <ele>992</ele>
        <time>2014-08-15T10:25:49.440Z</time>
      </trkpt>
      <trkpt lat="46.87911" lon="6.3788">
        <ele>1002</ele>
        <time>2014-08-15T10:25:57.578Z</time>
      </trkpt>
      <trkpt lat="46.87896" lon="6.37871">
        <ele>1002.8</ele>
        <time>2014-08-15T10:26:00.783Z</time>
      </trkpt>
      <trkpt lat="46.87882" lon="6.37864">
        <ele>1001.8</ele>
        <time>2014-08-15T10:26:04.420Z</time>
      </trkpt>
      <trkpt lat="46.87868" lon="6.37864">
        <ele>999.5</ele>
        <time>2014-08-15T10:26:08.285Z</time>
      </trkpt>
      <trkpt lat="46.87858" lon="6.37865">
        <ele>995.4</ele>
        <time>2014-08-15T10:26:10.424Z</time>
      </trkpt>
      <trkpt lat="46.87847" lon="6.37864">
        <ele>990.2</ele>
        <time>2014-08-15T10:26:12.282Z</time>
      </trkpt>
      <trkpt lat="46.8782" lon="6.37853">
        <ele>980.6</ele>
        <time>2014-08-15T10:26:15.839Z</time>
      </trkpt>
      <trkpt lat="46.87806" lon="6.37848">
        <ele>978.2</ele>
        <time>2014-08-15T10:26:17.808Z</time>
      </trkpt>
      <trkpt lat="46.87789" lon="6.37837">
        <ele>978.8</ele>
        <time>2014-08-15T10:26:21.044Z</time>
      </trkpt>
      <trkpt lat="46.87776" lon="6.37824">
        <ele>982.3</ele>
        <time>2014-08-15T10:26:23.949Z</time>
      </trkpt>
      <trkpt lat="46.87734" lon="6.37798">
        <ele>989</ele>
        <time>2014-08-15T10:26:33.488Z</time>
      </trkpt>
      <trkpt lat="46.87714" lon="6.37783">
        <ele>989.4</ele>
        <time>2014-08-15T10:26:39.731Z</time>
      </trkpt>
      <trkpt lat="46.87702" lon="6.37784">
        <ele>992.3</ele>
        <time>2014-08-15T10:26:43.034Z</time>
      </trkpt>
      <trkpt lat="46.87687" lon="6.37792">
        <ele>995.8</ele>
        <time>2014-08-15T10:26:47.780Z</time>
      </trkpt>
      <trkpt lat="46.8767" lon="6.37809">
        <ele>1000.6</ele>
        <time>2014-08-15T10:26:56.514Z</time>
      </trkpt>
      <trkpt lat="46.87659" lon="6.3781">
        <ele>1005.9</ele>
        <time>2014-08-15T10:27:02.196Z</time>
      </trkpt>
      <trkpt lat="46.8765" lon="6.3782">
        <ele>1013.2</ele>
        <time>2014-08-15T10:27:09.421Z</time>
      </trkpt>
      <trkpt lat="46.87631" lon="6.37822">
        <ele>1023.1</ele>
        <time>2014-08-15T10:27:22.855Z</time>
      </trkpt>
      <trkpt lat="46.87621" lon="6.3782">
        <ele>1023</ele>
        <time>2014-08-15T10:27:29.424Z</time>
      </trkpt>
      <trkpt lat="46.8761" lon="6.37816">
        <ele>1020</ele>
        <time>2014-08-15T10:27:35.114Z</time>
      </trkpt>
      <trkpt lat="46.8758" lon="6.37799">
        <ele>1016.9</ele>
        <time>2014-08-15T10:27:44.154Z</time>
      </trkpt>
      <trkpt lat="46.87571" lon="6.37792">
        <ele>1019.2</ele>
        <time>2014-08-15T10:27:47.002Z</time>
      </trkpt>
      <trkpt lat="46.87571" lon="6.37762">
        <ele>1022.9</ele>
        <time>2014-08-15T10:27:53.835Z</time>
      </trkpt>
      <trkpt lat="46.87575" lon="6.37778">
        <ele>1022.6</ele>
        <time>2014-08-15T10:31:35.244Z</time>
      </trkpt>
      <trkpt lat="46.87574" lon="6.37791">
        <ele>1022</ele>
        <time>2014-08-15T10:31:47.657Z</time>
      </trkpt>
      <trkpt lat="46.87583" lon="6.37798">
        <ele>1021</ele>
        <time>2014-08-15T10:31:54.513Z</time>
      </trkpt>
      <trkpt lat="46.8761" lon="6.37815">
        <ele>1020.4</ele>
        <time>2014-08-15T10:32:06.994Z</time>
      </trkpt>
      <trkpt lat="46.87629" lon="6.37815">
        <ele>1015.8</ele>
        <time>2014-08-15T10:32:15.721Z</time>
      </trkpt>
      <trkpt lat="46.87638" lon="6.37817">
        <ele>1012.9</ele>
        <time>2014-08-15T10:32:20.133Z</time>
      </trkpt>
      <trkpt lat="46.87647" lon="6.37812">
        <ele>1011.8</ele>
        <time>2014-08-15T10:32:24.090Z</time>
      </trkpt>
      <trkpt lat="46.87662" lon="6.37833">
        <ele>1016.3</ele>
        <time>2014-08-15T10:32:33.527Z</time>
      </trkpt>
      <trkpt lat="46.87673" lon="6.37855">
        <ele>1023.9</ele>
        <time>2014-08-15T10:32:43.721Z</time>
      </trkpt>
      <trkpt lat="46.87682" lon="6.3789">
        <ele>1021.4</ele>
        <time>2014-08-15T10:32:53.469Z</time>
      </trkpt>
      <trkpt lat="46.87682" lon="6.38006">
        <ele>1015.9</ele>
        <time>2014-08-15T10:33:05.612Z</time>
      </trkpt>
      <trkpt lat="46.87677" lon="6.38033">
        <ele>1013.7</ele>
        <time>2014-08-15T10:33:08.211Z</time>
      </trkpt>
      <trkpt lat="46.87665" lon="6.38055">
        <ele>1011.1</ele>
        <time>2014-08-15T10:33:10.963Z</time>
      </trkpt>
      <trkpt lat="46.87646" lon="6.38067">
        <ele>1008.3</ele>
        <time>2014-08-15T10:33:13.725Z</time>
      </trkpt>
      <trkpt lat="46.87632" lon="6.38068">
        <ele>1004.9</ele>
        <time>2014-08-15T10:33:15.778Z</time>
      </trkpt>
      <trkpt lat="46.87615" lon="6.38064">
        <ele>1001.5</ele>
        <time>2014-08-15T10:33:18.294Z</time>
      </trkpt>
      <trkpt lat="46.87606" lon="6.38056">
        <ele>998.7</ele>
        <time>2014-08-15T10:33:19.932Z</time>
      </trkpt>
      <trkpt lat="46.87596" lon="6.38032">
        <ele>994.5</ele>
        <time>2014-08-15T10:33:24.725Z</time>
      </trkpt>
      <trkpt lat="46.87593" lon="6.38014">
        <ele>992.3</ele>
        <time>2014-08-15T10:33:29.431Z</time>
      </trkpt>
      <trkpt lat="46.87592" lon="6.37998">
        <ele>988.9</ele>
        <time>2014-08-15T10:33:32.869Z</time>
      </trkpt>
      <trkpt lat="46.87596" lon="6.37979">
        <ele>984.4</ele>
        <time>2014-08-15T10:33:36.887Z</time>
      </trkpt>
      <trkpt lat="46.87594" lon="6.37958">
        <ele>980.1</ele>
        <time>2014-08-15T10:33:40.956Z</time>
      </trkpt>
      <trkpt lat="46.87586" lon="6.37936">
        <ele>975.8</ele>
        <time>2014-08-15T10:33:45.477Z</time>
      </trkpt>
      <trkpt lat="46.87572" lon="6.37922">
        <ele>971.2</ele>
        <time>2014-08-15T10:33:48.771Z</time>
      </trkpt>
      <trkpt lat="46.87549" lon="6.37914">
        <ele>962</ele>
        <time>2014-08-15T10:33:52.370Z</time>
      </trkpt>
      <trkpt lat="46.87515" lon="6.37896">
        <ele>957.1</ele>
        <time>2014-08-15T10:33:57.215Z</time>
      </trkpt>
      <trkpt lat="46.87493" lon="6.37886">
        <ele>957.1</ele>
        <time>2014-08-15T10:34:00.098Z</time>
      </trkpt>
      <trkpt lat="46.87466" lon="6.37886">
        <ele>959.1</ele>
        <time>2014-08-15T10:34:03.376Z</time>
      </trkpt>
      <trkpt lat="46.8745" lon="6.37891">
        <ele>963.5</ele>
        <time>2014-08-15T10:34:05.468Z</time>
      </trkpt>
      <trkpt lat="46.87441" lon="6.37895">
        <ele>968.1</ele>
        <time>2014-08-15T10:34:06.838Z</time>
      </trkpt>
      <trkpt lat="46.8743" lon="6.37921">
        <ele>970.3</ele>
        <time>2014-08-15T10:34:24.912Z</time>
      </trkpt>
      <trkpt lat="46.87423" lon="6.38152">
        <ele>957.3</ele>
        <time>2014-08-15T10:34:46.297Z</time>
      </trkpt>
      <trkpt lat="46.87436" lon="6.38258">
        <ele>952.3</ele>
        <time>2014-08-15T10:34:55.083Z</time>
      </trkpt>
      <trkpt lat="46.87441" lon="6.38284">
        <ele>949.7</ele>
        <time>2014-08-15T10:34:57.839Z</time>
      </trkpt>
      <trkpt lat="46.8742" lon="6.38245">
        <ele>944.1</ele>
        <time>2014-08-15T10:36:48.839Z</time>
      </trkpt>
      <trkpt lat="46.87407" lon="6.38229">
        <ele>935.9</ele>
        <time>2014-08-15T10:36:53.330Z</time>
      </trkpt>
      <trkpt lat="46.87397" lon="6.3822">
        <ele>934.8</ele>
        <time>2014-08-15T10:36:55.493Z</time>
      </trkpt>
      <trkpt lat="46.87387" lon="6.38206">
        <ele>933.5</ele>
        <time>2014-08-15T10:36:58.311Z</time>
      </trkpt>
      <trkpt lat="46.87379" lon="6.38187">
        <ele>931.7</ele>
        <time>2014-08-15T10:37:01.510Z</time>
      </trkpt>
      <trkpt lat="46.87351" lon="6.38034">
        <ele>919.6</ele>
        <time>2014-08-15T10:37:16.889Z</time>
      </trkpt>
      <trkpt lat="46.87341" lon="6.38005">
        <ele>915.2</ele>
        <time>2014-08-15T10:37:22.091Z</time>
      </trkpt>
      <trkpt lat="46.87331" lon="6.37996">
        <ele>910.7</ele>
        <time>2014-08-15T10:37:27.739Z</time>
      </trkpt>
      <trkpt lat="46.87325" lon="6.38009">
        <ele>908.3</ele>
        <time>2014-08-15T10:37:32.147Z</time>
      </trkpt>
      <trkpt lat="46.87333" lon="6.38109">
        <ele>914.8</ele>
        <time>2014-08-15T10:37:43.505Z</time>
      </trkpt>
      <trkpt lat="46.8733" lon="6.38331">
        <ele>900.2</ele>
        <time>2014-08-15T10:38:01.797Z</time>
      </trkpt>
      <trkpt lat="46.87322" lon="6.38318">
        <ele>897.6</ele>
        <time>2014-08-15T10:38:04.498Z</time>
      </trkpt>
      <trkpt lat="46.87317" lon="6.38291">
        <ele>895.5</ele>
        <time>2014-08-15T10:38:07.751Z</time>
      </trkpt>
      <trkpt lat="46.87295" lon="6.38233">
        <ele>892.1</ele>
        <time>2014-08-15T10:38:13.520Z</time>
      </trkpt>
      <trkpt lat="46.87263" lon="6.38093">
        <ele>878.8</ele>
        <time>2014-08-15T10:38:24.935Z</time>
      </trkpt>
      <trkpt lat="46.87241" lon="6.38024">
        <ele>870.7</ele>
        <time>2014-08-15T10:39:26.842Z</time>
      </trkpt>
      <trkpt lat="46.87229" lon="6.37996">
        <ele>869.5</ele>
        <time>2014-08-15T10:39:45.840Z</time>
      </trkpt>
      <trkpt lat="46.87219" lon="6.38014">
        <ele>868.7</ele>
        <time>2014-08-15T10:40:42.458Z</time>
      </trkpt>
      <trkpt lat="46.87215" lon="6.38075">
        <ele>866.7</ele>
        <time>2014-08-15T10:40:55.803Z</time>
      </trkpt>
      <trkpt lat="46.87218" lon="6.38218">
        <ele>868.9</ele>
        <time>2014-08-15T10:41:21.204Z</time>
      </trkpt>
      <trkpt lat="46.87225" lon="6.38291">
        <ele>872.2</ele>
        <time>2014-08-15T10:41:32.377Z</time>
      </trkpt>
      <trkpt lat="46.87228" lon="6.38425">
        <ele>860.9</ele>
        <time>2014-08-15T10:41:50.755Z</time>
      </trkpt>
      <trkpt lat="46.87251" lon="6.38664">
        <ele>869.5</ele>
        <time>2014-08-15T10:42:23.419Z</time>
      </trkpt>
      <trkpt lat="46.87266" lon="6.38756">
        <ele>870.3</ele>
        <time>2014-08-15T10:42:45.471Z</time>
      </trkpt>
      <trkpt lat="46.87269" lon="6.38817">
        <ele>873.1</ele>
        <time>2014-08-15T10:42:58.904Z</time>
      </trkpt>
      <trkpt lat="46.87268" lon="6.38847">
        <ele>873.7</ele>
        <time>2014-08-15T10:43:03.506Z</time>
      </trkpt>
      <trkpt lat="46.87244" lon="6.3906">
        <ele>869.3</ele>
        <time>2014-08-15T10:43:32.423Z</time>
      </trkpt>
      <trkpt lat="46.87246" lon="6.39112">
        <ele>869.1</ele>
        <time>2014-08-15T10:43:40.165Z</time>
      </trkpt>
      <trkpt lat="46.87253" lon="6.39151">
        <ele>869</ele>
        <time>2014-08-15T10:43:46.327Z</time>
      </trkpt>
      <trkpt lat="46.87282" lon="6.39272">
        <ele>871.5</ele>
        <time>2014-08-15T10:44:03.788Z</time>
      </trkpt>
      <trkpt lat="46.87293" lon="6.39424">
        <ele>871.6</ele>
        <time>2014-08-15T10:44:21.014Z</time>
      </trkpt>
      <trkpt lat="46.87289" lon="6.39453">
        <ele>869.4</ele>
        <time>2014-08-15T10:44:24.079Z</time>
      </trkpt>
      <trkpt lat="46.87252" lon="6.39576">
        <ele>864.2</ele>
        <time>2014-08-15T10:44:39.154Z</time>
      </trkpt>
      <trkpt lat="46.87238" lon="6.39669">
        <ele>869</ele>
        <time>2014-08-15T10:44:53.750Z</time>
      </trkpt>
      <trkpt lat="46.87234" lon="6.39682">
        <ele>869</ele>
        <time>2014-08-15T10:44:56.506Z</time>
      </trkpt>
      <trkpt lat="46.8722" lon="6.39708">
        <ele>869.4</ele>
        <time>2014-08-15T10:45:03.649Z</time>
      </trkpt>
      <trkpt lat="46.8721" lon="6.39716">
        <ele>869.4</ele>
        <time>2014-08-15T10:45:07.440Z</time>
      </trkpt>
      <trkpt lat="46.87193" lon="6.39733">
        <ele>868.8</ele>
        <time>2014-08-15T10:45:14.666Z</time>
      </trkpt>
      <trkpt lat="46.87184" lon="6.39744">
        <ele>867.7</ele>
        <time>2014-08-15T10:45:18.924Z</time>
      </trkpt>
      <trkpt lat="46.87171" lon="6.39769">
        <ele>869.1</ele>
        <time>2014-08-15T10:45:28.426Z</time>
      </trkpt>
      <trkpt lat="46.87163" lon="6.39796">
        <ele>873.4</ele>
        <time>2014-08-15T10:45:37.439Z</time>
      </trkpt>
      <trkpt lat="46.87163" lon="6.39812">
        <ele>874</ele>
        <time>2014-08-15T10:45:42.352Z</time>
      </trkpt>
      <trkpt lat="46.87164" lon="6.39826">
        <ele>874</ele>
        <time>2014-08-15T10:45:47.344Z</time>
      </trkpt>
      <trkpt lat="46.87173" lon="6.39849">
        <ele>871.8</ele>
        <time>2014-08-15T10:45:58.044Z</time>
      </trkpt>
      <trkpt lat="46.8718" lon="6.39859">
        <ele>870.2</ele>
        <time>2014-08-15T10:46:03.918Z</time>
      </trkpt>
      <trkpt lat="46.87198" lon="6.39884">
        <ele>866.5</ele>
        <time>2014-08-15T10:46:18.493Z</time>
      </trkpt>
      <trkpt lat="46.8721" lon="6.39905">
        <ele>860.4</ele>
        <time>2014-08-15T10:46:27.538Z</time>
      </trkpt>
      <trkpt lat="46.87213" lon="6.39919">
        <ele>859.3</ele>
        <time>2014-08-15T10:46:32.098Z</time>
      </trkpt>
      <trkpt lat="46.87227" lon="6.39941">
        <ele>869.9</ele>
        <time>2014-08-15T10:46:42.033Z</time>
      </trkpt>
      <trkpt lat="46.8725" lon="6.39999">
        <ele>883.4</ele>
        <time>2014-08-15T10:47:04.633Z</time>
      </trkpt>
      <trkpt lat="46.87272" lon="6.40083">
        <ele>892.9</ele>
        <time>2014-08-15T10:47:31.966Z</time>
      </trkpt>
      <trkpt lat="46.87276" lon="6.40109">
        <ele>897.3</ele>
        <time>2014-08-15T10:47:40.610Z</time>
      </trkpt>
      <trkpt lat="46.87273" lon="6.40243">
        <ele>897.7</ele>
        <time>2014-08-15T10:48:32.825Z</time>
      </trkpt>
      <trkpt lat="46.87271" lon="6.40273">
        <ele>902.3</ele>
        <time>2014-08-15T10:48:41.680Z</time>
      </trkpt>
      <trkpt lat="46.8725" lon="6.40355">
        <ele>909.6</ele>
        <time>2014-08-15T10:49:11.025Z</time>
      </trkpt>
      <trkpt lat="46.87242" lon="6.40396">
        <ele>918.1</ele>
        <time>2014-08-15T10:49:25.639Z</time>
      </trkpt>
      <trkpt lat="46.87237" lon="6.40409">
        <ele>918.1</ele>
        <time>2014-08-15T10:49:30.575Z</time>
      </trkpt>
      <trkpt lat="46.87204" lon="6.40471">
        <ele>914.6</ele>
        <time>2014-08-15T10:49:56.573Z</time>
      </trkpt>
      <trkpt lat="46.87196" lon="6.40483">
        <ele>914.6</ele>
        <time>2014-08-15T10:50:00.986Z</time>
      </trkpt>
      <trkpt lat="46.87176" lon="6.40499">
        <ele>915.2</ele>
        <time>2014-08-15T10:50:09.026Z</time>
      </trkpt>
      <trkpt lat="46.87148" lon="6.40517">
        <ele>915.5</ele>
        <time>2014-08-15T10:50:19.199Z</time>
      </trkpt>
      <trkpt lat="46.87138" lon="6.40522">
        <ele>915.4</ele>
        <time>2014-08-15T10:50:22.573Z</time>
      </trkpt>
      <trkpt lat="46.8713" lon="6.40529">
        <ele>914.9</ele>
        <time>2014-08-15T10:50:25.612Z</time>
      </trkpt>
      <trkpt lat="46.87122" lon="6.4054">
        <ele>914.7</ele>
        <time>2014-08-15T10:50:29.315Z</time>
      </trkpt>
      <trkpt lat="46.87119" lon="6.40553">
        <ele>915.1</ele>
        <time>2014-08-15T10:50:32.622Z</time>
      </trkpt>
      <trkpt lat="46.87121" lon="6.40567">
        <ele>915.7</ele>
        <time>2014-08-15T10:50:36.299Z</time>
      </trkpt>
      <trkpt lat="46.87166" lon="6.40655">
        <ele>912.1</ele>
        <time>2014-08-15T10:51:04.229Z</time>
      </trkpt>
      <trkpt lat="46.87169" lon="6.40669">
        <ele>911.5</ele>
        <time>2014-08-15T10:51:07.677Z</time>
      </trkpt>
      <trkpt lat="46.87173" lon="6.40682">
        <ele>910.7</ele>
        <time>2014-08-15T10:51:11.114Z</time>
      </trkpt>
      <trkpt lat="46.87186" lon="6.40707">
        <ele>909.8</ele>
        <time>2014-08-15T10:51:19.259Z</time>
      </trkpt>
      <trkpt lat="46.87199" lon="6.40743">
        <ele>912</ele>
        <time>2014-08-15T10:51:30.760Z</time>
      </trkpt>
      <trkpt lat="46.87204" lon="6.40756">
        <ele>911.6</ele>
        <time>2014-08-15T10:51:34.826Z</time>
      </trkpt>
      <trkpt lat="46.87212" lon="6.40767">
        <ele>910.4</ele>
        <time>2014-08-15T10:51:39.259Z</time>
      </trkpt>
      <trkpt lat="46.87218" lon="6.40781">
        <ele>909.1</ele>
        <time>2014-08-15T10:51:43.967Z</time>
      </trkpt>
      <trkpt lat="46.87269" lon="6.40873">
        <ele>917.1</ele>
        <time>2014-08-15T10:52:18.772Z</time>
      </trkpt>
      <trkpt lat="46.87321" lon="6.41001">
        <ele>911.9</ele>
        <time>2014-08-15T10:52:56.733Z</time>
      </trkpt>
      <trkpt lat="46.87325" lon="6.41015">
        <ele>913.2</ele>
        <time>2014-08-15T10:53:00.040Z</time>
      </trkpt>
      <trkpt lat="46.87388" lon="6.41138">
        <ele>940.7</ele>
        <time>2014-08-15T10:53:31.910Z</time>
      </trkpt>
      <trkpt lat="46.87399" lon="6.41165">
        <ele>941</ele>
        <time>2014-08-15T10:53:38.289Z</time>
      </trkpt>
      <trkpt lat="46.87523" lon="6.41573">
        <ele>939.6</ele>
        <time>2014-08-15T10:54:48.812Z</time>
      </trkpt>
      <trkpt lat="46.87526" lon="6.41587">
        <ele>940.4</ele>
        <time>2014-08-15T10:54:50.848Z</time>
      </trkpt>
      <trkpt lat="46.87537" lon="6.41621">
        <ele>940.8</ele>
        <time>2014-08-15T10:54:56.088Z</time>
      </trkpt>
      <trkpt lat="46.8756" lon="6.41726">
        <ele>940.9</ele>
        <time>2014-08-15T10:55:12.159Z</time>
      </trkpt>
      <trkpt lat="46.87561" lon="6.41742">
        <ele>941.9</ele>
        <time>2014-08-15T10:55:14.805Z</time>
      </trkpt>
      <trkpt lat="46.87558" lon="6.41757">
        <ele>943</ele>
        <time>2014-08-15T10:55:17.603Z</time>
      </trkpt>
      <trkpt lat="46.87554" lon="6.4177">
        <ele>944</ele>
        <time>2014-08-15T10:55:20.298Z</time>
      </trkpt>
      <trkpt lat="46.87546" lon="6.41781">
        <ele>944.8</ele>
        <time>2014-08-15T10:55:23.538Z</time>
      </trkpt>
      <trkpt lat="46.87537" lon="6.41786">
        <ele>945.9</ele>
        <time>2014-08-15T10:55:26.834Z</time>
      </trkpt>
      <trkpt lat="46.87526" lon="6.41786">
        <ele>947.2</ele>
        <time>2014-08-15T10:55:30.582Z</time>
      </trkpt>
      <trkpt lat="46.87517" lon="6.4178">
        <ele>947.4</ele>
        <time>2014-08-15T10:55:34.287Z</time>
      </trkpt>
      <trkpt lat="46.8751" lon="6.41771">
        <ele>945.7</ele>
        <time>2014-08-15T10:55:37.900Z</time>
      </trkpt>
      <trkpt lat="46.87502" lon="6.4176">
        <ele>943.6</ele>
        <time>2014-08-15T10:55:42.464Z</time>
      </trkpt>
      <trkpt lat="46.87498" lon="6.41746">
        <ele>942.7</ele>
        <time>2014-08-15T10:55:46.831Z</time>
      </trkpt>
      <trkpt lat="46.87495" lon="6.41702">
        <ele>946.2</ele>
        <time>2014-08-15T10:56:00.199Z</time>
      </trkpt>
      <trkpt lat="46.87424" lon="6.4159">
        <ele>957.8</ele>
        <time>2014-08-15T10:56:42.305Z</time>
      </trkpt>
      <trkpt lat="46.87376" lon="6.41494">
        <ele>964.7</ele>
        <time>2014-08-15T10:57:16.759Z</time>
      </trkpt>
      <trkpt lat="46.87363" lon="6.41473">
        <ele>965.8</ele>
        <time>2014-08-15T10:57:26.019Z</time>
      </trkpt>
      <trkpt lat="46.87283" lon="6.41366">
        <ele>971.4</ele>
        <time>2014-08-15T10:58:13.522Z</time>
      </trkpt>
      <trkpt lat="46.87274" lon="6.41357">
        <ele>971.8</ele>
        <time>2014-08-15T10:58:18.068Z</time>
      </trkpt>
      <trkpt lat="46.87257" lon="6.41342">
        <ele>972.4</ele>
        <time>2014-08-15T10:58:25.816Z</time>
      </trkpt>
      <trkpt lat="46.87247" lon="6.41335">
        <ele>972.7</ele>
        <time>2014-08-15T10:58:30.248Z</time>
      </trkpt>
      <trkpt lat="46.87238" lon="6.41331">
        <ele>973.1</ele>
        <time>2014-08-15T10:58:34.377Z</time>
      </trkpt>
      <trkpt lat="46.87191" lon="6.413">
        <ele>983.9</ele>
        <time>2014-08-15T10:58:56.238Z</time>
      </trkpt>
      <trkpt lat="46.87182" lon="6.41296">
        <ele>984.8</ele>
        <time>2014-08-15T10:59:00.470Z</time>
      </trkpt>
      <trkpt lat="46.87172" lon="6.41294">
        <ele>984.6</ele>
        <time>2014-08-15T10:59:04.719Z</time>
      </trkpt>
      <trkpt lat="46.87163" lon="6.41296">
        <ele>983.7</ele>
        <time>2014-08-15T10:59:08.599Z</time>
      </trkpt>
      <trkpt lat="46.87154" lon="6.41302">
        <ele>983.6</ele>
        <time>2014-08-15T10:59:12.384Z</time>
      </trkpt>
      <trkpt lat="46.87147" lon="6.41311">
        <ele>985.2</ele>
        <time>2014-08-15T10:59:15.852Z</time>
      </trkpt>
      <trkpt lat="46.87142" lon="6.41322">
        <ele>987.2</ele>
        <time>2014-08-15T10:59:19.113Z</time>
      </trkpt>
      <trkpt lat="46.87137" lon="6.41337">
        <ele>988.2</ele>
        <time>2014-08-15T10:59:22.980Z</time>
      </trkpt>
      <trkpt lat="46.87136" lon="6.4135">
        <ele>988.6</ele>
        <time>2014-08-15T10:59:26.243Z</time>
      </trkpt>
      <trkpt lat="46.87136" lon="6.41365">
        <ele>988.9</ele>
        <time>2014-08-15T10:59:30.090Z</time>
      </trkpt>
      <trkpt lat="46.87145" lon="6.41391">
        <ele>988.8</ele>
        <time>2014-08-15T10:59:38.233Z</time>
      </trkpt>
      <trkpt lat="46.87167" lon="6.41443">
        <ele>983.9</ele>
        <time>2014-08-15T10:59:54.348Z</time>
      </trkpt>
      <trkpt lat="46.87179" lon="6.41495">
        <ele>982.9</ele>
        <time>2014-08-15T11:00:09.880Z</time>
      </trkpt>
      <trkpt lat="46.87187" lon="6.41555">
        <ele>983.7</ele>
        <time>2014-08-15T11:00:26.815Z</time>
      </trkpt>
      <trkpt lat="46.8719" lon="6.41567">
        <ele>983.2</ele>
        <time>2014-08-15T11:00:30.698Z</time>
      </trkpt>
      <trkpt lat="46.87192" lon="6.4158">
        <ele>982.7</ele>
        <time>2014-08-15T11:00:34.634Z</time>
      </trkpt>
      <trkpt lat="46.87192" lon="6.41596">
        <ele>985.4</ele>
        <time>2014-08-15T11:00:39.318Z</time>
      </trkpt>
      <trkpt lat="46.87219" lon="6.41681">
        <ele>986.2</ele>
        <time>2014-08-15T11:01:10.720Z</time>
      </trkpt>
      <trkpt lat="46.87227" lon="6.41691">
        <ele>987</ele>
        <time>2014-08-15T11:01:15.325Z</time>
      </trkpt>
      <trkpt lat="46.87243" lon="6.41732">
        <ele>988.9</ele>
        <time>2014-08-15T11:01:27.941Z</time>
      </trkpt>
      <trkpt lat="46.87247" lon="6.41745">
        <ele>988.6</ele>
        <time>2014-08-15T11:01:31.188Z</time>
      </trkpt>
      <trkpt lat="46.87248" lon="6.41761">
        <ele>988.2</ele>
        <time>2014-08-15T11:01:35.084Z</time>
      </trkpt>
      <trkpt lat="46.87253" lon="6.41794">
        <ele>988</ele>
        <time>2014-08-15T11:01:43.115Z</time>
      </trkpt>
      <trkpt lat="46.87266" lon="6.41833">
        <ele>992.2</ele>
        <time>2014-08-15T11:01:54.844Z</time>
      </trkpt>
      <trkpt lat="46.87268" lon="6.41863">
        <ele>995.4</ele>
        <time>2014-08-15T11:02:03.693Z</time>
      </trkpt>
      <trkpt lat="46.87276" lon="6.41892">
        <ele>994.8</ele>
        <time>2014-08-15T11:02:13.384Z</time>
      </trkpt>
      <trkpt lat="46.87285" lon="6.41918">
        <ele>991.9</ele>
        <time>2014-08-15T11:02:21.201Z</time>
      </trkpt>
      <trkpt lat="46.87292" lon="6.41933">
        <ele>992</ele>
        <time>2014-08-15T11:02:25.312Z</time>
      </trkpt>
      <trkpt lat="46.873" lon="6.41945">
        <ele>993.2</ele>
        <time>2014-08-15T11:02:29.207Z</time>
      </trkpt>
      <trkpt lat="46.87312" lon="6.4197">
        <ele>1001.3</ele>
        <time>2014-08-15T11:02:36.331Z</time>
      </trkpt>
      <trkpt lat="46.87317" lon="6.41985">
        <ele>1006.3</ele>
        <time>2014-08-15T11:02:40.153Z</time>
      </trkpt>
      <trkpt lat="46.87323" lon="6.42018">
        <ele>1011.6</ele>
        <time>2014-08-15T11:02:48.117Z</time>
      </trkpt>
      <trkpt lat="46.87328" lon="6.42064">
        <ele>1017.9</ele>
        <time>2014-08-15T11:02:59.478Z</time>
      </trkpt>
      <trkpt lat="46.8733" lon="6.42078">
        <ele>1019.9</ele>
        <time>2014-08-15T11:03:03.266Z</time>
      </trkpt>
      <trkpt lat="46.8734" lon="6.42102">
        <ele>1023.7</ele>
        <time>2014-08-15T11:03:10.725Z</time>
      </trkpt>
      <trkpt lat="46.87347" lon="6.42113">
        <ele>1024.8</ele>
        <time>2014-08-15T11:03:15.278Z</time>
      </trkpt>
      <trkpt lat="46.87359" lon="6.42152">
        <ele>1021.3</ele>
        <time>2014-08-15T11:03:30.263Z</time>
      </trkpt>
      <trkpt lat="46.8737" lon="6.42176">
        <ele>1020.6</ele>
        <time>2014-08-15T11:03:40.529Z</time>
      </trkpt>
      <trkpt lat="46.87375" lon="6.42187">
        <ele>1024.9</ele>
        <time>2014-08-15T11:03:44.762Z</time>
      </trkpt>
      <trkpt lat="46.87415" lon="6.42306">
        <ele>1041.6</ele>
        <time>2014-08-15T11:04:29.819Z</time>
      </trkpt>
      <trkpt lat="46.87493" lon="6.42474">
        <ele>1051.2</ele>
        <time>2014-08-15T11:05:29.885Z</time>
      </trkpt>
      <trkpt lat="46.87521" lon="6.42563">
        <ele>1050.8</ele>
        <time>2014-08-15T11:05:57.292Z</time>
      </trkpt>
      <trkpt lat="46.87531" lon="6.42654">
        <ele>1053.2</ele>
        <time>2014-08-15T11:06:16.773Z</time>
      </trkpt>
      <trkpt lat="46.87583" lon="6.42807">
        <ele>1039.8</ele>
        <time>2014-08-15T11:06:46.806Z</time>
      </trkpt>
      <trkpt lat="46.87584" lon="6.42824">
        <ele>1041.8</ele>
        <time>2014-08-15T11:06:50.529Z</time>
      </trkpt>
      <trkpt lat="46.87593" lon="6.42853">
        <ele>1047.6</ele>
        <time>2014-08-15T11:06:57.705Z</time>
      </trkpt>
      <trkpt lat="46.87595" lon="6.42867">
        <ele>1051.7</ele>
        <time>2014-08-15T11:07:01.243Z</time>
      </trkpt>
      <trkpt lat="46.87601" lon="6.42881">
        <ele>1050.1</ele>
        <time>2014-08-15T11:07:05.037Z</time>
      </trkpt>
      <trkpt lat="46.87605" lon="6.42894">
        <ele>1048.1</ele>
        <time>2014-08-15T11:07:08.746Z</time>
      </trkpt>
      <trkpt lat="46.87604" lon="6.42909">
        <ele>1047.6</ele>
        <time>2014-08-15T11:07:12.892Z</time>
      </trkpt>
      <trkpt lat="46.876" lon="6.42911">
        <ele>1058.7</ele>
        <time>2014-08-15T11:14:56.868Z</time>
      </trkpt>
      <trkpt lat="46.876" lon="6.4291">
        <ele>1046</ele>
        <time>2014-08-15T11:23:08.878Z</time>
      </trkpt>
      <trkpt lat="46.87618" lon="6.42888">
        <ele>1052.7</ele>
        <time>2014-08-15T11:25:04.868Z</time>
      </trkpt>
      <trkpt lat="46.87616" lon="6.4293">
        <ele>1051.4</ele>
        <time>2014-08-15T11:26:59.662Z</time>
      </trkpt>
      <trkpt lat="46.87618" lon="6.42944">
        <ele>1051.1</ele>
        <time>2014-08-15T11:27:03.167Z</time>
      </trkpt>
      <trkpt lat="46.87718" lon="6.43208">
        <ele>1052.2</ele>
        <time>2014-08-15T11:27:55.653Z</time>
      </trkpt>
      <trkpt lat="46.87724" lon="6.4324">
        <ele>1053.3</ele>
        <time>2014-08-15T11:28:01.449Z</time>
      </trkpt>
      <trkpt lat="46.87725" lon="6.43258">
        <ele>1055.5</ele>
        <time>2014-08-15T11:28:04.566Z</time>
      </trkpt>
      <trkpt lat="46.87723" lon="6.43274">
        <ele>1058.1</ele>
        <time>2014-08-15T11:28:07.343Z</time>
      </trkpt>
      <trkpt lat="46.87718" lon="6.4329">
        <ele>1059.9</ele>
        <time>2014-08-15T11:28:10.106Z</time>
      </trkpt>
      <trkpt lat="46.87673" lon="6.43401">
        <ele>1058.7</ele>
        <time>2014-08-15T11:28:32.192Z</time>
      </trkpt>
      <trkpt lat="46.87666" lon="6.43411">
        <ele>1061.2</ele>
        <time>2014-08-15T11:28:34.896Z</time>
      </trkpt>
      <trkpt lat="46.87655" lon="6.43415">
        <ele>1064.1</ele>
        <time>2014-08-15T11:28:37.886Z</time>
      </trkpt>
      <trkpt lat="46.87629" lon="6.43399">
        <ele>1064.9</ele>
        <time>2014-08-15T11:28:59.398Z</time>
      </trkpt>
      <trkpt lat="46.8762" lon="6.4339">
        <ele>1064.6</ele>
        <time>2014-08-15T11:29:04.009Z</time>
      </trkpt>
      <trkpt lat="46.87608" lon="6.43367">
        <ele>1063.7</ele>
        <time>2014-08-15T11:29:11.285Z</time>
      </trkpt>
      <trkpt lat="46.87604" lon="6.43354">
        <ele>1062.2</ele>
        <time>2014-08-15T11:29:15.128Z</time>
      </trkpt>
      <trkpt lat="46.87596" lon="6.4334">
        <ele>1061.1</ele>
        <time>2014-08-15T11:29:20.646Z</time>
      </trkpt>
      <trkpt lat="46.87597" lon="6.43326">
        <ele>1061.2</ele>
        <time>2014-08-15T11:29:25.198Z</time>
      </trkpt>
      <trkpt lat="46.87591" lon="6.4331">
        <ele>1061.6</ele>
        <time>2014-08-15T11:29:31.742Z</time>
      </trkpt>
      <trkpt lat="46.87553" lon="6.43281">
        <ele>1064</ele>
        <time>2014-08-15T11:30:14.868Z</time>
      </trkpt>
      <trkpt lat="46.87548" lon="6.43268">
        <ele>1062.6</ele>
        <time>2014-08-15T11:30:29.525Z</time>
      </trkpt>
      <trkpt lat="46.87542" lon="6.43256">
        <ele>1062.3</ele>
        <time>2014-08-15T11:30:37.377Z</time>
      </trkpt>
      <trkpt lat="46.87535" lon="6.43248">
        <ele>1062.3</ele>
        <time>2014-08-15T11:30:46.142Z</time>
      </trkpt>
      <trkpt lat="46.87526" lon="6.43236">
        <ele>1062.6</ele>
        <time>2014-08-15T11:30:58.208Z</time>
      </trkpt>
      <trkpt lat="46.87518" lon="6.43231">
        <ele>1063</ele>
        <time>2014-08-15T11:31:05.986Z</time>
      </trkpt>
      <trkpt lat="46.87509" lon="6.4322">
        <ele>1063</ele>
        <time>2014-08-15T11:31:13.720Z</time>
      </trkpt>
      <trkpt lat="46.87501" lon="6.43213">
        <ele>1062.3</ele>
        <time>2014-08-15T11:31:22.118Z</time>
      </trkpt>
      <trkpt lat="46.87492" lon="6.43211">
        <ele>1061.4</ele>
        <time>2014-08-15T11:31:32.959Z</time>
      </trkpt>
      <trkpt lat="46.87482" lon="6.43224">
        <ele>1060.8</ele>
        <time>2014-08-15T11:31:48.322Z</time>
      </trkpt>
      <trkpt lat="46.87473" lon="6.4322">
        <ele>1061.9</ele>
        <time>2014-08-15T11:31:59.122Z</time>
      </trkpt>
      <trkpt lat="46.87445" lon="6.432">
        <ele>1069.1</ele>
        <time>2014-08-15T11:32:35.648Z</time>
      </trkpt>
      <trkpt lat="46.87435" lon="6.43195">
        <ele>1067.3</ele>
        <time>2014-08-15T11:32:47.476Z</time>
      </trkpt>
      <trkpt lat="46.87425" lon="6.43187">
        <ele>1067.4</ele>
        <time>2014-08-15T11:33:00.719Z</time>
      </trkpt>
      <trkpt lat="46.87406" lon="6.43173">
        <ele>1066.7</ele>
        <time>2014-08-15T11:33:30.906Z</time>
      </trkpt>
      <trkpt lat="46.87397" lon="6.43169">
        <ele>1065.6</ele>
        <time>2014-08-15T11:33:43.654Z</time>
      </trkpt>
      <trkpt lat="46.87379" lon="6.43157">
        <ele>1063.5</ele>
        <time>2014-08-15T11:33:57.531Z</time>
      </trkpt>
      <trkpt lat="46.8737" lon="6.43156">
        <ele>1062.8</ele>
        <time>2014-08-15T11:34:02.273Z</time>
      </trkpt>
      <trkpt lat="46.87362" lon="6.4315">
        <ele>1062.6</ele>
        <time>2014-08-15T11:34:07.453Z</time>
      </trkpt>
      <trkpt lat="46.87351" lon="6.43148">
        <ele>1063.1</ele>
        <time>2014-08-15T11:34:15.581Z</time>
      </trkpt>
      <trkpt lat="46.87343" lon="6.43142">
        <ele>1063.5</ele>
        <time>2014-08-15T11:34:23.683Z</time>
      </trkpt>
      <trkpt lat="46.87335" lon="6.43138">
        <ele>1063.2</ele>
        <time>2014-08-15T11:34:31.550Z</time>
      </trkpt>
      <trkpt lat="46.87322" lon="6.43143">
        <ele>1062.8</ele>
        <time>2014-08-15T11:34:42.466Z</time>
      </trkpt>
      <trkpt lat="46.87313" lon="6.43149">
        <ele>1062.9</ele>
        <time>2014-08-15T11:34:50.148Z</time>
      </trkpt>
      <trkpt lat="46.87292" lon="6.43153">
        <ele>1063.3</ele>
        <time>2014-08-15T11:35:06.521Z</time>
      </trkpt>
      <trkpt lat="46.87284" lon="6.43146">
        <ele>1063.3</ele>
        <time>2014-08-15T11:35:14.188Z</time>
      </trkpt>
      <trkpt lat="46.87274" lon="6.4314">
        <ele>1063.1</ele>
        <time>2014-08-15T11:35:23.563Z</time>
      </trkpt>
      <trkpt lat="46.87255" lon="6.43134">
        <ele>1061.8</ele>
        <time>2014-08-15T11:35:39.478Z</time>
      </trkpt>
      <trkpt lat="46.87236" lon="6.43121">
        <ele>1061.3</ele>
        <time>2014-08-15T11:35:51.788Z</time>
      </trkpt>
      <trkpt lat="46.87229" lon="6.43113">
        <ele>1062</ele>
        <time>2014-08-15T11:35:56.920Z</time>
      </trkpt>
      <trkpt lat="46.87221" lon="6.43098">
        <ele>1062.8</ele>
        <time>2014-08-15T11:36:04.630Z</time>
      </trkpt>
      <trkpt lat="46.87215" lon="6.43082">
        <ele>1063.3</ele>
        <time>2014-08-15T11:36:11.195Z</time>
      </trkpt>
      <trkpt lat="46.87207" lon="6.43038">
        <ele>1061.5</ele>
        <time>2014-08-15T11:36:23.440Z</time>
      </trkpt>
      <trkpt lat="46.87201" lon="6.43019">
        <ele>1061.5</ele>
        <time>2014-08-15T11:36:28.647Z</time>
      </trkpt>
      <trkpt lat="46.87199" lon="6.43006">
        <ele>1062.4</ele>
        <time>2014-08-15T11:36:31.875Z</time>
      </trkpt>
      <trkpt lat="46.872" lon="6.4299">
        <ele>1063.3</ele>
        <time>2014-08-15T11:36:35.632Z</time>
      </trkpt>
      <trkpt lat="46.87207" lon="6.42947">
        <ele>1063.5</ele>
        <time>2014-08-15T11:36:45.790Z</time>
      </trkpt>
      <trkpt lat="46.87207" lon="6.42933">
        <ele>1063.6</ele>
        <time>2014-08-15T11:36:48.715Z</time>
      </trkpt>
      <trkpt lat="46.87204" lon="6.42917">
        <ele>1064</ele>
        <time>2014-08-15T11:36:52.471Z</time>
      </trkpt>
      <trkpt lat="46.87163" lon="6.42859">
        <ele>1066.2</ele>
        <time>2014-08-15T11:37:13.677Z</time>
      </trkpt>
      <trkpt lat="46.87153" lon="6.42833">
        <ele>1064.2</ele>
        <time>2014-08-15T11:37:21.354Z</time>
      </trkpt>
      <trkpt lat="46.87137" lon="6.42787">
        <ele>1064</ele>
        <time>2014-08-15T11:37:34.658Z</time>
      </trkpt>
      <trkpt lat="46.87131" lon="6.42773">
        <ele>1065.5</ele>
        <time>2014-08-15T11:37:38.685Z</time>
      </trkpt>
      <trkpt lat="46.87124" lon="6.4276">
        <ele>1069.5</ele>
        <time>2014-08-15T11:37:42.322Z</time>
      </trkpt>
      <trkpt lat="46.87105" lon="6.42739">
        <ele>1085</ele>
        <time>2014-08-15T11:37:49.382Z</time>
      </trkpt>
      <trkpt lat="46.87049" lon="6.42599">
        <ele>1075.7</ele>
        <time>2014-08-15T11:38:21.450Z</time>
      </trkpt>
      <trkpt lat="46.87022" lon="6.42557">
        <ele>1066.9</ele>
        <time>2014-08-15T11:38:32.856Z</time>
      </trkpt>
      <trkpt lat="46.86996" lon="6.42534">
        <ele>1063.3</ele>
        <time>2014-08-15T11:38:42.847Z</time>
      </trkpt>
      <trkpt lat="46.86991" lon="6.42523">
        <ele>1062.4</ele>
        <time>2014-08-15T11:38:46.103Z</time>
      </trkpt>
      <trkpt lat="46.86965" lon="6.42496">
        <ele>1060.5</ele>
        <time>2014-08-15T11:38:58.981Z</time>
      </trkpt>
      <trkpt lat="46.86947" lon="6.42475">
        <ele>1059</ele>
        <time>2014-08-15T11:39:07.294Z</time>
      </trkpt>
      <trkpt lat="46.86944" lon="6.42461">
        <ele>1058.7</ele>
        <time>2014-08-15T11:39:11.314Z</time>
      </trkpt>
      <trkpt lat="46.86943" lon="6.42447">
        <ele>1058.5</ele>
        <time>2014-08-15T11:39:15.890Z</time>
      </trkpt>
      <trkpt lat="46.86943" lon="6.42433">
        <ele>1058.2</ele>
        <time>2014-08-15T11:39:21.065Z</time>
      </trkpt>
      <trkpt lat="46.86939" lon="6.42417">
        <ele>1058.2</ele>
        <time>2014-08-15T11:39:27.874Z</time>
      </trkpt>
      <trkpt lat="46.86934" lon="6.42403">
        <ele>1058.6</ele>
        <time>2014-08-15T11:39:33.321Z</time>
      </trkpt>
      <trkpt lat="46.86927" lon="6.42394">
        <ele>1059.5</ele>
        <time>2014-08-15T11:39:37.550Z</time>
      </trkpt>
      <trkpt lat="46.86919" lon="6.42388">
        <ele>1061</ele>
        <time>2014-08-15T11:39:41.487Z</time>
      </trkpt>
      <trkpt lat="46.86909" lon="6.42385">
        <ele>1062.3</ele>
        <time>2014-08-15T11:39:45.569Z</time>
      </trkpt>
      <trkpt lat="46.86899" lon="6.42387">
        <ele>1063.1</ele>
        <time>2014-08-15T11:39:51.124Z</time>
      </trkpt>
      <trkpt lat="46.86888" lon="6.4239">
        <ele>1064.1</ele>
        <time>2014-08-15T11:39:57.647Z</time>
      </trkpt>
      <trkpt lat="46.86879" lon="6.4239">
        <ele>1066.1</ele>
        <time>2014-08-15T11:40:03.830Z</time>
      </trkpt>
      <trkpt lat="46.86869" lon="6.42393">
        <ele>1068.1</ele>
        <time>2014-08-15T11:40:10.459Z</time>
      </trkpt>
      <trkpt lat="46.86859" lon="6.42395">
        <ele>1069.5</ele>
        <time>2014-08-15T11:40:17.287Z</time>
      </trkpt>
      <trkpt lat="46.8684" lon="6.42394">
        <ele>1072.2</ele>
        <time>2014-08-15T11:40:32.614Z</time>
      </trkpt>
      <trkpt lat="46.8683" lon="6.42398">
        <ele>1073.5</ele>
        <time>2014-08-15T11:40:40.082Z</time>
      </trkpt>
      <trkpt lat="46.8682" lon="6.42404">
        <ele>1077.5</ele>
        <time>2014-08-15T11:40:46.191Z</time>
      </trkpt>
      <trkpt lat="46.86812" lon="6.42413">
        <ele>1088.3</ele>
        <time>2014-08-15T11:40:52.257Z</time>
      </trkpt>
      <trkpt lat="46.868" lon="6.42437">
        <ele>1117.6</ele>
        <time>2014-08-15T11:41:03.802Z</time>
      </trkpt>
      <trkpt lat="46.86785" lon="6.42455">
        <ele>1128.1</ele>
        <time>2014-08-15T11:41:20.877Z</time>
      </trkpt>
      <trkpt lat="46.86777" lon="6.42472">
        <ele>1127.3</ele>
        <time>2014-08-15T11:42:02.764Z</time>
      </trkpt>
      <trkpt lat="46.86769" lon="6.42481">
        <ele>1127.7</ele>
        <time>2014-08-15T11:42:07.885Z</time>
      </trkpt>
      <trkpt lat="46.86764" lon="6.42498">
        <ele>1129.9</ele>
        <time>2014-08-15T11:42:37.967Z</time>
      </trkpt>
      <trkpt lat="46.86757" lon="6.42507">
        <ele>1130.8</ele>
        <time>2014-08-15T11:42:43.082Z</time>
      </trkpt>
      <trkpt lat="46.8675" lon="6.42515">
        <ele>1141</ele>
        <time>2014-08-15T11:42:47.914Z</time>
      </trkpt>
      <trkpt lat="46.86719" lon="6.42525">
        <ele>1144.9</ele>
        <time>2014-08-15T11:43:30.877Z</time>
      </trkpt>
      <trkpt lat="46.86712" lon="6.42537">
        <ele>1143.4</ele>
        <time>2014-08-15T11:44:20.778Z</time>
      </trkpt>
      <trkpt lat="46.86709" lon="6.42551">
        <ele>1143.4</ele>
        <time>2014-08-15T11:44:28.924Z</time>
      </trkpt>
      <trkpt lat="46.86705" lon="6.42564">
        <ele>1144.1</ele>
        <time>2014-08-15T11:44:35.305Z</time>
      </trkpt>
      <trkpt lat="46.86698" lon="6.42605">
        <ele>1149.1</ele>
        <time>2014-08-15T11:44:54.040Z</time>
      </trkpt>
      <trkpt lat="46.86697" lon="6.42618">
        <ele>1149.9</ele>
        <time>2014-08-15T11:44:59.891Z</time>
      </trkpt>
      <trkpt lat="46.86698" lon="6.42632">
        <ele>1150</ele>
        <time>2014-08-15T11:45:06.357Z</time>
      </trkpt>
      <trkpt lat="46.86696" lon="6.42646">
        <ele>1149.8</ele>
        <time>2014-08-15T11:45:12.770Z</time>
      </trkpt>
      <trkpt lat="46.86678" lon="6.42681">
        <ele>1154.3</ele>
        <time>2014-08-15T11:45:29.994Z</time>
      </trkpt>
      <trkpt lat="46.86677" lon="6.42695">
        <ele>1155.7</ele>
        <time>2014-08-15T11:45:35.882Z</time>
      </trkpt>
      <trkpt lat="46.8666" lon="6.4274">
        <ele>1156</ele>
        <time>2014-08-15T11:46:36.160Z</time>
      </trkpt>
      <trkpt lat="46.86655" lon="6.42751">
        <ele>1158.4</ele>
        <time>2014-08-15T11:46:45.936Z</time>
      </trkpt>
      <trkpt lat="46.86651" lon="6.42779">
        <ele>1159.3</ele>
        <time>2014-08-15T11:47:07.390Z</time>
      </trkpt>
      <trkpt lat="46.86647" lon="6.42792">
        <ele>1158.7</ele>
        <time>2014-08-15T11:47:14.197Z</time>
      </trkpt>
      <trkpt lat="46.86628" lon="6.4284">
        <ele>1164.6</ele>
        <time>2014-08-15T11:47:39.175Z</time>
      </trkpt>
      <trkpt lat="46.86624" lon="6.42883">
        <ele>1164.9</ele>
        <time>2014-08-15T11:48:00.068Z</time>
      </trkpt>
      <trkpt lat="46.86616" lon="6.42909">
        <ele>1165.8</ele>
        <time>2014-08-15T11:48:13.771Z</time>
      </trkpt>
      <trkpt lat="46.86602" lon="6.42927">
        <ele>1169.3</ele>
        <time>2014-08-15T11:48:27.414Z</time>
      </trkpt>
      <trkpt lat="46.86593" lon="6.42934">
        <ele>1171.3</ele>
        <time>2014-08-15T11:48:34.300Z</time>
      </trkpt>
      <trkpt lat="46.86575" lon="6.42943">
        <ele>1173.1</ele>
        <time>2014-08-15T11:48:46.479Z</time>
      </trkpt>
      <trkpt lat="46.86566" lon="6.42945">
        <ele>1173.8</ele>
        <time>2014-08-15T11:48:52.851Z</time>
      </trkpt>
      <trkpt lat="46.86557" lon="6.42943">
        <ele>1174.2</ele>
        <time>2014-08-15T11:49:02.088Z</time>
      </trkpt>
      <trkpt lat="46.86548" lon="6.42947">
        <ele>1173.7</ele>
        <time>2014-08-15T11:49:11.084Z</time>
      </trkpt>
      <trkpt lat="46.86539" lon="6.4295">
        <ele>1172.7</ele>
        <time>2014-08-15T11:49:24.519Z</time>
      </trkpt>
      <trkpt lat="46.86532" lon="6.42958">
        <ele>1172.7</ele>
        <time>2014-08-15T11:49:35.882Z</time>
      </trkpt>
      <trkpt lat="46.86524" lon="6.42974">
        <ele>1171.6</ele>
        <time>2014-08-15T11:50:13.977Z</time>
      </trkpt>
      <trkpt lat="46.86515" lon="6.42978">
        <ele>1172.7</ele>
        <time>2014-08-15T11:50:22.635Z</time>
      </trkpt>
      <trkpt lat="46.86506" lon="6.42978">
        <ele>1176.4</ele>
        <time>2014-08-15T11:50:28.876Z</time>
      </trkpt>
      <trkpt lat="46.86493" lon="6.42977">
        <ele>1178.3</ele>
        <time>2014-08-15T11:51:23.113Z</time>
      </trkpt>
      <trkpt lat="46.86484" lon="6.42979">
        <ele>1176.5</ele>
        <time>2014-08-15T11:51:33.254Z</time>
      </trkpt>
      <trkpt lat="46.86475" lon="6.4298">
        <ele>1175.5</ele>
        <time>2014-08-15T11:51:41.849Z</time>
      </trkpt>
      <trkpt lat="46.86457" lon="6.42992">
        <ele>1175.3</ele>
        <time>2014-08-15T11:51:59.901Z</time>
      </trkpt>
      <trkpt lat="46.86433" lon="6.42981">
        <ele>1173.3</ele>
        <time>2014-08-15T11:52:55.043Z</time>
      </trkpt>
      <trkpt lat="46.86423" lon="6.42973">
        <ele>1173</ele>
        <time>2014-08-15T11:53:00.223Z</time>
      </trkpt>
      <trkpt lat="46.86413" lon="6.42967">
        <ele>1173.1</ele>
        <time>2014-08-15T11:53:04.199Z</time>
      </trkpt>
      <trkpt lat="46.86382" lon="6.42956">
        <ele>1175</ele>
        <time>2014-08-15T11:53:15.143Z</time>
      </trkpt>
      <trkpt lat="46.86362" lon="6.42953">
        <ele>1180.8</ele>
        <time>2014-08-15T11:53:23.491Z</time>
      </trkpt>
      <trkpt lat="46.86353" lon="6.42949">
        <ele>1183.7</ele>
        <time>2014-08-15T11:53:28.086Z</time>
      </trkpt>
      <trkpt lat="46.86347" lon="6.42936">
        <ele>1185.5</ele>
        <time>2014-08-15T11:53:33.503Z</time>
      </trkpt>
      <trkpt lat="46.86343" lon="6.42922">
        <ele>1186.3</ele>
        <time>2014-08-15T11:53:38.754Z</time>
      </trkpt>
      <trkpt lat="46.86329" lon="6.42902">
        <ele>1187.5</ele>
        <time>2014-08-15T11:53:50.835Z</time>
      </trkpt>
      <trkpt lat="46.86322" lon="6.42891">
        <ele>1189.5</ele>
        <time>2014-08-15T11:53:57.935Z</time>
      </trkpt>
      <trkpt lat="46.86312" lon="6.42882">
        <ele>1190.8</ele>
        <time>2014-08-15T11:54:06.074Z</time>
      </trkpt>
      <trkpt lat="46.86284" lon="6.42864">
        <ele>1191.4</ele>
        <time>2014-08-15T11:54:21.077Z</time>
      </trkpt>
      <trkpt lat="46.86276" lon="6.42856">
        <ele>1190.1</ele>
        <time>2014-08-15T11:54:25.587Z</time>
      </trkpt>
      <trkpt lat="46.86265" lon="6.42851">
        <ele>1186.2</ele>
        <time>2014-08-15T11:54:30.790Z</time>
      </trkpt>
      <trkpt lat="46.86246" lon="6.42848">
        <ele>1177.6</ele>
        <time>2014-08-15T11:54:40.880Z</time>
      </trkpt>
      <trkpt lat="46.86233" lon="6.42877">
        <ele>1172.6</ele>
        <time>2014-08-15T11:55:56.881Z</time>
      </trkpt>
      <trkpt lat="46.86226" lon="6.42886">
        <ele>1173.3</ele>
        <time>2014-08-15T11:56:17.283Z</time>
      </trkpt>
      <trkpt lat="46.86218" lon="6.42893">
        <ele>1175</ele>
        <time>2014-08-15T11:56:25.300Z</time>
      </trkpt>
      <trkpt lat="46.86211" lon="6.42885">
        <ele>1181.1</ele>
        <time>2014-08-15T11:56:31.877Z</time>
      </trkpt>
      <trkpt lat="46.86202" lon="6.42881">
        <ele>1187.3</ele>
        <time>2014-08-15T11:56:37.556Z</time>
      </trkpt>
      <trkpt lat="46.86192" lon="6.42884">
        <ele>1189.8</ele>
        <time>2014-08-15T11:56:42.613Z</time>
      </trkpt>
      <trkpt lat="46.86182" lon="6.42884">
        <ele>1188.9</ele>
        <time>2014-08-15T11:56:47.591Z</time>
      </trkpt>
      <trkpt lat="46.8616" lon="6.42888">
        <ele>1183.7</ele>
        <time>2014-08-15T11:56:58.885Z</time>
      </trkpt>
      <trkpt lat="46.86151" lon="6.42891">
        <ele>1181.6</ele>
        <time>2014-08-15T11:57:03.900Z</time>
      </trkpt>
      <trkpt lat="46.86141" lon="6.42895">
        <ele>1180.7</ele>
        <time>2014-08-15T11:57:08.986Z</time>
      </trkpt>
      <trkpt lat="46.8613" lon="6.42902">
        <ele>1180.8</ele>
        <time>2014-08-15T11:57:14.883Z</time>
      </trkpt>
      <trkpt lat="46.86101" lon="6.42946">
        <ele>1179.6</ele>
        <time>2014-08-15T11:57:46.676Z</time>
      </trkpt>
      <trkpt lat="46.8609" lon="6.42943">
        <ele>1180</ele>
        <time>2014-08-15T11:57:52.027Z</time>
      </trkpt>
      <trkpt lat="46.86083" lon="6.42918">
        <ele>1181.2</ele>
        <time>2014-08-15T11:58:01.187Z</time>
      </trkpt>
      <trkpt lat="46.86082" lon="6.42902">
        <ele>1183.9</ele>
        <time>2014-08-15T11:58:06.517Z</time>
      </trkpt>
      <trkpt lat="46.86091" lon="6.42877">
        <ele>1182.3</ele>
        <time>2014-08-15T11:58:15.691Z</time>
      </trkpt>
      <trkpt lat="46.86103" lon="6.42836">
        <ele>1184.5</ele>
        <time>2014-08-15T11:58:32.591Z</time>
      </trkpt>
      <trkpt lat="46.86108" lon="6.42823">
        <ele>1190.2</ele>
        <time>2014-08-15T11:58:40.189Z</time>
      </trkpt>
      <trkpt lat="46.86106" lon="6.42809">
        <ele>1195.8</ele>
        <time>2014-08-15T11:58:48.522Z</time>
      </trkpt>
      <trkpt lat="46.86097" lon="6.42801">
        <ele>1198.3</ele>
        <time>2014-08-15T11:58:55.925Z</time>
      </trkpt>
      <trkpt lat="46.86087" lon="6.42801">
        <ele>1196.3</ele>
        <time>2014-08-15T11:59:01.501Z</time>
      </trkpt>
      <trkpt lat="46.86079" lon="6.42809">
        <ele>1194.6</ele>
        <time>2014-08-15T11:59:06.558Z</time>
      </trkpt>
      <trkpt lat="46.86072" lon="6.42818">
        <ele>1193.5</ele>
        <time>2014-08-15T11:59:12.390Z</time>
      </trkpt>
      <trkpt lat="46.86066" lon="6.42829">
        <ele>1193</ele>
        <time>2014-08-15T11:59:18.628Z</time>
      </trkpt>
      <trkpt lat="46.86058" lon="6.42836">
        <ele>1194</ele>
        <time>2014-08-15T11:59:24.877Z</time>
      </trkpt>
      <trkpt lat="46.86049" lon="6.42849">
        <ele>1193.5</ele>
        <time>2014-08-15T12:00:24.295Z</time>
      </trkpt>
      <trkpt lat="46.86039" lon="6.42851">
        <ele>1194</ele>
        <time>2014-08-15T12:00:30.017Z</time>
      </trkpt>
      <trkpt lat="46.8603" lon="6.42851">
        <ele>1196.6</ele>
        <time>2014-08-15T12:00:34.860Z</time>
      </trkpt>
      <trkpt lat="46.86022" lon="6.42843">
        <ele>1201.4</ele>
        <time>2014-08-15T12:00:39.899Z</time>
      </trkpt>
      <trkpt lat="46.86015" lon="6.42832">
        <ele>1207</ele>
        <time>2014-08-15T12:00:44.371Z</time>
      </trkpt>
      <trkpt lat="46.86011" lon="6.4282">
        <ele>1210.3</ele>
        <time>2014-08-15T12:00:48.392Z</time>
      </trkpt>
      <trkpt lat="46.86008" lon="6.42806">
        <ele>1209</ele>
        <time>2014-08-15T12:00:52.907Z</time>
      </trkpt>
      <trkpt lat="46.86002" lon="6.42794">
        <ele>1204.8</ele>
        <time>2014-08-15T12:00:57.296Z</time>
      </trkpt>
      <trkpt lat="46.85979" lon="6.42773">
        <ele>1200.3</ele>
        <time>2014-08-15T12:01:08.921Z</time>
      </trkpt>
      <trkpt lat="46.85969" lon="6.42787">
        <ele>1199</ele>
        <time>2014-08-15T12:01:33.883Z</time>
      </trkpt>
      <trkpt lat="46.85948" lon="6.42794">
        <ele>1198.1</ele>
        <time>2014-08-15T12:03:06.652Z</time>
      </trkpt>
      <trkpt lat="46.8594" lon="6.42787">
        <ele>1198.9</ele>
        <time>2014-08-15T12:03:10.928Z</time>
      </trkpt>
      <trkpt lat="46.85917" lon="6.42775">
        <ele>1206.1</ele>
        <time>2014-08-15T12:03:16.806Z</time>
      </trkpt>
      <trkpt lat="46.85899" lon="6.42775">
        <ele>1207.7</ele>
        <time>2014-08-15T12:03:19.397Z</time>
      </trkpt>
      <trkpt lat="46.85845" lon="6.42794">
        <ele>1193.5</ele>
        <time>2014-08-15T12:03:29.571Z</time>
      </trkpt>
      <trkpt lat="46.85833" lon="6.42801">
        <ele>1189.7</ele>
        <time>2014-08-15T12:03:32.115Z</time>
      </trkpt>
      <trkpt lat="46.85818" lon="6.42804">
        <ele>1187.8</ele>
        <time>2014-08-15T12:03:35.041Z</time>
      </trkpt>
      <trkpt lat="46.85809" lon="6.428">
        <ele>1186.3</ele>
        <time>2014-08-15T12:03:36.533Z</time>
      </trkpt>
      <trkpt lat="46.85795" lon="6.42793">
        <ele>1184.5</ele>
        <time>2014-08-15T12:03:38.854Z</time>
      </trkpt>
      <trkpt lat="46.85783" lon="6.42791">
        <ele>1183</ele>
        <time>2014-08-15T12:03:40.678Z</time>
      </trkpt>
      <trkpt lat="46.85764" lon="6.428">
        <ele>1182.4</ele>
        <time>2014-08-15T12:03:44.028Z</time>
      </trkpt>
      <trkpt lat="46.85749" lon="6.42817">
        <ele>1182.3</ele>
        <time>2014-08-15T12:03:48.743Z</time>
      </trkpt>
      <trkpt lat="46.85739" lon="6.42825">
        <ele>1182.3</ele>
        <time>2014-08-15T12:03:52.430Z</time>
      </trkpt>
      <trkpt lat="46.8572" lon="6.42836">
        <ele>1183.7</ele>
        <time>2014-08-15T12:03:59.651Z</time>
      </trkpt>
      <trkpt lat="46.857" lon="6.42854">
        <ele>1183.4</ele>
        <time>2014-08-15T12:04:05.546Z</time>
      </trkpt>
      <trkpt lat="46.85682" lon="6.42879">
        <ele>1182.5</ele>
        <time>2014-08-15T12:04:10.866Z</time>
      </trkpt>
      <trkpt lat="46.85674" lon="6.42888">
        <ele>1183.3</ele>
        <time>2014-08-15T12:04:14.288Z</time>
      </trkpt>
      <trkpt lat="46.85659" lon="6.42905">
        <ele>1183.5</ele>
        <time>2014-08-15T12:04:21.024Z</time>
      </trkpt>
      <trkpt lat="46.85647" lon="6.42911">
        <ele>1182.2</ele>
        <time>2014-08-15T12:04:24.441Z</time>
      </trkpt>
      <trkpt lat="46.85637" lon="6.42906">
        <ele>1180.1</ele>
        <time>2014-08-15T12:04:27.279Z</time>
      </trkpt>
      <trkpt lat="46.85627" lon="6.42899">
        <ele>1179.5</ele>
        <time>2014-08-15T12:04:30.857Z</time>
      </trkpt>
      <trkpt lat="46.85609" lon="6.42881">
        <ele>1184.5</ele>
        <time>2014-08-15T12:04:40.148Z</time>
      </trkpt>
      <trkpt lat="46.85553" lon="6.42846">
        <ele>1190</ele>
        <time>2014-08-15T12:04:57.420Z</time>
      </trkpt>
      <trkpt lat="46.85443" lon="6.42752">
        <ele>1182.9</ele>
        <time>2014-08-15T12:05:18.738Z</time>
      </trkpt>
      <trkpt lat="46.85401" lon="6.42724">
        <ele>1178.7</ele>
        <time>2014-08-15T12:05:24.367Z</time>
      </trkpt>
      <trkpt lat="46.85378" lon="6.42711">
        <ele>1178</ele>
        <time>2014-08-15T12:05:27.005Z</time>
      </trkpt>
      <trkpt lat="46.85363" lon="6.42707">
        <ele>1178.2</ele>
        <time>2014-08-15T12:05:28.531Z</time>
      </trkpt>
      <trkpt lat="46.85316" lon="6.42711">
        <ele>1178.7</ele>
        <time>2014-08-15T12:05:33.045Z</time>
      </trkpt>
      <trkpt lat="46.85289" lon="6.4271">
        <ele>1177.6</ele>
        <time>2014-08-15T12:05:35.797Z</time>
      </trkpt>
      <trkpt lat="46.85257" lon="6.42703">
        <ele>1174.1</ele>
        <time>2014-08-15T12:05:39.610Z</time>
      </trkpt>
      <trkpt lat="46.85236" lon="6.42702">
        <ele>1173.6</ele>
        <time>2014-08-15T12:05:42.329Z</time>
      </trkpt>
      <trkpt lat="46.85223" lon="6.42707">
        <ele>1173.8</ele>
        <time>2014-08-15T12:05:44.100Z</time>
      </trkpt>
      <trkpt lat="46.85197" lon="6.42723">
        <ele>1173.9</ele>
        <time>2014-08-15T12:05:49.661Z</time>
      </trkpt>
      <trkpt lat="46.85188" lon="6.42725">
        <ele>1173.7</ele>
        <time>2014-08-15T12:05:52.881Z</time>
      </trkpt>
      <trkpt lat="46.85182" lon="6.42708">
        <ele>1173</ele>
        <time>2014-08-15T12:06:17.473Z</time>
      </trkpt>
      <trkpt lat="46.85186" lon="6.42656">
        <ele>1177.9</ele>
        <time>2014-08-15T12:06:27.528Z</time>
      </trkpt>
      <trkpt lat="46.85185" lon="6.42643">
        <ele>1177.8</ele>
        <time>2014-08-15T12:06:29.835Z</time>
      </trkpt>
      <trkpt lat="46.85179" lon="6.42628">
        <ele>1175.7</ele>
        <time>2014-08-15T12:06:32.715Z</time>
      </trkpt>
      <trkpt lat="46.8514" lon="6.42542">
        <ele>1170.3</ele>
        <time>2014-08-15T12:06:52.894Z</time>
      </trkpt>
      <trkpt lat="46.85136" lon="6.42515">
        <ele>1169.3</ele>
        <time>2014-08-15T12:08:07.302Z</time>
      </trkpt>
      <trkpt lat="46.85122" lon="6.4245">
        <ele>1180.6</ele>
        <time>2014-08-15T12:08:21.587Z</time>
      </trkpt>
      <trkpt lat="46.85117" lon="6.42433">
        <ele>1177.1</ele>
        <time>2014-08-15T12:08:24.458Z</time>
      </trkpt>
      <trkpt lat="46.85109" lon="6.42418">
        <ele>1174.7</ele>
        <time>2014-08-15T12:08:27.160Z</time>
      </trkpt>
      <trkpt lat="46.85085" lon="6.42383">
        <ele>1175.2</ele>
        <time>2014-08-15T12:08:33.359Z</time>
      </trkpt>
      <trkpt lat="46.85071" lon="6.42368">
        <ele>1175.7</ele>
        <time>2014-08-15T12:08:36.303Z</time>
      </trkpt>
      <trkpt lat="46.85054" lon="6.42358">
        <ele>1175.3</ele>
        <time>2014-08-15T12:08:39.198Z</time>
      </trkpt>
      <trkpt lat="46.85021" lon="6.42347">
        <ele>1171.9</ele>
        <time>2014-08-15T12:08:43.983Z</time>
      </trkpt>
      <trkpt lat="46.85008" lon="6.4234">
        <ele>1170.6</ele>
        <time>2014-08-15T12:08:45.845Z</time>
      </trkpt>
      <trkpt lat="46.84995" lon="6.42331">
        <ele>1170.2</ele>
        <time>2014-08-15T12:08:47.680Z</time>
      </trkpt>
      <trkpt lat="46.84976" lon="6.42312">
        <ele>1170.4</ele>
        <time>2014-08-15T12:08:50.458Z</time>
      </trkpt>
      <trkpt lat="46.84965" lon="6.42294">
        <ele>1170.3</ele>
        <time>2014-08-15T12:08:52.347Z</time>
      </trkpt>
      <trkpt lat="46.84942" lon="6.42242">
        <ele>1168.7</ele>
        <time>2014-08-15T12:08:57.050Z</time>
      </trkpt>
      <trkpt lat="46.84929" lon="6.42207">
        <ele>1166.6</ele>
        <time>2014-08-15T12:09:00.001Z</time>
      </trkpt>
      <trkpt lat="46.84919" lon="6.42185">
        <ele>1164.1</ele>
        <time>2014-08-15T12:09:01.939Z</time>
      </trkpt>
      <trkpt lat="46.84898" lon="6.42162">
        <ele>1162</ele>
        <time>2014-08-15T12:09:04.580Z</time>
      </trkpt>
      <trkpt lat="46.84821" lon="6.42093">
        <ele>1158.3</ele>
        <time>2014-08-15T12:09:12.405Z</time>
      </trkpt>
      <trkpt lat="46.84764" lon="6.42014">
        <ele>1151.6</ele>
        <time>2014-08-15T12:09:19.601Z</time>
      </trkpt>
      <trkpt lat="46.84673" lon="6.4187">
        <ele>1143.3</ele>
        <time>2014-08-15T12:09:33.485Z</time>
      </trkpt>
      <trkpt lat="46.8465" lon="6.41846">
        <ele>1141</ele>
        <time>2014-08-15T12:09:36.314Z</time>
      </trkpt>
      <trkpt lat="46.84605" lon="6.41817">
        <ele>1134.6</ele>
        <time>2014-08-15T12:09:41.201Z</time>
      </trkpt>
      <trkpt lat="46.84587" lon="6.41803">
        <ele>1132.6</ele>
        <time>2014-08-15T12:09:43.239Z</time>
      </trkpt>
      <trkpt lat="46.84569" lon="6.41767">
        <ele>1130.8</ele>
        <time>2014-08-15T12:09:46.311Z</time>
      </trkpt>
      <trkpt lat="46.84527" lon="6.41644">
        <ele>1121.4</ele>
        <time>2014-08-15T12:10:03.935Z</time>
      </trkpt>
      <trkpt lat="46.8452" lon="6.41632">
        <ele>1121.3</ele>
        <time>2014-08-15T12:10:08.173Z</time>
      </trkpt>
      <trkpt lat="46.84513" lon="6.4162">
        <ele>1120.7</ele>
        <time>2014-08-15T12:10:12.117Z</time>
      </trkpt>
      <trkpt lat="46.84503" lon="6.41597">
        <ele>1117.3</ele>
        <time>2014-08-15T12:10:17.781Z</time>
      </trkpt>
      <trkpt lat="46.84481" lon="6.41562">
        <ele>1114.9</ele>
        <time>2014-08-15T12:10:25.395Z</time>
      </trkpt>
      <trkpt lat="46.84474" lon="6.4154">
        <ele>1115.8</ele>
        <time>2014-08-15T12:10:28.411Z</time>
      </trkpt>
      <trkpt lat="46.84471" lon="6.41516">
        <ele>1117</ele>
        <time>2014-08-15T12:10:31.583Z</time>
      </trkpt>
      <trkpt lat="46.84473" lon="6.41435">
        <ele>1116.8</ele>
        <time>2014-08-15T12:10:42.745Z</time>
      </trkpt>
      <trkpt lat="46.84469" lon="6.41404">
        <ele>1117.5</ele>
        <time>2014-08-15T12:10:46.972Z</time>
      </trkpt>
      <trkpt lat="46.8446" lon="6.41383">
        <ele>1118.3</ele>
        <time>2014-08-15T12:10:50.120Z</time>
      </trkpt>
      <trkpt lat="46.84432" lon="6.41345">
        <ele>1117.6</ele>
        <time>2014-08-15T12:10:56.624Z</time>
      </trkpt>
      <trkpt lat="46.84293" lon="6.41163">
        <ele>1105.8</ele>
        <time>2014-08-15T12:11:25.805Z</time>
      </trkpt>
      <trkpt lat="46.84233" lon="6.4111">
        <ele>1109.8</ele>
        <time>2014-08-15T12:11:40.675Z</time>
      </trkpt>
      <trkpt lat="46.8383" lon="6.40697">
        <ele>1094.8</ele>
        <time>2014-08-15T12:13:17.358Z</time>
      </trkpt>
      <trkpt lat="46.83826" lon="6.40684">
        <ele>1094.6</ele>
        <time>2014-08-15T12:13:20.309Z</time>
      </trkpt>
      <trkpt lat="46.83832" lon="6.40674">
        <ele>1094.5</ele>
        <time>2014-08-15T12:13:22.560Z</time>
      </trkpt>
      <trkpt lat="46.83881" lon="6.40545">
        <ele>1090.5</ele>
        <time>2014-08-15T12:13:39.738Z</time>
      </trkpt>
      <trkpt lat="46.83904" lon="6.40468">
        <ele>1091.8</ele>
        <time>2014-08-15T12:13:49.515Z</time>
      </trkpt>
      <trkpt lat="46.83913" lon="6.40447">
        <ele>1094.1</ele>
        <time>2014-08-15T12:13:52.308Z</time>
      </trkpt>
      <trkpt lat="46.83924" lon="6.40385">
        <ele>1094.2</ele>
        <time>2014-08-15T12:13:59.135Z</time>
      </trkpt>
      <trkpt lat="46.83939" lon="6.40242">
        <ele>1092.6</ele>
        <time>2014-08-15T12:14:15.160Z</time>
      </trkpt>
      <trkpt lat="46.83968" lon="6.40133">
        <ele>1087.4</ele>
        <time>2014-08-15T12:14:28.537Z</time>
      </trkpt>
      <trkpt lat="46.83971" lon="6.40107">
        <ele>1086.1</ele>
        <time>2014-08-15T12:14:31.497Z</time>
      </trkpt>
      <trkpt lat="46.83972" lon="6.4009">
        <ele>1084.1</ele>
        <time>2014-08-15T12:14:33.641Z</time>
      </trkpt>
      <trkpt lat="46.83981" lon="6.40052">
        <ele>1079.9</ele>
        <time>2014-08-15T12:14:39.368Z</time>
      </trkpt>
      <trkpt lat="46.83989" lon="6.40026">
        <ele>1082.2</ele>
        <time>2014-08-15T12:14:43.381Z</time>
      </trkpt>
      <trkpt lat="46.84005" lon="6.40001">
        <ele>1087.8</ele>
        <time>2014-08-15T12:14:48.886Z</time>
      </trkpt>
      <trkpt lat="46.83984" lon="6.40062">
        <ele>1088.6</ele>
        <time>2014-08-15T12:15:58.847Z</time>
      </trkpt>
      <trkpt lat="46.83981" lon="6.40076">
        <ele>1088.8</ele>
        <time>2014-08-15T12:16:02.102Z</time>
      </trkpt>
      <trkpt lat="46.83975" lon="6.40091">
        <ele>1088.8</ele>
        <time>2014-08-15T12:16:06.122Z</time>
      </trkpt>
      <trkpt lat="46.83966" lon="6.40098">
        <ele>1088.5</ele>
        <time>2014-08-15T12:16:09.215Z</time>
      </trkpt>
      <trkpt lat="46.83933" lon="6.40104">
        <ele>1086.9</ele>
        <time>2014-08-15T12:16:17.738Z</time>
      </trkpt>
      <trkpt lat="46.83645" lon="6.40147">
        <ele>1083.9</ele>
        <time>2014-08-15T12:17:14.804Z</time>
      </trkpt>
      <trkpt lat="46.83633" lon="6.40141">
        <ele>1085</ele>
        <time>2014-08-15T12:17:17.895Z</time>
      </trkpt>
      <trkpt lat="46.83646" lon="6.40102">
        <ele>1084.3</ele>
        <time>2014-08-15T12:17:33.761Z</time>
      </trkpt>
      <trkpt lat="46.83656" lon="6.40052">
        <ele>1086.8</ele>
        <time>2014-08-15T12:17:41.259Z</time>
      </trkpt>
      <trkpt lat="46.83658" lon="6.40035">
        <ele>1086.3</ele>
        <time>2014-08-15T12:17:44.009Z</time>
      </trkpt>
      <trkpt lat="46.83647" lon="6.40036">
        <ele>1085.2</ele>
        <time>2014-08-15T12:17:46.674Z</time>
      </trkpt>
      <trkpt lat="46.83613" lon="6.40052">
        <ele>1078.7</ele>
        <time>2014-08-15T12:17:57.947Z</time>
      </trkpt>
      <trkpt lat="46.83588" lon="6.40067">
        <ele>1086.1</ele>
        <time>2014-08-15T12:18:04.275Z</time>
      </trkpt>
      <trkpt lat="46.83579" lon="6.40068">
        <ele>1089.2</ele>
        <time>2014-08-15T12:18:06.543Z</time>
      </trkpt>
      <trkpt lat="46.83559" lon="6.40057">
        <ele>1089.5</ele>
        <time>2014-08-15T12:18:12.101Z</time>
      </trkpt>
      <trkpt lat="46.83548" lon="6.40054">
        <ele>1087.2</ele>
        <time>2014-08-15T12:18:15.243Z</time>
      </trkpt>
      <trkpt lat="46.83539" lon="6.40046">
        <ele>1085.3</ele>
        <time>2014-08-15T12:18:17.903Z</time>
      </trkpt>
      <trkpt lat="46.83531" lon="6.40029">
        <ele>1083.2</ele>
        <time>2014-08-15T12:18:27.150Z</time>
      </trkpt>
      <trkpt lat="46.83534" lon="6.40015">
        <ele>1082.7</ele>
        <time>2014-08-15T12:18:31.645Z</time>
      </trkpt>
      <trkpt lat="46.83575" lon="6.39944">
        <ele>1080</ele>
        <time>2014-08-15T12:18:51.064Z</time>
      </trkpt>
      <trkpt lat="46.83581" lon="6.39928">
        <ele>1080.6</ele>
        <time>2014-08-15T12:18:54.975Z</time>
      </trkpt>
      <trkpt lat="46.83589" lon="6.3992">
        <ele>1080.9</ele>
        <time>2014-08-15T12:18:58.251Z</time>
      </trkpt>
      <trkpt lat="46.83614" lon="6.3987">
        <ele>1088.3</ele>
        <time>2014-08-15T12:19:14.154Z</time>
      </trkpt>
      <trkpt lat="46.83613" lon="6.39884">
        <ele>1092.2</ele>
        <time>2014-08-15T12:19:18.189Z</time>
      </trkpt>
      <trkpt lat="46.83591" lon="6.39916">
        <ele>1090.5</ele>
        <time>2014-08-15T12:19:30.773Z</time>
      </trkpt>
      <trkpt lat="46.83584" lon="6.39925">
        <ele>1090.3</ele>
        <time>2014-08-15T12:19:34.099Z</time>
      </trkpt>
      <trkpt lat="46.83559" lon="6.39971">
        <ele>1089.5</ele>
        <time>2014-08-15T12:19:47.850Z</time>
      </trkpt>
      <trkpt lat="46.83551" lon="6.3998">
        <ele>1088.8</ele>
        <time>2014-08-15T12:19:51.524Z</time>
      </trkpt>
      <trkpt lat="46.83533" lon="6.40005">
        <ele>1089.9</ele>
        <time>2014-08-15T12:20:04.145Z</time>
      </trkpt>
      <trkpt lat="46.83523" lon="6.40029">
        <ele>1093.1</ele>
        <time>2014-08-15T12:20:15.134Z</time>
      </trkpt>
      <trkpt lat="46.8352" lon="6.40042">
        <ele>1094.2</ele>
        <time>2014-08-15T12:20:19.856Z</time>
      </trkpt>
      <trkpt lat="46.83512" lon="6.40048">
        <ele>1093.5</ele>
        <time>2014-08-15T12:20:24.940Z</time>
      </trkpt>
      <trkpt lat="46.8351" lon="6.40064">
        <ele>1090.9</ele>
        <time>2014-08-15T12:20:31.435Z</time>
      </trkpt>
      <trkpt lat="46.83506" lon="6.40077">
        <ele>1088.6</ele>
        <time>2014-08-15T12:20:36.552Z</time>
      </trkpt>
      <trkpt lat="46.83501" lon="6.4009">
        <ele>1087.7</ele>
        <time>2014-08-15T12:20:41.371Z</time>
      </trkpt>
      <trkpt lat="46.83497" lon="6.40103">
        <ele>1087.9</ele>
        <time>2014-08-15T12:20:45.813Z</time>
      </trkpt>
      <trkpt lat="46.83491" lon="6.40114">
        <ele>1088.4</ele>
        <time>2014-08-15T12:20:49.894Z</time>
      </trkpt>
      <trkpt lat="46.8348" lon="6.40191">
        <ele>1090</ele>
        <time>2014-08-15T12:21:52.843Z</time>
      </trkpt>
      <trkpt lat="46.83476" lon="6.40204">
        <ele>1091.5</ele>
        <time>2014-08-15T12:21:55.549Z</time>
      </trkpt>
      <trkpt lat="46.83468" lon="6.40249">
        <ele>1088.4</ele>
        <time>2014-08-15T12:22:04.577Z</time>
      </trkpt>
      <trkpt lat="46.83447" lon="6.40302">
        <ele>1091.8</ele>
        <time>2014-08-15T12:22:15.897Z</time>
      </trkpt>
      <trkpt lat="46.83426" lon="6.40379">
        <ele>1090.9</ele>
        <time>2014-08-15T12:22:39.625Z</time>
      </trkpt>
      <trkpt lat="46.8342" lon="6.40389">
        <ele>1090</ele>
        <time>2014-08-15T12:22:42.945Z</time>
      </trkpt>
      <trkpt lat="46.83416" lon="6.40404">
        <ele>1089.1</ele>
        <time>2014-08-15T12:22:46.721Z</time>
      </trkpt>
      <trkpt lat="46.8341" lon="6.40415">
        <ele>1088.8</ele>
        <time>2014-08-15T12:22:49.895Z</time>
      </trkpt>
      <trkpt lat="46.83402" lon="6.40455">
        <ele>1087.9</ele>
        <time>2014-08-15T12:23:11.509Z</time>
      </trkpt>
      <trkpt lat="46.83398" lon="6.40468">
        <ele>1088.2</ele>
        <time>2014-08-15T12:23:16.148Z</time>
      </trkpt>
      <trkpt lat="46.83395" lon="6.40481">
        <ele>1089.3</ele>
        <time>2014-08-15T12:23:20.465Z</time>
      </trkpt>
      <trkpt lat="46.83391" lon="6.40493">
        <ele>1090.9</ele>
        <time>2014-08-15T12:23:25.250Z</time>
      </trkpt>
      <trkpt lat="46.83383" lon="6.40482">
        <ele>1092.3</ele>
        <time>2014-08-15T12:23:30.743Z</time>
      </trkpt>
      <trkpt lat="46.83385" lon="6.40435">
        <ele>1091.3</ele>
        <time>2014-08-15T12:23:44.905Z</time>
      </trkpt>
      <trkpt lat="46.83387" lon="6.40419">
        <ele>1090.5</ele>
        <time>2014-08-15T12:23:49.253Z</time>
      </trkpt>
      <trkpt lat="46.8339" lon="6.40404">
        <ele>1090.2</ele>
        <time>2014-08-15T12:23:53.277Z</time>
      </trkpt>
      <trkpt lat="46.83405" lon="6.40364">
        <ele>1090.2</ele>
        <time>2014-08-15T12:24:04.982Z</time>
      </trkpt>
      <trkpt lat="46.83408" lon="6.40351">
        <ele>1090.2</ele>
        <time>2014-08-15T12:24:08.381Z</time>
      </trkpt>
      <trkpt lat="46.83415" lon="6.4034">
        <ele>1090.2</ele>
        <time>2014-08-15T12:24:11.760Z</time>
      </trkpt>
      <trkpt lat="46.83424" lon="6.40332">
        <ele>1090</ele>
        <time>2014-08-15T12:24:15.100Z</time>
      </trkpt>
      <trkpt lat="46.83432" lon="6.4032">
        <ele>1089.7</ele>
        <time>2014-08-15T12:24:18.893Z</time>
      </trkpt>
      <trkpt lat="46.83435" lon="6.40319">
        <ele>1110.3</ele>
        <time>2014-08-15T12:28:03.897Z</time>
      </trkpt>
      <trkpt lat="46.83449" lon="6.40301">
        <ele>1109.2</ele>
        <time>2014-08-15T12:28:56.201Z</time>
      </trkpt>
      <trkpt lat="46.83457" lon="6.40266">
        <ele>1098.8</ele>
        <time>2014-08-15T12:29:03.519Z</time>
      </trkpt>
      <trkpt lat="46.83469" lon="6.40238">
        <ele>1087.8</ele>
        <time>2014-08-15T12:29:07.689Z</time>
      </trkpt>
      <trkpt lat="46.83474" lon="6.40219">
        <ele>1087.6</ele>
        <time>2014-08-15T12:29:10.052Z</time>
      </trkpt>
      <trkpt lat="46.83491" lon="6.40137">
        <ele>1088.6</ele>
        <time>2014-08-15T12:29:22.104Z</time>
      </trkpt>
      <trkpt lat="46.8349" lon="6.40114">
        <ele>1088.7</ele>
        <time>2014-08-15T12:29:25.618Z</time>
      </trkpt>
      <trkpt lat="46.83478" lon="6.40103">
        <ele>1088.9</ele>
        <time>2014-08-15T12:29:28.640Z</time>
      </trkpt>
      <trkpt lat="46.83447" lon="6.40088">
        <ele>1090.4</ele>
        <time>2014-08-15T12:29:35.641Z</time>
      </trkpt>
      <trkpt lat="46.83438" lon="6.40078">
        <ele>1091.1</ele>
        <time>2014-08-15T12:29:38.348Z</time>
      </trkpt>
      <trkpt lat="46.83435" lon="6.40059">
        <ele>1090.8</ele>
        <time>2014-08-15T12:29:41.384Z</time>
      </trkpt>
      <trkpt lat="46.83444" lon="6.4">
        <ele>1086.9</ele>
        <time>2014-08-15T12:29:52.033Z</time>
      </trkpt>
      <trkpt lat="46.83444" lon="6.39983">
        <ele>1087.5</ele>
        <time>2014-08-15T12:29:55.149Z</time>
      </trkpt>
      <trkpt lat="46.83441" lon="6.39953">
        <ele>1087.6</ele>
        <time>2014-08-15T12:30:01.454Z</time>
      </trkpt>
      <trkpt lat="46.83419" lon="6.39867">
        <ele>1090.2</ele>
        <time>2014-08-15T12:30:23.354Z</time>
      </trkpt>
      <trkpt lat="46.83414" lon="6.39853">
        <ele>1089.5</ele>
        <time>2014-08-15T12:30:26.995Z</time>
      </trkpt>
      <trkpt lat="46.83409" lon="6.39841">
        <ele>1089</ele>
        <time>2014-08-15T12:30:30.279Z</time>
      </trkpt>
      <trkpt lat="46.83399" lon="6.3983">
        <ele>1089</ele>
        <time>2014-08-15T12:30:34.385Z</time>
      </trkpt>
      <trkpt lat="46.83389" lon="6.39823">
        <ele>1089.5</ele>
        <time>2014-08-15T12:30:38.370Z</time>
      </trkpt>
      <trkpt lat="46.83379" lon="6.39813">
        <ele>1090.1</ele>
        <time>2014-08-15T12:30:42.249Z</time>
      </trkpt>
      <trkpt lat="46.83306" lon="6.39763">
        <ele>1095.1</ele>
        <time>2014-08-15T12:31:02.448Z</time>
      </trkpt>
      <trkpt lat="46.83277" lon="6.39726">
        <ele>1091.1</ele>
        <time>2014-08-15T12:31:08.891Z</time>
      </trkpt>
      <trkpt lat="46.83256" lon="6.39694">
        <ele>1085.3</ele>
        <time>2014-08-15T12:31:13.443Z</time>
      </trkpt>
      <trkpt lat="46.83073" lon="6.39343">
        <ele>1087.6</ele>
        <time>2014-08-15T12:32:10.320Z</time>
      </trkpt>
      <trkpt lat="46.83064" lon="6.3933">
        <ele>1088.7</ele>
        <time>2014-08-15T12:32:12.974Z</time>
      </trkpt>
      <trkpt lat="46.83054" lon="6.39319">
        <ele>1089.5</ele>
        <time>2014-08-15T12:32:15.642Z</time>
      </trkpt>
      <trkpt lat="46.8301" lon="6.3929">
        <ele>1087.6</ele>
        <time>2014-08-15T12:32:26.669Z</time>
      </trkpt>
      <trkpt lat="46.82991" lon="6.39274">
        <ele>1090.5</ele>
        <time>2014-08-15T12:32:32.088Z</time>
      </trkpt>
      <trkpt lat="46.82983" lon="6.39264">
        <ele>1090.6</ele>
        <time>2014-08-15T12:32:35.000Z</time>
      </trkpt>
      <trkpt lat="46.82977" lon="6.39251">
        <ele>1090.2</ele>
        <time>2014-08-15T12:32:38.003Z</time>
      </trkpt>
      <trkpt lat="46.82966" lon="6.39203">
        <ele>1089.3</ele>
        <time>2014-08-15T12:32:47.096Z</time>
      </trkpt>
      <trkpt lat="46.82966" lon="6.39156">
        <ele>1087.6</ele>
        <time>2014-08-15T12:32:55.826Z</time>
      </trkpt>
      <trkpt lat="46.8297" lon="6.39126">
        <ele>1089.4</ele>
        <time>2014-08-15T12:33:01.751Z</time>
      </trkpt>
      <trkpt lat="46.82981" lon="6.39084">
        <ele>1089.6</ele>
        <time>2014-08-15T12:33:10.411Z</time>
      </trkpt>
      <trkpt lat="46.82993" lon="6.39042">
        <ele>1088.8</ele>
        <time>2014-08-15T12:33:19.218Z</time>
      </trkpt>
      <trkpt lat="46.82994" lon="6.39028">
        <ele>1089.5</ele>
        <time>2014-08-15T12:33:22.057Z</time>
      </trkpt>
      <trkpt lat="46.82999" lon="6.39016">
        <ele>1090.3</ele>
        <time>2014-08-15T12:33:24.869Z</time>
      </trkpt>
      <trkpt lat="46.83043" lon="6.38835">
        <ele>1093.3</ele>
        <time>2014-08-15T12:34:01.424Z</time>
      </trkpt>
      <trkpt lat="46.83102" lon="6.38678">
        <ele>1093.1</ele>
        <time>2014-08-15T12:34:26.458Z</time>
      </trkpt>
      <trkpt lat="46.83105" lon="6.38662">
        <ele>1092.1</ele>
        <time>2014-08-15T12:34:28.287Z</time>
      </trkpt>
      <trkpt lat="46.83106" lon="6.38648">
        <ele>1091.3</ele>
        <time>2014-08-15T12:34:30.113Z</time>
      </trkpt>
      <trkpt lat="46.83101" lon="6.38601">
        <ele>1089.5</ele>
        <time>2014-08-15T12:34:36.752Z</time>
      </trkpt>
      <trkpt lat="46.83095" lon="6.38567">
        <ele>1088.5</ele>
        <time>2014-08-15T12:34:41.919Z</time>
      </trkpt>
      <trkpt lat="46.83083" lon="6.38555">
        <ele>1087.8</ele>
        <time>2014-08-15T12:35:04.788Z</time>
      </trkpt>
      <trkpt lat="46.83073" lon="6.38551">
        <ele>1087.7</ele>
        <time>2014-08-15T12:35:09.966Z</time>
      </trkpt>
      <trkpt lat="46.83065" lon="6.38545">
        <ele>1088.7</ele>
        <time>2014-08-15T12:35:14.633Z</time>
      </trkpt>
      <trkpt lat="46.83048" lon="6.38529">
        <ele>1087.7</ele>
        <time>2014-08-15T12:35:24.635Z</time>
      </trkpt>
      <trkpt lat="46.8303" lon="6.38516">
        <ele>1085.6</ele>
        <time>2014-08-15T12:35:33.403Z</time>
      </trkpt>
      <trkpt lat="46.83023" lon="6.38505">
        <ele>1086.1</ele>
        <time>2014-08-15T12:35:36.404Z</time>
      </trkpt>
      <trkpt lat="46.83006" lon="6.3849">
        <ele>1087.2</ele>
        <time>2014-08-15T12:35:42.657Z</time>
      </trkpt>
      <trkpt lat="46.82993" lon="6.38479">
        <ele>1087.4</ele>
        <time>2014-08-15T12:35:48.796Z</time>
      </trkpt>
      <trkpt lat="46.82986" lon="6.38472">
        <ele>1087.2</ele>
        <time>2014-08-15T12:35:53.729Z</time>
      </trkpt>
      <trkpt lat="46.82971" lon="6.38443">
        <ele>1086</ele>
        <time>2014-08-15T12:36:10.011Z</time>
      </trkpt>
      <trkpt lat="46.82961" lon="6.38429">
        <ele>1086</ele>
        <time>2014-08-15T12:36:16.693Z</time>
      </trkpt>
      <trkpt lat="46.82953" lon="6.38424">
        <ele>1086.7</ele>
        <time>2014-08-15T12:36:21.667Z</time>
      </trkpt>
      <trkpt lat="46.82948" lon="6.3841">
        <ele>1086.7</ele>
        <time>2014-08-15T12:36:28.073Z</time>
      </trkpt>
      <trkpt lat="46.82942" lon="6.38399">
        <ele>1086.7</ele>
        <time>2014-08-15T12:36:34.119Z</time>
      </trkpt>
      <trkpt lat="46.82932" lon="6.38391">
        <ele>1087</ele>
        <time>2014-08-15T12:36:40.397Z</time>
      </trkpt>
      <trkpt lat="46.82925" lon="6.38381">
        <ele>1087.5</ele>
        <time>2014-08-15T12:36:46.078Z</time>
      </trkpt>
      <trkpt lat="46.82913" lon="6.38368">
        <ele>1087.9</ele>
        <time>2014-08-15T12:36:54.936Z</time>
      </trkpt>
      <trkpt lat="46.82904" lon="6.38362">
        <ele>1087.3</ele>
        <time>2014-08-15T12:37:00.885Z</time>
      </trkpt>
      <trkpt lat="46.82895" lon="6.38356">
        <ele>1085.7</ele>
        <time>2014-08-15T12:37:06.170Z</time>
      </trkpt>
      <trkpt lat="46.82867" lon="6.38325">
        <ele>1086</ele>
        <time>2014-08-15T12:37:23.837Z</time>
      </trkpt>
      <trkpt lat="46.82858" lon="6.38321">
        <ele>1087.3</ele>
        <time>2014-08-15T12:37:28.203Z</time>
      </trkpt>
      <trkpt lat="46.82848" lon="6.38318">
        <ele>1087.8</ele>
        <time>2014-08-15T12:37:33.409Z</time>
      </trkpt>
      <trkpt lat="46.82839" lon="6.38311">
        <ele>1087.4</ele>
        <time>2014-08-15T12:37:38.091Z</time>
      </trkpt>
      <trkpt lat="46.82829" lon="6.38304">
        <ele>1086.3</ele>
        <time>2014-08-15T12:37:43.494Z</time>
      </trkpt>
      <trkpt lat="46.82813" lon="6.38287">
        <ele>1086.1</ele>
        <time>2014-08-15T12:37:53.628Z</time>
      </trkpt>
      <trkpt lat="46.82804" lon="6.38281">
        <ele>1087.8</ele>
        <time>2014-08-15T12:37:58.941Z</time>
      </trkpt>
      <trkpt lat="46.82794" lon="6.38262">
        <ele>1089</ele>
        <time>2014-08-15T12:38:08.343Z</time>
      </trkpt>
      <trkpt lat="46.82785" lon="6.38256">
        <ele>1089</ele>
        <time>2014-08-15T12:38:13.848Z</time>
      </trkpt>
      <trkpt lat="46.82776" lon="6.3825">
        <ele>1088.1</ele>
        <time>2014-08-15T12:38:18.146Z</time>
      </trkpt>
      <trkpt lat="46.82766" lon="6.38239">
        <ele>1087.7</ele>
        <time>2014-08-15T12:38:22.416Z</time>
      </trkpt>
      <trkpt lat="46.82757" lon="6.38233">
        <ele>1090.6</ele>
        <time>2014-08-15T12:38:25.716Z</time>
      </trkpt>
      <trkpt lat="46.82749" lon="6.38224">
        <ele>1093.3</ele>
        <time>2014-08-15T12:38:28.910Z</time>
      </trkpt>
      <trkpt lat="46.82743" lon="6.38207">
        <ele>1095.9</ele>
        <time>2014-08-15T12:38:33.869Z</time>
      </trkpt>
      <trkpt lat="46.82745" lon="6.38163">
        <ele>1095.2</ele>
        <time>2014-08-15T12:38:47.675Z</time>
      </trkpt>
      <trkpt lat="46.82748" lon="6.38135">
        <ele>1092.7</ele>
        <time>2014-08-15T12:38:56.466Z</time>
      </trkpt>
      <trkpt lat="46.82748" lon="6.38106">
        <ele>1086.6</ele>
        <time>2014-08-15T12:39:04.631Z</time>
      </trkpt>
      <trkpt lat="46.82749" lon="6.38091">
        <ele>1084.8</ele>
        <time>2014-08-15T12:39:08.011Z</time>
      </trkpt>
      <trkpt lat="46.82773" lon="6.38035">
        <ele>1082.2</ele>
        <time>2014-08-15T12:39:20.998Z</time>
      </trkpt>
      <trkpt lat="46.82776" lon="6.38018">
        <ele>1081.5</ele>
        <time>2014-08-15T12:39:24.273Z</time>
      </trkpt>
      <trkpt lat="46.82775" lon="6.37991">
        <ele>1075.7</ele>
        <time>2014-08-15T12:39:29.761Z</time>
      </trkpt>
      <trkpt lat="46.82778" lon="6.37974">
        <ele>1072.6</ele>
        <time>2014-08-15T12:39:33.176Z</time>
      </trkpt>
      <trkpt lat="46.82782" lon="6.37962">
        <ele>1072</ele>
        <time>2014-08-15T12:39:35.929Z</time>
      </trkpt>
      <trkpt lat="46.82783" lon="6.3794">
        <ele>1074.8</ele>
        <time>2014-08-15T12:39:58.543Z</time>
      </trkpt>
      <trkpt lat="46.82789" lon="6.37913">
        <ele>1076.8</ele>
        <time>2014-08-15T12:40:06.784Z</time>
      </trkpt>
      <trkpt lat="46.82796" lon="6.379">
        <ele>1081.6</ele>
        <time>2014-08-15T12:40:10.274Z</time>
      </trkpt>
      <trkpt lat="46.828" lon="6.37885">
        <ele>1086</ele>
        <time>2014-08-15T12:40:13.991Z</time>
      </trkpt>
      <trkpt lat="46.82799" lon="6.3787">
        <ele>1088.6</ele>
        <time>2014-08-15T12:40:18.245Z</time>
      </trkpt>
      <trkpt lat="46.82795" lon="6.37856">
        <ele>1089.2</ele>
        <time>2014-08-15T12:40:22.995Z</time>
      </trkpt>
      <trkpt lat="46.82781" lon="6.3784">
        <ele>1089.3</ele>
        <time>2014-08-15T12:40:33.906Z</time>
      </trkpt>
      <trkpt lat="46.8277" lon="6.37834">
        <ele>1091.7</ele>
        <time>2014-08-15T12:45:59.324Z</time>
      </trkpt>
      <trkpt lat="46.82763" lon="6.37825">
        <ele>1089.3</ele>
        <time>2014-08-15T12:46:08.276Z</time>
      </trkpt>
      <trkpt lat="46.82759" lon="6.37811">
        <ele>1086.5</ele>
        <time>2014-08-15T12:46:14.576Z</time>
      </trkpt>
      <trkpt lat="46.82758" lon="6.37797">
        <ele>1084.5</ele>
        <time>2014-08-15T12:46:19.971Z</time>
      </trkpt>
      <trkpt lat="46.82748" lon="6.37792">
        <ele>1083.9</ele>
        <time>2014-08-15T12:46:25.414Z</time>
      </trkpt>
      <trkpt lat="46.82734" lon="6.37767">
        <ele>1084.3</ele>
        <time>2014-08-15T12:46:41.351Z</time>
      </trkpt>
      <trkpt lat="46.82725" lon="6.37755">
        <ele>1083.8</ele>
        <time>2014-08-15T12:46:52.494Z</time>
      </trkpt>
      <trkpt lat="46.82696" lon="6.37733">
        <ele>1084.3</ele>
        <time>2014-08-15T12:47:06.757Z</time>
      </trkpt>
      <trkpt lat="46.82686" lon="6.37728">
        <ele>1085.1</ele>
        <time>2014-08-15T12:47:11.065Z</time>
      </trkpt>
      <trkpt lat="46.82679" lon="6.37718">
        <ele>1083.5</ele>
        <time>2014-08-15T12:47:14.917Z</time>
      </trkpt>
      <trkpt lat="46.82675" lon="6.37681">
        <ele>1081.3</ele>
        <time>2014-08-15T12:47:25.910Z</time>
      </trkpt>
      <trkpt lat="46.82663" lon="6.3767">
        <ele>1079.3</ele>
        <time>2014-08-15T12:48:03.049Z</time>
      </trkpt>
      <trkpt lat="46.82654" lon="6.37677">
        <ele>1079.6</ele>
        <time>2014-08-15T12:48:08.445Z</time>
      </trkpt>
      <trkpt lat="46.82644" lon="6.3768">
        <ele>1081.7</ele>
        <time>2014-08-15T12:48:13.917Z</time>
      </trkpt>
      <trkpt lat="46.82633" lon="6.37671">
        <ele>1085.2</ele>
        <time>2014-08-15T12:48:20.905Z</time>
      </trkpt>
      <trkpt lat="46.82625" lon="6.37658">
        <ele>1087.4</ele>
        <time>2014-08-15T12:49:16.540Z</time>
      </trkpt>
      <trkpt lat="46.82617" lon="6.37649">
        <ele>1089.1</ele>
        <time>2014-08-15T12:49:23.057Z</time>
      </trkpt>
      <trkpt lat="46.82585" lon="6.37641">
        <ele>1097.8</ele>
        <time>2014-08-15T12:49:41.908Z</time>
      </trkpt>
      <trkpt lat="46.82563" lon="6.37625">
        <ele>1089.3</ele>
        <time>2014-08-15T12:50:21.370Z</time>
      </trkpt>
      <trkpt lat="46.82558" lon="6.37613">
        <ele>1090.3</ele>
        <time>2014-08-15T12:50:28.161Z</time>
      </trkpt>
      <trkpt lat="46.82556" lon="6.376">
        <ele>1090.7</ele>
        <time>2014-08-15T12:50:33.922Z</time>
      </trkpt>
      <trkpt lat="46.82535" lon="6.37566">
        <ele>1083.4</ele>
        <time>2014-08-15T12:50:45.910Z</time>
      </trkpt>
      <trkpt lat="46.8253" lon="6.37542">
        <ele>1076.5</ele>
        <time>2014-08-15T12:51:03.933Z</time>
      </trkpt>
      <trkpt lat="46.82529" lon="6.37526">
        <ele>1078.3</ele>
        <time>2014-08-15T12:51:07.561Z</time>
      </trkpt>
      <trkpt lat="46.82526" lon="6.3751">
        <ele>1080.1</ele>
        <time>2014-08-15T12:51:10.504Z</time>
      </trkpt>
      <trkpt lat="46.82519" lon="6.37496">
        <ele>1081</ele>
        <time>2014-08-15T12:51:13.203Z</time>
      </trkpt>
      <trkpt lat="46.82517" lon="6.37483">
        <ele>1080.9</ele>
        <time>2014-08-15T12:51:15.285Z</time>
      </trkpt>
      <trkpt lat="46.82516" lon="6.37464">
        <ele>1080.1</ele>
        <time>2014-08-15T12:51:18.232Z</time>
      </trkpt>
      <trkpt lat="46.82514" lon="6.37451">
        <ele>1079.2</ele>
        <time>2014-08-15T12:51:20.202Z</time>
      </trkpt>
      <trkpt lat="46.82507" lon="6.37433">
        <ele>1078.3</ele>
        <time>2014-08-15T12:51:23.203Z</time>
      </trkpt>
      <trkpt lat="46.82471" lon="6.37398">
        <ele>1068</ele>
        <time>2014-08-15T12:51:31.836Z</time>
      </trkpt>
      <trkpt lat="46.82466" lon="6.37383">
        <ele>1062.5</ele>
        <time>2014-08-15T12:51:34.076Z</time>
      </trkpt>
      <trkpt lat="46.82465" lon="6.37366">
        <ele>1057.9</ele>
        <time>2014-08-15T12:51:36.856Z</time>
      </trkpt>
      <trkpt lat="46.82463" lon="6.3735">
        <ele>1054.3</ele>
        <time>2014-08-15T12:51:39.391Z</time>
      </trkpt>
      <trkpt lat="46.82452" lon="6.37348">
        <ele>1052.3</ele>
        <time>2014-08-15T12:51:41.924Z</time>
      </trkpt>
      <trkpt lat="46.82412" lon="6.37368">
        <ele>1068.3</ele>
        <time>2014-08-15T12:52:07.923Z</time>
      </trkpt>
      <trkpt lat="46.82401" lon="6.37375">
        <ele>1082.4</ele>
        <time>2014-08-15T12:52:12.043Z</time>
      </trkpt>
      <trkpt lat="46.82392" lon="6.37382">
        <ele>1090.2</ele>
        <time>2014-08-15T12:52:15.435Z</time>
      </trkpt>
      <trkpt lat="46.82383" lon="6.37386">
        <ele>1091.4</ele>
        <time>2014-08-15T12:52:18.561Z</time>
      </trkpt>
      <trkpt lat="46.82375" lon="6.37392">
        <ele>1088.7</ele>
        <time>2014-08-15T12:52:22.186Z</time>
      </trkpt>
      <trkpt lat="46.82358" lon="6.37408">
        <ele>1080.6</ele>
        <time>2014-08-15T12:52:30.289Z</time>
      </trkpt>
      <trkpt lat="46.82337" lon="6.37416">
        <ele>1077.2</ele>
        <time>2014-08-15T12:52:38.966Z</time>
      </trkpt>
      <trkpt lat="46.82326" lon="6.37418">
        <ele>1077.1</ele>
        <time>2014-08-15T12:52:44.236Z</time>
      </trkpt>
      <trkpt lat="46.82313" lon="6.37416">
        <ele>1077.2</ele>
        <time>2014-08-15T12:52:50.609Z</time>
      </trkpt>
      <trkpt lat="46.82288" lon="6.37419">
        <ele>1075.7</ele>
        <time>2014-08-15T12:52:59.564Z</time>
      </trkpt>
      <trkpt lat="46.82278" lon="6.37421">
        <ele>1074.8</ele>
        <time>2014-08-15T12:53:03.034Z</time>
      </trkpt>
      <trkpt lat="46.82268" lon="6.37422">
        <ele>1074.7</ele>
        <time>2014-08-15T12:53:06.716Z</time>
      </trkpt>
      <trkpt lat="46.82257" lon="6.37428">
        <ele>1075.4</ele>
        <time>2014-08-15T12:53:11.587Z</time>
      </trkpt>
      <trkpt lat="46.82246" lon="6.3743">
        <ele>1076.5</ele>
        <time>2014-08-15T12:53:15.423Z</time>
      </trkpt>
      <trkpt lat="46.82236" lon="6.37433">
        <ele>1077.6</ele>
        <time>2014-08-15T12:53:18.916Z</time>
      </trkpt>
      <trkpt lat="46.82217" lon="6.37429">
        <ele>1077.7</ele>
        <time>2014-08-15T12:58:31.379Z</time>
      </trkpt>
      <trkpt lat="46.82195" lon="6.37427">
        <ele>1079.1</ele>
        <time>2014-08-15T12:58:45.931Z</time>
      </trkpt>
      <trkpt lat="46.82186" lon="6.37422">
        <ele>1080.7</ele>
        <time>2014-08-15T12:58:50.253Z</time>
      </trkpt>
      <trkpt lat="46.82175" lon="6.37427">
        <ele>1082.9</ele>
        <time>2014-08-15T12:58:54.843Z</time>
      </trkpt>
      <trkpt lat="46.82164" lon="6.37431">
        <ele>1087.4</ele>
        <time>2014-08-15T12:58:59.423Z</time>
      </trkpt>
      <trkpt lat="46.82155" lon="6.37436">
        <ele>1092.5</ele>
        <time>2014-08-15T12:59:03.803Z</time>
      </trkpt>
      <trkpt lat="46.82146" lon="6.37441">
        <ele>1095.3</ele>
        <time>2014-08-15T12:59:07.941Z</time>
      </trkpt>
      <trkpt lat="46.82117" lon="6.37456">
        <ele>1089.7</ele>
        <time>2014-08-15T12:59:22.348Z</time>
      </trkpt>
      <trkpt lat="46.82107" lon="6.37462">
        <ele>1088.3</ele>
        <time>2014-08-15T12:59:27.811Z</time>
      </trkpt>
      <trkpt lat="46.821" lon="6.37472">
        <ele>1090.2</ele>
        <time>2014-08-15T12:59:33.245Z</time>
      </trkpt>
      <trkpt lat="46.82093" lon="6.37484">
        <ele>1093.5</ele>
        <time>2014-08-15T12:59:38.501Z</time>
      </trkpt>
      <trkpt lat="46.82089" lon="6.37497">
        <ele>1096.4</ele>
        <time>2014-08-15T12:59:43.387Z</time>
      </trkpt>
      <trkpt lat="46.82087" lon="6.37511">
        <ele>1096.8</ele>
        <time>2014-08-15T12:59:48.248Z</time>
      </trkpt>
      <trkpt lat="46.82082" lon="6.37521">
        <ele>1093.5</ele>
        <time>2014-08-15T12:59:53.833Z</time>
      </trkpt>
      <trkpt lat="46.82074" lon="6.37532">
        <ele>1089.2</ele>
        <time>2014-08-15T12:59:59.926Z</time>
      </trkpt>
      <trkpt lat="46.82068" lon="6.37545">
        <ele>1086.6</ele>
        <time>2014-08-15T13:00:05.069Z</time>
      </trkpt>
      <trkpt lat="46.82065" lon="6.37558">
        <ele>1085</ele>
        <time>2014-08-15T13:00:09.101Z</time>
      </trkpt>
      <trkpt lat="46.82044" lon="6.37605">
        <ele>1083.1</ele>
        <time>2014-08-15T13:00:31.349Z</time>
      </trkpt>
      <trkpt lat="46.82027" lon="6.37621">
        <ele>1090.5</ele>
        <time>2014-08-15T13:00:44.921Z</time>
      </trkpt>
      <trkpt lat="46.82021" lon="6.37634">
        <ele>1092.3</ele>
        <time>2014-08-15T13:01:39.723Z</time>
      </trkpt>
      <trkpt lat="46.82021" lon="6.37647">
        <ele>1090.8</ele>
        <time>2014-08-15T13:01:47.328Z</time>
      </trkpt>
      <trkpt lat="46.82016" lon="6.37662">
        <ele>1089.6</ele>
        <time>2014-08-15T13:01:53.006Z</time>
      </trkpt>
      <trkpt lat="46.82006" lon="6.37666">
        <ele>1088.8</ele>
        <time>2014-08-15T13:01:57.740Z</time>
      </trkpt>
      <trkpt lat="46.81996" lon="6.37663">
        <ele>1087.6</ele>
        <time>2014-08-15T13:02:02.233Z</time>
      </trkpt>
      <trkpt lat="46.8199" lon="6.37651">
        <ele>1086.1</ele>
        <time>2014-08-15T13:02:06.591Z</time>
      </trkpt>
      <trkpt lat="46.81982" lon="6.37643">
        <ele>1084.5</ele>
        <time>2014-08-15T13:02:10.637Z</time>
      </trkpt>
      <trkpt lat="46.81979" lon="6.3763">
        <ele>1083.5</ele>
        <time>2014-08-15T13:02:14.912Z</time>
      </trkpt>
      <trkpt lat="46.81986" lon="6.3761">
        <ele>1083.1</ele>
        <time>2014-08-15T13:03:04.880Z</time>
      </trkpt>
      <trkpt lat="46.81985" lon="6.37596">
        <ele>1083.8</ele>
        <time>2014-08-15T13:03:13.510Z</time>
      </trkpt>
      <trkpt lat="46.81986" lon="6.37581">
        <ele>1087.9</ele>
        <time>2014-08-15T13:03:19.092Z</time>
      </trkpt>
      <trkpt lat="46.81984" lon="6.37566">
        <ele>1093.2</ele>
        <time>2014-08-15T13:03:23.310Z</time>
      </trkpt>
      <trkpt lat="46.81981" lon="6.37549">
        <ele>1095.7</ele>
        <time>2014-08-15T13:03:26.907Z</time>
      </trkpt>
      <trkpt lat="46.81977" lon="6.37505">
        <ele>1093.8</ele>
        <time>2014-08-15T13:03:34.438Z</time>
      </trkpt>
      <trkpt lat="46.81978" lon="6.37476">
        <ele>1095</ele>
        <time>2014-08-15T13:03:39.708Z</time>
      </trkpt>
      <trkpt lat="46.81974" lon="6.37461">
        <ele>1096.6</ele>
        <time>2014-08-15T13:03:42.538Z</time>
      </trkpt>
      <trkpt lat="46.81955" lon="6.3742">
        <ele>1092.9</ele>
        <time>2014-08-15T13:03:51.247Z</time>
      </trkpt>
      <trkpt lat="46.81944" lon="6.37405">
        <ele>1086.8</ele>
        <time>2014-08-15T13:03:54.564Z</time>
      </trkpt>
      <trkpt lat="46.81933" lon="6.37392">
        <ele>1082.6</ele>
        <time>2014-08-15T13:03:57.613Z</time>
      </trkpt>
      <trkpt lat="46.81919" lon="6.37379">
        <ele>1082</ele>
        <time>2014-08-15T13:04:01.225Z</time>
      </trkpt>
      <trkpt lat="46.81909" lon="6.37372">
        <ele>1083</ele>
        <time>2014-08-15T13:04:03.560Z</time>
      </trkpt>
      <trkpt lat="46.81887" lon="6.37364">
        <ele>1082.6</ele>
        <time>2014-08-15T13:04:08.611Z</time>
      </trkpt>
      <trkpt lat="46.81866" lon="6.37351">
        <ele>1080.4</ele>
        <time>2014-08-15T13:04:13.545Z</time>
      </trkpt>
      <trkpt lat="46.81852" lon="6.37344">
        <ele>1080.1</ele>
        <time>2014-08-15T13:04:16.712Z</time>
      </trkpt>
      <trkpt lat="46.81768" lon="6.37322">
        <ele>1086.5</ele>
        <time>2014-08-15T13:04:36.859Z</time>
      </trkpt>
      <trkpt lat="46.81758" lon="6.3732">
        <ele>1086.8</ele>
        <time>2014-08-15T13:04:39.223Z</time>
      </trkpt>
      <trkpt lat="46.81738" lon="6.37321">
        <ele>1088.3</ele>
        <time>2014-08-15T13:04:44.396Z</time>
      </trkpt>
      <trkpt lat="46.81693" lon="6.37308">
        <ele>1093.5</ele>
        <time>2014-08-15T13:05:00.023Z</time>
      </trkpt>
      <trkpt lat="46.81635" lon="6.37304">
        <ele>1090</ele>
        <time>2014-08-15T13:05:18.196Z</time>
      </trkpt>
      <trkpt lat="46.81622" lon="6.37306">
        <ele>1091.5</ele>
        <time>2014-08-15T13:05:21.394Z</time>
      </trkpt>
      <trkpt lat="46.81526" lon="6.37332">
        <ele>1104.1</ele>
        <time>2014-08-15T13:05:47.664Z</time>
      </trkpt>
      <trkpt lat="46.81516" lon="6.37334">
        <ele>1103.5</ele>
        <time>2014-08-15T13:05:50.529Z</time>
      </trkpt>
      <trkpt lat="46.81504" lon="6.37339">
        <ele>1101.9</ele>
        <time>2014-08-15T13:05:53.687Z</time>
      </trkpt>
      <trkpt lat="46.81493" lon="6.37341">
        <ele>1098.1</ele>
        <time>2014-08-15T13:05:56.336Z</time>
      </trkpt>
      <trkpt lat="46.81458" lon="6.37342">
        <ele>1088</ele>
        <time>2014-08-15T13:06:03.809Z</time>
      </trkpt>
      <trkpt lat="46.81419" lon="6.37338">
        <ele>1084.6</ele>
        <time>2014-08-15T13:06:10.812Z</time>
      </trkpt>
      <trkpt lat="46.81374" lon="6.37325">
        <ele>1084.2</ele>
        <time>2014-08-15T13:06:18.153Z</time>
      </trkpt>
      <trkpt lat="46.81357" lon="6.37312">
        <ele>1083.4</ele>
        <time>2014-08-15T13:06:21.009Z</time>
      </trkpt>
      <trkpt lat="46.81206" lon="6.37148">
        <ele>1080.7</ele>
        <time>2014-08-15T13:06:54.700Z</time>
      </trkpt>
      <trkpt lat="46.81181" lon="6.3713">
        <ele>1080.5</ele>
        <time>2014-08-15T13:06:59.335Z</time>
      </trkpt>
      <trkpt lat="46.81112" lon="6.37105">
        <ele>1082.2</ele>
        <time>2014-08-15T13:07:11.217Z</time>
      </trkpt>
      <trkpt lat="46.81094" lon="6.37101">
        <ele>1080.7</ele>
        <time>2014-08-15T13:07:14.073Z</time>
      </trkpt>
      <trkpt lat="46.81054" lon="6.37096">
        <ele>1076.5</ele>
        <time>2014-08-15T13:07:19.564Z</time>
      </trkpt>
      <trkpt lat="46.81027" lon="6.3709">
        <ele>1076.4</ele>
        <time>2014-08-15T13:07:22.655Z</time>
      </trkpt>
      <trkpt lat="46.80996" lon="6.37078">
        <ele>1076.9</ele>
        <time>2014-08-15T13:07:26.161Z</time>
      </trkpt>
      <trkpt lat="46.80944" lon="6.37047">
        <ele>1077.4</ele>
        <time>2014-08-15T13:07:33.293Z</time>
      </trkpt>
      <trkpt lat="46.80929" lon="6.37041">
        <ele>1077.9</ele>
        <time>2014-08-15T13:07:35.529Z</time>
      </trkpt>
      <trkpt lat="46.80873" lon="6.37023">
        <ele>1076.5</ele>
        <time>2014-08-15T13:07:44.382Z</time>
      </trkpt>
      <trkpt lat="46.80818" lon="6.36998">
        <ele>1080.1</ele>
        <time>2014-08-15T13:07:55.826Z</time>
      </trkpt>
      <trkpt lat="46.80809" lon="6.36994">
        <ele>1082.9</ele>
        <time>2014-08-15T13:07:57.720Z</time>
      </trkpt>
      <trkpt lat="46.80795" lon="6.36987">
        <ele>1084.4</ele>
        <time>2014-08-15T13:08:00.364Z</time>
      </trkpt>
      <trkpt lat="46.80763" lon="6.36963">
        <ele>1080.2</ele>
        <time>2014-08-15T13:08:07.541Z</time>
      </trkpt>
      <trkpt lat="46.8075" lon="6.36956">
        <ele>1079.4</ele>
        <time>2014-08-15T13:08:10.168Z</time>
      </trkpt>
      <trkpt lat="46.80736" lon="6.36953">
        <ele>1079.2</ele>
        <time>2014-08-15T13:08:12.756Z</time>
      </trkpt>
      <trkpt lat="46.8072" lon="6.36953">
        <ele>1079</ele>
        <time>2014-08-15T13:08:15.805Z</time>
      </trkpt>
      <trkpt lat="46.80694" lon="6.36956">
        <ele>1078.2</ele>
        <time>2014-08-15T13:08:21.745Z</time>
      </trkpt>
      <trkpt lat="46.80679" lon="6.36961">
        <ele>1077.9</ele>
        <time>2014-08-15T13:08:25.951Z</time>
      </trkpt>
      <trkpt lat="46.80665" lon="6.36967">
        <ele>1077.8</ele>
        <time>2014-08-15T13:08:29.645Z</time>
      </trkpt>
      <trkpt lat="46.80654" lon="6.36969">
        <ele>1078.4</ele>
        <time>2014-08-15T13:08:32.269Z</time>
      </trkpt>
      <trkpt lat="46.8064" lon="6.36967">
        <ele>1080.4</ele>
        <time>2014-08-15T13:08:35.811Z</time>
      </trkpt>
      <trkpt lat="46.80629" lon="6.36968">
        <ele>1083</ele>
        <time>2014-08-15T13:08:38.613Z</time>
      </trkpt>
      <trkpt lat="46.80609" lon="6.36972">
        <ele>1085.4</ele>
        <time>2014-08-15T13:08:43.783Z</time>
      </trkpt>
      <trkpt lat="46.80597" lon="6.36978">
        <ele>1085.1</ele>
        <time>2014-08-15T13:08:47.371Z</time>
      </trkpt>
      <trkpt lat="46.80588" lon="6.36985">
        <ele>1084.8</ele>
        <time>2014-08-15T13:08:50.363Z</time>
      </trkpt>
      <trkpt lat="46.80578" lon="6.36994">
        <ele>1084.7</ele>
        <time>2014-08-15T13:08:53.952Z</time>
      </trkpt>
      <trkpt lat="46.80562" lon="6.37015">
        <ele>1083.7</ele>
        <time>2014-08-15T13:08:59.185Z</time>
      </trkpt>
      <trkpt lat="46.80553" lon="6.37024">
        <ele>1082.8</ele>
        <time>2014-08-15T13:09:01.071Z</time>
      </trkpt>
      <trkpt lat="46.80544" lon="6.37036">
        <ele>1082.7</ele>
        <time>2014-08-15T13:09:02.638Z</time>
      </trkpt>
      <trkpt lat="46.80535" lon="6.37041">
        <ele>1083.7</ele>
        <time>2014-08-15T13:09:03.679Z</time>
      </trkpt>
      <trkpt lat="46.80436" lon="6.37076">
        <ele>1086</ele>
        <time>2014-08-15T13:09:12.325Z</time>
      </trkpt>
      <trkpt lat="46.80413" lon="6.37078">
        <ele>1082.7</ele>
        <time>2014-08-15T13:09:14.214Z</time>
      </trkpt>
      <trkpt lat="46.80379" lon="6.37077">
        <ele>1076.4</ele>
        <time>2014-08-15T13:09:16.958Z</time>
      </trkpt>
      <trkpt lat="46.80356" lon="6.37069">
        <ele>1069.5</ele>
        <time>2014-08-15T13:09:18.945Z</time>
      </trkpt>
      <trkpt lat="46.80334" lon="6.37055">
        <ele>1064.1</ele>
        <time>2014-08-15T13:09:20.934Z</time>
      </trkpt>
      <trkpt lat="46.80314" lon="6.37038">
        <ele>1060.6</ele>
        <time>2014-08-15T13:09:23.056Z</time>
      </trkpt>
      <trkpt lat="46.80283" lon="6.37028">
        <ele>1058.4</ele>
        <time>2014-08-15T13:09:26.128Z</time>
      </trkpt>
      <trkpt lat="46.80212" lon="6.37031">
        <ele>1054.6</ele>
        <time>2014-08-15T13:09:33.421Z</time>
      </trkpt>
      <trkpt lat="46.80184" lon="6.37027">
        <ele>1054</ele>
        <time>2014-08-15T13:09:36.412Z</time>
      </trkpt>
      <trkpt lat="46.79986" lon="6.36952">
        <ele>1048.9</ele>
        <time>2014-08-15T13:10:00.502Z</time>
      </trkpt>
      <trkpt lat="46.79965" lon="6.36948">
        <ele>1048.1</ele>
        <time>2014-08-15T13:10:02.853Z</time>
      </trkpt>
      <trkpt lat="46.79948" lon="6.36955">
        <ele>1048.2</ele>
        <time>2014-08-15T13:10:04.760Z</time>
      </trkpt>
      <trkpt lat="46.79933" lon="6.36971">
        <ele>1049.3</ele>
        <time>2014-08-15T13:10:06.667Z</time>
      </trkpt>
      <trkpt lat="46.79878" lon="6.37063">
        <ele>1044.2</ele>
        <time>2014-08-15T13:10:15.965Z</time>
      </trkpt>
      <trkpt lat="46.79858" lon="6.37084">
        <ele>1041.8</ele>
        <time>2014-08-15T13:10:18.793Z</time>
      </trkpt>
      <trkpt lat="46.7981" lon="6.37122">
        <ele>1040.4</ele>
        <time>2014-08-15T13:10:25.618Z</time>
      </trkpt>
      <trkpt lat="46.79791" lon="6.37141">
        <ele>1039.4</ele>
        <time>2014-08-15T13:10:28.560Z</time>
      </trkpt>
      <trkpt lat="46.7977" lon="6.37154">
        <ele>1039</ele>
        <time>2014-08-15T13:10:31.335Z</time>
      </trkpt>
      <trkpt lat="46.79686" lon="6.37191">
        <ele>1043.1</ele>
        <time>2014-08-15T13:10:43.569Z</time>
      </trkpt>
      <trkpt lat="46.79679" lon="6.37202">
        <ele>1042.5</ele>
        <time>2014-08-15T13:10:45.574Z</time>
      </trkpt>
      <trkpt lat="46.79678" lon="6.37277">
        <ele>1043.6</ele>
        <time>2014-08-15T13:10:57.426Z</time>
      </trkpt>
      <trkpt lat="46.79672" lon="6.37291">
        <ele>1043.6</ele>
        <time>2014-08-15T13:11:00.614Z</time>
      </trkpt>
      <trkpt lat="46.79628" lon="6.37332">
        <ele>1044.6</ele>
        <time>2014-08-15T13:11:19.327Z</time>
      </trkpt>
      <trkpt lat="46.79619" lon="6.3734">
        <ele>1044.7</ele>
        <time>2014-08-15T13:11:23.911Z</time>
      </trkpt>
      <trkpt lat="46.79597" lon="6.37368">
        <ele>1044.7</ele>
        <time>2014-08-15T13:11:38.983Z</time>
      </trkpt>
      <trkpt lat="46.79594" lon="6.3738">
        <ele>1045.3</ele>
        <time>2014-08-15T13:11:43.742Z</time>
      </trkpt>
      <trkpt lat="46.79592" lon="6.37409">
        <ele>1046.6</ele>
        <time>2014-08-15T13:11:53.878Z</time>
      </trkpt>
      <trkpt lat="46.79592" lon="6.37451">
        <ele>1047.7</ele>
        <time>2014-08-15T13:12:17.927Z</time>
      </trkpt>
      <trkpt lat="46.79599" lon="6.37503">
        <ele>1049.5</ele>
        <time>2014-08-15T13:13:16.925Z</time>
      </trkpt>
      <trkpt lat="46.79597" lon="6.37518">
        <ele>1051.1</ele>
        <time>2014-08-15T13:13:43.133Z</time>
      </trkpt>
      <trkpt lat="46.79596" lon="6.37532">
        <ele>1051.6</ele>
        <time>2014-08-15T13:13:56.519Z</time>
      </trkpt>
      <trkpt lat="46.79599" lon="6.37545">
        <ele>1054.3</ele>
        <time>2014-08-15T13:14:10.930Z</time>
      </trkpt>
      <trkpt lat="46.79583" lon="6.37565">
        <ele>1056.3</ele>
        <time>2014-08-15T13:15:38.322Z</time>
      </trkpt>
      <trkpt lat="46.79563" lon="6.3757">
        <ele>1066.8</ele>
        <time>2014-08-15T13:15:48.667Z</time>
      </trkpt>
      <trkpt lat="46.79557" lon="6.37583">
        <ele>1073.4</ele>
        <time>2014-08-15T13:15:53.947Z</time>
      </trkpt>
      <trkpt lat="46.79544" lon="6.37596">
        <ele>1072.2</ele>
        <time>2014-08-15T13:16:18.070Z</time>
      </trkpt>
      <trkpt lat="46.79503" lon="6.37606">
        <ele>1042.7</ele>
        <time>2014-08-15T13:16:29.725Z</time>
      </trkpt>
      <trkpt lat="46.79493" lon="6.37606">
        <ele>1040.7</ele>
        <time>2014-08-15T13:16:31.894Z</time>
      </trkpt>
      <trkpt lat="46.7946" lon="6.37601">
        <ele>1040.2</ele>
        <time>2014-08-15T13:16:38.479Z</time>
      </trkpt>
      <trkpt lat="46.79449" lon="6.37603">
        <ele>1038.9</ele>
        <time>2014-08-15T13:16:40.668Z</time>
      </trkpt>
      <trkpt lat="46.79427" lon="6.37604">
        <ele>1037</ele>
        <time>2014-08-15T13:16:45.072Z</time>
      </trkpt>
      <trkpt lat="46.79417" lon="6.37606">
        <ele>1037.1</ele>
        <time>2014-08-15T13:16:47.411Z</time>
      </trkpt>
      <trkpt lat="46.79398" lon="6.37601">
        <ele>1036.6</ele>
        <time>2014-08-15T13:16:53.480Z</time>
      </trkpt>
      <trkpt lat="46.79387" lon="6.376">
        <ele>1036.9</ele>
        <time>2014-08-15T13:16:58.339Z</time>
      </trkpt>
      <trkpt lat="46.79377" lon="6.37604">
        <ele>1038.1</ele>
        <time>2014-08-15T13:17:03.345Z</time>
      </trkpt>
      <trkpt lat="46.79369" lon="6.37611">
        <ele>1039.3</ele>
        <time>2014-08-15T13:17:06.904Z</time>
      </trkpt>
      <trkpt lat="46.7936" lon="6.37617">
        <ele>1039.5</ele>
        <time>2014-08-15T13:17:10.680Z</time>
      </trkpt>
      <trkpt lat="46.79349" lon="6.37617">
        <ele>1038.4</ele>
        <time>2014-08-15T13:17:15.074Z</time>
      </trkpt>
      <trkpt lat="46.79221" lon="6.37562">
        <ele>1031.3</ele>
        <time>2014-08-15T13:17:41.066Z</time>
      </trkpt>
      <trkpt lat="46.7914" lon="6.37533">
        <ele>1036.3</ele>
        <time>2014-08-15T13:17:48.477Z</time>
      </trkpt>
      <trkpt lat="46.79126" lon="6.37524">
        <ele>1037.2</ele>
        <time>2014-08-15T13:17:50.670Z</time>
      </trkpt>
      <trkpt lat="46.79116" lon="6.37514">
        <ele>1038.4</ele>
        <time>2014-08-15T13:17:53.873Z</time>
      </trkpt>
      <trkpt lat="46.79105" lon="6.3751">
        <ele>1040.4</ele>
        <time>2014-08-15T13:17:57.768Z</time>
      </trkpt>
      <trkpt lat="46.79095" lon="6.37513">
        <ele>1045</ele>
        <time>2014-08-15T13:18:01.271Z</time>
      </trkpt>
      <trkpt lat="46.79086" lon="6.37517">
        <ele>1052.3</ele>
        <time>2014-08-15T13:18:04.802Z</time>
      </trkpt>
      <trkpt lat="46.79075" lon="6.3752">
        <ele>1058.8</ele>
        <time>2014-08-15T13:18:08.948Z</time>
      </trkpt>
      <trkpt lat="46.79036" lon="6.37524">
        <ele>1060.5</ele>
        <time>2014-08-15T13:18:41.250Z</time>
      </trkpt>
      <trkpt lat="46.79026" lon="6.37526">
        <ele>1060.8</ele>
        <time>2014-08-15T13:18:51.196Z</time>
      </trkpt>
      <trkpt lat="46.79006" lon="6.37538">
        <ele>1064.6</ele>
        <time>2014-08-15T13:19:07.435Z</time>
      </trkpt>
      <trkpt lat="46.78995" lon="6.37542">
        <ele>1067.3</ele>
        <time>2014-08-15T13:19:13.833Z</time>
      </trkpt>
      <trkpt lat="46.78967" lon="6.37546">
        <ele>1072.7</ele>
        <time>2014-08-15T13:19:25.730Z</time>
      </trkpt>
      <trkpt lat="46.78958" lon="6.37554">
        <ele>1072.6</ele>
        <time>2014-08-15T13:19:29.944Z</time>
      </trkpt>
      <trkpt lat="46.78935" lon="6.37566">
        <ele>1072.8</ele>
        <time>2014-08-15T13:19:54.034Z</time>
      </trkpt>
      <trkpt lat="46.78924" lon="6.37568">
        <ele>1072.4</ele>
        <time>2014-08-15T13:19:58.278Z</time>
      </trkpt>
      <trkpt lat="46.78884" lon="6.3757">
        <ele>1072.8</ele>
        <time>2014-08-15T13:20:06.753Z</time>
      </trkpt>
      <trkpt lat="46.78853" lon="6.37565">
        <ele>1073.4</ele>
        <time>2014-08-15T13:20:14.108Z</time>
      </trkpt>
      <trkpt lat="46.78842" lon="6.37568">
        <ele>1073.8</ele>
        <time>2014-08-15T13:20:18.065Z</time>
      </trkpt>
      <trkpt lat="46.78833" lon="6.37573">
        <ele>1073.8</ele>
        <time>2014-08-15T13:20:22.555Z</time>
      </trkpt>
      <trkpt lat="46.78815" lon="6.37579">
        <ele>1072.5</ele>
        <time>2014-08-15T13:20:31.868Z</time>
      </trkpt>
      <trkpt lat="46.78793" lon="6.37571">
        <ele>1074.8</ele>
        <time>2014-08-15T13:20:42.580Z</time>
      </trkpt>
      <trkpt lat="46.78774" lon="6.37558">
        <ele>1073.1</ele>
        <time>2014-08-15T13:20:51.271Z</time>
      </trkpt>
      <trkpt lat="46.78762" lon="6.37555">
        <ele>1072</ele>
        <time>2014-08-15T13:20:54.839Z</time>
      </trkpt>
      <trkpt lat="46.78752" lon="6.3756">
        <ele>1070.9</ele>
        <time>2014-08-15T13:20:57.825Z</time>
      </trkpt>
      <trkpt lat="46.78721" lon="6.37577">
        <ele>1067.2</ele>
        <time>2014-08-15T13:21:07.013Z</time>
      </trkpt>
      <trkpt lat="46.78702" lon="6.37583">
        <ele>1068.4</ele>
        <time>2014-08-15T13:21:14.932Z</time>
      </trkpt>
      <trkpt lat="46.78685" lon="6.37592">
        <ele>1069.3</ele>
        <time>2014-08-15T13:21:35.108Z</time>
      </trkpt>
      <trkpt lat="46.78673" lon="6.37594">
        <ele>1068.5</ele>
        <time>2014-08-15T13:21:46.065Z</time>
      </trkpt>
      <trkpt lat="46.78664" lon="6.37591">
        <ele>1068</ele>
        <time>2014-08-15T13:21:57.566Z</time>
      </trkpt>
      <trkpt lat="46.78655" lon="6.37586">
        <ele>1067.5</ele>
        <time>2014-08-15T13:22:15.620Z</time>
      </trkpt>
      <trkpt lat="46.78644" lon="6.37587">
        <ele>1068.1</ele>
        <time>2014-08-15T13:22:37.668Z</time>
      </trkpt>
      <trkpt lat="46.78632" lon="6.37591">
        <ele>1070.4</ele>
        <time>2014-08-15T13:22:48.697Z</time>
      </trkpt>
      <trkpt lat="46.78564" lon="6.37582">
        <ele>1069.1</ele>
        <time>2014-08-15T13:23:40.766Z</time>
      </trkpt>
      <trkpt lat="46.78553" lon="6.37581">
        <ele>1069.1</ele>
        <time>2014-08-15T13:23:50.107Z</time>
      </trkpt>
      <trkpt lat="46.78543" lon="6.37579">
        <ele>1069.3</ele>
        <time>2014-08-15T13:23:58.372Z</time>
      </trkpt>
      <trkpt lat="46.78534" lon="6.37583">
        <ele>1069.2</ele>
        <time>2014-08-15T13:24:07.934Z</time>
      </trkpt>
      <trkpt lat="46.7849" lon="6.37578">
        <ele>1065.5</ele>
        <time>2014-08-15T13:24:45.169Z</time>
      </trkpt>
      <trkpt lat="46.78481" lon="6.37575">
        <ele>1062.4</ele>
        <time>2014-08-15T13:24:47.589Z</time>
      </trkpt>
      <trkpt lat="46.78466" lon="6.37574">
        <ele>1057.6</ele>
        <time>2014-08-15T13:24:51.834Z</time>
      </trkpt>
      <trkpt lat="46.78456" lon="6.37578">
        <ele>1053.6</ele>
        <time>2014-08-15T13:24:56.234Z</time>
      </trkpt>
      <trkpt lat="46.78446" lon="6.37578">
        <ele>1051.8</ele>
        <time>2014-08-15T13:25:00.758Z</time>
      </trkpt>
      <trkpt lat="46.78436" lon="6.3758">
        <ele>1052.1</ele>
        <time>2014-08-15T13:25:07.503Z</time>
      </trkpt>
      <trkpt lat="46.78425" lon="6.37587">
        <ele>1054</ele>
        <time>2014-08-15T13:25:13.596Z</time>
      </trkpt>
      <trkpt lat="46.78415" lon="6.37587">
        <ele>1058</ele>
        <time>2014-08-15T13:25:17.937Z</time>
      </trkpt>
      <trkpt lat="46.78392" lon="6.37595">
        <ele>1066.4</ele>
        <time>2014-08-15T13:25:53.928Z</time>
      </trkpt>
      <trkpt lat="46.78373" lon="6.37608">
        <ele>1064.4</ele>
        <time>2014-08-15T13:26:40.930Z</time>
      </trkpt>
      <trkpt lat="46.78352" lon="6.37604">
        <ele>1063.7</ele>
        <time>2014-08-15T13:27:06.928Z</time>
      </trkpt>
      <trkpt lat="46.78324" lon="6.37604">
        <ele>1062.9</ele>
        <time>2014-08-15T13:27:58.376Z</time>
      </trkpt>
      <trkpt lat="46.78315" lon="6.3761">
        <ele>1064.9</ele>
        <time>2014-08-15T13:28:02.822Z</time>
      </trkpt>
      <trkpt lat="46.78304" lon="6.37613">
        <ele>1065.5</ele>
        <time>2014-08-15T13:28:07.465Z</time>
      </trkpt>
      <trkpt lat="46.78252" lon="6.37605">
        <ele>1046.6</ele>
        <time>2014-08-15T13:28:24.612Z</time>
      </trkpt>
      <trkpt lat="46.78127" lon="6.37565">
        <ele>1059.7</ele>
        <time>2014-08-15T13:28:46.438Z</time>
      </trkpt>
      <trkpt lat="46.78097" lon="6.37563">
        <ele>1061.9</ele>
        <time>2014-08-15T13:28:51.096Z</time>
      </trkpt>
      <trkpt lat="46.78086" lon="6.37565">
        <ele>1064.4</ele>
        <time>2014-08-15T13:28:52.936Z</time>
      </trkpt>
      <trkpt lat="46.78067" lon="6.37573">
        <ele>1066.2</ele>
        <time>2014-08-15T13:29:13.930Z</time>
      </trkpt>
      <trkpt lat="46.78042" lon="6.37565">
        <ele>1064.7</ele>
        <time>2014-08-15T13:31:45.405Z</time>
      </trkpt>
      <trkpt lat="46.78033" lon="6.37568">
        <ele>1063.6</ele>
        <time>2014-08-15T13:31:48.288Z</time>
      </trkpt>
      <trkpt lat="46.78023" lon="6.37579">
        <ele>1061.2</ele>
        <time>2014-08-15T13:31:51.217Z</time>
      </trkpt>
      <trkpt lat="46.78015" lon="6.37605">
        <ele>1057.3</ele>
        <time>2014-08-15T13:31:54.930Z</time>
      </trkpt>
      <trkpt lat="46.77955" lon="6.37603">
        <ele>1053.4</ele>
        <time>2014-08-15T13:32:15.355Z</time>
      </trkpt>
      <trkpt lat="46.77911" lon="6.37591">
        <ele>1053</ele>
        <time>2014-08-15T13:32:21.126Z</time>
      </trkpt>
      <trkpt lat="46.77898" lon="6.37595">
        <ele>1052.8</ele>
        <time>2014-08-15T13:32:22.700Z</time>
      </trkpt>
      <trkpt lat="46.77858" lon="6.37616">
        <ele>1051.3</ele>
        <time>2014-08-15T13:32:27.522Z</time>
      </trkpt>
      <trkpt lat="46.77767" lon="6.37694">
        <ele>1047.1</ele>
        <time>2014-08-15T13:32:42.670Z</time>
      </trkpt>
      <trkpt lat="46.77521" lon="6.37826">
        <ele>1023.6</ele>
        <time>2014-08-15T13:33:03.799Z</time>
      </trkpt>
      <trkpt lat="46.77492" lon="6.37836">
        <ele>1017.1</ele>
        <time>2014-08-15T13:33:10.728Z</time>
      </trkpt>
      <trkpt lat="46.77489" lon="6.37823">
        <ele>1015</ele>
        <time>2014-08-15T13:33:15.932Z</time>
      </trkpt>
      <trkpt lat="46.77487" lon="6.37796">
        <ele>1014</ele>
        <time>2014-08-15T13:35:44.172Z</time>
      </trkpt>
      <trkpt lat="46.77469" lon="6.37742">
        <ele>1004.8</ele>
        <time>2014-08-15T13:35:50.937Z</time>
      </trkpt>
      <trkpt lat="46.77471" lon="6.37708">
        <ele>1001.6</ele>
        <time>2014-08-15T13:36:53.080Z</time>
      </trkpt>
      <trkpt lat="46.77463" lon="6.37697">
        <ele>1001.2</ele>
        <time>2014-08-15T13:36:55.999Z</time>
      </trkpt>
      <trkpt lat="46.77453" lon="6.37694">
        <ele>1000.2</ele>
        <time>2014-08-15T13:36:58.564Z</time>
      </trkpt>
      <trkpt lat="46.7744" lon="6.377">
        <ele>999.4</ele>
        <time>2014-08-15T13:37:03.072Z</time>
      </trkpt>
      <trkpt lat="46.7743" lon="6.37707">
        <ele>999.9</ele>
        <time>2014-08-15T13:37:07.154Z</time>
      </trkpt>
      <trkpt lat="46.77421" lon="6.37705">
        <ele>1001.1</ele>
        <time>2014-08-15T13:37:10.925Z</time>
      </trkpt>
      <trkpt lat="46.77412" lon="6.377">
        <ele>1002.5</ele>
        <time>2014-08-15T13:37:15.033Z</time>
      </trkpt>
      <trkpt lat="46.77404" lon="6.37691">
        <ele>1003.9</ele>
        <time>2014-08-15T13:37:18.885Z</time>
      </trkpt>
      <trkpt lat="46.77409" lon="6.37678">
        <ele>1005.1</ele>
        <time>2014-08-15T13:37:23.149Z</time>
      </trkpt>
      <trkpt lat="46.77473" lon="6.37607">
        <ele>1007.4</ele>
        <time>2014-08-15T13:37:53.642Z</time>
      </trkpt>
      <trkpt lat="46.77501" lon="6.3756">
        <ele>1010.7</ele>
        <time>2014-08-15T13:38:12.535Z</time>
      </trkpt>
      <trkpt lat="46.77533" lon="6.37482">
        <ele>1013.1</ele>
        <time>2014-08-15T13:38:40.850Z</time>
      </trkpt>
      <trkpt lat="46.77541" lon="6.37454">
        <ele>1014</ele>
        <time>2014-08-15T13:38:50.400Z</time>
      </trkpt>
      <trkpt lat="46.77539" lon="6.37438">
        <ele>1013.8</ele>
        <time>2014-08-15T13:38:55.654Z</time>
      </trkpt>
      <trkpt lat="46.77531" lon="6.37426">
        <ele>1013.9</ele>
        <time>2014-08-15T13:39:01.080Z</time>
      </trkpt>
      <trkpt lat="46.77521" lon="6.3742">
        <ele>1014.2</ele>
        <time>2014-08-15T13:39:06.225Z</time>
      </trkpt>
      <trkpt lat="46.77511" lon="6.37416">
        <ele>1014</ele>
        <time>2014-08-15T13:39:11.073Z</time>
      </trkpt>
      <trkpt lat="46.77503" lon="6.37411">
        <ele>1013.3</ele>
        <time>2014-08-15T13:39:14.812Z</time>
      </trkpt>
      <trkpt lat="46.77482" lon="6.37405">
        <ele>1013.5</ele>
        <time>2014-08-15T13:39:21.909Z</time>
      </trkpt>
      <trkpt lat="46.7745" lon="6.37399">
        <ele>1019.6</ele>
        <time>2014-08-15T13:39:31.757Z</time>
      </trkpt>
      <trkpt lat="46.77432" lon="6.37388">
        <ele>1019.6</ele>
        <time>2014-08-15T13:39:37.861Z</time>
      </trkpt>
      <trkpt lat="46.77392" lon="6.37359">
        <ele>1023.9</ele>
        <time>2014-08-15T13:39:51.552Z</time>
      </trkpt>
      <trkpt lat="46.77382" lon="6.3735">
        <ele>1025.3</ele>
        <time>2014-08-15T13:39:55.215Z</time>
      </trkpt>
      <trkpt lat="46.77365" lon="6.37339">
        <ele>1024.3</ele>
        <time>2014-08-15T13:40:01.571Z</time>
      </trkpt>
      <trkpt lat="46.77349" lon="6.37325">
        <ele>1023.3</ele>
        <time>2014-08-15T13:40:07.949Z</time>
      </trkpt>
      <trkpt lat="46.7734" lon="6.37319">
        <ele>1023.2</ele>
        <time>2014-08-15T13:40:11.111Z</time>
      </trkpt>
      <trkpt lat="46.77322" lon="6.3731">
        <ele>1022.8</ele>
        <time>2014-08-15T13:40:17.246Z</time>
      </trkpt>
      <trkpt lat="46.77313" lon="6.37305">
        <ele>1022.8</ele>
        <time>2014-08-15T13:40:20.291Z</time>
      </trkpt>
      <trkpt lat="46.77304" lon="6.37301">
        <ele>1022.9</ele>
        <time>2014-08-15T13:40:23.236Z</time>
      </trkpt>
      <trkpt lat="46.77284" lon="6.37296">
        <ele>1023</ele>
        <time>2014-08-15T13:40:32.005Z</time>
      </trkpt>
      <trkpt lat="46.77269" lon="6.37282">
        <ele>1022.3</ele>
        <time>2014-08-15T13:41:04.403Z</time>
      </trkpt>
      <trkpt lat="46.7725" lon="6.37279">
        <ele>1022.5</ele>
        <time>2014-08-15T13:41:12.759Z</time>
      </trkpt>
      <trkpt lat="46.7724" lon="6.37274">
        <ele>1023</ele>
        <time>2014-08-15T13:41:16.766Z</time>
      </trkpt>
      <trkpt lat="46.77237" lon="6.37255">
        <ele>1023.5</ele>
        <time>2014-08-15T13:41:21.195Z</time>
      </trkpt>
      <trkpt lat="46.77238" lon="6.37234">
        <ele>1024.1</ele>
        <time>2014-08-15T13:41:24.981Z</time>
      </trkpt>
      <trkpt lat="46.77259" lon="6.37112">
        <ele>1023.1</ele>
        <time>2014-08-15T13:41:44.723Z</time>
      </trkpt>
      <trkpt lat="46.7726" lon="6.3709">
        <ele>1024.1</ele>
        <time>2014-08-15T13:41:47.999Z</time>
      </trkpt>
      <trkpt lat="46.77254" lon="6.37061">
        <ele>1024.3</ele>
        <time>2014-08-15T13:41:52.982Z</time>
      </trkpt>
      <trkpt lat="46.77245" lon="6.37034">
        <ele>1023.4</ele>
        <time>2014-08-15T13:41:59.078Z</time>
      </trkpt>
      <trkpt lat="46.77237" lon="6.3702">
        <ele>1023.3</ele>
        <time>2014-08-15T13:42:02.890Z</time>
      </trkpt>
      <trkpt lat="46.77233" lon="6.37004">
        <ele>1023.6</ele>
        <time>2014-08-15T13:42:06.657Z</time>
      </trkpt>
      <trkpt lat="46.77215" lon="6.36988">
        <ele>1023.3</ele>
        <time>2014-08-15T13:42:12.197Z</time>
      </trkpt>
      <trkpt lat="46.77208" lon="6.36978">
        <ele>1021.2</ele>
        <time>2014-08-15T13:42:14.342Z</time>
      </trkpt>
      <trkpt lat="46.77191" lon="6.36939">
        <ele>1015</ele>
        <time>2014-08-15T13:42:20.198Z</time>
      </trkpt>
      <trkpt lat="46.77181" lon="6.36925">
        <ele>1013.9</ele>
        <time>2014-08-15T13:42:22.771Z</time>
      </trkpt>
      <trkpt lat="46.77168" lon="6.36913">
        <ele>1014</ele>
        <time>2014-08-15T13:42:25.741Z</time>
      </trkpt>
      <trkpt lat="46.77162" lon="6.36896">
        <ele>1014</ele>
        <time>2014-08-15T13:42:28.338Z</time>
      </trkpt>
      <trkpt lat="46.77155" lon="6.36886">
        <ele>1013.1</ele>
        <time>2014-08-15T13:42:30.200Z</time>
      </trkpt>
      <trkpt lat="46.77138" lon="6.36878">
        <ele>1011.6</ele>
        <time>2014-08-15T13:42:33.669Z</time>
      </trkpt>
      <trkpt lat="46.77123" lon="6.3687">
        <ele>1010.6</ele>
        <time>2014-08-15T13:42:36.754Z</time>
      </trkpt>
      <trkpt lat="46.77112" lon="6.36859">
        <ele>1010.2</ele>
        <time>2014-08-15T13:42:39.487Z</time>
      </trkpt>
      <trkpt lat="46.77102" lon="6.36843">
        <ele>1010.9</ele>
        <time>2014-08-15T13:42:42.716Z</time>
      </trkpt>
      <trkpt lat="46.77091" lon="6.36834">
        <ele>1013.3</ele>
        <time>2014-08-15T13:42:45.668Z</time>
      </trkpt>
      <trkpt lat="46.77082" lon="6.36823">
        <ele>1016.7</ele>
        <time>2014-08-15T13:42:48.948Z</time>
      </trkpt>
      <trkpt lat="46.77053" lon="6.3678">
        <ele>1021.6</ele>
        <time>2014-08-15T13:43:07.426Z</time>
      </trkpt>
      <trkpt lat="46.7702" lon="6.36743">
        <ele>1024.1</ele>
        <time>2014-08-15T13:43:22.233Z</time>
      </trkpt>
      <trkpt lat="46.76991" lon="6.36701">
        <ele>1026.4</ele>
        <time>2014-08-15T13:43:39.568Z</time>
      </trkpt>
      <trkpt lat="46.76985" lon="6.36688">
        <ele>1026.9</ele>
        <time>2014-08-15T13:43:44.436Z</time>
      </trkpt>
      <trkpt lat="46.7698" lon="6.36677">
        <ele>1027.4</ele>
        <time>2014-08-15T13:43:48.678Z</time>
      </trkpt>
      <trkpt lat="46.76978" lon="6.36663">
        <ele>1028.4</ele>
        <time>2014-08-15T13:43:53.699Z</time>
      </trkpt>
      <trkpt lat="46.76972" lon="6.36653">
        <ele>1030.6</ele>
        <time>2014-08-15T13:44:00.836Z</time>
      </trkpt>
      <trkpt lat="46.76971" lon="6.36638">
        <ele>1033.9</ele>
        <time>2014-08-15T13:44:09.633Z</time>
      </trkpt>
      <trkpt lat="46.76962" lon="6.36578">
        <ele>1034.8</ele>
        <time>2014-08-15T13:44:32.055Z</time>
      </trkpt>
      <trkpt lat="46.76961" lon="6.36561">
        <ele>1033.5</ele>
        <time>2014-08-15T13:44:35.526Z</time>
      </trkpt>
      <trkpt lat="46.76959" lon="6.36545">
        <ele>1032.6</ele>
        <time>2014-08-15T13:44:38.957Z</time>
      </trkpt>
      <trkpt lat="46.76946" lon="6.36505">
        <ele>1030.7</ele>
        <time>2014-08-15T13:44:51.452Z</time>
      </trkpt>
      <trkpt lat="46.76939" lon="6.36492">
        <ele>1029.8</ele>
        <time>2014-08-15T13:44:55.407Z</time>
      </trkpt>
      <trkpt lat="46.76903" lon="6.36466">
        <ele>1031.6</ele>
        <time>2014-08-15T13:45:13.289Z</time>
      </trkpt>
      <trkpt lat="46.76896" lon="6.36457">
        <ele>1034.9</ele>
        <time>2014-08-15T13:45:18.253Z</time>
      </trkpt>
      <trkpt lat="46.76877" lon="6.36414">
        <ele>1041.1</ele>
        <time>2014-08-15T13:46:36.221Z</time>
      </trkpt>
      <trkpt lat="46.76877" lon="6.36398">
        <ele>1040.1</ele>
        <time>2014-08-15T13:46:40.582Z</time>
      </trkpt>
      <trkpt lat="46.7688" lon="6.3638">
        <ele>1039.3</ele>
        <time>2014-08-15T13:46:43.700Z</time>
      </trkpt>
      <trkpt lat="46.76877" lon="6.36354">
        <ele>1038.6</ele>
        <time>2014-08-15T13:46:47.402Z</time>
      </trkpt>
      <trkpt lat="46.76878" lon="6.36336">
        <ele>1038.4</ele>
        <time>2014-08-15T13:46:49.714Z</time>
      </trkpt>
      <trkpt lat="46.76888" lon="6.36277">
        <ele>1038.7</ele>
        <time>2014-08-15T13:46:57.215Z</time>
      </trkpt>
      <trkpt lat="46.76899" lon="6.36096">
        <ele>1030.7</ele>
        <time>2014-08-15T13:47:10.865Z</time>
      </trkpt>
      <trkpt lat="46.76896" lon="6.36044">
        <ele>1028.2</ele>
        <time>2014-08-15T13:47:14.009Z</time>
      </trkpt>
      <trkpt lat="46.76896" lon="6.35878">
        <ele>1017.2</ele>
        <time>2014-08-15T13:47:24.088Z</time>
      </trkpt>
      <trkpt lat="46.76888" lon="6.35801">
        <ele>1014.6</ele>
        <time>2014-08-15T13:47:31.002Z</time>
      </trkpt>
      <trkpt lat="46.76889" lon="6.35783">
        <ele>1014.1</ele>
        <time>2014-08-15T13:47:33.337Z</time>
      </trkpt>
      <trkpt lat="46.76878" lon="6.35713">
        <ele>1009.1</ele>
        <time>2014-08-15T13:47:43.706Z</time>
      </trkpt>
      <trkpt lat="46.76871" lon="6.35703">
        <ele>1009.5</ele>
        <time>2014-08-15T13:47:47.589Z</time>
      </trkpt>
      <trkpt lat="46.76862" lon="6.35695">
        <ele>1010.8</ele>
        <time>2014-08-15T13:47:53.528Z</time>
      </trkpt>
      <trkpt lat="46.76852" lon="6.35698">
        <ele>1012.4</ele>
        <time>2014-08-15T13:47:58.702Z</time>
      </trkpt>
      <trkpt lat="46.76843" lon="6.35704">
        <ele>1013.3</ele>
        <time>2014-08-15T13:48:03.481Z</time>
      </trkpt>
      <trkpt lat="46.76835" lon="6.3571">
        <ele>1013.8</ele>
        <time>2014-08-15T13:48:09.938Z</time>
      </trkpt>
      <trkpt lat="46.76812" lon="6.35717">
        <ele>1014.1</ele>
        <time>2014-08-15T13:48:34.330Z</time>
      </trkpt>
      <trkpt lat="46.76795" lon="6.35702">
        <ele>1014.9</ele>
        <time>2014-08-15T13:48:44.357Z</time>
      </trkpt>
      <trkpt lat="46.7679" lon="6.35689">
        <ele>1016.3</ele>
        <time>2014-08-15T13:48:49.605Z</time>
      </trkpt>
      <trkpt lat="46.76787" lon="6.35676">
        <ele>1017.1</ele>
        <time>2014-08-15T13:48:54.951Z</time>
      </trkpt>
      <trkpt lat="46.76807" lon="6.35667">
        <ele>1016</ele>
        <time>2014-08-15T13:49:47.370Z</time>
      </trkpt>
      <trkpt lat="46.76818" lon="6.35668">
        <ele>1015.8</ele>
        <time>2014-08-15T13:49:49.999Z</time>
      </trkpt>
      <trkpt lat="46.76831" lon="6.35671">
        <ele>1015.6</ele>
        <time>2014-08-15T13:49:52.716Z</time>
      </trkpt>
      <trkpt lat="46.76855" lon="6.35672">
        <ele>1016.5</ele>
        <time>2014-08-15T13:49:58.145Z</time>
      </trkpt>
      <trkpt lat="46.76865" lon="6.35674">
        <ele>1017</ele>
        <time>2014-08-15T13:50:01.442Z</time>
      </trkpt>
      <trkpt lat="46.76874" lon="6.35669">
        <ele>1016.7</ele>
        <time>2014-08-15T13:50:04.485Z</time>
      </trkpt>
      <trkpt lat="46.76957" lon="6.3555">
        <ele>1010.3</ele>
        <time>2014-08-15T13:50:35.979Z</time>
      </trkpt>
      <trkpt lat="46.76973" lon="6.35537">
        <ele>1010</ele>
        <time>2014-08-15T13:50:38.860Z</time>
      </trkpt>
      <trkpt lat="46.76999" lon="6.35521">
        <ele>1006.7</ele>
        <time>2014-08-15T13:50:43.090Z</time>
      </trkpt>
      <trkpt lat="46.77066" lon="6.3549">
        <ele>998.4</ele>
        <time>2014-08-15T13:50:53.971Z</time>
      </trkpt>
      <trkpt lat="46.77076" lon="6.35482">
        <ele>998.7</ele>
        <time>2014-08-15T13:50:55.858Z</time>
      </trkpt>
      <trkpt lat="46.77085" lon="6.3547">
        <ele>999.5</ele>
        <time>2014-08-15T13:50:57.809Z</time>
      </trkpt>
      <trkpt lat="46.77093" lon="6.35441">
        <ele>1000.1</ele>
        <time>2014-08-15T13:51:00.840Z</time>
      </trkpt>
      <trkpt lat="46.77094" lon="6.35406">
        <ele>999.8</ele>
        <time>2014-08-15T13:51:04.454Z</time>
      </trkpt>
      <trkpt lat="46.77093" lon="6.35389">
        <ele>998.7</ele>
        <time>2014-08-15T13:51:06.372Z</time>
      </trkpt>
      <trkpt lat="46.77089" lon="6.35368">
        <ele>997.2</ele>
        <time>2014-08-15T13:51:09.125Z</time>
      </trkpt>
      <trkpt lat="46.77041" lon="6.35315">
        <ele>999.9</ele>
        <time>2014-08-15T13:51:22.633Z</time>
      </trkpt>
      <trkpt lat="46.76954" lon="6.35181">
        <ele>1001.4</ele>
        <time>2014-08-15T13:51:55.931Z</time>
      </trkpt>
      <trkpt lat="46.76946" lon="6.35171">
        <ele>1001.6</ele>
        <time>2014-08-15T13:51:59.054Z</time>
      </trkpt>
      <trkpt lat="46.76936" lon="6.35161">
        <ele>1001.7</ele>
        <time>2014-08-15T13:52:02.430Z</time>
      </trkpt>
      <trkpt lat="46.76925" lon="6.35155">
        <ele>1002.5</ele>
        <time>2014-08-15T13:52:05.662Z</time>
      </trkpt>
      <trkpt lat="46.76913" lon="6.3515">
        <ele>1004.2</ele>
        <time>2014-08-15T13:52:09.008Z</time>
      </trkpt>
      <trkpt lat="46.76893" lon="6.35145">
        <ele>1007.4</ele>
        <time>2014-08-15T13:52:14.951Z</time>
      </trkpt>
      <trkpt lat="46.76863" lon="6.35155">
        <ele>1006.8</ele>
        <time>2014-08-15T13:52:33.036Z</time>
      </trkpt>
      <trkpt lat="46.76851" lon="6.3516">
        <ele>1007.1</ele>
        <time>2014-08-15T13:52:36.949Z</time>
      </trkpt>
      <trkpt lat="46.7684" lon="6.35162">
        <ele>1007.7</ele>
        <time>2014-08-15T13:52:40.333Z</time>
      </trkpt>
      <trkpt lat="46.7683" lon="6.35161">
        <ele>1008.1</ele>
        <time>2014-08-15T13:52:43.149Z</time>
      </trkpt>
      <trkpt lat="46.7681" lon="6.35156">
        <ele>1007.5</ele>
        <time>2014-08-15T13:52:49.197Z</time>
      </trkpt>
      <trkpt lat="46.76791" lon="6.3515">
        <ele>1006.8</ele>
        <time>2014-08-15T13:52:55.504Z</time>
      </trkpt>
      <trkpt lat="46.76781" lon="6.35144">
        <ele>1006.8</ele>
        <time>2014-08-15T13:52:58.867Z</time>
      </trkpt>
      <trkpt lat="46.76761" lon="6.35131">
        <ele>1007</ele>
        <time>2014-08-15T13:53:05.642Z</time>
      </trkpt>
      <trkpt lat="46.76741" lon="6.3512">
        <ele>1006.9</ele>
        <time>2014-08-15T13:53:11.545Z</time>
      </trkpt>
      <trkpt lat="46.76731" lon="6.35114">
        <ele>1007.9</ele>
        <time>2014-08-15T13:53:14.312Z</time>
      </trkpt>
      <trkpt lat="46.76714" lon="6.35098">
        <ele>1011.3</ele>
        <time>2014-08-15T13:53:19.862Z</time>
      </trkpt>
      <trkpt lat="46.76698" lon="6.35079">
        <ele>1013.7</ele>
        <time>2014-08-15T13:53:25.851Z</time>
      </trkpt>
      <trkpt lat="46.76692" lon="6.35069">
        <ele>1014</ele>
        <time>2014-08-15T13:53:28.579Z</time>
      </trkpt>
      <trkpt lat="46.76544" lon="6.34738">
        <ele>1017.3</ele>
        <time>2014-08-15T13:54:37.288Z</time>
      </trkpt>
      <trkpt lat="46.76515" lon="6.34635">
        <ele>1014</ele>
        <time>2014-08-15T13:54:51.511Z</time>
      </trkpt>
      <trkpt lat="46.76491" lon="6.34585">
        <ele>1016.4</ele>
        <time>2014-08-15T13:54:59.279Z</time>
      </trkpt>
      <trkpt lat="46.76476" lon="6.34525">
        <ele>1017.9</ele>
        <time>2014-08-15T13:55:06.774Z</time>
      </trkpt>
      <trkpt lat="46.76477" lon="6.34413">
        <ele>1012.4</ele>
        <time>2014-08-15T13:55:19.220Z</time>
      </trkpt>
      <trkpt lat="46.76457" lon="6.34284">
        <ele>1010.1</ele>
        <time>2014-08-15T13:55:39.241Z</time>
      </trkpt>
      <trkpt lat="46.76428" lon="6.34144">
        <ele>1014.5</ele>
        <time>2014-08-15T13:55:58.904Z</time>
      </trkpt>
      <trkpt lat="46.76407" lon="6.3408">
        <ele>1013.6</ele>
        <time>2014-08-15T13:56:07.558Z</time>
      </trkpt>
      <trkpt lat="46.76239" lon="6.33608">
        <ele>995.3</ele>
        <time>2014-08-15T13:56:53.890Z</time>
      </trkpt>
      <trkpt lat="46.76233" lon="6.33583">
        <ele>992.6</ele>
        <time>2014-08-15T13:56:56.780Z</time>
      </trkpt>
      <trkpt lat="46.76221" lon="6.33557">
        <ele>988.1</ele>
        <time>2014-08-15T13:57:00.557Z</time>
      </trkpt>
      <trkpt lat="46.76187" lon="6.3345">
        <ele>983.1</ele>
        <time>2014-08-15T13:57:14.325Z</time>
      </trkpt>
      <trkpt lat="46.76169" lon="6.33413">
        <ele>981.2</ele>
        <time>2014-08-15T13:57:19.121Z</time>
      </trkpt>
      <trkpt lat="46.76133" lon="6.33359">
        <ele>977.8</ele>
        <time>2014-08-15T13:57:25.783Z</time>
      </trkpt>
      <trkpt lat="46.76102" lon="6.33275">
        <ele>974.1</ele>
        <time>2014-08-15T13:57:34.536Z</time>
      </trkpt>
      <trkpt lat="46.76093" lon="6.33268">
        <ele>972.9</ele>
        <time>2014-08-15T13:57:36.384Z</time>
      </trkpt>
      <trkpt lat="46.76067" lon="6.33257">
        <ele>972.5</ele>
        <time>2014-08-15T13:57:41.480Z</time>
      </trkpt>
      <trkpt lat="46.76051" lon="6.33246">
        <ele>973</ele>
        <time>2014-08-15T13:57:44.580Z</time>
      </trkpt>
      <trkpt lat="46.76026" lon="6.3322">
        <ele>974.1</ele>
        <time>2014-08-15T13:57:49.552Z</time>
      </trkpt>
      <trkpt lat="46.7598" lon="6.3316">
        <ele>971.3</ele>
        <time>2014-08-15T13:57:56.455Z</time>
      </trkpt>
      <trkpt lat="46.75918" lon="6.33047">
        <ele>961.7</ele>
        <time>2014-08-15T13:58:08.138Z</time>
      </trkpt>
      <trkpt lat="46.75891" lon="6.32989">
        <ele>959.9</ele>
        <time>2014-08-15T13:58:15.326Z</time>
      </trkpt>
      <trkpt lat="46.75554" lon="6.32284">
        <ele>946.6</ele>
        <time>2014-08-15T14:00:09.807Z</time>
      </trkpt>
      <trkpt lat="46.75515" lon="6.32196">
        <ele>945.9</ele>
        <time>2014-08-15T14:00:19.358Z</time>
      </trkpt>
      <trkpt lat="46.7547" lon="6.32124">
        <ele>945.5</ele>
        <time>2014-08-15T14:00:27.396Z</time>
      </trkpt>
      <trkpt lat="46.75454" lon="6.32087">
        <ele>943.6</ele>
        <time>2014-08-15T14:00:30.668Z</time>
      </trkpt>
      <trkpt lat="46.75442" lon="6.32049">
        <ele>940.9</ele>
        <time>2014-08-15T14:00:33.654Z</time>
      </trkpt>
      <trkpt lat="46.7539" lon="6.31805">
        <ele>930.3</ele>
        <time>2014-08-15T14:00:52.384Z</time>
      </trkpt>
      <trkpt lat="46.75377" lon="6.31776">
        <ele>930.8</ele>
        <time>2014-08-15T14:00:55.513Z</time>
      </trkpt>
      <trkpt lat="46.75376" lon="6.31762">
        <ele>932.1</ele>
        <time>2014-08-15T14:00:57.183Z</time>
      </trkpt>
      <trkpt lat="46.75383" lon="6.31747">
        <ele>933</ele>
        <time>2014-08-15T14:01:00.030Z</time>
      </trkpt>
      <trkpt lat="46.75396" lon="6.31728">
        <ele>932.8</ele>
        <time>2014-08-15T14:01:03.416Z</time>
      </trkpt>
      <trkpt lat="46.75425" lon="6.31694">
        <ele>928.9</ele>
        <time>2014-08-15T14:01:09.827Z</time>
      </trkpt>
      <trkpt lat="46.75426" lon="6.3168">
        <ele>926.5</ele>
        <time>2014-08-15T14:01:12.389Z</time>
      </trkpt>
      <trkpt lat="46.75402" lon="6.31595">
        <ele>927.2</ele>
        <time>2014-08-15T14:01:26.863Z</time>
      </trkpt>
      <trkpt lat="46.7537" lon="6.31509">
        <ele>921.9</ele>
        <time>2014-08-15T14:01:38.142Z</time>
      </trkpt>
      <trkpt lat="46.75269" lon="6.31261">
        <ele>913.4</ele>
        <time>2014-08-15T14:02:05.988Z</time>
      </trkpt>
      <trkpt lat="46.75233" lon="6.31138">
        <ele>913.3</ele>
        <time>2014-08-15T14:02:19.750Z</time>
      </trkpt>
      <trkpt lat="46.75215" lon="6.31098">
        <ele>916.7</ele>
        <time>2014-08-15T14:02:26.083Z</time>
      </trkpt>
      <trkpt lat="46.75208" lon="6.31083">
        <ele>917.8</ele>
        <time>2014-08-15T14:02:28.884Z</time>
      </trkpt>
      <trkpt lat="46.75201" lon="6.31073">
        <ele>918.2</ele>
        <time>2014-08-15T14:02:31.062Z</time>
      </trkpt>
      <trkpt lat="46.75185" lon="6.31052">
        <ele>916.4</ele>
        <time>2014-08-15T14:02:36.355Z</time>
      </trkpt>
      <trkpt lat="46.75173" lon="6.3104">
        <ele>915.6</ele>
        <time>2014-08-15T14:02:39.636Z</time>
      </trkpt>
      <trkpt lat="46.75162" lon="6.31031">
        <ele>915.5</ele>
        <time>2014-08-15T14:02:42.994Z</time>
      </trkpt>
      <trkpt lat="46.75154" lon="6.31018">
        <ele>915.8</ele>
        <time>2014-08-15T14:02:46.288Z</time>
      </trkpt>
      <trkpt lat="46.75142" lon="6.31009">
        <ele>916.5</ele>
        <time>2014-08-15T14:02:50.190Z</time>
      </trkpt>
      <trkpt lat="46.75131" lon="6.31003">
        <ele>917.4</ele>
        <time>2014-08-15T14:02:54.167Z</time>
      </trkpt>
      <trkpt lat="46.75121" lon="6.30996">
        <ele>918.6</ele>
        <time>2014-08-15T14:02:58.828Z</time>
      </trkpt>
      <trkpt lat="46.75112" lon="6.30987">
        <ele>919.8</ele>
        <time>2014-08-15T14:03:03.686Z</time>
      </trkpt>
      <trkpt lat="46.75104" lon="6.30981">
        <ele>920.7</ele>
        <time>2014-08-15T14:03:08.366Z</time>
      </trkpt>
      <trkpt lat="46.75074" lon="6.30971">
        <ele>921</ele>
        <time>2014-08-15T14:03:25.821Z</time>
      </trkpt>
      <trkpt lat="46.75064" lon="6.30965">
        <ele>921</ele>
        <time>2014-08-15T14:03:31.948Z</time>
      </trkpt>
      <trkpt lat="46.7503" lon="6.30936">
        <ele>923</ele>
        <time>2014-08-15T14:03:51.139Z</time>
      </trkpt>
      <trkpt lat="46.75005" lon="6.30908">
        <ele>927.5</ele>
        <time>2014-08-15T14:04:04.535Z</time>
      </trkpt>
      <trkpt lat="46.74987" lon="6.30892">
        <ele>927.4</ele>
        <time>2014-08-15T14:04:13.078Z</time>
      </trkpt>
      <trkpt lat="46.7495" lon="6.30839">
        <ele>927</ele>
        <time>2014-08-15T14:04:30.022Z</time>
      </trkpt>
      <trkpt lat="46.74893" lon="6.30732">
        <ele>926.5</ele>
        <time>2014-08-15T14:04:48.368Z</time>
      </trkpt>
      <trkpt lat="46.74881" lon="6.30716">
        <ele>926.9</ele>
        <time>2014-08-15T14:04:51.197Z</time>
      </trkpt>
      <trkpt lat="46.7484" lon="6.30676">
        <ele>922.8</ele>
        <time>2014-08-15T14:05:01.147Z</time>
      </trkpt>
      <trkpt lat="46.74771" lon="6.30576">
        <ele>921.2</ele>
        <time>2014-08-15T14:05:20.893Z</time>
      </trkpt>
      <trkpt lat="46.74754" lon="6.30548">
        <ele>924</ele>
        <time>2014-08-15T14:05:25.558Z</time>
      </trkpt>
      <trkpt lat="46.74746" lon="6.30526">
        <ele>924</ele>
        <time>2014-08-15T14:05:28.616Z</time>
      </trkpt>
      <trkpt lat="46.74742" lon="6.305">
        <ele>923.4</ele>
        <time>2014-08-15T14:05:32.179Z</time>
      </trkpt>
      <trkpt lat="46.74743" lon="6.30478">
        <ele>922.9</ele>
        <time>2014-08-15T14:05:35.786Z</time>
      </trkpt>
      <trkpt lat="46.74748" lon="6.30451">
        <ele>922.6</ele>
        <time>2014-08-15T14:05:42.166Z</time>
      </trkpt>
      <trkpt lat="46.74749" lon="6.30438">
        <ele>922.2</ele>
        <time>2014-08-15T14:05:45.485Z</time>
      </trkpt>
      <trkpt lat="46.74754" lon="6.3045">
        <ele>921.8</ele>
        <time>2014-08-15T14:05:48.996Z</time>
      </trkpt>
      <trkpt lat="46.74747" lon="6.3048">
        <ele>921.1</ele>
        <time>2014-08-15T14:05:57.226Z</time>
      </trkpt>
      <trkpt lat="46.74745" lon="6.30493">
        <ele>920.8</ele>
        <time>2014-08-15T14:06:00.701Z</time>
      </trkpt>
      <trkpt lat="46.7474" lon="6.30506">
        <ele>920.8</ele>
        <time>2014-08-15T14:06:05.076Z</time>
      </trkpt>
      <trkpt lat="46.74731" lon="6.3051">
        <ele>921.7</ele>
        <time>2014-08-15T14:06:09.732Z</time>
      </trkpt>
      <trkpt lat="46.74709" lon="6.30507">
        <ele>927.1</ele>
        <time>2014-08-15T14:06:19.968Z</time>
      </trkpt>
      <trkpt lat="46.7469" lon="6.30506">
        <ele>927.7</ele>
        <time>2014-08-15T14:06:30.309Z</time>
      </trkpt>
      <trkpt lat="46.74679" lon="6.30504">
        <ele>928.2</ele>
        <time>2014-08-15T14:06:35.992Z</time>
      </trkpt>
      <trkpt lat="46.7466" lon="6.30496">
        <ele>928.5</ele>
        <time>2014-08-15T14:06:45.787Z</time>
      </trkpt>
      <trkpt lat="46.74651" lon="6.3049">
        <ele>927.7</ele>
        <time>2014-08-15T14:06:50.965Z</time>
      </trkpt>
      <trkpt lat="46.74587" lon="6.30381">
        <ele>932.9</ele>
        <time>2014-08-15T14:07:56.032Z</time>
      </trkpt>
      <trkpt lat="46.7458" lon="6.30372">
        <ele>932.8</ele>
        <time>2014-08-15T14:08:01.077Z</time>
      </trkpt>
      <trkpt lat="46.74525" lon="6.30325">
        <ele>939</ele>
        <time>2014-08-15T14:09:03.390Z</time>
      </trkpt>
      <trkpt lat="46.74514" lon="6.30321">
        <ele>942</ele>
        <time>2014-08-15T14:09:10.724Z</time>
      </trkpt>
      <trkpt lat="46.74504" lon="6.3032">
        <ele>945.9</ele>
        <time>2014-08-15T14:09:17.796Z</time>
      </trkpt>
      <trkpt lat="46.74496" lon="6.30328">
        <ele>948.1</ele>
        <time>2014-08-15T14:09:24.957Z</time>
      </trkpt>
      <trkpt lat="46.74487" lon="6.30402">
        <ele>950</ele>
        <time>2014-08-15T14:12:37.784Z</time>
      </trkpt>
      <trkpt lat="46.74481" lon="6.30416">
        <ele>951.9</ele>
        <time>2014-08-15T14:12:42.092Z</time>
      </trkpt>
      <trkpt lat="46.74474" lon="6.30427">
        <ele>954.5</ele>
        <time>2014-08-15T14:12:45.544Z</time>
      </trkpt>
      <trkpt lat="46.7444" lon="6.30518">
        <ele>959.8</ele>
        <time>2014-08-15T14:13:21.985Z</time>
      </trkpt>
      <trkpt lat="46.7442" lon="6.30594">
        <ele>963.8</ele>
        <time>2014-08-15T14:14:11.897Z</time>
      </trkpt>
      <trkpt lat="46.74412" lon="6.30598">
        <ele>965.9</ele>
        <time>2014-08-15T14:14:18.955Z</time>
      </trkpt>
      <trkpt lat="46.74386" lon="6.30601">
        <ele>968.6</ele>
        <time>2014-08-15T14:15:55.952Z</time>
      </trkpt>
      <trkpt lat="46.74366" lon="6.30598">
        <ele>968.7</ele>
        <time>2014-08-15T14:16:04.941Z</time>
      </trkpt>
      <trkpt lat="46.74344" lon="6.30592">
        <ele>971.7</ele>
        <time>2014-08-15T14:16:13.370Z</time>
      </trkpt>
      <trkpt lat="46.74333" lon="6.30591">
        <ele>972.6</ele>
        <time>2014-08-15T14:16:17.784Z</time>
      </trkpt>
      <trkpt lat="46.74324" lon="6.30589">
        <ele>973.2</ele>
        <time>2014-08-15T14:16:21.787Z</time>
      </trkpt>
      <trkpt lat="46.74315" lon="6.30589">
        <ele>974</ele>
        <time>2014-08-15T14:16:26.039Z</time>
      </trkpt>
      <trkpt lat="46.74306" lon="6.3059">
        <ele>975.3</ele>
        <time>2014-08-15T14:16:30.479Z</time>
      </trkpt>
      <trkpt lat="46.74287" lon="6.30587">
        <ele>977.7</ele>
        <time>2014-08-15T14:16:39.900Z</time>
      </trkpt>
      <trkpt lat="46.74278" lon="6.30583">
        <ele>977.6</ele>
        <time>2014-08-15T14:16:44.307Z</time>
      </trkpt>
      <trkpt lat="46.74272" lon="6.30571">
        <ele>976.4</ele>
        <time>2014-08-15T14:16:49.102Z</time>
      </trkpt>
      <trkpt lat="46.74266" lon="6.30528">
        <ele>979.9</ele>
        <time>2014-08-15T14:17:23.945Z</time>
      </trkpt>
      <trkpt lat="46.74252" lon="6.30486">
        <ele>982.4</ele>
        <time>2014-08-15T14:17:59.051Z</time>
      </trkpt>
      <trkpt lat="46.74243" lon="6.30446">
        <ele>984.1</ele>
        <time>2014-08-15T14:18:11.959Z</time>
      </trkpt>
      <trkpt lat="46.74223" lon="6.30448">
        <ele>985.3</ele>
        <time>2014-08-15T14:18:57.780Z</time>
      </trkpt>
      <trkpt lat="46.74214" lon="6.30451">
        <ele>984.9</ele>
        <time>2014-08-15T14:19:03.351Z</time>
      </trkpt>
      <trkpt lat="46.74204" lon="6.30451">
        <ele>985.6</ele>
        <time>2014-08-15T14:19:08.770Z</time>
      </trkpt>
      <trkpt lat="46.74196" lon="6.30444">
        <ele>987.2</ele>
        <time>2014-08-15T14:19:13.612Z</time>
      </trkpt>
      <trkpt lat="46.7419" lon="6.30434">
        <ele>988.6</ele>
        <time>2014-08-15T14:19:18.076Z</time>
      </trkpt>
      <trkpt lat="46.7417" lon="6.30388">
        <ele>990.2</ele>
        <time>2014-08-15T14:19:33.996Z</time>
      </trkpt>
      <trkpt lat="46.74165" lon="6.30367">
        <ele>990.6</ele>
        <time>2014-08-15T14:19:43.146Z</time>
      </trkpt>
      <trkpt lat="46.74161" lon="6.30335">
        <ele>991.2</ele>
        <time>2014-08-15T14:19:51.653Z</time>
      </trkpt>
      <trkpt lat="46.74152" lon="6.30306">
        <ele>994</ele>
        <time>2014-08-15T14:19:59.371Z</time>
      </trkpt>
      <trkpt lat="46.74137" lon="6.30282">
        <ele>994.7</ele>
        <time>2014-08-15T14:20:06.919Z</time>
      </trkpt>
      <trkpt lat="46.74094" lon="6.30224">
        <ele>999.2</ele>
        <time>2014-08-15T14:20:29.958Z</time>
      </trkpt>
      <trkpt lat="46.74073" lon="6.30209">
        <ele>1000</ele>
        <time>2014-08-15T14:20:47.306Z</time>
      </trkpt>
      <trkpt lat="46.74064" lon="6.30207">
        <ele>999.7</ele>
        <time>2014-08-15T14:20:50.990Z</time>
      </trkpt>
      <trkpt lat="46.74054" lon="6.30208">
        <ele>1000.3</ele>
        <time>2014-08-15T14:20:54.967Z</time>
      </trkpt>
      <trkpt lat="46.74037" lon="6.30254">
        <ele>1001</ele>
        <time>2014-08-15T14:22:09.883Z</time>
      </trkpt>
      <trkpt lat="46.74028" lon="6.30264">
        <ele>1002.3</ele>
        <time>2014-08-15T14:22:14.732Z</time>
      </trkpt>
      <trkpt lat="46.74018" lon="6.30265">
        <ele>1004.3</ele>
        <time>2014-08-15T14:22:19.188Z</time>
      </trkpt>
      <trkpt lat="46.74008" lon="6.3026">
        <ele>1006</ele>
        <time>2014-08-15T14:22:23.616Z</time>
      </trkpt>
      <trkpt lat="46.73999" lon="6.30251">
        <ele>1007.2</ele>
        <time>2014-08-15T14:22:28.007Z</time>
      </trkpt>
      <trkpt lat="46.73974" lon="6.30232">
        <ele>1009.8</ele>
        <time>2014-08-15T14:22:41.960Z</time>
      </trkpt>
      <trkpt lat="46.73954" lon="6.3022">
        <ele>1009.5</ele>
        <time>2014-08-15T14:23:03.356Z</time>
      </trkpt>
      <trkpt lat="46.73944" lon="6.30216">
        <ele>1009.8</ele>
        <time>2014-08-15T14:23:09.143Z</time>
      </trkpt>
      <trkpt lat="46.73901" lon="6.30189">
        <ele>1016.6</ele>
        <time>2014-08-15T14:23:36.563Z</time>
      </trkpt>
      <trkpt lat="46.73891" lon="6.30185">
        <ele>1017.2</ele>
        <time>2014-08-15T14:23:42.750Z</time>
      </trkpt>
      <trkpt lat="46.73882" lon="6.30182">
        <ele>1017.8</ele>
        <time>2014-08-15T14:23:48.509Z</time>
      </trkpt>
      <trkpt lat="46.73873" lon="6.30181">
        <ele>1018.1</ele>
        <time>2014-08-15T14:23:54.102Z</time>
      </trkpt>
      <trkpt lat="46.73863" lon="6.3018">
        <ele>1018.6</ele>
        <time>2014-08-15T14:23:59.592Z</time>
      </trkpt>
      <trkpt lat="46.73835" lon="6.30189">
        <ele>1019.7</ele>
        <time>2014-08-15T14:24:55.398Z</time>
      </trkpt>
      <trkpt lat="46.73826" lon="6.30192">
        <ele>1019.6</ele>
        <time>2014-08-15T14:25:03.323Z</time>
      </trkpt>
      <trkpt lat="46.738" lon="6.3021">
        <ele>1023.8</ele>
        <time>2014-08-15T14:25:24.864Z</time>
      </trkpt>
      <trkpt lat="46.73792" lon="6.30218">
        <ele>1024.4</ele>
        <time>2014-08-15T14:25:32.336Z</time>
      </trkpt>
      <trkpt lat="46.73784" lon="6.30222">
        <ele>1024.9</ele>
        <time>2014-08-15T14:25:39.974Z</time>
      </trkpt>
      <trkpt lat="46.73767" lon="6.30176">
        <ele>1027.9</ele>
        <time>2014-08-15T14:29:47.007Z</time>
      </trkpt>
      <trkpt lat="46.73754" lon="6.30153">
        <ele>1044.8</ele>
        <time>2014-08-15T14:29:56.905Z</time>
      </trkpt>
      <trkpt lat="46.7375" lon="6.30141">
        <ele>1048.1</ele>
        <time>2014-08-15T14:30:01.616Z</time>
      </trkpt>
      <trkpt lat="46.73736" lon="6.30112">
        <ele>1046.1</ele>
        <time>2014-08-15T14:30:52.143Z</time>
      </trkpt>
      <trkpt lat="46.73728" lon="6.30105">
        <ele>1045.9</ele>
        <time>2014-08-15T14:30:57.281Z</time>
      </trkpt>
      <trkpt lat="46.73719" lon="6.30095">
        <ele>1046</ele>
        <time>2014-08-15T14:31:02.748Z</time>
      </trkpt>
      <trkpt lat="46.73702" lon="6.30061">
        <ele>1048.9</ele>
        <time>2014-08-15T14:31:18.167Z</time>
      </trkpt>
      <trkpt lat="46.73697" lon="6.30048">
        <ele>1048.7</ele>
        <time>2014-08-15T14:31:23.230Z</time>
      </trkpt>
      <trkpt lat="46.73695" lon="6.30034">
        <ele>1049</ele>
        <time>2014-08-15T14:31:27.839Z</time>
      </trkpt>
      <trkpt lat="46.73691" lon="6.30022">
        <ele>1050.8</ele>
        <time>2014-08-15T14:31:32.320Z</time>
      </trkpt>
      <trkpt lat="46.73688" lon="6.30009">
        <ele>1053.1</ele>
        <time>2014-08-15T14:31:37.317Z</time>
      </trkpt>
      <trkpt lat="46.7368" lon="6.29982">
        <ele>1053</ele>
        <time>2014-08-15T14:31:49.355Z</time>
      </trkpt>
      <trkpt lat="46.73677" lon="6.29967">
        <ele>1051.6</ele>
        <time>2014-08-15T14:31:54.843Z</time>
      </trkpt>
      <trkpt lat="46.73673" lon="6.29954">
        <ele>1052.4</ele>
        <time>2014-08-15T14:31:59.165Z</time>
      </trkpt>
      <trkpt lat="46.73668" lon="6.29941">
        <ele>1055.8</ele>
        <time>2014-08-15T14:32:03.465Z</time>
      </trkpt>
      <trkpt lat="46.73662" lon="6.29932">
        <ele>1059.1</ele>
        <time>2014-08-15T14:32:07.460Z</time>
      </trkpt>
      <trkpt lat="46.73647" lon="6.29887">
        <ele>1056.2</ele>
        <time>2014-08-15T14:32:20.454Z</time>
      </trkpt>
      <trkpt lat="46.73639" lon="6.29845">
        <ele>1048.2</ele>
        <time>2014-08-15T14:32:28.890Z</time>
      </trkpt>
      <trkpt lat="46.73626" lon="6.29812">
        <ele>1045.5</ele>
        <time>2014-08-15T14:32:36.284Z</time>
      </trkpt>
      <trkpt lat="46.73595" lon="6.29681">
        <ele>1034.7</ele>
        <time>2014-08-15T14:32:58.582Z</time>
      </trkpt>
      <trkpt lat="46.73574" lon="6.29626">
        <ele>1033.5</ele>
        <time>2014-08-15T14:33:05.122Z</time>
      </trkpt>
      <trkpt lat="46.73557" lon="6.29601">
        <ele>1029.6</ele>
        <time>2014-08-15T14:33:08.974Z</time>
      </trkpt>
      <trkpt lat="46.73543" lon="6.29575">
        <ele>1027.6</ele>
        <time>2014-08-15T14:33:50.092Z</time>
      </trkpt>
      <trkpt lat="46.73532" lon="6.29548">
        <ele>1026.9</ele>
        <time>2014-08-15T14:33:57.584Z</time>
      </trkpt>
      <trkpt lat="46.73523" lon="6.29481">
        <ele>1020</ele>
        <time>2014-08-15T14:34:07.081Z</time>
      </trkpt>
      <trkpt lat="46.73523" lon="6.29456">
        <ele>1018.8</ele>
        <time>2014-08-15T14:34:09.547Z</time>
      </trkpt>
      <trkpt lat="46.73532" lon="6.29401">
        <ele>1015.9</ele>
        <time>2014-08-15T14:34:14.995Z</time>
      </trkpt>
      <trkpt lat="46.73516" lon="6.29406">
        <ele>1014.7</ele>
        <time>2014-08-15T14:34:56.593Z</time>
      </trkpt>
      <trkpt lat="46.73506" lon="6.29411">
        <ele>1015</ele>
        <time>2014-08-15T14:35:02.181Z</time>
      </trkpt>
      <trkpt lat="46.73496" lon="6.29413">
        <ele>1015.8</ele>
        <time>2014-08-15T14:35:07.387Z</time>
      </trkpt>
      <trkpt lat="46.73487" lon="6.29417">
        <ele>1017.1</ele>
        <time>2014-08-15T14:35:15.571Z</time>
      </trkpt>
      <trkpt lat="46.73478" lon="6.29423">
        <ele>1018.6</ele>
        <time>2014-08-15T14:35:23.229Z</time>
      </trkpt>
      <trkpt lat="46.7347" lon="6.2942">
        <ele>1020.9</ele>
        <time>2014-08-15T14:35:38.813Z</time>
      </trkpt>
      <trkpt lat="46.73461" lon="6.29414">
        <ele>1024.6</ele>
        <time>2014-08-15T14:35:57.938Z</time>
      </trkpt>
      <trkpt lat="46.73452" lon="6.2941">
        <ele>1029.3</ele>
        <time>2014-08-15T14:36:16.757Z</time>
      </trkpt>
      <trkpt lat="46.73445" lon="6.29402">
        <ele>1033.5</ele>
        <time>2014-08-15T14:36:30.267Z</time>
      </trkpt>
      <trkpt lat="46.73437" lon="6.29396">
        <ele>1037</ele>
        <time>2014-08-15T14:36:39.191Z</time>
      </trkpt>
      <trkpt lat="46.73431" lon="6.29386">
        <ele>1039</ele>
        <time>2014-08-15T14:36:47.994Z</time>
      </trkpt>
      <trkpt lat="46.73417" lon="6.29365">
        <ele>1038.3</ele>
        <time>2014-08-15T14:37:09.775Z</time>
      </trkpt>
      <trkpt lat="46.73415" lon="6.2935">
        <ele>1038</ele>
        <time>2014-08-15T14:37:14.979Z</time>
      </trkpt>
      <trkpt lat="46.73405" lon="6.2932">
        <ele>1037</ele>
        <time>2014-08-15T14:37:44.278Z</time>
      </trkpt>
      <trkpt lat="46.73403" lon="6.29262">
        <ele>1055.7</ele>
        <time>2014-08-15T14:38:01.757Z</time>
      </trkpt>
      <trkpt lat="46.734" lon="6.2925">
        <ele>1062.1</ele>
        <time>2014-08-15T14:38:06.153Z</time>
      </trkpt>
      <trkpt lat="46.73395" lon="6.29238">
        <ele>1065.5</ele>
        <time>2014-08-15T14:38:10.823Z</time>
      </trkpt>
      <trkpt lat="46.73389" lon="6.29228">
        <ele>1065.4</ele>
        <time>2014-08-15T14:38:15.577Z</time>
      </trkpt>
      <trkpt lat="46.73383" lon="6.29217">
        <ele>1061.4</ele>
        <time>2014-08-15T14:38:20.002Z</time>
      </trkpt>
      <trkpt lat="46.73374" lon="6.2921">
        <ele>1062.2</ele>
        <time>2014-08-15T14:40:17.687Z</time>
      </trkpt>
      <trkpt lat="46.73371" lon="6.29197">
        <ele>1060.8</ele>
        <time>2014-08-15T14:40:24.225Z</time>
      </trkpt>
      <trkpt lat="46.73363" lon="6.29187">
        <ele>1059.5</ele>
        <time>2014-08-15T14:40:30.140Z</time>
      </trkpt>
      <trkpt lat="46.7335" lon="6.29165">
        <ele>1059.4</ele>
        <time>2014-08-15T14:40:41.776Z</time>
      </trkpt>
      <trkpt lat="46.73339" lon="6.29142">
        <ele>1062.2</ele>
        <time>2014-08-15T14:40:53.936Z</time>
      </trkpt>
      <trkpt lat="46.73332" lon="6.29116">
        <ele>1064.2</ele>
        <time>2014-08-15T14:41:07.071Z</time>
      </trkpt>
      <trkpt lat="46.73327" lon="6.29104">
        <ele>1065.4</ele>
        <time>2014-08-15T14:41:13.752Z</time>
      </trkpt>
      <trkpt lat="46.73319" lon="6.29094">
        <ele>1066.2</ele>
        <time>2014-08-15T14:41:19.600Z</time>
      </trkpt>
      <trkpt lat="46.73309" lon="6.29086">
        <ele>1066.4</ele>
        <time>2014-08-15T14:41:24.732Z</time>
      </trkpt>
      <trkpt lat="46.73293" lon="6.29069">
        <ele>1066.5</ele>
        <time>2014-08-15T14:41:34.003Z</time>
      </trkpt>
      <trkpt lat="46.73283" lon="6.29053">
        <ele>1069</ele>
        <time>2014-08-15T14:41:55.057Z</time>
      </trkpt>
      <trkpt lat="46.7325" lon="6.29014">
        <ele>1068.5</ele>
        <time>2014-08-15T14:42:56.844Z</time>
      </trkpt>
      <trkpt lat="46.73226" lon="6.28992">
        <ele>1069.6</ele>
        <time>2014-08-15T14:43:20.973Z</time>
      </trkpt>
      <trkpt lat="46.73214" lon="6.28997">
        <ele>1070.9</ele>
        <time>2014-08-15T14:43:53.998Z</time>
      </trkpt>
      <trkpt lat="46.73191" lon="6.28998">
        <ele>1069.8</ele>
        <time>2014-08-15T14:44:33.375Z</time>
      </trkpt>
      <trkpt lat="46.73187" lon="6.2901">
        <ele>1069.6</ele>
        <time>2014-08-15T14:44:42.106Z</time>
      </trkpt>
      <trkpt lat="46.73179" lon="6.29018">
        <ele>1069.7</ele>
        <time>2014-08-15T14:44:51.995Z</time>
      </trkpt>
      <trkpt lat="46.73163" lon="6.29028">
        <ele>1069.1</ele>
        <time>2014-08-15T14:45:22.677Z</time>
      </trkpt>
      <trkpt lat="46.73145" lon="6.29044">
        <ele>1068.8</ele>
        <time>2014-08-15T14:45:33.410Z</time>
      </trkpt>
      <trkpt lat="46.73136" lon="6.29048">
        <ele>1069.1</ele>
        <time>2014-08-15T14:45:38.040Z</time>
      </trkpt>
      <trkpt lat="46.73127" lon="6.29051">
        <ele>1069.8</ele>
        <time>2014-08-15T14:45:42.753Z</time>
      </trkpt>
      <trkpt lat="46.73106" lon="6.29054">
        <ele>1074.8</ele>
        <time>2014-08-15T14:45:50.477Z</time>
      </trkpt>
      <trkpt lat="46.73098" lon="6.29062">
        <ele>1077</ele>
        <time>2014-08-15T14:45:53.996Z</time>
      </trkpt>
      <trkpt lat="46.73073" lon="6.29078">
        <ele>1076</ele>
        <time>2014-08-15T14:46:14.794Z</time>
      </trkpt>
      <trkpt lat="46.73065" lon="6.29084">
        <ele>1074.8</ele>
        <time>2014-08-15T14:46:19.783Z</time>
      </trkpt>
      <trkpt lat="46.73056" lon="6.29089">
        <ele>1072.3</ele>
        <time>2014-08-15T14:46:25.001Z</time>
      </trkpt>
      <trkpt lat="46.73047" lon="6.29091">
        <ele>1071</ele>
        <time>2014-08-15T14:46:30.989Z</time>
      </trkpt>
      <trkpt lat="46.73024" lon="6.29091">
        <ele>1074.5</ele>
        <time>2014-08-15T14:46:59.334Z</time>
      </trkpt>
      <trkpt lat="46.73014" lon="6.29089">
        <ele>1076.8</ele>
        <time>2014-08-15T14:47:06.175Z</time>
      </trkpt>
      <trkpt lat="46.73004" lon="6.29092">
        <ele>1086.3</ele>
        <time>2014-08-15T14:47:13.542Z</time>
      </trkpt>
      <trkpt lat="46.72994" lon="6.29092">
        <ele>1097.2</ele>
        <time>2014-08-15T14:47:21.535Z</time>
      </trkpt>
      <trkpt lat="46.72953" lon="6.29085">
        <ele>1105.1</ele>
        <time>2014-08-15T14:47:47.827Z</time>
      </trkpt>
      <trkpt lat="46.72943" lon="6.29085">
        <ele>1105.2</ele>
        <time>2014-08-15T14:47:53.457Z</time>
      </trkpt>
      <trkpt lat="46.72933" lon="6.29086">
        <ele>1104.4</ele>
        <time>2014-08-15T14:47:59.694Z</time>
      </trkpt>
      <trkpt lat="46.72923" lon="6.29089">
        <ele>1102.3</ele>
        <time>2014-08-15T14:48:05.953Z</time>
      </trkpt>
      <trkpt lat="46.72893" lon="6.29092">
        <ele>1095.2</ele>
        <time>2014-08-15T14:48:21.774Z</time>
      </trkpt>
      <trkpt lat="46.72864" lon="6.29091">
        <ele>1099.2</ele>
        <time>2014-08-15T14:48:49.383Z</time>
      </trkpt>
      <trkpt lat="46.72854" lon="6.2909">
        <ele>1104.2</ele>
        <time>2014-08-15T14:48:59.654Z</time>
      </trkpt>
      <trkpt lat="46.72844" lon="6.29091">
        <ele>1107.1</ele>
        <time>2014-08-15T14:49:10.046Z</time>
      </trkpt>
      <trkpt lat="46.72836" lon="6.29082">
        <ele>1107.5</ele>
        <time>2014-08-15T14:49:26.127Z</time>
      </trkpt>
      <trkpt lat="46.72828" lon="6.29088">
        <ele>1106.5</ele>
        <time>2014-08-15T14:49:43.082Z</time>
      </trkpt>
      <trkpt lat="46.72792" lon="6.29093">
        <ele>1109.9</ele>
        <time>2014-08-15T14:50:28.429Z</time>
      </trkpt>
      <trkpt lat="46.72781" lon="6.29097">
        <ele>1108.3</ele>
        <time>2014-08-15T14:50:33.682Z</time>
      </trkpt>
      <trkpt lat="46.72773" lon="6.29102">
        <ele>1107.4</ele>
        <time>2014-08-15T14:50:38.360Z</time>
      </trkpt>
      <trkpt lat="46.72735" lon="6.29119">
        <ele>1110</ele>
        <time>2014-08-15T14:50:54.658Z</time>
      </trkpt>
      <trkpt lat="46.72724" lon="6.2912">
        <ele>1110.2</ele>
        <time>2014-08-15T14:50:58.367Z</time>
      </trkpt>
      <trkpt lat="46.72703" lon="6.29113">
        <ele>1114.3</ele>
        <time>2014-08-15T14:51:04.923Z</time>
      </trkpt>
      <trkpt lat="46.72693" lon="6.29107">
        <ele>1117.4</ele>
        <time>2014-08-15T14:51:07.459Z</time>
      </trkpt>
      <trkpt lat="46.72684" lon="6.29098">
        <ele>1119.3</ele>
        <time>2014-08-15T14:51:09.954Z</time>
      </trkpt>
      <trkpt lat="46.72681" lon="6.29081">
        <ele>1121.9</ele>
        <time>2014-08-15T14:51:12.808Z</time>
      </trkpt>
      <trkpt lat="46.72687" lon="6.29039">
        <ele>1129.3</ele>
        <time>2014-08-15T14:51:19.118Z</time>
      </trkpt>
      <trkpt lat="46.72696" lon="6.29019">
        <ele>1129.8</ele>
        <time>2014-08-15T14:51:22.019Z</time>
      </trkpt>
      <trkpt lat="46.72727" lon="6.2898">
        <ele>1134.2</ele>
        <time>2014-08-15T14:51:31.778Z</time>
      </trkpt>
      <trkpt lat="46.7274" lon="6.28965">
        <ele>1138.7</ele>
        <time>2014-08-15T14:51:34.890Z</time>
      </trkpt>
      <trkpt lat="46.72753" lon="6.28961">
        <ele>1141</ele>
        <time>2014-08-15T14:51:37.308Z</time>
      </trkpt>
      <trkpt lat="46.72776" lon="6.28964">
        <ele>1139.5</ele>
        <time>2014-08-15T14:51:42.096Z</time>
      </trkpt>
      <trkpt lat="46.72791" lon="6.28963">
        <ele>1136.7</ele>
        <time>2014-08-15T14:51:45.357Z</time>
      </trkpt>
      <trkpt lat="46.72804" lon="6.28956">
        <ele>1133.3</ele>
        <time>2014-08-15T14:51:48.579Z</time>
      </trkpt>
      <trkpt lat="46.72826" lon="6.28929">
        <ele>1128.2</ele>
        <time>2014-08-15T14:51:55.326Z</time>
      </trkpt>
      <trkpt lat="46.72856" lon="6.28847">
        <ele>1113</ele>
        <time>2014-08-15T14:52:08.662Z</time>
      </trkpt>
      <trkpt lat="46.72859" lon="6.28803">
        <ele>1102</ele>
        <time>2014-08-15T14:52:15.206Z</time>
      </trkpt>
      <trkpt lat="46.72903" lon="6.28589">
        <ele>1099.2</ele>
        <time>2014-08-15T14:52:43.702Z</time>
      </trkpt>
      <trkpt lat="46.72904" lon="6.28512">
        <ele>1104</ele>
        <time>2014-08-15T14:52:54.136Z</time>
      </trkpt>
      <trkpt lat="46.72901" lon="6.28479">
        <ele>1109.4</ele>
        <time>2014-08-15T14:52:59.216Z</time>
      </trkpt>
      <trkpt lat="46.72881" lon="6.28414">
        <ele>1114</ele>
        <time>2014-08-15T14:53:10.941Z</time>
      </trkpt>
      <trkpt lat="46.72878" lon="6.28399">
        <ele>1111.7</ele>
        <time>2014-08-15T14:53:13.708Z</time>
      </trkpt>
      <trkpt lat="46.72886" lon="6.28321">
        <ele>1106.3</ele>
        <time>2014-08-15T14:53:29.440Z</time>
      </trkpt>
      <trkpt lat="46.7289" lon="6.28306">
        <ele>1110.4</ele>
        <time>2014-08-15T14:53:33.204Z</time>
      </trkpt>
      <trkpt lat="46.72887" lon="6.28237">
        <ele>1127.1</ele>
        <time>2014-08-15T14:53:48.002Z</time>
      </trkpt>
      <trkpt lat="46.72889" lon="6.28203">
        <ele>1118</ele>
        <time>2014-08-15T14:53:56.193Z</time>
      </trkpt>
      <trkpt lat="46.72897" lon="6.28174">
        <ele>1111</ele>
        <time>2014-08-15T14:54:01.430Z</time>
      </trkpt>
      <trkpt lat="46.72916" lon="6.2813">
        <ele>1104.3</ele>
        <time>2014-08-15T14:54:08.967Z</time>
      </trkpt>
      <trkpt lat="46.72919" lon="6.28117">
        <ele>1105.2</ele>
        <time>2014-08-15T14:54:10.796Z</time>
      </trkpt>
      <trkpt lat="46.72928" lon="6.28049">
        <ele>1110.1</ele>
        <time>2014-08-15T14:54:19.237Z</time>
      </trkpt>
      <trkpt lat="46.72956" lon="6.27969">
        <ele>1114.8</ele>
        <time>2014-08-15T14:54:32.754Z</time>
      </trkpt>
      <trkpt lat="46.72955" lon="6.27954">
        <ele>1112.3</ele>
        <time>2014-08-15T14:54:35.976Z</time>
      </trkpt>
      <trkpt lat="46.72948" lon="6.27941">
        <ele>1108.2</ele>
        <time>2014-08-15T14:54:40.374Z</time>
      </trkpt>
      <trkpt lat="46.72935" lon="6.27865">
        <ele>1108.4</ele>
        <time>2014-08-15T14:55:21.321Z</time>
      </trkpt>
      <trkpt lat="46.72926" lon="6.27863">
        <ele>1105.7</ele>
        <time>2014-08-15T14:55:26.771Z</time>
      </trkpt>
      <trkpt lat="46.72919" lon="6.27855">
        <ele>1102.2</ele>
        <time>2014-08-15T14:55:32.215Z</time>
      </trkpt>
      <trkpt lat="46.72913" lon="6.27845">
        <ele>1099.3</ele>
        <time>2014-08-15T14:55:38.138Z</time>
      </trkpt>
      <trkpt lat="46.72909" lon="6.27832">
        <ele>1097.9</ele>
        <time>2014-08-15T14:55:44.287Z</time>
      </trkpt>
      <trkpt lat="46.72903" lon="6.27823">
        <ele>1097.9</ele>
        <time>2014-08-15T14:55:50.629Z</time>
      </trkpt>
      <trkpt lat="46.72886" lon="6.27808">
        <ele>1100.1</ele>
        <time>2014-08-15T14:56:03.995Z</time>
      </trkpt>
      <trkpt lat="46.72876" lon="6.27803">
        <ele>1099.7</ele>
        <time>2014-08-15T14:56:18.998Z</time>
      </trkpt>
      <trkpt lat="46.72866" lon="6.27795">
        <ele>1098.3</ele>
        <time>2014-08-15T14:56:33.998Z</time>
      </trkpt>
      <trkpt lat="46.72846" lon="6.27747">
        <ele>1100.3</ele>
        <time>2014-08-15T14:59:18.996Z</time>
      </trkpt>
      <trkpt lat="46.7285" lon="6.27761">
        <ele>1102.7</ele>
        <time>2014-08-15T15:00:01.751Z</time>
      </trkpt>
      <trkpt lat="46.72844" lon="6.2775">
        <ele>1101.9</ele>
        <time>2014-08-15T15:00:15.996Z</time>
      </trkpt>
      <trkpt lat="46.7284" lon="6.27729">
        <ele>1100</ele>
        <time>2014-08-15T15:01:46.608Z</time>
      </trkpt>
      <trkpt lat="46.72777" lon="6.27604">
        <ele>1105.3</ele>
        <time>2014-08-15T15:02:19.260Z</time>
      </trkpt>
      <trkpt lat="46.72757" lon="6.27572">
        <ele>1102.4</ele>
        <time>2014-08-15T15:02:28.378Z</time>
      </trkpt>
      <trkpt lat="46.72749" lon="6.27561">
        <ele>1101.1</ele>
        <time>2014-08-15T15:02:32.070Z</time>
      </trkpt>
      <trkpt lat="46.72722" lon="6.27537">
        <ele>1102.2</ele>
        <time>2014-08-15T15:02:45.612Z</time>
      </trkpt>
      <trkpt lat="46.72713" lon="6.2753">
        <ele>1103.1</ele>
        <time>2014-08-15T15:02:50.308Z</time>
      </trkpt>
      <trkpt lat="46.72703" lon="6.27525">
        <ele>1103.9</ele>
        <time>2014-08-15T15:02:55.211Z</time>
      </trkpt>
      <trkpt lat="46.72685" lon="6.27518">
        <ele>1104.3</ele>
        <time>2014-08-15T15:03:04.959Z</time>
      </trkpt>
      <trkpt lat="46.72676" lon="6.27513">
        <ele>1103.7</ele>
        <time>2014-08-15T15:03:09.752Z</time>
      </trkpt>
      <trkpt lat="46.72668" lon="6.27505">
        <ele>1103.2</ele>
        <time>2014-08-15T15:03:15.000Z</time>
      </trkpt>
      <trkpt lat="46.72636" lon="6.27465">
        <ele>1102.3</ele>
        <time>2014-08-15T15:04:06.769Z</time>
      </trkpt>
      <trkpt lat="46.72631" lon="6.2745">
        <ele>1103</ele>
        <time>2014-08-15T15:04:12.128Z</time>
      </trkpt>
      <trkpt lat="46.7263" lon="6.27437">
        <ele>1104.1</ele>
        <time>2014-08-15T15:04:16.896Z</time>
      </trkpt>
      <trkpt lat="46.72627" lon="6.27424">
        <ele>1105.5</ele>
        <time>2014-08-15T15:04:22.046Z</time>
      </trkpt>
      <trkpt lat="46.7262" lon="6.27405">
        <ele>1106.6</ele>
        <time>2014-08-15T15:04:37.179Z</time>
      </trkpt>
      <trkpt lat="46.72619" lon="6.2739">
        <ele>1105.5</ele>
        <time>2014-08-15T15:04:42.039Z</time>
      </trkpt>
      <trkpt lat="46.7262" lon="6.27376">
        <ele>1104.7</ele>
        <time>2014-08-15T15:04:46.353Z</time>
      </trkpt>
      <trkpt lat="46.72623" lon="6.27361">
        <ele>1104.5</ele>
        <time>2014-08-15T15:04:50.507Z</time>
      </trkpt>
      <trkpt lat="46.7263" lon="6.2735">
        <ele>1104.9</ele>
        <time>2014-08-15T15:04:54.342Z</time>
      </trkpt>
      <trkpt lat="46.72633" lon="6.27336">
        <ele>1105.6</ele>
        <time>2014-08-15T15:04:58.580Z</time>
      </trkpt>
      <trkpt lat="46.7263" lon="6.27323">
        <ele>1106.1</ele>
        <time>2014-08-15T15:05:02.800Z</time>
      </trkpt>
      <trkpt lat="46.72628" lon="6.27309">
        <ele>1106.1</ele>
        <time>2014-08-15T15:05:06.995Z</time>
      </trkpt>
      <trkpt lat="46.72621" lon="6.27274">
        <ele>1104.9</ele>
        <time>2014-08-15T15:05:27.651Z</time>
      </trkpt>
      <trkpt lat="46.72613" lon="6.27208">
        <ele>1104.7</ele>
        <time>2014-08-15T15:05:41.853Z</time>
      </trkpt>
      <trkpt lat="46.72613" lon="6.27169">
        <ele>1103</ele>
        <time>2014-08-15T15:05:47.714Z</time>
      </trkpt>
      <trkpt lat="46.72615" lon="6.27154">
        <ele>1101.4</ele>
        <time>2014-08-15T15:05:49.709Z</time>
      </trkpt>
      <trkpt lat="46.72619" lon="6.27142">
        <ele>1100.1</ele>
        <time>2014-08-15T15:05:51.440Z</time>
      </trkpt>
      <trkpt lat="46.72626" lon="6.2713">
        <ele>1098.8</ele>
        <time>2014-08-15T15:05:53.492Z</time>
      </trkpt>
      <trkpt lat="46.72637" lon="6.27107">
        <ele>1097.1</ele>
        <time>2014-08-15T15:05:56.730Z</time>
      </trkpt>
      <trkpt lat="46.72642" lon="6.27083">
        <ele>1096</ele>
        <time>2014-08-15T15:05:59.446Z</time>
      </trkpt>
      <trkpt lat="46.72641" lon="6.27068">
        <ele>1096.1</ele>
        <time>2014-08-15T15:06:01.007Z</time>
      </trkpt>
      <trkpt lat="46.72647" lon="6.27045">
        <ele>1096.4</ele>
        <time>2014-08-15T15:06:10.081Z</time>
      </trkpt>
      <trkpt lat="46.72667" lon="6.26993">
        <ele>1097.1</ele>
        <time>2014-08-15T15:06:22.330Z</time>
      </trkpt>
      <trkpt lat="46.72666" lon="6.26962">
        <ele>1098.5</ele>
        <time>2014-08-15T15:06:30.246Z</time>
      </trkpt>
      <trkpt lat="46.72668" lon="6.26946">
        <ele>1098.7</ele>
        <time>2014-08-15T15:06:34.003Z</time>
      </trkpt>
      <trkpt lat="46.72663" lon="6.26917">
        <ele>1098</ele>
        <time>2014-08-15T15:06:41.610Z</time>
      </trkpt>
      <trkpt lat="46.72634" lon="6.2683">
        <ele>1099.5</ele>
        <time>2014-08-15T15:07:04.262Z</time>
      </trkpt>
      <trkpt lat="46.7263" lon="6.26816">
        <ele>1100.6</ele>
        <time>2014-08-15T15:07:07.006Z</time>
      </trkpt>
      <trkpt lat="46.72607" lon="6.26779">
        <ele>1101.6</ele>
        <time>2014-08-15T15:07:16.718Z</time>
      </trkpt>
      <trkpt lat="46.726" lon="6.26769">
        <ele>1100.5</ele>
        <time>2014-08-15T15:07:20.028Z</time>
      </trkpt>
      <trkpt lat="46.72589" lon="6.26746">
        <ele>1095.9</ele>
        <time>2014-08-15T15:07:26.724Z</time>
      </trkpt>
      <trkpt lat="46.72581" lon="6.26732">
        <ele>1094.9</ele>
        <time>2014-08-15T15:07:30.512Z</time>
      </trkpt>
      <trkpt lat="46.72571" lon="6.26706">
        <ele>1094.4</ele>
        <time>2014-08-15T15:07:37.081Z</time>
      </trkpt>
      <trkpt lat="46.72568" lon="6.26689">
        <ele>1095.2</ele>
        <time>2014-08-15T15:07:41.263Z</time>
      </trkpt>
      <trkpt lat="46.72556" lon="6.26656">
        <ele>1093.7</ele>
        <time>2014-08-15T15:07:48.976Z</time>
      </trkpt>
      <trkpt lat="46.72554" lon="6.26638">
        <ele>1093.5</ele>
        <time>2014-08-15T15:07:52.249Z</time>
      </trkpt>
      <trkpt lat="46.72554" lon="6.26622">
        <ele>1092.5</ele>
        <time>2014-08-15T15:07:55.437Z</time>
      </trkpt>
      <trkpt lat="46.72561" lon="6.26596">
        <ele>1086.8</ele>
        <time>2014-08-15T15:08:02.607Z</time>
      </trkpt>
      <trkpt lat="46.72567" lon="6.26585">
        <ele>1087</ele>
        <time>2014-08-15T15:08:07.158Z</time>
      </trkpt>
      <trkpt lat="46.72574" lon="6.26557">
        <ele>1095.9</ele>
        <time>2014-08-15T15:08:16.870Z</time>
      </trkpt>
      <trkpt lat="46.72576" lon="6.26538">
        <ele>1098.1</ele>
        <time>2014-08-15T15:08:20.982Z</time>
      </trkpt>
      <trkpt lat="46.72574" lon="6.26524">
        <ele>1097</ele>
        <time>2014-08-15T15:08:24.035Z</time>
      </trkpt>
      <trkpt lat="46.72569" lon="6.26509">
        <ele>1094</ele>
        <time>2014-08-15T15:08:27.541Z</time>
      </trkpt>
      <trkpt lat="46.72569" lon="6.26493">
        <ele>1090.9</ele>
        <time>2014-08-15T15:08:31.043Z</time>
      </trkpt>
      <trkpt lat="46.72585" lon="6.26422">
        <ele>1085.7</ele>
        <time>2014-08-15T15:08:54.344Z</time>
      </trkpt>
      <trkpt lat="46.72583" lon="6.26403">
        <ele>1084.8</ele>
        <time>2014-08-15T15:08:57.921Z</time>
      </trkpt>
      <trkpt lat="46.72576" lon="6.26389">
        <ele>1083.7</ele>
        <time>2014-08-15T15:09:00.974Z</time>
      </trkpt>
      <trkpt lat="46.72556" lon="6.26367">
        <ele>1082.4</ele>
        <time>2014-08-15T15:09:06.655Z</time>
      </trkpt>
      <trkpt lat="46.72535" lon="6.2633">
        <ele>1077</ele>
        <time>2014-08-15T15:09:14.618Z</time>
      </trkpt>
      <trkpt lat="46.7249" lon="6.26268">
        <ele>1078.3</ele>
        <time>2014-08-15T15:09:46.103Z</time>
      </trkpt>
      <trkpt lat="46.72485" lon="6.26257">
        <ele>1080.8</ele>
        <time>2014-08-15T15:09:50.315Z</time>
      </trkpt>
      <trkpt lat="46.72478" lon="6.26247">
        <ele>1083.2</ele>
        <time>2014-08-15T15:09:54.796Z</time>
      </trkpt>
      <trkpt lat="46.72464" lon="6.26207">
        <ele>1081.2</ele>
        <time>2014-08-15T15:10:08.988Z</time>
      </trkpt>
      <trkpt lat="46.72457" lon="6.26198">
        <ele>1081.4</ele>
        <time>2014-08-15T15:10:13.329Z</time>
      </trkpt>
      <trkpt lat="46.7245" lon="6.26171">
        <ele>1086.8</ele>
        <time>2014-08-15T15:10:21.598Z</time>
      </trkpt>
      <trkpt lat="46.72441" lon="6.2616">
        <ele>1088.4</ele>
        <time>2014-08-15T15:10:26.315Z</time>
      </trkpt>
      <trkpt lat="46.72372" lon="6.26102">
        <ele>1091.5</ele>
        <time>2014-08-15T15:10:57.424Z</time>
      </trkpt>
      <trkpt lat="46.72363" lon="6.26097">
        <ele>1090.5</ele>
        <time>2014-08-15T15:11:01.994Z</time>
      </trkpt>
      <trkpt lat="46.72327" lon="6.26087">
        <ele>1090.1</ele>
        <time>2014-08-15T15:11:21.000Z</time>
      </trkpt>
      <trkpt lat="46.72306" lon="6.26076">
        <ele>1093.9</ele>
        <time>2014-08-15T15:11:36.915Z</time>
      </trkpt>
      <trkpt lat="46.72297" lon="6.26071">
        <ele>1093.1</ele>
        <time>2014-08-15T15:11:40.763Z</time>
      </trkpt>
      <trkpt lat="46.72262" lon="6.26042">
        <ele>1096.3</ele>
        <time>2014-08-15T15:11:54.695Z</time>
      </trkpt>
      <trkpt lat="46.72218" lon="6.26025">
        <ele>1097.8</ele>
        <time>2014-08-15T15:12:26.890Z</time>
      </trkpt>
      <trkpt lat="46.72191" lon="6.26003">
        <ele>1100.7</ele>
        <time>2014-08-15T15:12:43.274Z</time>
      </trkpt>
      <trkpt lat="46.72183" lon="6.25993">
        <ele>1103.6</ele>
        <time>2014-08-15T15:12:49.034Z</time>
      </trkpt>
      <trkpt lat="46.72139" lon="6.25932">
        <ele>1110.7</ele>
        <time>2014-08-15T15:13:20.526Z</time>
      </trkpt>
      <trkpt lat="46.72132" lon="6.25921">
        <ele>1112.7</ele>
        <time>2014-08-15T15:13:24.998Z</time>
      </trkpt>
      <trkpt lat="46.7213" lon="6.25869">
        <ele>1112.5</ele>
        <time>2014-08-15T15:14:12.191Z</time>
      </trkpt>
      <trkpt lat="46.72123" lon="6.25852">
        <ele>1112.5</ele>
        <time>2014-08-15T15:14:15.591Z</time>
      </trkpt>
      <trkpt lat="46.72079" lon="6.25797">
        <ele>1106.2</ele>
        <time>2014-08-15T15:14:24.339Z</time>
      </trkpt>
      <trkpt lat="46.72069" lon="6.25781">
        <ele>1105.6</ele>
        <time>2014-08-15T15:14:26.019Z</time>
      </trkpt>
      <trkpt lat="46.72028" lon="6.25685">
        <ele>1104.1</ele>
        <time>2014-08-15T15:14:38.522Z</time>
      </trkpt>
      <trkpt lat="46.7202" lon="6.25663">
        <ele>1104.6</ele>
        <time>2014-08-15T15:14:40.340Z</time>
      </trkpt>
      <trkpt lat="46.72023" lon="6.25558">
        <ele>1106.4</ele>
        <time>2014-08-15T15:14:47.314Z</time>
      </trkpt>
      <trkpt lat="46.72019" lon="6.25529">
        <ele>1104.4</ele>
        <time>2014-08-15T15:14:49.263Z</time>
      </trkpt>
      <trkpt lat="46.72007" lon="6.25488">
        <ele>1101</ele>
        <time>2014-08-15T15:14:52.104Z</time>
      </trkpt>
      <trkpt lat="46.71995" lon="6.2541">
        <ele>1094.3</ele>
        <time>2014-08-15T15:14:57.027Z</time>
      </trkpt>
      <trkpt lat="46.7197" lon="6.25334">
        <ele>1086.3</ele>
        <time>2014-08-15T15:15:01.811Z</time>
      </trkpt>
      <trkpt lat="46.71927" lon="6.25241">
        <ele>1079.7</ele>
        <time>2014-08-15T15:15:08.078Z</time>
      </trkpt>
      <trkpt lat="46.71915" lon="6.2522">
        <ele>1077.1</ele>
        <time>2014-08-15T15:15:09.753Z</time>
      </trkpt>
      <trkpt lat="46.71885" lon="6.25145">
        <ele>1071.5</ele>
        <time>2014-08-15T15:15:16.230Z</time>
      </trkpt>
      <trkpt lat="46.7187" lon="6.25124">
        <ele>1066.5</ele>
        <time>2014-08-15T15:15:22.126Z</time>
      </trkpt>
      <trkpt lat="46.7184" lon="6.25102">
        <ele>1068.7</ele>
        <time>2014-08-15T15:15:36.418Z</time>
      </trkpt>
      <trkpt lat="46.71832" lon="6.25093">
        <ele>1068.2</ele>
        <time>2014-08-15T15:15:40.661Z</time>
      </trkpt>
      <trkpt lat="46.71824" lon="6.25086">
        <ele>1064.9</ele>
        <time>2014-08-15T15:15:44.708Z</time>
      </trkpt>
      <trkpt lat="46.71818" lon="6.25075">
        <ele>1059.7</ele>
        <time>2014-08-15T15:15:48.368Z</time>
      </trkpt>
      <trkpt lat="46.71811" lon="6.25065">
        <ele>1056.8</ele>
        <time>2014-08-15T15:15:52.272Z</time>
      </trkpt>
      <trkpt lat="46.71794" lon="6.25049">
        <ele>1063.2</ele>
        <time>2014-08-15T15:16:00.184Z</time>
      </trkpt>
      <trkpt lat="46.71782" lon="6.25028">
        <ele>1069.4</ele>
        <time>2014-08-15T15:16:09.445Z</time>
      </trkpt>
      <trkpt lat="46.71766" lon="6.25011">
        <ele>1072.1</ele>
        <time>2014-08-15T15:16:20.333Z</time>
      </trkpt>
      <trkpt lat="46.7174" lon="6.24989">
        <ele>1073.4</ele>
        <time>2014-08-15T15:16:39.966Z</time>
      </trkpt>
      <trkpt lat="46.71731" lon="6.24983">
        <ele>1074.2</ele>
        <time>2014-08-15T15:16:46.849Z</time>
      </trkpt>
      <trkpt lat="46.71723" lon="6.24975">
        <ele>1076.1</ele>
        <time>2014-08-15T15:16:52.489Z</time>
      </trkpt>
      <trkpt lat="46.71716" lon="6.24967">
        <ele>1078.2</ele>
        <time>2014-08-15T15:16:58.566Z</time>
      </trkpt>
      <trkpt lat="46.71707" lon="6.24959">
        <ele>1079.8</ele>
        <time>2014-08-15T15:17:05.997Z</time>
      </trkpt>
      <trkpt lat="46.71686" lon="6.24936">
        <ele>1082.5</ele>
        <time>2014-08-15T15:17:29.653Z</time>
      </trkpt>
      <trkpt lat="46.71673" lon="6.24917">
        <ele>1082.2</ele>
        <time>2014-08-15T15:17:38.964Z</time>
      </trkpt>
      <trkpt lat="46.71663" lon="6.24907">
        <ele>1084.6</ele>
        <time>2014-08-15T15:17:45.591Z</time>
      </trkpt>
      <trkpt lat="46.7164" lon="6.24875">
        <ele>1099.1</ele>
        <time>2014-08-15T15:18:11.182Z</time>
      </trkpt>
      <trkpt lat="46.71632" lon="6.24867">
        <ele>1099.8</ele>
        <time>2014-08-15T15:18:15.462Z</time>
      </trkpt>
      <trkpt lat="46.71603" lon="6.24849">
        <ele>1089.1</ele>
        <time>2014-08-15T15:18:28.583Z</time>
      </trkpt>
      <trkpt lat="46.71572" lon="6.24815">
        <ele>1088.8</ele>
        <time>2014-08-15T15:18:46.816Z</time>
      </trkpt>
      <trkpt lat="46.71544" lon="6.2477">
        <ele>1090.9</ele>
        <time>2014-08-15T15:19:01.193Z</time>
      </trkpt>
      <trkpt lat="46.71528" lon="6.24726">
        <ele>1088.7</ele>
        <time>2014-08-15T15:19:09.759Z</time>
      </trkpt>
      <trkpt lat="46.71495" lon="6.24672">
        <ele>1092.9</ele>
        <time>2014-08-15T15:19:21.937Z</time>
      </trkpt>
      <trkpt lat="46.71486" lon="6.24643">
        <ele>1094</ele>
        <time>2014-08-15T15:19:28.819Z</time>
      </trkpt>
      <trkpt lat="46.71486" lon="6.24628">
        <ele>1094.2</ele>
        <time>2014-08-15T15:19:32.079Z</time>
      </trkpt>
      <trkpt lat="46.71484" lon="6.24612">
        <ele>1094.1</ele>
        <time>2014-08-15T15:19:35.636Z</time>
      </trkpt>
      <trkpt lat="46.71478" lon="6.24602">
        <ele>1094.7</ele>
        <time>2014-08-15T15:19:38.696Z</time>
      </trkpt>
      <trkpt lat="46.71473" lon="6.24589">
        <ele>1096.2</ele>
        <time>2014-08-15T15:19:42.335Z</time>
      </trkpt>
      <trkpt lat="46.71469" lon="6.24577">
        <ele>1097.7</ele>
        <time>2014-08-15T15:19:46.232Z</time>
      </trkpt>
      <trkpt lat="46.71455" lon="6.24549">
        <ele>1097.1</ele>
        <time>2014-08-15T15:19:57.538Z</time>
      </trkpt>
      <trkpt lat="46.71449" lon="6.24528">
        <ele>1095.5</ele>
        <time>2014-08-15T15:20:06.161Z</time>
      </trkpt>
      <trkpt lat="46.71441" lon="6.24519">
        <ele>1094.2</ele>
        <time>2014-08-15T15:20:10.828Z</time>
      </trkpt>
      <trkpt lat="46.71419" lon="6.245">
        <ele>1095.7</ele>
        <time>2014-08-15T15:20:22.977Z</time>
      </trkpt>
      <trkpt lat="46.71413" lon="6.24487">
        <ele>1097.2</ele>
        <time>2014-08-15T15:20:28.008Z</time>
      </trkpt>
      <trkpt lat="46.71384" lon="6.24468">
        <ele>1097.1</ele>
        <time>2014-08-15T15:24:28.023Z</time>
      </trkpt>
      <trkpt lat="46.71373" lon="6.24464">
        <ele>1098.8</ele>
        <time>2014-08-15T15:24:31.251Z</time>
      </trkpt>
      <trkpt lat="46.71347" lon="6.24459">
        <ele>1101.4</ele>
        <time>2014-08-15T15:24:37.024Z</time>
      </trkpt>
      <trkpt lat="46.71322" lon="6.2446">
        <ele>1098.9</ele>
        <time>2014-08-15T15:24:41.055Z</time>
      </trkpt>
      <trkpt lat="46.71309" lon="6.24463">
        <ele>1097.5</ele>
        <time>2014-08-15T15:24:43.040Z</time>
      </trkpt>
      <trkpt lat="46.71287" lon="6.24454">
        <ele>1096.8</ele>
        <time>2014-08-15T15:24:46.967Z</time>
      </trkpt>
      <trkpt lat="46.71271" lon="6.24444">
        <ele>1096.4</ele>
        <time>2014-08-15T15:24:50.273Z</time>
      </trkpt>
      <trkpt lat="46.71263" lon="6.24438">
        <ele>1096.3</ele>
        <time>2014-08-15T15:24:52.899Z</time>
      </trkpt>
      <trkpt lat="46.71265" lon="6.24423">
        <ele>1096.6</ele>
        <time>2014-08-15T15:24:56.423Z</time>
      </trkpt>
      <trkpt lat="46.71272" lon="6.24416">
        <ele>1097.1</ele>
        <time>2014-08-15T15:25:01.008Z</time>
      </trkpt>
      <trkpt lat="46.71276" lon="6.24388">
        <ele>1097</ele>
        <time>2014-08-15T15:25:20.299Z</time>
      </trkpt>
      <trkpt lat="46.71268" lon="6.24379">
        <ele>1097</ele>
        <time>2014-08-15T15:25:26.636Z</time>
      </trkpt>
      <trkpt lat="46.71257" lon="6.24374">
        <ele>1098.1</ele>
        <time>2014-08-15T15:25:33.221Z</time>
      </trkpt>
      <trkpt lat="46.7125" lon="6.24366">
        <ele>1099.7</ele>
        <time>2014-08-15T15:25:38.020Z</time>
      </trkpt>
      <trkpt lat="46.71245" lon="6.24353">
        <ele>1100.8</ele>
        <time>2014-08-15T15:25:43.607Z</time>
      </trkpt>
      <trkpt lat="46.71244" lon="6.24338">
        <ele>1101.5</ele>
        <time>2014-08-15T15:25:48.897Z</time>
      </trkpt>
      <trkpt lat="46.71245" lon="6.24324">
        <ele>1102.9</ele>
        <time>2014-08-15T15:25:53.371Z</time>
      </trkpt>
      <trkpt lat="46.71242" lon="6.24296">
        <ele>1106.1</ele>
        <time>2014-08-15T15:26:01.876Z</time>
      </trkpt>
      <trkpt lat="46.71231" lon="6.24254">
        <ele>1103.2</ele>
        <time>2014-08-15T15:26:17.370Z</time>
      </trkpt>
      <trkpt lat="46.7123" lon="6.2424">
        <ele>1103.2</ele>
        <time>2014-08-15T15:26:23.118Z</time>
      </trkpt>
      <trkpt lat="46.71227" lon="6.24225">
        <ele>1103.7</ele>
        <time>2014-08-15T15:26:30.014Z</time>
      </trkpt>
      <trkpt lat="46.71211" lon="6.24167">
        <ele>1107.3</ele>
        <time>2014-08-15T15:27:29.241Z</time>
      </trkpt>
      <trkpt lat="46.712" lon="6.24142">
        <ele>1108.4</ele>
        <time>2014-08-15T15:27:34.854Z</time>
      </trkpt>
      <trkpt lat="46.71195" lon="6.24125">
        <ele>1108</ele>
        <time>2014-08-15T15:27:37.841Z</time>
      </trkpt>
      <trkpt lat="46.71189" lon="6.24111">
        <ele>1107.2</ele>
        <time>2014-08-15T15:27:40.585Z</time>
      </trkpt>
      <trkpt lat="46.71176" lon="6.24088">
        <ele>1104.5</ele>
        <time>2014-08-15T15:27:45.809Z</time>
      </trkpt>
      <trkpt lat="46.71172" lon="6.24075">
        <ele>1103</ele>
        <time>2014-08-15T15:27:48.300Z</time>
      </trkpt>
      <trkpt lat="46.71165" lon="6.24062">
        <ele>1102</ele>
        <time>2014-08-15T15:27:51.427Z</time>
      </trkpt>
      <trkpt lat="46.71134" lon="6.2399">
        <ele>1100</ele>
        <time>2014-08-15T15:28:04.088Z</time>
      </trkpt>
      <trkpt lat="46.71127" lon="6.2398">
        <ele>1100.8</ele>
        <time>2014-08-15T15:28:05.670Z</time>
      </trkpt>
      <trkpt lat="46.71115" lon="6.2397">
        <ele>1101.7</ele>
        <time>2014-08-15T15:28:08.028Z</time>
      </trkpt>
      <trkpt lat="46.71116" lon="6.23944">
        <ele>1101.2</ele>
        <time>2014-08-15T15:28:15.942Z</time>
      </trkpt>
      <trkpt lat="46.71137" lon="6.23886">
        <ele>1096.3</ele>
        <time>2014-08-15T15:28:28.037Z</time>
      </trkpt>
      <trkpt lat="46.71142" lon="6.23867">
        <ele>1095.2</ele>
        <time>2014-08-15T15:28:30.866Z</time>
      </trkpt>
      <trkpt lat="46.71142" lon="6.23773">
        <ele>1095.7</ele>
        <time>2014-08-15T15:28:39.680Z</time>
      </trkpt>
      <trkpt lat="46.71147" lon="6.23742">
        <ele>1096.3</ele>
        <time>2014-08-15T15:28:42.669Z</time>
      </trkpt>
      <trkpt lat="46.71165" lon="6.2367">
        <ele>1088.5</ele>
        <time>2014-08-15T15:28:49.935Z</time>
      </trkpt>
      <trkpt lat="46.71164" lon="6.23632">
        <ele>1084.8</ele>
        <time>2014-08-15T15:28:52.697Z</time>
      </trkpt>
      <trkpt lat="46.71121" lon="6.23443">
        <ele>1074.8</ele>
        <time>2014-08-15T15:29:05.368Z</time>
      </trkpt>
      <trkpt lat="46.71096" lon="6.23399">
        <ele>1068.6</ele>
        <time>2014-08-15T15:29:09.308Z</time>
      </trkpt>
      <trkpt lat="46.71086" lon="6.23361">
        <ele>1066.4</ele>
        <time>2014-08-15T15:29:12.246Z</time>
      </trkpt>
      <trkpt lat="46.71093" lon="6.23033">
        <ele>1047.1</ele>
        <time>2014-08-15T15:29:31.315Z</time>
      </trkpt>
      <trkpt lat="46.7108" lon="6.22948">
        <ele>1037.1</ele>
        <time>2014-08-15T15:29:35.893Z</time>
      </trkpt>
      <trkpt lat="46.71063" lon="6.22884">
        <ele>1031.3</ele>
        <time>2014-08-15T15:29:41.834Z</time>
      </trkpt>
      <trkpt lat="46.7107" lon="6.22871">
        <ele>1028</ele>
        <time>2014-08-15T15:29:45.070Z</time>
      </trkpt>
      <trkpt lat="46.71068" lon="6.22854">
        <ele>1024.3</ele>
        <time>2014-08-15T15:29:48.594Z</time>
      </trkpt>
      <trkpt lat="46.71026" lon="6.22691">
        <ele>1012.8</ele>
        <time>2014-08-15T15:30:11.622Z</time>
      </trkpt>
      <trkpt lat="46.70996" lon="6.22621">
        <ele>1014.1</ele>
        <time>2014-08-15T15:30:22.014Z</time>
      </trkpt>
      <trkpt lat="46.70985" lon="6.22605">
        <ele>1014.2</ele>
        <time>2014-08-15T15:30:25.028Z</time>
      </trkpt>
      <trkpt lat="46.70965" lon="6.22585">
        <ele>1014.7</ele>
        <time>2014-08-15T15:30:30.568Z</time>
      </trkpt>
      <trkpt lat="46.7096" lon="6.22572">
        <ele>1016.2</ele>
        <time>2014-08-15T15:30:33.578Z</time>
      </trkpt>
      <trkpt lat="46.70942" lon="6.22459">
        <ele>1017.8</ele>
        <time>2014-08-15T15:31:15.094Z</time>
      </trkpt>
      <trkpt lat="46.70929" lon="6.2242">
        <ele>1021.1</ele>
        <time>2014-08-15T15:31:32.012Z</time>
      </trkpt>
      <trkpt lat="46.70926" lon="6.22384">
        <ele>1021.3</ele>
        <time>2014-08-15T15:31:51.261Z</time>
      </trkpt>
      <trkpt lat="46.7093" lon="6.22367">
        <ele>1020.7</ele>
        <time>2014-08-15T15:31:53.831Z</time>
      </trkpt>
      <trkpt lat="46.7093" lon="6.22352">
        <ele>1020.3</ele>
        <time>2014-08-15T15:31:55.663Z</time>
      </trkpt>
      <trkpt lat="46.70928" lon="6.22334">
        <ele>1019.8</ele>
        <time>2014-08-15T15:31:57.886Z</time>
      </trkpt>
      <trkpt lat="46.7092" lon="6.22302">
        <ele>1018.9</ele>
        <time>2014-08-15T15:32:02.518Z</time>
      </trkpt>
      <trkpt lat="46.70916" lon="6.22273">
        <ele>1017.6</ele>
        <time>2014-08-15T15:32:07.454Z</time>
      </trkpt>
      <trkpt lat="46.70918" lon="6.22255">
        <ele>1017.5</ele>
        <time>2014-08-15T15:32:11.076Z</time>
      </trkpt>
      <trkpt lat="46.70915" lon="6.22209">
        <ele>1016.2</ele>
        <time>2014-08-15T15:32:17.812Z</time>
      </trkpt>
      <trkpt lat="46.70909" lon="6.22158">
        <ele>1012.7</ele>
        <time>2014-08-15T15:32:22.844Z</time>
      </trkpt>
      <trkpt lat="46.70813" lon="6.21875">
        <ele>1002.2</ele>
        <time>2014-08-15T15:33:15.759Z</time>
      </trkpt>
      <trkpt lat="46.7081" lon="6.21858">
        <ele>1002.5</ele>
        <time>2014-08-15T15:33:18.462Z</time>
      </trkpt>
      <trkpt lat="46.70806" lon="6.21842">
        <ele>1003.4</ele>
        <time>2014-08-15T15:33:20.948Z</time>
      </trkpt>
      <trkpt lat="46.70795" lon="6.21821">
        <ele>1004.6</ele>
        <time>2014-08-15T15:33:24.925Z</time>
      </trkpt>
      <trkpt lat="46.7079" lon="6.21809">
        <ele>1005.5</ele>
        <time>2014-08-15T15:33:26.691Z</time>
      </trkpt>
      <trkpt lat="46.70789" lon="6.21789">
        <ele>1005.2</ele>
        <time>2014-08-15T15:33:28.890Z</time>
      </trkpt>
      <trkpt lat="46.70793" lon="6.21772">
        <ele>1003.4</ele>
        <time>2014-08-15T15:33:30.761Z</time>
      </trkpt>
      <trkpt lat="46.70793" lon="6.21743">
        <ele>1000.8</ele>
        <time>2014-08-15T15:33:33.814Z</time>
      </trkpt>
      <trkpt lat="46.70785" lon="6.21721">
        <ele>998.5</ele>
        <time>2014-08-15T15:33:36.410Z</time>
      </trkpt>
      <trkpt lat="46.70756" lon="6.2157">
        <ele>989.8</ele>
        <time>2014-08-15T15:33:55.018Z</time>
      </trkpt>
      <trkpt lat="46.70719" lon="6.21251">
        <ele>975</ele>
        <time>2014-08-15T15:34:16.848Z</time>
      </trkpt>
      <trkpt lat="46.70707" lon="6.21191">
        <ele>972</ele>
        <time>2014-08-15T15:34:23.215Z</time>
      </trkpt>
      <trkpt lat="46.70706" lon="6.21172">
        <ele>969.9</ele>
        <time>2014-08-15T15:34:25.866Z</time>
      </trkpt>
      <trkpt lat="46.70719" lon="6.2116">
        <ele>967</ele>
        <time>2014-08-15T15:34:28.808Z</time>
      </trkpt>
      <trkpt lat="46.70729" lon="6.21158">
        <ele>964.6</ele>
        <time>2014-08-15T15:34:30.716Z</time>
      </trkpt>
      <trkpt lat="46.70741" lon="6.21156">
        <ele>963.1</ele>
        <time>2014-08-15T15:34:32.977Z</time>
      </trkpt>
      <trkpt lat="46.70763" lon="6.21148">
        <ele>962.4</ele>
        <time>2014-08-15T15:34:36.099Z</time>
      </trkpt>
      <trkpt lat="46.70789" lon="6.21133">
        <ele>962.3</ele>
        <time>2014-08-15T15:34:38.993Z</time>
      </trkpt>
      <trkpt lat="46.70814" lon="6.21113">
        <ele>961.9</ele>
        <time>2014-08-15T15:34:42.143Z</time>
      </trkpt>
      <trkpt lat="46.70831" lon="6.21094">
        <ele>960.3</ele>
        <time>2014-08-15T15:34:46.100Z</time>
      </trkpt>
      <trkpt lat="46.70836" lon="6.21082">
        <ele>956.8</ele>
        <time>2014-08-15T15:34:49.230Z</time>
      </trkpt>
      <trkpt lat="46.70829" lon="6.21072">
        <ele>952.8</ele>
        <time>2014-08-15T15:34:55.528Z</time>
      </trkpt>
      <trkpt lat="46.70831" lon="6.21086">
        <ele>950</ele>
        <time>2014-08-15T15:35:02.016Z</time>
      </trkpt>
      <trkpt lat="46.70844" lon="6.2107">
        <ele>947.7</ele>
        <time>2014-08-15T15:35:21.431Z</time>
      </trkpt>
      <trkpt lat="46.70852" lon="6.21061">
        <ele>947.4</ele>
        <time>2014-08-15T15:35:24.128Z</time>
      </trkpt>
      <trkpt lat="46.70869" lon="6.21019">
        <ele>948.2</ele>
        <time>2014-08-15T15:35:33.042Z</time>
      </trkpt>
      <trkpt lat="46.70876" lon="6.21007">
        <ele>950</ele>
        <time>2014-08-15T15:35:36.028Z</time>
      </trkpt>
      <trkpt lat="46.70913" lon="6.20873">
        <ele>952.7</ele>
        <time>2014-08-15T15:36:07.050Z</time>
      </trkpt>
      <trkpt lat="46.70919" lon="6.20845">
        <ele>954.3</ele>
        <time>2014-08-15T15:36:12.417Z</time>
      </trkpt>
      <trkpt lat="46.70969" lon="6.20712">
        <ele>954</ele>
        <time>2014-08-15T15:36:38.055Z</time>
      </trkpt>
      <trkpt lat="46.70974" lon="6.20674">
        <ele>953.2</ele>
        <time>2014-08-15T15:36:45.775Z</time>
      </trkpt>
      <trkpt lat="46.70974" lon="6.20623">
        <ele>954.7</ele>
        <time>2014-08-15T15:36:52.835Z</time>
      </trkpt>
      <trkpt lat="46.70968" lon="6.20505">
        <ele>952</ele>
        <time>2014-08-15T15:37:08.697Z</time>
      </trkpt>
      <trkpt lat="46.70975" lon="6.2042">
        <ele>950.8</ele>
        <time>2014-08-15T15:37:21.150Z</time>
      </trkpt>
      <trkpt lat="46.7098" lon="6.20397">
        <ele>951.3</ele>
        <time>2014-08-15T15:37:24.275Z</time>
      </trkpt>
      <trkpt lat="46.70985" lon="6.20382">
        <ele>951.8</ele>
        <time>2014-08-15T15:37:26.277Z</time>
      </trkpt>
      <trkpt lat="46.71024" lon="6.20301">
        <ele>951.4</ele>
        <time>2014-08-15T15:37:36.307Z</time>
      </trkpt>
      <trkpt lat="46.71039" lon="6.20278">
        <ele>950.8</ele>
        <time>2014-08-15T15:37:39.100Z</time>
      </trkpt>
      <trkpt lat="46.71067" lon="6.20245">
        <ele>948.5</ele>
        <time>2014-08-15T15:37:44.118Z</time>
      </trkpt>
      <trkpt lat="46.71091" lon="6.20222">
        <ele>948.5</ele>
        <time>2014-08-15T15:37:48.782Z</time>
      </trkpt>
      <trkpt lat="46.71101" lon="6.20209">
        <ele>949.6</ele>
        <time>2014-08-15T15:37:50.894Z</time>
      </trkpt>
      <trkpt lat="46.7112" lon="6.20173">
        <ele>949.1</ele>
        <time>2014-08-15T15:37:56.093Z</time>
      </trkpt>
      <trkpt lat="46.71149" lon="6.20097">
        <ele>950.4</ele>
        <time>2014-08-15T15:38:08.895Z</time>
      </trkpt>
      <trkpt lat="46.71152" lon="6.20081">
        <ele>952.5</ele>
        <time>2014-08-15T15:38:11.811Z</time>
      </trkpt>
      <trkpt lat="46.7115" lon="6.20044">
        <ele>952</ele>
        <time>2014-08-15T15:38:17.875Z</time>
      </trkpt>
      <trkpt lat="46.71143" lon="6.20009">
        <ele>949</ele>
        <time>2014-08-15T15:38:23.075Z</time>
      </trkpt>
      <trkpt lat="46.71136" lon="6.1999">
        <ele>948.2</ele>
        <time>2014-08-15T15:38:25.955Z</time>
      </trkpt>
      <trkpt lat="46.71099" lon="6.19923">
        <ele>946.5</ele>
        <time>2014-08-15T15:38:37.604Z</time>
      </trkpt>
      <trkpt lat="46.71003" lon="6.19718">
        <ele>945.8</ele>
        <time>2014-08-15T15:39:07.498Z</time>
      </trkpt>
      <trkpt lat="46.70996" lon="6.19688">
        <ele>946.7</ele>
        <time>2014-08-15T15:39:12.023Z</time>
      </trkpt>
      <trkpt lat="46.70995" lon="6.19617">
        <ele>943.1</ele>
        <time>2014-08-15T15:41:04.074Z</time>
      </trkpt>
      <trkpt lat="46.70992" lon="6.19605">
        <ele>943</ele>
        <time>2014-08-15T15:41:12.202Z</time>
      </trkpt>
      <trkpt lat="46.70996" lon="6.19577">
        <ele>942.9</ele>
        <time>2014-08-15T15:41:39.774Z</time>
      </trkpt>
      <trkpt lat="46.70999" lon="6.19563">
        <ele>942.4</ele>
        <time>2014-08-15T15:41:50.416Z</time>
      </trkpt>
      <trkpt lat="46.70999" lon="6.19547">
        <ele>941.9</ele>
        <time>2014-08-15T15:42:00.085Z</time>
      </trkpt>
      <trkpt lat="46.71013" lon="6.19526">
        <ele>940.9</ele>
        <time>2014-08-15T15:42:21.253Z</time>
      </trkpt>
      <trkpt lat="46.7102" lon="6.19517">
        <ele>940.3</ele>
        <time>2014-08-15T15:42:29.314Z</time>
      </trkpt>
      <trkpt lat="46.71029" lon="6.19509">
        <ele>940.1</ele>
        <time>2014-08-15T15:42:38.967Z</time>
      </trkpt>
      <trkpt lat="46.71065" lon="6.19463">
        <ele>942.2</ele>
        <time>2014-08-15T15:43:14.632Z</time>
      </trkpt>
      <trkpt lat="46.7107" lon="6.1945">
        <ele>944.2</ele>
        <time>2014-08-15T15:43:20.230Z</time>
      </trkpt>
      <trkpt lat="46.71074" lon="6.19438">
        <ele>945.3</ele>
        <time>2014-08-15T15:43:25.224Z</time>
      </trkpt>
      <trkpt lat="46.71057" lon="6.19304">
        <ele>937.9</ele>
        <time>2014-08-15T15:44:55.308Z</time>
      </trkpt>
      <trkpt lat="46.71054" lon="6.1929">
        <ele>937.3</ele>
        <time>2014-08-15T15:45:04.378Z</time>
      </trkpt>
      <trkpt lat="46.71055" lon="6.19275">
        <ele>937.7</ele>
        <time>2014-08-15T15:45:14.418Z</time>
      </trkpt>
      <trkpt lat="46.71047" lon="6.19286">
        <ele>939.7</ele>
        <time>2014-08-15T15:45:25.801Z</time>
      </trkpt>
      <trkpt lat="46.71049" lon="6.19301">
        <ele>942.2</ele>
        <time>2014-08-15T15:45:41.502Z</time>
      </trkpt>
      <trkpt lat="46.71047" lon="6.19286">
        <ele>943.7</ele>
        <time>2014-08-15T15:45:58.473Z</time>
      </trkpt>
      <trkpt lat="46.71044" lon="6.19273">
        <ele>944.1</ele>
        <time>2014-08-15T15:46:10.460Z</time>
      </trkpt>
      <trkpt lat="46.71036" lon="6.19262">
        <ele>943.8</ele>
        <time>2014-08-15T15:46:21.688Z</time>
      </trkpt>
      <trkpt lat="46.71033" lon="6.1925">
        <ele>943.6</ele>
        <time>2014-08-15T15:46:32.797Z</time>
      </trkpt>
      <trkpt lat="46.71026" lon="6.1924">
        <ele>943.5</ele>
        <time>2014-08-15T15:46:42.850Z</time>
      </trkpt>
      <trkpt lat="46.71001" lon="6.19219">
        <ele>943.5</ele>
        <time>2014-08-15T15:47:13.546Z</time>
      </trkpt>
      <trkpt lat="46.70975" lon="6.1918">
        <ele>950.7</ele>
        <time>2014-08-15T15:47:56.189Z</time>
      </trkpt>
      <trkpt lat="46.70966" lon="6.19175">
        <ele>952.5</ele>
        <time>2014-08-15T15:48:07.747Z</time>
      </trkpt>
      <trkpt lat="46.70956" lon="6.19172">
        <ele>952.9</ele>
        <time>2014-08-15T15:48:22.897Z</time>
      </trkpt>
      <trkpt lat="46.70948" lon="6.19164">
        <ele>951.3</ele>
        <time>2014-08-15T15:48:34.683Z</time>
      </trkpt>
      <trkpt lat="46.70941" lon="6.19156">
        <ele>948.1</ele>
        <time>2014-08-15T15:48:45.254Z</time>
      </trkpt>
      <trkpt lat="46.70933" lon="6.19148">
        <ele>945</ele>
        <time>2014-08-15T15:48:55.044Z</time>
      </trkpt>
      <trkpt lat="46.70925" lon="6.19142">
        <ele>942.9</ele>
        <time>2014-08-15T15:49:07.047Z</time>
      </trkpt>
      <trkpt lat="46.70916" lon="6.19133">
        <ele>942.3</ele>
        <time>2014-08-15T15:49:20.398Z</time>
      </trkpt>
      <trkpt lat="46.70908" lon="6.19128">
        <ele>942.6</ele>
        <time>2014-08-15T15:49:31.514Z</time>
      </trkpt>
      <trkpt lat="46.70891" lon="6.19111">
        <ele>944</ele>
        <time>2014-08-15T15:50:10.530Z</time>
      </trkpt>
      <trkpt lat="46.70882" lon="6.19107">
        <ele>945.5</ele>
        <time>2014-08-15T15:50:32.269Z</time>
      </trkpt>
      <trkpt lat="46.70877" lon="6.19095">
        <ele>946.5</ele>
        <time>2014-08-15T15:51:10.734Z</time>
      </trkpt>
      <trkpt lat="46.70869" lon="6.19088">
        <ele>946.5</ele>
        <time>2014-08-15T15:51:52.852Z</time>
      </trkpt>
      <trkpt lat="46.70854" lon="6.1907">
        <ele>944.2</ele>
        <time>2014-08-15T15:53:20.740Z</time>
      </trkpt>
      <trkpt lat="46.70846" lon="6.19062">
        <ele>943.4</ele>
        <time>2014-08-15T15:54:02.331Z</time>
      </trkpt>
      <trkpt lat="46.70837" lon="6.19059">
        <ele>942.9</ele>
        <time>2014-08-15T15:54:45.638Z</time>
      </trkpt>
      <trkpt lat="46.70799" lon="6.19018">
        <ele>943.8</ele>
        <time>2014-08-15T15:58:25.970Z</time>
      </trkpt>
      <trkpt lat="46.70794" lon="6.19006">
        <ele>943</ele>
        <time>2014-08-15T15:59:12.230Z</time>
      </trkpt>
      <trkpt lat="46.70777" lon="6.18994">
        <ele>942.9</ele>
        <time>2014-08-15T16:00:39.434Z</time>
      </trkpt>
      <trkpt lat="46.70768" lon="6.18992">
        <ele>945.7</ele>
        <time>2014-08-15T16:01:21.717Z</time>
      </trkpt>
      <trkpt lat="46.70777" lon="6.18997">
        <ele>947.9</ele>
        <time>2014-08-15T16:02:04.460Z</time>
      </trkpt>
      <trkpt lat="46.70785" lon="6.19011">
        <ele>947.4</ele>
        <time>2014-08-15T16:03:05.373Z</time>
      </trkpt>
      <trkpt lat="46.70778" lon="6.19002">
        <ele>945.4</ele>
        <time>2014-08-15T16:03:51.047Z</time>
      </trkpt>
      <trkpt lat="46.7077" lon="6.18981">
        <ele>990.2</ele>
        <time>2014-08-16T07:46:19.212Z</time>
      </trkpt>
      <trkpt lat="46.70745" lon="6.18965">
        <ele>989</ele>
        <time>2014-08-16T07:47:32.387Z</time>
      </trkpt>
      <trkpt lat="46.70736" lon="6.18961">
        <ele>983.1</ele>
        <time>2014-08-16T07:47:37.449Z</time>
      </trkpt>
      <trkpt lat="46.70728" lon="6.18955">
        <ele>967.8</ele>
        <time>2014-08-16T07:47:41.476Z</time>
      </trkpt>
      <trkpt lat="46.70704" lon="6.18946">
        <ele>942.2</ele>
        <time>2014-08-16T07:47:49.781Z</time>
      </trkpt>
      <trkpt lat="46.70683" lon="6.18935">
        <ele>938.6</ele>
        <time>2014-08-16T07:47:55.862Z</time>
      </trkpt>
      <trkpt lat="46.70672" lon="6.18931">
        <ele>940.4</ele>
        <time>2014-08-16T07:47:58.467Z</time>
      </trkpt>
      <trkpt lat="46.70652" lon="6.18919">
        <ele>942.1</ele>
        <time>2014-08-16T07:48:03.552Z</time>
      </trkpt>
      <trkpt lat="46.70631" lon="6.18908">
        <ele>939.7</ele>
        <time>2014-08-16T07:48:08.233Z</time>
      </trkpt>
      <trkpt lat="46.7059" lon="6.18892">
        <ele>938.9</ele>
        <time>2014-08-16T07:48:20.236Z</time>
      </trkpt>
      <trkpt lat="46.70543" lon="6.18862">
        <ele>939.7</ele>
        <time>2014-08-16T07:48:39.292Z</time>
      </trkpt>
      <trkpt lat="46.70516" lon="6.18841">
        <ele>938.4</ele>
        <time>2014-08-16T07:48:48.406Z</time>
      </trkpt>
      <trkpt lat="46.70506" lon="6.18841">
        <ele>938.7</ele>
        <time>2014-08-16T07:48:51.463Z</time>
      </trkpt>
      <trkpt lat="46.70498" lon="6.18848">
        <ele>939.6</ele>
        <time>2014-08-16T07:48:53.900Z</time>
      </trkpt>
      <trkpt lat="46.7049" lon="6.18857">
        <ele>940.2</ele>
        <time>2014-08-16T07:48:56.358Z</time>
      </trkpt>
      <trkpt lat="46.7048" lon="6.18867">
        <ele>940.5</ele>
        <time>2014-08-16T07:48:59.564Z</time>
      </trkpt>
      <trkpt lat="46.70464" lon="6.18892">
        <ele>940.4</ele>
        <time>2014-08-16T07:49:05.569Z</time>
      </trkpt>
      <trkpt lat="46.70355" lon="6.19047">
        <ele>939.5</ele>
        <time>2014-08-16T07:49:43.960Z</time>
      </trkpt>
      <trkpt lat="46.7013" lon="6.19386">
        <ele>936.1</ele>
        <time>2014-08-16T07:51:01.754Z</time>
      </trkpt>
      <trkpt lat="46.70123" lon="6.19393">
        <ele>936.9</ele>
        <time>2014-08-16T07:51:05.240Z</time>
      </trkpt>
      <trkpt lat="46.70105" lon="6.19389">
        <ele>937.2</ele>
        <time>2014-08-16T07:53:29.931Z</time>
      </trkpt>
      <trkpt lat="46.70098" lon="6.1938">
        <ele>937.7</ele>
        <time>2014-08-16T07:53:34.250Z</time>
      </trkpt>
      <trkpt lat="46.70086" lon="6.19357">
        <ele>942.2</ele>
        <time>2014-08-16T07:53:40.402Z</time>
      </trkpt>
      <trkpt lat="46.7008" lon="6.19345">
        <ele>942.8</ele>
        <time>2014-08-16T07:53:42.959Z</time>
      </trkpt>
      <trkpt lat="46.70066" lon="6.19279">
        <ele>937.3</ele>
        <time>2014-08-16T07:53:53.226Z</time>
      </trkpt>
      <trkpt lat="46.70059" lon="6.1926">
        <ele>936.9</ele>
        <time>2014-08-16T07:53:59.527Z</time>
      </trkpt>
      <trkpt lat="46.70055" lon="6.19243">
        <ele>936.5</ele>
        <time>2014-08-16T07:54:02.831Z</time>
      </trkpt>
      <trkpt lat="46.7003" lon="6.19166">
        <ele>939.4</ele>
        <time>2014-08-16T07:54:18.841Z</time>
      </trkpt>
      <trkpt lat="46.69931" lon="6.18944">
        <ele>940.4</ele>
        <time>2014-08-16T07:55:03.654Z</time>
      </trkpt>
      <trkpt lat="46.69914" lon="6.18925">
        <ele>941.4</ele>
        <time>2014-08-16T07:55:09.536Z</time>
      </trkpt>
      <trkpt lat="46.69906" lon="6.18919">
        <ele>942.5</ele>
        <time>2014-08-16T07:55:12.215Z</time>
      </trkpt>
      <trkpt lat="46.69897" lon="6.18911">
        <ele>942.6</ele>
        <time>2014-08-16T07:55:15.381Z</time>
      </trkpt>
      <trkpt lat="46.69872" lon="6.18883">
        <ele>940.5</ele>
        <time>2014-08-16T07:55:24.926Z</time>
      </trkpt>
      <trkpt lat="46.69862" lon="6.18874">
        <ele>938.9</ele>
        <time>2014-08-16T07:55:28.434Z</time>
      </trkpt>
      <trkpt lat="46.69833" lon="6.18851">
        <ele>936.6</ele>
        <time>2014-08-16T07:55:38.562Z</time>
      </trkpt>
      <trkpt lat="46.69803" lon="6.18811">
        <ele>932.8</ele>
        <time>2014-08-16T07:55:50.725Z</time>
      </trkpt>
      <trkpt lat="46.69794" lon="6.18802">
        <ele>930.9</ele>
        <time>2014-08-16T07:55:53.946Z</time>
      </trkpt>
      <trkpt lat="46.69774" lon="6.18786">
        <ele>931.9</ele>
        <time>2014-08-16T07:56:00.543Z</time>
      </trkpt>
      <trkpt lat="46.69747" lon="6.18752">
        <ele>931.8</ele>
        <time>2014-08-16T07:56:09.752Z</time>
      </trkpt>
      <trkpt lat="46.6973" lon="6.18724">
        <ele>936.8</ele>
        <time>2014-08-16T07:56:15.746Z</time>
      </trkpt>
      <trkpt lat="46.69723" lon="6.18709">
        <ele>939.3</ele>
        <time>2014-08-16T07:56:18.743Z</time>
      </trkpt>
      <trkpt lat="46.69715" lon="6.18697">
        <ele>940.5</ele>
        <time>2014-08-16T07:56:21.375Z</time>
      </trkpt>
      <trkpt lat="46.69689" lon="6.18668">
        <ele>938.6</ele>
        <time>2014-08-16T07:56:30.047Z</time>
      </trkpt>
      <trkpt lat="46.69681" lon="6.18656">
        <ele>937.6</ele>
        <time>2014-08-16T07:56:33.513Z</time>
      </trkpt>
      <trkpt lat="46.69647" lon="6.1862">
        <ele>936.8</ele>
        <time>2014-08-16T07:56:46.242Z</time>
      </trkpt>
      <trkpt lat="46.69598" lon="6.18593">
        <ele>944.9</ele>
        <time>2014-08-16T07:57:12.337Z</time>
      </trkpt>
      <trkpt lat="46.6959" lon="6.18586">
        <ele>947.2</ele>
        <time>2014-08-16T07:57:15.447Z</time>
      </trkpt>
      <trkpt lat="46.69579" lon="6.18582">
        <ele>948.1</ele>
        <time>2014-08-16T07:57:19.002Z</time>
      </trkpt>
      <trkpt lat="46.69568" lon="6.18576">
        <ele>948.3</ele>
        <time>2014-08-16T07:57:23.091Z</time>
      </trkpt>
      <trkpt lat="46.69538" lon="6.18567">
        <ele>945.7</ele>
        <time>2014-08-16T07:57:37.915Z</time>
      </trkpt>
      <trkpt lat="46.69518" lon="6.18552">
        <ele>943.6</ele>
        <time>2014-08-16T07:57:48.586Z</time>
      </trkpt>
      <trkpt lat="46.69508" lon="6.18548">
        <ele>943.2</ele>
        <time>2014-08-16T07:57:53.161Z</time>
      </trkpt>
      <trkpt lat="46.69497" lon="6.18541">
        <ele>942.6</ele>
        <time>2014-08-16T07:57:57.736Z</time>
      </trkpt>
      <trkpt lat="46.69489" lon="6.18533">
        <ele>941.3</ele>
        <time>2014-08-16T07:58:01.281Z</time>
      </trkpt>
      <trkpt lat="46.69481" lon="6.18523">
        <ele>940.1</ele>
        <time>2014-08-16T07:58:04.801Z</time>
      </trkpt>
      <trkpt lat="46.69475" lon="6.18511">
        <ele>939.5</ele>
        <time>2014-08-16T07:58:08.226Z</time>
      </trkpt>
      <trkpt lat="46.69473" lon="6.18495">
        <ele>939.5</ele>
        <time>2014-08-16T07:58:12.063Z</time>
      </trkpt>
      <trkpt lat="46.69473" lon="6.18481">
        <ele>940</ele>
        <time>2014-08-16T07:58:16.080Z</time>
      </trkpt>
      <trkpt lat="46.69478" lon="6.18468">
        <ele>941</ele>
        <time>2014-08-16T07:58:20.185Z</time>
      </trkpt>
      <trkpt lat="46.69486" lon="6.18458">
        <ele>941.8</ele>
        <time>2014-08-16T07:58:24.591Z</time>
      </trkpt>
      <trkpt lat="46.69492" lon="6.18447">
        <ele>942.4</ele>
        <time>2014-08-16T07:58:28.706Z</time>
      </trkpt>
      <trkpt lat="46.695" lon="6.1844">
        <ele>943.3</ele>
        <time>2014-08-16T07:58:32.800Z</time>
      </trkpt>
      <trkpt lat="46.69506" lon="6.1843">
        <ele>945.4</ele>
        <time>2014-08-16T07:58:37.302Z</time>
      </trkpt>
      <trkpt lat="46.69514" lon="6.18421">
        <ele>948.2</ele>
        <time>2014-08-16T07:58:43.416Z</time>
      </trkpt>
      <trkpt lat="46.69525" lon="6.18416">
        <ele>950.4</ele>
        <time>2014-08-16T07:58:50.623Z</time>
      </trkpt>
      <trkpt lat="46.69549" lon="6.18391">
        <ele>945.2</ele>
        <time>2014-08-16T07:59:06.220Z</time>
      </trkpt>
      <trkpt lat="46.69566" lon="6.1836">
        <ele>940.5</ele>
        <time>2014-08-16T07:59:29.673Z</time>
      </trkpt>
      <trkpt lat="46.69552" lon="6.1832">
        <ele>944.4</ele>
        <time>2014-08-16T07:59:40.183Z</time>
      </trkpt>
      <trkpt lat="46.69545" lon="6.18309">
        <ele>944.5</ele>
        <time>2014-08-16T07:59:43.672Z</time>
      </trkpt>
      <trkpt lat="46.69539" lon="6.18297">
        <ele>944</ele>
        <time>2014-08-16T07:59:47.222Z</time>
      </trkpt>
      <trkpt lat="46.69533" lon="6.18262">
        <ele>943.1</ele>
        <time>2014-08-16T08:00:12.419Z</time>
      </trkpt>
      <trkpt lat="46.69534" lon="6.18243">
        <ele>943.2</ele>
        <time>2014-08-16T08:00:20.597Z</time>
      </trkpt>
      <trkpt lat="46.69544" lon="6.18239">
        <ele>950.1</ele>
        <time>2014-08-16T08:00:29.217Z</time>
      </trkpt>
      <trkpt lat="46.69524" lon="6.18235">
        <ele>977.9</ele>
        <time>2014-08-16T08:01:16.222Z</time>
      </trkpt>
      <trkpt lat="46.69523" lon="6.18209">
        <ele>961.4</ele>
        <time>2014-08-16T08:01:48.913Z</time>
      </trkpt>
      <trkpt lat="46.69525" lon="6.18194">
        <ele>960.6</ele>
        <time>2014-08-16T08:01:56.036Z</time>
      </trkpt>
      <trkpt lat="46.69531" lon="6.18183">
        <ele>953.9</ele>
        <time>2014-08-16T08:02:02.679Z</time>
      </trkpt>
      <trkpt lat="46.69532" lon="6.18169">
        <ele>945.6</ele>
        <time>2014-08-16T08:02:10.543Z</time>
      </trkpt>
      <trkpt lat="46.69514" lon="6.18132">
        <ele>944</ele>
        <time>2014-08-16T08:02:28.876Z</time>
      </trkpt>
      <trkpt lat="46.69507" lon="6.18122">
        <ele>944.6</ele>
        <time>2014-08-16T08:02:33.088Z</time>
      </trkpt>
      <trkpt lat="46.69499" lon="6.18116">
        <ele>943.8</ele>
        <time>2014-08-16T08:02:37.740Z</time>
      </trkpt>
      <trkpt lat="46.69482" lon="6.18095">
        <ele>940</ele>
        <time>2014-08-16T08:03:00.174Z</time>
      </trkpt>
      <trkpt lat="46.69473" lon="6.18091">
        <ele>939.9</ele>
        <time>2014-08-16T08:03:04.767Z</time>
      </trkpt>
      <trkpt lat="46.69464" lon="6.18084">
        <ele>940.4</ele>
        <time>2014-08-16T08:03:09.363Z</time>
      </trkpt>
      <trkpt lat="46.69454" lon="6.18088">
        <ele>941.7</ele>
        <time>2014-08-16T08:03:13.643Z</time>
      </trkpt>
      <trkpt lat="46.69417" lon="6.18066">
        <ele>943.6</ele>
        <time>2014-08-16T08:03:46.465Z</time>
      </trkpt>
      <trkpt lat="46.69409" lon="6.18061">
        <ele>944.1</ele>
        <time>2014-08-16T08:03:52.497Z</time>
      </trkpt>
      <trkpt lat="46.69378" lon="6.1803">
        <ele>950.8</ele>
        <time>2014-08-16T08:08:10.378Z</time>
      </trkpt>
      <trkpt lat="46.69371" lon="6.18019">
        <ele>953.8</ele>
        <time>2014-08-16T08:08:15.897Z</time>
      </trkpt>
      <trkpt lat="46.69352" lon="6.18002">
        <ele>977.5</ele>
        <time>2014-08-16T08:08:25.229Z</time>
      </trkpt>
      <trkpt lat="46.693" lon="6.17928">
        <ele>976.7</ele>
        <time>2014-08-16T08:08:42.230Z</time>
      </trkpt>
      <trkpt lat="46.69264" lon="6.17892">
        <ele>978.6</ele>
        <time>2014-08-16T08:09:05.312Z</time>
      </trkpt>
      <trkpt lat="46.69261" lon="6.17875">
        <ele>980.9</ele>
        <time>2014-08-16T08:09:09.971Z</time>
      </trkpt>
      <trkpt lat="46.69262" lon="6.17861">
        <ele>981.6</ele>
        <time>2014-08-16T08:09:13.022Z</time>
      </trkpt>
      <trkpt lat="46.69269" lon="6.17829">
        <ele>978.7</ele>
        <time>2014-08-16T08:09:19.237Z</time>
      </trkpt>
      <trkpt lat="46.69278" lon="6.17825">
        <ele>977.9</ele>
        <time>2014-08-16T08:09:21.954Z</time>
      </trkpt>
      <trkpt lat="46.69287" lon="6.17823">
        <ele>979.6</ele>
        <time>2014-08-16T08:09:24.589Z</time>
      </trkpt>
      <trkpt lat="46.693" lon="6.17819">
        <ele>982.8</ele>
        <time>2014-08-16T08:09:28.212Z</time>
      </trkpt>
      <trkpt lat="46.6931" lon="6.1781">
        <ele>985.7</ele>
        <time>2014-08-16T08:09:31.456Z</time>
      </trkpt>
      <trkpt lat="46.69317" lon="6.178">
        <ele>986.9</ele>
        <time>2014-08-16T08:09:34.138Z</time>
      </trkpt>
      <trkpt lat="46.69321" lon="6.17783">
        <ele>986.8</ele>
        <time>2014-08-16T08:09:37.239Z</time>
      </trkpt>
      <trkpt lat="46.6931" lon="6.17732">
        <ele>985.9</ele>
        <time>2014-08-16T08:09:51.250Z</time>
      </trkpt>
      <trkpt lat="46.69312" lon="6.17717">
        <ele>986</ele>
        <time>2014-08-16T08:09:54.882Z</time>
      </trkpt>
      <trkpt lat="46.69319" lon="6.17708">
        <ele>985.7</ele>
        <time>2014-08-16T08:09:58.326Z</time>
      </trkpt>
      <trkpt lat="46.69328" lon="6.17703">
        <ele>985.5</ele>
        <time>2014-08-16T08:10:01.974Z</time>
      </trkpt>
      <trkpt lat="46.69338" lon="6.17703">
        <ele>986.2</ele>
        <time>2014-08-16T08:10:05.224Z</time>
      </trkpt>
      <trkpt lat="46.69361" lon="6.17708">
        <ele>994</ele>
        <time>2014-08-16T08:10:12.737Z</time>
      </trkpt>
      <trkpt lat="46.69372" lon="6.17712">
        <ele>1000.2</ele>
        <time>2014-08-16T08:10:16.451Z</time>
      </trkpt>
      <trkpt lat="46.69383" lon="6.17711">
        <ele>1005.3</ele>
        <time>2014-08-16T08:10:20.069Z</time>
      </trkpt>
      <trkpt lat="46.69404" lon="6.17706">
        <ele>1005.4</ele>
        <time>2014-08-16T08:10:27.704Z</time>
      </trkpt>
      <trkpt lat="46.69413" lon="6.17707">
        <ele>1003.5</ele>
        <time>2014-08-16T08:10:31.423Z</time>
      </trkpt>
      <trkpt lat="46.69423" lon="6.17712">
        <ele>1003.1</ele>
        <time>2014-08-16T08:10:35.944Z</time>
      </trkpt>
      <trkpt lat="46.69432" lon="6.17718">
        <ele>1002.3</ele>
        <time>2014-08-16T08:10:40.539Z</time>
      </trkpt>
      <trkpt lat="46.69441" lon="6.1772">
        <ele>998.8</ele>
        <time>2014-08-16T08:10:44.409Z</time>
      </trkpt>
      <trkpt lat="46.69451" lon="6.17721">
        <ele>994.2</ele>
        <time>2014-08-16T08:10:47.859Z</time>
      </trkpt>
      <trkpt lat="46.69462" lon="6.17716">
        <ele>990.9</ele>
        <time>2014-08-16T08:10:51.638Z</time>
      </trkpt>
      <trkpt lat="46.69471" lon="6.1771">
        <ele>989.7</ele>
        <time>2014-08-16T08:10:54.336Z</time>
      </trkpt>
      <trkpt lat="46.69478" lon="6.17698">
        <ele>989.8</ele>
        <time>2014-08-16T08:10:57.401Z</time>
      </trkpt>
      <trkpt lat="46.69483" lon="6.17684">
        <ele>989.9</ele>
        <time>2014-08-16T08:11:00.322Z</time>
      </trkpt>
      <trkpt lat="46.69486" lon="6.17667">
        <ele>988.7</ele>
        <time>2014-08-16T08:11:03.327Z</time>
      </trkpt>
      <trkpt lat="46.69487" lon="6.17652">
        <ele>986.2</ele>
        <time>2014-08-16T08:11:05.881Z</time>
      </trkpt>
      <trkpt lat="46.69482" lon="6.17595">
        <ele>984.7</ele>
        <time>2014-08-16T08:11:16.060Z</time>
      </trkpt>
      <trkpt lat="46.69463" lon="6.17552">
        <ele>984.4</ele>
        <time>2014-08-16T08:11:24.507Z</time>
      </trkpt>
      <trkpt lat="46.69421" lon="6.1743">
        <ele>980.7</ele>
        <time>2014-08-16T08:11:44.646Z</time>
      </trkpt>
      <trkpt lat="46.69414" lon="6.17418">
        <ele>980.8</ele>
        <time>2014-08-16T08:11:47.955Z</time>
      </trkpt>
      <trkpt lat="46.69406" lon="6.17407">
        <ele>982.1</ele>
        <time>2014-08-16T08:11:51.784Z</time>
      </trkpt>
      <trkpt lat="46.69389" lon="6.17397">
        <ele>990.9</ele>
        <time>2014-08-16T08:12:01.786Z</time>
      </trkpt>
      <trkpt lat="46.69372" lon="6.17382">
        <ele>1003</ele>
        <time>2014-08-16T08:12:14.867Z</time>
      </trkpt>
      <trkpt lat="46.69363" lon="6.17379">
        <ele>1000.4</ele>
        <time>2014-08-16T08:12:21.331Z</time>
      </trkpt>
      <trkpt lat="46.69354" lon="6.17374">
        <ele>997.7</ele>
        <time>2014-08-16T08:12:29.881Z</time>
      </trkpt>
      <trkpt lat="46.69345" lon="6.17375">
        <ele>995.5</ele>
        <time>2014-08-16T08:12:40.372Z</time>
      </trkpt>
      <trkpt lat="46.69336" lon="6.1737">
        <ele>996.3</ele>
        <time>2014-08-16T08:12:51.641Z</time>
      </trkpt>
      <trkpt lat="46.69329" lon="6.17362">
        <ele>998.3</ele>
        <time>2014-08-16T08:13:01.257Z</time>
      </trkpt>
      <trkpt lat="46.69323" lon="6.17349">
        <ele>1000</ele>
        <time>2014-08-16T08:13:08.986Z</time>
      </trkpt>
      <trkpt lat="46.69321" lon="6.17336">
        <ele>1000.7</ele>
        <time>2014-08-16T08:13:16.606Z</time>
      </trkpt>
      <trkpt lat="46.69316" lon="6.17325">
        <ele>1000.5</ele>
        <time>2014-08-16T08:13:25.245Z</time>
      </trkpt>
      <trkpt lat="46.69309" lon="6.17316">
        <ele>1001.1</ele>
        <time>2014-08-16T08:13:36.782Z</time>
      </trkpt>
      <trkpt lat="46.69303" lon="6.17305">
        <ele>1003.4</ele>
        <time>2014-08-16T08:13:46.223Z</time>
      </trkpt>
      <trkpt lat="46.69285" lon="6.17287">
        <ele>1006.7</ele>
        <time>2014-08-16T08:14:16.434Z</time>
      </trkpt>
      <trkpt lat="46.69249" lon="6.17239">
        <ele>1019.2</ele>
        <time>2014-08-16T08:14:33.161Z</time>
      </trkpt>
      <trkpt lat="46.69242" lon="6.17231">
        <ele>1020.3</ele>
        <time>2014-08-16T08:14:36.225Z</time>
      </trkpt>
      <trkpt lat="46.69127" lon="6.17036">
        <ele>1017.1</ele>
        <time>2014-08-16T08:15:19.681Z</time>
      </trkpt>
      <trkpt lat="46.69119" lon="6.17025">
        <ele>1017.7</ele>
        <time>2014-08-16T08:15:22.003Z</time>
      </trkpt>
      <trkpt lat="46.691" lon="6.16997">
        <ele>1018.4</ele>
        <time>2014-08-16T08:15:28.247Z</time>
      </trkpt>
      <trkpt lat="46.69092" lon="6.16988">
        <ele>1017.6</ele>
        <time>2014-08-16T08:15:31.354Z</time>
      </trkpt>
      <trkpt lat="46.69085" lon="6.16976">
        <ele>1016.6</ele>
        <time>2014-08-16T08:15:35.347Z</time>
      </trkpt>
      <trkpt lat="46.69068" lon="6.16956">
        <ele>1016.7</ele>
        <time>2014-08-16T08:15:44.263Z</time>
      </trkpt>
      <trkpt lat="46.69062" lon="6.16945">
        <ele>1017.5</ele>
        <time>2014-08-16T08:15:48.684Z</time>
      </trkpt>
      <trkpt lat="46.69055" lon="6.16936">
        <ele>1017.6</ele>
        <time>2014-08-16T08:15:53.116Z</time>
      </trkpt>
      <trkpt lat="46.69043" lon="6.16914">
        <ele>1017.6</ele>
        <time>2014-08-16T08:16:04.735Z</time>
      </trkpt>
      <trkpt lat="46.69035" lon="6.16905">
        <ele>1019.8</ele>
        <time>2014-08-16T08:16:12.399Z</time>
      </trkpt>
      <trkpt lat="46.69028" lon="6.16895">
        <ele>1023</ele>
        <time>2014-08-16T08:16:17.630Z</time>
      </trkpt>
      <trkpt lat="46.69019" lon="6.16888">
        <ele>1026.5</ele>
        <time>2014-08-16T08:16:22.118Z</time>
      </trkpt>
      <trkpt lat="46.68971" lon="6.16791">
        <ele>1028.8</ele>
        <time>2014-08-16T08:17:02.239Z</time>
      </trkpt>
      <trkpt lat="46.68949" lon="6.16727">
        <ele>1025.4</ele>
        <time>2014-08-16T08:17:23.304Z</time>
      </trkpt>
      <trkpt lat="46.68942" lon="6.16701">
        <ele>1025.6</ele>
        <time>2014-08-16T08:17:30.061Z</time>
      </trkpt>
      <trkpt lat="46.68939" lon="6.16686">
        <ele>1026.1</ele>
        <time>2014-08-16T08:17:34.506Z</time>
      </trkpt>
      <trkpt lat="46.68929" lon="6.16661">
        <ele>1021.9</ele>
        <time>2014-08-16T08:17:44.294Z</time>
      </trkpt>
      <trkpt lat="46.68906" lon="6.16572">
        <ele>1016.3</ele>
        <time>2014-08-16T08:18:07.032Z</time>
      </trkpt>
      <trkpt lat="46.68899" lon="6.16563">
        <ele>1014.3</ele>
        <time>2014-08-16T08:18:10.212Z</time>
      </trkpt>
      <trkpt lat="46.689" lon="6.16539">
        <ele>1013</ele>
        <time>2014-08-16T08:19:21.059Z</time>
      </trkpt>
      <trkpt lat="46.68894" lon="6.16526">
        <ele>1013.1</ele>
        <time>2014-08-16T08:19:26.182Z</time>
      </trkpt>
      <trkpt lat="46.68885" lon="6.16518">
        <ele>1013.4</ele>
        <time>2014-08-16T08:19:29.827Z</time>
      </trkpt>
      <trkpt lat="46.68843" lon="6.16378">
        <ele>1009</ele>
        <time>2014-08-16T08:20:13.917Z</time>
      </trkpt>
      <trkpt lat="46.68838" lon="6.16367">
        <ele>1008.8</ele>
        <time>2014-08-16T08:20:18.239Z</time>
      </trkpt>
      <trkpt lat="46.68831" lon="6.16357">
        <ele>1010.9</ele>
        <time>2014-08-16T08:20:22.042Z</time>
      </trkpt>
      <trkpt lat="46.68827" lon="6.16342">
        <ele>1015.3</ele>
        <time>2014-08-16T08:20:25.432Z</time>
      </trkpt>
      <trkpt lat="46.68825" lon="6.16327">
        <ele>1018.6</ele>
        <time>2014-08-16T08:20:28.260Z</time>
      </trkpt>
      <trkpt lat="46.68805" lon="6.16276">
        <ele>1009.8</ele>
        <time>2014-08-16T08:20:39.895Z</time>
      </trkpt>
      <trkpt lat="46.68781" lon="6.16205">
        <ele>997.2</ele>
        <time>2014-08-16T08:21:01.466Z</time>
      </trkpt>
      <trkpt lat="46.68776" lon="6.16194">
        <ele>996.8</ele>
        <time>2014-08-16T08:21:05.343Z</time>
      </trkpt>
      <trkpt lat="46.68767" lon="6.16181">
        <ele>998.8</ele>
        <time>2014-08-16T08:21:09.335Z</time>
      </trkpt>
      <trkpt lat="46.68757" lon="6.16149">
        <ele>1006.5</ele>
        <time>2014-08-16T08:21:14.396Z</time>
      </trkpt>
      <trkpt lat="46.68751" lon="6.16116">
        <ele>1011.9</ele>
        <time>2014-08-16T08:21:18.667Z</time>
      </trkpt>
      <trkpt lat="46.68752" lon="6.16017">
        <ele>1004.4</ele>
        <time>2014-08-16T08:21:43.031Z</time>
      </trkpt>
      <trkpt lat="46.68742" lon="6.15953">
        <ele>994.5</ele>
        <time>2014-08-16T08:21:58.700Z</time>
      </trkpt>
      <trkpt lat="46.68737" lon="6.15939">
        <ele>990.7</ele>
        <time>2014-08-16T08:22:03.621Z</time>
      </trkpt>
      <trkpt lat="46.68732" lon="6.15907">
        <ele>981.1</ele>
        <time>2014-08-16T08:22:16.440Z</time>
      </trkpt>
      <trkpt lat="46.68723" lon="6.15879">
        <ele>975.4</ele>
        <time>2014-08-16T08:22:25.895Z</time>
      </trkpt>
      <trkpt lat="46.6872" lon="6.15839">
        <ele>973.4</ele>
        <time>2014-08-16T08:22:36.030Z</time>
      </trkpt>
      <trkpt lat="46.68727" lon="6.15828">
        <ele>973.7</ele>
        <time>2014-08-16T08:22:39.858Z</time>
      </trkpt>
      <trkpt lat="46.68735" lon="6.15821">
        <ele>974.3</ele>
        <time>2014-08-16T08:22:43.649Z</time>
      </trkpt>
      <trkpt lat="46.68743" lon="6.15809">
        <ele>975</ele>
        <time>2014-08-16T08:22:47.880Z</time>
      </trkpt>
      <trkpt lat="46.68752" lon="6.15786">
        <ele>975.7</ele>
        <time>2014-08-16T08:22:57.990Z</time>
      </trkpt>
      <trkpt lat="46.68756" lon="6.15771">
        <ele>975.4</ele>
        <time>2014-08-16T08:23:08.277Z</time>
      </trkpt>
      <trkpt lat="46.68757" lon="6.15755">
        <ele>975</ele>
        <time>2014-08-16T08:23:18.761Z</time>
      </trkpt>
      <trkpt lat="46.68752" lon="6.1574">
        <ele>974.9</ele>
        <time>2014-08-16T08:23:29.544Z</time>
      </trkpt>
      <trkpt lat="46.68736" lon="6.15721">
        <ele>975.5</ele>
        <time>2014-08-16T08:23:49.663Z</time>
      </trkpt>
      <trkpt lat="46.68732" lon="6.15708">
        <ele>975.7</ele>
        <time>2014-08-16T08:23:58.631Z</time>
      </trkpt>
      <trkpt lat="46.68741" lon="6.157">
        <ele>976.2</ele>
        <time>2014-08-16T08:24:08.541Z</time>
      </trkpt>
      <trkpt lat="46.68739" lon="6.15687">
        <ele>977.2</ele>
        <time>2014-08-16T08:24:17.217Z</time>
      </trkpt>
      <trkpt lat="46.68744" lon="6.15702">
        <ele>977.5</ele>
        <time>2014-08-16T08:24:55.790Z</time>
      </trkpt>
      <trkpt lat="46.68751" lon="6.15713">
        <ele>977.5</ele>
        <time>2014-08-16T08:25:00.216Z</time>
      </trkpt>
      <trkpt lat="46.68793" lon="6.15797">
        <ele>982.3</ele>
        <time>2014-08-16T08:25:36.529Z</time>
      </trkpt>
      <trkpt lat="46.6881" lon="6.15847">
        <ele>986.6</ele>
        <time>2014-08-16T08:25:55.802Z</time>
      </trkpt>
      <trkpt lat="46.68816" lon="6.15858">
        <ele>987.4</ele>
        <time>2014-08-16T08:26:00.475Z</time>
      </trkpt>
      <trkpt lat="46.68826" lon="6.1586">
        <ele>987.1</ele>
        <time>2014-08-16T08:26:05.224Z</time>
      </trkpt>
      <trkpt lat="46.68811" lon="6.15848">
        <ele>986.1</ele>
        <time>2014-08-16T08:26:54.911Z</time>
      </trkpt>
      <trkpt lat="46.68799" lon="6.1582">
        <ele>986.3</ele>
        <time>2014-08-16T08:27:01.409Z</time>
      </trkpt>
      <trkpt lat="46.6877" lon="6.15748">
        <ele>984</ele>
        <time>2014-08-16T08:27:11.301Z</time>
      </trkpt>
      <trkpt lat="46.68725" lon="6.15657">
        <ele>973.5</ele>
        <time>2014-08-16T08:27:50.147Z</time>
      </trkpt>
      <trkpt lat="46.68707" lon="6.15611">
        <ele>973.1</ele>
        <time>2014-08-16T08:28:36.150Z</time>
      </trkpt>
      <trkpt lat="46.68667" lon="6.15394">
        <ele>978.7</ele>
        <time>2014-08-16T08:29:47.669Z</time>
      </trkpt>
      <trkpt lat="46.68654" lon="6.15354">
        <ele>980.7</ele>
        <time>2014-08-16T08:30:01.179Z</time>
      </trkpt>
      <trkpt lat="46.68651" lon="6.15341">
        <ele>980.9</ele>
        <time>2014-08-16T08:30:05.833Z</time>
      </trkpt>
      <trkpt lat="46.68608" lon="6.15206">
        <ele>978.5</ele>
        <time>2014-08-16T08:30:51.222Z</time>
      </trkpt>
      <trkpt lat="46.68571" lon="6.15018">
        <ele>979.2</ele>
        <time>2014-08-16T08:34:05.194Z</time>
      </trkpt>
      <trkpt lat="46.68567" lon="6.15007">
        <ele>980</ele>
        <time>2014-08-16T08:34:09.928Z</time>
      </trkpt>
      <trkpt lat="46.68537" lon="6.1496">
        <ele>980.8</ele>
        <time>2014-08-16T08:34:27.239Z</time>
      </trkpt>
      <trkpt lat="46.68531" lon="6.14946">
        <ele>981.3</ele>
        <time>2014-08-16T08:34:31.150Z</time>
      </trkpt>
      <trkpt lat="46.6849" lon="6.14823">
        <ele>982.6</ele>
        <time>2014-08-16T08:35:03.506Z</time>
      </trkpt>
      <trkpt lat="46.68474" lon="6.14788">
        <ele>983.9</ele>
        <time>2014-08-16T08:35:14.728Z</time>
      </trkpt>
      <trkpt lat="46.68468" lon="6.14773">
        <ele>984.1</ele>
        <time>2014-08-16T08:35:18.907Z</time>
      </trkpt>
      <trkpt lat="46.68465" lon="6.14759">
        <ele>984</ele>
        <time>2014-08-16T08:35:22.527Z</time>
      </trkpt>
      <trkpt lat="46.68461" lon="6.14746">
        <ele>983.3</ele>
        <time>2014-08-16T08:35:25.876Z</time>
      </trkpt>
      <trkpt lat="46.68456" lon="6.14735">
        <ele>982.2</ele>
        <time>2014-08-16T08:35:29.191Z</time>
      </trkpt>
      <trkpt lat="46.68428" lon="6.14636">
        <ele>983.2</ele>
        <time>2014-08-16T08:36:00.541Z</time>
      </trkpt>
      <trkpt lat="46.68415" lon="6.14599">
        <ele>983</ele>
        <time>2014-08-16T08:36:12.289Z</time>
      </trkpt>
      <trkpt lat="46.68352" lon="6.14373">
        <ele>986.5</ele>
        <time>2014-08-16T08:37:11.653Z</time>
      </trkpt>
      <trkpt lat="46.68332" lon="6.14238">
        <ele>995.8</ele>
        <time>2014-08-16T08:37:59.480Z</time>
      </trkpt>
      <trkpt lat="46.68319" lon="6.14181">
        <ele>1001</ele>
        <time>2014-08-16T08:40:24.262Z</time>
      </trkpt>
      <trkpt lat="46.68319" lon="6.14166">
        <ele>1003.9</ele>
        <time>2014-08-16T08:40:29.160Z</time>
      </trkpt>
      <trkpt lat="46.6832" lon="6.14152">
        <ele>1005.2</ele>
        <time>2014-08-16T08:40:33.902Z</time>
      </trkpt>
      <trkpt lat="46.68325" lon="6.14139">
        <ele>1005.3</ele>
        <time>2014-08-16T08:40:39.782Z</time>
      </trkpt>
      <trkpt lat="46.6831" lon="6.14081">
        <ele>1007.4</ele>
        <time>2014-08-16T08:40:58.839Z</time>
      </trkpt>
      <trkpt lat="46.68305" lon="6.14021">
        <ele>1007.8</ele>
        <time>2014-08-16T08:41:11.884Z</time>
      </trkpt>
      <trkpt lat="46.68298" lon="6.13991">
        <ele>1008.1</ele>
        <time>2014-08-16T08:41:18.989Z</time>
      </trkpt>
      <trkpt lat="46.68282" lon="6.13947">
        <ele>1008.2</ele>
        <time>2014-08-16T08:41:28.331Z</time>
      </trkpt>
      <trkpt lat="46.6826" lon="6.13896">
        <ele>1008</ele>
        <time>2014-08-16T08:41:38.964Z</time>
      </trkpt>
      <trkpt lat="46.68239" lon="6.13803">
        <ele>1009.8</ele>
        <time>2014-08-16T08:42:04.046Z</time>
      </trkpt>
      <trkpt lat="46.68227" lon="6.13771">
        <ele>1010.1</ele>
        <time>2014-08-16T08:42:10.198Z</time>
      </trkpt>
      <trkpt lat="46.68217" lon="6.13756">
        <ele>1010</ele>
        <time>2014-08-16T08:42:13.278Z</time>
      </trkpt>
      <trkpt lat="46.68194" lon="6.13732">
        <ele>1009.1</ele>
        <time>2014-08-16T08:42:18.449Z</time>
      </trkpt>
      <trkpt lat="46.68129" lon="6.13623">
        <ele>1003</ele>
        <time>2014-08-16T08:42:31.022Z</time>
      </trkpt>
      <trkpt lat="46.68109" lon="6.13574">
        <ele>999.7</ele>
        <time>2014-08-16T08:42:36.075Z</time>
      </trkpt>
      <trkpt lat="46.68087" lon="6.13491">
        <ele>995.7</ele>
        <time>2014-08-16T08:42:45.627Z</time>
      </trkpt>
      <trkpt lat="46.68094" lon="6.13467">
        <ele>994.7</ele>
        <time>2014-08-16T08:42:50.061Z</time>
      </trkpt>
      <trkpt lat="46.68098" lon="6.13446">
        <ele>995.1</ele>
        <time>2014-08-16T08:42:54.676Z</time>
      </trkpt>
      <trkpt lat="46.68091" lon="6.13434">
        <ele>996.5</ele>
        <time>2014-08-16T08:42:57.846Z</time>
      </trkpt>
      <trkpt lat="46.6807" lon="6.13423">
        <ele>996.6</ele>
        <time>2014-08-16T08:43:03.209Z</time>
      </trkpt>
      <trkpt lat="46.68028" lon="6.13389">
        <ele>995</ele>
        <time>2014-08-16T08:43:13.398Z</time>
      </trkpt>
      <trkpt lat="46.67985" lon="6.1334">
        <ele>995.6</ele>
        <time>2014-08-16T08:43:23.542Z</time>
      </trkpt>
      <trkpt lat="46.67967" lon="6.13313">
        <ele>994.5</ele>
        <time>2014-08-16T08:43:30.644Z</time>
      </trkpt>
      <trkpt lat="46.67958" lon="6.13308">
        <ele>994.2</ele>
        <time>2014-08-16T08:43:33.536Z</time>
      </trkpt>
      <trkpt lat="46.6795" lon="6.13314">
        <ele>994</ele>
        <time>2014-08-16T08:43:36.449Z</time>
      </trkpt>
      <trkpt lat="46.67942" lon="6.13321">
        <ele>994.4</ele>
        <time>2014-08-16T08:43:39.665Z</time>
      </trkpt>
      <trkpt lat="46.67927" lon="6.1334">
        <ele>996.9</ele>
        <time>2014-08-16T08:43:48.215Z</time>
      </trkpt>
      <trkpt lat="46.67918" lon="6.13346">
        <ele>998.1</ele>
        <time>2014-08-16T08:43:52.033Z</time>
      </trkpt>
      <trkpt lat="46.67891" lon="6.13405">
        <ele>993.7</ele>
        <time>2014-08-16T08:44:09.923Z</time>
      </trkpt>
      <trkpt lat="46.67883" lon="6.13416">
        <ele>993.6</ele>
        <time>2014-08-16T08:44:13.320Z</time>
      </trkpt>
      <trkpt lat="46.67802" lon="6.13595">
        <ele>998.5</ele>
        <time>2014-08-16T08:44:54.744Z</time>
      </trkpt>
      <trkpt lat="46.67762" lon="6.13693">
        <ele>996.9</ele>
        <time>2014-08-16T08:45:14.803Z</time>
      </trkpt>
      <trkpt lat="46.67755" lon="6.13708">
        <ele>996.6</ele>
        <time>2014-08-16T08:45:18.048Z</time>
      </trkpt>
      <trkpt lat="46.67746" lon="6.13721">
        <ele>997.5</ele>
        <time>2014-08-16T08:45:21.211Z</time>
      </trkpt>
      <trkpt lat="46.67732" lon="6.13747">
        <ele>1001.9</ele>
        <time>2014-08-16T08:45:26.924Z</time>
      </trkpt>
      <trkpt lat="46.67709" lon="6.13783">
        <ele>1002.4</ele>
        <time>2014-08-16T08:45:35.054Z</time>
      </trkpt>
      <trkpt lat="46.67699" lon="6.13796">
        <ele>1001.4</ele>
        <time>2014-08-16T08:45:38.542Z</time>
      </trkpt>
      <trkpt lat="46.67692" lon="6.1381">
        <ele>1000.8</ele>
        <time>2014-08-16T08:45:41.690Z</time>
      </trkpt>
      <trkpt lat="46.67681" lon="6.13822">
        <ele>1000.3</ele>
        <time>2014-08-16T08:45:45.316Z</time>
      </trkpt>
      <trkpt lat="46.6767" lon="6.13831">
        <ele>999.6</ele>
        <time>2014-08-16T08:45:48.565Z</time>
      </trkpt>
      <trkpt lat="46.67659" lon="6.13833">
        <ele>999.3</ele>
        <time>2014-08-16T08:45:51.622Z</time>
      </trkpt>
      <trkpt lat="46.67638" lon="6.13833">
        <ele>1000.9</ele>
        <time>2014-08-16T08:45:57.032Z</time>
      </trkpt>
      <trkpt lat="46.67619" lon="6.13827">
        <ele>1002</ele>
        <time>2014-08-16T08:46:02.460Z</time>
      </trkpt>
      <trkpt lat="46.67607" lon="6.13821">
        <ele>1002.9</ele>
        <time>2014-08-16T08:46:06.074Z</time>
      </trkpt>
      <trkpt lat="46.67596" lon="6.13813">
        <ele>1003.2</ele>
        <time>2014-08-16T08:46:09.315Z</time>
      </trkpt>
      <trkpt lat="46.6754" lon="6.13762">
        <ele>1005</ele>
        <time>2014-08-16T08:46:26.442Z</time>
      </trkpt>
      <trkpt lat="46.67521" lon="6.1375">
        <ele>1003.8</ele>
        <time>2014-08-16T08:46:32.120Z</time>
      </trkpt>
      <trkpt lat="46.67511" lon="6.13745">
        <ele>1003.7</ele>
        <time>2014-08-16T08:46:34.908Z</time>
      </trkpt>
      <trkpt lat="46.67499" lon="6.13741">
        <ele>1004.5</ele>
        <time>2014-08-16T08:46:38.450Z</time>
      </trkpt>
      <trkpt lat="46.67489" lon="6.1374">
        <ele>1005.7</ele>
        <time>2014-08-16T08:46:41.267Z</time>
      </trkpt>
      <trkpt lat="46.67479" lon="6.13742">
        <ele>1006.7</ele>
        <time>2014-08-16T08:46:44.082Z</time>
      </trkpt>
      <trkpt lat="46.67451" lon="6.13758">
        <ele>1008.5</ele>
        <time>2014-08-16T08:46:52.655Z</time>
      </trkpt>
      <trkpt lat="46.67429" lon="6.13762">
        <ele>1009.9</ele>
        <time>2014-08-16T08:46:59.228Z</time>
      </trkpt>
      <trkpt lat="46.67411" lon="6.13769">
        <ele>1008.5</ele>
        <time>2014-08-16T08:47:09.889Z</time>
      </trkpt>
      <trkpt lat="46.67369" lon="6.13791">
        <ele>1010.6</ele>
        <time>2014-08-16T08:47:26.302Z</time>
      </trkpt>
      <trkpt lat="46.6736" lon="6.13798">
        <ele>1012.2</ele>
        <time>2014-08-16T08:47:30.189Z</time>
      </trkpt>
      <trkpt lat="46.67351" lon="6.13806">
        <ele>1013.5</ele>
        <time>2014-08-16T08:47:34.177Z</time>
      </trkpt>
      <trkpt lat="46.67345" lon="6.13816">
        <ele>1014</ele>
        <time>2014-08-16T08:47:37.854Z</time>
      </trkpt>
      <trkpt lat="46.6734" lon="6.13828">
        <ele>1014.1</ele>
        <time>2014-08-16T08:47:42.021Z</time>
      </trkpt>
      <trkpt lat="46.67331" lon="6.13855">
        <ele>1014.4</ele>
        <time>2014-08-16T08:47:51.513Z</time>
      </trkpt>
      <trkpt lat="46.67329" lon="6.13869">
        <ele>1014.9</ele>
        <time>2014-08-16T08:47:56.234Z</time>
      </trkpt>
      <trkpt lat="46.67338" lon="6.13841">
        <ele>1014.9</ele>
        <time>2014-08-16T08:49:46.240Z</time>
      </trkpt>
      <trkpt lat="46.67346" lon="6.13822">
        <ele>1014.8</ele>
        <time>2014-08-16T08:49:49.836Z</time>
      </trkpt>
      <trkpt lat="46.67355" lon="6.1381">
        <ele>1015.6</ele>
        <time>2014-08-16T08:49:51.660Z</time>
      </trkpt>
      <trkpt lat="46.67412" lon="6.13763">
        <ele>1013.8</ele>
        <time>2014-08-16T08:50:01.694Z</time>
      </trkpt>
      <trkpt lat="46.67423" lon="6.13757">
        <ele>1012.4</ele>
        <time>2014-08-16T08:50:05.116Z</time>
      </trkpt>
      <trkpt lat="46.67429" lon="6.13746">
        <ele>1011</ele>
        <time>2014-08-16T08:50:08.264Z</time>
      </trkpt>
      <trkpt lat="46.67425" lon="6.1373">
        <ele>1009.7</ele>
        <time>2014-08-16T08:50:12.492Z</time>
      </trkpt>
      <trkpt lat="46.67419" lon="6.1372">
        <ele>1008.8</ele>
        <time>2014-08-16T08:50:16.075Z</time>
      </trkpt>
      <trkpt lat="46.67405" lon="6.13664">
        <ele>1008</ele>
        <time>2014-08-16T08:50:29.101Z</time>
      </trkpt>
      <trkpt lat="46.67374" lon="6.13521">
        <ele>1006.2</ele>
        <time>2014-08-16T08:50:56.233Z</time>
      </trkpt>
      <trkpt lat="46.67362" lon="6.13487">
        <ele>1005.1</ele>
        <time>2014-08-16T08:54:27.368Z</time>
      </trkpt>
      <trkpt lat="46.67355" lon="6.13475">
        <ele>1005.2</ele>
        <time>2014-08-16T08:54:31.525Z</time>
      </trkpt>
      <trkpt lat="46.67347" lon="6.13466">
        <ele>1006.5</ele>
        <time>2014-08-16T08:54:34.772Z</time>
      </trkpt>
      <trkpt lat="46.67332" lon="6.13425">
        <ele>1012.9</ele>
        <time>2014-08-16T08:54:44.151Z</time>
      </trkpt>
      <trkpt lat="46.67329" lon="6.13413">
        <ele>1011.8</ele>
        <time>2014-08-16T08:54:46.616Z</time>
      </trkpt>
      <trkpt lat="46.67275" lon="6.13279">
        <ele>1014.8</ele>
        <time>2014-08-16T08:55:26.275Z</time>
      </trkpt>
      <trkpt lat="46.67263" lon="6.1324">
        <ele>1016.3</ele>
        <time>2014-08-16T08:55:37.415Z</time>
      </trkpt>
      <trkpt lat="46.67257" lon="6.13228">
        <ele>1018.5</ele>
        <time>2014-08-16T08:55:40.712Z</time>
      </trkpt>
      <trkpt lat="46.67249" lon="6.13218">
        <ele>1019.4</ele>
        <time>2014-08-16T08:55:44.326Z</time>
      </trkpt>
      <trkpt lat="46.6724" lon="6.13211">
        <ele>1018.4</ele>
        <time>2014-08-16T08:55:47.364Z</time>
      </trkpt>
      <trkpt lat="46.67191" lon="6.13184">
        <ele>1015.7</ele>
        <time>2014-08-16T08:56:04.093Z</time>
      </trkpt>
      <trkpt lat="46.67172" lon="6.13176">
        <ele>1016.3</ele>
        <time>2014-08-16T08:56:10.138Z</time>
      </trkpt>
      <trkpt lat="46.67155" lon="6.13164">
        <ele>1021.3</ele>
        <time>2014-08-16T08:56:15.796Z</time>
      </trkpt>
      <trkpt lat="46.67031" lon="6.13024">
        <ele>1015.5</ele>
        <time>2014-08-16T08:57:10.232Z</time>
      </trkpt>
      <trkpt lat="46.67004" lon="6.13006">
        <ele>1018.5</ele>
        <time>2014-08-16T08:57:23.802Z</time>
      </trkpt>
      <trkpt lat="46.66984" lon="6.12997">
        <ele>1022.5</ele>
        <time>2014-08-16T08:57:36.902Z</time>
      </trkpt>
      <trkpt lat="46.66975" lon="6.12992">
        <ele>1023.1</ele>
        <time>2014-08-16T08:57:43.645Z</time>
      </trkpt>
      <trkpt lat="46.66966" lon="6.12985">
        <ele>1024</ele>
        <time>2014-08-16T08:57:50.408Z</time>
      </trkpt>
      <trkpt lat="46.66959" lon="6.12977">
        <ele>1024.8</ele>
        <time>2014-08-16T08:57:56.547Z</time>
      </trkpt>
      <trkpt lat="46.66931" lon="6.12934">
        <ele>1029.6</ele>
        <time>2014-08-16T08:58:21.230Z</time>
      </trkpt>
      <trkpt lat="46.66928" lon="6.12922">
        <ele>1033.5</ele>
        <time>2014-08-16T08:58:27.234Z</time>
      </trkpt>
      <trkpt lat="46.66922" lon="6.12909">
        <ele>1036.3</ele>
        <time>2014-08-16T08:58:34.234Z</time>
      </trkpt>
      <trkpt lat="46.66914" lon="6.12901">
        <ele>1038.2</ele>
        <time>2014-08-16T08:58:40.629Z</time>
      </trkpt>
      <trkpt lat="46.66897" lon="6.12875">
        <ele>1038.1</ele>
        <time>2014-08-16T08:59:37.431Z</time>
      </trkpt>
      <trkpt lat="46.66892" lon="6.12864">
        <ele>1037.1</ele>
        <time>2014-08-16T08:59:42.032Z</time>
      </trkpt>
      <trkpt lat="46.66884" lon="6.12854">
        <ele>1035</ele>
        <time>2014-08-16T08:59:46.846Z</time>
      </trkpt>
      <trkpt lat="46.66868" lon="6.12838">
        <ele>1037.4</ele>
        <time>2014-08-16T08:59:55.855Z</time>
      </trkpt>
      <trkpt lat="46.66847" lon="6.12792">
        <ele>1054.6</ele>
        <time>2014-08-16T09:00:11.702Z</time>
      </trkpt>
      <trkpt lat="46.6684" lon="6.1278">
        <ele>1053.8</ele>
        <time>2014-08-16T09:00:15.628Z</time>
      </trkpt>
      <trkpt lat="46.66807" lon="6.12713">
        <ele>1047.7</ele>
        <time>2014-08-16T09:00:41.478Z</time>
      </trkpt>
      <trkpt lat="46.66736" lon="6.12612">
        <ele>1053.7</ele>
        <time>2014-08-16T09:01:06.336Z</time>
      </trkpt>
      <trkpt lat="46.66717" lon="6.12597">
        <ele>1052.7</ele>
        <time>2014-08-16T09:01:12.146Z</time>
      </trkpt>
      <trkpt lat="46.66709" lon="6.12589">
        <ele>1054.2</ele>
        <time>2014-08-16T09:01:15.154Z</time>
      </trkpt>
      <trkpt lat="46.66698" lon="6.12581">
        <ele>1055.8</ele>
        <time>2014-08-16T09:01:18.981Z</time>
      </trkpt>
      <trkpt lat="46.6669" lon="6.12573">
        <ele>1055.9</ele>
        <time>2014-08-16T09:01:22.767Z</time>
      </trkpt>
      <trkpt lat="46.66677" lon="6.12536">
        <ele>1049.7</ele>
        <time>2014-08-16T09:01:34.588Z</time>
      </trkpt>
      <trkpt lat="46.66668" lon="6.1252">
        <ele>1051.1</ele>
        <time>2014-08-16T09:01:39.137Z</time>
      </trkpt>
      <trkpt lat="46.66649" lon="6.12497">
        <ele>1054.2</ele>
        <time>2014-08-16T09:01:46.177Z</time>
      </trkpt>
      <trkpt lat="46.66641" lon="6.12479">
        <ele>1053.5</ele>
        <time>2014-08-16T09:01:50.160Z</time>
      </trkpt>
      <trkpt lat="46.66633" lon="6.12466">
        <ele>1052.1</ele>
        <time>2014-08-16T09:01:53.121Z</time>
      </trkpt>
      <trkpt lat="46.66619" lon="6.12452">
        <ele>1050.9</ele>
        <time>2014-08-16T09:01:57.060Z</time>
      </trkpt>
      <trkpt lat="46.66615" lon="6.1244">
        <ele>1049.5</ele>
        <time>2014-08-16T09:01:59.328Z</time>
      </trkpt>
      <trkpt lat="46.66628" lon="6.12384">
        <ele>1045.8</ele>
        <time>2014-08-16T09:02:10.894Z</time>
      </trkpt>
      <trkpt lat="46.66628" lon="6.1237">
        <ele>1047.5</ele>
        <time>2014-08-16T09:02:14.269Z</time>
      </trkpt>
      <trkpt lat="46.6662" lon="6.12341">
        <ele>1051.9</ele>
        <time>2014-08-16T09:02:21.802Z</time>
      </trkpt>
      <trkpt lat="46.66615" lon="6.12308">
        <ele>1048</ele>
        <time>2014-08-16T09:02:29.095Z</time>
      </trkpt>
      <trkpt lat="46.66603" lon="6.12282">
        <ele>1041.9</ele>
        <time>2014-08-16T09:02:35.133Z</time>
      </trkpt>
      <trkpt lat="46.66596" lon="6.12253">
        <ele>1040.2</ele>
        <time>2014-08-16T09:02:41.009Z</time>
      </trkpt>
      <trkpt lat="46.66593" lon="6.12237">
        <ele>1042</ele>
        <time>2014-08-16T09:02:44.523Z</time>
      </trkpt>
      <trkpt lat="46.66593" lon="6.12208">
        <ele>1041.6</ele>
        <time>2014-08-16T09:02:51.167Z</time>
      </trkpt>
      <trkpt lat="46.66564" lon="6.12166">
        <ele>1045</ele>
        <time>2014-08-16T09:03:04.826Z</time>
      </trkpt>
      <trkpt lat="46.66555" lon="6.12135">
        <ele>1041.5</ele>
        <time>2014-08-16T09:03:13.190Z</time>
      </trkpt>
      <trkpt lat="46.66549" lon="6.12121">
        <ele>1038.3</ele>
        <time>2014-08-16T09:03:18.670Z</time>
      </trkpt>
      <trkpt lat="46.66543" lon="6.1211">
        <ele>1036.1</ele>
        <time>2014-08-16T09:03:23.806Z</time>
      </trkpt>
      <trkpt lat="46.66526" lon="6.12056">
        <ele>1046.7</ele>
        <time>2014-08-16T09:03:43.645Z</time>
      </trkpt>
      <trkpt lat="46.66524" lon="6.12043">
        <ele>1047.3</ele>
        <time>2014-08-16T09:03:47.698Z</time>
      </trkpt>
      <trkpt lat="46.6652" lon="6.11954">
        <ele>1048</ele>
        <time>2014-08-16T09:04:18.505Z</time>
      </trkpt>
      <trkpt lat="46.66511" lon="6.11922">
        <ele>1050.8</ele>
        <time>2014-08-16T09:04:26.962Z</time>
      </trkpt>
      <trkpt lat="46.66505" lon="6.11908">
        <ele>1051.1</ele>
        <time>2014-08-16T09:04:29.879Z</time>
      </trkpt>
      <trkpt lat="46.665" lon="6.11892">
        <ele>1051.2</ele>
        <time>2014-08-16T09:04:33.296Z</time>
      </trkpt>
      <trkpt lat="46.66499" lon="6.11879">
        <ele>1050.4</ele>
        <time>2014-08-16T09:04:36.019Z</time>
      </trkpt>
      <trkpt lat="46.66479" lon="6.11835">
        <ele>1051.7</ele>
        <time>2014-08-16T09:04:45.319Z</time>
      </trkpt>
      <trkpt lat="46.6647" lon="6.11819">
        <ele>1052.7</ele>
        <time>2014-08-16T09:04:48.847Z</time>
      </trkpt>
      <trkpt lat="46.66464" lon="6.11805">
        <ele>1052.1</ele>
        <time>2014-08-16T09:04:51.735Z</time>
      </trkpt>
      <trkpt lat="46.66459" lon="6.1179">
        <ele>1049.8</ele>
        <time>2014-08-16T09:04:54.745Z</time>
      </trkpt>
      <trkpt lat="46.66454" lon="6.11779">
        <ele>1047.3</ele>
        <time>2014-08-16T09:04:57.449Z</time>
      </trkpt>
      <trkpt lat="46.6645" lon="6.11767">
        <ele>1045.5</ele>
        <time>2014-08-16T09:05:00.116Z</time>
      </trkpt>
      <trkpt lat="46.66439" lon="6.11742">
        <ele>1043.1</ele>
        <time>2014-08-16T09:05:06.619Z</time>
      </trkpt>
      <trkpt lat="46.66426" lon="6.11722">
        <ele>1040.6</ele>
        <time>2014-08-16T09:05:13.693Z</time>
      </trkpt>
      <trkpt lat="46.66411" lon="6.11705">
        <ele>1035.8</ele>
        <time>2014-08-16T09:05:22.304Z</time>
      </trkpt>
      <trkpt lat="46.66404" lon="6.11697">
        <ele>1034.9</ele>
        <time>2014-08-16T09:05:27.334Z</time>
      </trkpt>
      <trkpt lat="46.66395" lon="6.11691">
        <ele>1035.1</ele>
        <time>2014-08-16T09:05:33.035Z</time>
      </trkpt>
      <trkpt lat="46.6637" lon="6.11715">
        <ele>1045.4</ele>
        <time>2014-08-16T09:05:53.421Z</time>
      </trkpt>
      <trkpt lat="46.66363" lon="6.11724">
        <ele>1047.5</ele>
        <time>2014-08-16T09:05:59.991Z</time>
      </trkpt>
      <trkpt lat="46.66355" lon="6.11733">
        <ele>1048</ele>
        <time>2014-08-16T09:06:06.211Z</time>
      </trkpt>
      <trkpt lat="46.66338" lon="6.11747">
        <ele>1047.6</ele>
        <time>2014-08-16T09:06:18.180Z</time>
      </trkpt>
      <trkpt lat="46.66329" lon="6.11753">
        <ele>1047.6</ele>
        <time>2014-08-16T09:06:24.347Z</time>
      </trkpt>
      <trkpt lat="46.66309" lon="6.11759">
        <ele>1050.6</ele>
        <time>2014-08-16T09:06:40.470Z</time>
      </trkpt>
      <trkpt lat="46.663" lon="6.11759">
        <ele>1050.3</ele>
        <time>2014-08-16T09:06:45.922Z</time>
      </trkpt>
      <trkpt lat="46.6628" lon="6.11757">
        <ele>1055</ele>
        <time>2014-08-16T09:06:58.339Z</time>
      </trkpt>
      <trkpt lat="46.66271" lon="6.11753">
        <ele>1057.8</ele>
        <time>2014-08-16T09:07:04.268Z</time>
      </trkpt>
      <trkpt lat="46.66261" lon="6.11751">
        <ele>1059.8</ele>
        <time>2014-08-16T09:07:09.856Z</time>
      </trkpt>
      <trkpt lat="46.66251" lon="6.11747">
        <ele>1060.9</ele>
        <time>2014-08-16T09:07:15.148Z</time>
      </trkpt>
      <trkpt lat="46.66243" lon="6.11741">
        <ele>1061.1</ele>
        <time>2014-08-16T09:07:20.966Z</time>
      </trkpt>
      <trkpt lat="46.66234" lon="6.11733">
        <ele>1061.2</ele>
        <time>2014-08-16T09:07:27.126Z</time>
      </trkpt>
      <trkpt lat="46.66229" lon="6.1172">
        <ele>1061.6</ele>
        <time>2014-08-16T09:07:32.142Z</time>
      </trkpt>
      <trkpt lat="46.66223" lon="6.1171">
        <ele>1061.9</ele>
        <time>2014-08-16T09:07:36.234Z</time>
      </trkpt>
      <trkpt lat="46.66212" lon="6.11705">
        <ele>1060.9</ele>
        <time>2014-08-16T09:07:45.922Z</time>
      </trkpt>
      <trkpt lat="46.6621" lon="6.1169">
        <ele>1060.7</ele>
        <time>2014-08-16T09:07:51.640Z</time>
      </trkpt>
      <trkpt lat="46.66211" lon="6.11674">
        <ele>1061.5</ele>
        <time>2014-08-16T09:07:55.751Z</time>
      </trkpt>
      <trkpt lat="46.66214" lon="6.11654">
        <ele>1063.9</ele>
        <time>2014-08-16T09:07:59.527Z</time>
      </trkpt>
      <trkpt lat="46.66217" lon="6.11642">
        <ele>1065.7</ele>
        <time>2014-08-16T09:08:02.062Z</time>
      </trkpt>
      <trkpt lat="46.66216" lon="6.11626">
        <ele>1064.7</ele>
        <time>2014-08-16T09:08:05.414Z</time>
      </trkpt>
      <trkpt lat="46.66213" lon="6.11609">
        <ele>1062.2</ele>
        <time>2014-08-16T09:08:09.241Z</time>
      </trkpt>
      <trkpt lat="46.66214" lon="6.11576">
        <ele>1060.4</ele>
        <time>2014-08-16T09:08:33.871Z</time>
      </trkpt>
      <trkpt lat="46.66221" lon="6.11543">
        <ele>1062.5</ele>
        <time>2014-08-16T09:08:39.994Z</time>
      </trkpt>
      <trkpt lat="46.66226" lon="6.11531">
        <ele>1062.7</ele>
        <time>2014-08-16T09:08:42.604Z</time>
      </trkpt>
      <trkpt lat="46.66229" lon="6.11512">
        <ele>1060.3</ele>
        <time>2014-08-16T09:08:46.531Z</time>
      </trkpt>
      <trkpt lat="46.66222" lon="6.11501">
        <ele>1056.7</ele>
        <time>2014-08-16T09:08:49.838Z</time>
      </trkpt>
      <trkpt lat="46.66209" lon="6.11458">
        <ele>1053.1</ele>
        <time>2014-08-16T09:09:00.650Z</time>
      </trkpt>
      <trkpt lat="46.66204" lon="6.11445">
        <ele>1052.5</ele>
        <time>2014-08-16T09:09:04.817Z</time>
      </trkpt>
      <trkpt lat="46.66189" lon="6.11373">
        <ele>1041.6</ele>
        <time>2014-08-16T09:09:24.036Z</time>
      </trkpt>
      <trkpt lat="46.66188" lon="6.11358">
        <ele>1043.8</ele>
        <time>2014-08-16T09:09:28.126Z</time>
      </trkpt>
      <trkpt lat="46.66184" lon="6.11345">
        <ele>1046.8</ele>
        <time>2014-08-16T09:09:32.524Z</time>
      </trkpt>
      <trkpt lat="46.66176" lon="6.11336">
        <ele>1049.3</ele>
        <time>2014-08-16T09:09:37.522Z</time>
      </trkpt>
      <trkpt lat="46.66165" lon="6.11311">
        <ele>1051.6</ele>
        <time>2014-08-16T09:09:47.395Z</time>
      </trkpt>
      <trkpt lat="46.66164" lon="6.11296">
        <ele>1051</ele>
        <time>2014-08-16T09:09:51.912Z</time>
      </trkpt>
      <trkpt lat="46.66167" lon="6.11282">
        <ele>1048.1</ele>
        <time>2014-08-16T09:09:56.480Z</time>
      </trkpt>
      <trkpt lat="46.66165" lon="6.11251">
        <ele>1041.4</ele>
        <time>2014-08-16T09:10:05.957Z</time>
      </trkpt>
      <trkpt lat="46.66161" lon="6.11238">
        <ele>1045.2</ele>
        <time>2014-08-16T09:10:11.042Z</time>
      </trkpt>
      <trkpt lat="46.66156" lon="6.11227">
        <ele>1051.4</ele>
        <time>2014-08-16T09:10:16.620Z</time>
      </trkpt>
      <trkpt lat="46.6615" lon="6.112">
        <ele>1054.4</ele>
        <time>2014-08-16T09:10:30.189Z</time>
      </trkpt>
      <trkpt lat="46.6615" lon="6.11186">
        <ele>1052.5</ele>
        <time>2014-08-16T09:10:37.454Z</time>
      </trkpt>
      <trkpt lat="46.66143" lon="6.11177">
        <ele>1051.4</ele>
        <time>2014-08-16T09:10:44.660Z</time>
      </trkpt>
      <trkpt lat="46.66122" lon="6.1113">
        <ele>1062.6</ele>
        <time>2014-08-16T09:11:08.694Z</time>
      </trkpt>
      <trkpt lat="46.66112" lon="6.11104">
        <ele>1065.2</ele>
        <time>2014-08-16T09:11:21.461Z</time>
      </trkpt>
      <trkpt lat="46.66098" lon="6.11087">
        <ele>1061.1</ele>
        <time>2014-08-16T09:11:30.190Z</time>
      </trkpt>
      <trkpt lat="46.66089" lon="6.11074">
        <ele>1059.3</ele>
        <time>2014-08-16T09:11:34.882Z</time>
      </trkpt>
      <trkpt lat="46.6608" lon="6.11065">
        <ele>1058.7</ele>
        <time>2014-08-16T09:11:38.707Z</time>
      </trkpt>
      <trkpt lat="46.66073" lon="6.11055">
        <ele>1059.4</ele>
        <time>2014-08-16T09:11:42.008Z</time>
      </trkpt>
      <trkpt lat="46.66069" lon="6.11041">
        <ele>1060.6</ele>
        <time>2014-08-16T09:11:45.629Z</time>
      </trkpt>
      <trkpt lat="46.66068" lon="6.11028">
        <ele>1060.3</ele>
        <time>2014-08-16T09:11:49.306Z</time>
      </trkpt>
      <trkpt lat="46.66065" lon="6.11013">
        <ele>1058</ele>
        <time>2014-08-16T09:11:54.129Z</time>
      </trkpt>
      <trkpt lat="46.6606" lon="6.11">
        <ele>1056.1</ele>
        <time>2014-08-16T09:11:58.448Z</time>
      </trkpt>
      <trkpt lat="46.6605" lon="6.10979">
        <ele>1058.4</ele>
        <time>2014-08-16T09:12:06.717Z</time>
      </trkpt>
      <trkpt lat="46.66043" lon="6.10968">
        <ele>1059.6</ele>
        <time>2014-08-16T09:12:11.563Z</time>
      </trkpt>
      <trkpt lat="46.66035" lon="6.10962">
        <ele>1060.9</ele>
        <time>2014-08-16T09:12:16.658Z</time>
      </trkpt>
      <trkpt lat="46.66027" lon="6.10955">
        <ele>1062</ele>
        <time>2014-08-16T09:12:22.250Z</time>
      </trkpt>
      <trkpt lat="46.66018" lon="6.1095">
        <ele>1062.6</ele>
        <time>2014-08-16T09:12:28.280Z</time>
      </trkpt>
      <trkpt lat="46.66007" lon="6.10927">
        <ele>1063.9</ele>
        <time>2014-08-16T09:12:39.777Z</time>
      </trkpt>
      <trkpt lat="46.65998" lon="6.10918">
        <ele>1064.3</ele>
        <time>2014-08-16T09:12:46.643Z</time>
      </trkpt>
      <trkpt lat="46.65993" lon="6.10907">
        <ele>1064.4</ele>
        <time>2014-08-16T09:12:52.450Z</time>
      </trkpt>
      <trkpt lat="46.65946" lon="6.10839">
        <ele>1071.2</ele>
        <time>2014-08-16T09:13:21.231Z</time>
      </trkpt>
      <trkpt lat="46.65944" lon="6.10825">
        <ele>1071</ele>
        <time>2014-08-16T09:13:23.241Z</time>
      </trkpt>
      <trkpt lat="46.65934" lon="6.10813">
        <ele>1069.3</ele>
        <time>2014-08-16T09:14:22.243Z</time>
      </trkpt>
      <trkpt lat="46.6593" lon="6.10798">
        <ele>1068.2</ele>
        <time>2014-08-16T09:14:48.262Z</time>
      </trkpt>
      <trkpt lat="46.65924" lon="6.10787">
        <ele>1068</ele>
        <time>2014-08-16T09:14:53.653Z</time>
      </trkpt>
      <trkpt lat="46.6592" lon="6.10774">
        <ele>1068.1</ele>
        <time>2014-08-16T09:14:57.812Z</time>
      </trkpt>
      <trkpt lat="46.65918" lon="6.1076">
        <ele>1068.6</ele>
        <time>2014-08-16T09:15:01.682Z</time>
      </trkpt>
      <trkpt lat="46.65911" lon="6.10745">
        <ele>1068.1</ele>
        <time>2014-08-16T09:15:05.395Z</time>
      </trkpt>
      <trkpt lat="46.65896" lon="6.10722">
        <ele>1066.6</ele>
        <time>2014-08-16T09:15:13.101Z</time>
      </trkpt>
      <trkpt lat="46.65886" lon="6.10696">
        <ele>1066.8</ele>
        <time>2014-08-16T09:15:21.875Z</time>
      </trkpt>
      <trkpt lat="46.6586" lon="6.10662">
        <ele>1068.9</ele>
        <time>2014-08-16T09:15:33.773Z</time>
      </trkpt>
      <trkpt lat="46.65855" lon="6.10647">
        <ele>1069.4</ele>
        <time>2014-08-16T09:15:36.752Z</time>
      </trkpt>
      <trkpt lat="46.65849" lon="6.10636">
        <ele>1068.8</ele>
        <time>2014-08-16T09:15:39.756Z</time>
      </trkpt>
      <trkpt lat="46.65841" lon="6.10629">
        <ele>1067.1</ele>
        <time>2014-08-16T09:15:42.695Z</time>
      </trkpt>
      <trkpt lat="46.6582" lon="6.10594">
        <ele>1064.9</ele>
        <time>2014-08-16T09:15:54.792Z</time>
      </trkpt>
      <trkpt lat="46.65821" lon="6.1058">
        <ele>1066.5</ele>
        <time>2014-08-16T09:15:58.129Z</time>
      </trkpt>
      <trkpt lat="46.65829" lon="6.10575">
        <ele>1069.6</ele>
        <time>2014-08-16T09:16:01.837Z</time>
      </trkpt>
      <trkpt lat="46.65839" lon="6.10573">
        <ele>1072.3</ele>
        <time>2014-08-16T09:16:06.243Z</time>
      </trkpt>
      <trkpt lat="46.65854" lon="6.10567">
        <ele>1071.5</ele>
        <time>2014-08-16T09:16:12.047Z</time>
      </trkpt>
      <trkpt lat="46.65864" lon="6.1056">
        <ele>1070.5</ele>
        <time>2014-08-16T09:16:14.325Z</time>
      </trkpt>
      <trkpt lat="46.65876" lon="6.10549">
        <ele>1069.1</ele>
        <time>2014-08-16T09:16:16.940Z</time>
      </trkpt>
      <trkpt lat="46.65885" lon="6.10545">
        <ele>1067.9</ele>
        <time>2014-08-16T09:16:18.712Z</time>
      </trkpt>
      <trkpt lat="46.65901" lon="6.10544">
        <ele>1067.3</ele>
        <time>2014-08-16T09:16:21.240Z</time>
      </trkpt>
      <trkpt lat="46.65926" lon="6.10553">
        <ele>1066</ele>
        <time>2014-08-16T09:27:08.467Z</time>
      </trkpt>
      <trkpt lat="46.65935" lon="6.10539">
        <ele>1065.7</ele>
        <time>2014-08-16T09:27:11.044Z</time>
      </trkpt>
      <trkpt lat="46.65938" lon="6.10519">
        <ele>1065.5</ele>
        <time>2014-08-16T09:27:13.027Z</time>
      </trkpt>
      <trkpt lat="46.65939" lon="6.10496">
        <ele>1065.5</ele>
        <time>2014-08-16T09:27:14.646Z</time>
      </trkpt>
      <trkpt lat="46.65906" lon="6.10219">
        <ele>1060.7</ele>
        <time>2014-08-16T09:27:39.539Z</time>
      </trkpt>
      <trkpt lat="46.65926" lon="6.10213">
        <ele>1057.9</ele>
        <time>2014-08-16T09:27:42.844Z</time>
      </trkpt>
      <trkpt lat="46.65964" lon="6.1021">
        <ele>1044.8</ele>
        <time>2014-08-16T09:27:49.884Z</time>
      </trkpt>
      <trkpt lat="46.65998" lon="6.10183">
        <ele>1032.8</ele>
        <time>2014-08-16T09:27:56.916Z</time>
      </trkpt>
      <trkpt lat="46.66022" lon="6.10169">
        <ele>1031.5</ele>
        <time>2014-08-16T09:28:02.057Z</time>
      </trkpt>
      <trkpt lat="46.66056" lon="6.10152">
        <ele>1027.3</ele>
        <time>2014-08-16T09:28:09.474Z</time>
      </trkpt>
      <trkpt lat="46.66068" lon="6.10148">
        <ele>1027.1</ele>
        <time>2014-08-16T09:28:12.346Z</time>
      </trkpt>
      <trkpt lat="46.66078" lon="6.10143">
        <ele>1028</ele>
        <time>2014-08-16T09:28:15.025Z</time>
      </trkpt>
      <trkpt lat="46.66089" lon="6.10136">
        <ele>1028.9</ele>
        <time>2014-08-16T09:28:18.131Z</time>
      </trkpt>
      <trkpt lat="46.66097" lon="6.10125">
        <ele>1029.5</ele>
        <time>2014-08-16T09:28:21.578Z</time>
      </trkpt>
      <trkpt lat="46.66093" lon="6.10096">
        <ele>1030.3</ele>
        <time>2014-08-16T09:28:29.887Z</time>
      </trkpt>
      <trkpt lat="46.66077" lon="6.10042">
        <ele>1029.1</ele>
        <time>2014-08-16T09:28:53.032Z</time>
      </trkpt>
      <trkpt lat="46.66061" lon="6.09968">
        <ele>1028</ele>
        <time>2014-08-16T09:29:13.078Z</time>
      </trkpt>
      <trkpt lat="46.66052" lon="6.09939">
        <ele>1028.9</ele>
        <time>2014-08-16T09:29:19.972Z</time>
      </trkpt>
      <trkpt lat="46.66045" lon="6.09928">
        <ele>1030.5</ele>
        <time>2014-08-16T09:29:23.248Z</time>
      </trkpt>
      <trkpt lat="46.66038" lon="6.09907">
        <ele>1031.7</ele>
        <time>2014-08-16T09:29:36.238Z</time>
      </trkpt>
      <trkpt lat="46.66022" lon="6.09872">
        <ele>1031.1</ele>
        <time>2014-08-16T09:29:49.116Z</time>
      </trkpt>
      <trkpt lat="46.66016" lon="6.09862">
        <ele>1032.5</ele>
        <time>2014-08-16T09:29:53.085Z</time>
      </trkpt>
      <trkpt lat="46.66012" lon="6.0985">
        <ele>1034.5</ele>
        <time>2014-08-16T09:29:57.063Z</time>
      </trkpt>
      <trkpt lat="46.66" lon="6.09827">
        <ele>1036</ele>
        <time>2014-08-16T09:30:05.093Z</time>
      </trkpt>
      <trkpt lat="46.65989" lon="6.09801">
        <ele>1031.3</ele>
        <time>2014-08-16T09:30:12.525Z</time>
      </trkpt>
      <trkpt lat="46.65984" lon="6.09789">
        <ele>1029</ele>
        <time>2014-08-16T09:30:15.536Z</time>
      </trkpt>
      <trkpt lat="46.65974" lon="6.09762">
        <ele>1033.2</ele>
        <time>2014-08-16T09:30:22.265Z</time>
      </trkpt>
      <trkpt lat="46.65967" lon="6.09755">
        <ele>1037.2</ele>
        <time>2014-08-16T09:30:25.396Z</time>
      </trkpt>
      <trkpt lat="46.65957" lon="6.09749">
        <ele>1040.7</ele>
        <time>2014-08-16T09:30:29.173Z</time>
      </trkpt>
      <trkpt lat="46.6595" lon="6.09741">
        <ele>1042.6</ele>
        <time>2014-08-16T09:30:32.534Z</time>
      </trkpt>
      <trkpt lat="46.65938" lon="6.09718">
        <ele>1041.5</ele>
        <time>2014-08-16T09:30:39.310Z</time>
      </trkpt>
      <trkpt lat="46.65931" lon="6.09707">
        <ele>1040.7</ele>
        <time>2014-08-16T09:30:42.661Z</time>
      </trkpt>
      <trkpt lat="46.65926" lon="6.09693">
        <ele>1040.6</ele>
        <time>2014-08-16T09:30:46.144Z</time>
      </trkpt>
      <trkpt lat="46.65836" lon="6.09525">
        <ele>1044</ele>
        <time>2014-08-16T09:31:29.893Z</time>
      </trkpt>
      <trkpt lat="46.6583" lon="6.0951">
        <ele>1044.2</ele>
        <time>2014-08-16T09:31:32.058Z</time>
      </trkpt>
      <trkpt lat="46.65749" lon="6.09372">
        <ele>1036.8</ele>
        <time>2014-08-16T09:31:54.536Z</time>
      </trkpt>
      <trkpt lat="46.6574" lon="6.09345">
        <ele>1034.5</ele>
        <time>2014-08-16T09:32:02.185Z</time>
      </trkpt>
      <trkpt lat="46.65733" lon="6.09332">
        <ele>1033.6</ele>
        <time>2014-08-16T09:32:05.628Z</time>
      </trkpt>
      <trkpt lat="46.65724" lon="6.09323">
        <ele>1032.6</ele>
        <time>2014-08-16T09:32:09.285Z</time>
      </trkpt>
      <trkpt lat="46.65715" lon="6.09316">
        <ele>1031.5</ele>
        <time>2014-08-16T09:32:12.832Z</time>
      </trkpt>
      <trkpt lat="46.65707" lon="6.09304">
        <ele>1030.9</ele>
        <time>2014-08-16T09:32:17.134Z</time>
      </trkpt>
      <trkpt lat="46.65702" lon="6.09292">
        <ele>1031.4</ele>
        <time>2014-08-16T09:32:20.370Z</time>
      </trkpt>
      <trkpt lat="46.65698" lon="6.09277">
        <ele>1032.5</ele>
        <time>2014-08-16T09:32:23.963Z</time>
      </trkpt>
      <trkpt lat="46.65693" lon="6.09267">
        <ele>1033.3</ele>
        <time>2014-08-16T09:32:26.639Z</time>
      </trkpt>
      <trkpt lat="46.6566" lon="6.09227">
        <ele>1035.8</ele>
        <time>2014-08-16T09:32:36.345Z</time>
      </trkpt>
      <trkpt lat="46.65649" lon="6.09218">
        <ele>1036.4</ele>
        <time>2014-08-16T09:32:38.664Z</time>
      </trkpt>
      <trkpt lat="46.65636" lon="6.09202">
        <ele>1034.8</ele>
        <time>2014-08-16T09:32:41.997Z</time>
      </trkpt>
      <trkpt lat="46.65619" lon="6.0917">
        <ele>1031.1</ele>
        <time>2014-08-16T09:32:47.780Z</time>
      </trkpt>
      <trkpt lat="46.65595" lon="6.09106">
        <ele>1032.5</ele>
        <time>2014-08-16T09:32:58.025Z</time>
      </trkpt>
      <trkpt lat="46.65563" lon="6.09049">
        <ele>1033.7</ele>
        <time>2014-08-16T09:33:08.625Z</time>
      </trkpt>
      <trkpt lat="46.65553" lon="6.09034">
        <ele>1032.9</ele>
        <time>2014-08-16T09:33:11.505Z</time>
      </trkpt>
      <trkpt lat="46.65518" lon="6.08963">
        <ele>1030.6</ele>
        <time>2014-08-16T09:33:22.421Z</time>
      </trkpt>
      <trkpt lat="46.65508" lon="6.08949">
        <ele>1029.9</ele>
        <time>2014-08-16T09:33:24.999Z</time>
      </trkpt>
      <trkpt lat="46.65493" lon="6.08913">
        <ele>1029.2</ele>
        <time>2014-08-16T09:33:30.607Z</time>
      </trkpt>
      <trkpt lat="46.65456" lon="6.08853">
        <ele>1028.6</ele>
        <time>2014-08-16T09:33:40.524Z</time>
      </trkpt>
      <trkpt lat="46.65439" lon="6.08829">
        <ele>1029.3</ele>
        <time>2014-08-16T09:33:43.682Z</time>
      </trkpt>
      <trkpt lat="46.65427" lon="6.08808">
        <ele>1030.5</ele>
        <time>2014-08-16T09:33:45.901Z</time>
      </trkpt>
      <trkpt lat="46.65366" lon="6.08649">
        <ele>1021.7</ele>
        <time>2014-08-16T09:33:59.130Z</time>
      </trkpt>
      <trkpt lat="46.65352" lon="6.0863">
        <ele>1020</ele>
        <time>2014-08-16T09:34:00.980Z</time>
      </trkpt>
      <trkpt lat="46.65333" lon="6.08622">
        <ele>1018.4</ele>
        <time>2014-08-16T09:34:02.836Z</time>
      </trkpt>
      <trkpt lat="46.65305" lon="6.08622">
        <ele>1016.5</ele>
        <time>2014-08-16T09:34:05.550Z</time>
      </trkpt>
      <trkpt lat="46.65286" lon="6.08611">
        <ele>1013.7</ele>
        <time>2014-08-16T09:34:07.512Z</time>
      </trkpt>
      <trkpt lat="46.6527" lon="6.08601">
        <ele>1010.3</ele>
        <time>2014-08-16T09:34:09.272Z</time>
      </trkpt>
      <trkpt lat="46.65261" lon="6.08588">
        <ele>1007.4</ele>
        <time>2014-08-16T09:34:10.789Z</time>
      </trkpt>
      <trkpt lat="46.65231" lon="6.08456">
        <ele>1010.7</ele>
        <time>2014-08-16T09:34:29.023Z</time>
      </trkpt>
      <trkpt lat="46.65224" lon="6.08446">
        <ele>1011.4</ele>
        <time>2014-08-16T09:34:31.688Z</time>
      </trkpt>
      <trkpt lat="46.65215" lon="6.08449">
        <ele>1012.6</ele>
        <time>2014-08-16T09:34:34.417Z</time>
      </trkpt>
      <trkpt lat="46.65207" lon="6.08456">
        <ele>1014.5</ele>
        <time>2014-08-16T09:34:37.435Z</time>
      </trkpt>
      <trkpt lat="46.65202" lon="6.08469">
        <ele>1016.6</ele>
        <time>2014-08-16T09:34:41.083Z</time>
      </trkpt>
      <trkpt lat="46.65188" lon="6.08489">
        <ele>1017.9</ele>
        <time>2014-08-16T09:34:49.309Z</time>
      </trkpt>
      <trkpt lat="46.6518" lon="6.08497">
        <ele>1017.1</ele>
        <time>2014-08-16T09:34:54.043Z</time>
      </trkpt>
      <trkpt lat="46.65174" lon="6.08507">
        <ele>1015.7</ele>
        <time>2014-08-16T09:34:58.763Z</time>
      </trkpt>
      <trkpt lat="46.65132" lon="6.08569">
        <ele>1014.3</ele>
        <time>2014-08-16T09:35:33.108Z</time>
      </trkpt>
      <trkpt lat="46.65086" lon="6.08623">
        <ele>1009.9</ele>
        <time>2014-08-16T09:35:44.280Z</time>
      </trkpt>
      <trkpt lat="46.65078" lon="6.0863">
        <ele>1006.7</ele>
        <time>2014-08-16T09:35:47.136Z</time>
      </trkpt>
      <trkpt lat="46.65074" lon="6.08644">
        <ele>1003.2</ele>
        <time>2014-08-16T09:35:52.496Z</time>
      </trkpt>
      <trkpt lat="46.65076" lon="6.08675">
        <ele>1000</ele>
        <time>2014-08-16T09:36:05.336Z</time>
      </trkpt>
      <trkpt lat="46.65073" lon="6.08705">
        <ele>1006.7</ele>
        <time>2014-08-16T09:36:17.743Z</time>
      </trkpt>
      <trkpt lat="46.65068" lon="6.08718">
        <ele>1009.1</ele>
        <time>2014-08-16T09:36:24.063Z</time>
      </trkpt>
      <trkpt lat="46.65061" lon="6.08726">
        <ele>1010.5</ele>
        <time>2014-08-16T09:36:30.212Z</time>
      </trkpt>
      <trkpt lat="46.65051" lon="6.08731">
        <ele>1011.7</ele>
        <time>2014-08-16T09:36:37.180Z</time>
      </trkpt>
      <trkpt lat="46.65042" lon="6.08725">
        <ele>1013</ele>
        <time>2014-08-16T09:36:42.880Z</time>
      </trkpt>
      <trkpt lat="46.65033" lon="6.08717">
        <ele>1015.1</ele>
        <time>2014-08-16T09:36:48.040Z</time>
      </trkpt>
      <trkpt lat="46.65031" lon="6.08702">
        <ele>1018</ele>
        <time>2014-08-16T09:36:53.736Z</time>
      </trkpt>
      <trkpt lat="46.6503" lon="6.08688">
        <ele>1020.5</ele>
        <time>2014-08-16T09:36:59.204Z</time>
      </trkpt>
      <trkpt lat="46.65026" lon="6.08675">
        <ele>1022</ele>
        <time>2014-08-16T09:37:04.252Z</time>
      </trkpt>
      <trkpt lat="46.65019" lon="6.08665">
        <ele>1023</ele>
        <time>2014-08-16T09:37:09.297Z</time>
      </trkpt>
      <trkpt lat="46.65012" lon="6.08653">
        <ele>1023.3</ele>
        <time>2014-08-16T09:37:14.430Z</time>
      </trkpt>
      <trkpt lat="46.65006" lon="6.08627">
        <ele>1021.4</ele>
        <time>2014-08-16T09:37:22.972Z</time>
      </trkpt>
      <trkpt lat="46.64993" lon="6.08602">
        <ele>1023.5</ele>
        <time>2014-08-16T09:37:31.951Z</time>
      </trkpt>
      <trkpt lat="46.64987" lon="6.08576">
        <ele>1026.7</ele>
        <time>2014-08-16T09:37:39.623Z</time>
      </trkpt>
      <trkpt lat="46.64982" lon="6.08564">
        <ele>1026.7</ele>
        <time>2014-08-16T09:37:43.567Z</time>
      </trkpt>
      <trkpt lat="46.64978" lon="6.08551">
        <ele>1026.5</ele>
        <time>2014-08-16T09:37:48.024Z</time>
      </trkpt>
      <trkpt lat="46.64979" lon="6.08538">
        <ele>1026.3</ele>
        <time>2014-08-16T09:37:51.880Z</time>
      </trkpt>
      <trkpt lat="46.64979" lon="6.08522">
        <ele>1025.3</ele>
        <time>2014-08-16T09:37:55.914Z</time>
      </trkpt>
      <trkpt lat="46.64975" lon="6.08509">
        <ele>1023.3</ele>
        <time>2014-08-16T09:37:59.510Z</time>
      </trkpt>
      <trkpt lat="46.64968" lon="6.08495">
        <ele>1021</ele>
        <time>2014-08-16T09:38:03.756Z</time>
      </trkpt>
      <trkpt lat="46.64953" lon="6.08471">
        <ele>1017.9</ele>
        <time>2014-08-16T09:38:10.942Z</time>
      </trkpt>
      <trkpt lat="46.64934" lon="6.08433">
        <ele>1017.5</ele>
        <time>2014-08-16T09:38:18.838Z</time>
      </trkpt>
      <trkpt lat="46.64881" lon="6.08362">
        <ele>1012.2</ele>
        <time>2014-08-16T09:38:33.909Z</time>
      </trkpt>
      <trkpt lat="46.64877" lon="6.08347">
        <ele>1012.8</ele>
        <time>2014-08-16T09:38:36.740Z</time>
      </trkpt>
      <trkpt lat="46.64867" lon="6.08218">
        <ele>1016.9</ele>
        <time>2014-08-16T09:38:55.256Z</time>
      </trkpt>
      <trkpt lat="46.64869" lon="6.08247">
        <ele>1012.2</ele>
        <time>2014-08-16T09:41:53.776Z</time>
      </trkpt>
      <trkpt lat="46.64868" lon="6.0826">
        <ele>1012.1</ele>
        <time>2014-08-16T09:41:57.915Z</time>
      </trkpt>
      <trkpt lat="46.64869" lon="6.08274">
        <ele>1012.6</ele>
        <time>2014-08-16T09:42:01.891Z</time>
      </trkpt>
      <trkpt lat="46.64881" lon="6.08359">
        <ele>1016.6</ele>
        <time>2014-08-16T09:42:28.596Z</time>
      </trkpt>
      <trkpt lat="46.64886" lon="6.0837">
        <ele>1017.3</ele>
        <time>2014-08-16T09:42:33.079Z</time>
      </trkpt>
      <trkpt lat="46.64913" lon="6.08411">
        <ele>1018.9</ele>
        <time>2014-08-16T09:42:56.798Z</time>
      </trkpt>
      <trkpt lat="46.64929" lon="6.08428">
        <ele>1018.3</ele>
        <time>2014-08-16T09:43:02.823Z</time>
      </trkpt>
      <trkpt lat="46.64936" lon="6.08439">
        <ele>1018.6</ele>
        <time>2014-08-16T09:43:05.939Z</time>
      </trkpt>
      <trkpt lat="46.6494" lon="6.08451">
        <ele>1019.4</ele>
        <time>2014-08-16T09:43:08.984Z</time>
      </trkpt>
      <trkpt lat="46.64961" lon="6.0849">
        <ele>1021.3</ele>
        <time>2014-08-16T09:43:21.411Z</time>
      </trkpt>
      <trkpt lat="46.64957" lon="6.08504">
        <ele>1020.9</ele>
        <time>2014-08-16T09:43:27.870Z</time>
      </trkpt>
      <trkpt lat="46.64939" lon="6.08511">
        <ele>1016.9</ele>
        <time>2014-08-16T09:43:36.759Z</time>
      </trkpt>
      <trkpt lat="46.64929" lon="6.08517">
        <ele>1014.3</ele>
        <time>2014-08-16T09:43:40.202Z</time>
      </trkpt>
      <trkpt lat="46.64921" lon="6.08523">
        <ele>1012.3</ele>
        <time>2014-08-16T09:43:43.470Z</time>
      </trkpt>
      <trkpt lat="46.64911" lon="6.08528">
        <ele>1010.9</ele>
        <time>2014-08-16T09:43:46.786Z</time>
      </trkpt>
      <trkpt lat="46.64902" lon="6.08535">
        <ele>1010.2</ele>
        <time>2014-08-16T09:43:50.711Z</time>
      </trkpt>
      <trkpt lat="46.6489" lon="6.08558">
        <ele>1010.6</ele>
        <time>2014-08-16T09:43:58.252Z</time>
      </trkpt>
      <trkpt lat="46.64872" lon="6.08564">
        <ele>1009.6</ele>
        <time>2014-08-16T09:44:18.100Z</time>
      </trkpt>
      <trkpt lat="46.64853" lon="6.08556">
        <ele>1009.7</ele>
        <time>2014-08-16T09:44:28.150Z</time>
      </trkpt>
      <trkpt lat="46.64835" lon="6.08543">
        <ele>1013.3</ele>
        <time>2014-08-16T09:44:37.562Z</time>
      </trkpt>
      <trkpt lat="46.64815" lon="6.08534">
        <ele>1017.6</ele>
        <time>2014-08-16T09:44:46.199Z</time>
      </trkpt>
      <trkpt lat="46.64807" lon="6.08528">
        <ele>1018.1</ele>
        <time>2014-08-16T09:44:50.497Z</time>
      </trkpt>
      <trkpt lat="46.64748" lon="6.08446">
        <ele>1019.8</ele>
        <time>2014-08-16T09:45:31.738Z</time>
      </trkpt>
      <trkpt lat="46.64709" lon="6.08413">
        <ele>1022.2</ele>
        <time>2014-08-16T09:46:01.917Z</time>
      </trkpt>
      <trkpt lat="46.64699" lon="6.08406">
        <ele>1022.3</ele>
        <time>2014-08-16T09:46:08.263Z</time>
      </trkpt>
      <trkpt lat="46.64691" lon="6.08398">
        <ele>1022.2</ele>
        <time>2014-08-16T09:46:12.746Z</time>
      </trkpt>
      <trkpt lat="46.64676" lon="6.08377">
        <ele>1021.7</ele>
        <time>2014-08-16T09:46:21.999Z</time>
      </trkpt>
      <trkpt lat="46.64664" lon="6.08355">
        <ele>1024.4</ele>
        <time>2014-08-16T09:46:30.565Z</time>
      </trkpt>
      <trkpt lat="46.6465" lon="6.08335">
        <ele>1025.6</ele>
        <time>2014-08-16T09:46:38.769Z</time>
      </trkpt>
      <trkpt lat="46.64642" lon="6.08328">
        <ele>1025.8</ele>
        <time>2014-08-16T09:46:42.465Z</time>
      </trkpt>
      <trkpt lat="46.64632" lon="6.0832">
        <ele>1025.8</ele>
        <time>2014-08-16T09:46:46.963Z</time>
      </trkpt>
      <trkpt lat="46.64625" lon="6.08312">
        <ele>1025.7</ele>
        <time>2014-08-16T09:46:50.658Z</time>
      </trkpt>
      <trkpt lat="46.64616" lon="6.08304">
        <ele>1024.7</ele>
        <time>2014-08-16T09:46:54.921Z</time>
      </trkpt>
      <trkpt lat="46.646" lon="6.08286">
        <ele>1025.5</ele>
        <time>2014-08-16T09:47:02.584Z</time>
      </trkpt>
      <trkpt lat="46.64591" lon="6.08277">
        <ele>1026.9</ele>
        <time>2014-08-16T09:47:06.199Z</time>
      </trkpt>
      <trkpt lat="46.64553" lon="6.08216">
        <ele>1026.1</ele>
        <time>2014-08-16T09:47:24.674Z</time>
      </trkpt>
      <trkpt lat="46.64544" lon="6.08204">
        <ele>1025.8</ele>
        <time>2014-08-16T09:47:27.599Z</time>
      </trkpt>
      <trkpt lat="46.64533" lon="6.08176">
        <ele>1023.9</ele>
        <time>2014-08-16T09:47:33.255Z</time>
      </trkpt>
      <trkpt lat="46.64518" lon="6.0817">
        <ele>1022.1</ele>
        <time>2014-08-16T09:47:40.506Z</time>
      </trkpt>
      <trkpt lat="46.64499" lon="6.08158">
        <ele>1020.9</ele>
        <time>2014-08-16T09:47:46.553Z</time>
      </trkpt>
      <trkpt lat="46.6449" lon="6.08153">
        <ele>1019.8</ele>
        <time>2014-08-16T09:47:49.359Z</time>
      </trkpt>
      <trkpt lat="46.64482" lon="6.08146">
        <ele>1018.8</ele>
        <time>2014-08-16T09:47:52.217Z</time>
      </trkpt>
      <trkpt lat="46.64471" lon="6.0814">
        <ele>1018.4</ele>
        <time>2014-08-16T09:47:55.454Z</time>
      </trkpt>
      <trkpt lat="46.64417" lon="6.08099">
        <ele>1018.8</ele>
        <time>2014-08-16T09:48:11.338Z</time>
      </trkpt>
      <trkpt lat="46.64405" lon="6.08088">
        <ele>1018.8</ele>
        <time>2014-08-16T09:48:14.464Z</time>
      </trkpt>
      <trkpt lat="46.64388" lon="6.08067">
        <ele>1018.7</ele>
        <time>2014-08-16T09:48:19.598Z</time>
      </trkpt>
      <trkpt lat="46.6429" lon="6.07915">
        <ele>1025.7</ele>
        <time>2014-08-16T09:48:49.774Z</time>
      </trkpt>
      <trkpt lat="46.64269" lon="6.07892">
        <ele>1030</ele>
        <time>2014-08-16T09:48:54.968Z</time>
      </trkpt>
      <trkpt lat="46.64257" lon="6.07876">
        <ele>1030.4</ele>
        <time>2014-08-16T09:48:58.162Z</time>
      </trkpt>
      <trkpt lat="46.64243" lon="6.07842">
        <ele>1027.3</ele>
        <time>2014-08-16T09:49:03.327Z</time>
      </trkpt>
      <trkpt lat="46.64234" lon="6.07804">
        <ele>1023.3</ele>
        <time>2014-08-16T09:49:08.549Z</time>
      </trkpt>
      <trkpt lat="46.64228" lon="6.07791">
        <ele>1022.4</ele>
        <time>2014-08-16T09:49:10.517Z</time>
      </trkpt>
      <trkpt lat="46.64218" lon="6.07775">
        <ele>1022</ele>
        <time>2014-08-16T09:49:13.298Z</time>
      </trkpt>
      <trkpt lat="46.64204" lon="6.07747">
        <ele>1022.5</ele>
        <time>2014-08-16T09:49:17.763Z</time>
      </trkpt>
      <trkpt lat="46.6419" lon="6.07707">
        <ele>1023.2</ele>
        <time>2014-08-16T09:49:23.750Z</time>
      </trkpt>
      <trkpt lat="46.64181" lon="6.0769">
        <ele>1023.4</ele>
        <time>2014-08-16T09:49:26.618Z</time>
      </trkpt>
      <trkpt lat="46.64144" lon="6.07643">
        <ele>1026.2</ele>
        <time>2014-08-16T09:49:36.423Z</time>
      </trkpt>
      <trkpt lat="46.64123" lon="6.07624">
        <ele>1029.7</ele>
        <time>2014-08-16T09:49:41.390Z</time>
      </trkpt>
      <trkpt lat="46.64018" lon="6.07516">
        <ele>1027.9</ele>
        <time>2014-08-16T09:50:08.463Z</time>
      </trkpt>
      <trkpt lat="46.64006" lon="6.07507">
        <ele>1025.7</ele>
        <time>2014-08-16T09:50:11.317Z</time>
      </trkpt>
      <trkpt lat="46.63995" lon="6.07496">
        <ele>1023.7</ele>
        <time>2014-08-16T09:50:14.222Z</time>
      </trkpt>
      <trkpt lat="46.6397" lon="6.07477">
        <ele>1022.7</ele>
        <time>2014-08-16T09:50:20.097Z</time>
      </trkpt>
      <trkpt lat="46.63961" lon="6.07474">
        <ele>1024</ele>
        <time>2014-08-16T09:50:22.154Z</time>
      </trkpt>
      <trkpt lat="46.6395" lon="6.07471">
        <ele>1025.8</ele>
        <time>2014-08-16T09:50:24.657Z</time>
      </trkpt>
      <trkpt lat="46.63941" lon="6.07477">
        <ele>1027.2</ele>
        <time>2014-08-16T09:50:26.927Z</time>
      </trkpt>
      <trkpt lat="46.63931" lon="6.07488">
        <ele>1027.9</ele>
        <time>2014-08-16T09:50:29.808Z</time>
      </trkpt>
      <trkpt lat="46.63924" lon="6.07502">
        <ele>1027.6</ele>
        <time>2014-08-16T09:50:32.520Z</time>
      </trkpt>
      <trkpt lat="46.63913" lon="6.07515">
        <ele>1026.7</ele>
        <time>2014-08-16T09:50:35.522Z</time>
      </trkpt>
      <trkpt lat="46.63894" lon="6.0752">
        <ele>1026.3</ele>
        <time>2014-08-16T09:50:39.635Z</time>
      </trkpt>
      <trkpt lat="46.6388" lon="6.0751">
        <ele>1026.8</ele>
        <time>2014-08-16T09:50:43.246Z</time>
      </trkpt>
      <trkpt lat="46.63867" lon="6.07497">
        <ele>1028.4</ele>
        <time>2014-08-16T09:50:47.218Z</time>
      </trkpt>
      <trkpt lat="46.63855" lon="6.07473">
        <ele>1031.4</ele>
        <time>2014-08-16T09:50:53.125Z</time>
      </trkpt>
      <trkpt lat="46.63849" lon="6.07447">
        <ele>1027.8</ele>
        <time>2014-08-16T09:50:59.211Z</time>
      </trkpt>
      <trkpt lat="46.63845" lon="6.0742">
        <ele>1025.4</ele>
        <time>2014-08-16T09:51:06.304Z</time>
      </trkpt>
      <trkpt lat="46.63839" lon="6.07406">
        <ele>1025.8</ele>
        <time>2014-08-16T09:51:10.518Z</time>
      </trkpt>
      <trkpt lat="46.63832" lon="6.07394">
        <ele>1027.3</ele>
        <time>2014-08-16T09:51:14.637Z</time>
      </trkpt>
      <trkpt lat="46.63826" lon="6.07382">
        <ele>1029.5</ele>
        <time>2014-08-16T09:51:18.670Z</time>
      </trkpt>
      <trkpt lat="46.63819" lon="6.07373">
        <ele>1031.6</ele>
        <time>2014-08-16T09:51:22.945Z</time>
      </trkpt>
      <trkpt lat="46.63814" lon="6.07361">
        <ele>1033.7</ele>
        <time>2014-08-16T09:51:27.374Z</time>
      </trkpt>
      <trkpt lat="46.63814" lon="6.07346">
        <ele>1035.8</ele>
        <time>2014-08-16T09:51:32.026Z</time>
      </trkpt>
      <trkpt lat="46.63821" lon="6.07319">
        <ele>1036.2</ele>
        <time>2014-08-16T09:51:41.090Z</time>
      </trkpt>
      <trkpt lat="46.6383" lon="6.07293">
        <ele>1036.5</ele>
        <time>2014-08-16T09:51:49.087Z</time>
      </trkpt>
      <trkpt lat="46.63832" lon="6.0728">
        <ele>1039.1</ele>
        <time>2014-08-16T09:51:52.901Z</time>
      </trkpt>
      <trkpt lat="46.63831" lon="6.07265">
        <ele>1041.2</ele>
        <time>2014-08-16T09:51:57.520Z</time>
      </trkpt>
      <trkpt lat="46.63827" lon="6.07252">
        <ele>1041.7</ele>
        <time>2014-08-16T09:52:01.585Z</time>
      </trkpt>
      <trkpt lat="46.63817" lon="6.07228">
        <ele>1042.2</ele>
        <time>2014-08-16T09:52:09.395Z</time>
      </trkpt>
      <trkpt lat="46.63808" lon="6.07219">
        <ele>1043.1</ele>
        <time>2014-08-16T09:52:13.953Z</time>
      </trkpt>
      <trkpt lat="46.638" lon="6.07212">
        <ele>1043.6</ele>
        <time>2014-08-16T09:52:18.085Z</time>
      </trkpt>
      <trkpt lat="46.63793" lon="6.072">
        <ele>1043.2</ele>
        <time>2014-08-16T09:52:22.675Z</time>
      </trkpt>
      <trkpt lat="46.63789" lon="6.07171">
        <ele>1041.2</ele>
        <time>2014-08-16T09:52:31.059Z</time>
      </trkpt>
      <trkpt lat="46.63784" lon="6.07159">
        <ele>1040.7</ele>
        <time>2014-08-16T09:52:34.915Z</time>
      </trkpt>
      <trkpt lat="46.63769" lon="6.07141">
        <ele>1040.5</ele>
        <time>2014-08-16T09:52:43.409Z</time>
      </trkpt>
      <trkpt lat="46.6376" lon="6.07134">
        <ele>1042</ele>
        <time>2014-08-16T09:52:48.380Z</time>
      </trkpt>
      <trkpt lat="46.63751" lon="6.0713">
        <ele>1044.8</ele>
        <time>2014-08-16T09:52:53.041Z</time>
      </trkpt>
      <trkpt lat="46.63742" lon="6.07123">
        <ele>1047.1</ele>
        <time>2014-08-16T09:52:57.943Z</time>
      </trkpt>
      <trkpt lat="46.63734" lon="6.07114">
        <ele>1047.6</ele>
        <time>2014-08-16T09:53:02.125Z</time>
      </trkpt>
      <trkpt lat="46.63729" lon="6.07099">
        <ele>1046.5</ele>
        <time>2014-08-16T09:53:06.916Z</time>
      </trkpt>
      <trkpt lat="46.63722" lon="6.07088">
        <ele>1044.8</ele>
        <time>2014-08-16T09:53:11.486Z</time>
      </trkpt>
      <trkpt lat="46.63713" lon="6.07082">
        <ele>1044.3</ele>
        <time>2014-08-16T09:53:16.544Z</time>
      </trkpt>
      <trkpt lat="46.63704" lon="6.07084">
        <ele>1046.2</ele>
        <time>2014-08-16T09:53:21.837Z</time>
      </trkpt>
      <trkpt lat="46.63696" lon="6.07092">
        <ele>1050.4</ele>
        <time>2014-08-16T09:53:28.622Z</time>
      </trkpt>
      <trkpt lat="46.63686" lon="6.07099">
        <ele>1055.6</ele>
        <time>2014-08-16T09:53:35.311Z</time>
      </trkpt>
      <trkpt lat="46.63676" lon="6.07101">
        <ele>1061.3</ele>
        <time>2014-08-16T09:53:39.731Z</time>
      </trkpt>
      <trkpt lat="46.63666" lon="6.07102">
        <ele>1066</ele>
        <time>2014-08-16T09:53:44.371Z</time>
      </trkpt>
      <trkpt lat="46.63657" lon="6.07105">
        <ele>1068.3</ele>
        <time>2014-08-16T09:53:48.376Z</time>
      </trkpt>
      <trkpt lat="46.6364" lon="6.0712">
        <ele>1063.1</ele>
        <time>2014-08-16T09:53:57.279Z</time>
      </trkpt>
      <trkpt lat="46.6363" lon="6.07143">
        <ele>1057.9</ele>
        <time>2014-08-16T09:54:18.803Z</time>
      </trkpt>
      <trkpt lat="46.63617" lon="6.07164">
        <ele>1059.1</ele>
        <time>2014-08-16T09:54:32.275Z</time>
      </trkpt>
      <trkpt lat="46.63609" lon="6.07172">
        <ele>1061.7</ele>
        <time>2014-08-16T09:54:38.598Z</time>
      </trkpt>
      <trkpt lat="46.63602" lon="6.07181">
        <ele>1065.3</ele>
        <time>2014-08-16T09:54:44.344Z</time>
      </trkpt>
      <trkpt lat="46.63585" lon="6.07193">
        <ele>1070.5</ele>
        <time>2014-08-16T09:54:55.510Z</time>
      </trkpt>
      <trkpt lat="46.63566" lon="6.07194">
        <ele>1069.4</ele>
        <time>2014-08-16T09:55:05.132Z</time>
      </trkpt>
      <trkpt lat="46.63557" lon="6.07187">
        <ele>1067.2</ele>
        <time>2014-08-16T09:55:10.372Z</time>
      </trkpt>
      <trkpt lat="46.63545" lon="6.07164">
        <ele>1063.4</ele>
        <time>2014-08-16T09:55:18.880Z</time>
      </trkpt>
      <trkpt lat="46.63538" lon="6.07153">
        <ele>1062.6</ele>
        <time>2014-08-16T09:55:23.047Z</time>
      </trkpt>
      <trkpt lat="46.63529" lon="6.07146">
        <ele>1062.3</ele>
        <time>2014-08-16T09:55:26.931Z</time>
      </trkpt>
      <trkpt lat="46.63519" lon="6.07142">
        <ele>1062.2</ele>
        <time>2014-08-16T09:55:30.257Z</time>
      </trkpt>
      <trkpt lat="46.635" lon="6.07143">
        <ele>1062</ele>
        <time>2014-08-16T09:55:44.832Z</time>
      </trkpt>
      <trkpt lat="46.63451" lon="6.07155">
        <ele>1066.4</ele>
        <time>2014-08-16T09:56:06.030Z</time>
      </trkpt>
      <trkpt lat="46.6344" lon="6.07156">
        <ele>1067.1</ele>
        <time>2014-08-16T09:56:10.008Z</time>
      </trkpt>
      <trkpt lat="46.6343" lon="6.07152">
        <ele>1067.8</ele>
        <time>2014-08-16T09:56:14.306Z</time>
      </trkpt>
      <trkpt lat="46.6342" lon="6.07146">
        <ele>1068.2</ele>
        <time>2014-08-16T09:56:18.749Z</time>
      </trkpt>
      <trkpt lat="46.63414" lon="6.07134">
        <ele>1068.4</ele>
        <time>2014-08-16T09:56:23.393Z</time>
      </trkpt>
      <trkpt lat="46.63411" lon="6.07115">
        <ele>1068.4</ele>
        <time>2014-08-16T09:56:28.728Z</time>
      </trkpt>
      <trkpt lat="46.63406" lon="6.07097">
        <ele>1068</ele>
        <time>2014-08-16T09:56:32.464Z</time>
      </trkpt>
      <trkpt lat="46.63392" lon="6.07084">
        <ele>1067</ele>
        <time>2014-08-16T09:56:35.330Z</time>
      </trkpt>
      <trkpt lat="46.63379" lon="6.07077">
        <ele>1065.5</ele>
        <time>2014-08-16T09:56:37.227Z</time>
      </trkpt>
      <trkpt lat="46.6336" lon="6.0706">
        <ele>1063.8</ele>
        <time>2014-08-16T09:56:40.299Z</time>
      </trkpt>
      <trkpt lat="46.63349" lon="6.07046">
        <ele>1062.3</ele>
        <time>2014-08-16T09:56:42.317Z</time>
      </trkpt>
      <trkpt lat="46.63316" lon="6.06966">
        <ele>1062</ele>
        <time>2014-08-16T09:56:50.323Z</time>
      </trkpt>
      <trkpt lat="46.63311" lon="6.06929">
        <ele>1061.6</ele>
        <time>2014-08-16T09:56:53.194Z</time>
      </trkpt>
      <trkpt lat="46.63309" lon="6.06843">
        <ele>1056.2</ele>
        <time>2014-08-16T09:56:59.894Z</time>
      </trkpt>
      <trkpt lat="46.63296" lon="6.06813">
        <ele>1054.3</ele>
        <time>2014-08-16T09:57:02.948Z</time>
      </trkpt>
      <trkpt lat="46.63283" lon="6.06801">
        <ele>1052.3</ele>
        <time>2014-08-16T09:57:04.933Z</time>
      </trkpt>
      <trkpt lat="46.63268" lon="6.06795">
        <ele>1050.3</ele>
        <time>2014-08-16T09:57:06.802Z</time>
      </trkpt>
      <trkpt lat="46.63245" lon="6.06791">
        <ele>1048.8</ele>
        <time>2014-08-16T09:57:09.667Z</time>
      </trkpt>
      <trkpt lat="46.63229" lon="6.06786">
        <ele>1048.1</ele>
        <time>2014-08-16T09:57:11.669Z</time>
      </trkpt>
      <trkpt lat="46.63209" lon="6.06772">
        <ele>1047.9</ele>
        <time>2014-08-16T09:57:15.847Z</time>
      </trkpt>
      <trkpt lat="46.63181" lon="6.06749">
        <ele>1046.8</ele>
        <time>2014-08-16T09:57:27.768Z</time>
      </trkpt>
      <trkpt lat="46.6317" lon="6.06744">
        <ele>1045.7</ele>
        <time>2014-08-16T09:57:31.588Z</time>
      </trkpt>
      <trkpt lat="46.63158" lon="6.0674">
        <ele>1045.5</ele>
        <time>2014-08-16T09:57:35.685Z</time>
      </trkpt>
      <trkpt lat="46.63116" lon="6.06719">
        <ele>1057.7</ele>
        <time>2014-08-16T09:57:51.118Z</time>
      </trkpt>
      <trkpt lat="46.63097" lon="6.06716">
        <ele>1056.6</ele>
        <time>2014-08-16T09:57:58.083Z</time>
      </trkpt>
      <trkpt lat="46.63086" lon="6.06715">
        <ele>1056.6</ele>
        <time>2014-08-16T09:58:02.151Z</time>
      </trkpt>
      <trkpt lat="46.63076" lon="6.06711">
        <ele>1057.1</ele>
        <time>2014-08-16T09:58:06.132Z</time>
      </trkpt>
      <trkpt lat="46.63069" lon="6.06699">
        <ele>1057.2</ele>
        <time>2014-08-16T09:58:10.258Z</time>
      </trkpt>
      <trkpt lat="46.63062" lon="6.06673">
        <ele>1055.6</ele>
        <time>2014-08-16T09:58:19.635Z</time>
      </trkpt>
      <trkpt lat="46.63057" lon="6.0666">
        <ele>1054.7</ele>
        <time>2014-08-16T09:58:22.488Z</time>
      </trkpt>
      <trkpt lat="46.63049" lon="6.0665">
        <ele>1052.7</ele>
        <time>2014-08-16T09:58:25.383Z</time>
      </trkpt>
      <trkpt lat="46.63041" lon="6.06643">
        <ele>1051.4</ele>
        <time>2014-08-16T09:58:28.188Z</time>
      </trkpt>
      <trkpt lat="46.63026" lon="6.06623">
        <ele>1052.8</ele>
        <time>2014-08-16T09:58:33.384Z</time>
      </trkpt>
      <trkpt lat="46.63016" lon="6.06615">
        <ele>1052.2</ele>
        <time>2014-08-16T09:58:36.258Z</time>
      </trkpt>
      <trkpt lat="46.62992" lon="6.0662">
        <ele>1051.1</ele>
        <time>2014-08-16T09:58:45.518Z</time>
      </trkpt>
      <trkpt lat="46.62944" lon="6.06668">
        <ele>1061.9</ele>
        <time>2014-08-16T09:58:58.218Z</time>
      </trkpt>
      <trkpt lat="46.62921" lon="6.067">
        <ele>1055.3</ele>
        <time>2014-08-16T09:59:07.708Z</time>
      </trkpt>
      <trkpt lat="46.62913" lon="6.06708">
        <ele>1052.5</ele>
        <time>2014-08-16T09:59:10.858Z</time>
      </trkpt>
      <trkpt lat="46.62903" lon="6.06712">
        <ele>1050.5</ele>
        <time>2014-08-16T09:59:13.882Z</time>
      </trkpt>
      <trkpt lat="46.62893" lon="6.06711">
        <ele>1049.8</ele>
        <time>2014-08-16T09:59:16.237Z</time>
      </trkpt>
      <trkpt lat="46.62878" lon="6.06706">
        <ele>1051</ele>
        <time>2014-08-16T09:59:19.759Z</time>
      </trkpt>
      <trkpt lat="46.6287" lon="6.06698">
        <ele>1052.1</ele>
        <time>2014-08-16T09:59:21.666Z</time>
      </trkpt>
      <trkpt lat="46.62861" lon="6.06683">
        <ele>1051</ele>
        <time>2014-08-16T09:59:24.264Z</time>
      </trkpt>
      <trkpt lat="46.62857" lon="6.06671">
        <ele>1047.9</ele>
        <time>2014-08-16T09:59:25.932Z</time>
      </trkpt>
      <trkpt lat="46.62851" lon="6.06659">
        <ele>1045</ele>
        <time>2014-08-16T09:59:27.597Z</time>
      </trkpt>
      <trkpt lat="46.62835" lon="6.06645">
        <ele>1043.8</ele>
        <time>2014-08-16T09:59:30.306Z</time>
      </trkpt>
      <trkpt lat="46.62814" lon="6.06635">
        <ele>1044.2</ele>
        <time>2014-08-16T09:59:33.412Z</time>
      </trkpt>
      <trkpt lat="46.62801" lon="6.06625">
        <ele>1045.4</ele>
        <time>2014-08-16T09:59:35.612Z</time>
      </trkpt>
      <trkpt lat="46.62783" lon="6.06605">
        <ele>1047.4</ele>
        <time>2014-08-16T09:59:39.471Z</time>
      </trkpt>
      <trkpt lat="46.62769" lon="6.06593">
        <ele>1047.5</ele>
        <time>2014-08-16T09:59:42.365Z</time>
      </trkpt>
      <trkpt lat="46.62661" lon="6.06517">
        <ele>1045.9</ele>
        <time>2014-08-16T10:00:10.296Z</time>
      </trkpt>
      <trkpt lat="46.62651" lon="6.06509">
        <ele>1046.8</ele>
        <time>2014-08-16T10:00:12.941Z</time>
      </trkpt>
      <trkpt lat="46.62617" lon="6.06493">
        <ele>1050.8</ele>
        <time>2014-08-16T10:00:20.796Z</time>
      </trkpt>
      <trkpt lat="46.62605" lon="6.06484">
        <ele>1052</ele>
        <time>2014-08-16T10:00:23.555Z</time>
      </trkpt>
      <trkpt lat="46.62581" lon="6.06454">
        <ele>1051.9</ele>
        <time>2014-08-16T10:00:28.899Z</time>
      </trkpt>
      <trkpt lat="46.6257" lon="6.06431">
        <ele>1049.6</ele>
        <time>2014-08-16T10:00:31.763Z</time>
      </trkpt>
      <trkpt lat="46.6257" lon="6.0641">
        <ele>1046.8</ele>
        <time>2014-08-16T10:00:33.881Z</time>
      </trkpt>
      <trkpt lat="46.62562" lon="6.0638">
        <ele>1045</ele>
        <time>2014-08-16T10:00:36.859Z</time>
      </trkpt>
      <trkpt lat="46.62551" lon="6.06369">
        <ele>1044.1</ele>
        <time>2014-08-16T10:00:38.786Z</time>
      </trkpt>
      <trkpt lat="46.62534" lon="6.06359">
        <ele>1042.9</ele>
        <time>2014-08-16T10:00:41.683Z</time>
      </trkpt>
      <trkpt lat="46.62524" lon="6.06364">
        <ele>1041.3</ele>
        <time>2014-08-16T10:00:43.913Z</time>
      </trkpt>
      <trkpt lat="46.62508" lon="6.06375">
        <ele>1040</ele>
        <time>2014-08-16T10:00:47.866Z</time>
      </trkpt>
      <trkpt lat="46.62483" lon="6.06398">
        <ele>1038.1</ele>
        <time>2014-08-16T10:01:26.816Z</time>
      </trkpt>
      <trkpt lat="46.62456" lon="6.06407">
        <ele>1037.1</ele>
        <time>2014-08-16T10:01:31.879Z</time>
      </trkpt>
      <trkpt lat="46.62439" lon="6.06411">
        <ele>1035</ele>
        <time>2014-08-16T10:01:34.931Z</time>
      </trkpt>
      <trkpt lat="46.62429" lon="6.06413">
        <ele>1032.8</ele>
        <time>2014-08-16T10:01:36.924Z</time>
      </trkpt>
      <trkpt lat="46.62417" lon="6.06419">
        <ele>1031.6</ele>
        <time>2014-08-16T10:01:39.550Z</time>
      </trkpt>
      <trkpt lat="46.62408" lon="6.06436">
        <ele>1030.8</ele>
        <time>2014-08-16T10:01:42.549Z</time>
      </trkpt>
      <trkpt lat="46.6237" lon="6.06554">
        <ele>1028.4</ele>
        <time>2014-08-16T10:01:57.423Z</time>
      </trkpt>
      <trkpt lat="46.62361" lon="6.0657">
        <ele>1029.3</ele>
        <time>2014-08-16T10:01:59.994Z</time>
      </trkpt>
      <trkpt lat="46.62351" lon="6.0658">
        <ele>1028.9</ele>
        <time>2014-08-16T10:02:02.251Z</time>
      </trkpt>
      <trkpt lat="46.62341" lon="6.06583">
        <ele>1028.1</ele>
        <time>2014-08-16T10:02:04.527Z</time>
      </trkpt>
      <trkpt lat="46.62329" lon="6.06585">
        <ele>1028.5</ele>
        <time>2014-08-16T10:02:07.478Z</time>
      </trkpt>
      <trkpt lat="46.6232" lon="6.06588">
        <ele>1031.8</ele>
        <time>2014-08-16T10:02:10.094Z</time>
      </trkpt>
      <trkpt lat="46.62307" lon="6.06594">
        <ele>1037.8</ele>
        <time>2014-08-16T10:02:14.126Z</time>
      </trkpt>
      <trkpt lat="46.62272" lon="6.06634">
        <ele>1041.2</ele>
        <time>2014-08-16T10:02:31.260Z</time>
      </trkpt>
      <trkpt lat="46.6226" lon="6.0664">
        <ele>1040.1</ele>
        <time>2014-08-16T10:02:37.263Z</time>
      </trkpt>
      <trkpt lat="46.62233" lon="6.06667">
        <ele>1038</ele>
        <time>2014-08-16T10:02:56.433Z</time>
      </trkpt>
      <trkpt lat="46.62209" lon="6.06696">
        <ele>1040.5</ele>
        <time>2014-08-16T10:03:08.033Z</time>
      </trkpt>
      <trkpt lat="46.62191" lon="6.06712">
        <ele>1035.3</ele>
        <time>2014-08-16T10:03:15.803Z</time>
      </trkpt>
      <trkpt lat="46.62158" lon="6.06722">
        <ele>1035</ele>
        <time>2014-08-16T10:03:28.870Z</time>
      </trkpt>
      <trkpt lat="46.62118" lon="6.06743">
        <ele>1037.4</ele>
        <time>2014-08-16T10:03:50.982Z</time>
      </trkpt>
      <trkpt lat="46.62098" lon="6.0675">
        <ele>1041</ele>
        <time>2014-08-16T10:04:01.534Z</time>
      </trkpt>
      <trkpt lat="46.62089" lon="6.06756">
        <ele>1042.1</ele>
        <time>2014-08-16T10:04:06.737Z</time>
      </trkpt>
      <trkpt lat="46.62079" lon="6.0678">
        <ele>1047.2</ele>
        <time>2014-08-16T10:04:18.125Z</time>
      </trkpt>
      <trkpt lat="46.6207" lon="6.06788">
        <ele>1049.1</ele>
        <time>2014-08-16T10:04:23.757Z</time>
      </trkpt>
      <trkpt lat="46.62061" lon="6.06796">
        <ele>1048.1</ele>
        <time>2014-08-16T10:04:28.993Z</time>
      </trkpt>
      <trkpt lat="46.6205" lon="6.06818">
        <ele>1044.7</ele>
        <time>2014-08-16T10:04:38.963Z</time>
      </trkpt>
      <trkpt lat="46.62028" lon="6.06882">
        <ele>1062.6</ele>
        <time>2014-08-16T10:05:02.578Z</time>
      </trkpt>
      <trkpt lat="46.62025" lon="6.06897">
        <ele>1060.7</ele>
        <time>2014-08-16T10:05:07.306Z</time>
      </trkpt>
      <trkpt lat="46.62024" lon="6.06924">
        <ele>1055.3</ele>
        <time>2014-08-16T10:05:20.494Z</time>
      </trkpt>
      <trkpt lat="46.62011" lon="6.06947">
        <ele>1064.9</ele>
        <time>2014-08-16T10:05:34.039Z</time>
      </trkpt>
      <trkpt lat="46.62007" lon="6.0696">
        <ele>1074.3</ele>
        <time>2014-08-16T10:05:37.709Z</time>
      </trkpt>
      <trkpt lat="46.61992" lon="6.06995">
        <ele>1088.5</ele>
        <time>2014-08-16T10:05:49.583Z</time>
      </trkpt>
      <trkpt lat="46.61984" lon="6.07003">
        <ele>1086.2</ele>
        <time>2014-08-16T10:05:53.900Z</time>
      </trkpt>
      <trkpt lat="46.61973" lon="6.07009">
        <ele>1085.6</ele>
        <time>2014-08-16T10:05:58.976Z</time>
      </trkpt>
      <trkpt lat="46.61965" lon="6.07018">
        <ele>1086.9</ele>
        <time>2014-08-16T10:06:03.261Z</time>
      </trkpt>
      <trkpt lat="46.61956" lon="6.07023">
        <ele>1088.6</ele>
        <time>2014-08-16T10:06:07.081Z</time>
      </trkpt>
      <trkpt lat="46.61948" lon="6.07032">
        <ele>1088.9</ele>
        <time>2014-08-16T10:06:11.295Z</time>
      </trkpt>
      <trkpt lat="46.61942" lon="6.07043">
        <ele>1086</ele>
        <time>2014-08-16T10:06:14.955Z</time>
      </trkpt>
      <trkpt lat="46.61937" lon="6.07058">
        <ele>1081.1</ele>
        <time>2014-08-16T10:06:19.577Z</time>
      </trkpt>
      <trkpt lat="46.61935" lon="6.07072">
        <ele>1075.2</ele>
        <time>2014-08-16T10:06:23.570Z</time>
      </trkpt>
      <trkpt lat="46.61922" lon="6.07095">
        <ele>1073.8</ele>
        <time>2014-08-16T10:06:32.272Z</time>
      </trkpt>
      <trkpt lat="46.61898" lon="6.07128">
        <ele>1072</ele>
        <time>2014-08-16T10:12:16.664Z</time>
      </trkpt>
      <trkpt lat="46.61879" lon="6.07142">
        <ele>1074</ele>
        <time>2014-08-16T10:12:29.975Z</time>
      </trkpt>
      <trkpt lat="46.61869" lon="6.07148">
        <ele>1076.9</ele>
        <time>2014-08-16T10:12:35.403Z</time>
      </trkpt>
      <trkpt lat="46.61847" lon="6.07178">
        <ele>1085.4</ele>
        <time>2014-08-16T10:12:47.941Z</time>
      </trkpt>
      <trkpt lat="46.61839" lon="6.07187">
        <ele>1085.5</ele>
        <time>2014-08-16T10:12:52.113Z</time>
      </trkpt>
      <trkpt lat="46.61832" lon="6.07196">
        <ele>1084.6</ele>
        <time>2014-08-16T10:12:55.808Z</time>
      </trkpt>
      <trkpt lat="46.61823" lon="6.07204">
        <ele>1083.2</ele>
        <time>2014-08-16T10:12:59.716Z</time>
      </trkpt>
      <trkpt lat="46.61798" lon="6.07215">
        <ele>1080.3</ele>
        <time>2014-08-16T10:14:01.830Z</time>
      </trkpt>
      <trkpt lat="46.61778" lon="6.07205">
        <ele>1082.7</ele>
        <time>2014-08-16T10:14:12.726Z</time>
      </trkpt>
      <trkpt lat="46.61769" lon="6.07203">
        <ele>1085.3</ele>
        <time>2014-08-16T10:14:17.303Z</time>
      </trkpt>
      <trkpt lat="46.61731" lon="6.072">
        <ele>1088</ele>
        <time>2014-08-16T10:14:36.294Z</time>
      </trkpt>
      <trkpt lat="46.61713" lon="6.072">
        <ele>1089.6</ele>
        <time>2014-08-16T10:14:47.100Z</time>
      </trkpt>
      <trkpt lat="46.61693" lon="6.07204">
        <ele>1091</ele>
        <time>2014-08-16T10:14:59.844Z</time>
      </trkpt>
      <trkpt lat="46.61683" lon="6.07206">
        <ele>1089.6</ele>
        <time>2014-08-16T10:15:04.591Z</time>
      </trkpt>
      <trkpt lat="46.61672" lon="6.07211">
        <ele>1088.4</ele>
        <time>2014-08-16T10:15:09.267Z</time>
      </trkpt>
      <trkpt lat="46.61654" lon="6.07222">
        <ele>1089.6</ele>
        <time>2014-08-16T10:15:18.269Z</time>
      </trkpt>
      <trkpt lat="46.61632" lon="6.07227">
        <ele>1088.1</ele>
        <time>2014-08-16T10:16:10.622Z</time>
      </trkpt>
      <trkpt lat="46.61615" lon="6.07245">
        <ele>1090.2</ele>
        <time>2014-08-16T10:16:17.439Z</time>
      </trkpt>
      <trkpt lat="46.61604" lon="6.07255">
        <ele>1094.7</ele>
        <time>2014-08-16T10:16:20.440Z</time>
      </trkpt>
      <trkpt lat="46.61596" lon="6.07264">
        <ele>1100.1</ele>
        <time>2014-08-16T10:16:22.919Z</time>
      </trkpt>
      <trkpt lat="46.61569" lon="6.07283">
        <ele>1100.3</ele>
        <time>2014-08-16T10:16:29.517Z</time>
      </trkpt>
      <trkpt lat="46.61559" lon="6.07292">
        <ele>1095.3</ele>
        <time>2014-08-16T10:16:31.705Z</time>
      </trkpt>
      <trkpt lat="46.61549" lon="6.07306">
        <ele>1090.8</ele>
        <time>2014-08-16T10:16:34.179Z</time>
      </trkpt>
      <trkpt lat="46.61543" lon="6.07317">
        <ele>1088</ele>
        <time>2014-08-16T10:16:35.546Z</time>
      </trkpt>
      <trkpt lat="46.61489" lon="6.07398">
        <ele>1093.7</ele>
        <time>2014-08-16T10:16:45.837Z</time>
      </trkpt>
      <trkpt lat="46.61471" lon="6.07421">
        <ele>1092.1</ele>
        <time>2014-08-16T10:16:49.540Z</time>
      </trkpt>
      <trkpt lat="46.61439" lon="6.07483">
        <ele>1080.2</ele>
        <time>2014-08-16T10:16:58.656Z</time>
      </trkpt>
      <trkpt lat="46.61422" lon="6.07525">
        <ele>1078.9</ele>
        <time>2014-08-16T10:17:04.912Z</time>
      </trkpt>
      <trkpt lat="46.61398" lon="6.07612">
        <ele>1075.2</ele>
        <time>2014-08-16T10:17:17.053Z</time>
      </trkpt>
      <trkpt lat="46.61392" lon="6.07621">
        <ele>1072.5</ele>
        <time>2014-08-16T10:17:18.844Z</time>
      </trkpt>
      <trkpt lat="46.61367" lon="6.0767">
        <ele>1075.5</ele>
        <time>2014-08-16T10:17:27.772Z</time>
      </trkpt>
      <trkpt lat="46.61355" lon="6.07687">
        <ele>1077.5</ele>
        <time>2014-08-16T10:17:31.196Z</time>
      </trkpt>
      <trkpt lat="46.61337" lon="6.07705">
        <ele>1078.1</ele>
        <time>2014-08-16T10:17:35.434Z</time>
      </trkpt>
      <trkpt lat="46.61298" lon="6.07783">
        <ele>1091.9</ele>
        <time>2014-08-16T10:17:47.682Z</time>
      </trkpt>
      <trkpt lat="46.61277" lon="6.07916">
        <ele>1083.1</ele>
        <time>2014-08-16T10:18:05.232Z</time>
      </trkpt>
      <trkpt lat="46.61272" lon="6.07932">
        <ele>1076.9</ele>
        <time>2014-08-16T10:18:07.651Z</time>
      </trkpt>
      <trkpt lat="46.61239" lon="6.0799">
        <ele>1086.7</ele>
        <time>2014-08-16T10:18:16.948Z</time>
      </trkpt>
      <trkpt lat="46.61226" lon="6.08016">
        <ele>1088.1</ele>
        <time>2014-08-16T10:18:21.021Z</time>
      </trkpt>
      <trkpt lat="46.61219" lon="6.08037">
        <ele>1087.3</ele>
        <time>2014-08-16T10:18:24.368Z</time>
      </trkpt>
      <trkpt lat="46.61215" lon="6.08075">
        <ele>1081.4</ele>
        <time>2014-08-16T10:18:31.334Z</time>
      </trkpt>
      <trkpt lat="46.61217" lon="6.08158">
        <ele>1064.3</ele>
        <time>2014-08-16T10:18:46.704Z</time>
      </trkpt>
      <trkpt lat="46.61215" lon="6.08176">
        <ele>1063</ele>
        <time>2014-08-16T10:18:49.801Z</time>
      </trkpt>
      <trkpt lat="46.6121" lon="6.08189">
        <ele>1062.4</ele>
        <time>2014-08-16T10:18:52.092Z</time>
      </trkpt>
      <trkpt lat="46.61199" lon="6.08213">
        <ele>1063</ele>
        <time>2014-08-16T10:18:56.756Z</time>
      </trkpt>
      <trkpt lat="46.61186" lon="6.08256">
        <ele>1064.9</ele>
        <time>2014-08-16T10:19:03.533Z</time>
      </trkpt>
      <trkpt lat="46.61171" lon="6.08281">
        <ele>1065.6</ele>
        <time>2014-08-16T10:19:08.010Z</time>
      </trkpt>
      <trkpt lat="46.61106" lon="6.08374">
        <ele>1064.8</ele>
        <time>2014-08-16T10:19:26.674Z</time>
      </trkpt>
      <trkpt lat="46.61094" lon="6.08395">
        <ele>1063.3</ele>
        <time>2014-08-16T10:19:30.859Z</time>
      </trkpt>
      <trkpt lat="46.61078" lon="6.08428">
        <ele>1062.9</ele>
        <time>2014-08-16T10:19:36.113Z</time>
      </trkpt>
      <trkpt lat="46.61052" lon="6.08465">
        <ele>1063.7</ele>
        <time>2014-08-16T10:19:44.098Z</time>
      </trkpt>
      <trkpt lat="46.61047" lon="6.08478">
        <ele>1062.7</ele>
        <time>2014-08-16T10:19:48.191Z</time>
      </trkpt>
      <trkpt lat="46.61042" lon="6.08496">
        <ele>1061.6</ele>
        <time>2014-08-16T10:19:53.909Z</time>
      </trkpt>
      <trkpt lat="46.61036" lon="6.08508">
        <ele>1060.9</ele>
        <time>2014-08-16T10:19:56.938Z</time>
      </trkpt>
      <trkpt lat="46.60995" lon="6.08563">
        <ele>1057.3</ele>
        <time>2014-08-16T10:20:11.389Z</time>
      </trkpt>
      <trkpt lat="46.60964" lon="6.08574">
        <ele>1056.6</ele>
        <time>2014-08-16T10:20:18.533Z</time>
      </trkpt>
      <trkpt lat="46.60953" lon="6.08578">
        <ele>1057.8</ele>
        <time>2014-08-16T10:20:20.759Z</time>
      </trkpt>
      <trkpt lat="46.60943" lon="6.08582">
        <ele>1058.7</ele>
        <time>2014-08-16T10:20:23.029Z</time>
      </trkpt>
      <trkpt lat="46.60904" lon="6.08611">
        <ele>1059</ele>
        <time>2014-08-16T10:20:32.367Z</time>
      </trkpt>
      <trkpt lat="46.60848" lon="6.08644">
        <ele>1056.4</ele>
        <time>2014-08-16T10:20:47.123Z</time>
      </trkpt>
      <trkpt lat="46.60826" lon="6.08664">
        <ele>1057</ele>
        <time>2014-08-16T10:20:51.267Z</time>
      </trkpt>
      <trkpt lat="46.60808" lon="6.08683">
        <ele>1058.2</ele>
        <time>2014-08-16T10:20:54.441Z</time>
      </trkpt>
      <trkpt lat="46.60797" lon="6.0869">
        <ele>1059</ele>
        <time>2014-08-16T10:20:56.243Z</time>
      </trkpt>
      <trkpt lat="46.60782" lon="6.087">
        <ele>1059.6</ele>
        <time>2014-08-16T10:20:58.720Z</time>
      </trkpt>
      <trkpt lat="46.60772" lon="6.08711">
        <ele>1059.6</ele>
        <time>2014-08-16T10:21:00.624Z</time>
      </trkpt>
      <trkpt lat="46.60758" lon="6.08732">
        <ele>1058.9</ele>
        <time>2014-08-16T10:21:04.020Z</time>
      </trkpt>
      <trkpt lat="46.60739" lon="6.08771">
        <ele>1056.8</ele>
        <time>2014-08-16T10:21:09.953Z</time>
      </trkpt>
      <trkpt lat="46.6073" lon="6.08793">
        <ele>1056.2</ele>
        <time>2014-08-16T10:21:13.496Z</time>
      </trkpt>
      <trkpt lat="46.60709" lon="6.08876">
        <ele>1056.6</ele>
        <time>2014-08-16T10:21:25.794Z</time>
      </trkpt>
      <trkpt lat="46.60654" lon="6.08997">
        <ele>1056.5</ele>
        <time>2014-08-16T10:21:43.960Z</time>
      </trkpt>
      <trkpt lat="46.60644" lon="6.09015">
        <ele>1057.2</ele>
        <time>2014-08-16T10:21:46.674Z</time>
      </trkpt>
      <trkpt lat="46.60619" lon="6.09047">
        <ele>1058.6</ele>
        <time>2014-08-16T10:21:52.537Z</time>
      </trkpt>
      <trkpt lat="46.60596" lon="6.09067">
        <ele>1059.5</ele>
        <time>2014-08-16T10:21:57.388Z</time>
      </trkpt>
      <trkpt lat="46.60581" lon="6.09079">
        <ele>1059.2</ele>
        <time>2014-08-16T10:22:00.540Z</time>
      </trkpt>
      <trkpt lat="46.60572" lon="6.09087">
        <ele>1059.1</ele>
        <time>2014-08-16T10:22:02.352Z</time>
      </trkpt>
      <trkpt lat="46.60538" lon="6.09125">
        <ele>1059.9</ele>
        <time>2014-08-16T10:22:10.799Z</time>
      </trkpt>
      <trkpt lat="46.60527" lon="6.09131">
        <ele>1059.4</ele>
        <time>2014-08-16T10:22:13.303Z</time>
      </trkpt>
      <trkpt lat="46.60502" lon="6.0914">
        <ele>1058.8</ele>
        <time>2014-08-16T10:22:18.778Z</time>
      </trkpt>
      <trkpt lat="46.60487" lon="6.09143">
        <ele>1060.2</ele>
        <time>2014-08-16T10:22:21.749Z</time>
      </trkpt>
      <trkpt lat="46.60473" lon="6.09145">
        <ele>1062.2</ele>
        <time>2014-08-16T10:22:24.696Z</time>
      </trkpt>
      <trkpt lat="46.60462" lon="6.09148">
        <ele>1063.6</ele>
        <time>2014-08-16T10:22:27.009Z</time>
      </trkpt>
      <trkpt lat="46.60393" lon="6.09157">
        <ele>1061</ele>
        <time>2014-08-16T10:22:40.665Z</time>
      </trkpt>
      <trkpt lat="46.60325" lon="6.09158">
        <ele>1061.9</ele>
        <time>2014-08-16T10:22:55.563Z</time>
      </trkpt>
      <trkpt lat="46.60316" lon="6.09161">
        <ele>1061.6</ele>
        <time>2014-08-16T10:22:57.753Z</time>
      </trkpt>
      <trkpt lat="46.60284" lon="6.09178">
        <ele>1058.6</ele>
        <time>2014-08-16T10:23:05.551Z</time>
      </trkpt>
      <trkpt lat="46.60216" lon="6.09228">
        <ele>1060.6</ele>
        <time>2014-08-16T10:23:19.280Z</time>
      </trkpt>
      <trkpt lat="46.60193" lon="6.09251">
        <ele>1061.4</ele>
        <time>2014-08-16T10:23:23.547Z</time>
      </trkpt>
      <trkpt lat="46.60178" lon="6.09269">
        <ele>1061.9</ele>
        <time>2014-08-16T10:23:26.419Z</time>
      </trkpt>
      <trkpt lat="46.60134" lon="6.09315">
        <ele>1059.6</ele>
        <time>2014-08-16T10:23:36.072Z</time>
      </trkpt>
      <trkpt lat="46.60029" lon="6.09425">
        <ele>1061.9</ele>
        <time>2014-08-16T10:24:02.748Z</time>
      </trkpt>
      <trkpt lat="46.59987" lon="6.09449">
        <ele>1065.9</ele>
        <time>2014-08-16T10:24:15.120Z</time>
      </trkpt>
      <trkpt lat="46.59962" lon="6.09475">
        <ele>1068.3</ele>
        <time>2014-08-16T10:24:24.021Z</time>
      </trkpt>
      <trkpt lat="46.59955" lon="6.09484">
        <ele>1067.1</ele>
        <time>2014-08-16T10:24:26.702Z</time>
      </trkpt>
      <trkpt lat="46.59947" lon="6.09496">
        <ele>1065.7</ele>
        <time>2014-08-16T10:24:29.815Z</time>
      </trkpt>
      <trkpt lat="46.59906" lon="6.09613">
        <ele>1067.4</ele>
        <time>2014-08-16T10:24:53.293Z</time>
      </trkpt>
      <trkpt lat="46.599" lon="6.09625">
        <ele>1067.5</ele>
        <time>2014-08-16T10:24:57.272Z</time>
      </trkpt>
      <trkpt lat="46.59928" lon="6.09773">
        <ele>1067.3</ele>
        <time>2014-08-16T10:28:48.241Z</time>
      </trkpt>
      <trkpt lat="46.59932" lon="6.09785">
        <ele>1069.4</ele>
        <time>2014-08-16T10:28:51.794Z</time>
      </trkpt>
      <trkpt lat="46.59936" lon="6.09799">
        <ele>1071.6</ele>
        <time>2014-08-16T10:28:55.006Z</time>
      </trkpt>
      <trkpt lat="46.59931" lon="6.09826">
        <ele>1072.4</ele>
        <time>2014-08-16T10:29:00.481Z</time>
      </trkpt>
      <trkpt lat="46.5993" lon="6.09839">
        <ele>1071.9</ele>
        <time>2014-08-16T10:29:03.186Z</time>
      </trkpt>
      <trkpt lat="46.59934" lon="6.0987">
        <ele>1071.2</ele>
        <time>2014-08-16T10:29:10.142Z</time>
      </trkpt>
      <trkpt lat="46.5994" lon="6.09899">
        <ele>1074.8</ele>
        <time>2014-08-16T10:29:17.254Z</time>
      </trkpt>
      <trkpt lat="46.59945" lon="6.09913">
        <ele>1076.8</ele>
        <time>2014-08-16T10:29:20.810Z</time>
      </trkpt>
      <trkpt lat="46.5995" lon="6.09925">
        <ele>1077</ele>
        <time>2014-08-16T10:29:23.885Z</time>
      </trkpt>
      <trkpt lat="46.59959" lon="6.09971">
        <ele>1075.3</ele>
        <time>2014-08-16T10:29:34.900Z</time>
      </trkpt>
      <trkpt lat="46.5996" lon="6.09987">
        <ele>1077.2</ele>
        <time>2014-08-16T10:29:38.789Z</time>
      </trkpt>
      <trkpt lat="46.59964" lon="6.09999">
        <ele>1077.5</ele>
        <time>2014-08-16T10:29:42.428Z</time>
      </trkpt>
      <trkpt lat="46.59974" lon="6.10003">
        <ele>1076.1</ele>
        <time>2014-08-16T10:29:46.515Z</time>
      </trkpt>
      <trkpt lat="46.59985" lon="6.10012">
        <ele>1074.6</ele>
        <time>2014-08-16T10:29:51.796Z</time>
      </trkpt>
      <trkpt lat="46.59993" lon="6.10022">
        <ele>1073.9</ele>
        <time>2014-08-16T10:29:55.612Z</time>
      </trkpt>
      <trkpt lat="46.60008" lon="6.10047">
        <ele>1072.5</ele>
        <time>2014-08-16T10:30:03.188Z</time>
      </trkpt>
      <trkpt lat="46.60037" lon="6.10115">
        <ele>1069.2</ele>
        <time>2014-08-16T10:30:18.082Z</time>
      </trkpt>
      <trkpt lat="46.60045" lon="6.10129">
        <ele>1069.7</ele>
        <time>2014-08-16T10:30:21.121Z</time>
      </trkpt>
      <trkpt lat="46.60061" lon="6.10149">
        <ele>1070.8</ele>
        <time>2014-08-16T10:30:26.530Z</time>
      </trkpt>
      <trkpt lat="46.6007" lon="6.10158">
        <ele>1071.4</ele>
        <time>2014-08-16T10:30:29.515Z</time>
      </trkpt>
      <trkpt lat="46.60088" lon="6.10168">
        <ele>1071.8</ele>
        <time>2014-08-16T10:30:35.277Z</time>
      </trkpt>
      <trkpt lat="46.60121" lon="6.10206">
        <ele>1070.5</ele>
        <time>2014-08-16T10:31:27.369Z</time>
      </trkpt>
      <trkpt lat="46.60173" lon="6.10286">
        <ele>1073.1</ele>
        <time>2014-08-16T10:31:55.379Z</time>
      </trkpt>
      <trkpt lat="46.60176" lon="6.103">
        <ele>1073.9</ele>
        <time>2014-08-16T10:31:59.078Z</time>
      </trkpt>
      <trkpt lat="46.60175" lon="6.10348">
        <ele>1074.5</ele>
        <time>2014-08-16T10:32:11.913Z</time>
      </trkpt>
      <trkpt lat="46.60172" lon="6.10363">
        <ele>1074.8</ele>
        <time>2014-08-16T10:32:16.409Z</time>
      </trkpt>
      <trkpt lat="46.60163" lon="6.10373">
        <ele>1075.5</ele>
        <time>2014-08-16T10:32:21.350Z</time>
      </trkpt>
      <trkpt lat="46.60154" lon="6.10378">
        <ele>1076.1</ele>
        <time>2014-08-16T10:32:26.096Z</time>
      </trkpt>
      <trkpt lat="46.60145" lon="6.10385">
        <ele>1076.6</ele>
        <time>2014-08-16T10:32:31.804Z</time>
      </trkpt>
      <trkpt lat="46.60138" lon="6.10395">
        <ele>1077.2</ele>
        <time>2014-08-16T10:32:37.868Z</time>
      </trkpt>
      <trkpt lat="46.6013" lon="6.10401">
        <ele>1077.7</ele>
        <time>2014-08-16T10:32:43.021Z</time>
      </trkpt>
      <trkpt lat="46.60122" lon="6.1041">
        <ele>1077.7</ele>
        <time>2014-08-16T10:32:48.592Z</time>
      </trkpt>
      <trkpt lat="46.60114" lon="6.10419">
        <ele>1077.4</ele>
        <time>2014-08-16T10:32:54.832Z</time>
      </trkpt>
      <trkpt lat="46.60107" lon="6.10431">
        <ele>1077</ele>
        <time>2014-08-16T10:33:00.432Z</time>
      </trkpt>
      <trkpt lat="46.60101" lon="6.10445">
        <ele>1077</ele>
        <time>2014-08-16T10:33:05.200Z</time>
      </trkpt>
      <trkpt lat="46.60097" lon="6.10459">
        <ele>1077.6</ele>
        <time>2014-08-16T10:33:09.717Z</time>
      </trkpt>
      <trkpt lat="46.60092" lon="6.10471">
        <ele>1078.2</ele>
        <time>2014-08-16T10:33:14.056Z</time>
      </trkpt>
      <trkpt lat="46.60084" lon="6.10479">
        <ele>1078.6</ele>
        <time>2014-08-16T10:33:19.393Z</time>
      </trkpt>
      <trkpt lat="46.60065" lon="6.1051">
        <ele>1078.3</ele>
        <time>2014-08-16T10:33:39.916Z</time>
      </trkpt>
      <trkpt lat="46.60057" lon="6.10516">
        <ele>1077.9</ele>
        <time>2014-08-16T10:33:52.279Z</time>
      </trkpt>
      <trkpt lat="46.60047" lon="6.10531">
        <ele>1076.8</ele>
        <time>2014-08-16T10:34:07.714Z</time>
      </trkpt>
      <trkpt lat="46.60041" lon="6.10543">
        <ele>1076.7</ele>
        <time>2014-08-16T10:34:11.462Z</time>
      </trkpt>
      <trkpt lat="46.60037" lon="6.10569">
        <ele>1077.8</ele>
        <time>2014-08-16T10:34:17.283Z</time>
      </trkpt>
      <trkpt lat="46.60043" lon="6.106">
        <ele>1078.4</ele>
        <time>2014-08-16T10:34:33.476Z</time>
      </trkpt>
      <trkpt lat="46.60048" lon="6.10614">
        <ele>1077.8</ele>
        <time>2014-08-16T10:34:35.440Z</time>
      </trkpt>
      <trkpt lat="46.60073" lon="6.10711">
        <ele>1074.2</ele>
        <time>2014-08-16T10:34:49.474Z</time>
      </trkpt>
      <trkpt lat="46.60075" lon="6.10729">
        <ele>1073.8</ele>
        <time>2014-08-16T10:34:52.411Z</time>
      </trkpt>
      <trkpt lat="46.60074" lon="6.10762">
        <ele>1073.4</ele>
        <time>2014-08-16T10:34:57.342Z</time>
      </trkpt>
      <trkpt lat="46.60066" lon="6.10832">
        <ele>1072.6</ele>
        <time>2014-08-16T10:35:07.027Z</time>
      </trkpt>
      <trkpt lat="46.60057" lon="6.10869">
        <ele>1071.8</ele>
        <time>2014-08-16T10:35:12.490Z</time>
      </trkpt>
      <trkpt lat="46.60027" lon="6.10962">
        <ele>1076.7</ele>
        <time>2014-08-16T10:35:26.670Z</time>
      </trkpt>
      <trkpt lat="46.59991" lon="6.11106">
        <ele>1074.8</ele>
        <time>2014-08-16T10:35:54.239Z</time>
      </trkpt>
      <trkpt lat="46.5997" lon="6.112">
        <ele>1083.9</ele>
        <time>2014-08-16T10:36:26.815Z</time>
      </trkpt>
      <trkpt lat="46.59961" lon="6.11257">
        <ele>1089.3</ele>
        <time>2014-08-16T10:36:48.278Z</time>
      </trkpt>
      <trkpt lat="46.59943" lon="6.1132">
        <ele>1089.7</ele>
        <time>2014-08-16T10:37:14.441Z</time>
      </trkpt>
      <trkpt lat="46.59928" lon="6.11349">
        <ele>1091.6</ele>
        <time>2014-08-16T10:37:20.456Z</time>
      </trkpt>
      <trkpt lat="46.59908" lon="6.11378">
        <ele>1091.5</ele>
        <time>2014-08-16T10:37:24.762Z</time>
      </trkpt>
      <trkpt lat="46.59882" lon="6.11397">
        <ele>1092.8</ele>
        <time>2014-08-16T10:37:29.758Z</time>
      </trkpt>
      <trkpt lat="46.59869" lon="6.114">
        <ele>1092.9</ele>
        <time>2014-08-16T10:37:32.528Z</time>
      </trkpt>
      <trkpt lat="46.59839" lon="6.11395">
        <ele>1088.8</ele>
        <time>2014-08-16T10:37:40.564Z</time>
      </trkpt>
      <trkpt lat="46.59828" lon="6.11396">
        <ele>1088.1</ele>
        <time>2014-08-16T10:37:44.061Z</time>
      </trkpt>
      <trkpt lat="46.5982" lon="6.11407">
        <ele>1088.9</ele>
        <time>2014-08-16T10:37:48.278Z</time>
      </trkpt>
      <trkpt lat="46.59803" lon="6.11409">
        <ele>1091.9</ele>
        <time>2014-08-16T10:38:30.340Z</time>
      </trkpt>
      <trkpt lat="46.59789" lon="6.11402">
        <ele>1090.3</ele>
        <time>2014-08-16T10:40:22.201Z</time>
      </trkpt>
      <trkpt lat="46.59769" lon="6.11367">
        <ele>1092</ele>
        <time>2014-08-16T10:40:35.542Z</time>
      </trkpt>
      <trkpt lat="46.59751" lon="6.11377">
        <ele>1092</ele>
        <time>2014-08-16T10:40:44.046Z</time>
      </trkpt>
      <trkpt lat="46.59744" lon="6.11387">
        <ele>1091.7</ele>
        <time>2014-08-16T10:40:47.395Z</time>
      </trkpt>
      <trkpt lat="46.59733" lon="6.11411">
        <ele>1091.2</ele>
        <time>2014-08-16T10:40:54.022Z</time>
      </trkpt>
      <trkpt lat="46.59725" lon="6.11417">
        <ele>1091.4</ele>
        <time>2014-08-16T10:40:57.285Z</time>
      </trkpt>
      <trkpt lat="46.59738" lon="6.11415">
        <ele>1090.9</ele>
        <time>2014-08-16T11:23:07.304Z</time>
      </trkpt>
      <trkpt lat="46.59743" lon="6.11399">
        <ele>1090.8</ele>
        <time>2014-08-16T11:23:12.732Z</time>
      </trkpt>
      <trkpt lat="46.59757" lon="6.11372">
        <ele>1090.6</ele>
        <time>2014-08-16T11:23:21.185Z</time>
      </trkpt>
      <trkpt lat="46.59765" lon="6.11367">
        <ele>1090.8</ele>
        <time>2014-08-16T11:23:24.762Z</time>
      </trkpt>
      <trkpt lat="46.59781" lon="6.11387">
        <ele>1092.6</ele>
        <time>2014-08-16T11:23:32.848Z</time>
      </trkpt>
      <trkpt lat="46.59788" lon="6.11395">
        <ele>1094</ele>
        <time>2014-08-16T11:23:37.045Z</time>
      </trkpt>
      <trkpt lat="46.59797" lon="6.11399">
        <ele>1095.6</ele>
        <time>2014-08-16T11:23:42.304Z</time>
      </trkpt>
      <trkpt lat="46.59807" lon="6.11419">
        <ele>1087.7</ele>
        <time>2014-08-16T11:55:23.363Z</time>
      </trkpt>
      <trkpt lat="46.59786" lon="6.11393">
        <ele>1087</ele>
        <time>2014-08-16T11:58:13.114Z</time>
      </trkpt>
      <trkpt lat="46.59763" lon="6.11359">
        <ele>1090.3</ele>
        <time>2014-08-16T11:58:23.295Z</time>
      </trkpt>
      <trkpt lat="46.59751" lon="6.11345">
        <ele>1090.2</ele>
        <time>2014-08-16T11:58:27.678Z</time>
      </trkpt>
      <trkpt lat="46.59744" lon="6.11334">
        <ele>1089.6</ele>
        <time>2014-08-16T11:58:30.717Z</time>
      </trkpt>
      <trkpt lat="46.59677" lon="6.11127">
        <ele>1079.5</ele>
        <time>2014-08-16T11:58:56.030Z</time>
      </trkpt>
      <trkpt lat="46.59649" lon="6.11077">
        <ele>1078</ele>
        <time>2014-08-16T11:59:02.204Z</time>
      </trkpt>
      <trkpt lat="46.59639" lon="6.11063">
        <ele>1078.6</ele>
        <time>2014-08-16T11:59:04.267Z</time>
      </trkpt>
      <trkpt lat="46.59587" lon="6.11001">
        <ele>1078.2</ele>
        <time>2014-08-16T11:59:13.784Z</time>
      </trkpt>
      <trkpt lat="46.59468" lon="6.10879">
        <ele>1077.1</ele>
        <time>2014-08-16T11:59:37.930Z</time>
      </trkpt>
      <trkpt lat="46.59403" lon="6.10774">
        <ele>1085.9</ele>
        <time>2014-08-16T12:00:01.519Z</time>
      </trkpt>
      <trkpt lat="46.59372" lon="6.1074">
        <ele>1084</ele>
        <time>2014-08-16T12:00:10.368Z</time>
      </trkpt>
      <trkpt lat="46.59352" lon="6.10722">
        <ele>1085.7</ele>
        <time>2014-08-16T12:00:17.013Z</time>
      </trkpt>
      <trkpt lat="46.59296" lon="6.10684">
        <ele>1089.7</ele>
        <time>2014-08-16T12:00:38.316Z</time>
      </trkpt>
      <trkpt lat="46.59202" lon="6.10613">
        <ele>1092.7</ele>
        <time>2014-08-16T12:01:13.936Z</time>
      </trkpt>
      <trkpt lat="46.5919" lon="6.10607">
        <ele>1092.1</ele>
        <time>2014-08-16T12:01:17.390Z</time>
      </trkpt>
      <trkpt lat="46.59111" lon="6.10553">
        <ele>1095.7</ele>
        <time>2014-08-16T12:01:35.809Z</time>
      </trkpt>
      <trkpt lat="46.59082" lon="6.10539">
        <ele>1097.7</ele>
        <time>2014-08-16T12:01:41.444Z</time>
      </trkpt>
      <trkpt lat="46.59046" lon="6.10517">
        <ele>1093.4</ele>
        <time>2014-08-16T12:01:49.910Z</time>
      </trkpt>
      <trkpt lat="46.59035" lon="6.10511">
        <ele>1093.1</ele>
        <time>2014-08-16T12:01:52.698Z</time>
      </trkpt>
      <trkpt lat="46.59025" lon="6.10504">
        <ele>1094.2</ele>
        <time>2014-08-16T12:01:55.758Z</time>
      </trkpt>
      <trkpt lat="46.59007" lon="6.10482">
        <ele>1096.2</ele>
        <time>2014-08-16T12:02:01.798Z</time>
      </trkpt>
      <trkpt lat="46.58998" lon="6.10471">
        <ele>1095.4</ele>
        <time>2014-08-16T12:02:04.559Z</time>
      </trkpt>
      <trkpt lat="46.58928" lon="6.10412">
        <ele>1102.1</ele>
        <time>2014-08-16T12:02:24.912Z</time>
      </trkpt>
      <trkpt lat="46.58917" lon="6.10406">
        <ele>1100.5</ele>
        <time>2014-08-16T12:02:27.807Z</time>
      </trkpt>
      <trkpt lat="46.58817" lon="6.10373">
        <ele>1098.7</ele>
        <time>2014-08-16T12:02:49.855Z</time>
      </trkpt>
      <trkpt lat="46.58805" lon="6.10367">
        <ele>1098.1</ele>
        <time>2014-08-16T12:02:52.659Z</time>
      </trkpt>
      <trkpt lat="46.58795" lon="6.1036">
        <ele>1098.1</ele>
        <time>2014-08-16T12:02:55.651Z</time>
      </trkpt>
      <trkpt lat="46.58685" lon="6.10266">
        <ele>1107.9</ele>
        <time>2014-08-16T12:03:40.638Z</time>
      </trkpt>
      <trkpt lat="46.58675" lon="6.10257">
        <ele>1108.9</ele>
        <time>2014-08-16T12:03:44.490Z</time>
      </trkpt>
      <trkpt lat="46.58668" lon="6.10248">
        <ele>1109.7</ele>
        <time>2014-08-16T12:03:47.514Z</time>
      </trkpt>
      <trkpt lat="46.58654" lon="6.10227">
        <ele>1109.8</ele>
        <time>2014-08-16T12:03:53.598Z</time>
      </trkpt>
      <trkpt lat="46.58643" lon="6.10202">
        <ele>1109.8</ele>
        <time>2014-08-16T12:03:59.622Z</time>
      </trkpt>
      <trkpt lat="46.58638" lon="6.1019">
        <ele>1110.4</ele>
        <time>2014-08-16T12:04:02.412Z</time>
      </trkpt>
      <trkpt lat="46.58634" lon="6.10176">
        <ele>1111</ele>
        <time>2014-08-16T12:04:05.427Z</time>
      </trkpt>
      <trkpt lat="46.58627" lon="6.10165">
        <ele>1111.3</ele>
        <time>2014-08-16T12:04:08.679Z</time>
      </trkpt>
      <trkpt lat="46.58616" lon="6.10166">
        <ele>1111.1</ele>
        <time>2014-08-16T12:04:12.118Z</time>
      </trkpt>
      <trkpt lat="46.58608" lon="6.10175">
        <ele>1110.8</ele>
        <time>2014-08-16T12:04:15.755Z</time>
      </trkpt>
      <trkpt lat="46.58514" lon="6.1034">
        <ele>1119.6</ele>
        <time>2014-08-16T12:05:09.998Z</time>
      </trkpt>
      <trkpt lat="46.58507" lon="6.10349">
        <ele>1119.9</ele>
        <time>2014-08-16T12:05:13.910Z</time>
      </trkpt>
      <trkpt lat="46.58483" lon="6.10372">
        <ele>1120.7</ele>
        <time>2014-08-16T12:05:25.326Z</time>
      </trkpt>
      <trkpt lat="46.58472" lon="6.10378">
        <ele>1121.4</ele>
        <time>2014-08-16T12:05:29.861Z</time>
      </trkpt>
      <trkpt lat="46.58453" lon="6.10392">
        <ele>1122.8</ele>
        <time>2014-08-16T12:05:37.193Z</time>
      </trkpt>
      <trkpt lat="46.58444" lon="6.10401">
        <ele>1123</ele>
        <time>2014-08-16T12:05:40.600Z</time>
      </trkpt>
      <trkpt lat="46.58435" lon="6.10413">
        <ele>1122.9</ele>
        <time>2014-08-16T12:05:44.249Z</time>
      </trkpt>
      <trkpt lat="46.5843" lon="6.10425">
        <ele>1122.4</ele>
        <time>2014-08-16T12:05:46.827Z</time>
      </trkpt>
      <trkpt lat="46.58425" lon="6.10444">
        <ele>1121.9</ele>
        <time>2014-08-16T12:05:50.370Z</time>
      </trkpt>
      <trkpt lat="46.5842" lon="6.10486">
        <ele>1121.4</ele>
        <time>2014-08-16T12:05:57.057Z</time>
      </trkpt>
      <trkpt lat="46.58417" lon="6.10531">
        <ele>1122.6</ele>
        <time>2014-08-16T12:06:04.628Z</time>
      </trkpt>
      <trkpt lat="46.58397" lon="6.10624">
        <ele>1127.3</ele>
        <time>2014-08-16T12:06:21.611Z</time>
      </trkpt>
      <trkpt lat="46.58388" lon="6.1065">
        <ele>1128.4</ele>
        <time>2014-08-16T12:06:27.166Z</time>
      </trkpt>
      <trkpt lat="46.58382" lon="6.10662">
        <ele>1128.8</ele>
        <time>2014-08-16T12:06:29.938Z</time>
      </trkpt>
      <trkpt lat="46.58367" lon="6.10684">
        <ele>1128.4</ele>
        <time>2014-08-16T12:06:35.795Z</time>
      </trkpt>
      <trkpt lat="46.58346" lon="6.10704">
        <ele>1127.4</ele>
        <time>2014-08-16T12:06:42.529Z</time>
      </trkpt>
      <trkpt lat="46.58325" lon="6.10718">
        <ele>1125.9</ele>
        <time>2014-08-16T12:06:48.227Z</time>
      </trkpt>
      <trkpt lat="46.583" lon="6.10732">
        <ele>1125.6</ele>
        <time>2014-08-16T12:06:54.449Z</time>
      </trkpt>
      <trkpt lat="46.58265" lon="6.10743">
        <ele>1124.4</ele>
        <time>2014-08-16T12:07:03.007Z</time>
      </trkpt>
      <trkpt lat="46.58253" lon="6.10745">
        <ele>1123.9</ele>
        <time>2014-08-16T12:07:06.046Z</time>
      </trkpt>
      <trkpt lat="46.58242" lon="6.10743">
        <ele>1123.7</ele>
        <time>2014-08-16T12:07:08.808Z</time>
      </trkpt>
      <trkpt lat="46.58231" lon="6.10739">
        <ele>1123.6</ele>
        <time>2014-08-16T12:07:11.417Z</time>
      </trkpt>
      <trkpt lat="46.58195" lon="6.10716">
        <ele>1126.4</ele>
        <time>2014-08-16T12:07:22.470Z</time>
      </trkpt>
      <trkpt lat="46.58178" lon="6.10701">
        <ele>1128</ele>
        <time>2014-08-16T12:07:28.306Z</time>
      </trkpt>
      <trkpt lat="46.58062" lon="6.10568">
        <ele>1121.3</ele>
        <time>2014-08-16T12:07:55.290Z</time>
      </trkpt>
      <trkpt lat="46.58047" lon="6.10558">
        <ele>1120.6</ele>
        <time>2014-08-16T12:07:58.030Z</time>
      </trkpt>
      <trkpt lat="46.58019" lon="6.10549">
        <ele>1122.3</ele>
        <time>2014-08-16T12:08:03.258Z</time>
      </trkpt>
      <trkpt lat="46.57998" lon="6.10545">
        <ele>1122.4</ele>
        <time>2014-08-16T12:08:07.612Z</time>
      </trkpt>
      <trkpt lat="46.57952" lon="6.10545">
        <ele>1124.9</ele>
        <time>2014-08-16T12:08:19.663Z</time>
      </trkpt>
      <trkpt lat="46.57943" lon="6.10546">
        <ele>1125</ele>
        <time>2014-08-16T12:08:22.626Z</time>
      </trkpt>
      <trkpt lat="46.57931" lon="6.10546">
        <ele>1125.3</ele>
        <time>2014-08-16T12:08:26.586Z</time>
      </trkpt>
      <trkpt lat="46.5792" lon="6.10549">
        <ele>1125.9</ele>
        <time>2014-08-16T12:08:30.748Z</time>
      </trkpt>
      <trkpt lat="46.5791" lon="6.10553">
        <ele>1127.1</ele>
        <time>2014-08-16T12:08:34.465Z</time>
      </trkpt>
      <trkpt lat="46.57872" lon="6.10572">
        <ele>1133.1</ele>
        <time>2014-08-16T12:08:49.570Z</time>
      </trkpt>
      <trkpt lat="46.57863" lon="6.10575">
        <ele>1133.5</ele>
        <time>2014-08-16T12:08:53.093Z</time>
      </trkpt>
      <trkpt lat="46.57851" lon="6.10577">
        <ele>1133.4</ele>
        <time>2014-08-16T12:08:57.397Z</time>
      </trkpt>
      <trkpt lat="46.57841" lon="6.10576">
        <ele>1132.7</ele>
        <time>2014-08-16T12:09:00.695Z</time>
      </trkpt>
      <trkpt lat="46.57809" lon="6.10567">
        <ele>1130</ele>
        <time>2014-08-16T12:09:11.620Z</time>
      </trkpt>
      <trkpt lat="46.578" lon="6.10563">
        <ele>1131.4</ele>
        <time>2014-08-16T12:09:15.181Z</time>
      </trkpt>
      <trkpt lat="46.5779" lon="6.10555">
        <ele>1133.9</ele>
        <time>2014-08-16T12:09:19.287Z</time>
      </trkpt>
      <trkpt lat="46.57781" lon="6.10546">
        <ele>1136.4</ele>
        <time>2014-08-16T12:09:23.288Z</time>
      </trkpt>
      <trkpt lat="46.57739" lon="6.10487">
        <ele>1137.9</ele>
        <time>2014-08-16T12:09:44.772Z</time>
      </trkpt>
      <trkpt lat="46.57691" lon="6.10409">
        <ele>1141</ele>
        <time>2014-08-16T12:10:07.466Z</time>
      </trkpt>
      <trkpt lat="46.57637" lon="6.10336">
        <ele>1139.4</ele>
        <time>2014-08-16T12:10:23.695Z</time>
      </trkpt>
      <trkpt lat="46.57615" lon="6.10317">
        <ele>1138.3</ele>
        <time>2014-08-16T12:10:27.532Z</time>
      </trkpt>
      <trkpt lat="46.57556" lon="6.10275">
        <ele>1136</ele>
        <time>2014-08-16T12:10:37.464Z</time>
      </trkpt>
      <trkpt lat="46.57545" lon="6.1026">
        <ele>1135</ele>
        <time>2014-08-16T12:10:40.922Z</time>
      </trkpt>
      <trkpt lat="46.57537" lon="6.10249">
        <ele>1134.3</ele>
        <time>2014-08-16T12:10:44.106Z</time>
      </trkpt>
      <trkpt lat="46.57534" lon="6.10237">
        <ele>1133.8</ele>
        <time>2014-08-16T12:10:46.971Z</time>
      </trkpt>
      <trkpt lat="46.57522" lon="6.10158">
        <ele>1134.4</ele>
        <time>2014-08-16T12:11:01.011Z</time>
      </trkpt>
      <trkpt lat="46.57514" lon="6.10133">
        <ele>1134.6</ele>
        <time>2014-08-16T12:11:04.216Z</time>
      </trkpt>
      <trkpt lat="46.57512" lon="6.10107">
        <ele>1134.4</ele>
        <time>2014-08-16T12:11:07.135Z</time>
      </trkpt>
      <trkpt lat="46.57521" lon="6.1006">
        <ele>1133.1</ele>
        <time>2014-08-16T12:11:12.733Z</time>
      </trkpt>
      <trkpt lat="46.57519" lon="6.10037">
        <ele>1132.8</ele>
        <time>2014-08-16T12:11:15.660Z</time>
      </trkpt>
      <trkpt lat="46.57509" lon="6.10001">
        <ele>1132.5</ele>
        <time>2014-08-16T12:11:20.601Z</time>
      </trkpt>
      <trkpt lat="46.57482" lon="6.09916">
        <ele>1125</ele>
        <time>2014-08-16T12:11:31.526Z</time>
      </trkpt>
      <trkpt lat="46.57477" lon="6.09894">
        <ele>1124.6</ele>
        <time>2014-08-16T12:11:34.271Z</time>
      </trkpt>
      <trkpt lat="46.57476" lon="6.09878">
        <ele>1124.9</ele>
        <time>2014-08-16T12:11:36.268Z</time>
      </trkpt>
      <trkpt lat="46.5748" lon="6.09837">
        <ele>1125.7</ele>
        <time>2014-08-16T12:11:41.849Z</time>
      </trkpt>
      <trkpt lat="46.57476" lon="6.09813">
        <ele>1125.2</ele>
        <time>2014-08-16T12:11:45.038Z</time>
      </trkpt>
      <trkpt lat="46.57463" lon="6.09797">
        <ele>1124.5</ele>
        <time>2014-08-16T12:11:48.055Z</time>
      </trkpt>
      <trkpt lat="46.57453" lon="6.0979">
        <ele>1124.1</ele>
        <time>2014-08-16T12:11:49.876Z</time>
      </trkpt>
      <trkpt lat="46.57406" lon="6.09768">
        <ele>1122.5</ele>
        <time>2014-08-16T12:11:57.487Z</time>
      </trkpt>
      <trkpt lat="46.57388" lon="6.09762">
        <ele>1121.8</ele>
        <time>2014-08-16T12:12:00.136Z</time>
      </trkpt>
      <trkpt lat="46.57332" lon="6.09748">
        <ele>1119.3</ele>
        <time>2014-08-16T12:12:08.115Z</time>
      </trkpt>
      <trkpt lat="46.57314" lon="6.09742">
        <ele>1119.2</ele>
        <time>2014-08-16T12:12:10.932Z</time>
      </trkpt>
      <trkpt lat="46.57305" lon="6.09733">
        <ele>1119.3</ele>
        <time>2014-08-16T12:12:12.855Z</time>
      </trkpt>
      <trkpt lat="46.57297" lon="6.09717">
        <ele>1118.7</ele>
        <time>2014-08-16T12:12:15.685Z</time>
      </trkpt>
      <trkpt lat="46.57289" lon="6.09684">
        <ele>1115.2</ele>
        <time>2014-08-16T12:12:20.710Z</time>
      </trkpt>
      <trkpt lat="46.57273" lon="6.09649">
        <ele>1113.9</ele>
        <time>2014-08-16T12:12:26.621Z</time>
      </trkpt>
      <trkpt lat="46.57268" lon="6.0963">
        <ele>1113.7</ele>
        <time>2014-08-16T12:12:29.608Z</time>
      </trkpt>
      <trkpt lat="46.57203" lon="6.09477">
        <ele>1109.8</ele>
        <time>2014-08-16T12:12:50.823Z</time>
      </trkpt>
      <trkpt lat="46.5719" lon="6.09458">
        <ele>1107</ele>
        <time>2014-08-16T12:12:53.559Z</time>
      </trkpt>
      <trkpt lat="46.57052" lon="6.09297">
        <ele>1100</ele>
        <time>2014-08-16T12:13:14.471Z</time>
      </trkpt>
      <trkpt lat="46.57044" lon="6.09291">
        <ele>1099.2</ele>
        <time>2014-08-16T12:13:16.093Z</time>
      </trkpt>
      <trkpt lat="46.57026" lon="6.0926">
        <ele>1097.9</ele>
        <time>2014-08-16T12:13:22.660Z</time>
      </trkpt>
      <trkpt lat="46.57018" lon="6.0925">
        <ele>1097.3</ele>
        <time>2014-08-16T12:13:26.294Z</time>
      </trkpt>
      <trkpt lat="46.5701" lon="6.09243">
        <ele>1097.4</ele>
        <time>2014-08-16T12:13:29.824Z</time>
      </trkpt>
      <trkpt lat="46.56964" lon="6.09213">
        <ele>1101.3</ele>
        <time>2014-08-16T12:13:51.062Z</time>
      </trkpt>
      <trkpt lat="46.56955" lon="6.09209">
        <ele>1102.7</ele>
        <time>2014-08-16T12:13:54.878Z</time>
      </trkpt>
      <trkpt lat="46.56945" lon="6.09206">
        <ele>1104.5</ele>
        <time>2014-08-16T12:13:58.155Z</time>
      </trkpt>
      <trkpt lat="46.56935" lon="6.09203">
        <ele>1105.7</ele>
        <time>2014-08-16T12:14:01.355Z</time>
      </trkpt>
      <trkpt lat="46.56926" lon="6.09199">
        <ele>1105.4</ele>
        <time>2014-08-16T12:14:04.456Z</time>
      </trkpt>
      <trkpt lat="46.56918" lon="6.09192">
        <ele>1104.1</ele>
        <time>2014-08-16T12:14:08.025Z</time>
      </trkpt>
      <trkpt lat="46.5691" lon="6.09184">
        <ele>1102.6</ele>
        <time>2014-08-16T12:14:12.344Z</time>
      </trkpt>
      <trkpt lat="46.56862" lon="6.0911">
        <ele>1104.7</ele>
        <time>2014-08-16T12:14:50.207Z</time>
      </trkpt>
      <trkpt lat="46.56843" lon="6.0907">
        <ele>1105.5</ele>
        <time>2014-08-16T12:15:03.336Z</time>
      </trkpt>
      <trkpt lat="46.56797" lon="6.08945">
        <ele>1105.3</ele>
        <time>2014-08-16T12:15:31.797Z</time>
      </trkpt>
      <trkpt lat="46.5679" lon="6.08931">
        <ele>1104.4</ele>
        <time>2014-08-16T12:15:34.722Z</time>
      </trkpt>
      <trkpt lat="46.56781" lon="6.08922">
        <ele>1102.9</ele>
        <time>2014-08-16T12:15:37.319Z</time>
      </trkpt>
      <trkpt lat="46.56773" lon="6.08916">
        <ele>1100.9</ele>
        <time>2014-08-16T12:15:39.665Z</time>
      </trkpt>
      <trkpt lat="46.56762" lon="6.08907">
        <ele>1099.6</ele>
        <time>2014-08-16T12:15:42.786Z</time>
      </trkpt>
      <trkpt lat="46.56753" lon="6.08895">
        <ele>1101.5</ele>
        <time>2014-08-16T12:15:46.117Z</time>
      </trkpt>
      <trkpt lat="46.56746" lon="6.08879">
        <ele>1103.3</ele>
        <time>2014-08-16T12:15:49.557Z</time>
      </trkpt>
      <trkpt lat="46.56689" lon="6.08707">
        <ele>1096.1</ele>
        <time>2014-08-16T12:16:16.378Z</time>
      </trkpt>
      <trkpt lat="46.56652" lon="6.08627">
        <ele>1092.8</ele>
        <time>2014-08-16T12:16:31.138Z</time>
      </trkpt>
      <trkpt lat="46.56647" lon="6.08612">
        <ele>1093.9</ele>
        <time>2014-08-16T12:16:33.902Z</time>
      </trkpt>
      <trkpt lat="46.56618" lon="6.08541">
        <ele>1097.4</ele>
        <time>2014-08-16T12:16:49.101Z</time>
      </trkpt>
      <trkpt lat="46.56606" lon="6.08498">
        <ele>1097.7</ele>
        <time>2014-08-16T12:16:58.619Z</time>
      </trkpt>
      <trkpt lat="46.56604" lon="6.08484">
        <ele>1097.4</ele>
        <time>2014-08-16T12:17:02.046Z</time>
      </trkpt>
      <trkpt lat="46.56602" lon="6.08439">
        <ele>1099.8</ele>
        <time>2014-08-16T12:17:14.395Z</time>
      </trkpt>
      <trkpt lat="46.56606" lon="6.08411">
        <ele>1098.5</ele>
        <time>2014-08-16T12:17:21.430Z</time>
      </trkpt>
      <trkpt lat="46.56626" lon="6.08352">
        <ele>1101.5</ele>
        <time>2014-08-16T12:17:33.742Z</time>
      </trkpt>
      <trkpt lat="46.56636" lon="6.08337">
        <ele>1100.9</ele>
        <time>2014-08-16T12:17:36.864Z</time>
      </trkpt>
      <trkpt lat="46.56656" lon="6.08291">
        <ele>1095.2</ele>
        <time>2014-08-16T12:17:44.642Z</time>
      </trkpt>
      <trkpt lat="46.56699" lon="6.08164">
        <ele>1096.2</ele>
        <time>2014-08-16T12:18:02.183Z</time>
      </trkpt>
      <trkpt lat="46.5672" lon="6.08126">
        <ele>1094.3</ele>
        <time>2014-08-16T12:18:08.229Z</time>
      </trkpt>
      <trkpt lat="46.56727" lon="6.08107">
        <ele>1093.6</ele>
        <time>2014-08-16T12:18:11.226Z</time>
      </trkpt>
      <trkpt lat="46.56734" lon="6.08061">
        <ele>1093.3</ele>
        <time>2014-08-16T12:18:19.130Z</time>
      </trkpt>
      <trkpt lat="46.56734" lon="6.08046">
        <ele>1093.1</ele>
        <time>2014-08-16T12:18:21.962Z</time>
      </trkpt>
      <trkpt lat="46.56732" lon="6.08031">
        <ele>1093.1</ele>
        <time>2014-08-16T12:18:25.023Z</time>
      </trkpt>
      <trkpt lat="46.56728" lon="6.08018">
        <ele>1093.3</ele>
        <time>2014-08-16T12:18:27.998Z</time>
      </trkpt>
      <trkpt lat="46.56714" lon="6.07991">
        <ele>1093.7</ele>
        <time>2014-08-16T12:18:35.051Z</time>
      </trkpt>
      <trkpt lat="46.56701" lon="6.07972">
        <ele>1095.3</ele>
        <time>2014-08-16T12:18:40.949Z</time>
      </trkpt>
      <trkpt lat="46.56692" lon="6.07962">
        <ele>1095.6</ele>
        <time>2014-08-16T12:18:44.334Z</time>
      </trkpt>
      <trkpt lat="46.56655" lon="6.07995">
        <ele>1094.6</ele>
        <time>2014-08-16T12:19:37.221Z</time>
      </trkpt>
      <trkpt lat="46.56646" lon="6.08001">
        <ele>1095</ele>
        <time>2014-08-16T12:19:40.682Z</time>
      </trkpt>
      <trkpt lat="46.56633" lon="6.08002">
        <ele>1095.1</ele>
        <time>2014-08-16T12:19:43.959Z</time>
      </trkpt>
      <trkpt lat="46.5662" lon="6.07995">
        <ele>1094.8</ele>
        <time>2014-08-16T12:19:46.776Z</time>
      </trkpt>
      <trkpt lat="46.56609" lon="6.0798">
        <ele>1094</ele>
        <time>2014-08-16T12:19:49.159Z</time>
      </trkpt>
      <trkpt lat="46.56573" lon="6.07897">
        <ele>1087.6</ele>
        <time>2014-08-16T12:19:58.255Z</time>
      </trkpt>
      <trkpt lat="46.56551" lon="6.07857">
        <ele>1085.2</ele>
        <time>2014-08-16T12:20:02.651Z</time>
      </trkpt>
      <trkpt lat="46.56528" lon="6.07839">
        <ele>1083.1</ele>
        <time>2014-08-16T12:20:05.848Z</time>
      </trkpt>
      <trkpt lat="46.5651" lon="6.0784">
        <ele>1081.3</ele>
        <time>2014-08-16T12:20:08.021Z</time>
      </trkpt>
      <trkpt lat="46.56454" lon="6.0786">
        <ele>1079.3</ele>
        <time>2014-08-16T12:20:16.181Z</time>
      </trkpt>
      <trkpt lat="46.56423" lon="6.07864">
        <ele>1078.6</ele>
        <time>2014-08-16T12:20:24.958Z</time>
      </trkpt>
      <trkpt lat="46.56404" lon="6.07859">
        <ele>1078.1</ele>
        <time>2014-08-16T12:20:30.360Z</time>
      </trkpt>
      <trkpt lat="46.56342" lon="6.07824">
        <ele>1074.8</ele>
        <time>2014-08-16T12:20:49.829Z</time>
      </trkpt>
      <trkpt lat="46.56326" lon="6.07789">
        <ele>1073.7</ele>
        <time>2014-08-16T12:20:56.606Z</time>
      </trkpt>
      <trkpt lat="46.56316" lon="6.07757">
        <ele>1075.6</ele>
        <time>2014-08-16T12:21:01.282Z</time>
      </trkpt>
      <trkpt lat="46.56314" lon="6.07741">
        <ele>1077</ele>
        <time>2014-08-16T12:21:03.561Z</time>
      </trkpt>
      <trkpt lat="46.56305" lon="6.0771">
        <ele>1080.5</ele>
        <time>2014-08-16T12:21:10.669Z</time>
      </trkpt>
      <trkpt lat="46.56299" lon="6.07664">
        <ele>1082.4</ele>
        <time>2014-08-16T12:21:28.044Z</time>
      </trkpt>
      <trkpt lat="46.563" lon="6.0764">
        <ele>1081.1</ele>
        <time>2014-08-16T12:21:36.992Z</time>
      </trkpt>
      <trkpt lat="46.56305" lon="6.07617">
        <ele>1080</ele>
        <time>2014-08-16T12:21:47.490Z</time>
      </trkpt>
      <trkpt lat="46.56315" lon="6.07594">
        <ele>1079.2</ele>
        <time>2014-08-16T12:21:58.209Z</time>
      </trkpt>
      <trkpt lat="46.56325" lon="6.07573">
        <ele>1078.4</ele>
        <time>2014-08-16T12:22:07.903Z</time>
      </trkpt>
      <trkpt lat="46.56325" lon="6.07559">
        <ele>1077.7</ele>
        <time>2014-08-16T12:22:13.413Z</time>
      </trkpt>
      <trkpt lat="46.56319" lon="6.07548">
        <ele>1077.7</ele>
        <time>2014-08-16T12:22:19.660Z</time>
      </trkpt>
      <trkpt lat="46.56309" lon="6.07548">
        <ele>1078.9</ele>
        <time>2014-08-16T12:22:25.867Z</time>
      </trkpt>
      <trkpt lat="46.56298" lon="6.07549">
        <ele>1081.4</ele>
        <time>2014-08-16T12:22:33.333Z</time>
      </trkpt>
      <trkpt lat="46.5629" lon="6.07556">
        <ele>1083.8</ele>
        <time>2014-08-16T12:22:40.037Z</time>
      </trkpt>
      <trkpt lat="46.56282" lon="6.07566">
        <ele>1084.9</ele>
        <time>2014-08-16T12:22:46.605Z</time>
      </trkpt>
      <trkpt lat="46.56276" lon="6.07575">
        <ele>1084.7</ele>
        <time>2014-08-16T12:22:52.780Z</time>
      </trkpt>
      <trkpt lat="46.56266" lon="6.07599">
        <ele>1085.4</ele>
        <time>2014-08-16T12:23:05.216Z</time>
      </trkpt>
      <trkpt lat="46.5626" lon="6.07611">
        <ele>1086.7</ele>
        <time>2014-08-16T12:23:12.323Z</time>
      </trkpt>
      <trkpt lat="46.56255" lon="6.07625">
        <ele>1087.5</ele>
        <time>2014-08-16T12:23:19.619Z</time>
      </trkpt>
      <trkpt lat="46.5622" lon="6.07779">
        <ele>1098.8</ele>
        <time>2014-08-16T12:24:44.500Z</time>
      </trkpt>
      <trkpt lat="46.56215" lon="6.07791">
        <ele>1100.5</ele>
        <time>2014-08-16T12:24:53.703Z</time>
      </trkpt>
      <trkpt lat="46.56198" lon="6.0786">
        <ele>1111.1</ele>
        <time>2014-08-16T12:25:41.216Z</time>
      </trkpt>
      <trkpt lat="46.56193" lon="6.07871">
        <ele>1112.6</ele>
        <time>2014-08-16T12:25:49.690Z</time>
      </trkpt>
      <trkpt lat="46.56173" lon="6.07905">
        <ele>1118.4</ele>
        <time>2014-08-16T12:26:19.145Z</time>
      </trkpt>
      <trkpt lat="46.56164" lon="6.07912">
        <ele>1119.4</ele>
        <time>2014-08-16T12:26:28.195Z</time>
      </trkpt>
      <trkpt lat="46.56152" lon="6.07934">
        <ele>1118.3</ele>
        <time>2014-08-16T12:26:46.482Z</time>
      </trkpt>
      <trkpt lat="46.5615" lon="6.07947">
        <ele>1117.9</ele>
        <time>2014-08-16T12:26:55.108Z</time>
      </trkpt>
      <trkpt lat="46.56145" lon="6.07958">
        <ele>1119.1</ele>
        <time>2014-08-16T12:27:04.006Z</time>
      </trkpt>
      <trkpt lat="46.56141" lon="6.07973">
        <ele>1122.2</ele>
        <time>2014-08-16T12:27:14.124Z</time>
      </trkpt>
      <trkpt lat="46.56136" lon="6.08014">
        <ele>1126.1</ele>
        <time>2014-08-16T12:27:33.211Z</time>
      </trkpt>
      <trkpt lat="46.56147" lon="6.0816">
        <ele>1111.2</ele>
        <time>2014-08-16T12:28:29.514Z</time>
      </trkpt>
      <trkpt lat="46.5615" lon="6.08174">
        <ele>1111.5</ele>
        <time>2014-08-16T12:28:35.341Z</time>
      </trkpt>
      <trkpt lat="46.56152" lon="6.08255">
        <ele>1123</ele>
        <time>2014-08-16T12:29:18.398Z</time>
      </trkpt>
      <trkpt lat="46.56149" lon="6.0827">
        <ele>1134.9</ele>
        <time>2014-08-16T12:29:24.599Z</time>
      </trkpt>
      <trkpt lat="46.56147" lon="6.08285">
        <ele>1143.7</ele>
        <time>2014-08-16T12:29:29.513Z</time>
      </trkpt>
      <trkpt lat="46.56152" lon="6.08328">
        <ele>1161.5</ele>
        <time>2014-08-16T12:29:41.467Z</time>
      </trkpt>
      <trkpt lat="46.56151" lon="6.08342">
        <ele>1163.4</ele>
        <time>2014-08-16T12:29:45.587Z</time>
      </trkpt>
      <trkpt lat="46.56157" lon="6.08399">
        <ele>1140.9</ele>
        <time>2014-08-16T12:30:06.125Z</time>
      </trkpt>
      <trkpt lat="46.56152" lon="6.08429">
        <ele>1135</ele>
        <time>2014-08-16T12:30:16.677Z</time>
      </trkpt>
      <trkpt lat="46.56148" lon="6.08444">
        <ele>1135.3</ele>
        <time>2014-08-16T12:30:22.332Z</time>
      </trkpt>
      <trkpt lat="46.56136" lon="6.08465">
        <ele>1145.1</ele>
        <time>2014-08-16T12:30:32.188Z</time>
      </trkpt>
      <trkpt lat="46.56132" lon="6.08478">
        <ele>1157.2</ele>
        <time>2014-08-16T12:30:37.202Z</time>
      </trkpt>
      <trkpt lat="46.56125" lon="6.08489">
        <ele>1168.2</ele>
        <time>2014-08-16T12:30:42.387Z</time>
      </trkpt>
      <trkpt lat="46.56119" lon="6.08517">
        <ele>1180.5</ele>
        <time>2014-08-16T12:30:52.428Z</time>
      </trkpt>
      <trkpt lat="46.56112" lon="6.08528">
        <ele>1183.5</ele>
        <time>2014-08-16T12:30:57.429Z</time>
      </trkpt>
      <trkpt lat="46.56103" lon="6.08533">
        <ele>1184.7</ele>
        <time>2014-08-16T12:31:01.683Z</time>
      </trkpt>
      <trkpt lat="46.56092" lon="6.08537">
        <ele>1185.5</ele>
        <time>2014-08-16T12:31:06.868Z</time>
      </trkpt>
      <trkpt lat="46.56073" lon="6.08537">
        <ele>1182.4</ele>
        <time>2014-08-16T12:31:14.200Z</time>
      </trkpt>
      <trkpt lat="46.56061" lon="6.08535">
        <ele>1178.2</ele>
        <time>2014-08-16T12:31:18.669Z</time>
      </trkpt>
      <trkpt lat="46.56042" lon="6.08527">
        <ele>1173.5</ele>
        <time>2014-08-16T12:31:25.338Z</time>
      </trkpt>
      <trkpt lat="46.56028" lon="6.08525">
        <ele>1166.3</ele>
        <time>2014-08-16T12:31:32.799Z</time>
      </trkpt>
      <trkpt lat="46.56018" lon="6.08519">
        <ele>1166.5</ele>
        <time>2014-08-16T12:31:37.289Z</time>
      </trkpt>
      <trkpt lat="46.55992" lon="6.08499">
        <ele>1162.7</ele>
        <time>2014-08-16T12:31:49.166Z</time>
      </trkpt>
      <trkpt lat="46.55983" lon="6.08496">
        <ele>1162.2</ele>
        <time>2014-08-16T12:31:53.261Z</time>
      </trkpt>
      <trkpt lat="46.55974" lon="6.08497">
        <ele>1162.5</ele>
        <time>2014-08-16T12:31:57.342Z</time>
      </trkpt>
      <trkpt lat="46.55957" lon="6.08495">
        <ele>1163.3</ele>
        <time>2014-08-16T12:32:15.320Z</time>
      </trkpt>
      <trkpt lat="46.55947" lon="6.08493">
        <ele>1165.4</ele>
        <time>2014-08-16T12:32:19.654Z</time>
      </trkpt>
      <trkpt lat="46.55936" lon="6.08488">
        <ele>1172.6</ele>
        <time>2014-08-16T12:32:24.096Z</time>
      </trkpt>
      <trkpt lat="46.55908" lon="6.08469">
        <ele>1170</ele>
        <time>2014-08-16T12:32:37.022Z</time>
      </trkpt>
      <trkpt lat="46.559" lon="6.08461">
        <ele>1165.4</ele>
        <time>2014-08-16T12:32:42.083Z</time>
      </trkpt>
      <trkpt lat="46.5589" lon="6.08455">
        <ele>1164.8</ele>
        <time>2014-08-16T12:32:47.713Z</time>
      </trkpt>
      <trkpt lat="46.55881" lon="6.08449">
        <ele>1166.7</ele>
        <time>2014-08-16T12:32:51.946Z</time>
      </trkpt>
      <trkpt lat="46.55872" lon="6.08444">
        <ele>1168.3</ele>
        <time>2014-08-16T12:32:56.400Z</time>
      </trkpt>
      <trkpt lat="46.55864" lon="6.08435">
        <ele>1168.3</ele>
        <time>2014-08-16T12:33:00.893Z</time>
      </trkpt>
      <trkpt lat="46.55859" lon="6.08424">
        <ele>1167.5</ele>
        <time>2014-08-16T12:33:05.871Z</time>
      </trkpt>
      <trkpt lat="46.55852" lon="6.08413">
        <ele>1167.1</ele>
        <time>2014-08-16T12:33:11.225Z</time>
      </trkpt>
      <trkpt lat="46.55844" lon="6.08406">
        <ele>1167.2</ele>
        <time>2014-08-16T12:33:16.139Z</time>
      </trkpt>
      <trkpt lat="46.55834" lon="6.084">
        <ele>1167.4</ele>
        <time>2014-08-16T12:33:21.487Z</time>
      </trkpt>
      <trkpt lat="46.55825" lon="6.08396">
        <ele>1168.7</ele>
        <time>2014-08-16T12:33:26.618Z</time>
      </trkpt>
      <trkpt lat="46.55815" lon="6.08393">
        <ele>1171.4</ele>
        <time>2014-08-16T12:33:32.686Z</time>
      </trkpt>
      <trkpt lat="46.55805" lon="6.08392">
        <ele>1175.2</ele>
        <time>2014-08-16T12:33:39.541Z</time>
      </trkpt>
      <trkpt lat="46.55795" lon="6.08389">
        <ele>1179.5</ele>
        <time>2014-08-16T12:33:47.153Z</time>
      </trkpt>
      <trkpt lat="46.55786" lon="6.08388">
        <ele>1184.2</ele>
        <time>2014-08-16T12:33:53.927Z</time>
      </trkpt>
      <trkpt lat="46.55776" lon="6.08389">
        <ele>1189</ele>
        <time>2014-08-16T12:34:00.519Z</time>
      </trkpt>
      <trkpt lat="46.55766" lon="6.08389">
        <ele>1192.8</ele>
        <time>2014-08-16T12:34:06.205Z</time>
      </trkpt>
      <trkpt lat="46.55754" lon="6.08386">
        <ele>1194.3</ele>
        <time>2014-08-16T12:34:12.359Z</time>
      </trkpt>
      <trkpt lat="46.55744" lon="6.08383">
        <ele>1193.3</ele>
        <time>2014-08-16T12:34:17.099Z</time>
      </trkpt>
      <trkpt lat="46.55735" lon="6.08376">
        <ele>1190</ele>
        <time>2014-08-16T12:34:21.346Z</time>
      </trkpt>
      <trkpt lat="46.55712" lon="6.08373">
        <ele>1183.6</ele>
        <time>2014-08-16T12:34:41.394Z</time>
      </trkpt>
      <trkpt lat="46.5571" lon="6.08387">
        <ele>1186.9</ele>
        <time>2014-08-16T12:34:46.661Z</time>
      </trkpt>
      <trkpt lat="46.55712" lon="6.08401">
        <ele>1192.2</ele>
        <time>2014-08-16T12:34:51.818Z</time>
      </trkpt>
      <trkpt lat="46.55721" lon="6.0841">
        <ele>1196.6</ele>
        <time>2014-08-16T12:34:57.609Z</time>
      </trkpt>
      <trkpt lat="46.55729" lon="6.08417">
        <ele>1198.5</ele>
        <time>2014-08-16T12:35:02.069Z</time>
      </trkpt>
      <trkpt lat="46.55747" lon="6.08421">
        <ele>1199.6</ele>
        <time>2014-08-16T12:35:08.284Z</time>
      </trkpt>
      <trkpt lat="46.55758" lon="6.08421">
        <ele>1200.3</ele>
        <time>2014-08-16T12:35:11.346Z</time>
      </trkpt>
      <trkpt lat="46.55778" lon="6.08428">
        <ele>1199.6</ele>
        <time>2014-08-16T12:35:23.046Z</time>
      </trkpt>
      <trkpt lat="46.55789" lon="6.08436">
        <ele>1199.3</ele>
        <time>2014-08-16T12:35:26.693Z</time>
      </trkpt>
      <trkpt lat="46.55795" lon="6.08449">
        <ele>1199.8</ele>
        <time>2014-08-16T12:35:30.142Z</time>
      </trkpt>
      <trkpt lat="46.55797" lon="6.08464">
        <ele>1200.8</ele>
        <time>2014-08-16T12:35:33.391Z</time>
      </trkpt>
      <trkpt lat="46.55791" lon="6.08474">
        <ele>1201</ele>
        <time>2014-08-16T12:35:36.356Z</time>
      </trkpt>
      <trkpt lat="46.55765" lon="6.08477">
        <ele>1198.8</ele>
        <time>2014-08-16T12:37:03.214Z</time>
      </trkpt>
      <trkpt lat="46.55756" lon="6.08473">
        <ele>1197.5</ele>
        <time>2014-08-16T12:37:08.301Z</time>
      </trkpt>
      <trkpt lat="46.55746" lon="6.08474">
        <ele>1197.5</ele>
        <time>2014-08-16T12:37:13.095Z</time>
      </trkpt>
      <trkpt lat="46.55736" lon="6.08471">
        <ele>1200.2</ele>
        <time>2014-08-16T12:37:17.016Z</time>
      </trkpt>
      <trkpt lat="46.55717" lon="6.0846">
        <ele>1204.5</ele>
        <time>2014-08-16T12:37:24.501Z</time>
      </trkpt>
      <trkpt lat="46.55699" lon="6.08445">
        <ele>1203.7</ele>
        <time>2014-08-16T12:37:32.540Z</time>
      </trkpt>
      <trkpt lat="46.55681" lon="6.08434">
        <ele>1207.6</ele>
        <time>2014-08-16T12:37:41.808Z</time>
      </trkpt>
      <trkpt lat="46.55672" lon="6.08432">
        <ele>1210.2</ele>
        <time>2014-08-16T12:37:46.581Z</time>
      </trkpt>
      <trkpt lat="46.55652" lon="6.08424">
        <ele>1213.2</ele>
        <time>2014-08-16T12:37:57.299Z</time>
      </trkpt>
      <trkpt lat="46.55641" lon="6.08418">
        <ele>1214</ele>
        <time>2014-08-16T12:38:03.346Z</time>
      </trkpt>
      <trkpt lat="46.55627" lon="6.08415">
        <ele>1213.9</ele>
        <time>2014-08-16T12:38:19.123Z</time>
      </trkpt>
      <trkpt lat="46.55616" lon="6.08414">
        <ele>1214.4</ele>
        <time>2014-08-16T12:38:23.622Z</time>
      </trkpt>
      <trkpt lat="46.55597" lon="6.08406">
        <ele>1219.2</ele>
        <time>2014-08-16T12:38:30.647Z</time>
      </trkpt>
      <trkpt lat="46.55586" lon="6.08403">
        <ele>1219</ele>
        <time>2014-08-16T12:38:34.889Z</time>
      </trkpt>
      <trkpt lat="46.55577" lon="6.08407">
        <ele>1216.8</ele>
        <time>2014-08-16T12:38:39.357Z</time>
      </trkpt>
      <trkpt lat="46.5556" lon="6.08431">
        <ele>1214.8</ele>
        <time>2014-08-16T12:39:11.630Z</time>
      </trkpt>
      <trkpt lat="46.55555" lon="6.08443">
        <ele>1216.5</ele>
        <time>2014-08-16T12:39:18.955Z</time>
      </trkpt>
      <trkpt lat="46.55542" lon="6.08482">
        <ele>1232.8</ele>
        <time>2014-08-16T12:39:34.462Z</time>
      </trkpt>
      <trkpt lat="46.55536" lon="6.08494">
        <ele>1235.5</ele>
        <time>2014-08-16T12:39:39.374Z</time>
      </trkpt>
      <trkpt lat="46.55529" lon="6.08503">
        <ele>1233.4</ele>
        <time>2014-08-16T12:39:43.306Z</time>
      </trkpt>
      <trkpt lat="46.55519" lon="6.0851">
        <ele>1229.5</ele>
        <time>2014-08-16T12:39:47.176Z</time>
      </trkpt>
      <trkpt lat="46.55509" lon="6.08514">
        <ele>1227.1</ele>
        <time>2014-08-16T12:39:50.625Z</time>
      </trkpt>
      <trkpt lat="46.555" lon="6.0852">
        <ele>1227.1</ele>
        <time>2014-08-16T12:39:54.234Z</time>
      </trkpt>
      <trkpt lat="46.5549" lon="6.08521">
        <ele>1229.5</ele>
        <time>2014-08-16T12:39:57.740Z</time>
      </trkpt>
      <trkpt lat="46.55476" lon="6.08527">
        <ele>1232.6</ele>
        <time>2014-08-16T12:40:05.342Z</time>
      </trkpt>
      <trkpt lat="46.55442" lon="6.08552">
        <ele>1230.5</ele>
        <time>2014-08-16T12:40:32.761Z</time>
      </trkpt>
      <trkpt lat="46.55433" lon="6.08562">
        <ele>1229.8</ele>
        <time>2014-08-16T12:40:41.210Z</time>
      </trkpt>
      <trkpt lat="46.55428" lon="6.08574">
        <ele>1229.6</ele>
        <time>2014-08-16T12:40:48.099Z</time>
      </trkpt>
      <trkpt lat="46.55426" lon="6.0859">
        <ele>1229.7</ele>
        <time>2014-08-16T12:40:56.113Z</time>
      </trkpt>
      <trkpt lat="46.5542" lon="6.08602">
        <ele>1229.8</ele>
        <time>2014-08-16T12:41:03.360Z</time>
      </trkpt>
      <trkpt lat="46.55437" lon="6.08621">
        <ele>1228.4</ele>
        <time>2014-08-16T12:48:17.487Z</time>
      </trkpt>
      <trkpt lat="46.55439" lon="6.08634">
        <ele>1228.1</ele>
        <time>2014-08-16T12:48:22.849Z</time>
      </trkpt>
      <trkpt lat="46.55439" lon="6.0865">
        <ele>1229</ele>
        <time>2014-08-16T12:48:27.966Z</time>
      </trkpt>
      <trkpt lat="46.55442" lon="6.08664">
        <ele>1232</ele>
        <time>2014-08-16T12:48:31.662Z</time>
      </trkpt>
      <trkpt lat="46.55455" lon="6.08689">
        <ele>1237.1</ele>
        <time>2014-08-16T12:48:39.116Z</time>
      </trkpt>
      <trkpt lat="46.55462" lon="6.087">
        <ele>1236.3</ele>
        <time>2014-08-16T12:48:42.593Z</time>
      </trkpt>
      <trkpt lat="46.55468" lon="6.08711">
        <ele>1234.2</ele>
        <time>2014-08-16T12:48:46.810Z</time>
      </trkpt>
      <trkpt lat="46.55472" lon="6.08723">
        <ele>1232.5</ele>
        <time>2014-08-16T12:48:51.301Z</time>
      </trkpt>
      <trkpt lat="46.55474" lon="6.08736">
        <ele>1232.3</ele>
        <time>2014-08-16T12:48:57.390Z</time>
      </trkpt>
      <trkpt lat="46.55471" lon="6.08749">
        <ele>1234.1</ele>
        <time>2014-08-16T12:49:05.181Z</time>
      </trkpt>
      <trkpt lat="46.55465" lon="6.08792">
        <ele>1251.1</ele>
        <time>2014-08-16T12:49:20.292Z</time>
      </trkpt>
      <trkpt lat="46.55458" lon="6.0882">
        <ele>1256.4</ele>
        <time>2014-08-16T12:49:28.325Z</time>
      </trkpt>
      <trkpt lat="46.55452" lon="6.08834">
        <ele>1255.7</ele>
        <time>2014-08-16T12:49:32.730Z</time>
      </trkpt>
      <trkpt lat="46.5544" lon="6.08857">
        <ele>1250.2</ele>
        <time>2014-08-16T12:49:42.150Z</time>
      </trkpt>
      <trkpt lat="46.55435" lon="6.08869">
        <ele>1247.2</ele>
        <time>2014-08-16T12:49:47.487Z</time>
      </trkpt>
      <trkpt lat="46.5544" lon="6.0888">
        <ele>1246.1</ele>
        <time>2014-08-16T12:49:54.115Z</time>
      </trkpt>
      <trkpt lat="46.55449" lon="6.08896">
        <ele>1247.8</ele>
        <time>2014-08-16T12:50:00.005Z</time>
      </trkpt>
      <trkpt lat="46.55453" lon="6.08911">
        <ele>1249.2</ele>
        <time>2014-08-16T12:50:04.286Z</time>
      </trkpt>
      <trkpt lat="46.55454" lon="6.08924">
        <ele>1244.4</ele>
        <time>2014-08-16T12:50:08.234Z</time>
      </trkpt>
      <trkpt lat="46.55457" lon="6.0894">
        <ele>1241.9</ele>
        <time>2014-08-16T12:50:13.693Z</time>
      </trkpt>
      <trkpt lat="46.55461" lon="6.08952">
        <ele>1241.9</ele>
        <time>2014-08-16T12:50:19.078Z</time>
      </trkpt>
      <trkpt lat="46.55489" lon="6.08969">
        <ele>1258.4</ele>
        <time>2014-08-16T12:50:34.333Z</time>
      </trkpt>
      <trkpt lat="46.55499" lon="6.08973">
        <ele>1261.5</ele>
        <time>2014-08-16T12:50:38.455Z</time>
      </trkpt>
      <trkpt lat="46.55507" lon="6.08979">
        <ele>1261.2</ele>
        <time>2014-08-16T12:50:41.855Z</time>
      </trkpt>
      <trkpt lat="46.55518" lon="6.08982">
        <ele>1259</ele>
        <time>2014-08-16T12:50:46.074Z</time>
      </trkpt>
      <trkpt lat="46.5554" lon="6.08984">
        <ele>1255.2</ele>
        <time>2014-08-16T12:50:54.355Z</time>
      </trkpt>
      <trkpt lat="46.5556" lon="6.08991">
        <ele>1254.3</ele>
        <time>2014-08-16T12:51:02.111Z</time>
      </trkpt>
      <trkpt lat="46.55571" lon="6.08988">
        <ele>1253.6</ele>
        <time>2014-08-16T12:51:07.018Z</time>
      </trkpt>
      <trkpt lat="46.5559" lon="6.08972">
        <ele>1252.4</ele>
        <time>2014-08-16T12:51:25.967Z</time>
      </trkpt>
      <trkpt lat="46.556" lon="6.0897">
        <ele>1252.6</ele>
        <time>2014-08-16T12:51:31.812Z</time>
      </trkpt>
      <trkpt lat="46.55607" lon="6.08979">
        <ele>1254.6</ele>
        <time>2014-08-16T12:51:36.833Z</time>
      </trkpt>
      <trkpt lat="46.55613" lon="6.08991">
        <ele>1256.3</ele>
        <time>2014-08-16T12:51:42.359Z</time>
      </trkpt>
      <trkpt lat="46.55621" lon="6.08999">
        <ele>1255.2</ele>
        <time>2014-08-16T12:51:47.893Z</time>
      </trkpt>
      <trkpt lat="46.55629" lon="6.09004">
        <ele>1251.7</ele>
        <time>2014-08-16T12:51:53.927Z</time>
      </trkpt>
      <trkpt lat="46.55649" lon="6.09004">
        <ele>1250.9</ele>
        <time>2014-08-16T12:52:06.808Z</time>
      </trkpt>
      <trkpt lat="46.55658" lon="6.09003">
        <ele>1255.6</ele>
        <time>2014-08-16T12:52:13.017Z</time>
      </trkpt>
      <trkpt lat="46.55668" lon="6.09006">
        <ele>1259.2</ele>
        <time>2014-08-16T12:52:19.020Z</time>
      </trkpt>
      <trkpt lat="46.55677" lon="6.09009">
        <ele>1259.8</ele>
        <time>2014-08-16T12:52:24.847Z</time>
      </trkpt>
      <trkpt lat="46.55686" lon="6.09012">
        <ele>1259.4</ele>
        <time>2014-08-16T12:52:30.351Z</time>
      </trkpt>
      <trkpt lat="46.55699" lon="6.09011">
        <ele>1259.7</ele>
        <time>2014-08-16T12:52:46.414Z</time>
      </trkpt>
      <trkpt lat="46.55708" lon="6.09004">
        <ele>1259.6</ele>
        <time>2014-08-16T12:52:52.070Z</time>
      </trkpt>
      <trkpt lat="46.55736" lon="6.08996">
        <ele>1268.7</ele>
        <time>2014-08-16T12:53:04.435Z</time>
      </trkpt>
      <trkpt lat="46.55742" lon="6.09007">
        <ele>1269.8</ele>
        <time>2014-08-16T12:53:08.922Z</time>
      </trkpt>
      <trkpt lat="46.55747" lon="6.09038">
        <ele>1266.2</ele>
        <time>2014-08-16T12:53:18.741Z</time>
      </trkpt>
      <trkpt lat="46.55752" lon="6.09053">
        <ele>1265</ele>
        <time>2014-08-16T12:53:23.132Z</time>
      </trkpt>
      <trkpt lat="46.55758" lon="6.09062">
        <ele>1265.6</ele>
        <time>2014-08-16T12:53:26.513Z</time>
      </trkpt>
      <trkpt lat="46.55785" lon="6.09075">
        <ele>1266.7</ele>
        <time>2014-08-16T12:53:42.161Z</time>
      </trkpt>
      <trkpt lat="46.55794" lon="6.09068">
        <ele>1266</ele>
        <time>2014-08-16T12:53:46.857Z</time>
      </trkpt>
      <trkpt lat="46.55812" lon="6.09051">
        <ele>1269</ele>
        <time>2014-08-16T12:53:56.783Z</time>
      </trkpt>
      <trkpt lat="46.55839" lon="6.09041">
        <ele>1267.9</ele>
        <time>2014-08-16T12:54:07.984Z</time>
      </trkpt>
      <trkpt lat="46.5585" lon="6.0904">
        <ele>1264</ele>
        <time>2014-08-16T12:54:11.575Z</time>
      </trkpt>
      <trkpt lat="46.55861" lon="6.09042">
        <ele>1261.1</ele>
        <time>2014-08-16T12:54:15.159Z</time>
      </trkpt>
      <trkpt lat="46.55869" lon="6.09049">
        <ele>1259.7</ele>
        <time>2014-08-16T12:54:18.360Z</time>
      </trkpt>
      <trkpt lat="46.55872" lon="6.09065">
        <ele>1260.7</ele>
        <time>2014-08-16T12:54:21.678Z</time>
      </trkpt>
      <trkpt lat="46.55866" lon="6.09086">
        <ele>1264.9</ele>
        <time>2014-08-16T12:54:25.284Z</time>
      </trkpt>
      <trkpt lat="46.55862" lon="6.09113">
        <ele>1270.7</ele>
        <time>2014-08-16T12:54:29.070Z</time>
      </trkpt>
      <trkpt lat="46.55866" lon="6.09169">
        <ele>1271.9</ele>
        <time>2014-08-16T12:54:36.721Z</time>
      </trkpt>
      <trkpt lat="46.55869" lon="6.09186">
        <ele>1269.7</ele>
        <time>2014-08-16T12:54:39.220Z</time>
      </trkpt>
      <trkpt lat="46.55868" lon="6.09263">
        <ele>1270</ele>
        <time>2014-08-16T12:54:49.805Z</time>
      </trkpt>
      <trkpt lat="46.55846" lon="6.09466">
        <ele>1261.1</ele>
        <time>2014-08-16T12:55:05.624Z</time>
      </trkpt>
      <trkpt lat="46.55847" lon="6.09488">
        <ele>1259.1</ele>
        <time>2014-08-16T12:55:07.387Z</time>
      </trkpt>
      <trkpt lat="46.55853" lon="6.09513">
        <ele>1257.5</ele>
        <time>2014-08-16T12:55:09.808Z</time>
      </trkpt>
      <trkpt lat="46.55858" lon="6.09528">
        <ele>1256.9</ele>
        <time>2014-08-16T12:55:12.368Z</time>
      </trkpt>
      <trkpt lat="46.55876" lon="6.09558">
        <ele>1253.4</ele>
        <time>2014-08-16T12:56:15.779Z</time>
      </trkpt>
      <trkpt lat="46.55886" lon="6.09586">
        <ele>1242</ele>
        <time>2014-08-16T12:56:22.818Z</time>
      </trkpt>
      <trkpt lat="46.55892" lon="6.09598">
        <ele>1242.5</ele>
        <time>2014-08-16T12:56:25.454Z</time>
      </trkpt>
      <trkpt lat="46.559" lon="6.09607">
        <ele>1247.3</ele>
        <time>2014-08-16T12:56:28.098Z</time>
      </trkpt>
      <trkpt lat="46.55909" lon="6.0962">
        <ele>1251.5</ele>
        <time>2014-08-16T12:56:31.367Z</time>
      </trkpt>
      <trkpt lat="46.55911" lon="6.09646">
        <ele>1250.8</ele>
        <time>2014-08-16T12:56:41.710Z</time>
      </trkpt>
      <trkpt lat="46.55899" lon="6.09702">
        <ele>1250.2</ele>
        <time>2014-08-16T12:56:56.118Z</time>
      </trkpt>
      <trkpt lat="46.55899" lon="6.09715">
        <ele>1250.9</ele>
        <time>2014-08-16T12:56:59.740Z</time>
      </trkpt>
      <trkpt lat="46.55902" lon="6.09729">
        <ele>1252.4</ele>
        <time>2014-08-16T12:57:04.749Z</time>
      </trkpt>
      <trkpt lat="46.55909" lon="6.0974">
        <ele>1251.4</ele>
        <time>2014-08-16T12:57:09.929Z</time>
      </trkpt>
      <trkpt lat="46.55917" lon="6.09747">
        <ele>1249.8</ele>
        <time>2014-08-16T12:57:16.277Z</time>
      </trkpt>
      <trkpt lat="46.55926" lon="6.09752">
        <ele>1250.3</ele>
        <time>2014-08-16T12:57:21.326Z</time>
      </trkpt>
      <trkpt lat="46.55936" lon="6.09754">
        <ele>1251.3</ele>
        <time>2014-08-16T12:57:26.249Z</time>
      </trkpt>
      <trkpt lat="46.55947" lon="6.09753">
        <ele>1252.1</ele>
        <time>2014-08-16T12:57:31.133Z</time>
      </trkpt>
      <trkpt lat="46.55958" lon="6.09756">
        <ele>1252.7</ele>
        <time>2014-08-16T12:57:36.597Z</time>
      </trkpt>
      <trkpt lat="46.55967" lon="6.09762">
        <ele>1253.4</ele>
        <time>2014-08-16T12:57:42.289Z</time>
      </trkpt>
      <trkpt lat="46.55976" lon="6.0977">
        <ele>1254.1</ele>
        <time>2014-08-16T12:57:47.666Z</time>
      </trkpt>
      <trkpt lat="46.55992" lon="6.09789">
        <ele>1255.9</ele>
        <time>2014-08-16T12:57:58.494Z</time>
      </trkpt>
      <trkpt lat="46.56024" lon="6.09893">
        <ele>1261.6</ele>
        <time>2014-08-16T12:58:34.961Z</time>
      </trkpt>
      <trkpt lat="46.5603" lon="6.09904">
        <ele>1262.1</ele>
        <time>2014-08-16T12:58:37.629Z</time>
      </trkpt>
      <trkpt lat="46.56038" lon="6.09911">
        <ele>1262.4</ele>
        <time>2014-08-16T12:58:40.463Z</time>
      </trkpt>
      <trkpt lat="46.56075" lon="6.09917">
        <ele>1265.2</ele>
        <time>2014-08-16T12:58:48.938Z</time>
      </trkpt>
      <trkpt lat="46.56086" lon="6.0992">
        <ele>1265.8</ele>
        <time>2014-08-16T12:58:51.430Z</time>
      </trkpt>
      <trkpt lat="46.56094" lon="6.09927">
        <ele>1266.4</ele>
        <time>2014-08-16T12:58:53.734Z</time>
      </trkpt>
      <trkpt lat="46.56104" lon="6.0994">
        <ele>1267.5</ele>
        <time>2014-08-16T12:58:57.027Z</time>
      </trkpt>
      <trkpt lat="46.5611" lon="6.09953">
        <ele>1268.6</ele>
        <time>2014-08-16T12:58:59.709Z</time>
      </trkpt>
      <trkpt lat="46.56118" lon="6.09982">
        <ele>1267.9</ele>
        <time>2014-08-16T12:59:06.285Z</time>
      </trkpt>
      <trkpt lat="46.5612" lon="6.09998">
        <ele>1267.1</ele>
        <time>2014-08-16T12:59:09.723Z</time>
      </trkpt>
      <trkpt lat="46.5612" lon="6.10013">
        <ele>1266.5</ele>
        <time>2014-08-16T12:59:12.451Z</time>
      </trkpt>
      <trkpt lat="46.56126" lon="6.10073">
        <ele>1263.8</ele>
        <time>2014-08-16T12:59:23.059Z</time>
      </trkpt>
      <trkpt lat="46.56134" lon="6.10105">
        <ele>1262.8</ele>
        <time>2014-08-16T12:59:28.372Z</time>
      </trkpt>
      <trkpt lat="46.56136" lon="6.10124">
        <ele>1263.4</ele>
        <time>2014-08-16T12:59:31.133Z</time>
      </trkpt>
      <trkpt lat="46.56141" lon="6.10139">
        <ele>1263.6</ele>
        <time>2014-08-16T12:59:33.186Z</time>
      </trkpt>
      <trkpt lat="46.56152" lon="6.10158">
        <ele>1263.3</ele>
        <time>2014-08-16T12:59:36.466Z</time>
      </trkpt>
      <trkpt lat="46.56161" lon="6.10171">
        <ele>1262.3</ele>
        <time>2014-08-16T12:59:38.946Z</time>
      </trkpt>
      <trkpt lat="46.56173" lon="6.10182">
        <ele>1260.4</ele>
        <time>2014-08-16T12:59:42.304Z</time>
      </trkpt>
      <trkpt lat="46.56183" lon="6.10187">
        <ele>1258.9</ele>
        <time>2014-08-16T12:59:44.810Z</time>
      </trkpt>
      <trkpt lat="46.56194" lon="6.10194">
        <ele>1258.5</ele>
        <time>2014-08-16T12:59:47.896Z</time>
      </trkpt>
      <trkpt lat="46.56203" lon="6.102">
        <ele>1259</ele>
        <time>2014-08-16T12:59:51.257Z</time>
      </trkpt>
      <trkpt lat="46.56231" lon="6.10237">
        <ele>1261.6</ele>
        <time>2014-08-16T13:00:14.168Z</time>
      </trkpt>
      <trkpt lat="46.5624" lon="6.10244">
        <ele>1261.2</ele>
        <time>2014-08-16T13:00:23.807Z</time>
      </trkpt>
      <trkpt lat="46.5626" lon="6.10246">
        <ele>1267.2</ele>
        <time>2014-08-16T13:00:38.504Z</time>
      </trkpt>
      <trkpt lat="46.56271" lon="6.10246">
        <ele>1272.1</ele>
        <time>2014-08-16T13:00:43.861Z</time>
      </trkpt>
      <trkpt lat="46.56282" lon="6.1025">
        <ele>1274.7</ele>
        <time>2014-08-16T13:00:49.165Z</time>
      </trkpt>
      <trkpt lat="46.56291" lon="6.10252">
        <ele>1275</ele>
        <time>2014-08-16T13:00:53.921Z</time>
      </trkpt>
      <trkpt lat="46.563" lon="6.10256">
        <ele>1274.1</ele>
        <time>2014-08-16T13:00:58.840Z</time>
      </trkpt>
      <trkpt lat="46.5631" lon="6.10262">
        <ele>1273.1</ele>
        <time>2014-08-16T13:01:04.886Z</time>
      </trkpt>
      <trkpt lat="46.56343" lon="6.10298">
        <ele>1274.8</ele>
        <time>2014-08-16T13:01:27.360Z</time>
      </trkpt>
      <trkpt lat="46.56354" lon="6.10305">
        <ele>1275.8</ele>
        <time>2014-08-16T13:02:22.142Z</time>
      </trkpt>
      <trkpt lat="46.56371" lon="6.10295">
        <ele>1274.7</ele>
        <time>2014-08-16T13:02:33.931Z</time>
      </trkpt>
      <trkpt lat="46.56379" lon="6.10287">
        <ele>1276.6</ele>
        <time>2014-08-16T13:02:39.357Z</time>
      </trkpt>
      <trkpt lat="46.56393" lon="6.10282">
        <ele>1278.8</ele>
        <time>2014-08-16T13:03:13.165Z</time>
      </trkpt>
      <trkpt lat="46.56418" lon="6.10209">
        <ele>1286.9</ele>
        <time>2014-08-16T13:04:14.364Z</time>
      </trkpt>
      <trkpt lat="46.56426" lon="6.10201">
        <ele>1284.4</ele>
        <time>2014-08-16T13:04:37.361Z</time>
      </trkpt>
      <trkpt lat="46.56447" lon="6.10195">
        <ele>1283.3</ele>
        <time>2014-08-16T13:06:15.179Z</time>
      </trkpt>
      <trkpt lat="46.56456" lon="6.10199">
        <ele>1283.8</ele>
        <time>2014-08-16T13:06:30.000Z</time>
      </trkpt>
      <trkpt lat="46.56465" lon="6.10195">
        <ele>1286.3</ele>
        <time>2014-08-16T13:06:39.400Z</time>
      </trkpt>
      <trkpt lat="46.56475" lon="6.10195">
        <ele>1290.1</ele>
        <time>2014-08-16T13:06:44.368Z</time>
      </trkpt>
      <trkpt lat="46.56496" lon="6.10209">
        <ele>1291.8</ele>
        <time>2014-08-16T13:08:24.364Z</time>
      </trkpt>
      <trkpt lat="46.56485" lon="6.10201">
        <ele>1290.1</ele>
        <time>2014-08-16T13:10:06.930Z</time>
      </trkpt>
      <trkpt lat="46.56465" lon="6.10199">
        <ele>1293.5</ele>
        <time>2014-08-16T13:10:20.682Z</time>
      </trkpt>
      <trkpt lat="46.56456" lon="6.10195">
        <ele>1296.2</ele>
        <time>2014-08-16T13:10:25.550Z</time>
      </trkpt>
      <trkpt lat="46.56447" lon="6.10189">
        <ele>1297.2</ele>
        <time>2014-08-16T13:10:33.308Z</time>
      </trkpt>
      <trkpt lat="46.56445" lon="6.10159">
        <ele>1295.8</ele>
        <time>2014-08-16T13:10:51.142Z</time>
      </trkpt>
      <trkpt lat="46.56445" lon="6.10146">
        <ele>1295.2</ele>
        <time>2014-08-16T13:10:56.868Z</time>
      </trkpt>
      <trkpt lat="46.56442" lon="6.10133">
        <ele>1294.9</ele>
        <time>2014-08-16T13:11:02.859Z</time>
      </trkpt>
      <trkpt lat="46.56443" lon="6.10104">
        <ele>1293.2</ele>
        <time>2014-08-16T13:11:15.809Z</time>
      </trkpt>
      <trkpt lat="46.56447" lon="6.1009">
        <ele>1292.1</ele>
        <time>2014-08-16T13:11:22.631Z</time>
      </trkpt>
      <trkpt lat="46.56454" lon="6.10081">
        <ele>1291.8</ele>
        <time>2014-08-16T13:11:29.685Z</time>
      </trkpt>
      <trkpt lat="46.56466" lon="6.10059">
        <ele>1293</ele>
        <time>2014-08-16T13:11:44.369Z</time>
      </trkpt>
      <trkpt lat="46.56484" lon="6.10031">
        <ele>1293</ele>
        <time>2014-08-16T13:12:30.007Z</time>
      </trkpt>
      <trkpt lat="46.56493" lon="6.10027">
        <ele>1295.2</ele>
        <time>2014-08-16T13:12:35.445Z</time>
      </trkpt>
      <trkpt lat="46.56502" lon="6.10031">
        <ele>1298.5</ele>
        <time>2014-08-16T13:12:40.340Z</time>
      </trkpt>
      <trkpt lat="46.5651" lon="6.10037">
        <ele>1301.7</ele>
        <time>2014-08-16T13:12:45.270Z</time>
      </trkpt>
      <trkpt lat="46.56511" lon="6.10051">
        <ele>1304.3</ele>
        <time>2014-08-16T13:12:50.596Z</time>
      </trkpt>
      <trkpt lat="46.56514" lon="6.10065">
        <ele>1305.6</ele>
        <time>2014-08-16T13:12:56.581Z</time>
      </trkpt>
      <trkpt lat="46.56522" lon="6.10073">
        <ele>1306.2</ele>
        <time>2014-08-16T13:13:02.340Z</time>
      </trkpt>
      <trkpt lat="46.56532" lon="6.10074">
        <ele>1307.1</ele>
        <time>2014-08-16T13:13:07.353Z</time>
      </trkpt>
      <trkpt lat="46.56542" lon="6.10073">
        <ele>1308.5</ele>
        <time>2014-08-16T13:13:12.554Z</time>
      </trkpt>
      <trkpt lat="46.56559" lon="6.10062">
        <ele>1308.9</ele>
        <time>2014-08-16T13:13:22.362Z</time>
      </trkpt>
      <trkpt lat="46.56552" lon="6.10071">
        <ele>1305.8</ele>
        <time>2014-08-16T13:15:47.272Z</time>
      </trkpt>
      <trkpt lat="46.56544" lon="6.10076">
        <ele>1304.8</ele>
        <time>2014-08-16T13:15:55.371Z</time>
      </trkpt>
      <trkpt lat="46.56523" lon="6.10073">
        <ele>1302.9</ele>
        <time>2014-08-16T13:18:11.831Z</time>
      </trkpt>
      <trkpt lat="46.56523" lon="6.10058">
        <ele>1302.8</ele>
        <time>2014-08-16T13:18:19.293Z</time>
      </trkpt>
      <trkpt lat="46.56518" lon="6.10044">
        <ele>1302.3</ele>
        <time>2014-08-16T13:18:23.600Z</time>
      </trkpt>
      <trkpt lat="46.56509" lon="6.10038">
        <ele>1300.9</ele>
        <time>2014-08-16T13:18:26.115Z</time>
      </trkpt>
      <trkpt lat="46.565" lon="6.10037">
        <ele>1299.5</ele>
        <time>2014-08-16T13:18:28.369Z</time>
      </trkpt>
      <trkpt lat="46.56487" lon="6.1001">
        <ele>1298.2</ele>
        <time>2014-08-16T13:19:47.368Z</time>
      </trkpt>
      <trkpt lat="46.56482" lon="6.10036">
        <ele>1297</ele>
        <time>2014-08-16T13:21:19.959Z</time>
      </trkpt>
      <trkpt lat="46.56461" lon="6.10067">
        <ele>1296</ele>
        <time>2014-08-16T13:21:33.195Z</time>
      </trkpt>
      <trkpt lat="46.56452" lon="6.10076">
        <ele>1293.9</ele>
        <time>2014-08-16T13:21:36.530Z</time>
      </trkpt>
      <trkpt lat="46.56449" lon="6.1009">
        <ele>1289.4</ele>
        <time>2014-08-16T13:21:39.850Z</time>
      </trkpt>
      <trkpt lat="46.56449" lon="6.10105">
        <ele>1285.4</ele>
        <time>2014-08-16T13:21:43.095Z</time>
      </trkpt>
      <trkpt lat="46.56448" lon="6.10121">
        <ele>1284.4</ele>
        <time>2014-08-16T13:21:46.105Z</time>
      </trkpt>
      <trkpt lat="46.56445" lon="6.10134">
        <ele>1285.6</ele>
        <time>2014-08-16T13:21:48.614Z</time>
      </trkpt>
      <trkpt lat="46.56444" lon="6.10148">
        <ele>1286.8</ele>
        <time>2014-08-16T13:21:50.665Z</time>
      </trkpt>
      <trkpt lat="46.56447" lon="6.10181">
        <ele>1285.4</ele>
        <time>2014-08-16T13:21:55.375Z</time>
      </trkpt>
      <trkpt lat="46.56436" lon="6.10204">
        <ele>1283</ele>
        <time>2014-08-16T13:22:51.083Z</time>
      </trkpt>
      <trkpt lat="46.56424" lon="6.10208">
        <ele>1283.5</ele>
        <time>2014-08-16T13:22:57.130Z</time>
      </trkpt>
      <trkpt lat="46.56414" lon="6.10217">
        <ele>1284.4</ele>
        <time>2014-08-16T13:23:01.121Z</time>
      </trkpt>
      <trkpt lat="46.56405" lon="6.1022">
        <ele>1285.3</ele>
        <time>2014-08-16T13:23:04.368Z</time>
      </trkpt>
      <trkpt lat="46.56396" lon="6.10235">
        <ele>1284.1</ele>
        <time>2014-08-16T13:23:14.879Z</time>
      </trkpt>
      <trkpt lat="46.56397" lon="6.10251">
        <ele>1282.2</ele>
        <time>2014-08-16T13:23:19.053Z</time>
      </trkpt>
      <trkpt lat="46.56379" lon="6.10283">
        <ele>1272.4</ele>
        <time>2014-08-16T13:23:27.634Z</time>
      </trkpt>
      <trkpt lat="46.5637" lon="6.1029">
        <ele>1271.1</ele>
        <time>2014-08-16T13:23:30.394Z</time>
      </trkpt>
      <trkpt lat="46.56363" lon="6.103">
        <ele>1267.5</ele>
        <time>2014-08-16T13:23:33.616Z</time>
      </trkpt>
      <trkpt lat="46.56354" lon="6.10303">
        <ele>1262.3</ele>
        <time>2014-08-16T13:23:36.865Z</time>
      </trkpt>
      <trkpt lat="46.56345" lon="6.10295">
        <ele>1259.3</ele>
        <time>2014-08-16T13:23:41.732Z</time>
      </trkpt>
      <trkpt lat="46.56331" lon="6.10276">
        <ele>1268.7</ele>
        <time>2014-08-16T13:23:52.612Z</time>
      </trkpt>
      <trkpt lat="46.56302" lon="6.10253">
        <ele>1275.5</ele>
        <time>2014-08-16T13:24:10.340Z</time>
      </trkpt>
      <trkpt lat="46.56292" lon="6.10249">
        <ele>1270.4</ele>
        <time>2014-08-16T13:24:13.723Z</time>
      </trkpt>
      <trkpt lat="46.56281" lon="6.10245">
        <ele>1267.4</ele>
        <time>2014-08-16T13:24:17.385Z</time>
      </trkpt>
      <trkpt lat="46.5627" lon="6.10243">
        <ele>1267</ele>
        <time>2014-08-16T13:24:20.979Z</time>
      </trkpt>
      <trkpt lat="46.56252" lon="6.10243">
        <ele>1268.5</ele>
        <time>2014-08-16T13:24:26.143Z</time>
      </trkpt>
      <trkpt lat="46.56238" lon="6.10238">
        <ele>1270.3</ele>
        <time>2014-08-16T13:24:29.137Z</time>
      </trkpt>
      <trkpt lat="46.56156" lon="6.10166">
        <ele>1269.7</ele>
        <time>2014-08-16T13:24:40.847Z</time>
      </trkpt>
      <trkpt lat="46.56146" lon="6.10146">
        <ele>1266.4</ele>
        <time>2014-08-16T13:24:42.596Z</time>
      </trkpt>
      <trkpt lat="46.5614" lon="6.10128">
        <ele>1262.4</ele>
        <time>2014-08-16T13:24:44.367Z</time>
      </trkpt>
      <trkpt lat="46.56136" lon="6.10111">
        <ele>1258.6</ele>
        <time>2014-08-16T13:24:46.375Z</time>
      </trkpt>
      <trkpt lat="46.56129" lon="6.10034">
        <ele>1257</ele>
        <time>2014-08-16T13:25:00.365Z</time>
      </trkpt>
      <trkpt lat="46.56118" lon="6.09971">
        <ele>1259.5</ele>
        <time>2014-08-16T13:25:13.384Z</time>
      </trkpt>
      <trkpt lat="46.56106" lon="6.09945">
        <ele>1257.9</ele>
        <time>2014-08-16T13:25:22.316Z</time>
      </trkpt>
      <trkpt lat="46.56096" lon="6.09935">
        <ele>1258.5</ele>
        <time>2014-08-16T13:25:24.868Z</time>
      </trkpt>
      <trkpt lat="46.56074" lon="6.09923">
        <ele>1262.5</ele>
        <time>2014-08-16T13:25:30.176Z</time>
      </trkpt>
      <trkpt lat="46.56062" lon="6.09921">
        <ele>1264.1</ele>
        <time>2014-08-16T13:25:33.401Z</time>
      </trkpt>
      <trkpt lat="46.56052" lon="6.09919">
        <ele>1265.4</ele>
        <time>2014-08-16T13:25:36.279Z</time>
      </trkpt>
      <trkpt lat="46.56041" lon="6.09919">
        <ele>1266.6</ele>
        <time>2014-08-16T13:25:40.384Z</time>
      </trkpt>
      <trkpt lat="46.56033" lon="6.09907">
        <ele>1266.4</ele>
        <time>2014-08-16T13:25:44.497Z</time>
      </trkpt>
      <trkpt lat="46.56027" lon="6.0989">
        <ele>1263.9</ele>
        <time>2014-08-16T13:25:49.540Z</time>
      </trkpt>
      <trkpt lat="46.56021" lon="6.09876">
        <ele>1261</ele>
        <time>2014-08-16T13:25:52.848Z</time>
      </trkpt>
      <trkpt lat="46.56018" lon="6.0986">
        <ele>1259.9</ele>
        <time>2014-08-16T13:25:56.278Z</time>
      </trkpt>
      <trkpt lat="46.56007" lon="6.09833">
        <ele>1260.2</ele>
        <time>2014-08-16T13:26:03.079Z</time>
      </trkpt>
      <trkpt lat="46.56005" lon="6.09819">
        <ele>1261</ele>
        <time>2014-08-16T13:26:06.471Z</time>
      </trkpt>
      <trkpt lat="46.55997" lon="6.09804">
        <ele>1262.8</ele>
        <time>2014-08-16T13:26:11.376Z</time>
      </trkpt>
      <trkpt lat="46.55979" lon="6.09783">
        <ele>1263.1</ele>
        <time>2014-08-16T13:26:17.789Z</time>
      </trkpt>
      <trkpt lat="46.55962" lon="6.09771">
        <ele>1261.8</ele>
        <time>2014-08-16T13:26:20.652Z</time>
      </trkpt>
      <trkpt lat="46.5594" lon="6.09765">
        <ele>1260.4</ele>
        <time>2014-08-16T13:26:23.575Z</time>
      </trkpt>
      <trkpt lat="46.55912" lon="6.09752">
        <ele>1259.5</ele>
        <time>2014-08-16T13:26:27.468Z</time>
      </trkpt>
      <trkpt lat="46.55898" lon="6.09725">
        <ele>1258.6</ele>
        <time>2014-08-16T13:26:30.826Z</time>
      </trkpt>
      <trkpt lat="46.559" lon="6.09693">
        <ele>1257</ele>
        <time>2014-08-16T13:26:33.620Z</time>
      </trkpt>
      <trkpt lat="46.55907" lon="6.09652">
        <ele>1253.9</ele>
        <time>2014-08-16T13:26:37.342Z</time>
      </trkpt>
      <trkpt lat="46.55909" lon="6.0962">
        <ele>1249.2</ele>
        <time>2014-08-16T13:26:41.466Z</time>
      </trkpt>
      <trkpt lat="46.55906" lon="6.09605">
        <ele>1244.6</ele>
        <time>2014-08-16T13:26:43.563Z</time>
      </trkpt>
      <trkpt lat="46.55887" lon="6.09567">
        <ele>1241.4</ele>
        <time>2014-08-16T13:26:49.468Z</time>
      </trkpt>
      <trkpt lat="46.55871" lon="6.09556">
        <ele>1242.1</ele>
        <time>2014-08-16T13:26:52.886Z</time>
      </trkpt>
      <trkpt lat="46.55851" lon="6.09563">
        <ele>1243.1</ele>
        <time>2014-08-16T13:26:57.237Z</time>
      </trkpt>
      <trkpt lat="46.55835" lon="6.09573">
        <ele>1243.7</ele>
        <time>2014-08-16T13:27:01.905Z</time>
      </trkpt>
      <trkpt lat="46.55771" lon="6.09629">
        <ele>1241.4</ele>
        <time>2014-08-16T13:27:15.773Z</time>
      </trkpt>
      <trkpt lat="46.55756" lon="6.09638">
        <ele>1241.3</ele>
        <time>2014-08-16T13:27:18.282Z</time>
      </trkpt>
      <trkpt lat="46.55745" lon="6.09651">
        <ele>1241.8</ele>
        <time>2014-08-16T13:27:20.433Z</time>
      </trkpt>
      <trkpt lat="46.55747" lon="6.0968">
        <ele>1242.2</ele>
        <time>2014-08-16T13:27:23.435Z</time>
      </trkpt>
      <trkpt lat="46.55754" lon="6.09708">
        <ele>1241.1</ele>
        <time>2014-08-16T13:27:26.338Z</time>
      </trkpt>
      <trkpt lat="46.55747" lon="6.09727">
        <ele>1237.8</ele>
        <time>2014-08-16T13:27:28.305Z</time>
      </trkpt>
      <trkpt lat="46.55701" lon="6.09763">
        <ele>1230.8</ele>
        <time>2014-08-16T13:27:34.764Z</time>
      </trkpt>
      <trkpt lat="46.55687" lon="6.09777">
        <ele>1230.1</ele>
        <time>2014-08-16T13:27:36.894Z</time>
      </trkpt>
      <trkpt lat="46.55674" lon="6.09813">
        <ele>1229.3</ele>
        <time>2014-08-16T13:27:40.499Z</time>
      </trkpt>
      <trkpt lat="46.55674" lon="6.09852">
        <ele>1228.8</ele>
        <time>2014-08-16T13:27:43.811Z</time>
      </trkpt>
      <trkpt lat="46.55695" lon="6.09893">
        <ele>1228.3</ele>
        <time>2014-08-16T13:27:48.104Z</time>
      </trkpt>
      <trkpt lat="46.55708" lon="6.09929">
        <ele>1228.2</ele>
        <time>2014-08-16T13:27:51.172Z</time>
      </trkpt>
      <trkpt lat="46.55641" lon="6.10035">
        <ele>1226.2</ele>
        <time>2014-08-16T13:28:02.694Z</time>
      </trkpt>
      <trkpt lat="46.5562" lon="6.10088">
        <ele>1224.6</ele>
        <time>2014-08-16T13:28:08.473Z</time>
      </trkpt>
      <trkpt lat="46.55607" lon="6.10113">
        <ele>1222.5</ele>
        <time>2014-08-16T13:28:11.266Z</time>
      </trkpt>
      <trkpt lat="46.55512" lon="6.10187">
        <ele>1220.4</ele>
        <time>2014-08-16T13:28:29.197Z</time>
      </trkpt>
      <trkpt lat="46.55504" lon="6.10207">
        <ele>1220</ele>
        <time>2014-08-16T13:28:32.262Z</time>
      </trkpt>
      <trkpt lat="46.55503" lon="6.10226">
        <ele>1219.8</ele>
        <time>2014-08-16T13:28:34.620Z</time>
      </trkpt>
      <trkpt lat="46.55506" lon="6.10249">
        <ele>1220.3</ele>
        <time>2014-08-16T13:28:37.586Z</time>
      </trkpt>
      <trkpt lat="46.55506" lon="6.10276">
        <ele>1221.4</ele>
        <time>2014-08-16T13:28:41.173Z</time>
      </trkpt>
      <trkpt lat="46.55508" lon="6.10289">
        <ele>1222.4</ele>
        <time>2014-08-16T13:28:43.173Z</time>
      </trkpt>
      <trkpt lat="46.55504" lon="6.10313">
        <ele>1223</ele>
        <time>2014-08-16T13:28:46.836Z</time>
      </trkpt>
      <trkpt lat="46.55474" lon="6.10367">
        <ele>1223.4</ele>
        <time>2014-08-16T13:29:00.307Z</time>
      </trkpt>
      <trkpt lat="46.55466" lon="6.10386">
        <ele>1223.4</ele>
        <time>2014-08-16T13:29:05.391Z</time>
      </trkpt>
      <trkpt lat="46.55452" lon="6.10409">
        <ele>1224.1</ele>
        <time>2014-08-16T13:29:11.961Z</time>
      </trkpt>
      <trkpt lat="46.55442" lon="6.10418">
        <ele>1224.8</ele>
        <time>2014-08-16T13:29:15.295Z</time>
      </trkpt>
      <trkpt lat="46.55418" lon="6.10448">
        <ele>1225.9</ele>
        <time>2014-08-16T13:29:24.430Z</time>
      </trkpt>
      <trkpt lat="46.55411" lon="6.10457">
        <ele>1226.2</ele>
        <time>2014-08-16T13:29:26.771Z</time>
      </trkpt>
      <trkpt lat="46.55402" lon="6.10468">
        <ele>1225.9</ele>
        <time>2014-08-16T13:29:29.969Z</time>
      </trkpt>
      <trkpt lat="46.55374" lon="6.10491">
        <ele>1219.1</ele>
        <time>2014-08-16T13:29:39.441Z</time>
      </trkpt>
      <trkpt lat="46.55362" lon="6.10498">
        <ele>1217.2</ele>
        <time>2014-08-16T13:29:44.124Z</time>
      </trkpt>
      <trkpt lat="46.55352" lon="6.10506">
        <ele>1215.9</ele>
        <time>2014-08-16T13:29:47.683Z</time>
      </trkpt>
      <trkpt lat="46.55346" lon="6.1052">
        <ele>1215.1</ele>
        <time>2014-08-16T13:29:50.813Z</time>
      </trkpt>
      <trkpt lat="46.55344" lon="6.10536">
        <ele>1214.7</ele>
        <time>2014-08-16T13:29:54.144Z</time>
      </trkpt>
      <trkpt lat="46.55347" lon="6.10554">
        <ele>1214.1</ele>
        <time>2014-08-16T13:29:57.972Z</time>
      </trkpt>
      <trkpt lat="46.55355" lon="6.10565">
        <ele>1213.6</ele>
        <time>2014-08-16T13:30:01.746Z</time>
      </trkpt>
      <trkpt lat="46.55365" lon="6.1057">
        <ele>1214.1</ele>
        <time>2014-08-16T13:30:05.304Z</time>
      </trkpt>
      <trkpt lat="46.55376" lon="6.10566">
        <ele>1216.3</ele>
        <time>2014-08-16T13:30:09.021Z</time>
      </trkpt>
      <trkpt lat="46.55385" lon="6.10565">
        <ele>1219.4</ele>
        <time>2014-08-16T13:30:12.053Z</time>
      </trkpt>
      <trkpt lat="46.55397" lon="6.10568">
        <ele>1221.9</ele>
        <time>2014-08-16T13:30:15.816Z</time>
      </trkpt>
      <trkpt lat="46.55407" lon="6.10576">
        <ele>1223.9</ele>
        <time>2014-08-16T13:30:19.630Z</time>
      </trkpt>
      <trkpt lat="46.55422" lon="6.10596">
        <ele>1226.4</ele>
        <time>2014-08-16T13:30:26.484Z</time>
      </trkpt>
      <trkpt lat="46.55442" lon="6.1063">
        <ele>1230.4</ele>
        <time>2014-08-16T13:30:35.150Z</time>
      </trkpt>
      <trkpt lat="46.5548" lon="6.10679">
        <ele>1231.5</ele>
        <time>2014-08-16T13:30:49.106Z</time>
      </trkpt>
      <trkpt lat="46.55489" lon="6.10695">
        <ele>1230.3</ele>
        <time>2014-08-16T13:30:52.464Z</time>
      </trkpt>
      <trkpt lat="46.55491" lon="6.10709">
        <ele>1229.4</ele>
        <time>2014-08-16T13:30:54.729Z</time>
      </trkpt>
      <trkpt lat="46.55486" lon="6.10755">
        <ele>1225.8</ele>
        <time>2014-08-16T13:31:01.829Z</time>
      </trkpt>
      <trkpt lat="46.55488" lon="6.10773">
        <ele>1225.1</ele>
        <time>2014-08-16T13:31:04.457Z</time>
      </trkpt>
      <trkpt lat="46.55487" lon="6.10793">
        <ele>1224.5</ele>
        <time>2014-08-16T13:31:07.250Z</time>
      </trkpt>
      <trkpt lat="46.55483" lon="6.10806">
        <ele>1224.2</ele>
        <time>2014-08-16T13:31:09.202Z</time>
      </trkpt>
      <trkpt lat="46.55475" lon="6.10822">
        <ele>1223.8</ele>
        <time>2014-08-16T13:31:12.146Z</time>
      </trkpt>
      <trkpt lat="46.55464" lon="6.10833">
        <ele>1223.2</ele>
        <time>2014-08-16T13:31:15.030Z</time>
      </trkpt>
      <trkpt lat="46.55415" lon="6.10913">
        <ele>1217.1</ele>
        <time>2014-08-16T13:31:36.474Z</time>
      </trkpt>
      <trkpt lat="46.55406" lon="6.10925">
        <ele>1218.1</ele>
        <time>2014-08-16T13:31:42.620Z</time>
      </trkpt>
      <trkpt lat="46.55402" lon="6.1094">
        <ele>1220.4</ele>
        <time>2014-08-16T13:31:47.679Z</time>
      </trkpt>
      <trkpt lat="46.55406" lon="6.10976">
        <ele>1224.1</ele>
        <time>2014-08-16T13:32:06.979Z</time>
      </trkpt>
      <trkpt lat="46.55406" lon="6.10991">
        <ele>1224.4</ele>
        <time>2014-08-16T13:32:58.514Z</time>
      </trkpt>
      <trkpt lat="46.55398" lon="6.11003">
        <ele>1224.3</ele>
        <time>2014-08-16T13:33:58.412Z</time>
      </trkpt>
      <trkpt lat="46.55407" lon="6.11003">
        <ele>1224.4</ele>
        <time>2014-08-16T13:34:47.377Z</time>
      </trkpt>
      <trkpt lat="46.55382" lon="6.11003">
        <ele>1223</ele>
        <time>2014-08-16T13:38:13.630Z</time>
      </trkpt>
      <trkpt lat="46.55369" lon="6.10998">
        <ele>1223.4</ele>
        <time>2014-08-16T13:38:16.844Z</time>
      </trkpt>
      <trkpt lat="46.55353" lon="6.10985">
        <ele>1224.7</ele>
        <time>2014-08-16T13:38:20.426Z</time>
      </trkpt>
      <trkpt lat="46.55342" lon="6.10973">
        <ele>1225.9</ele>
        <time>2014-08-16T13:38:22.957Z</time>
      </trkpt>
      <trkpt lat="46.55337" lon="6.1096">
        <ele>1226.1</ele>
        <time>2014-08-16T13:38:25.019Z</time>
      </trkpt>
      <trkpt lat="46.5533" lon="6.10928">
        <ele>1225.4</ele>
        <time>2014-08-16T13:38:29.674Z</time>
      </trkpt>
      <trkpt lat="46.55325" lon="6.10913">
        <ele>1225.8</ele>
        <time>2014-08-16T13:38:32.229Z</time>
      </trkpt>
      <trkpt lat="46.55318" lon="6.10899">
        <ele>1226.4</ele>
        <time>2014-08-16T13:38:35.265Z</time>
      </trkpt>
      <trkpt lat="46.55303" lon="6.10895">
        <ele>1226.3</ele>
        <time>2014-08-16T13:38:39.137Z</time>
      </trkpt>
      <trkpt lat="46.55291" lon="6.10898">
        <ele>1225.3</ele>
        <time>2014-08-16T13:38:42.741Z</time>
      </trkpt>
      <trkpt lat="46.55281" lon="6.10903">
        <ele>1224.5</ele>
        <time>2014-08-16T13:38:45.866Z</time>
      </trkpt>
      <trkpt lat="46.55272" lon="6.10912">
        <ele>1226.1</ele>
        <time>2014-08-16T13:38:49.501Z</time>
      </trkpt>
      <trkpt lat="46.55265" lon="6.10922">
        <ele>1227.8</ele>
        <time>2014-08-16T13:38:53.215Z</time>
      </trkpt>
      <trkpt lat="46.55258" lon="6.10931">
        <ele>1229.2</ele>
        <time>2014-08-16T13:38:57.237Z</time>
      </trkpt>
      <trkpt lat="46.5525" lon="6.10936">
        <ele>1230</ele>
        <time>2014-08-16T13:39:01.412Z</time>
      </trkpt>
      <trkpt lat="46.55241" lon="6.10938">
        <ele>1231.2</ele>
        <time>2014-08-16T13:39:06.139Z</time>
      </trkpt>
      <trkpt lat="46.55231" lon="6.10936">
        <ele>1233.5</ele>
        <time>2014-08-16T13:39:11.587Z</time>
      </trkpt>
      <trkpt lat="46.55222" lon="6.10932">
        <ele>1236.4</ele>
        <time>2014-08-16T13:39:17.501Z</time>
      </trkpt>
      <trkpt lat="46.55212" lon="6.10929">
        <ele>1238.8</ele>
        <time>2014-08-16T13:39:23.538Z</time>
      </trkpt>
      <trkpt lat="46.55202" lon="6.10929">
        <ele>1239.9</ele>
        <time>2014-08-16T13:39:29.440Z</time>
      </trkpt>
      <trkpt lat="46.55174" lon="6.10934">
        <ele>1237.4</ele>
        <time>2014-08-16T13:39:45.001Z</time>
      </trkpt>
      <trkpt lat="46.55164" lon="6.10931">
        <ele>1237.6</ele>
        <time>2014-08-16T13:39:51.049Z</time>
      </trkpt>
      <trkpt lat="46.5515" lon="6.10913">
        <ele>1239.6</ele>
        <time>2014-08-16T13:40:01.773Z</time>
      </trkpt>
      <trkpt lat="46.55144" lon="6.10901">
        <ele>1239.4</ele>
        <time>2014-08-16T13:40:06.389Z</time>
      </trkpt>
      <trkpt lat="46.55116" lon="6.10813">
        <ele>1246.5</ele>
        <time>2014-08-16T13:40:38.393Z</time>
      </trkpt>
      <trkpt lat="46.55105" lon="6.10798">
        <ele>1247.6</ele>
        <time>2014-08-16T13:40:41.441Z</time>
      </trkpt>
      <trkpt lat="46.55085" lon="6.10795">
        <ele>1246.5</ele>
        <time>2014-08-16T13:40:44.470Z</time>
      </trkpt>
      <trkpt lat="46.55063" lon="6.10802">
        <ele>1245.3</ele>
        <time>2014-08-16T13:40:47.866Z</time>
      </trkpt>
      <trkpt lat="46.55044" lon="6.10804">
        <ele>1245.9</ele>
        <time>2014-08-16T13:40:50.824Z</time>
      </trkpt>
      <trkpt lat="46.55034" lon="6.10787">
        <ele>1246.7</ele>
        <time>2014-08-16T13:40:53.252Z</time>
      </trkpt>
      <trkpt lat="46.55025" lon="6.10767">
        <ele>1246.2</ele>
        <time>2014-08-16T13:40:55.868Z</time>
      </trkpt>
      <trkpt lat="46.5502" lon="6.10748">
        <ele>1245</ele>
        <time>2014-08-16T13:40:57.858Z</time>
      </trkpt>
      <trkpt lat="46.55028" lon="6.10661">
        <ele>1241.2</ele>
        <time>2014-08-16T13:41:06.305Z</time>
      </trkpt>
      <trkpt lat="46.55027" lon="6.10644">
        <ele>1239</ele>
        <time>2014-08-16T13:41:07.994Z</time>
      </trkpt>
      <trkpt lat="46.55024" lon="6.10625">
        <ele>1237.6</ele>
        <time>2014-08-16T13:41:10.333Z</time>
      </trkpt>
      <trkpt lat="46.55019" lon="6.10609">
        <ele>1237.3</ele>
        <time>2014-08-16T13:41:12.515Z</time>
      </trkpt>
      <trkpt lat="46.55006" lon="6.10587">
        <ele>1239</ele>
        <time>2014-08-16T13:41:17.010Z</time>
      </trkpt>
      <trkpt lat="46.55001" lon="6.10573">
        <ele>1240.2</ele>
        <time>2014-08-16T13:41:19.784Z</time>
      </trkpt>
      <trkpt lat="46.54991" lon="6.10537">
        <ele>1241.5</ele>
        <time>2014-08-16T13:41:25.838Z</time>
      </trkpt>
      <trkpt lat="46.54984" lon="6.10518">
        <ele>1240.2</ele>
        <time>2014-08-16T13:41:28.856Z</time>
      </trkpt>
      <trkpt lat="46.54974" lon="6.105">
        <ele>1238.1</ele>
        <time>2014-08-16T13:41:31.608Z</time>
      </trkpt>
      <trkpt lat="46.54961" lon="6.10486">
        <ele>1236.1</ele>
        <time>2014-08-16T13:41:34.256Z</time>
      </trkpt>
      <trkpt lat="46.54931" lon="6.10439">
        <ele>1234.2</ele>
        <time>2014-08-16T13:41:41.399Z</time>
      </trkpt>
      <trkpt lat="46.54869" lon="6.10313">
        <ele>1229.4</ele>
        <time>2014-08-16T13:41:58.307Z</time>
      </trkpt>
      <trkpt lat="46.54857" lon="6.10295">
        <ele>1227.9</ele>
        <time>2014-08-16T13:42:00.948Z</time>
      </trkpt>
      <trkpt lat="46.54742" lon="6.10153">
        <ele>1237.9</ele>
        <time>2014-08-16T13:42:35.042Z</time>
      </trkpt>
      <trkpt lat="46.54734" lon="6.10138">
        <ele>1236.8</ele>
        <time>2014-08-16T13:42:37.859Z</time>
      </trkpt>
      <trkpt lat="46.54716" lon="6.10097">
        <ele>1233.4</ele>
        <time>2014-08-16T13:42:45.004Z</time>
      </trkpt>
      <trkpt lat="46.5471" lon="6.10086">
        <ele>1233.2</ele>
        <time>2014-08-16T13:42:47.478Z</time>
      </trkpt>
      <trkpt lat="46.54662" lon="6.09984">
        <ele>1233.2</ele>
        <time>2014-08-16T13:43:25.140Z</time>
      </trkpt>
      <trkpt lat="46.5462" lon="6.09909">
        <ele>1228.8</ele>
        <time>2014-08-16T13:43:45.035Z</time>
      </trkpt>
      <trkpt lat="46.54615" lon="6.09896">
        <ele>1229.9</ele>
        <time>2014-08-16T13:43:47.629Z</time>
      </trkpt>
      <trkpt lat="46.54606" lon="6.09846">
        <ele>1235.5</ele>
        <time>2014-08-16T13:43:54.442Z</time>
      </trkpt>
      <trkpt lat="46.54563" lon="6.09759">
        <ele>1231.1</ele>
        <time>2014-08-16T13:44:06.265Z</time>
      </trkpt>
      <trkpt lat="46.54555" lon="6.09749">
        <ele>1229.5</ele>
        <time>2014-08-16T13:44:08.394Z</time>
      </trkpt>
      <trkpt lat="46.54537" lon="6.09749">
        <ele>1227.3</ele>
        <time>2014-08-16T13:44:39.141Z</time>
      </trkpt>
      <trkpt lat="46.54531" lon="6.0976">
        <ele>1228.2</ele>
        <time>2014-08-16T13:44:41.296Z</time>
      </trkpt>
      <trkpt lat="46.54521" lon="6.09809">
        <ele>1233.4</ele>
        <time>2014-08-16T13:44:49.044Z</time>
      </trkpt>
      <trkpt lat="46.54513" lon="6.09823">
        <ele>1231.4</ele>
        <time>2014-08-16T13:44:51.814Z</time>
      </trkpt>
      <trkpt lat="46.54492" lon="6.09847">
        <ele>1226.1</ele>
        <time>2014-08-16T13:44:57.093Z</time>
      </trkpt>
      <trkpt lat="46.5448" lon="6.09884">
        <ele>1226</ele>
        <time>2014-08-16T13:45:01.486Z</time>
      </trkpt>
      <trkpt lat="46.54464" lon="6.09899">
        <ele>1227.1</ele>
        <time>2014-08-16T13:45:04.335Z</time>
      </trkpt>
      <trkpt lat="46.54442" lon="6.09911">
        <ele>1227.6</ele>
        <time>2014-08-16T13:45:07.721Z</time>
      </trkpt>
      <trkpt lat="46.54423" lon="6.09926">
        <ele>1226.3</ele>
        <time>2014-08-16T13:45:11.518Z</time>
      </trkpt>
      <trkpt lat="46.54415" lon="6.09939">
        <ele>1224.4</ele>
        <time>2014-08-16T13:45:14.048Z</time>
      </trkpt>
      <trkpt lat="46.54412" lon="6.09979">
        <ele>1221.4</ele>
        <time>2014-08-16T13:45:20.104Z</time>
      </trkpt>
      <trkpt lat="46.54401" lon="6.10009">
        <ele>1219.1</ele>
        <time>2014-08-16T13:45:25.135Z</time>
      </trkpt>
      <trkpt lat="46.54392" lon="6.10026">
        <ele>1217.8</ele>
        <time>2014-08-16T13:45:28.625Z</time>
      </trkpt>
      <trkpt lat="46.54383" lon="6.10039">
        <ele>1217.5</ele>
        <time>2014-08-16T13:45:31.314Z</time>
      </trkpt>
      <trkpt lat="46.54371" lon="6.10051">
        <ele>1218.5</ele>
        <time>2014-08-16T13:45:33.882Z</time>
      </trkpt>
      <trkpt lat="46.54356" lon="6.10062">
        <ele>1220</ele>
        <time>2014-08-16T13:45:36.284Z</time>
      </trkpt>
      <trkpt lat="46.54344" lon="6.10067">
        <ele>1221.1</ele>
        <time>2014-08-16T13:45:37.875Z</time>
      </trkpt>
      <trkpt lat="46.54322" lon="6.10083">
        <ele>1221.5</ele>
        <time>2014-08-16T13:45:40.774Z</time>
      </trkpt>
      <trkpt lat="46.54301" lon="6.10107">
        <ele>1221.5</ele>
        <time>2014-08-16T13:45:43.642Z</time>
      </trkpt>
      <trkpt lat="46.54278" lon="6.1012">
        <ele>1221.1</ele>
        <time>2014-08-16T13:45:46.164Z</time>
      </trkpt>
      <trkpt lat="46.54196" lon="6.10148">
        <ele>1215.5</ele>
        <time>2014-08-16T13:45:55.418Z</time>
      </trkpt>
      <trkpt lat="46.54127" lon="6.10184">
        <ele>1219.1</ele>
        <time>2014-08-16T13:46:09.756Z</time>
      </trkpt>
      <trkpt lat="46.54117" lon="6.10188">
        <ele>1218.1</ele>
        <time>2014-08-16T13:46:11.426Z</time>
      </trkpt>
      <trkpt lat="46.54101" lon="6.10195">
        <ele>1215</ele>
        <time>2014-08-16T13:46:14.278Z</time>
      </trkpt>
      <trkpt lat="46.5409" lon="6.10201">
        <ele>1212.3</ele>
        <time>2014-08-16T13:46:16.343Z</time>
      </trkpt>
      <trkpt lat="46.54073" lon="6.10208">
        <ele>1211.6</ele>
        <time>2014-08-16T13:46:19.416Z</time>
      </trkpt>
      <trkpt lat="46.54043" lon="6.10215">
        <ele>1211</ele>
        <time>2014-08-16T13:46:26.534Z</time>
      </trkpt>
      <trkpt lat="46.54" lon="6.1023">
        <ele>1214.1</ele>
        <time>2014-08-16T13:46:42.140Z</time>
      </trkpt>
      <trkpt lat="46.53962" lon="6.10248">
        <ele>1216.1</ele>
        <time>2014-08-16T13:46:58.957Z</time>
      </trkpt>
      <trkpt lat="46.53953" lon="6.1025">
        <ele>1215.2</ele>
        <time>2014-08-16T13:47:02.390Z</time>
      </trkpt>
      <trkpt lat="46.53943" lon="6.10251">
        <ele>1214.9</ele>
        <time>2014-08-16T13:47:05.497Z</time>
      </trkpt>
      <trkpt lat="46.53908" lon="6.10218">
        <ele>1210.6</ele>
        <time>2014-08-16T13:47:17.491Z</time>
      </trkpt>
      <trkpt lat="46.53897" lon="6.10212">
        <ele>1207.7</ele>
        <time>2014-08-16T13:47:20.360Z</time>
      </trkpt>
      <trkpt lat="46.53885" lon="6.1021">
        <ele>1206.2</ele>
        <time>2014-08-16T13:47:23.468Z</time>
      </trkpt>
      <trkpt lat="46.53865" lon="6.10209">
        <ele>1209.2</ele>
        <time>2014-08-16T13:47:30.026Z</time>
      </trkpt>
      <trkpt lat="46.53854" lon="6.10203">
        <ele>1211.6</ele>
        <time>2014-08-16T13:47:33.649Z</time>
      </trkpt>
      <trkpt lat="46.53819" lon="6.10159">
        <ele>1215.2</ele>
        <time>2014-08-16T13:47:51.536Z</time>
      </trkpt>
      <trkpt lat="46.53809" lon="6.1015">
        <ele>1214.4</ele>
        <time>2014-08-16T13:47:55.391Z</time>
      </trkpt>
      <trkpt lat="46.53799" lon="6.10145">
        <ele>1213.6</ele>
        <time>2014-08-16T13:47:58.923Z</time>
      </trkpt>
      <trkpt lat="46.53786" lon="6.10143">
        <ele>1212.5</ele>
        <time>2014-08-16T13:48:02.020Z</time>
      </trkpt>
      <trkpt lat="46.53754" lon="6.10146">
        <ele>1210.3</ele>
        <time>2014-08-16T13:48:07.478Z</time>
      </trkpt>
      <trkpt lat="46.53725" lon="6.10154">
        <ele>1209.2</ele>
        <time>2014-08-16T13:48:14.273Z</time>
      </trkpt>
      <trkpt lat="46.53696" lon="6.10165">
        <ele>1211.2</ele>
        <time>2014-08-16T13:48:23.130Z</time>
      </trkpt>
      <trkpt lat="46.53658" lon="6.10183">
        <ele>1215.7</ele>
        <time>2014-08-16T13:48:38.476Z</time>
      </trkpt>
      <trkpt lat="46.53647" lon="6.10185">
        <ele>1217.2</ele>
        <time>2014-08-16T13:48:42.294Z</time>
      </trkpt>
      <trkpt lat="46.53625" lon="6.10184">
        <ele>1219.2</ele>
        <time>2014-08-16T13:48:49.941Z</time>
      </trkpt>
      <trkpt lat="46.53615" lon="6.10182">
        <ele>1218.5</ele>
        <time>2014-08-16T13:48:53.664Z</time>
      </trkpt>
      <trkpt lat="46.53606" lon="6.10174">
        <ele>1216.9</ele>
        <time>2014-08-16T13:48:57.850Z</time>
      </trkpt>
      <trkpt lat="46.5359" lon="6.1015">
        <ele>1213.3</ele>
        <time>2014-08-16T13:49:06.463Z</time>
      </trkpt>
      <trkpt lat="46.53564" lon="6.10103">
        <ele>1216.6</ele>
        <time>2014-08-16T13:49:21.409Z</time>
      </trkpt>
      <trkpt lat="46.5355" lon="6.10084">
        <ele>1215.6</ele>
        <time>2014-08-16T13:49:34.871Z</time>
      </trkpt>
      <trkpt lat="46.53542" lon="6.10077">
        <ele>1216</ele>
        <time>2014-08-16T13:49:38.929Z</time>
      </trkpt>
      <trkpt lat="46.53533" lon="6.10071">
        <ele>1218</ele>
        <time>2014-08-16T13:49:43.155Z</time>
      </trkpt>
      <trkpt lat="46.53524" lon="6.1007">
        <ele>1220.2</ele>
        <time>2014-08-16T13:49:47.069Z</time>
      </trkpt>
      <trkpt lat="46.53464" lon="6.10084">
        <ele>1226.6</ele>
        <time>2014-08-16T13:50:07.947Z</time>
      </trkpt>
      <trkpt lat="46.53437" lon="6.10094">
        <ele>1226.3</ele>
        <time>2014-08-16T13:50:20.131Z</time>
      </trkpt>
      <trkpt lat="46.53428" lon="6.10093">
        <ele>1226.5</ele>
        <time>2014-08-16T13:50:22.807Z</time>
      </trkpt>
      <trkpt lat="46.53417" lon="6.10089">
        <ele>1228.3</ele>
        <time>2014-08-16T13:50:25.813Z</time>
      </trkpt>
      <trkpt lat="46.53405" lon="6.10083">
        <ele>1230.1</ele>
        <time>2014-08-16T13:50:28.812Z</time>
      </trkpt>
      <trkpt lat="46.53384" lon="6.10064">
        <ele>1230.6</ele>
        <time>2014-08-16T13:50:34.251Z</time>
      </trkpt>
      <trkpt lat="46.53375" lon="6.1005">
        <ele>1230</ele>
        <time>2014-08-16T13:50:37.315Z</time>
      </trkpt>
      <trkpt lat="46.53239" lon="6.09751">
        <ele>1238</ele>
        <time>2014-08-16T13:51:41.272Z</time>
      </trkpt>
      <trkpt lat="46.53217" lon="6.0972">
        <ele>1238.2</ele>
        <time>2014-08-16T13:51:51.297Z</time>
      </trkpt>
      <trkpt lat="46.53193" lon="6.09692">
        <ele>1244.6</ele>
        <time>2014-08-16T13:52:02.028Z</time>
      </trkpt>
      <trkpt lat="46.53166" lon="6.09646">
        <ele>1242.6</ele>
        <time>2014-08-16T13:52:20.787Z</time>
      </trkpt>
      <trkpt lat="46.53135" lon="6.09605">
        <ele>1240.1</ele>
        <time>2014-08-16T13:52:35.382Z</time>
      </trkpt>
      <trkpt lat="46.53107" lon="6.09559">
        <ele>1243.3</ele>
        <time>2014-08-16T13:52:48.621Z</time>
      </trkpt>
      <trkpt lat="46.53096" lon="6.09546">
        <ele>1244.8</ele>
        <time>2014-08-16T13:52:54.472Z</time>
      </trkpt>
      <trkpt lat="46.53073" lon="6.09513">
        <ele>1248.6</ele>
        <time>2014-08-16T13:53:11.830Z</time>
      </trkpt>
      <trkpt lat="46.53056" lon="6.09496">
        <ele>1246.4</ele>
        <time>2014-08-16T13:53:22.493Z</time>
      </trkpt>
      <trkpt lat="46.53048" lon="6.0949">
        <ele>1246.4</ele>
        <time>2014-08-16T13:53:28.109Z</time>
      </trkpt>
      <trkpt lat="46.53037" lon="6.09488">
        <ele>1247.2</ele>
        <time>2014-08-16T13:53:47.419Z</time>
      </trkpt>
      <trkpt lat="46.53028" lon="6.0948">
        <ele>1249.6</ele>
        <time>2014-08-16T13:54:00.818Z</time>
      </trkpt>
      <trkpt lat="46.53021" lon="6.0947">
        <ele>1253.9</ele>
        <time>2014-08-16T13:54:05.970Z</time>
      </trkpt>
      <trkpt lat="46.53013" lon="6.09461">
        <ele>1256.8</ele>
        <time>2014-08-16T13:54:10.374Z</time>
      </trkpt>
      <trkpt lat="46.53004" lon="6.09455">
        <ele>1256</ele>
        <time>2014-08-16T13:54:14.878Z</time>
      </trkpt>
      <trkpt lat="46.52996" lon="6.09447">
        <ele>1253.7</ele>
        <time>2014-08-16T13:54:19.405Z</time>
      </trkpt>
      <trkpt lat="46.52975" lon="6.09423">
        <ele>1251.5</ele>
        <time>2014-08-16T13:54:37.339Z</time>
      </trkpt>
      <trkpt lat="46.52965" lon="6.09415">
        <ele>1251.9</ele>
        <time>2014-08-16T13:54:41.686Z</time>
      </trkpt>
      <trkpt lat="46.5295" lon="6.09397">
        <ele>1253.3</ele>
        <time>2014-08-16T13:54:49.336Z</time>
      </trkpt>
      <trkpt lat="46.52943" lon="6.09387">
        <ele>1253.4</ele>
        <time>2014-08-16T13:54:53.407Z</time>
      </trkpt>
      <trkpt lat="46.52928" lon="6.09371">
        <ele>1252.3</ele>
        <time>2014-08-16T13:55:11.165Z</time>
      </trkpt>
      <trkpt lat="46.5292" lon="6.09365">
        <ele>1251.7</ele>
        <time>2014-08-16T13:55:15.866Z</time>
      </trkpt>
      <trkpt lat="46.5291" lon="6.09362">
        <ele>1251.2</ele>
        <time>2014-08-16T13:55:22.129Z</time>
      </trkpt>
      <trkpt lat="46.529" lon="6.09358">
        <ele>1251</ele>
        <time>2014-08-16T13:55:29.080Z</time>
      </trkpt>
      <trkpt lat="46.52889" lon="6.09366">
        <ele>1252.4</ele>
        <time>2014-08-16T13:55:38.018Z</time>
      </trkpt>
      <trkpt lat="46.52898" lon="6.09364">
        <ele>1255.1</ele>
        <time>2014-08-16T13:55:47.591Z</time>
      </trkpt>
      <trkpt lat="46.52907" lon="6.09366">
        <ele>1259</ele>
        <time>2014-08-16T13:56:02.601Z</time>
      </trkpt>
      <trkpt lat="46.52903" lon="6.0935">
        <ele>1262.9</ele>
        <time>2014-08-16T13:56:18.458Z</time>
      </trkpt>
      <trkpt lat="46.52878" lon="6.093">
        <ele>1263.5</ele>
        <time>2014-08-16T13:56:53.207Z</time>
      </trkpt>
      <trkpt lat="46.5284" lon="6.09208">
        <ele>1260.4</ele>
        <time>2014-08-16T13:57:06.862Z</time>
      </trkpt>
      <trkpt lat="46.52824" lon="6.09179">
        <ele>1257.2</ele>
        <time>2014-08-16T13:57:09.826Z</time>
      </trkpt>
      <trkpt lat="46.52772" lon="6.09103">
        <ele>1249.4</ele>
        <time>2014-08-16T13:57:21.627Z</time>
      </trkpt>
      <trkpt lat="46.52733" lon="6.09076">
        <ele>1249.3</ele>
        <time>2014-08-16T13:57:28.351Z</time>
      </trkpt>
      <trkpt lat="46.52719" lon="6.09064">
        <ele>1248.6</ele>
        <time>2014-08-16T13:57:30.346Z</time>
      </trkpt>
      <trkpt lat="46.52656" lon="6.08985">
        <ele>1246.2</ele>
        <time>2014-08-16T13:57:38.811Z</time>
      </trkpt>
      <trkpt lat="46.52633" lon="6.08951">
        <ele>1244.9</ele>
        <time>2014-08-16T13:57:42.953Z</time>
      </trkpt>
      <trkpt lat="46.52626" lon="6.08936">
        <ele>1244.7</ele>
        <time>2014-08-16T13:57:45.653Z</time>
      </trkpt>
      <trkpt lat="46.52617" lon="6.0893">
        <ele>1244.6</ele>
        <time>2014-08-16T13:57:48.665Z</time>
      </trkpt>
      <trkpt lat="46.52609" lon="6.08924">
        <ele>1244.1</ele>
        <time>2014-08-16T13:57:53.526Z</time>
      </trkpt>
      <trkpt lat="46.52598" lon="6.08925">
        <ele>1242.9</ele>
        <time>2014-08-16T13:58:00.079Z</time>
      </trkpt>
      <trkpt lat="46.52589" lon="6.0892">
        <ele>1241.7</ele>
        <time>2014-08-16T13:58:05.803Z</time>
      </trkpt>
      <trkpt lat="46.5258" lon="6.08912">
        <ele>1241.2</ele>
        <time>2014-08-16T13:58:11.008Z</time>
      </trkpt>
      <trkpt lat="46.52573" lon="6.08902">
        <ele>1241.9</ele>
        <time>2014-08-16T13:58:14.915Z</time>
      </trkpt>
      <trkpt lat="46.52545" lon="6.08853">
        <ele>1240.5</ele>
        <time>2014-08-16T13:58:27.842Z</time>
      </trkpt>
      <trkpt lat="46.52511" lon="6.08811">
        <ele>1240</ele>
        <time>2014-08-16T13:58:39.309Z</time>
      </trkpt>
      <trkpt lat="46.52501" lon="6.08798">
        <ele>1240.9</ele>
        <time>2014-08-16T13:58:42.415Z</time>
      </trkpt>
      <trkpt lat="46.52478" lon="6.08773">
        <ele>1240.6</ele>
        <time>2014-08-16T13:58:54.415Z</time>
      </trkpt>
      <trkpt lat="46.5247" lon="6.08761">
        <ele>1240.9</ele>
        <time>2014-08-16T13:58:58.351Z</time>
      </trkpt>
      <trkpt lat="46.52458" lon="6.08734">
        <ele>1242.1</ele>
        <time>2014-08-16T13:59:05.810Z</time>
      </trkpt>
      <trkpt lat="46.52448" lon="6.08719">
        <ele>1242.4</ele>
        <time>2014-08-16T13:59:11.207Z</time>
      </trkpt>
      <trkpt lat="46.52443" lon="6.08705">
        <ele>1244.3</ele>
        <time>2014-08-16T13:59:15.578Z</time>
      </trkpt>
      <trkpt lat="46.5244" lon="6.08692">
        <ele>1248.9</ele>
        <time>2014-08-16T13:59:19.570Z</time>
      </trkpt>
      <trkpt lat="46.52414" lon="6.08625">
        <ele>1253.2</ele>
        <time>2014-08-16T13:59:40.307Z</time>
      </trkpt>
      <trkpt lat="46.52408" lon="6.08614">
        <ele>1252.5</ele>
        <time>2014-08-16T13:59:43.096Z</time>
      </trkpt>
      <trkpt lat="46.52376" lon="6.08574">
        <ele>1251.4</ele>
        <time>2014-08-16T13:59:57.573Z</time>
      </trkpt>
      <trkpt lat="46.52334" lon="6.08529">
        <ele>1243.8</ele>
        <time>2014-08-16T14:00:08.272Z</time>
      </trkpt>
      <trkpt lat="46.5227" lon="6.08437">
        <ele>1249.7</ele>
        <time>2014-08-16T14:00:27.729Z</time>
      </trkpt>
      <trkpt lat="46.52241" lon="6.08402">
        <ele>1248.9</ele>
        <time>2014-08-16T14:00:36.505Z</time>
      </trkpt>
      <trkpt lat="46.52206" lon="6.08351">
        <ele>1246.2</ele>
        <time>2014-08-16T14:00:45.635Z</time>
      </trkpt>
      <trkpt lat="46.52195" lon="6.08341">
        <ele>1244.2</ele>
        <time>2014-08-16T14:00:47.525Z</time>
      </trkpt>
      <trkpt lat="46.52154" lon="6.0831">
        <ele>1239.5</ele>
        <time>2014-08-16T14:00:54.782Z</time>
      </trkpt>
      <trkpt lat="46.52146" lon="6.08299">
        <ele>1238.7</ele>
        <time>2014-08-16T14:00:56.624Z</time>
      </trkpt>
      <trkpt lat="46.52127" lon="6.08248">
        <ele>1239.5</ele>
        <time>2014-08-16T14:01:02.432Z</time>
      </trkpt>
      <trkpt lat="46.52115" lon="6.08236">
        <ele>1240.8</ele>
        <time>2014-08-16T14:01:04.277Z</time>
      </trkpt>
      <trkpt lat="46.52077" lon="6.08215">
        <ele>1241.9</ele>
        <time>2014-08-16T14:01:09.152Z</time>
      </trkpt>
      <trkpt lat="46.52062" lon="6.08204">
        <ele>1241.5</ele>
        <time>2014-08-16T14:01:11.165Z</time>
      </trkpt>
      <trkpt lat="46.52047" lon="6.08176">
        <ele>1241</ele>
        <time>2014-08-16T14:01:14.236Z</time>
      </trkpt>
      <trkpt lat="46.5203" lon="6.0813">
        <ele>1241.7</ele>
        <time>2014-08-16T14:01:20.312Z</time>
      </trkpt>
      <trkpt lat="46.52024" lon="6.08106">
        <ele>1242.5</ele>
        <time>2014-08-16T14:01:23.592Z</time>
      </trkpt>
      <trkpt lat="46.52018" lon="6.08089">
        <ele>1242.2</ele>
        <time>2014-08-16T14:01:26.100Z</time>
      </trkpt>
      <trkpt lat="46.5201" lon="6.08072">
        <ele>1240.3</ele>
        <time>2014-08-16T14:01:28.787Z</time>
      </trkpt>
      <trkpt lat="46.5199" lon="6.08045">
        <ele>1236.7</ele>
        <time>2014-08-16T14:01:33.951Z</time>
      </trkpt>
      <trkpt lat="46.51939" lon="6.07981">
        <ele>1242</ele>
        <time>2014-08-16T14:01:45.746Z</time>
      </trkpt>
      <trkpt lat="46.51881" lon="6.07882">
        <ele>1248.9</ele>
        <time>2014-08-16T14:02:05.940Z</time>
      </trkpt>
      <trkpt lat="46.51878" lon="6.07848">
        <ele>1249.5</ele>
        <time>2014-08-16T14:02:13.836Z</time>
      </trkpt>
      <trkpt lat="46.51875" lon="6.07833">
        <ele>1250.1</ele>
        <time>2014-08-16T14:02:18.102Z</time>
      </trkpt>
      <trkpt lat="46.51869" lon="6.0782">
        <ele>1249.8</ele>
        <time>2014-08-16T14:02:22.227Z</time>
      </trkpt>
      <trkpt lat="46.5186" lon="6.07812">
        <ele>1248.5</ele>
        <time>2014-08-16T14:02:27.193Z</time>
      </trkpt>
      <trkpt lat="46.51851" lon="6.0781">
        <ele>1247.2</ele>
        <time>2014-08-16T14:02:31.364Z</time>
      </trkpt>
      <trkpt lat="46.51839" lon="6.07814">
        <ele>1246.6</ele>
        <time>2014-08-16T14:02:35.783Z</time>
      </trkpt>
      <trkpt lat="46.5183" lon="6.07821">
        <ele>1248</ele>
        <time>2014-08-16T14:02:39.554Z</time>
      </trkpt>
      <trkpt lat="46.51823" lon="6.07834">
        <ele>1250.7</ele>
        <time>2014-08-16T14:02:43.664Z</time>
      </trkpt>
      <trkpt lat="46.51814" lon="6.07874">
        <ele>1248.7</ele>
        <time>2014-08-16T14:02:54.422Z</time>
      </trkpt>
      <trkpt lat="46.51797" lon="6.07893">
        <ele>1245.1</ele>
        <time>2014-08-16T14:03:09.451Z</time>
      </trkpt>
      <trkpt lat="46.51788" lon="6.07898">
        <ele>1247.2</ele>
        <time>2014-08-16T14:03:13.069Z</time>
      </trkpt>
      <trkpt lat="46.51777" lon="6.07899">
        <ele>1251.8</ele>
        <time>2014-08-16T14:03:17.150Z</time>
      </trkpt>
      <trkpt lat="46.51768" lon="6.07895">
        <ele>1256.3</ele>
        <time>2014-08-16T14:03:20.810Z</time>
      </trkpt>
      <trkpt lat="46.51741" lon="6.07872">
        <ele>1256.4</ele>
        <time>2014-08-16T14:03:33.398Z</time>
      </trkpt>
      <trkpt lat="46.5173" lon="6.07867">
        <ele>1252.1</ele>
        <time>2014-08-16T14:03:49.406Z</time>
      </trkpt>
      <trkpt lat="46.51709" lon="6.07857">
        <ele>1252.4</ele>
        <time>2014-08-16T14:04:37.296Z</time>
      </trkpt>
      <trkpt lat="46.51664" lon="6.07821">
        <ele>1258.5</ele>
        <time>2014-08-16T14:05:02.246Z</time>
      </trkpt>
      <trkpt lat="46.51635" lon="6.07806">
        <ele>1255.8</ele>
        <time>2014-08-16T14:05:16.351Z</time>
      </trkpt>
      <trkpt lat="46.51626" lon="6.07805">
        <ele>1255.6</ele>
        <time>2014-08-16T14:05:20.346Z</time>
      </trkpt>
      <trkpt lat="46.51617" lon="6.07809">
        <ele>1256.8</ele>
        <time>2014-08-16T14:05:24.664Z</time>
      </trkpt>
      <trkpt lat="46.51611" lon="6.0782">
        <ele>1259.7</ele>
        <time>2014-08-16T14:05:29.624Z</time>
      </trkpt>
      <trkpt lat="46.51611" lon="6.07834">
        <ele>1263.2</ele>
        <time>2014-08-16T14:05:35.397Z</time>
      </trkpt>
      <trkpt lat="46.51615" lon="6.07863">
        <ele>1265.2</ele>
        <time>2014-08-16T14:05:52.997Z</time>
      </trkpt>
      <trkpt lat="46.51613" lon="6.07876">
        <ele>1264.4</ele>
        <time>2014-08-16T14:05:57.212Z</time>
      </trkpt>
      <trkpt lat="46.51596" lon="6.07915">
        <ele>1264.4</ele>
        <time>2014-08-16T14:06:09.594Z</time>
      </trkpt>
      <trkpt lat="46.51592" lon="6.0793">
        <ele>1264.6</ele>
        <time>2014-08-16T14:06:13.532Z</time>
      </trkpt>
      <trkpt lat="46.51589" lon="6.07945">
        <ele>1265.3</ele>
        <time>2014-08-16T14:06:17.333Z</time>
      </trkpt>
      <trkpt lat="46.51584" lon="6.07959">
        <ele>1266.5</ele>
        <time>2014-08-16T14:06:20.949Z</time>
      </trkpt>
      <trkpt lat="46.51579" lon="6.0797">
        <ele>1267.5</ele>
        <time>2014-08-16T14:06:24.024Z</time>
      </trkpt>
      <trkpt lat="46.51572" lon="6.07979">
        <ele>1267.8</ele>
        <time>2014-08-16T14:06:27.076Z</time>
      </trkpt>
      <trkpt lat="46.51561" lon="6.07985">
        <ele>1267.5</ele>
        <time>2014-08-16T14:06:31.180Z</time>
      </trkpt>
      <trkpt lat="46.51551" lon="6.07987">
        <ele>1267.6</ele>
        <time>2014-08-16T14:06:36.505Z</time>
      </trkpt>
      <trkpt lat="46.5154" lon="6.07984">
        <ele>1268.4</ele>
        <time>2014-08-16T14:06:43.385Z</time>
      </trkpt>
      <trkpt lat="46.5153" lon="6.07977">
        <ele>1269.2</ele>
        <time>2014-08-16T14:06:50.137Z</time>
      </trkpt>
      <trkpt lat="46.51473" lon="6.07917">
        <ele>1268.9</ele>
        <time>2014-08-16T14:07:10.431Z</time>
      </trkpt>
      <trkpt lat="46.51453" lon="6.0789">
        <ele>1272.8</ele>
        <time>2014-08-16T14:07:16.339Z</time>
      </trkpt>
      <trkpt lat="46.51443" lon="6.0788">
        <ele>1274.2</ele>
        <time>2014-08-16T14:07:18.810Z</time>
      </trkpt>
      <trkpt lat="46.51421" lon="6.07866">
        <ele>1275.9</ele>
        <time>2014-08-16T14:07:24.332Z</time>
      </trkpt>
      <trkpt lat="46.51411" lon="6.07856">
        <ele>1277.7</ele>
        <time>2014-08-16T14:07:27.134Z</time>
      </trkpt>
      <trkpt lat="46.51394" lon="6.07836">
        <ele>1280.8</ele>
        <time>2014-08-16T14:07:32.323Z</time>
      </trkpt>
      <trkpt lat="46.51388" lon="6.07825">
        <ele>1281.3</ele>
        <time>2014-08-16T14:07:34.722Z</time>
      </trkpt>
      <trkpt lat="46.51376" lon="6.07785">
        <ele>1279.3</ele>
        <time>2014-08-16T14:07:43.033Z</time>
      </trkpt>
      <trkpt lat="46.5136" lon="6.07756">
        <ele>1278.2</ele>
        <time>2014-08-16T14:07:49.999Z</time>
      </trkpt>
      <trkpt lat="46.51333" lon="6.07716">
        <ele>1281.7</ele>
        <time>2014-08-16T14:08:01.357Z</time>
      </trkpt>
      <trkpt lat="46.51314" lon="6.07675">
        <ele>1278.9</ele>
        <time>2014-08-16T14:08:09.671Z</time>
      </trkpt>
      <trkpt lat="46.51298" lon="6.07632">
        <ele>1278</ele>
        <time>2014-08-16T14:08:17.899Z</time>
      </trkpt>
      <trkpt lat="46.5129" lon="6.07624">
        <ele>1277.5</ele>
        <time>2014-08-16T14:08:20.402Z</time>
      </trkpt>
      <trkpt lat="46.5128" lon="6.07621">
        <ele>1277.3</ele>
        <time>2014-08-16T14:08:23.327Z</time>
      </trkpt>
      <trkpt lat="46.51253" lon="6.0762">
        <ele>1275.9</ele>
        <time>2014-08-16T14:08:29.946Z</time>
      </trkpt>
      <trkpt lat="46.51243" lon="6.07616">
        <ele>1274.8</ele>
        <time>2014-08-16T14:08:32.004Z</time>
      </trkpt>
      <trkpt lat="46.5123" lon="6.07606">
        <ele>1274.1</ele>
        <time>2014-08-16T14:08:34.976Z</time>
      </trkpt>
      <trkpt lat="46.51223" lon="6.07597">
        <ele>1273.9</ele>
        <time>2014-08-16T14:08:37.043Z</time>
      </trkpt>
      <trkpt lat="46.51215" lon="6.07579">
        <ele>1274</ele>
        <time>2014-08-16T14:08:40.079Z</time>
      </trkpt>
      <trkpt lat="46.51198" lon="6.07518">
        <ele>1278</ele>
        <time>2014-08-16T14:08:49.304Z</time>
      </trkpt>
      <trkpt lat="46.51181" lon="6.07479">
        <ele>1279.4</ele>
        <time>2014-08-16T14:08:57.416Z</time>
      </trkpt>
      <trkpt lat="46.51162" lon="6.07449">
        <ele>1280.7</ele>
        <time>2014-08-16T14:09:05.817Z</time>
      </trkpt>
      <trkpt lat="46.51058" lon="6.07325">
        <ele>1284.1</ele>
        <time>2014-08-16T14:09:29.254Z</time>
      </trkpt>
      <trkpt lat="46.51011" lon="6.07246">
        <ele>1278.1</ele>
        <time>2014-08-16T14:09:35.187Z</time>
      </trkpt>
      <trkpt lat="46.50966" lon="6.07154">
        <ele>1268.8</ele>
        <time>2014-08-16T14:09:41.971Z</time>
      </trkpt>
      <trkpt lat="46.50939" lon="6.07062">
        <ele>1265.8</ele>
        <time>2014-08-16T14:09:49.807Z</time>
      </trkpt>
      <trkpt lat="46.50933" lon="6.07048">
        <ele>1265.4</ele>
        <time>2014-08-16T14:09:52.582Z</time>
      </trkpt>
      <trkpt lat="46.50923" lon="6.07043">
        <ele>1263.7</ele>
        <time>2014-08-16T14:09:56.085Z</time>
      </trkpt>
      <trkpt lat="46.50912" lon="6.07041">
        <ele>1261.1</ele>
        <time>2014-08-16T14:10:00.008Z</time>
      </trkpt>
      <trkpt lat="46.50903" lon="6.07038">
        <ele>1259.1</ele>
        <time>2014-08-16T14:10:03.324Z</time>
      </trkpt>
      <trkpt lat="46.50894" lon="6.07034">
        <ele>1258.5</ele>
        <time>2014-08-16T14:10:06.135Z</time>
      </trkpt>
      <trkpt lat="46.50885" lon="6.07027">
        <ele>1259.2</ele>
        <time>2014-08-16T14:10:08.928Z</time>
      </trkpt>
      <trkpt lat="46.50837" lon="6.06974">
        <ele>1265.8</ele>
        <time>2014-08-16T14:10:19.128Z</time>
      </trkpt>
      <trkpt lat="46.50819" lon="6.06951">
        <ele>1265.8</ele>
        <time>2014-08-16T14:10:22.300Z</time>
      </trkpt>
      <trkpt lat="46.50766" lon="6.06859">
        <ele>1254.8</ele>
        <time>2014-08-16T14:10:32.802Z</time>
      </trkpt>
      <trkpt lat="46.50742" lon="6.06806">
        <ele>1254.9</ele>
        <time>2014-08-16T14:10:37.827Z</time>
      </trkpt>
      <trkpt lat="46.50716" lon="6.06725">
        <ele>1253.4</ele>
        <time>2014-08-16T14:10:46.645Z</time>
      </trkpt>
      <trkpt lat="46.50709" lon="6.0668">
        <ele>1250.4</ele>
        <time>2014-08-16T14:10:51.878Z</time>
      </trkpt>
      <trkpt lat="46.50701" lon="6.06661">
        <ele>1250.2</ele>
        <time>2014-08-16T14:10:54.857Z</time>
      </trkpt>
      <trkpt lat="46.50693" lon="6.06645">
        <ele>1250.2</ele>
        <time>2014-08-16T14:10:57.741Z</time>
      </trkpt>
      <trkpt lat="46.50682" lon="6.06629">
        <ele>1250.3</ele>
        <time>2014-08-16T14:11:00.978Z</time>
      </trkpt>
      <trkpt lat="46.50659" lon="6.06604">
        <ele>1249.8</ele>
        <time>2014-08-16T14:11:07.226Z</time>
      </trkpt>
      <trkpt lat="46.50652" lon="6.06595">
        <ele>1249.7</ele>
        <time>2014-08-16T14:11:09.326Z</time>
      </trkpt>
      <trkpt lat="46.50646" lon="6.06578">
        <ele>1250.4</ele>
        <time>2014-08-16T14:11:12.729Z</time>
      </trkpt>
      <trkpt lat="46.50632" lon="6.06525">
        <ele>1246.6</ele>
        <time>2014-08-16T14:11:24.199Z</time>
      </trkpt>
      <trkpt lat="46.50626" lon="6.06512">
        <ele>1247.3</ele>
        <time>2014-08-16T14:11:27.114Z</time>
      </trkpt>
      <trkpt lat="46.50603" lon="6.06484">
        <ele>1250.4</ele>
        <time>2014-08-16T14:11:35.813Z</time>
      </trkpt>
      <trkpt lat="46.50551" lon="6.06394">
        <ele>1256.1</ele>
        <time>2014-08-16T14:11:59.888Z</time>
      </trkpt>
      <trkpt lat="46.5054" lon="6.06368">
        <ele>1251.7</ele>
        <time>2014-08-16T14:12:05.962Z</time>
      </trkpt>
      <trkpt lat="46.50533" lon="6.0636">
        <ele>1248.1</ele>
        <time>2014-08-16T14:12:08.361Z</time>
      </trkpt>
      <trkpt lat="46.50524" lon="6.06356">
        <ele>1245.7</ele>
        <time>2014-08-16T14:12:10.309Z</time>
      </trkpt>
      <trkpt lat="46.50433" lon="6.06337">
        <ele>1245.4</ele>
        <time>2014-08-16T14:12:31.028Z</time>
      </trkpt>
      <trkpt lat="46.50423" lon="6.06336">
        <ele>1243.7</ele>
        <time>2014-08-16T14:12:34.734Z</time>
      </trkpt>
      <trkpt lat="46.50414" lon="6.06345">
        <ele>1240.9</ele>
        <time>2014-08-16T14:12:38.751Z</time>
      </trkpt>
      <trkpt lat="46.50396" lon="6.06386">
        <ele>1239.7</ele>
        <time>2014-08-16T14:12:48.916Z</time>
      </trkpt>
      <trkpt lat="46.50385" lon="6.06396">
        <ele>1239.8</ele>
        <time>2014-08-16T14:12:51.639Z</time>
      </trkpt>
      <trkpt lat="46.50367" lon="6.06397">
        <ele>1238.5</ele>
        <time>2014-08-16T14:12:54.648Z</time>
      </trkpt>
      <trkpt lat="46.50325" lon="6.06392">
        <ele>1234.7</ele>
        <time>2014-08-16T14:13:00.008Z</time>
      </trkpt>
      <trkpt lat="46.50301" lon="6.06403">
        <ele>1233.3</ele>
        <time>2014-08-16T14:13:03.229Z</time>
      </trkpt>
      <trkpt lat="46.50288" lon="6.06424">
        <ele>1231.9</ele>
        <time>2014-08-16T14:13:07.389Z</time>
      </trkpt>
      <trkpt lat="46.50278" lon="6.06423">
        <ele>1230.6</ele>
        <time>2014-08-16T14:13:09.529Z</time>
      </trkpt>
      <trkpt lat="46.5026" lon="6.06386">
        <ele>1227.2</ele>
        <time>2014-08-16T14:13:22.988Z</time>
      </trkpt>
      <trkpt lat="46.50241" lon="6.06335">
        <ele>1227.6</ele>
        <time>2014-08-16T14:13:36.117Z</time>
      </trkpt>
      <trkpt lat="46.50223" lon="6.06295">
        <ele>1229.9</ele>
        <time>2014-08-16T14:13:44.729Z</time>
      </trkpt>
      <trkpt lat="46.5022" lon="6.06281">
        <ele>1232.8</ele>
        <time>2014-08-16T14:13:47.481Z</time>
      </trkpt>
      <trkpt lat="46.50179" lon="6.06176">
        <ele>1243.5</ele>
        <time>2014-08-16T14:14:17.429Z</time>
      </trkpt>
      <trkpt lat="46.50166" lon="6.06154">
        <ele>1242.4</ele>
        <time>2014-08-16T14:14:25.674Z</time>
      </trkpt>
      <trkpt lat="46.50159" lon="6.06146">
        <ele>1242.1</ele>
        <time>2014-08-16T14:14:30.395Z</time>
      </trkpt>
      <trkpt lat="46.50087" lon="6.06032">
        <ele>1249.4</ele>
        <time>2014-08-16T14:15:05.870Z</time>
      </trkpt>
      <trkpt lat="46.50048" lon="6.05945">
        <ele>1234.3</ele>
        <time>2014-08-16T14:15:18.139Z</time>
      </trkpt>
      <trkpt lat="46.50041" lon="6.05932">
        <ele>1233</ele>
        <time>2014-08-16T14:15:20.020Z</time>
      </trkpt>
      <trkpt lat="46.5003" lon="6.05917">
        <ele>1230.4</ele>
        <time>2014-08-16T14:15:22.593Z</time>
      </trkpt>
      <trkpt lat="46.50022" lon="6.05909">
        <ele>1227.2</ele>
        <time>2014-08-16T14:15:24.256Z</time>
      </trkpt>
      <trkpt lat="46.50008" lon="6.05886">
        <ele>1224.9</ele>
        <time>2014-08-16T14:15:27.768Z</time>
      </trkpt>
      <trkpt lat="46.49988" lon="6.05835">
        <ele>1223.5</ele>
        <time>2014-08-16T14:15:32.858Z</time>
      </trkpt>
      <trkpt lat="46.49954" lon="6.05789">
        <ele>1221.8</ele>
        <time>2014-08-16T14:15:37.947Z</time>
      </trkpt>
      <trkpt lat="46.49933" lon="6.05767">
        <ele>1218.6</ele>
        <time>2014-08-16T14:15:40.724Z</time>
      </trkpt>
      <trkpt lat="46.49817" lon="6.05689">
        <ele>1212.4</ele>
        <time>2014-08-16T14:15:55.539Z</time>
      </trkpt>
      <trkpt lat="46.49795" lon="6.05679">
        <ele>1209.4</ele>
        <time>2014-08-16T14:16:01.326Z</time>
      </trkpt>
      <trkpt lat="46.49784" lon="6.05677">
        <ele>1207.3</ele>
        <time>2014-08-16T14:16:04.721Z</time>
      </trkpt>
      <trkpt lat="46.49748" lon="6.05682">
        <ele>1208.9</ele>
        <time>2014-08-16T14:16:14.472Z</time>
      </trkpt>
      <trkpt lat="46.49739" lon="6.05684">
        <ele>1211.5</ele>
        <time>2014-08-16T14:16:17.443Z</time>
      </trkpt>
      <trkpt lat="46.49729" lon="6.05685">
        <ele>1213.1</ele>
        <time>2014-08-16T14:16:20.710Z</time>
      </trkpt>
      <trkpt lat="46.49704" lon="6.05703">
        <ele>1214.7</ele>
        <time>2014-08-16T14:16:26.989Z</time>
      </trkpt>
      <trkpt lat="46.49686" lon="6.05715">
        <ele>1214.5</ele>
        <time>2014-08-16T14:16:30.268Z</time>
      </trkpt>
      <trkpt lat="46.49671" lon="6.05723">
        <ele>1213.7</ele>
        <time>2014-08-16T14:16:33.651Z</time>
      </trkpt>
      <trkpt lat="46.49658" lon="6.05728">
        <ele>1212</ele>
        <time>2014-08-16T14:16:36.928Z</time>
      </trkpt>
      <trkpt lat="46.49651" lon="6.05719">
        <ele>1209.4</ele>
        <time>2014-08-16T14:16:39.564Z</time>
      </trkpt>
      <trkpt lat="46.49632" lon="6.05681">
        <ele>1211.9</ele>
        <time>2014-08-16T14:16:48.648Z</time>
      </trkpt>
      <trkpt lat="46.49614" lon="6.0566">
        <ele>1217.8</ele>
        <time>2014-08-16T14:16:53.613Z</time>
      </trkpt>
      <trkpt lat="46.4959" lon="6.05644">
        <ele>1212.7</ele>
        <time>2014-08-16T14:16:58.102Z</time>
      </trkpt>
      <trkpt lat="46.49542" lon="6.0562">
        <ele>1200.8</ele>
        <time>2014-08-16T14:17:05.347Z</time>
      </trkpt>
      <trkpt lat="46.49523" lon="6.05599">
        <ele>1200.5</ele>
        <time>2014-08-16T14:17:08.252Z</time>
      </trkpt>
      <trkpt lat="46.49509" lon="6.05582">
        <ele>1201</ele>
        <time>2014-08-16T14:17:10.247Z</time>
      </trkpt>
      <trkpt lat="46.49474" lon="6.05525">
        <ele>1202</ele>
        <time>2014-08-16T14:17:16.511Z</time>
      </trkpt>
      <trkpt lat="46.49454" lon="6.05524">
        <ele>1200.9</ele>
        <time>2014-08-16T14:17:19.173Z</time>
      </trkpt>
      <trkpt lat="46.49439" lon="6.05529">
        <ele>1198.8</ele>
        <time>2014-08-16T14:17:21.288Z</time>
      </trkpt>
      <trkpt lat="46.49429" lon="6.05521">
        <ele>1196.1</ele>
        <time>2014-08-16T14:17:23.237Z</time>
      </trkpt>
      <trkpt lat="46.49418" lon="6.05507">
        <ele>1193.3</ele>
        <time>2014-08-16T14:17:25.832Z</time>
      </trkpt>
      <trkpt lat="46.49359" lon="6.05447">
        <ele>1177.2</ele>
        <time>2014-08-16T14:17:38.495Z</time>
      </trkpt>
      <trkpt lat="46.49345" lon="6.05428">
        <ele>1175</ele>
        <time>2014-08-16T14:17:41.893Z</time>
      </trkpt>
      <trkpt lat="46.49313" lon="6.05367">
        <ele>1173.8</ele>
        <time>2014-08-16T14:17:50.650Z</time>
      </trkpt>
      <trkpt lat="46.49302" lon="6.05358">
        <ele>1172.4</ele>
        <time>2014-08-16T14:17:53.319Z</time>
      </trkpt>
      <trkpt lat="46.49293" lon="6.05348">
        <ele>1171</ele>
        <time>2014-08-16T14:17:55.559Z</time>
      </trkpt>
      <trkpt lat="46.49288" lon="6.05335">
        <ele>1170.2</ele>
        <time>2014-08-16T14:17:57.540Z</time>
      </trkpt>
      <trkpt lat="46.49286" lon="6.0532">
        <ele>1169.3</ele>
        <time>2014-08-16T14:17:59.731Z</time>
      </trkpt>
      <trkpt lat="46.49287" lon="6.05303">
        <ele>1167.6</ele>
        <time>2014-08-16T14:18:01.984Z</time>
      </trkpt>
      <trkpt lat="46.49293" lon="6.05286">
        <ele>1164.1</ele>
        <time>2014-08-16T14:18:04.810Z</time>
      </trkpt>
      <trkpt lat="46.49292" lon="6.0527">
        <ele>1160.5</ele>
        <time>2014-08-16T14:18:07.890Z</time>
      </trkpt>
      <trkpt lat="46.49276" lon="6.05236">
        <ele>1161.8</ele>
        <time>2014-08-16T14:18:17.377Z</time>
      </trkpt>
      <trkpt lat="46.49258" lon="6.05164">
        <ele>1161.8</ele>
        <time>2014-08-16T14:19:09.335Z</time>
      </trkpt>
      <trkpt lat="46.49251" lon="6.05155">
        <ele>1159.8</ele>
        <time>2014-08-16T14:19:13.171Z</time>
      </trkpt>
      <trkpt lat="46.49229" lon="6.05153">
        <ele>1155.4</ele>
        <time>2014-08-16T14:19:19.882Z</time>
      </trkpt>
      <trkpt lat="46.49217" lon="6.05156">
        <ele>1154.3</ele>
        <time>2014-08-16T14:19:23.279Z</time>
      </trkpt>
      <trkpt lat="46.49207" lon="6.05161">
        <ele>1153.8</ele>
        <time>2014-08-16T14:19:26.385Z</time>
      </trkpt>
      <trkpt lat="46.49197" lon="6.0517">
        <ele>1154</ele>
        <time>2014-08-16T14:19:29.813Z</time>
      </trkpt>
      <trkpt lat="46.49184" lon="6.05178">
        <ele>1154.7</ele>
        <time>2014-08-16T14:19:33.475Z</time>
      </trkpt>
      <trkpt lat="46.49146" lon="6.05184">
        <ele>1151.2</ele>
        <time>2014-08-16T14:19:41.056Z</time>
      </trkpt>
      <trkpt lat="46.49135" lon="6.05192">
        <ele>1149.1</ele>
        <time>2014-08-16T14:19:43.193Z</time>
      </trkpt>
      <trkpt lat="46.49103" lon="6.05241">
        <ele>1141.9</ele>
        <time>2014-08-16T14:19:52.657Z</time>
      </trkpt>
      <trkpt lat="46.4908" lon="6.05289">
        <ele>1136.1</ele>
        <time>2014-08-16T14:20:00.919Z</time>
      </trkpt>
      <trkpt lat="46.49071" lon="6.05295">
        <ele>1135.4</ele>
        <time>2014-08-16T14:20:03.341Z</time>
      </trkpt>
      <trkpt lat="46.4906" lon="6.05287">
        <ele>1133.6</ele>
        <time>2014-08-16T14:20:06.570Z</time>
      </trkpt>
      <trkpt lat="46.49051" lon="6.05283">
        <ele>1131.5</ele>
        <time>2014-08-16T14:20:09.537Z</time>
      </trkpt>
      <trkpt lat="46.4904" lon="6.05282">
        <ele>1129.8</ele>
        <time>2014-08-16T14:20:12.977Z</time>
      </trkpt>
      <trkpt lat="46.49031" lon="6.05284">
        <ele>1128.6</ele>
        <time>2014-08-16T14:20:15.407Z</time>
      </trkpt>
      <trkpt lat="46.49015" lon="6.05264">
        <ele>1127.7</ele>
        <time>2014-08-16T14:21:15.421Z</time>
      </trkpt>
      <trkpt lat="46.49009" lon="6.05254">
        <ele>1127.2</ele>
        <time>2014-08-16T14:21:18.401Z</time>
      </trkpt>
      <trkpt lat="46.49006" lon="6.05233">
        <ele>1125.2</ele>
        <time>2014-08-16T14:21:58.397Z</time>
      </trkpt>
      <trkpt lat="46.48992" lon="6.05208">
        <ele>1123.7</ele>
        <time>2014-08-16T14:24:05.256Z</time>
      </trkpt>
      <trkpt lat="46.48983" lon="6.05207">
        <ele>1122.7</ele>
        <time>2014-08-16T14:24:08.911Z</time>
      </trkpt>
      <trkpt lat="46.48972" lon="6.05207">
        <ele>1120.1</ele>
        <time>2014-08-16T14:24:13.119Z</time>
      </trkpt>
      <trkpt lat="46.48959" lon="6.05201">
        <ele>1117</ele>
        <time>2014-08-16T14:24:19.873Z</time>
      </trkpt>
      <trkpt lat="46.48956" lon="6.05186">
        <ele>1114.7</ele>
        <time>2014-08-16T14:24:25.325Z</time>
      </trkpt>
      <trkpt lat="46.48958" lon="6.05173">
        <ele>1113.6</ele>
        <time>2014-08-16T14:24:30.074Z</time>
      </trkpt>
      <trkpt lat="46.48956" lon="6.0516">
        <ele>1113.4</ele>
        <time>2014-08-16T14:24:35.047Z</time>
      </trkpt>
      <trkpt lat="46.48949" lon="6.05147">
        <ele>1112.7</ele>
        <time>2014-08-16T14:24:42.023Z</time>
      </trkpt>
      <trkpt lat="46.48942" lon="6.05137">
        <ele>1109.6</ele>
        <time>2014-08-16T14:24:47.506Z</time>
      </trkpt>
      <trkpt lat="46.48933" lon="6.05129">
        <ele>1103.5</ele>
        <time>2014-08-16T14:24:53.982Z</time>
      </trkpt>
      <trkpt lat="46.48922" lon="6.05127">
        <ele>1096.3</ele>
        <time>2014-08-16T14:25:02.562Z</time>
      </trkpt>
      <trkpt lat="46.48912" lon="6.05128">
        <ele>1090.7</ele>
        <time>2014-08-16T14:25:09.761Z</time>
      </trkpt>
      <trkpt lat="46.48902" lon="6.05125">
        <ele>1087.2</ele>
        <time>2014-08-16T14:25:16.882Z</time>
      </trkpt>
      <trkpt lat="46.48894" lon="6.05135">
        <ele>1084.6</ele>
        <time>2014-08-16T14:25:24.844Z</time>
      </trkpt>
      <trkpt lat="46.48887" lon="6.05146">
        <ele>1082.5</ele>
        <time>2014-08-16T14:25:31.957Z</time>
      </trkpt>
      <trkpt lat="46.48882" lon="6.05164">
        <ele>1081.5</ele>
        <time>2014-08-16T14:25:41.938Z</time>
      </trkpt>
      <trkpt lat="46.48881" lon="6.05194">
        <ele>1081.1</ele>
        <time>2014-08-16T14:25:56.849Z</time>
      </trkpt>
      <trkpt lat="46.48885" lon="6.05293">
        <ele>1079</ele>
        <time>2014-08-16T14:26:31.114Z</time>
      </trkpt>
      <trkpt lat="46.48882" lon="6.05324">
        <ele>1077.3</ele>
        <time>2014-08-16T14:26:35.037Z</time>
      </trkpt>
      <trkpt lat="46.48879" lon="6.05337">
        <ele>1077.2</ele>
        <time>2014-08-16T14:26:36.835Z</time>
      </trkpt>
      <trkpt lat="46.48857" lon="6.05405">
        <ele>1079.9</ele>
        <time>2014-08-16T14:26:52.777Z</time>
      </trkpt>
      <trkpt lat="46.48851" lon="6.0545">
        <ele>1082.4</ele>
        <time>2014-08-16T14:27:05.061Z</time>
      </trkpt>
      <trkpt lat="46.48845" lon="6.05464">
        <ele>1082.8</ele>
        <time>2014-08-16T14:27:09.692Z</time>
      </trkpt>
      <trkpt lat="46.48828" lon="6.05499">
        <ele>1083.4</ele>
        <time>2014-08-16T14:27:22.831Z</time>
      </trkpt>
      <trkpt lat="46.48824" lon="6.05512">
        <ele>1083.3</ele>
        <time>2014-08-16T14:27:27.184Z</time>
      </trkpt>
      <trkpt lat="46.48826" lon="6.05526">
        <ele>1083.2</ele>
        <time>2014-08-16T14:27:31.481Z</time>
      </trkpt>
      <trkpt lat="46.48836" lon="6.0555">
        <ele>1084.5</ele>
        <time>2014-08-16T14:27:41.277Z</time>
      </trkpt>
      <trkpt lat="46.48842" lon="6.05559">
        <ele>1085.5</ele>
        <time>2014-08-16T14:27:47.538Z</time>
      </trkpt>
      <trkpt lat="46.48868" lon="6.05659">
        <ele>1086.3</ele>
        <time>2014-08-16T14:28:31.378Z</time>
      </trkpt>
      <trkpt lat="46.48871" lon="6.05676">
        <ele>1085.9</ele>
        <time>2014-08-16T14:28:34.969Z</time>
      </trkpt>
      <trkpt lat="46.48871" lon="6.05695">
        <ele>1085.7</ele>
        <time>2014-08-16T14:28:38.667Z</time>
      </trkpt>
      <trkpt lat="46.48869" lon="6.05709">
        <ele>1085.7</ele>
        <time>2014-08-16T14:28:41.290Z</time>
      </trkpt>
      <trkpt lat="46.4886" lon="6.05737">
        <ele>1085.9</ele>
        <time>2014-08-16T14:28:48.493Z</time>
      </trkpt>
      <trkpt lat="46.48857" lon="6.05754">
        <ele>1086.2</ele>
        <time>2014-08-16T14:28:52.414Z</time>
      </trkpt>
      <trkpt lat="46.48868" lon="6.0587">
        <ele>1085.9</ele>
        <time>2014-08-16T14:29:20.941Z</time>
      </trkpt>
      <trkpt lat="46.48868" lon="6.05887">
        <ele>1086.2</ele>
        <time>2014-08-16T14:29:24.411Z</time>
      </trkpt>
      <trkpt lat="46.48863" lon="6.05907">
        <ele>1086.8</ele>
        <time>2014-08-16T14:29:31.957Z</time>
      </trkpt>
      <trkpt lat="46.48857" lon="6.05924">
        <ele>1086.7</ele>
        <time>2014-08-16T14:29:37.079Z</time>
      </trkpt>
      <trkpt lat="46.4883" lon="6.05974">
        <ele>1091.1</ele>
        <time>2014-08-16T14:29:56.969Z</time>
      </trkpt>
      <trkpt lat="46.48799" lon="6.06073">
        <ele>1091.1</ele>
        <time>2014-08-16T14:30:19.628Z</time>
      </trkpt>
      <trkpt lat="46.4879" lon="6.06202">
        <ele>1083.2</ele>
        <time>2014-08-16T14:31:05.651Z</time>
      </trkpt>
      <trkpt lat="46.48736" lon="6.06385">
        <ele>1095.1</ele>
        <time>2014-08-16T14:33:10.719Z</time>
      </trkpt>
      <trkpt lat="46.48724" lon="6.06425">
        <ele>1095.6</ele>
        <time>2014-08-16T14:33:38.342Z</time>
      </trkpt>
      <trkpt lat="46.48718" lon="6.06437">
        <ele>1096.9</ele>
        <time>2014-08-16T14:33:47.304Z</time>
      </trkpt>
      <trkpt lat="46.48713" lon="6.06448">
        <ele>1098.5</ele>
        <time>2014-08-16T14:33:55.595Z</time>
      </trkpt>
      <trkpt lat="46.48699" lon="6.06467">
        <ele>1101.1</ele>
        <time>2014-08-16T14:34:12.831Z</time>
      </trkpt>
      <trkpt lat="46.48692" lon="6.06474">
        <ele>1102.4</ele>
        <time>2014-08-16T14:34:21.212Z</time>
      </trkpt>
      <trkpt lat="46.48683" lon="6.06481">
        <ele>1103.9</ele>
        <time>2014-08-16T14:34:30.142Z</time>
      </trkpt>
      <trkpt lat="46.48668" lon="6.06499">
        <ele>1106</ele>
        <time>2014-08-16T14:34:48.262Z</time>
      </trkpt>
      <trkpt lat="46.48661" lon="6.06509">
        <ele>1106.8</ele>
        <time>2014-08-16T14:34:57.003Z</time>
      </trkpt>
      <trkpt lat="46.48656" lon="6.06522">
        <ele>1107.3</ele>
        <time>2014-08-16T14:35:06.325Z</time>
      </trkpt>
      <trkpt lat="46.48654" lon="6.06535">
        <ele>1107.6</ele>
        <time>2014-08-16T14:35:14.592Z</time>
      </trkpt>
      <trkpt lat="46.48669" lon="6.066">
        <ele>1109.3</ele>
        <time>2014-08-16T14:36:00.453Z</time>
      </trkpt>
      <trkpt lat="46.4875" lon="6.06956">
        <ele>1109.2</ele>
        <time>2014-08-16T14:38:18.767Z</time>
      </trkpt>
      <trkpt lat="46.4875" lon="6.06974">
        <ele>1108.8</ele>
        <time>2014-08-16T14:38:22.510Z</time>
      </trkpt>
      <trkpt lat="46.48753" lon="6.06989">
        <ele>1108.5</ele>
        <time>2014-08-16T14:38:25.964Z</time>
      </trkpt>
      <trkpt lat="46.48761" lon="6.07">
        <ele>1108.7</ele>
        <time>2014-08-16T14:38:29.796Z</time>
      </trkpt>
      <trkpt lat="46.48768" lon="6.07011">
        <ele>1108.8</ele>
        <time>2014-08-16T14:38:33.492Z</time>
      </trkpt>
      <trkpt lat="46.48779" lon="6.0704">
        <ele>1107.6</ele>
        <time>2014-08-16T14:38:42.086Z</time>
      </trkpt>
      <trkpt lat="46.48785" lon="6.0705">
        <ele>1107.7</ele>
        <time>2014-08-16T14:38:46.430Z</time>
      </trkpt>
      <trkpt lat="46.4879" lon="6.07117">
        <ele>1107.7</ele>
        <time>2014-08-16T14:39:16.966Z</time>
      </trkpt>
      <trkpt lat="46.488" lon="6.07176">
        <ele>1112.6</ele>
        <time>2014-08-16T14:39:27.936Z</time>
      </trkpt>
      <trkpt lat="46.488" lon="6.0719">
        <ele>1111.4</ele>
        <time>2014-08-16T14:39:30.410Z</time>
      </trkpt>
      <trkpt lat="46.48794" lon="6.07179">
        <ele>1109.2</ele>
        <time>2014-08-16T14:40:25.410Z</time>
      </trkpt>
      <trkpt lat="46.48798" lon="6.0728">
        <ele>1107</ele>
        <time>2014-08-16T14:46:39.625Z</time>
      </trkpt>
      <trkpt lat="46.48781" lon="6.07507">
        <ele>1097.9</ele>
        <time>2014-08-16T14:46:53.487Z</time>
      </trkpt>
      <trkpt lat="46.48764" lon="6.07611">
        <ele>1094.8</ele>
        <time>2014-08-16T14:46:59.875Z</time>
      </trkpt>
      <trkpt lat="46.48746" lon="6.07672">
        <ele>1091.6</ele>
        <time>2014-08-16T14:47:07.418Z</time>
      </trkpt>
      <trkpt lat="46.48743" lon="6.07693">
        <ele>1089.7</ele>
        <time>2014-08-16T14:47:36.670Z</time>
      </trkpt>
      <trkpt lat="46.48682" lon="6.07933">
        <ele>1081</ele>
        <time>2014-08-16T14:47:56.602Z</time>
      </trkpt>
      <trkpt lat="46.48678" lon="6.07975">
        <ele>1080.3</ele>
        <time>2014-08-16T14:47:59.387Z</time>
      </trkpt>
      <trkpt lat="46.48678" lon="6.08023">
        <ele>1079.8</ele>
        <time>2014-08-16T14:48:02.335Z</time>
      </trkpt>
      <trkpt lat="46.48683" lon="6.08068">
        <ele>1079.4</ele>
        <time>2014-08-16T14:48:05.187Z</time>
      </trkpt>
      <trkpt lat="46.48694" lon="6.08111">
        <ele>1079.3</ele>
        <time>2014-08-16T14:48:08.182Z</time>
      </trkpt>
      <trkpt lat="46.48709" lon="6.08149">
        <ele>1078.9</ele>
        <time>2014-08-16T14:48:11.257Z</time>
      </trkpt>
      <trkpt lat="46.48721" lon="6.08172">
        <ele>1078.1</ele>
        <time>2014-08-16T14:48:13.443Z</time>
      </trkpt>
      <trkpt lat="46.4875" lon="6.08215">
        <ele>1075.9</ele>
        <time>2014-08-16T14:48:18.356Z</time>
      </trkpt>
      <trkpt lat="46.48806" lon="6.0828">
        <ele>1079</ele>
        <time>2014-08-16T14:48:29.393Z</time>
      </trkpt>
      <trkpt lat="46.48818" lon="6.083">
        <ele>1080</ele>
        <time>2014-08-16T14:48:32.466Z</time>
      </trkpt>
      <trkpt lat="46.48827" lon="6.08323">
        <ele>1081.2</ele>
        <time>2014-08-16T14:48:35.530Z</time>
      </trkpt>
      <trkpt lat="46.48843" lon="6.08404">
        <ele>1077</ele>
        <time>2014-08-16T14:48:44.255Z</time>
      </trkpt>
      <trkpt lat="46.48886" lon="6.08731">
        <ele>1076.6</ele>
        <time>2014-08-16T14:49:14.224Z</time>
      </trkpt>
      <trkpt lat="46.48899" lon="6.08775">
        <ele>1072.2</ele>
        <time>2014-08-16T14:49:18.724Z</time>
      </trkpt>
      <trkpt lat="46.48928" lon="6.08837">
        <ele>1076.3</ele>
        <time>2014-08-16T14:49:27.901Z</time>
      </trkpt>
      <trkpt lat="46.49046" lon="6.09036">
        <ele>1083</ele>
        <time>2014-08-16T14:50:16.825Z</time>
      </trkpt>
      <trkpt lat="46.49085" lon="6.09108">
        <ele>1084.6</ele>
        <time>2014-08-16T14:50:36.915Z</time>
      </trkpt>
      <trkpt lat="46.49089" lon="6.09123">
        <ele>1085.1</ele>
        <time>2014-08-16T14:50:40.443Z</time>
      </trkpt>
      <trkpt lat="46.49089" lon="6.09136">
        <ele>1084.3</ele>
        <time>2014-08-16T14:50:43.346Z</time>
      </trkpt>
      <trkpt lat="46.49076" lon="6.09162">
        <ele>1084.1</ele>
        <time>2014-08-16T14:50:50.605Z</time>
      </trkpt>
      <trkpt lat="46.49079" lon="6.09176">
        <ele>1085.7</ele>
        <time>2014-08-16T14:50:53.578Z</time>
      </trkpt>
      <trkpt lat="46.49089" lon="6.09185">
        <ele>1086.9</ele>
        <time>2014-08-16T14:50:57.356Z</time>
      </trkpt>
      <trkpt lat="46.4911" lon="6.09194">
        <ele>1086.4</ele>
        <time>2014-08-16T14:51:04.376Z</time>
      </trkpt>
      <trkpt lat="46.49131" lon="6.09208">
        <ele>1086.8</ele>
        <time>2014-08-16T14:51:10.311Z</time>
      </trkpt>
      <trkpt lat="46.49139" lon="6.09215">
        <ele>1087.3</ele>
        <time>2014-08-16T14:51:12.797Z</time>
      </trkpt>
      <trkpt lat="46.49156" lon="6.09235">
        <ele>1088.6</ele>
        <time>2014-08-16T14:51:18.592Z</time>
      </trkpt>
      <trkpt lat="46.49167" lon="6.09244">
        <ele>1090.7</ele>
        <time>2014-08-16T14:51:22.376Z</time>
      </trkpt>
      <trkpt lat="46.49175" lon="6.09253">
        <ele>1092.8</ele>
        <time>2014-08-16T14:51:25.386Z</time>
      </trkpt>
      <trkpt lat="46.49181" lon="6.09263">
        <ele>1093.4</ele>
        <time>2014-08-16T14:51:28.351Z</time>
      </trkpt>
      <trkpt lat="46.49189" lon="6.09272">
        <ele>1092.6</ele>
        <time>2014-08-16T14:51:31.409Z</time>
      </trkpt>
      <trkpt lat="46.49203" lon="6.09299">
        <ele>1091.1</ele>
        <time>2014-08-16T14:51:43.977Z</time>
      </trkpt>
      <trkpt lat="46.49198" lon="6.09311">
        <ele>1091.5</ele>
        <time>2014-08-16T14:51:46.414Z</time>
      </trkpt>
      <trkpt lat="46.49195" lon="6.09333">
        <ele>1092.1</ele>
        <time>2014-08-16T14:51:58.410Z</time>
      </trkpt>
      <trkpt lat="46.49142" lon="6.09451">
        <ele>1091.2</ele>
        <time>2014-08-16T14:52:20.415Z</time>
      </trkpt>
      <trkpt lat="46.4909" lon="6.09541">
        <ele>1092.3</ele>
        <time>2014-08-16T14:52:37.262Z</time>
      </trkpt>
      <trkpt lat="46.4905" lon="6.09585">
        <ele>1091.8</ele>
        <time>2014-08-16T14:52:59.357Z</time>
      </trkpt>
      <trkpt lat="46.4904" lon="6.09592">
        <ele>1093.1</ele>
        <time>2014-08-16T14:53:07.414Z</time>
      </trkpt>
      <trkpt lat="46.49034" lon="6.0959">
        <ele>1095.1</ele>
        <time>2014-08-16T14:54:45.072Z</time>
      </trkpt>
      <trkpt lat="46.49066" lon="6.09561">
        <ele>1087.1</ele>
        <time>2014-08-17T08:38:50.661Z</time>
      </trkpt>
      <trkpt lat="46.49085" lon="6.09553">
        <ele>1086.5</ele>
        <time>2014-08-17T08:39:01.814Z</time>
      </trkpt>
      <trkpt lat="46.49137" lon="6.09467">
        <ele>1094.8</ele>
        <time>2014-08-17T08:39:11.597Z</time>
      </trkpt>
      <trkpt lat="46.492" lon="6.09336">
        <ele>1092.1</ele>
        <time>2014-08-17T08:39:26.686Z</time>
      </trkpt>
      <trkpt lat="46.49205" lon="6.09325">
        <ele>1092.2</ele>
        <time>2014-08-17T08:39:28.583Z</time>
      </trkpt>
      <trkpt lat="46.49218" lon="6.09302">
        <ele>1091</ele>
        <time>2014-08-17T08:39:34.677Z</time>
      </trkpt>
      <trkpt lat="46.49208" lon="6.09283">
        <ele>1090.1</ele>
        <time>2014-08-17T08:40:12.503Z</time>
      </trkpt>
      <trkpt lat="46.492" lon="6.09271">
        <ele>1090.3</ele>
        <time>2014-08-17T08:40:15.352Z</time>
      </trkpt>
      <trkpt lat="46.49107" lon="6.09178">
        <ele>1094.2</ele>
        <time>2014-08-17T08:40:40.237Z</time>
      </trkpt>
      <trkpt lat="46.49098" lon="6.09155">
        <ele>1092.6</ele>
        <time>2014-08-17T08:40:43.123Z</time>
      </trkpt>
      <trkpt lat="46.49099" lon="6.09126">
        <ele>1090.3</ele>
        <time>2014-08-17T08:40:46.240Z</time>
      </trkpt>
      <trkpt lat="46.4909" lon="6.09101">
        <ele>1088.7</ele>
        <time>2014-08-17T08:40:49.113Z</time>
      </trkpt>
      <trkpt lat="46.48941" lon="6.08851">
        <ele>1079.2</ele>
        <time>2014-08-17T08:41:16.529Z</time>
      </trkpt>
      <trkpt lat="46.48911" lon="6.08789">
        <ele>1076.6</ele>
        <time>2014-08-17T08:41:22.347Z</time>
      </trkpt>
      <trkpt lat="46.48889" lon="6.0873">
        <ele>1075.2</ele>
        <time>2014-08-17T08:41:27.301Z</time>
      </trkpt>
      <trkpt lat="46.4884" lon="6.08349">
        <ele>1079.7</ele>
        <time>2014-08-17T08:42:08.155Z</time>
      </trkpt>
      <trkpt lat="46.4883" lon="6.08314">
        <ele>1080.7</ele>
        <time>2014-08-17T08:42:13.184Z</time>
      </trkpt>
      <trkpt lat="46.4881" lon="6.0827">
        <ele>1082</ele>
        <time>2014-08-17T08:42:21.077Z</time>
      </trkpt>
      <trkpt lat="46.48776" lon="6.08228">
        <ele>1078.7</ele>
        <time>2014-08-17T08:42:29.872Z</time>
      </trkpt>
      <trkpt lat="46.48743" lon="6.08192">
        <ele>1078.9</ele>
        <time>2014-08-17T08:42:36.651Z</time>
      </trkpt>
      <trkpt lat="46.48719" lon="6.08158">
        <ele>1079</ele>
        <time>2014-08-17T08:42:41.939Z</time>
      </trkpt>
      <trkpt lat="46.48708" lon="6.08137">
        <ele>1078.4</ele>
        <time>2014-08-17T08:42:44.953Z</time>
      </trkpt>
      <trkpt lat="46.48693" lon="6.08083">
        <ele>1079.3</ele>
        <time>2014-08-17T08:42:51.476Z</time>
      </trkpt>
      <trkpt lat="46.48686" lon="6.08038">
        <ele>1079.2</ele>
        <time>2014-08-17T08:42:56.644Z</time>
      </trkpt>
      <trkpt lat="46.48684" lon="6.07972">
        <ele>1080.4</ele>
        <time>2014-08-17T08:43:05.004Z</time>
      </trkpt>
      <trkpt lat="46.48686" lon="6.07937">
        <ele>1081</ele>
        <time>2014-08-17T08:43:10.089Z</time>
      </trkpt>
      <trkpt lat="46.48717" lon="6.07792">
        <ele>1085.2</ele>
        <time>2014-08-17T08:43:36.587Z</time>
      </trkpt>
      <trkpt lat="46.48728" lon="6.07764">
        <ele>1086.3</ele>
        <time>2014-08-17T08:43:42.902Z</time>
      </trkpt>
      <trkpt lat="46.48745" lon="6.07693">
        <ele>1084.8</ele>
        <time>2014-08-17T08:43:58.846Z</time>
      </trkpt>
      <trkpt lat="46.4875" lon="6.0768">
        <ele>1086.6</ele>
        <time>2014-08-17T08:44:02.376Z</time>
      </trkpt>
      <trkpt lat="46.48786" lon="6.07523">
        <ele>1095</ele>
        <time>2014-08-17T08:44:36.952Z</time>
      </trkpt>
      <trkpt lat="46.48806" lon="6.07235">
        <ele>1106</ele>
        <time>2014-08-17T08:45:56.095Z</time>
      </trkpt>
      <trkpt lat="46.48784" lon="6.07048">
        <ele>1109.6</ele>
        <time>2014-08-17T08:46:31.668Z</time>
      </trkpt>
      <trkpt lat="46.48768" lon="6.06998">
        <ele>1106.8</ele>
        <time>2014-08-17T08:46:39.608Z</time>
      </trkpt>
      <trkpt lat="46.48761" lon="6.06985">
        <ele>1105.9</ele>
        <time>2014-08-17T08:46:42.392Z</time>
      </trkpt>
      <trkpt lat="46.48754" lon="6.06969">
        <ele>1105.8</ele>
        <time>2014-08-17T08:46:45.397Z</time>
      </trkpt>
      <trkpt lat="46.48744" lon="6.06904">
        <ele>1104.4</ele>
        <time>2014-08-17T08:46:55.188Z</time>
      </trkpt>
      <trkpt lat="46.48686" lon="6.06654">
        <ele>1105.1</ele>
        <time>2014-08-17T08:47:30.741Z</time>
      </trkpt>
      <trkpt lat="46.48685" lon="6.06641">
        <ele>1104.8</ele>
        <time>2014-08-17T08:47:32.658Z</time>
      </trkpt>
      <trkpt lat="46.48699" lon="6.06642">
        <ele>1104.4</ele>
        <time>2014-08-17T08:47:35.702Z</time>
      </trkpt>
      <trkpt lat="46.48933" lon="6.06761">
        <ele>1103.4</ele>
        <time>2014-08-17T08:48:14.110Z</time>
      </trkpt>
      <trkpt lat="46.48949" lon="6.06766">
        <ele>1103.1</ele>
        <time>2014-08-17T08:48:17.163Z</time>
      </trkpt>
      <trkpt lat="46.48967" lon="6.06767">
        <ele>1103</ele>
        <time>2014-08-17T08:48:20.315Z</time>
      </trkpt>
      <trkpt lat="46.48985" lon="6.06766">
        <ele>1102.5</ele>
        <time>2014-08-17T08:48:23.293Z</time>
      </trkpt>
      <trkpt lat="46.48994" lon="6.06757">
        <ele>1101.1</ele>
        <time>2014-08-17T08:48:25.256Z</time>
      </trkpt>
      <trkpt lat="46.49002" lon="6.06709">
        <ele>1099.1</ele>
        <time>2014-08-17T08:48:33.332Z</time>
      </trkpt>
      <trkpt lat="46.4901" lon="6.06699">
        <ele>1099.2</ele>
        <time>2014-08-17T08:48:36.658Z</time>
      </trkpt>
      <trkpt lat="46.4902" lon="6.06707">
        <ele>1098.8</ele>
        <time>2014-08-17T08:49:17.014Z</time>
      </trkpt>
      <trkpt lat="46.49028" lon="6.06716">
        <ele>1098.3</ele>
        <time>2014-08-17T08:49:21.483Z</time>
      </trkpt>
      <trkpt lat="46.49037" lon="6.0672">
        <ele>1098.9</ele>
        <time>2014-08-17T08:49:25.870Z</time>
      </trkpt>
      <trkpt lat="46.49042" lon="6.06732">
        <ele>1100.6</ele>
        <time>2014-08-17T08:49:30.665Z</time>
      </trkpt>
      <trkpt lat="46.49038" lon="6.0674">
        <ele>1100.9</ele>
        <time>2014-08-17T09:05:02.669Z</time>
      </trkpt>
      <trkpt lat="46.49038" lon="6.06712">
        <ele>1099.8</ele>
        <time>2014-08-17T09:05:44.281Z</time>
      </trkpt>
      <trkpt lat="46.49029" lon="6.06703">
        <ele>1099.5</ele>
        <time>2014-08-17T09:05:48.955Z</time>
      </trkpt>
      <trkpt lat="46.4901" lon="6.06694">
        <ele>1098.1</ele>
        <time>2014-08-17T09:05:56.087Z</time>
      </trkpt>
      <trkpt lat="46.48999" lon="6.06698">
        <ele>1097.5</ele>
        <time>2014-08-17T09:05:59.680Z</time>
      </trkpt>
      <trkpt lat="46.48994" lon="6.06711">
        <ele>1097.2</ele>
        <time>2014-08-17T09:06:02.506Z</time>
      </trkpt>
      <trkpt lat="46.4899" lon="6.06726">
        <ele>1097.1</ele>
        <time>2014-08-17T09:06:05.418Z</time>
      </trkpt>
      <trkpt lat="46.4899" lon="6.06739">
        <ele>1097.2</ele>
        <time>2014-08-17T09:06:07.818Z</time>
      </trkpt>
      <trkpt lat="46.48987" lon="6.06752">
        <ele>1097.6</ele>
        <time>2014-08-17T09:06:10.327Z</time>
      </trkpt>
      <trkpt lat="46.48978" lon="6.06755">
        <ele>1098</ele>
        <time>2014-08-17T09:06:13.074Z</time>
      </trkpt>
      <trkpt lat="46.48966" lon="6.06753">
        <ele>1098.4</ele>
        <time>2014-08-17T09:06:16.774Z</time>
      </trkpt>
      <trkpt lat="46.48956" lon="6.06754">
        <ele>1099</ele>
        <time>2014-08-17T09:06:19.574Z</time>
      </trkpt>
      <trkpt lat="46.48947" lon="6.06754">
        <ele>1099.8</ele>
        <time>2014-08-17T09:06:22.020Z</time>
      </trkpt>
      <trkpt lat="46.48936" lon="6.06752">
        <ele>1100.6</ele>
        <time>2014-08-17T09:06:24.670Z</time>
      </trkpt>
      <trkpt lat="46.48922" lon="6.06747">
        <ele>1099.7</ele>
        <time>2014-08-17T09:06:31.767Z</time>
      </trkpt>
      <trkpt lat="46.48809" lon="6.06689">
        <ele>1101.6</ele>
        <time>2014-08-17T09:07:05.647Z</time>
      </trkpt>
      <trkpt lat="46.48776" lon="6.0667">
        <ele>1099.6</ele>
        <time>2014-08-17T09:07:14.464Z</time>
      </trkpt>
      <trkpt lat="46.48717" lon="6.0664">
        <ele>1100.7</ele>
        <time>2014-08-17T09:07:29.591Z</time>
      </trkpt>
      <trkpt lat="46.48698" lon="6.06628">
        <ele>1103.1</ele>
        <time>2014-08-17T09:07:34.887Z</time>
      </trkpt>
      <trkpt lat="46.48689" lon="6.06625">
        <ele>1104.7</ele>
        <time>2014-08-17T09:07:37.553Z</time>
      </trkpt>
      <trkpt lat="46.4868" lon="6.06619">
        <ele>1105.5</ele>
        <time>2014-08-17T09:07:40.690Z</time>
      </trkpt>
      <trkpt lat="46.48675" lon="6.06605">
        <ele>1105.9</ele>
        <time>2014-08-17T09:07:44.856Z</time>
      </trkpt>
      <trkpt lat="46.48663" lon="6.06547">
        <ele>1105.5</ele>
        <time>2014-08-17T09:08:02.608Z</time>
      </trkpt>
      <trkpt lat="46.48657" lon="6.06534">
        <ele>1105.3</ele>
        <time>2014-08-17T09:08:05.755Z</time>
      </trkpt>
      <trkpt lat="46.48648" lon="6.06526">
        <ele>1105.7</ele>
        <time>2014-08-17T09:08:09.148Z</time>
      </trkpt>
      <trkpt lat="46.4864" lon="6.06536">
        <ele>1107</ele>
        <time>2014-08-17T09:08:12.743Z</time>
      </trkpt>
      <trkpt lat="46.48639" lon="6.06552">
        <ele>1108.8</ele>
        <time>2014-08-17T09:08:16.669Z</time>
      </trkpt>
      <trkpt lat="46.48643" lon="6.06595">
        <ele>1109.1</ele>
        <time>2014-08-17T09:11:34.719Z</time>
      </trkpt>
      <trkpt lat="46.48641" lon="6.0661">
        <ele>1109.6</ele>
        <time>2014-08-17T09:11:40.316Z</time>
      </trkpt>
      <trkpt lat="46.48633" lon="6.06636">
        <ele>1112.5</ele>
        <time>2014-08-17T09:11:49.956Z</time>
      </trkpt>
      <trkpt lat="46.48628" lon="6.06646">
        <ele>1113.6</ele>
        <time>2014-08-17T09:11:54.200Z</time>
      </trkpt>
      <trkpt lat="46.48615" lon="6.06666">
        <ele>1115.2</ele>
        <time>2014-08-17T09:12:02.694Z</time>
      </trkpt>
      <trkpt lat="46.48609" lon="6.0668">
        <ele>1116.1</ele>
        <time>2014-08-17T09:12:08.079Z</time>
      </trkpt>
      <trkpt lat="46.48607" lon="6.06694">
        <ele>1116.8</ele>
        <time>2014-08-17T09:12:12.676Z</time>
      </trkpt>
      <trkpt lat="46.48619" lon="6.06668">
        <ele>1115.8</ele>
        <time>2014-08-17T09:13:26.715Z</time>
      </trkpt>
      <trkpt lat="46.48611" lon="6.06675">
        <ele>1115.6</ele>
        <time>2014-08-17T09:13:33.946Z</time>
      </trkpt>
      <trkpt lat="46.48606" lon="6.06717">
        <ele>1117</ele>
        <time>2014-08-17T09:13:52.386Z</time>
      </trkpt>
      <trkpt lat="46.48597" lon="6.06742">
        <ele>1118.7</ele>
        <time>2014-08-17T09:14:02.515Z</time>
      </trkpt>
      <trkpt lat="46.48585" lon="6.06764">
        <ele>1118.6</ele>
        <time>2014-08-17T09:14:13.448Z</time>
      </trkpt>
      <trkpt lat="46.48576" lon="6.06761">
        <ele>1118.6</ele>
        <time>2014-08-17T09:14:19.329Z</time>
      </trkpt>
      <trkpt lat="46.48561" lon="6.06678">
        <ele>1125.5</ele>
        <time>2014-08-17T09:14:55.771Z</time>
      </trkpt>
      <trkpt lat="46.48545" lon="6.06643">
        <ele>1126.7</ele>
        <time>2014-08-17T09:15:14.070Z</time>
      </trkpt>
      <trkpt lat="46.48541" lon="6.0663">
        <ele>1125.4</ele>
        <time>2014-08-17T09:15:21.563Z</time>
      </trkpt>
      <trkpt lat="46.48538" lon="6.06617">
        <ele>1124.4</ele>
        <time>2014-08-17T09:15:29.282Z</time>
      </trkpt>
      <trkpt lat="46.48533" lon="6.06604">
        <ele>1124.1</ele>
        <time>2014-08-17T09:15:36.984Z</time>
      </trkpt>
      <trkpt lat="46.48531" lon="6.06591">
        <ele>1124.5</ele>
        <time>2014-08-17T09:15:43.743Z</time>
      </trkpt>
      <trkpt lat="46.48518" lon="6.06552">
        <ele>1125.1</ele>
        <time>2014-08-17T09:16:02.732Z</time>
      </trkpt>
      <trkpt lat="46.4849" lon="6.06494">
        <ele>1130.2</ele>
        <time>2014-08-17T09:16:44.556Z</time>
      </trkpt>
      <trkpt lat="46.48457" lon="6.06384">
        <ele>1125.9</ele>
        <time>2014-08-17T09:17:17.929Z</time>
      </trkpt>
      <trkpt lat="46.48451" lon="6.06372">
        <ele>1126.4</ele>
        <time>2014-08-17T09:17:22.467Z</time>
      </trkpt>
      <trkpt lat="46.48445" lon="6.06362">
        <ele>1127.1</ele>
        <time>2014-08-17T09:17:26.600Z</time>
      </trkpt>
      <trkpt lat="46.48439" lon="6.06351">
        <ele>1127.7</ele>
        <time>2014-08-17T09:17:31.052Z</time>
      </trkpt>
      <trkpt lat="46.48406" lon="6.06247">
        <ele>1128.8</ele>
        <time>2014-08-17T09:18:15.851Z</time>
      </trkpt>
      <trkpt lat="46.48408" lon="6.06233">
        <ele>1128</ele>
        <time>2014-08-17T09:18:23.698Z</time>
      </trkpt>
      <trkpt lat="46.48405" lon="6.06221">
        <ele>1127.6</ele>
        <time>2014-08-17T09:18:36.783Z</time>
      </trkpt>
      <trkpt lat="46.4841" lon="6.06209">
        <ele>1127.3</ele>
        <time>2014-08-17T09:18:50.858Z</time>
      </trkpt>
      <trkpt lat="46.48408" lon="6.06195">
        <ele>1126.8</ele>
        <time>2014-08-17T09:19:04.490Z</time>
      </trkpt>
      <trkpt lat="46.48343" lon="6.06098">
        <ele>1116.8</ele>
        <time>2014-08-17T09:21:11.550Z</time>
      </trkpt>
      <trkpt lat="46.48333" lon="6.06102">
        <ele>1117</ele>
        <time>2014-08-17T09:21:18.659Z</time>
      </trkpt>
      <trkpt lat="46.48327" lon="6.06112">
        <ele>1116.8</ele>
        <time>2014-08-17T09:21:26.976Z</time>
      </trkpt>
      <trkpt lat="46.48319" lon="6.06119">
        <ele>1116.1</ele>
        <time>2014-08-17T09:21:34.912Z</time>
      </trkpt>
      <trkpt lat="46.4831" lon="6.06118">
        <ele>1115.5</ele>
        <time>2014-08-17T09:21:43.554Z</time>
      </trkpt>
      <trkpt lat="46.48303" lon="6.06108">
        <ele>1114.6</ele>
        <time>2014-08-17T09:21:50.677Z</time>
      </trkpt>
      <trkpt lat="46.48317" lon="6.06083">
        <ele>1112.8</ele>
        <time>2014-08-17T09:22:54.892Z</time>
      </trkpt>
      <trkpt lat="46.4835" lon="6.06053">
        <ele>1112.4</ele>
        <time>2014-08-17T09:23:12.612Z</time>
      </trkpt>
      <trkpt lat="46.48367" lon="6.06032">
        <ele>1111.2</ele>
        <time>2014-08-17T09:23:22.477Z</time>
      </trkpt>
      <trkpt lat="46.48364" lon="6.0602">
        <ele>1111</ele>
        <time>2014-08-17T09:23:26.675Z</time>
      </trkpt>
      <trkpt lat="46.48358" lon="6.06001">
        <ele>1110.3</ele>
        <time>2014-08-17T09:23:56.703Z</time>
      </trkpt>
      <trkpt lat="46.48352" lon="6.05988">
        <ele>1110.3</ele>
        <time>2014-08-17T09:24:01.824Z</time>
      </trkpt>
      <trkpt lat="46.48344" lon="6.05979">
        <ele>1111.8</ele>
        <time>2014-08-17T09:24:05.598Z</time>
      </trkpt>
      <trkpt lat="46.48327" lon="6.05962">
        <ele>1116.5</ele>
        <time>2014-08-17T09:24:13.195Z</time>
      </trkpt>
      <trkpt lat="46.48319" lon="6.05955">
        <ele>1118.4</ele>
        <time>2014-08-17T09:24:16.905Z</time>
      </trkpt>
      <trkpt lat="46.48294" lon="6.05919">
        <ele>1124.5</ele>
        <time>2014-08-17T09:24:48.052Z</time>
      </trkpt>
      <trkpt lat="46.48292" lon="6.05905">
        <ele>1123.6</ele>
        <time>2014-08-17T09:24:53.323Z</time>
      </trkpt>
      <trkpt lat="46.48297" lon="6.05875">
        <ele>1124.8</ele>
        <time>2014-08-17T09:25:01.072Z</time>
      </trkpt>
      <trkpt lat="46.48294" lon="6.0586">
        <ele>1127.6</ele>
        <time>2014-08-17T09:25:04.297Z</time>
      </trkpt>
      <trkpt lat="46.48293" lon="6.05845">
        <ele>1130</ele>
        <time>2014-08-17T09:25:07.402Z</time>
      </trkpt>
      <trkpt lat="46.4829" lon="6.0583">
        <ele>1130.4</ele>
        <time>2014-08-17T09:25:10.555Z</time>
      </trkpt>
      <trkpt lat="46.4828" lon="6.05804">
        <ele>1128.6</ele>
        <time>2014-08-17T09:25:17.276Z</time>
      </trkpt>
      <trkpt lat="46.48272" lon="6.05763">
        <ele>1128.6</ele>
        <time>2014-08-17T09:25:28.640Z</time>
      </trkpt>
      <trkpt lat="46.48271" lon="6.05748">
        <ele>1128.9</ele>
        <time>2014-08-17T09:25:32.736Z</time>
      </trkpt>
      <trkpt lat="46.48275" lon="6.05734">
        <ele>1128.5</ele>
        <time>2014-08-17T09:25:36.038Z</time>
      </trkpt>
      <trkpt lat="46.48296" lon="6.05685">
        <ele>1127.7</ele>
        <time>2014-08-17T09:25:46.947Z</time>
      </trkpt>
      <trkpt lat="46.48303" lon="6.05676">
        <ele>1129.1</ele>
        <time>2014-08-17T09:25:50.701Z</time>
      </trkpt>
      <trkpt lat="46.48323" lon="6.05643">
        <ele>1128</ele>
        <time>2014-08-17T09:26:04.516Z</time>
      </trkpt>
      <trkpt lat="46.4833" lon="6.05634">
        <ele>1127.7</ele>
        <time>2014-08-17T09:26:08.679Z</time>
      </trkpt>
      <trkpt lat="46.48334" lon="6.05611">
        <ele>1126.5</ele>
        <time>2014-08-17T09:32:09.037Z</time>
      </trkpt>
      <trkpt lat="46.48344" lon="6.05607">
        <ele>1126</ele>
        <time>2014-08-17T09:32:14.407Z</time>
      </trkpt>
      <trkpt lat="46.48357" lon="6.05609">
        <ele>1125.1</ele>
        <time>2014-08-17T09:32:18.055Z</time>
      </trkpt>
      <trkpt lat="46.48362" lon="6.0562">
        <ele>1123.4</ele>
        <time>2014-08-17T09:32:20.229Z</time>
      </trkpt>
      <trkpt lat="46.48364" lon="6.05689">
        <ele>1120.2</ele>
        <time>2014-08-17T09:32:37.708Z</time>
      </trkpt>
      <trkpt lat="46.48366" lon="6.05666">
        <ele>1120.2</ele>
        <time>2014-08-17T09:32:52.993Z</time>
      </trkpt>
      <trkpt lat="46.48374" lon="6.05655">
        <ele>1119.4</ele>
        <time>2014-08-17T09:32:56.113Z</time>
      </trkpt>
      <trkpt lat="46.48385" lon="6.05649">
        <ele>1118.7</ele>
        <time>2014-08-17T09:32:58.717Z</time>
      </trkpt>
      <trkpt lat="46.48395" lon="6.05652">
        <ele>1118.2</ele>
        <time>2014-08-17T09:33:00.468Z</time>
      </trkpt>
      <trkpt lat="46.48429" lon="6.05672">
        <ele>1116.8</ele>
        <time>2014-08-17T09:33:04.964Z</time>
      </trkpt>
      <trkpt lat="46.4844" lon="6.05682">
        <ele>1115.4</ele>
        <time>2014-08-17T09:33:06.985Z</time>
      </trkpt>
      <trkpt lat="46.48449" lon="6.05693">
        <ele>1114.1</ele>
        <time>2014-08-17T09:33:09.803Z</time>
      </trkpt>
      <trkpt lat="46.48456" lon="6.05703">
        <ele>1113.4</ele>
        <time>2014-08-17T09:33:12.681Z</time>
      </trkpt>
      <trkpt lat="46.48471" lon="6.05712">
        <ele>1113</ele>
        <time>2014-08-17T09:33:39.227Z</time>
      </trkpt>
      <trkpt lat="46.48478" lon="6.05722">
        <ele>1112.5</ele>
        <time>2014-08-17T09:33:42.229Z</time>
      </trkpt>
      <trkpt lat="46.48483" lon="6.05737">
        <ele>1112.3</ele>
        <time>2014-08-17T09:33:45.611Z</time>
      </trkpt>
      <trkpt lat="46.48491" lon="6.05782">
        <ele>1112.3</ele>
        <time>2014-08-17T09:33:59.685Z</time>
      </trkpt>
      <trkpt lat="46.48513" lon="6.05816">
        <ele>1111.9</ele>
        <time>2014-08-17T09:34:26.217Z</time>
      </trkpt>
      <trkpt lat="46.48538" lon="6.05864">
        <ele>1114.5</ele>
        <time>2014-08-17T09:34:33.683Z</time>
      </trkpt>
      <trkpt lat="46.48532" lon="6.05849">
        <ele>1108.5</ele>
        <time>2014-08-17T09:36:50.855Z</time>
      </trkpt>
      <trkpt lat="46.48516" lon="6.05824">
        <ele>1109.9</ele>
        <time>2014-08-17T09:36:59.037Z</time>
      </trkpt>
      <trkpt lat="46.48511" lon="6.05813">
        <ele>1110.5</ele>
        <time>2014-08-17T09:37:02.030Z</time>
      </trkpt>
      <trkpt lat="46.48496" lon="6.05793">
        <ele>1112.6</ele>
        <time>2014-08-17T09:37:08.580Z</time>
      </trkpt>
      <trkpt lat="46.48486" lon="6.05746">
        <ele>1112.6</ele>
        <time>2014-08-17T09:37:18.923Z</time>
      </trkpt>
      <trkpt lat="46.48482" lon="6.05732">
        <ele>1110.7</ele>
        <time>2014-08-17T09:37:21.858Z</time>
      </trkpt>
      <trkpt lat="46.48476" lon="6.05718">
        <ele>1109.6</ele>
        <time>2014-08-17T09:37:24.946Z</time>
      </trkpt>
      <trkpt lat="46.48469" lon="6.05709">
        <ele>1110.1</ele>
        <time>2014-08-17T09:37:27.855Z</time>
      </trkpt>
      <trkpt lat="46.48459" lon="6.05701">
        <ele>1111.2</ele>
        <time>2014-08-17T09:37:31.738Z</time>
      </trkpt>
      <trkpt lat="46.48453" lon="6.05687">
        <ele>1111.7</ele>
        <time>2014-08-17T09:37:35.866Z</time>
      </trkpt>
      <trkpt lat="46.4846" lon="6.05673">
        <ele>1111.4</ele>
        <time>2014-08-17T09:37:39.713Z</time>
      </trkpt>
      <trkpt lat="46.48468" lon="6.05662">
        <ele>1110.7</ele>
        <time>2014-08-17T09:37:42.772Z</time>
      </trkpt>
      <trkpt lat="46.48485" lon="6.05641">
        <ele>1111.4</ele>
        <time>2014-08-17T09:37:48.391Z</time>
      </trkpt>
      <trkpt lat="46.4849" lon="6.05626">
        <ele>1112.4</ele>
        <time>2014-08-17T09:37:50.486Z</time>
      </trkpt>
      <trkpt lat="46.4849" lon="6.056">
        <ele>1112.7</ele>
        <time>2014-08-17T09:37:53.126Z</time>
      </trkpt>
      <trkpt lat="46.48485" lon="6.05582">
        <ele>1111.9</ele>
        <time>2014-08-17T09:37:54.919Z</time>
      </trkpt>
      <trkpt lat="46.48458" lon="6.05528">
        <ele>1108.8</ele>
        <time>2014-08-17T09:38:00.729Z</time>
      </trkpt>
      <trkpt lat="46.48442" lon="6.05504">
        <ele>1107.8</ele>
        <time>2014-08-17T09:38:03.571Z</time>
      </trkpt>
      <trkpt lat="46.48405" lon="6.05462">
        <ele>1108.3</ele>
        <time>2014-08-17T09:38:09.609Z</time>
      </trkpt>
      <trkpt lat="46.48392" lon="6.0545">
        <ele>1109</ele>
        <time>2014-08-17T09:38:12.313Z</time>
      </trkpt>
      <trkpt lat="46.48382" lon="6.05442">
        <ele>1109</ele>
        <time>2014-08-17T09:38:14.721Z</time>
      </trkpt>
      <trkpt lat="46.48372" lon="6.05437">
        <ele>1108.7</ele>
        <time>2014-08-17T09:38:16.885Z</time>
      </trkpt>
      <trkpt lat="46.48362" lon="6.05428">
        <ele>1108.4</ele>
        <time>2014-08-17T09:38:19.656Z</time>
      </trkpt>
      <trkpt lat="46.48338" lon="6.05397">
        <ele>1106.9</ele>
        <time>2014-08-17T09:38:26.293Z</time>
      </trkpt>
      <trkpt lat="46.4832" lon="6.0537">
        <ele>1108</ele>
        <time>2014-08-17T09:38:31.735Z</time>
      </trkpt>
      <trkpt lat="46.483" lon="6.05347">
        <ele>1107.6</ele>
        <time>2014-08-17T09:38:53.687Z</time>
      </trkpt>
      <trkpt lat="46.4829" lon="6.05324">
        <ele>1105.7</ele>
        <time>2014-08-17T09:39:15.688Z</time>
      </trkpt>
      <trkpt lat="46.48308" lon="6.05217">
        <ele>1097.6</ele>
        <time>2014-08-17T09:40:01.357Z</time>
      </trkpt>
      <trkpt lat="46.48305" lon="6.05204">
        <ele>1093.3</ele>
        <time>2014-08-17T09:40:04.887Z</time>
      </trkpt>
      <trkpt lat="46.48297" lon="6.05191">
        <ele>1094.4</ele>
        <time>2014-08-17T09:40:09.929Z</time>
      </trkpt>
      <trkpt lat="46.48293" lon="6.05179">
        <ele>1097.1</ele>
        <time>2014-08-17T09:40:14.293Z</time>
      </trkpt>
      <trkpt lat="46.48291" lon="6.05164">
        <ele>1098.2</ele>
        <time>2014-08-17T09:40:19.685Z</time>
      </trkpt>
      <trkpt lat="46.48292" lon="6.0514">
        <ele>1095.2</ele>
        <time>2014-08-17T09:40:56.720Z</time>
      </trkpt>
      <trkpt lat="46.48278" lon="6.05119">
        <ele>1095.1</ele>
        <time>2014-08-17T09:41:05.214Z</time>
      </trkpt>
      <trkpt lat="46.48269" lon="6.05103">
        <ele>1095</ele>
        <time>2014-08-17T09:41:10.690Z</time>
      </trkpt>
      <trkpt lat="46.48254" lon="6.05084">
        <ele>1093.8</ele>
        <time>2014-08-17T09:41:33.873Z</time>
      </trkpt>
      <trkpt lat="46.48248" lon="6.05073">
        <ele>1090.7</ele>
        <time>2014-08-17T09:41:37.950Z</time>
      </trkpt>
      <trkpt lat="46.48239" lon="6.05048">
        <ele>1076.3</ele>
        <time>2014-08-17T09:41:44.523Z</time>
      </trkpt>
      <trkpt lat="46.48237" lon="6.05035">
        <ele>1074.1</ele>
        <time>2014-08-17T09:41:47.508Z</time>
      </trkpt>
      <trkpt lat="46.4823" lon="6.0502">
        <ele>1075</ele>
        <time>2014-08-17T09:41:51.809Z</time>
      </trkpt>
      <trkpt lat="46.48222" lon="6.0501">
        <ele>1075.8</ele>
        <time>2014-08-17T09:41:55.689Z</time>
      </trkpt>
      <trkpt lat="46.48198" lon="6.04991">
        <ele>1074.3</ele>
        <time>2014-08-17T09:42:27.415Z</time>
      </trkpt>
      <trkpt lat="46.48173" lon="6.04963">
        <ele>1072.7</ele>
        <time>2014-08-17T09:42:39.373Z</time>
      </trkpt>
      <trkpt lat="46.48166" lon="6.04956">
        <ele>1070.8</ele>
        <time>2014-08-17T09:42:41.821Z</time>
      </trkpt>
      <trkpt lat="46.48142" lon="6.04925">
        <ele>1061.1</ele>
        <time>2014-08-17T09:42:50.468Z</time>
      </trkpt>
      <trkpt lat="46.48134" lon="6.04912">
        <ele>1061.6</ele>
        <time>2014-08-17T09:42:54.037Z</time>
      </trkpt>
      <trkpt lat="46.48125" lon="6.04903">
        <ele>1064.4</ele>
        <time>2014-08-17T09:42:57.313Z</time>
      </trkpt>
      <trkpt lat="46.48119" lon="6.04891">
        <ele>1065.6</ele>
        <time>2014-08-17T09:43:00.649Z</time>
      </trkpt>
      <trkpt lat="46.48105" lon="6.04878">
        <ele>1066.5</ele>
        <time>2014-08-17T09:43:04.813Z</time>
      </trkpt>
      <trkpt lat="46.48082" lon="6.04862">
        <ele>1066.6</ele>
        <time>2014-08-17T09:43:11.386Z</time>
      </trkpt>
      <trkpt lat="46.48059" lon="6.04849">
        <ele>1066.2</ele>
        <time>2014-08-17T09:43:17.927Z</time>
      </trkpt>
      <trkpt lat="46.48049" lon="6.04841">
        <ele>1066.4</ele>
        <time>2014-08-17T09:43:20.505Z</time>
      </trkpt>
      <trkpt lat="46.48017" lon="6.04817">
        <ele>1063.8</ele>
        <time>2014-08-17T09:43:28.410Z</time>
      </trkpt>
      <trkpt lat="46.48008" lon="6.04807">
        <ele>1063.1</ele>
        <time>2014-08-17T09:43:31.414Z</time>
      </trkpt>
      <trkpt lat="46.47994" lon="6.04797">
        <ele>1063.5</ele>
        <time>2014-08-17T09:43:35.619Z</time>
      </trkpt>
      <trkpt lat="46.47986" lon="6.04786">
        <ele>1064.2</ele>
        <time>2014-08-17T09:43:38.475Z</time>
      </trkpt>
      <trkpt lat="46.47977" lon="6.04777">
        <ele>1064.7</ele>
        <time>2014-08-17T09:43:41.014Z</time>
      </trkpt>
      <trkpt lat="46.47967" lon="6.04762">
        <ele>1064.8</ele>
        <time>2014-08-17T09:43:44.223Z</time>
      </trkpt>
      <trkpt lat="46.47957" lon="6.04711">
        <ele>1063.9</ele>
        <time>2014-08-17T09:43:52.286Z</time>
      </trkpt>
      <trkpt lat="46.4795" lon="6.047">
        <ele>1063</ele>
        <time>2014-08-17T09:43:54.320Z</time>
      </trkpt>
      <trkpt lat="46.47933" lon="6.04678">
        <ele>1060.1</ele>
        <time>2014-08-17T09:43:59.591Z</time>
      </trkpt>
      <trkpt lat="46.47921" lon="6.04673">
        <ele>1058.7</ele>
        <time>2014-08-17T09:44:02.690Z</time>
      </trkpt>
      <trkpt lat="46.47905" lon="6.04678">
        <ele>1056.4</ele>
        <time>2014-08-17T09:44:10.298Z</time>
      </trkpt>
      <trkpt lat="46.47895" lon="6.04682">
        <ele>1056.2</ele>
        <time>2014-08-17T09:44:12.745Z</time>
      </trkpt>
      <trkpt lat="46.47877" lon="6.04697">
        <ele>1055.7</ele>
        <time>2014-08-17T09:44:17.904Z</time>
      </trkpt>
      <trkpt lat="46.47827" lon="6.0475">
        <ele>1048.4</ele>
        <time>2014-08-17T09:44:31.384Z</time>
      </trkpt>
      <trkpt lat="46.47814" lon="6.04757">
        <ele>1047.5</ele>
        <time>2014-08-17T09:44:34.492Z</time>
      </trkpt>
      <trkpt lat="46.47769" lon="6.04751">
        <ele>1051.7</ele>
        <time>2014-08-17T09:44:45.043Z</time>
      </trkpt>
      <trkpt lat="46.47759" lon="6.04751">
        <ele>1054.3</ele>
        <time>2014-08-17T09:44:47.252Z</time>
      </trkpt>
      <trkpt lat="46.47749" lon="6.04755">
        <ele>1055.8</ele>
        <time>2014-08-17T09:44:49.483Z</time>
      </trkpt>
      <trkpt lat="46.4774" lon="6.0476">
        <ele>1055.4</ele>
        <time>2014-08-17T09:44:51.549Z</time>
      </trkpt>
      <trkpt lat="46.47723" lon="6.04775">
        <ele>1052.3</ele>
        <time>2014-08-17T09:44:56.006Z</time>
      </trkpt>
      <trkpt lat="46.47714" lon="6.04787">
        <ele>1052.2</ele>
        <time>2014-08-17T09:44:58.937Z</time>
      </trkpt>
      <trkpt lat="46.47706" lon="6.04794">
        <ele>1053.4</ele>
        <time>2014-08-17T09:45:01.279Z</time>
      </trkpt>
      <trkpt lat="46.47683" lon="6.04803">
        <ele>1058.3</ele>
        <time>2014-08-17T09:45:07.143Z</time>
      </trkpt>
      <trkpt lat="46.47673" lon="6.04808">
        <ele>1060.8</ele>
        <time>2014-08-17T09:45:09.802Z</time>
      </trkpt>
      <trkpt lat="46.47665" lon="6.04814">
        <ele>1062.1</ele>
        <time>2014-08-17T09:45:12.124Z</time>
      </trkpt>
      <trkpt lat="46.47655" lon="6.04824">
        <ele>1062.3</ele>
        <time>2014-08-17T09:45:15.257Z</time>
      </trkpt>
      <trkpt lat="46.47645" lon="6.04836">
        <ele>1061.7</ele>
        <time>2014-08-17T09:45:18.550Z</time>
      </trkpt>
      <trkpt lat="46.47628" lon="6.04853">
        <ele>1059</ele>
        <time>2014-08-17T09:45:23.810Z</time>
      </trkpt>
      <trkpt lat="46.47599" lon="6.0487">
        <ele>1059.7</ele>
        <time>2014-08-17T09:45:31.834Z</time>
      </trkpt>
      <trkpt lat="46.47589" lon="6.04882">
        <ele>1062</ele>
        <time>2014-08-17T09:45:35.293Z</time>
      </trkpt>
      <trkpt lat="46.47579" lon="6.04891">
        <ele>1063.6</ele>
        <time>2014-08-17T09:45:38.505Z</time>
      </trkpt>
      <trkpt lat="46.47568" lon="6.04897">
        <ele>1063.7</ele>
        <time>2014-08-17T09:45:41.633Z</time>
      </trkpt>
      <trkpt lat="46.47554" lon="6.049">
        <ele>1062</ele>
        <time>2014-08-17T09:45:45.394Z</time>
      </trkpt>
      <trkpt lat="46.4753" lon="6.04915">
        <ele>1056.9</ele>
        <time>2014-08-17T09:45:52.666Z</time>
      </trkpt>
      <trkpt lat="46.47499" lon="6.04941">
        <ele>1056.7</ele>
        <time>2014-08-17T09:46:02.132Z</time>
      </trkpt>
      <trkpt lat="46.47489" lon="6.04949">
        <ele>1058.1</ele>
        <time>2014-08-17T09:46:04.959Z</time>
      </trkpt>
      <trkpt lat="46.47476" lon="6.04959">
        <ele>1059.9</ele>
        <time>2014-08-17T09:46:08.365Z</time>
      </trkpt>
      <trkpt lat="46.47445" lon="6.04975">
        <ele>1065.4</ele>
        <time>2014-08-17T09:46:15.402Z</time>
      </trkpt>
      <trkpt lat="46.47418" lon="6.04982">
        <ele>1071.2</ele>
        <time>2014-08-17T09:46:20.908Z</time>
      </trkpt>
      <trkpt lat="46.47369" lon="6.05025">
        <ele>1058.6</ele>
        <time>2014-08-17T09:46:32.284Z</time>
      </trkpt>
      <trkpt lat="46.47358" lon="6.05038">
        <ele>1055.7</ele>
        <time>2014-08-17T09:46:35.386Z</time>
      </trkpt>
      <trkpt lat="46.47349" lon="6.05046">
        <ele>1055.3</ele>
        <time>2014-08-17T09:46:37.630Z</time>
      </trkpt>
      <trkpt lat="46.47334" lon="6.0505">
        <ele>1056.4</ele>
        <time>2014-08-17T09:46:40.853Z</time>
      </trkpt>
      <trkpt lat="46.47324" lon="6.05052">
        <ele>1058</ele>
        <time>2014-08-17T09:46:43.017Z</time>
      </trkpt>
      <trkpt lat="46.47311" lon="6.05056">
        <ele>1059.3</ele>
        <time>2014-08-17T09:46:45.790Z</time>
      </trkpt>
      <trkpt lat="46.47298" lon="6.05065">
        <ele>1060.1</ele>
        <time>2014-08-17T09:46:48.972Z</time>
      </trkpt>
      <trkpt lat="46.47289" lon="6.0507">
        <ele>1060.2</ele>
        <time>2014-08-17T09:46:50.869Z</time>
      </trkpt>
      <trkpt lat="46.47277" lon="6.05082">
        <ele>1059.9</ele>
        <time>2014-08-17T09:46:54.070Z</time>
      </trkpt>
      <trkpt lat="46.47248" lon="6.051">
        <ele>1058.9</ele>
        <time>2014-08-17T09:46:59.821Z</time>
      </trkpt>
      <trkpt lat="46.47232" lon="6.05105">
        <ele>1057.6</ele>
        <time>2014-08-17T09:47:02.672Z</time>
      </trkpt>
      <trkpt lat="46.47208" lon="6.05119">
        <ele>1051.6</ele>
        <time>2014-08-17T09:47:07.230Z</time>
      </trkpt>
      <trkpt lat="46.47144" lon="6.05139">
        <ele>1057.8</ele>
        <time>2014-08-17T09:47:18.838Z</time>
      </trkpt>
      <trkpt lat="46.47131" lon="6.05148">
        <ele>1057.9</ele>
        <time>2014-08-17T09:47:21.354Z</time>
      </trkpt>
      <trkpt lat="46.47106" lon="6.05171">
        <ele>1053.7</ele>
        <time>2014-08-17T09:47:26.726Z</time>
      </trkpt>
      <trkpt lat="46.47074" lon="6.05183">
        <ele>1050.9</ele>
        <time>2014-08-17T09:47:36.503Z</time>
      </trkpt>
      <trkpt lat="46.47056" lon="6.0518">
        <ele>1051.4</ele>
        <time>2014-08-17T09:47:39.446Z</time>
      </trkpt>
      <trkpt lat="46.46966" lon="6.05146">
        <ele>1054.4</ele>
        <time>2014-08-17T09:47:54.102Z</time>
      </trkpt>
      <trkpt lat="46.46952" lon="6.05142">
        <ele>1054.1</ele>
        <time>2014-08-17T09:47:56.429Z</time>
      </trkpt>
      <trkpt lat="46.46938" lon="6.05144">
        <ele>1054.3</ele>
        <time>2014-08-17T09:47:58.724Z</time>
      </trkpt>
      <trkpt lat="46.46929" lon="6.05147">
        <ele>1055.1</ele>
        <time>2014-08-17T09:48:00.379Z</time>
      </trkpt>
      <trkpt lat="46.46916" lon="6.05156">
        <ele>1056.4</ele>
        <time>2014-08-17T09:48:02.720Z</time>
      </trkpt>
      <trkpt lat="46.46894" lon="6.05178">
        <ele>1057</ele>
        <time>2014-08-17T09:48:07.575Z</time>
      </trkpt>
      <trkpt lat="46.46884" lon="6.05186">
        <ele>1053.9</ele>
        <time>2014-08-17T09:48:09.650Z</time>
      </trkpt>
      <trkpt lat="46.46866" lon="6.05191">
        <ele>1050.5</ele>
        <time>2014-08-17T09:48:12.890Z</time>
      </trkpt>
      <trkpt lat="46.46856" lon="6.0519">
        <ele>1049.4</ele>
        <time>2014-08-17T09:48:14.749Z</time>
      </trkpt>
      <trkpt lat="46.46843" lon="6.05192">
        <ele>1051.1</ele>
        <time>2014-08-17T09:48:17.102Z</time>
      </trkpt>
      <trkpt lat="46.46792" lon="6.0521">
        <ele>1058.7</ele>
        <time>2014-08-17T09:48:28.200Z</time>
      </trkpt>
      <trkpt lat="46.46777" lon="6.05213">
        <ele>1061.7</ele>
        <time>2014-08-17T09:48:31.347Z</time>
      </trkpt>
      <trkpt lat="46.46767" lon="6.0522">
        <ele>1067.1</ele>
        <time>2014-08-17T09:48:33.682Z</time>
      </trkpt>
      <trkpt lat="46.46684" lon="6.05267">
        <ele>1077.2</ele>
        <time>2014-08-17T09:48:54.854Z</time>
      </trkpt>
      <trkpt lat="46.46665" lon="6.05281">
        <ele>1070.7</ele>
        <time>2014-08-17T09:49:03.604Z</time>
      </trkpt>
      <trkpt lat="46.46655" lon="6.05285">
        <ele>1070.5</ele>
        <time>2014-08-17T09:49:08.950Z</time>
      </trkpt>
      <trkpt lat="46.4665" lon="6.05272">
        <ele>1073.4</ele>
        <time>2014-08-17T09:49:16.487Z</time>
      </trkpt>
      <trkpt lat="46.46654" lon="6.0526">
        <ele>1076.2</ele>
        <time>2014-08-17T09:49:23.750Z</time>
      </trkpt>
      <trkpt lat="46.46682" lon="6.05217">
        <ele>1055.5</ele>
        <time>2014-08-17T09:49:32.568Z</time>
      </trkpt>
      <trkpt lat="46.46703" lon="6.05193">
        <ele>1040.1</ele>
        <time>2014-08-17T09:49:36.963Z</time>
      </trkpt>
      <trkpt lat="46.46754" lon="6.05154">
        <ele>1036.5</ele>
        <time>2014-08-17T09:49:48.689Z</time>
      </trkpt>
      <trkpt lat="46.4674" lon="6.0513">
        <ele>1039.5</ele>
        <time>2014-08-17T09:50:18.482Z</time>
      </trkpt>
      <trkpt lat="46.46731" lon="6.05126">
        <ele>1038.4</ele>
        <time>2014-08-17T09:50:22.611Z</time>
      </trkpt>
      <trkpt lat="46.4672" lon="6.05128">
        <ele>1036.7</ele>
        <time>2014-08-17T09:50:27.966Z</time>
      </trkpt>
      <trkpt lat="46.46711" lon="6.05131">
        <ele>1034</ele>
        <time>2014-08-17T09:50:32.762Z</time>
      </trkpt>
      <trkpt lat="46.46702" lon="6.05136">
        <ele>1031.1</ele>
        <time>2014-08-17T09:50:37.562Z</time>
      </trkpt>
      <trkpt lat="46.46665" lon="6.05142">
        <ele>1023.5</ele>
        <time>2014-08-17T09:50:50.400Z</time>
      </trkpt>
      <trkpt lat="46.46655" lon="6.05143">
        <ele>1022.2</ele>
        <time>2014-08-17T09:50:52.588Z</time>
      </trkpt>
      <trkpt lat="46.46645" lon="6.05145">
        <ele>1021.1</ele>
        <time>2014-08-17T09:50:54.570Z</time>
      </trkpt>
      <trkpt lat="46.46634" lon="6.05149">
        <ele>1019.4</ele>
        <time>2014-08-17T09:50:56.558Z</time>
      </trkpt>
      <trkpt lat="46.46601" lon="6.0517">
        <ele>1015.4</ele>
        <time>2014-08-17T09:51:03.398Z</time>
      </trkpt>
      <trkpt lat="46.46581" lon="6.05178">
        <ele>1012</ele>
        <time>2014-08-17T09:51:08.344Z</time>
      </trkpt>
      <trkpt lat="46.46572" lon="6.0518">
        <ele>1011.8</ele>
        <time>2014-08-17T09:51:10.935Z</time>
      </trkpt>
      <trkpt lat="46.46562" lon="6.0518">
        <ele>1012.2</ele>
        <time>2014-08-17T09:51:13.693Z</time>
      </trkpt>
      <trkpt lat="46.46552" lon="6.05181">
        <ele>1011.3</ele>
        <time>2014-08-17T09:51:53.005Z</time>
      </trkpt>
      <trkpt lat="46.46546" lon="6.05191">
        <ele>1011.1</ele>
        <time>2014-08-17T09:52:07.695Z</time>
      </trkpt>
      <trkpt lat="46.46525" lon="6.0518">
        <ele>1010</ele>
        <time>2014-08-17T09:53:02.693Z</time>
      </trkpt>
      <trkpt lat="46.46521" lon="6.05193">
        <ele>1008.4</ele>
        <time>2014-08-17T09:54:38.692Z</time>
      </trkpt>
      <trkpt lat="46.46531" lon="6.05196">
        <ele>1007.3</ele>
        <time>2014-08-17T09:55:05.963Z</time>
      </trkpt>
      <trkpt lat="46.46539" lon="6.05187">
        <ele>1008.6</ele>
        <time>2014-08-17T09:55:10.693Z</time>
      </trkpt>
      <trkpt lat="46.46528" lon="6.05186">
        <ele>1011.6</ele>
        <time>2014-08-17T09:56:43.696Z</time>
      </trkpt>
      <trkpt lat="46.46522" lon="6.05168">
        <ele>1012</ele>
        <time>2014-08-17T09:57:16.045Z</time>
      </trkpt>
      <trkpt lat="46.46525" lon="6.05154">
        <ele>1011.4</ele>
        <time>2014-08-17T09:57:21.697Z</time>
      </trkpt>
      <trkpt lat="46.46526" lon="6.05137">
        <ele>1010.1</ele>
        <time>2014-08-17T09:58:44.818Z</time>
      </trkpt>
      <trkpt lat="46.46521" lon="6.05125">
        <ele>1008.7</ele>
        <time>2014-08-17T09:58:52.698Z</time>
      </trkpt>
      <trkpt lat="46.46525" lon="6.05092">
        <ele>1006</ele>
        <time>2014-08-17T09:59:24.525Z</time>
      </trkpt>
      <trkpt lat="46.46524" lon="6.05079">
        <ele>1011</ele>
        <time>2014-08-17T09:59:29.778Z</time>
      </trkpt>
      <trkpt lat="46.46516" lon="6.05072">
        <ele>1015.9</ele>
        <time>2014-08-17T09:59:35.331Z</time>
      </trkpt>
      <trkpt lat="46.46509" lon="6.05063">
        <ele>1018.9</ele>
        <time>2014-08-17T09:59:41.500Z</time>
      </trkpt>
      <trkpt lat="46.465" lon="6.05059">
        <ele>1019.5</ele>
        <time>2014-08-17T09:59:48.506Z</time>
      </trkpt>
      <trkpt lat="46.4649" lon="6.05056">
        <ele>1018.6</ele>
        <time>2014-08-17T09:59:56.100Z</time>
      </trkpt>
      <trkpt lat="46.46481" lon="6.05051">
        <ele>1017.1</ele>
        <time>2014-08-17T10:00:01.693Z</time>
      </trkpt>
      <trkpt lat="46.46463" lon="6.05026">
        <ele>1015.2</ele>
        <time>2014-08-17T10:01:24.347Z</time>
      </trkpt>
      <trkpt lat="46.46468" lon="6.05012">
        <ele>1016.4</ele>
        <time>2014-08-17T10:01:32.246Z</time>
      </trkpt>
      <trkpt lat="46.46471" lon="6.04999">
        <ele>1019.3</ele>
        <time>2014-08-17T10:01:39.752Z</time>
      </trkpt>
      <trkpt lat="46.46476" lon="6.04987">
        <ele>1022.8</ele>
        <time>2014-08-17T10:01:46.192Z</time>
      </trkpt>
      <trkpt lat="46.46484" lon="6.04973">
        <ele>1025.6</ele>
        <time>2014-08-17T10:01:53.781Z</time>
      </trkpt>
      <trkpt lat="46.46493" lon="6.04965">
        <ele>1027.9</ele>
        <time>2014-08-17T10:02:00.231Z</time>
      </trkpt>
      <trkpt lat="46.46501" lon="6.04954">
        <ele>1030.3</ele>
        <time>2014-08-17T10:02:07.591Z</time>
      </trkpt>
      <trkpt lat="46.46512" lon="6.04954">
        <ele>1034</ele>
        <time>2014-08-17T10:02:13.452Z</time>
      </trkpt>
      <trkpt lat="46.46521" lon="6.04946">
        <ele>1039.5</ele>
        <time>2014-08-17T10:02:17.764Z</time>
      </trkpt>
      <trkpt lat="46.46536" lon="6.04927">
        <ele>1046.5</ele>
        <time>2014-08-17T10:02:26.077Z</time>
      </trkpt>
      <trkpt lat="46.46545" lon="6.04918">
        <ele>1046.9</ele>
        <time>2014-08-17T10:02:31.430Z</time>
      </trkpt>
      <trkpt lat="46.46554" lon="6.04911">
        <ele>1046.7</ele>
        <time>2014-08-17T10:02:36.803Z</time>
      </trkpt>
      <trkpt lat="46.46578" lon="6.04869">
        <ele>1048.5</ele>
        <time>2014-08-17T10:03:10.700Z</time>
      </trkpt>
      <trkpt lat="46.46588" lon="6.04862">
        <ele>1046</ele>
        <time>2014-08-17T10:04:12.735Z</time>
      </trkpt>
      <trkpt lat="46.46595" lon="6.04856">
        <ele>1046</ele>
        <time>2014-08-17T10:04:17.650Z</time>
      </trkpt>
      <trkpt lat="46.46602" lon="6.04845">
        <ele>1046.5</ele>
        <time>2014-08-17T10:04:22.139Z</time>
      </trkpt>
      <trkpt lat="46.46608" lon="6.04833">
        <ele>1047.8</ele>
        <time>2014-08-17T10:04:26.433Z</time>
      </trkpt>
      <trkpt lat="46.46615" lon="6.04823">
        <ele>1049.4</ele>
        <time>2014-08-17T10:04:30.697Z</time>
      </trkpt>
      <trkpt lat="46.46622" lon="6.04803">
        <ele>1048.8</ele>
        <time>2014-08-17T10:05:05.764Z</time>
      </trkpt>
      <trkpt lat="46.4663" lon="6.0479">
        <ele>1048.8</ele>
        <time>2014-08-17T10:05:10.049Z</time>
      </trkpt>
      <trkpt lat="46.46641" lon="6.04776">
        <ele>1050.4</ele>
        <time>2014-08-17T10:05:13.781Z</time>
      </trkpt>
      <trkpt lat="46.4665" lon="6.04769">
        <ele>1052.5</ele>
        <time>2014-08-17T10:05:16.357Z</time>
      </trkpt>
      <trkpt lat="46.46662" lon="6.04763">
        <ele>1052.6</ele>
        <time>2014-08-17T10:05:19.253Z</time>
      </trkpt>
      <trkpt lat="46.4667" lon="6.04753">
        <ele>1050.4</ele>
        <time>2014-08-17T10:05:21.861Z</time>
      </trkpt>
      <trkpt lat="46.46684" lon="6.0473">
        <ele>1046.7</ele>
        <time>2014-08-17T10:05:27.155Z</time>
      </trkpt>
      <trkpt lat="46.46692" lon="6.0472">
        <ele>1046.9</ele>
        <time>2014-08-17T10:05:30.226Z</time>
      </trkpt>
      <trkpt lat="46.46697" lon="6.04707">
        <ele>1048.4</ele>
        <time>2014-08-17T10:05:33.697Z</time>
      </trkpt>
      <trkpt lat="46.46701" lon="6.04687">
        <ele>1050.2</ele>
        <time>2014-08-17T10:05:46.310Z</time>
      </trkpt>
      <trkpt lat="46.46719" lon="6.04648">
        <ele>1049.1</ele>
        <time>2014-08-17T10:05:57.290Z</time>
      </trkpt>
      <trkpt lat="46.46728" lon="6.04636">
        <ele>1049.6</ele>
        <time>2014-08-17T10:06:01.904Z</time>
      </trkpt>
      <trkpt lat="46.46738" lon="6.04611">
        <ele>1055.2</ele>
        <time>2014-08-17T10:06:09.056Z</time>
      </trkpt>
      <trkpt lat="46.46742" lon="6.04599">
        <ele>1058.4</ele>
        <time>2014-08-17T10:06:12.288Z</time>
      </trkpt>
      <trkpt lat="46.46747" lon="6.04587">
        <ele>1059.3</ele>
        <time>2014-08-17T10:06:15.471Z</time>
      </trkpt>
      <trkpt lat="46.46755" lon="6.04576">
        <ele>1058.6</ele>
        <time>2014-08-17T10:06:19.859Z</time>
      </trkpt>
      <trkpt lat="46.46758" lon="6.04563">
        <ele>1057.8</ele>
        <time>2014-08-17T10:06:24.013Z</time>
      </trkpt>
      <trkpt lat="46.46765" lon="6.0455">
        <ele>1059.2</ele>
        <time>2014-08-17T10:06:31.803Z</time>
      </trkpt>
      <trkpt lat="46.46775" lon="6.04542">
        <ele>1063</ele>
        <time>2014-08-17T10:06:39.805Z</time>
      </trkpt>
      <trkpt lat="46.46782" lon="6.04531">
        <ele>1066.9</ele>
        <time>2014-08-17T10:06:44.756Z</time>
      </trkpt>
      <trkpt lat="46.46786" lon="6.04517">
        <ele>1068</ele>
        <time>2014-08-17T10:06:48.702Z</time>
      </trkpt>
      <trkpt lat="46.46797" lon="6.04491">
        <ele>1064.1</ele>
        <time>2014-08-17T10:07:10.149Z</time>
      </trkpt>
      <trkpt lat="46.46804" lon="6.04481">
        <ele>1065.3</ele>
        <time>2014-08-17T10:07:15.881Z</time>
      </trkpt>
      <trkpt lat="46.46808" lon="6.04469">
        <ele>1066.6</ele>
        <time>2014-08-17T10:07:22.887Z</time>
      </trkpt>
      <trkpt lat="46.46809" lon="6.04455">
        <ele>1067.6</ele>
        <time>2014-08-17T10:07:30.278Z</time>
      </trkpt>
      <trkpt lat="46.46792" lon="6.04442">
        <ele>1071.4</ele>
        <time>2014-08-17T10:07:43.426Z</time>
      </trkpt>
      <trkpt lat="46.46784" lon="6.04434">
        <ele>1073.7</ele>
        <time>2014-08-17T10:07:49.698Z</time>
      </trkpt>
      <trkpt lat="46.46767" lon="6.04426">
        <ele>1073.3</ele>
        <time>2014-08-17T10:08:13.222Z</time>
      </trkpt>
      <trkpt lat="46.46756" lon="6.04428">
        <ele>1073.1</ele>
        <time>2014-08-17T10:08:21.604Z</time>
      </trkpt>
      <trkpt lat="46.46746" lon="6.04428">
        <ele>1074.3</ele>
        <time>2014-08-17T10:08:29.705Z</time>
      </trkpt>
      <trkpt lat="46.46727" lon="6.04422">
        <ele>1079.3</ele>
        <time>2014-08-17T10:08:42.275Z</time>
      </trkpt>
      <trkpt lat="46.46718" lon="6.0442">
        <ele>1080.3</ele>
        <time>2014-08-17T10:08:45.914Z</time>
      </trkpt>
      <trkpt lat="46.46707" lon="6.04419">
        <ele>1080.3</ele>
        <time>2014-08-17T10:08:49.382Z</time>
      </trkpt>
      <trkpt lat="46.46696" lon="6.0442">
        <ele>1080.1</ele>
        <time>2014-08-17T10:08:52.809Z</time>
      </trkpt>
      <trkpt lat="46.46688" lon="6.04415">
        <ele>1080.4</ele>
        <time>2014-08-17T10:08:55.703Z</time>
      </trkpt>
      <trkpt lat="46.46692" lon="6.04389">
        <ele>1080.3</ele>
        <time>2014-08-17T10:09:15.101Z</time>
      </trkpt>
      <trkpt lat="46.46696" lon="6.04377">
        <ele>1081.1</ele>
        <time>2014-08-17T10:09:22.160Z</time>
      </trkpt>
      <trkpt lat="46.46704" lon="6.04336">
        <ele>1089.1</ele>
        <time>2014-08-17T10:09:41.676Z</time>
      </trkpt>
      <trkpt lat="46.46711" lon="6.04326">
        <ele>1088.9</ele>
        <time>2014-08-17T10:09:47.469Z</time>
      </trkpt>
      <trkpt lat="46.46716" lon="6.04313">
        <ele>1088.6</ele>
        <time>2014-08-17T10:09:53.028Z</time>
      </trkpt>
      <trkpt lat="46.46711" lon="6.04256">
        <ele>1088.5</ele>
        <time>2014-08-17T10:10:13.079Z</time>
      </trkpt>
      <trkpt lat="46.46702" lon="6.04251">
        <ele>1088.4</ele>
        <time>2014-08-17T10:10:18.058Z</time>
      </trkpt>
      <trkpt lat="46.467" lon="6.04237">
        <ele>1089</ele>
        <time>2014-08-17T10:10:23.331Z</time>
      </trkpt>
      <trkpt lat="46.46702" lon="6.04222">
        <ele>1090.6</ele>
        <time>2014-08-17T10:10:28.703Z</time>
      </trkpt>
      <trkpt lat="46.46688" lon="6.0419">
        <ele>1092.4</ele>
        <time>2014-08-17T10:12:28.810Z</time>
      </trkpt>
      <trkpt lat="46.46681" lon="6.04178">
        <ele>1091.8</ele>
        <time>2014-08-17T10:12:33.953Z</time>
      </trkpt>
      <trkpt lat="46.46666" lon="6.04143">
        <ele>1092.4</ele>
        <time>2014-08-17T10:12:42.519Z</time>
      </trkpt>
      <trkpt lat="46.46656" lon="6.04127">
        <ele>1092</ele>
        <time>2014-08-17T10:12:45.416Z</time>
      </trkpt>
      <trkpt lat="46.46618" lon="6.04075">
        <ele>1094.4</ele>
        <time>2014-08-17T10:12:56.086Z</time>
      </trkpt>
      <trkpt lat="46.4661" lon="6.04066">
        <ele>1095.2</ele>
        <time>2014-08-17T10:12:58.698Z</time>
      </trkpt>
      <trkpt lat="46.46562" lon="6.03998">
        <ele>1099.4</ele>
        <time>2014-08-17T10:13:22.279Z</time>
      </trkpt>
      <trkpt lat="46.46548" lon="6.0397">
        <ele>1098.7</ele>
        <time>2014-08-17T10:13:25.203Z</time>
      </trkpt>
      <trkpt lat="46.46544" lon="6.03947">
        <ele>1097.5</ele>
        <time>2014-08-17T10:13:27.384Z</time>
      </trkpt>
      <trkpt lat="46.46541" lon="6.03917">
        <ele>1096.1</ele>
        <time>2014-08-17T10:13:30.839Z</time>
      </trkpt>
      <trkpt lat="46.46542" lon="6.03854">
        <ele>1094.1</ele>
        <time>2014-08-17T10:13:39.841Z</time>
      </trkpt>
      <trkpt lat="46.46539" lon="6.03836">
        <ele>1093</ele>
        <time>2014-08-17T10:13:42.655Z</time>
      </trkpt>
      <trkpt lat="46.46475" lon="6.0369">
        <ele>1093.9</ele>
        <time>2014-08-17T10:14:05.217Z</time>
      </trkpt>
      <trkpt lat="46.46457" lon="6.03663">
        <ele>1093.4</ele>
        <time>2014-08-17T10:14:09.995Z</time>
      </trkpt>
      <trkpt lat="46.46447" lon="6.03642">
        <ele>1093.4</ele>
        <time>2014-08-17T10:14:13.229Z</time>
      </trkpt>
      <trkpt lat="46.46437" lon="6.03627">
        <ele>1093.4</ele>
        <time>2014-08-17T10:14:16.091Z</time>
      </trkpt>
      <trkpt lat="46.46429" lon="6.03621">
        <ele>1094.1</ele>
        <time>2014-08-17T10:14:18.171Z</time>
      </trkpt>
      <trkpt lat="46.46421" lon="6.03606">
        <ele>1095.4</ele>
        <time>2014-08-17T10:14:21.275Z</time>
      </trkpt>
      <trkpt lat="46.46408" lon="6.03565">
        <ele>1098.8</ele>
        <time>2014-08-17T10:14:31.341Z</time>
      </trkpt>
      <trkpt lat="46.46405" lon="6.03549">
        <ele>1099.9</ele>
        <time>2014-08-17T10:14:35.452Z</time>
      </trkpt>
      <trkpt lat="46.46405" lon="6.0352">
        <ele>1101.8</ele>
        <time>2014-08-17T10:14:43.990Z</time>
      </trkpt>
      <trkpt lat="46.46411" lon="6.03477">
        <ele>1104.5</ele>
        <time>2014-08-17T10:14:58.254Z</time>
      </trkpt>
      <trkpt lat="46.46412" lon="6.03463">
        <ele>1104.4</ele>
        <time>2014-08-17T10:15:02.935Z</time>
      </trkpt>
      <trkpt lat="46.46408" lon="6.03449">
        <ele>1104.2</ele>
        <time>2014-08-17T10:15:08.662Z</time>
      </trkpt>
      <trkpt lat="46.46403" lon="6.03407">
        <ele>1105.2</ele>
        <time>2014-08-17T10:15:26.369Z</time>
      </trkpt>
      <trkpt lat="46.46391" lon="6.03384">
        <ele>1108.1</ele>
        <time>2014-08-17T10:15:39.603Z</time>
      </trkpt>
      <trkpt lat="46.46385" lon="6.03374">
        <ele>1111.1</ele>
        <time>2014-08-17T10:15:44.643Z</time>
      </trkpt>
      <trkpt lat="46.46375" lon="6.03366">
        <ele>1113</ele>
        <time>2014-08-17T10:15:49.923Z</time>
      </trkpt>
      <trkpt lat="46.46355" lon="6.03354">
        <ele>1112.1</ele>
        <time>2014-08-17T10:15:58.254Z</time>
      </trkpt>
      <trkpt lat="46.46348" lon="6.03347">
        <ele>1111.6</ele>
        <time>2014-08-17T10:16:01.317Z</time>
      </trkpt>
      <trkpt lat="46.46333" lon="6.03329">
        <ele>1111.8</ele>
        <time>2014-08-17T10:16:07.456Z</time>
      </trkpt>
      <trkpt lat="46.46317" lon="6.03285">
        <ele>1111.7</ele>
        <time>2014-08-17T10:16:18.537Z</time>
      </trkpt>
      <trkpt lat="46.46311" lon="6.03272">
        <ele>1110.1</ele>
        <time>2014-08-17T10:16:22.303Z</time>
      </trkpt>
      <trkpt lat="46.46303" lon="6.03261">
        <ele>1108.9</ele>
        <time>2014-08-17T10:16:26.167Z</time>
      </trkpt>
      <trkpt lat="46.46296" lon="6.03253">
        <ele>1109.7</ele>
        <time>2014-08-17T10:16:29.333Z</time>
      </trkpt>
      <trkpt lat="46.46292" lon="6.0324">
        <ele>1112.5</ele>
        <time>2014-08-17T10:16:32.558Z</time>
      </trkpt>
      <trkpt lat="46.46287" lon="6.03228">
        <ele>1115.5</ele>
        <time>2014-08-17T10:16:36.023Z</time>
      </trkpt>
      <trkpt lat="46.4628" lon="6.03216">
        <ele>1117.2</ele>
        <time>2014-08-17T10:16:39.480Z</time>
      </trkpt>
      <trkpt lat="46.46275" lon="6.03204">
        <ele>1117.6</ele>
        <time>2014-08-17T10:16:42.894Z</time>
      </trkpt>
      <trkpt lat="46.46271" lon="6.0319">
        <ele>1117.3</ele>
        <time>2014-08-17T10:16:46.249Z</time>
      </trkpt>
      <trkpt lat="46.46223" lon="6.03104">
        <ele>1119.4</ele>
        <time>2014-08-17T10:17:07.710Z</time>
      </trkpt>
      <trkpt lat="46.46217" lon="6.03073">
        <ele>1118.4</ele>
        <time>2014-08-17T10:17:31.861Z</time>
      </trkpt>
      <trkpt lat="46.46212" lon="6.03059">
        <ele>1117.9</ele>
        <time>2014-08-17T10:17:36.117Z</time>
      </trkpt>
      <trkpt lat="46.46199" lon="6.03036">
        <ele>1115.8</ele>
        <time>2014-08-17T10:17:43.904Z</time>
      </trkpt>
      <trkpt lat="46.46188" lon="6.03026">
        <ele>1113.5</ele>
        <time>2014-08-17T10:17:47.591Z</time>
      </trkpt>
      <trkpt lat="46.46181" lon="6.03015">
        <ele>1112.1</ele>
        <time>2014-08-17T10:17:50.030Z</time>
      </trkpt>
      <trkpt lat="46.46174" lon="6.03006">
        <ele>1113</ele>
        <time>2014-08-17T10:17:52.233Z</time>
      </trkpt>
      <trkpt lat="46.46165" lon="6.03001">
        <ele>1114.3</ele>
        <time>2014-08-17T10:17:54.547Z</time>
      </trkpt>
      <trkpt lat="46.46156" lon="6.02992">
        <ele>1114.6</ele>
        <time>2014-08-17T10:17:57.841Z</time>
      </trkpt>
      <trkpt lat="46.46151" lon="6.02979">
        <ele>1114.3</ele>
        <time>2014-08-17T10:18:01.528Z</time>
      </trkpt>
      <trkpt lat="46.46144" lon="6.02969">
        <ele>1114.6</ele>
        <time>2014-08-17T10:18:04.845Z</time>
      </trkpt>
      <trkpt lat="46.4613" lon="6.02967">
        <ele>1116.5</ele>
        <time>2014-08-17T10:18:09.280Z</time>
      </trkpt>
      <trkpt lat="46.46076" lon="6.02943">
        <ele>1118</ele>
        <time>2014-08-17T10:18:27.531Z</time>
      </trkpt>
      <trkpt lat="46.46066" lon="6.02936">
        <ele>1117.9</ele>
        <time>2014-08-17T10:18:31.007Z</time>
      </trkpt>
      <trkpt lat="46.46058" lon="6.02926">
        <ele>1118.7</ele>
        <time>2014-08-17T10:18:33.897Z</time>
      </trkpt>
      <trkpt lat="46.46049" lon="6.02916">
        <ele>1120.7</ele>
        <time>2014-08-17T10:18:37.250Z</time>
      </trkpt>
      <trkpt lat="46.46042" lon="6.02907">
        <ele>1123.6</ele>
        <time>2014-08-17T10:18:39.730Z</time>
      </trkpt>
      <trkpt lat="46.46011" lon="6.02879">
        <ele>1121.6</ele>
        <time>2014-08-17T10:18:48.547Z</time>
      </trkpt>
      <trkpt lat="46.4596" lon="6.02847">
        <ele>1115</ele>
        <time>2014-08-17T10:19:02.465Z</time>
      </trkpt>
      <trkpt lat="46.45952" lon="6.02835">
        <ele>1115.7</ele>
        <time>2014-08-17T10:19:05.526Z</time>
      </trkpt>
      <trkpt lat="46.45936" lon="6.02794">
        <ele>1118.3</ele>
        <time>2014-08-17T10:19:15.086Z</time>
      </trkpt>
      <trkpt lat="46.45923" lon="6.02771">
        <ele>1117.9</ele>
        <time>2014-08-17T10:19:21.323Z</time>
      </trkpt>
      <trkpt lat="46.45892" lon="6.02735">
        <ele>1117.6</ele>
        <time>2014-08-17T10:19:31.718Z</time>
      </trkpt>
      <trkpt lat="46.45884" lon="6.02727">
        <ele>1117.5</ele>
        <time>2014-08-17T10:19:33.797Z</time>
      </trkpt>
      <trkpt lat="46.45813" lon="6.02612">
        <ele>1115.3</ele>
        <time>2014-08-17T10:20:01.530Z</time>
      </trkpt>
      <trkpt lat="46.45806" lon="6.02604">
        <ele>1116.1</ele>
        <time>2014-08-17T10:20:04.208Z</time>
      </trkpt>
      <trkpt lat="46.45798" lon="6.02596">
        <ele>1116.7</ele>
        <time>2014-08-17T10:20:06.957Z</time>
      </trkpt>
      <trkpt lat="46.45789" lon="6.02589">
        <ele>1117.1</ele>
        <time>2014-08-17T10:20:09.897Z</time>
      </trkpt>
      <trkpt lat="46.45778" lon="6.02585">
        <ele>1117.6</ele>
        <time>2014-08-17T10:20:13.258Z</time>
      </trkpt>
      <trkpt lat="46.45738" lon="6.02574">
        <ele>1122.5</ele>
        <time>2014-08-17T10:20:26.674Z</time>
      </trkpt>
      <trkpt lat="46.45719" lon="6.02563">
        <ele>1122.1</ele>
        <time>2014-08-17T10:20:33.675Z</time>
      </trkpt>
      <trkpt lat="46.4571" lon="6.02557">
        <ele>1121.8</ele>
        <time>2014-08-17T10:20:37.074Z</time>
      </trkpt>
      <trkpt lat="46.45701" lon="6.02548">
        <ele>1121.8</ele>
        <time>2014-08-17T10:20:40.778Z</time>
      </trkpt>
      <trkpt lat="46.45693" lon="6.02542">
        <ele>1122.1</ele>
        <time>2014-08-17T10:20:43.711Z</time>
      </trkpt>
      <trkpt lat="46.45661" lon="6.02529">
        <ele>1121.6</ele>
        <time>2014-08-17T10:20:57.721Z</time>
      </trkpt>
      <trkpt lat="46.4565" lon="6.02521">
        <ele>1122.3</ele>
        <time>2014-08-17T10:21:01.168Z</time>
      </trkpt>
      <trkpt lat="46.45631" lon="6.02513">
        <ele>1126.5</ele>
        <time>2014-08-17T10:21:07.336Z</time>
      </trkpt>
      <trkpt lat="46.45623" lon="6.02507">
        <ele>1129</ele>
        <time>2014-08-17T10:21:10.074Z</time>
      </trkpt>
      <trkpt lat="46.45544" lon="6.02433">
        <ele>1128.4</ele>
        <time>2014-08-17T10:21:49.685Z</time>
      </trkpt>
      <trkpt lat="46.45537" lon="6.02423">
        <ele>1129</ele>
        <time>2014-08-17T10:21:53.402Z</time>
      </trkpt>
      <trkpt lat="46.45503" lon="6.02391">
        <ele>1127.9</ele>
        <time>2014-08-17T10:22:09.492Z</time>
      </trkpt>
      <trkpt lat="46.45497" lon="6.02378">
        <ele>1128.7</ele>
        <time>2014-08-17T10:22:14.138Z</time>
      </trkpt>
      <trkpt lat="46.45488" lon="6.0237">
        <ele>1130.4</ele>
        <time>2014-08-17T10:22:18.288Z</time>
      </trkpt>
      <trkpt lat="46.45479" lon="6.0236">
        <ele>1132</ele>
        <time>2014-08-17T10:22:22.361Z</time>
      </trkpt>
      <trkpt lat="46.45472" lon="6.02331">
        <ele>1133.8</ele>
        <time>2014-08-17T10:22:30.279Z</time>
      </trkpt>
      <trkpt lat="46.45457" lon="6.02313">
        <ele>1135.6</ele>
        <time>2014-08-17T10:22:38.486Z</time>
      </trkpt>
      <trkpt lat="46.45448" lon="6.02306">
        <ele>1136.7</ele>
        <time>2014-08-17T10:22:43.707Z</time>
      </trkpt>
      <trkpt lat="46.45421" lon="6.02292">
        <ele>1137.7</ele>
        <time>2014-08-17T10:23:01.061Z</time>
      </trkpt>
      <trkpt lat="46.45412" lon="6.02285">
        <ele>1137.9</ele>
        <time>2014-08-17T10:23:05.498Z</time>
      </trkpt>
      <trkpt lat="46.45403" lon="6.02281">
        <ele>1139.1</ele>
        <time>2014-08-17T10:23:09.363Z</time>
      </trkpt>
      <trkpt lat="46.45393" lon="6.02281">
        <ele>1140.5</ele>
        <time>2014-08-17T10:23:13.707Z</time>
      </trkpt>
      <trkpt lat="46.4535" lon="6.02351">
        <ele>1140.4</ele>
        <time>2014-08-17T10:24:15.102Z</time>
      </trkpt>
      <trkpt lat="46.45318" lon="6.02391">
        <ele>1136.9</ele>
        <time>2014-08-17T10:24:40.234Z</time>
      </trkpt>
      <trkpt lat="46.45315" lon="6.02406">
        <ele>1137.8</ele>
        <time>2014-08-17T10:24:45.842Z</time>
      </trkpt>
      <trkpt lat="46.45314" lon="6.02421">
        <ele>1140.3</ele>
        <time>2014-08-17T10:24:51.423Z</time>
      </trkpt>
      <trkpt lat="46.45317" lon="6.02451">
        <ele>1144.9</ele>
        <time>2014-08-17T10:25:02.140Z</time>
      </trkpt>
      <trkpt lat="46.4532" lon="6.02464">
        <ele>1147.5</ele>
        <time>2014-08-17T10:25:07.006Z</time>
      </trkpt>
      <trkpt lat="46.4532" lon="6.02491">
        <ele>1153.6</ele>
        <time>2014-08-17T10:25:17.484Z</time>
      </trkpt>
      <trkpt lat="46.45293" lon="6.02571">
        <ele>1169.4</ele>
        <time>2014-08-17T10:26:00.649Z</time>
      </trkpt>
      <trkpt lat="46.45292" lon="6.02585">
        <ele>1170.9</ele>
        <time>2014-08-17T10:26:07.100Z</time>
      </trkpt>
      <trkpt lat="46.4527" lon="6.02618">
        <ele>1172.2</ele>
        <time>2014-08-17T10:26:17.969Z</time>
      </trkpt>
      <trkpt lat="46.45262" lon="6.02627">
        <ele>1172.3</ele>
        <time>2014-08-17T10:26:21.389Z</time>
      </trkpt>
      <trkpt lat="46.45255" lon="6.02639">
        <ele>1172.9</ele>
        <time>2014-08-17T10:26:26.008Z</time>
      </trkpt>
      <trkpt lat="46.45252" lon="6.02653">
        <ele>1174.2</ele>
        <time>2014-08-17T10:26:31.017Z</time>
      </trkpt>
      <trkpt lat="46.45242" lon="6.02677">
        <ele>1180.5</ele>
        <time>2014-08-17T10:26:41.831Z</time>
      </trkpt>
      <trkpt lat="46.45233" lon="6.02685">
        <ele>1184.5</ele>
        <time>2014-08-17T10:26:45.799Z</time>
      </trkpt>
      <trkpt lat="46.4521" lon="6.02715">
        <ele>1188.7</ele>
        <time>2014-08-17T10:26:56.462Z</time>
      </trkpt>
      <trkpt lat="46.45206" lon="6.02729">
        <ele>1184.5</ele>
        <time>2014-08-17T10:27:00.969Z</time>
      </trkpt>
      <trkpt lat="46.45197" lon="6.02742">
        <ele>1180.4</ele>
        <time>2014-08-17T10:27:06.495Z</time>
      </trkpt>
      <trkpt lat="46.45188" lon="6.02749">
        <ele>1177.4</ele>
        <time>2014-08-17T10:27:10.705Z</time>
      </trkpt>
      <trkpt lat="46.45171" lon="6.02779">
        <ele>1174.3</ele>
        <time>2014-08-17T10:27:30.753Z</time>
      </trkpt>
      <trkpt lat="46.45169" lon="6.02792">
        <ele>1178</ele>
        <time>2014-08-17T10:27:34.709Z</time>
      </trkpt>
      <trkpt lat="46.45155" lon="6.02771">
        <ele>1193.1</ele>
        <time>2014-08-17T10:28:03.668Z</time>
      </trkpt>
      <trkpt lat="46.45156" lon="6.02729">
        <ele>1189.9</ele>
        <time>2014-08-17T10:28:19.066Z</time>
      </trkpt>
      <trkpt lat="46.45157" lon="6.02715">
        <ele>1190.1</ele>
        <time>2014-08-17T10:28:23.341Z</time>
      </trkpt>
      <trkpt lat="46.45175" lon="6.02637">
        <ele>1187.8</ele>
        <time>2014-08-17T10:28:39.553Z</time>
      </trkpt>
      <trkpt lat="46.45175" lon="6.02621">
        <ele>1189.2</ele>
        <time>2014-08-17T10:28:42.907Z</time>
      </trkpt>
      <trkpt lat="46.45174" lon="6.02607">
        <ele>1191.3</ele>
        <time>2014-08-17T10:28:46.989Z</time>
      </trkpt>
      <trkpt lat="46.45161" lon="6.02584">
        <ele>1195.8</ele>
        <time>2014-08-17T10:28:57.101Z</time>
      </trkpt>
      <trkpt lat="46.45137" lon="6.02517">
        <ele>1213.2</ele>
        <time>2014-08-17T10:29:29.636Z</time>
      </trkpt>
      <trkpt lat="46.45131" lon="6.02353">
        <ele>1205.5</ele>
        <time>2014-08-17T10:30:10.660Z</time>
      </trkpt>
      <trkpt lat="46.45127" lon="6.02303">
        <ele>1204.1</ele>
        <time>2014-08-17T10:30:21.670Z</time>
      </trkpt>
      <trkpt lat="46.45131" lon="6.02273">
        <ele>1208.4</ele>
        <time>2014-08-17T10:30:28.566Z</time>
      </trkpt>
      <trkpt lat="46.45129" lon="6.02245">
        <ele>1208.9</ele>
        <time>2014-08-17T10:30:35.914Z</time>
      </trkpt>
      <trkpt lat="46.45122" lon="6.02203">
        <ele>1208</ele>
        <time>2014-08-17T10:30:54.499Z</time>
      </trkpt>
      <trkpt lat="46.45119" lon="6.02149">
        <ele>1217.3</ele>
        <time>2014-08-17T10:31:12.993Z</time>
      </trkpt>
      <trkpt lat="46.45115" lon="6.02136">
        <ele>1218.2</ele>
        <time>2014-08-17T10:31:18.054Z</time>
      </trkpt>
      <trkpt lat="46.45113" lon="6.02121">
        <ele>1220</ele>
        <time>2014-08-17T10:31:23.486Z</time>
      </trkpt>
      <trkpt lat="46.45109" lon="6.02108">
        <ele>1224</ele>
        <time>2014-08-17T10:31:29.707Z</time>
      </trkpt>
      <trkpt lat="46.45096" lon="6.02088">
        <ele>1229.9</ele>
        <time>2014-08-17T10:31:51.726Z</time>
      </trkpt>
      <trkpt lat="46.45093" lon="6.02075">
        <ele>1229.2</ele>
        <time>2014-08-17T10:31:55.710Z</time>
      </trkpt>
      <trkpt lat="46.45104" lon="6.02066">
        <ele>1231.5</ele>
        <time>2014-08-17T10:33:45.034Z</time>
      </trkpt>
      <trkpt lat="46.4509" lon="6.02066">
        <ele>1231.2</ele>
        <time>2014-08-17T10:34:13.949Z</time>
      </trkpt>
      <trkpt lat="46.4508" lon="6.02063">
        <ele>1233.5</ele>
        <time>2014-08-17T10:34:16.710Z</time>
      </trkpt>
      <trkpt lat="46.45019" lon="6.0202">
        <ele>1249.8</ele>
        <time>2014-08-17T10:35:04.836Z</time>
      </trkpt>
      <trkpt lat="46.44982" lon="6.01975">
        <ele>1268.1</ele>
        <time>2014-08-17T10:35:29.945Z</time>
      </trkpt>
      <trkpt lat="46.44972" lon="6.01969">
        <ele>1272.6</ele>
        <time>2014-08-17T10:35:34.274Z</time>
      </trkpt>
      <trkpt lat="46.44964" lon="6.01963">
        <ele>1275.1</ele>
        <time>2014-08-17T10:35:38.179Z</time>
      </trkpt>
      <trkpt lat="46.4496" lon="6.01951">
        <ele>1274.5</ele>
        <time>2014-08-17T10:35:42.301Z</time>
      </trkpt>
      <trkpt lat="46.44952" lon="6.01943">
        <ele>1271.4</ele>
        <time>2014-08-17T10:35:46.708Z</time>
      </trkpt>
      <trkpt lat="46.44935" lon="6.01917">
        <ele>1264.9</ele>
        <time>2014-08-17T10:36:11.621Z</time>
      </trkpt>
      <trkpt lat="46.4493" lon="6.01904">
        <ele>1264.5</ele>
        <time>2014-08-17T10:36:18.845Z</time>
      </trkpt>
      <trkpt lat="46.44914" lon="6.01888">
        <ele>1259.4</ele>
        <time>2014-08-17T10:36:29.299Z</time>
      </trkpt>
      <trkpt lat="46.44901" lon="6.01867">
        <ele>1258.9</ele>
        <time>2014-08-17T10:36:38.852Z</time>
      </trkpt>
      <trkpt lat="46.44893" lon="6.01861">
        <ele>1261.9</ele>
        <time>2014-08-17T10:36:42.738Z</time>
      </trkpt>
      <trkpt lat="46.44885" lon="6.01851">
        <ele>1266.4</ele>
        <time>2014-08-17T10:36:45.885Z</time>
      </trkpt>
      <trkpt lat="46.44876" lon="6.01844">
        <ele>1271</ele>
        <time>2014-08-17T10:36:48.805Z</time>
      </trkpt>
      <trkpt lat="46.44866" lon="6.0184">
        <ele>1275.2</ele>
        <time>2014-08-17T10:36:51.528Z</time>
      </trkpt>
      <trkpt lat="46.44858" lon="6.01835">
        <ele>1279.9</ele>
        <time>2014-08-17T10:36:53.895Z</time>
      </trkpt>
      <trkpt lat="46.44849" lon="6.01827">
        <ele>1284.6</ele>
        <time>2014-08-17T10:36:56.744Z</time>
      </trkpt>
      <trkpt lat="46.44839" lon="6.01815">
        <ele>1288</ele>
        <time>2014-08-17T10:37:00.067Z</time>
      </trkpt>
      <trkpt lat="46.44823" lon="6.01781">
        <ele>1284.6</ele>
        <time>2014-08-17T10:37:09.222Z</time>
      </trkpt>
      <trkpt lat="46.44815" lon="6.01751">
        <ele>1284.3</ele>
        <time>2014-08-17T10:37:16.234Z</time>
      </trkpt>
      <trkpt lat="46.44809" lon="6.01707">
        <ele>1283.3</ele>
        <time>2014-08-17T10:37:26.372Z</time>
      </trkpt>
      <trkpt lat="46.44798" lon="6.01677">
        <ele>1273.9</ele>
        <time>2014-08-17T10:37:36.721Z</time>
      </trkpt>
      <trkpt lat="46.4477" lon="6.01627">
        <ele>1269.8</ele>
        <time>2014-08-17T10:37:58.811Z</time>
      </trkpt>
      <trkpt lat="46.44751" lon="6.01606">
        <ele>1266.7</ele>
        <time>2014-08-17T10:38:12.053Z</time>
      </trkpt>
      <trkpt lat="46.44728" lon="6.01555">
        <ele>1290.3</ele>
        <time>2014-08-17T10:38:29.027Z</time>
      </trkpt>
      <trkpt lat="46.44723" lon="6.01544">
        <ele>1292.8</ele>
        <time>2014-08-17T10:38:32.492Z</time>
      </trkpt>
      <trkpt lat="46.44717" lon="6.01533">
        <ele>1292.7</ele>
        <time>2014-08-17T10:38:35.920Z</time>
      </trkpt>
      <trkpt lat="46.44685" lon="6.01455">
        <ele>1276.9</ele>
        <time>2014-08-17T10:38:52.606Z</time>
      </trkpt>
      <trkpt lat="46.44681" lon="6.0141">
        <ele>1269.9</ele>
        <time>2014-08-17T10:39:00.716Z</time>
      </trkpt>
      <trkpt lat="46.44682" lon="6.01389">
        <ele>1268.1</ele>
        <time>2014-08-17T10:39:08.684Z</time>
      </trkpt>
      <trkpt lat="46.4467" lon="6.01262">
        <ele>1273.1</ele>
        <time>2014-08-17T10:39:41.948Z</time>
      </trkpt>
      <trkpt lat="46.44667" lon="6.01246">
        <ele>1274.7</ele>
        <time>2014-08-17T10:39:45.450Z</time>
      </trkpt>
      <trkpt lat="46.4466" lon="6.01232">
        <ele>1275.9</ele>
        <time>2014-08-17T10:39:49.065Z</time>
      </trkpt>
      <trkpt lat="46.44644" lon="6.01208">
        <ele>1272.4</ele>
        <time>2014-08-17T10:39:56.201Z</time>
      </trkpt>
      <trkpt lat="46.44587" lon="6.01151">
        <ele>1269.9</ele>
        <time>2014-08-17T10:40:16.611Z</time>
      </trkpt>
      <trkpt lat="46.44581" lon="6.01142">
        <ele>1271.3</ele>
        <time>2014-08-17T10:40:19.737Z</time>
      </trkpt>
      <trkpt lat="46.44572" lon="6.01134">
        <ele>1274.1</ele>
        <time>2014-08-17T10:40:23.185Z</time>
      </trkpt>
      <trkpt lat="46.44556" lon="6.01114">
        <ele>1283.1</ele>
        <time>2014-08-17T10:40:30.742Z</time>
      </trkpt>
      <trkpt lat="46.44535" lon="6.01095">
        <ele>1284.5</ele>
        <time>2014-08-17T10:40:43.098Z</time>
      </trkpt>
      <trkpt lat="46.44479" lon="6.01034">
        <ele>1288.8</ele>
        <time>2014-08-17T10:41:12.742Z</time>
      </trkpt>
      <trkpt lat="46.4447" lon="6.01027">
        <ele>1292</ele>
        <time>2014-08-17T10:41:17.108Z</time>
      </trkpt>
      <trkpt lat="46.44461" lon="6.01018">
        <ele>1296</ele>
        <time>2014-08-17T10:41:21.729Z</time>
      </trkpt>
      <trkpt lat="46.44365" lon="6.00949">
        <ele>1277.7</ele>
        <time>2014-08-17T10:41:47.445Z</time>
      </trkpt>
      <trkpt lat="46.44354" lon="6.00943">
        <ele>1276.9</ele>
        <time>2014-08-17T10:41:49.255Z</time>
      </trkpt>
      <trkpt lat="46.44343" lon="6.00935">
        <ele>1275.8</ele>
        <time>2014-08-17T10:41:51.511Z</time>
      </trkpt>
      <trkpt lat="46.44313" lon="6.009">
        <ele>1271.3</ele>
        <time>2014-08-17T10:41:58.172Z</time>
      </trkpt>
      <trkpt lat="46.44288" lon="6.00851">
        <ele>1282.4</ele>
        <time>2014-08-17T10:42:07.545Z</time>
      </trkpt>
      <trkpt lat="46.44278" lon="6.00807">
        <ele>1287.1</ele>
        <time>2014-08-17T10:42:13.944Z</time>
      </trkpt>
      <trkpt lat="46.44275" lon="6.00789">
        <ele>1292.7</ele>
        <time>2014-08-17T10:42:16.686Z</time>
      </trkpt>
      <trkpt lat="46.4427" lon="6.00771">
        <ele>1295.9</ele>
        <time>2014-08-17T10:42:19.753Z</time>
      </trkpt>
      <trkpt lat="46.44261" lon="6.00757">
        <ele>1294.6</ele>
        <time>2014-08-17T10:42:22.917Z</time>
      </trkpt>
      <trkpt lat="46.4425" lon="6.00744">
        <ele>1289.1</ele>
        <time>2014-08-17T10:42:26.309Z</time>
      </trkpt>
      <trkpt lat="46.4424" lon="6.00735">
        <ele>1282.8</ele>
        <time>2014-08-17T10:42:29.253Z</time>
      </trkpt>
      <trkpt lat="46.44231" lon="6.00725">
        <ele>1277.2</ele>
        <time>2014-08-17T10:42:32.116Z</time>
      </trkpt>
      <trkpt lat="46.4422" lon="6.00715">
        <ele>1277.1</ele>
        <time>2014-08-17T10:42:35.398Z</time>
      </trkpt>
      <trkpt lat="46.44211" lon="6.00703">
        <ele>1277.6</ele>
        <time>2014-08-17T10:42:38.542Z</time>
      </trkpt>
      <trkpt lat="46.44195" lon="6.00665">
        <ele>1278.5</ele>
        <time>2014-08-17T10:42:48.277Z</time>
      </trkpt>
      <trkpt lat="46.44188" lon="6.00652">
        <ele>1278.8</ele>
        <time>2014-08-17T10:42:52.509Z</time>
      </trkpt>
      <trkpt lat="46.44176" lon="6.0062">
        <ele>1279.8</ele>
        <time>2014-08-17T10:42:59.786Z</time>
      </trkpt>
      <trkpt lat="46.44151" lon="6.00524">
        <ele>1281.4</ele>
        <time>2014-08-17T10:43:09.241Z</time>
      </trkpt>
      <trkpt lat="46.44144" lon="6.00503">
        <ele>1279.7</ele>
        <time>2014-08-17T10:43:11.203Z</time>
      </trkpt>
      <trkpt lat="46.44131" lon="6.00475">
        <ele>1278.6</ele>
        <time>2014-08-17T10:43:14.203Z</time>
      </trkpt>
      <trkpt lat="46.4411" lon="6.00445">
        <ele>1279.2</ele>
        <time>2014-08-17T10:43:18.690Z</time>
      </trkpt>
      <trkpt lat="46.4408" lon="6.0039">
        <ele>1286.9</ele>
        <time>2014-08-17T10:43:29.955Z</time>
      </trkpt>
      <trkpt lat="46.44031" lon="6.00335">
        <ele>1271.5</ele>
        <time>2014-08-17T10:43:53.202Z</time>
      </trkpt>
      <trkpt lat="46.44024" lon="6.00325">
        <ele>1272.3</ele>
        <time>2014-08-17T10:43:58.588Z</time>
      </trkpt>
      <trkpt lat="46.44019" lon="6.00313">
        <ele>1274</ele>
        <time>2014-08-17T10:44:03.347Z</time>
      </trkpt>
      <trkpt lat="46.44012" lon="6.00303">
        <ele>1275.7</ele>
        <time>2014-08-17T10:44:06.940Z</time>
      </trkpt>
      <trkpt lat="46.43949" lon="6.00248">
        <ele>1278.3</ele>
        <time>2014-08-17T10:44:29.544Z</time>
      </trkpt>
      <trkpt lat="46.43917" lon="6.00208">
        <ele>1281.4</ele>
        <time>2014-08-17T10:44:42.879Z</time>
      </trkpt>
      <trkpt lat="46.43907" lon="6.002">
        <ele>1283.2</ele>
        <time>2014-08-17T10:44:45.850Z</time>
      </trkpt>
      <trkpt lat="46.43885" lon="6.00172">
        <ele>1283.4</ele>
        <time>2014-08-17T10:44:53.889Z</time>
      </trkpt>
      <trkpt lat="46.43878" lon="6.00159">
        <ele>1284</ele>
        <time>2014-08-17T10:44:57.282Z</time>
      </trkpt>
      <trkpt lat="46.43798" lon="6.0008">
        <ele>1284.4</ele>
        <time>2014-08-17T10:45:15.961Z</time>
      </trkpt>
      <trkpt lat="46.43783" lon="6.00067">
        <ele>1284.2</ele>
        <time>2014-08-17T10:45:18.970Z</time>
      </trkpt>
      <trkpt lat="46.43729" lon="6.00003">
        <ele>1278.8</ele>
        <time>2014-08-17T10:45:30.485Z</time>
      </trkpt>
      <trkpt lat="46.4372" lon="5.9999">
        <ele>1278.7</ele>
        <time>2014-08-17T10:45:32.351Z</time>
      </trkpt>
      <trkpt lat="46.43704" lon="5.99973">
        <ele>1278.8</ele>
        <time>2014-08-17T10:45:35.190Z</time>
      </trkpt>
      <trkpt lat="46.43688" lon="5.99959">
        <ele>1279.5</ele>
        <time>2014-08-17T10:45:37.968Z</time>
      </trkpt>
      <trkpt lat="46.43678" lon="5.99947">
        <ele>1281.1</ele>
        <time>2014-08-17T10:45:39.931Z</time>
      </trkpt>
      <trkpt lat="46.43661" lon="5.99918">
        <ele>1286</ele>
        <time>2014-08-17T10:45:44.194Z</time>
      </trkpt>
      <trkpt lat="46.43653" lon="5.99888">
        <ele>1289.2</ele>
        <time>2014-08-17T10:45:48.170Z</time>
      </trkpt>
      <trkpt lat="46.43639" lon="5.99852">
        <ele>1286.6</ele>
        <time>2014-08-17T10:45:54.736Z</time>
      </trkpt>
      <trkpt lat="46.43633" lon="5.99812">
        <ele>1276.7</ele>
        <time>2014-08-17T10:48:21.097Z</time>
      </trkpt>
      <trkpt lat="46.43627" lon="5.99799">
        <ele>1275.8</ele>
        <time>2014-08-17T10:48:23.926Z</time>
      </trkpt>
      <trkpt lat="46.43618" lon="5.99786">
        <ele>1274</ele>
        <time>2014-08-17T10:48:27.315Z</time>
      </trkpt>
      <trkpt lat="46.43611" lon="5.99778">
        <ele>1273.2</ele>
        <time>2014-08-17T10:48:30.059Z</time>
      </trkpt>
      <trkpt lat="46.43605" lon="5.99766">
        <ele>1273.3</ele>
        <time>2014-08-17T10:48:33.294Z</time>
      </trkpt>
      <trkpt lat="46.43598" lon="5.99756">
        <ele>1273.9</ele>
        <time>2014-08-17T10:48:36.932Z</time>
      </trkpt>
      <trkpt lat="46.43588" lon="5.99748">
        <ele>1274.6</ele>
        <time>2014-08-17T10:48:41.054Z</time>
      </trkpt>
      <trkpt lat="46.43541" lon="5.99694">
        <ele>1269.6</ele>
        <time>2014-08-17T10:49:03.398Z</time>
      </trkpt>
      <trkpt lat="46.43525" lon="5.99683">
        <ele>1268.8</ele>
        <time>2014-08-17T10:49:07.243Z</time>
      </trkpt>
      <trkpt lat="46.43513" lon="5.99665">
        <ele>1267.5</ele>
        <time>2014-08-17T10:49:10.713Z</time>
      </trkpt>
      <trkpt lat="46.43507" lon="5.9965">
        <ele>1265.7</ele>
        <time>2014-08-17T10:49:13.468Z</time>
      </trkpt>
      <trkpt lat="46.43482" lon="5.99631">
        <ele>1264.7</ele>
        <time>2014-08-17T10:49:19.791Z</time>
      </trkpt>
      <trkpt lat="46.43474" lon="5.9962">
        <ele>1265</ele>
        <time>2014-08-17T10:49:22.676Z</time>
      </trkpt>
      <trkpt lat="46.43464" lon="5.99604">
        <ele>1265</ele>
        <time>2014-08-17T10:49:27.254Z</time>
      </trkpt>
      <trkpt lat="46.43449" lon="5.99592">
        <ele>1265.1</ele>
        <time>2014-08-17T10:49:33.742Z</time>
      </trkpt>
      <trkpt lat="46.43439" lon="5.99588">
        <ele>1266.1</ele>
        <time>2014-08-17T10:49:38.887Z</time>
      </trkpt>
      <trkpt lat="46.43417" lon="5.99562">
        <ele>1268.3</ele>
        <time>2014-08-17T10:49:59.223Z</time>
      </trkpt>
      <trkpt lat="46.43408" lon="5.99554">
        <ele>1268.5</ele>
        <time>2014-08-17T10:50:05.395Z</time>
      </trkpt>
      <trkpt lat="46.434" lon="5.99544">
        <ele>1267.9</ele>
        <time>2014-08-17T10:50:11.066Z</time>
      </trkpt>
      <trkpt lat="46.43392" lon="5.99536">
        <ele>1267.3</ele>
        <time>2014-08-17T10:50:17.045Z</time>
      </trkpt>
      <trkpt lat="46.4338" lon="5.99527">
        <ele>1266.2</ele>
        <time>2014-08-17T10:50:26.722Z</time>
      </trkpt>
      <trkpt lat="46.43375" lon="5.99514">
        <ele>1264.2</ele>
        <time>2014-08-17T10:51:06.665Z</time>
      </trkpt>
      <trkpt lat="46.43365" lon="5.99512">
        <ele>1263.2</ele>
        <time>2014-08-17T10:51:15.480Z</time>
      </trkpt>
      <trkpt lat="46.43356" lon="5.9951">
        <ele>1261.3</ele>
        <time>2014-08-17T10:51:22.158Z</time>
      </trkpt>
      <trkpt lat="46.43349" lon="5.99502">
        <ele>1260.1</ele>
        <time>2014-08-17T10:51:28.803Z</time>
      </trkpt>
      <trkpt lat="46.43339" lon="5.99499">
        <ele>1261.4</ele>
        <time>2014-08-17T10:51:34.874Z</time>
      </trkpt>
      <trkpt lat="46.43315" lon="5.99474">
        <ele>1271.3</ele>
        <time>2014-08-17T10:51:49.239Z</time>
      </trkpt>
      <trkpt lat="46.43311" lon="5.9946">
        <ele>1273.7</ele>
        <time>2014-08-17T10:51:54.728Z</time>
      </trkpt>
      <trkpt lat="46.43292" lon="5.99439">
        <ele>1274.9</ele>
        <time>2014-08-17T10:52:12.492Z</time>
      </trkpt>
      <trkpt lat="46.43283" lon="5.99433">
        <ele>1273.1</ele>
        <time>2014-08-17T10:52:15.726Z</time>
      </trkpt>
      <trkpt lat="46.43267" lon="5.99415">
        <ele>1269.1</ele>
        <time>2014-08-17T10:53:14.846Z</time>
      </trkpt>
      <trkpt lat="46.43256" lon="5.99417">
        <ele>1268.2</ele>
        <time>2014-08-17T10:53:20.289Z</time>
      </trkpt>
      <trkpt lat="46.43247" lon="5.99414">
        <ele>1265.8</ele>
        <time>2014-08-17T10:53:24.245Z</time>
      </trkpt>
      <trkpt lat="46.43237" lon="5.99412">
        <ele>1263.7</ele>
        <time>2014-08-17T10:53:30.436Z</time>
      </trkpt>
      <trkpt lat="46.43227" lon="5.99411">
        <ele>1263.8</ele>
        <time>2014-08-17T10:53:36.866Z</time>
      </trkpt>
      <trkpt lat="46.43217" lon="5.99418">
        <ele>1264.3</ele>
        <time>2014-08-17T10:53:44.725Z</time>
      </trkpt>
      <trkpt lat="46.43215" lon="5.99406">
        <ele>1224.2</ele>
        <time>2014-08-17T10:54:27.722Z</time>
      </trkpt>
      <trkpt lat="46.43188" lon="5.99388">
        <ele>1224.3</ele>
        <time>2014-08-17T10:56:18.211Z</time>
      </trkpt>
      <trkpt lat="46.43178" lon="5.99384">
        <ele>1233.8</ele>
        <time>2014-08-17T10:56:29.011Z</time>
      </trkpt>
      <trkpt lat="46.43161" lon="5.99364">
        <ele>1259.2</ele>
        <time>2014-08-17T10:56:42.933Z</time>
      </trkpt>
      <trkpt lat="46.43153" lon="5.99349">
        <ele>1262.6</ele>
        <time>2014-08-17T10:56:47.469Z</time>
      </trkpt>
      <trkpt lat="46.43146" lon="5.99341">
        <ele>1259</ele>
        <time>2014-08-17T10:56:50.804Z</time>
      </trkpt>
      <trkpt lat="46.43137" lon="5.99328">
        <ele>1252.3</ele>
        <time>2014-08-17T10:56:54.590Z</time>
      </trkpt>
      <trkpt lat="46.43128" lon="5.9932">
        <ele>1246.6</ele>
        <time>2014-08-17T10:56:58.073Z</time>
      </trkpt>
      <trkpt lat="46.4312" lon="5.9931">
        <ele>1243.7</ele>
        <time>2014-08-17T10:57:01.466Z</time>
      </trkpt>
      <trkpt lat="46.43116" lon="5.99297">
        <ele>1243.6</ele>
        <time>2014-08-17T10:57:05.627Z</time>
      </trkpt>
      <trkpt lat="46.43117" lon="5.99284">
        <ele>1245.2</ele>
        <time>2014-08-17T10:57:10.135Z</time>
      </trkpt>
      <trkpt lat="46.43119" lon="5.99271">
        <ele>1247</ele>
        <time>2014-08-17T10:57:16.337Z</time>
      </trkpt>
      <trkpt lat="46.43112" lon="5.9924">
        <ele>1246</ele>
        <time>2014-08-17T10:57:29.132Z</time>
      </trkpt>
      <trkpt lat="46.43106" lon="5.99228">
        <ele>1244</ele>
        <time>2014-08-17T10:57:33.994Z</time>
      </trkpt>
      <trkpt lat="46.43105" lon="5.99215">
        <ele>1242.8</ele>
        <time>2014-08-17T10:57:38.833Z</time>
      </trkpt>
      <trkpt lat="46.43096" lon="5.99188">
        <ele>1240.9</ele>
        <time>2014-08-17T10:57:49.730Z</time>
      </trkpt>
      <trkpt lat="46.43094" lon="5.9917">
        <ele>1237.4</ele>
        <time>2014-08-17T10:58:00.731Z</time>
      </trkpt>
      <trkpt lat="46.43081" lon="5.99156">
        <ele>1236.1</ele>
        <time>2014-08-17T10:59:17.404Z</time>
      </trkpt>
      <trkpt lat="46.43003" lon="5.99112">
        <ele>1217.1</ele>
        <time>2014-08-17T10:59:28.590Z</time>
      </trkpt>
      <trkpt lat="46.42991" lon="5.99107">
        <ele>1215</ele>
        <time>2014-08-17T10:59:30.351Z</time>
      </trkpt>
      <trkpt lat="46.42971" lon="5.99102">
        <ele>1212.4</ele>
        <time>2014-08-17T10:59:33.173Z</time>
      </trkpt>
      <trkpt lat="46.42952" lon="5.99093">
        <ele>1208.7</ele>
        <time>2014-08-17T10:59:35.964Z</time>
      </trkpt>
      <trkpt lat="46.4293" lon="5.99078">
        <ele>1206.6</ele>
        <time>2014-08-17T11:01:10.733Z</time>
      </trkpt>
      <trkpt lat="46.42922" lon="5.9907">
        <ele>1205.1</ele>
        <time>2014-08-17T11:02:55.589Z</time>
      </trkpt>
      <trkpt lat="46.42913" lon="5.99063">
        <ele>1204.6</ele>
        <time>2014-08-17T11:03:02.006Z</time>
      </trkpt>
      <trkpt lat="46.42903" lon="5.9906">
        <ele>1204</ele>
        <time>2014-08-17T11:03:07.029Z</time>
      </trkpt>
      <trkpt lat="46.42894" lon="5.99052">
        <ele>1203.7</ele>
        <time>2014-08-17T11:03:11.959Z</time>
      </trkpt>
      <trkpt lat="46.42885" lon="5.99048">
        <ele>1204.2</ele>
        <time>2014-08-17T11:03:16.744Z</time>
      </trkpt>
      <trkpt lat="46.42876" lon="5.99042">
        <ele>1205.4</ele>
        <time>2014-08-17T11:03:21.717Z</time>
      </trkpt>
      <trkpt lat="46.42867" lon="5.99039">
        <ele>1207.6</ele>
        <time>2014-08-17T11:03:26.508Z</time>
      </trkpt>
      <trkpt lat="46.42857" lon="5.99034">
        <ele>1210.4</ele>
        <time>2014-08-17T11:03:32.107Z</time>
      </trkpt>
      <trkpt lat="46.42849" lon="5.99027">
        <ele>1212.5</ele>
        <time>2014-08-17T11:03:37.268Z</time>
      </trkpt>
      <trkpt lat="46.42842" lon="5.99017">
        <ele>1212.8</ele>
        <time>2014-08-17T11:03:42.732Z</time>
      </trkpt>
      <trkpt lat="46.42796" lon="5.98969">
        <ele>1210.2</ele>
        <time>2014-08-17T11:04:10.888Z</time>
      </trkpt>
      <trkpt lat="46.42761" lon="5.9892">
        <ele>1208.6</ele>
        <time>2014-08-17T11:04:22.555Z</time>
      </trkpt>
      <trkpt lat="46.42744" lon="5.98908">
        <ele>1206.6</ele>
        <time>2014-08-17T11:04:29.816Z</time>
      </trkpt>
      <trkpt lat="46.42737" lon="5.98899">
        <ele>1206.3</ele>
        <time>2014-08-17T11:04:33.431Z</time>
      </trkpt>
      <trkpt lat="46.42727" lon="5.9889">
        <ele>1206.6</ele>
        <time>2014-08-17T11:04:37.738Z</time>
      </trkpt>
      <trkpt lat="46.42692" lon="5.9884">
        <ele>1205.5</ele>
        <time>2014-08-17T11:04:55.575Z</time>
      </trkpt>
      <trkpt lat="46.4268" lon="5.98816">
        <ele>1202.9</ele>
        <time>2014-08-17T11:05:02.303Z</time>
      </trkpt>
      <trkpt lat="46.42645" lon="5.98761">
        <ele>1199.3</ele>
        <time>2014-08-17T11:05:17.524Z</time>
      </trkpt>
      <trkpt lat="46.42621" lon="5.98735">
        <ele>1194.6</ele>
        <time>2014-08-17T11:05:23.141Z</time>
      </trkpt>
      <trkpt lat="46.42613" lon="5.98724">
        <ele>1192.3</ele>
        <time>2014-08-17T11:05:25.048Z</time>
      </trkpt>
      <trkpt lat="46.42604" lon="5.98715">
        <ele>1190.2</ele>
        <time>2014-08-17T11:05:26.762Z</time>
      </trkpt>
      <trkpt lat="46.42578" lon="5.98722">
        <ele>1188.3</ele>
        <time>2014-08-17T11:05:35.841Z</time>
      </trkpt>
      <trkpt lat="46.42563" lon="5.98731">
        <ele>1187.7</ele>
        <time>2014-08-17T11:05:38.641Z</time>
      </trkpt>
      <trkpt lat="46.42546" lon="5.98738">
        <ele>1186.5</ele>
        <time>2014-08-17T11:05:41.791Z</time>
      </trkpt>
      <trkpt lat="46.42538" lon="5.98725">
        <ele>1185.9</ele>
        <time>2014-08-17T11:05:44.136Z</time>
      </trkpt>
      <trkpt lat="46.42541" lon="5.98706">
        <ele>1186.7</ele>
        <time>2014-08-17T11:05:46.915Z</time>
      </trkpt>
      <trkpt lat="46.4254" lon="5.98679">
        <ele>1189.2</ele>
        <time>2014-08-17T11:05:50.418Z</time>
      </trkpt>
      <trkpt lat="46.42509" lon="5.986">
        <ele>1184.6</ele>
        <time>2014-08-17T11:06:03.499Z</time>
      </trkpt>
      <trkpt lat="46.42489" lon="5.98559">
        <ele>1175.5</ele>
        <time>2014-08-17T11:06:13.572Z</time>
      </trkpt>
      <trkpt lat="46.4246" lon="5.98466">
        <ele>1164.7</ele>
        <time>2014-08-17T11:06:32.506Z</time>
      </trkpt>
      <trkpt lat="46.42458" lon="5.98439">
        <ele>1165.3</ele>
        <time>2014-08-17T11:06:36.552Z</time>
      </trkpt>
      <trkpt lat="46.42447" lon="5.98375">
        <ele>1165.6</ele>
        <time>2014-08-17T11:06:46.026Z</time>
      </trkpt>
      <trkpt lat="46.42448" lon="5.98287">
        <ele>1165.3</ele>
        <time>2014-08-17T11:07:55.478Z</time>
      </trkpt>
      <trkpt lat="46.42445" lon="5.98272">
        <ele>1165.1</ele>
        <time>2014-08-17T11:08:00.364Z</time>
      </trkpt>
      <trkpt lat="46.42444" lon="5.98259">
        <ele>1167.1</ele>
        <time>2014-08-17T11:08:04.739Z</time>
      </trkpt>
      <trkpt lat="46.42407" lon="5.98225">
        <ele>1172.3</ele>
        <time>2014-08-17T11:08:31.155Z</time>
      </trkpt>
      <trkpt lat="46.42396" lon="5.98221">
        <ele>1174.4</ele>
        <time>2014-08-17T11:08:34.992Z</time>
      </trkpt>
      <trkpt lat="46.42364" lon="5.982">
        <ele>1175</ele>
        <time>2014-08-17T11:08:46.251Z</time>
      </trkpt>
      <trkpt lat="46.42355" lon="5.98192">
        <ele>1174.8</ele>
        <time>2014-08-17T11:08:49.329Z</time>
      </trkpt>
      <trkpt lat="46.42345" lon="5.98184">
        <ele>1174.2</ele>
        <time>2014-08-17T11:08:52.729Z</time>
      </trkpt>
      <trkpt lat="46.42332" lon="5.98177">
        <ele>1172.7</ele>
        <time>2014-08-17T11:08:57.106Z</time>
      </trkpt>
      <trkpt lat="46.42318" lon="5.98175">
        <ele>1169.8</ele>
        <time>2014-08-17T11:09:00.797Z</time>
      </trkpt>
      <trkpt lat="46.42308" lon="5.98174">
        <ele>1165.8</ele>
        <time>2014-08-17T11:09:03.359Z</time>
      </trkpt>
      <trkpt lat="46.42284" lon="5.98161">
        <ele>1160.1</ele>
        <time>2014-08-17T11:09:08.264Z</time>
      </trkpt>
      <trkpt lat="46.42257" lon="5.98136">
        <ele>1163.5</ele>
        <time>2014-08-17T11:09:13.771Z</time>
      </trkpt>
      <trkpt lat="46.42249" lon="5.98122">
        <ele>1164.9</ele>
        <time>2014-08-17T11:09:16.181Z</time>
      </trkpt>
      <trkpt lat="46.4224" lon="5.98083">
        <ele>1163.9</ele>
        <time>2014-08-17T11:09:22.076Z</time>
      </trkpt>
      <trkpt lat="46.42234" lon="5.9807">
        <ele>1161.5</ele>
        <time>2014-08-17T11:09:24.561Z</time>
      </trkpt>
      <trkpt lat="46.42227" lon="5.98058">
        <ele>1158.7</ele>
        <time>2014-08-17T11:09:27.165Z</time>
      </trkpt>
      <trkpt lat="46.42216" lon="5.98055">
        <ele>1155.9</ele>
        <time>2014-08-17T11:09:29.447Z</time>
      </trkpt>
      <trkpt lat="46.42203" lon="5.98048">
        <ele>1153</ele>
        <time>2014-08-17T11:09:32.081Z</time>
      </trkpt>
      <trkpt lat="46.42194" lon="5.98027">
        <ele>1151.5</ele>
        <time>2014-08-17T11:09:35.101Z</time>
      </trkpt>
      <trkpt lat="46.4216" lon="5.97917">
        <ele>1151.1</ele>
        <time>2014-08-17T11:09:51.270Z</time>
      </trkpt>
      <trkpt lat="46.42152" lon="5.97906">
        <ele>1150.9</ele>
        <time>2014-08-17T11:09:53.765Z</time>
      </trkpt>
      <trkpt lat="46.42125" lon="5.97878">
        <ele>1149.5</ele>
        <time>2014-08-17T11:10:35.383Z</time>
      </trkpt>
      <trkpt lat="46.42097" lon="5.97837">
        <ele>1148.9</ele>
        <time>2014-08-17T11:10:49.240Z</time>
      </trkpt>
      <trkpt lat="46.42092" lon="5.97825">
        <ele>1150.1</ele>
        <time>2014-08-17T11:10:53.734Z</time>
      </trkpt>
      <trkpt lat="46.4208" lon="5.9781">
        <ele>1149.8</ele>
        <time>2014-08-17T11:11:19.732Z</time>
      </trkpt>
      <trkpt lat="46.42045" lon="5.97742">
        <ele>1153.9</ele>
        <time>2014-08-17T11:12:00.737Z</time>
      </trkpt>
      <trkpt lat="46.42024" lon="5.97689">
        <ele>1155</ele>
        <time>2014-08-17T11:12:20.292Z</time>
      </trkpt>
      <trkpt lat="46.42003" lon="5.97655">
        <ele>1158</ele>
        <time>2014-08-17T11:12:31.966Z</time>
      </trkpt>
      <trkpt lat="46.41995" lon="5.97648">
        <ele>1159.1</ele>
        <time>2014-08-17T11:12:35.730Z</time>
      </trkpt>
      <trkpt lat="46.41988" lon="5.97659">
        <ele>1157.7</ele>
        <time>2014-08-17T11:12:58.345Z</time>
      </trkpt>
      <trkpt lat="46.41979" lon="5.97705">
        <ele>1160.3</ele>
        <time>2014-08-17T11:13:13.868Z</time>
      </trkpt>
      <trkpt lat="46.41978" lon="5.97719">
        <ele>1161.8</ele>
        <time>2014-08-17T11:13:18.259Z</time>
      </trkpt>
      <trkpt lat="46.41974" lon="5.97733">
        <ele>1162.4</ele>
        <time>2014-08-17T11:13:23.721Z</time>
      </trkpt>
      <trkpt lat="46.41972" lon="5.97792">
        <ele>1184.8</ele>
        <time>2014-08-17T11:13:51.336Z</time>
      </trkpt>
      <trkpt lat="46.41986" lon="5.97833">
        <ele>1189</ele>
        <time>2014-08-17T11:14:16.742Z</time>
      </trkpt>
      <trkpt lat="46.41991" lon="5.97865">
        <ele>1188.1</ele>
        <time>2014-08-17T11:15:03.735Z</time>
      </trkpt>
      <trkpt lat="46.41995" lon="5.97879">
        <ele>1187.1</ele>
        <time>2014-08-17T11:15:25.580Z</time>
      </trkpt>
      <trkpt lat="46.41993" lon="5.97892">
        <ele>1187.2</ele>
        <time>2014-08-17T11:15:33.858Z</time>
      </trkpt>
      <trkpt lat="46.41986" lon="5.97907">
        <ele>1189.2</ele>
        <time>2014-08-17T11:15:41.738Z</time>
      </trkpt>
      <trkpt lat="46.41966" lon="5.97938">
        <ele>1194.6</ele>
        <time>2014-08-17T11:16:38.109Z</time>
      </trkpt>
      <trkpt lat="46.41957" lon="5.97965">
        <ele>1199.9</ele>
        <time>2014-08-17T11:16:47.941Z</time>
      </trkpt>
      <trkpt lat="46.41951" lon="5.98022">
        <ele>1197.5</ele>
        <time>2014-08-17T11:17:06.454Z</time>
      </trkpt>
      <trkpt lat="46.41952" lon="5.98035">
        <ele>1199.4</ele>
        <time>2014-08-17T11:17:11.742Z</time>
      </trkpt>
      <trkpt lat="46.41947" lon="5.98052">
        <ele>1206.5</ele>
        <time>2014-08-17T11:17:30.412Z</time>
      </trkpt>
      <trkpt lat="46.41945" lon="5.98065">
        <ele>1204.7</ele>
        <time>2014-08-17T11:17:36.497Z</time>
      </trkpt>
      <trkpt lat="46.4194" lon="5.98076">
        <ele>1204.5</ele>
        <time>2014-08-17T11:17:41.549Z</time>
      </trkpt>
      <trkpt lat="46.41933" lon="5.98084">
        <ele>1205.6</ele>
        <time>2014-08-17T11:17:46.373Z</time>
      </trkpt>
      <trkpt lat="46.41932" lon="5.98097">
        <ele>1206.3</ele>
        <time>2014-08-17T11:17:51.825Z</time>
      </trkpt>
      <trkpt lat="46.41928" lon="5.98113">
        <ele>1205.8</ele>
        <time>2014-08-17T11:17:58.602Z</time>
      </trkpt>
      <trkpt lat="46.41927" lon="5.98132">
        <ele>1205.1</ele>
        <time>2014-08-17T11:18:05.610Z</time>
      </trkpt>
      <trkpt lat="46.41923" lon="5.98144">
        <ele>1205.8</ele>
        <time>2014-08-17T11:18:10.407Z</time>
      </trkpt>
      <trkpt lat="46.41904" lon="5.98166">
        <ele>1208.1</ele>
        <time>2014-08-17T11:18:19.998Z</time>
      </trkpt>
      <trkpt lat="46.41899" lon="5.98178">
        <ele>1205.8</ele>
        <time>2014-08-17T11:18:23.441Z</time>
      </trkpt>
      <trkpt lat="46.419" lon="5.98192">
        <ele>1202.9</ele>
        <time>2014-08-17T11:18:26.748Z</time>
      </trkpt>
      <trkpt lat="46.41871" lon="5.98224">
        <ele>1202.4</ele>
        <time>2014-08-17T11:19:17.036Z</time>
      </trkpt>
      <trkpt lat="46.41871" lon="5.98237">
        <ele>1204.1</ele>
        <time>2014-08-17T11:19:23.257Z</time>
      </trkpt>
      <trkpt lat="46.41862" lon="5.98241">
        <ele>1204.4</ele>
        <time>2014-08-17T11:19:28.319Z</time>
      </trkpt>
      <trkpt lat="46.41851" lon="5.98242">
        <ele>1203.1</ele>
        <time>2014-08-17T11:19:33.495Z</time>
      </trkpt>
      <trkpt lat="46.41842" lon="5.98244">
        <ele>1200.9</ele>
        <time>2014-08-17T11:19:37.752Z</time>
      </trkpt>
      <trkpt lat="46.41831" lon="5.98242">
        <ele>1200.5</ele>
        <time>2014-08-17T11:19:40.733Z</time>
      </trkpt>
      <trkpt lat="46.4182" lon="5.98244">
        <ele>1199.4</ele>
        <time>2014-08-17T11:19:49.342Z</time>
      </trkpt>
      <trkpt lat="46.418" lon="5.9824">
        <ele>1198</ele>
        <time>2014-08-17T11:20:01.068Z</time>
      </trkpt>
      <trkpt lat="46.41791" lon="5.98244">
        <ele>1197.7</ele>
        <time>2014-08-17T11:20:06.603Z</time>
      </trkpt>
      <trkpt lat="46.41785" lon="5.98255">
        <ele>1197.8</ele>
        <time>2014-08-17T11:20:12.737Z</time>
      </trkpt>
      <trkpt lat="46.41776" lon="5.98262">
        <ele>1198.3</ele>
        <time>2014-08-17T11:22:24.424Z</time>
      </trkpt>
      <trkpt lat="46.4177" lon="5.98272">
        <ele>1198.7</ele>
        <time>2014-08-17T11:22:31.259Z</time>
      </trkpt>
      <trkpt lat="46.41762" lon="5.98278">
        <ele>1201.5</ele>
        <time>2014-08-17T11:22:35.743Z</time>
      </trkpt>
      <trkpt lat="46.41756" lon="5.98289">
        <ele>1204.3</ele>
        <time>2014-08-17T11:22:45.741Z</time>
      </trkpt>
      <trkpt lat="46.41772" lon="5.98308">
        <ele>1203</ele>
        <time>2014-08-17T11:23:25.056Z</time>
      </trkpt>
      <trkpt lat="46.41766" lon="5.98318">
        <ele>1202.9</ele>
        <time>2014-08-17T11:23:33.956Z</time>
      </trkpt>
      <trkpt lat="46.41757" lon="5.98323">
        <ele>1203.3</ele>
        <time>2014-08-17T11:23:43.915Z</time>
      </trkpt>
      <trkpt lat="46.41754" lon="5.98336">
        <ele>1204.6</ele>
        <time>2014-08-17T11:23:53.276Z</time>
      </trkpt>
      <trkpt lat="46.41759" lon="5.98347">
        <ele>1207.5</ele>
        <time>2014-08-17T11:23:59.166Z</time>
      </trkpt>
      <trkpt lat="46.41762" lon="5.98361">
        <ele>1212.7</ele>
        <time>2014-08-17T11:24:04.444Z</time>
      </trkpt>
      <trkpt lat="46.41771" lon="5.98388">
        <ele>1219.5</ele>
        <time>2014-08-17T11:24:14.214Z</time>
      </trkpt>
      <trkpt lat="46.41774" lon="5.98402">
        <ele>1217.7</ele>
        <time>2014-08-17T11:24:19.523Z</time>
      </trkpt>
      <trkpt lat="46.41772" lon="5.98415">
        <ele>1215.6</ele>
        <time>2014-08-17T11:24:25.884Z</time>
      </trkpt>
      <trkpt lat="46.41767" lon="5.98426">
        <ele>1216.5</ele>
        <time>2014-08-17T11:24:32.743Z</time>
      </trkpt>
      <trkpt lat="46.41763" lon="5.98441">
        <ele>1221.7</ele>
        <time>2014-08-17T11:25:30.740Z</time>
      </trkpt>
      <trkpt lat="46.41757" lon="5.9843">
        <ele>1218.9</ele>
        <time>2014-08-17T11:26:00.843Z</time>
      </trkpt>
      <trkpt lat="46.41748" lon="5.98426">
        <ele>1220.3</ele>
        <time>2014-08-17T11:26:09.242Z</time>
      </trkpt>
      <trkpt lat="46.41745" lon="5.98413">
        <ele>1223.2</ele>
        <time>2014-08-17T11:26:17.475Z</time>
      </trkpt>
      <trkpt lat="46.41736" lon="5.98416">
        <ele>1225.4</ele>
        <time>2014-08-17T11:26:24.754Z</time>
      </trkpt>
      <trkpt lat="46.41717" lon="5.98426">
        <ele>1222</ele>
        <time>2014-08-17T11:26:37.216Z</time>
      </trkpt>
      <trkpt lat="46.41707" lon="5.98427">
        <ele>1219.5</ele>
        <time>2014-08-17T11:26:43.294Z</time>
      </trkpt>
      <trkpt lat="46.41688" lon="5.98424">
        <ele>1218.2</ele>
        <time>2014-08-17T11:26:54.272Z</time>
      </trkpt>
      <trkpt lat="46.4167" lon="5.98426">
        <ele>1219.3</ele>
        <time>2014-08-17T11:27:03.855Z</time>
      </trkpt>
      <trkpt lat="46.41641" lon="5.98439">
        <ele>1219.4</ele>
        <time>2014-08-17T11:27:20.082Z</time>
      </trkpt>
      <trkpt lat="46.41631" lon="5.98446">
        <ele>1218.6</ele>
        <time>2014-08-17T11:27:25.292Z</time>
      </trkpt>
      <trkpt lat="46.41624" lon="5.98454">
        <ele>1219.9</ele>
        <time>2014-08-17T11:27:30.076Z</time>
      </trkpt>
      <trkpt lat="46.41609" lon="5.98468">
        <ele>1226.9</ele>
        <time>2014-08-17T11:27:41.960Z</time>
      </trkpt>
      <trkpt lat="46.41585" lon="5.98501">
        <ele>1228.8</ele>
        <time>2014-08-17T11:28:02.279Z</time>
      </trkpt>
      <trkpt lat="46.41579" lon="5.98515">
        <ele>1229.5</ele>
        <time>2014-08-17T11:28:09.734Z</time>
      </trkpt>
      <trkpt lat="46.41577" lon="5.9853">
        <ele>1232</ele>
        <time>2014-08-17T11:28:14.471Z</time>
      </trkpt>
      <trkpt lat="46.4158" lon="5.98546">
        <ele>1235.6</ele>
        <time>2014-08-17T11:28:18.774Z</time>
      </trkpt>
      <trkpt lat="46.41559" lon="5.98585">
        <ele>1233.6</ele>
        <time>2014-08-17T11:28:32.677Z</time>
      </trkpt>
      <trkpt lat="46.41559" lon="5.98598">
        <ele>1230.6</ele>
        <time>2014-08-17T11:28:35.869Z</time>
      </trkpt>
      <trkpt lat="46.41552" lon="5.98613">
        <ele>1228.9</ele>
        <time>2014-08-17T11:28:40.991Z</time>
      </trkpt>
      <trkpt lat="46.41543" lon="5.98627">
        <ele>1228.7</ele>
        <time>2014-08-17T11:28:46.969Z</time>
      </trkpt>
      <trkpt lat="46.41537" lon="5.98643">
        <ele>1229.4</ele>
        <time>2014-08-17T11:28:51.906Z</time>
      </trkpt>
      <trkpt lat="46.41503" lon="5.98662">
        <ele>1226.6</ele>
        <time>2014-08-17T11:29:02.389Z</time>
      </trkpt>
      <trkpt lat="46.41497" lon="5.98672">
        <ele>1226.1</ele>
        <time>2014-08-17T11:29:05.543Z</time>
      </trkpt>
      <trkpt lat="46.41489" lon="5.9868">
        <ele>1227.6</ele>
        <time>2014-08-17T11:29:09.376Z</time>
      </trkpt>
      <trkpt lat="46.41478" lon="5.98688">
        <ele>1230.3</ele>
        <time>2014-08-17T11:29:15.531Z</time>
      </trkpt>
      <trkpt lat="46.41456" lon="5.98698">
        <ele>1233.9</ele>
        <time>2014-08-17T11:29:22.205Z</time>
      </trkpt>
      <trkpt lat="46.41434" lon="5.98704">
        <ele>1236.5</ele>
        <time>2014-08-17T11:29:27.110Z</time>
      </trkpt>
      <trkpt lat="46.41423" lon="5.98705">
        <ele>1238.5</ele>
        <time>2014-08-17T11:29:29.427Z</time>
      </trkpt>
      <trkpt lat="46.41412" lon="5.987">
        <ele>1240.8</ele>
        <time>2014-08-17T11:29:32.203Z</time>
      </trkpt>
      <trkpt lat="46.41401" lon="5.98697">
        <ele>1243.2</ele>
        <time>2014-08-17T11:29:34.860Z</time>
      </trkpt>
      <trkpt lat="46.41388" lon="5.98699">
        <ele>1244.8</ele>
        <time>2014-08-17T11:29:38.101Z</time>
      </trkpt>
      <trkpt lat="46.41379" lon="5.98708">
        <ele>1244.8</ele>
        <time>2014-08-17T11:29:41.201Z</time>
      </trkpt>
      <trkpt lat="46.41373" lon="5.98719">
        <ele>1243.6</ele>
        <time>2014-08-17T11:29:44.155Z</time>
      </trkpt>
      <trkpt lat="46.41365" lon="5.98728">
        <ele>1241.2</ele>
        <time>2014-08-17T11:29:47.967Z</time>
      </trkpt>
      <trkpt lat="46.41363" lon="5.98741">
        <ele>1237.7</ele>
        <time>2014-08-17T11:29:51.518Z</time>
      </trkpt>
      <trkpt lat="46.41362" lon="5.98757">
        <ele>1232.6</ele>
        <time>2014-08-17T11:29:56.105Z</time>
      </trkpt>
      <trkpt lat="46.41351" lon="5.9877">
        <ele>1225.5</ele>
        <time>2014-08-17T11:30:02.148Z</time>
      </trkpt>
      <trkpt lat="46.41317" lon="5.98784">
        <ele>1209.6</ele>
        <time>2014-08-17T11:30:11.660Z</time>
      </trkpt>
      <trkpt lat="46.41304" lon="5.98787">
        <ele>1209.3</ele>
        <time>2014-08-17T11:30:14.624Z</time>
      </trkpt>
      <trkpt lat="46.41292" lon="5.98796">
        <ele>1210.2</ele>
        <time>2014-08-17T11:30:17.932Z</time>
      </trkpt>
      <trkpt lat="46.41281" lon="5.98802">
        <ele>1210.8</ele>
        <time>2014-08-17T11:30:20.646Z</time>
      </trkpt>
      <trkpt lat="46.41272" lon="5.98805">
        <ele>1209.7</ele>
        <time>2014-08-17T11:30:22.760Z</time>
      </trkpt>
      <trkpt lat="46.41261" lon="5.98795">
        <ele>1205.3</ele>
        <time>2014-08-17T11:32:27.741Z</time>
      </trkpt>
      <trkpt lat="46.41256" lon="5.98784">
        <ele>1204.2</ele>
        <time>2014-08-17T11:35:33.353Z</time>
      </trkpt>
      <trkpt lat="46.41246" lon="5.98784">
        <ele>1203.2</ele>
        <time>2014-08-17T11:35:41.570Z</time>
      </trkpt>
      <trkpt lat="46.41237" lon="5.9878">
        <ele>1200.7</ele>
        <time>2014-08-17T11:35:46.755Z</time>
      </trkpt>
      <trkpt lat="46.41245" lon="5.98787">
        <ele>1196.7</ele>
        <time>2014-08-17T11:56:39.130Z</time>
      </trkpt>
      <trkpt lat="46.41254" lon="5.98791">
        <ele>1197.9</ele>
        <time>2014-08-17T11:56:49.808Z</time>
      </trkpt>
      <trkpt lat="46.4126" lon="5.98801">
        <ele>1201.5</ele>
        <time>2014-08-17T11:56:59.749Z</time>
      </trkpt>
      <trkpt lat="46.41271" lon="5.98791">
        <ele>1205.9</ele>
        <time>2014-08-17T12:08:52.755Z</time>
      </trkpt>
      <trkpt lat="46.41215" lon="5.98872">
        <ele>1202</ele>
        <time>2014-08-17T12:12:39.559Z</time>
      </trkpt>
      <trkpt lat="46.41203" lon="5.98886">
        <ele>1201.6</ele>
        <time>2014-08-17T12:12:42.656Z</time>
      </trkpt>
      <trkpt lat="46.41186" lon="5.98899">
        <ele>1201.1</ele>
        <time>2014-08-17T12:12:45.149Z</time>
      </trkpt>
      <trkpt lat="46.41173" lon="5.98897">
        <ele>1200.5</ele>
        <time>2014-08-17T12:12:46.525Z</time>
      </trkpt>
      <trkpt lat="46.41148" lon="5.98891">
        <ele>1199.4</ele>
        <time>2014-08-17T12:12:49.195Z</time>
      </trkpt>
      <trkpt lat="46.4113" lon="5.98889">
        <ele>1197.1</ele>
        <time>2014-08-17T12:12:51.410Z</time>
      </trkpt>
      <trkpt lat="46.41103" lon="5.98904">
        <ele>1193.5</ele>
        <time>2014-08-17T12:12:59.396Z</time>
      </trkpt>
      <trkpt lat="46.41086" lon="5.98926">
        <ele>1189.7</ele>
        <time>2014-08-17T12:13:09.699Z</time>
      </trkpt>
      <trkpt lat="46.4108" lon="5.98938">
        <ele>1186.8</ele>
        <time>2014-08-17T12:13:15.431Z</time>
      </trkpt>
      <trkpt lat="46.4107" lon="5.98937">
        <ele>1185.3</ele>
        <time>2014-08-17T12:13:20.783Z</time>
      </trkpt>
      <trkpt lat="46.41062" lon="5.98928">
        <ele>1185</ele>
        <time>2014-08-17T12:13:26.395Z</time>
      </trkpt>
      <trkpt lat="46.41045" lon="5.98916">
        <ele>1185.5</ele>
        <time>2014-08-17T12:13:37.101Z</time>
      </trkpt>
      <trkpt lat="46.41007" lon="5.98877">
        <ele>1190.7</ele>
        <time>2014-08-17T12:14:02.696Z</time>
      </trkpt>
      <trkpt lat="46.4099" lon="5.98826">
        <ele>1193.7</ele>
        <time>2014-08-17T12:14:28.862Z</time>
      </trkpt>
      <trkpt lat="46.40984" lon="5.98815">
        <ele>1193.7</ele>
        <time>2014-08-17T12:14:34.824Z</time>
      </trkpt>
      <trkpt lat="46.40947" lon="5.98764">
        <ele>1202.7</ele>
        <time>2014-08-17T12:15:10.673Z</time>
      </trkpt>
      <trkpt lat="46.40939" lon="5.98755">
        <ele>1203.5</ele>
        <time>2014-08-17T12:15:20.087Z</time>
      </trkpt>
      <trkpt lat="46.4093" lon="5.98752">
        <ele>1204.4</ele>
        <time>2014-08-17T12:15:26.699Z</time>
      </trkpt>
      <trkpt lat="46.40921" lon="5.98743">
        <ele>1206.8</ele>
        <time>2014-08-17T12:15:33.940Z</time>
      </trkpt>
      <trkpt lat="46.40913" lon="5.98733">
        <ele>1209.6</ele>
        <time>2014-08-17T12:15:40.513Z</time>
      </trkpt>
      <trkpt lat="46.40905" lon="5.98726">
        <ele>1211.5</ele>
        <time>2014-08-17T12:15:46.119Z</time>
      </trkpt>
      <trkpt lat="46.40874" lon="5.98684">
        <ele>1221.5</ele>
        <time>2014-08-17T12:16:06.997Z</time>
      </trkpt>
      <trkpt lat="46.40861" lon="5.98674">
        <ele>1221.2</ele>
        <time>2014-08-17T12:16:14.892Z</time>
      </trkpt>
      <trkpt lat="46.40852" lon="5.98671">
        <ele>1220.7</ele>
        <time>2014-08-17T12:16:19.755Z</time>
      </trkpt>
      <trkpt lat="46.40835" lon="5.98668">
        <ele>1219.8</ele>
        <time>2014-08-17T12:17:09.759Z</time>
      </trkpt>
      <trkpt lat="46.40762" lon="5.98577">
        <ele>1226.8</ele>
        <time>2014-08-17T12:20:41.227Z</time>
      </trkpt>
      <trkpt lat="46.40757" lon="5.98564">
        <ele>1227.6</ele>
        <time>2014-08-17T12:20:44.974Z</time>
      </trkpt>
      <trkpt lat="46.40742" lon="5.98545">
        <ele>1228.7</ele>
        <time>2014-08-17T12:20:53.987Z</time>
      </trkpt>
      <trkpt lat="46.40736" lon="5.98534">
        <ele>1228.6</ele>
        <time>2014-08-17T12:20:59.330Z</time>
      </trkpt>
      <trkpt lat="46.40728" lon="5.98528">
        <ele>1227.5</ele>
        <time>2014-08-17T12:21:04.806Z</time>
      </trkpt>
      <trkpt lat="46.40699" lon="5.98471">
        <ele>1230.5</ele>
        <time>2014-08-17T12:21:20.664Z</time>
      </trkpt>
      <trkpt lat="46.40673" lon="5.9843">
        <ele>1224.8</ele>
        <time>2014-08-17T12:21:33.452Z</time>
      </trkpt>
      <trkpt lat="46.40665" lon="5.98403">
        <ele>1220.5</ele>
        <time>2014-08-17T12:21:41.432Z</time>
      </trkpt>
      <trkpt lat="46.40659" lon="5.98388">
        <ele>1219.5</ele>
        <time>2014-08-17T12:21:46.697Z</time>
      </trkpt>
      <trkpt lat="46.40656" lon="5.98375">
        <ele>1219.9</ele>
        <time>2014-08-17T12:21:51.761Z</time>
      </trkpt>
      <trkpt lat="46.40643" lon="5.98347">
        <ele>1222.3</ele>
        <time>2014-08-17T12:22:09.437Z</time>
      </trkpt>
      <trkpt lat="46.40627" lon="5.98334">
        <ele>1227.4</ele>
        <time>2014-08-17T12:22:13.971Z</time>
      </trkpt>
      <trkpt lat="46.4062" lon="5.98326">
        <ele>1233.5</ele>
        <time>2014-08-17T12:22:16.031Z</time>
      </trkpt>
      <trkpt lat="46.40611" lon="5.98316">
        <ele>1237.2</ele>
        <time>2014-08-17T12:22:18.236Z</time>
      </trkpt>
      <trkpt lat="46.40602" lon="5.983">
        <ele>1239.3</ele>
        <time>2014-08-17T12:22:20.969Z</time>
      </trkpt>
      <trkpt lat="46.40596" lon="5.98286">
        <ele>1240.9</ele>
        <time>2014-08-17T12:22:23.079Z</time>
      </trkpt>
      <trkpt lat="46.40574" lon="5.98269">
        <ele>1242.2</ele>
        <time>2014-08-17T12:22:27.813Z</time>
      </trkpt>
      <trkpt lat="46.40565" lon="5.98252">
        <ele>1241.1</ele>
        <time>2014-08-17T12:22:30.721Z</time>
      </trkpt>
      <trkpt lat="46.40564" lon="5.98237">
        <ele>1238.1</ele>
        <time>2014-08-17T12:22:33.135Z</time>
      </trkpt>
      <trkpt lat="46.40567" lon="5.98223">
        <ele>1232.2</ele>
        <time>2014-08-17T12:22:36.016Z</time>
      </trkpt>
      <trkpt lat="46.40559" lon="5.98177">
        <ele>1214.7</ele>
        <time>2014-08-17T12:22:45.623Z</time>
      </trkpt>
      <trkpt lat="46.40555" lon="5.9816">
        <ele>1216</ele>
        <time>2014-08-17T12:22:48.973Z</time>
      </trkpt>
      <trkpt lat="46.40546" lon="5.98144">
        <ele>1218</ele>
        <time>2014-08-17T12:22:52.876Z</time>
      </trkpt>
      <trkpt lat="46.40539" lon="5.98135">
        <ele>1219</ele>
        <time>2014-08-17T12:22:55.240Z</time>
      </trkpt>
      <trkpt lat="46.40524" lon="5.9812">
        <ele>1218.9</ele>
        <time>2014-08-17T12:22:59.020Z</time>
      </trkpt>
      <trkpt lat="46.40488" lon="5.98071">
        <ele>1218.2</ele>
        <time>2014-08-17T12:23:12.487Z</time>
      </trkpt>
      <trkpt lat="46.40482" lon="5.9806">
        <ele>1219.1</ele>
        <time>2014-08-17T12:23:17.469Z</time>
      </trkpt>
      <trkpt lat="46.40473" lon="5.98052">
        <ele>1221.7</ele>
        <time>2014-08-17T12:23:25.245Z</time>
      </trkpt>
      <trkpt lat="46.40466" lon="5.98043">
        <ele>1226.2</ele>
        <time>2014-08-17T12:23:31.288Z</time>
      </trkpt>
      <trkpt lat="46.4044" lon="5.97999">
        <ele>1230.1</ele>
        <time>2014-08-17T12:23:49.835Z</time>
      </trkpt>
      <trkpt lat="46.40431" lon="5.97971">
        <ele>1225.6</ele>
        <time>2014-08-17T12:23:56.764Z</time>
      </trkpt>
      <trkpt lat="46.40421" lon="5.97946">
        <ele>1224.9</ele>
        <time>2014-08-17T12:24:05.662Z</time>
      </trkpt>
      <trkpt lat="46.40391" lon="5.97891">
        <ele>1233.9</ele>
        <time>2014-08-17T12:24:23.224Z</time>
      </trkpt>
      <trkpt lat="46.40381" lon="5.9788">
        <ele>1232.3</ele>
        <time>2014-08-17T12:24:27.560Z</time>
      </trkpt>
      <trkpt lat="46.40372" lon="5.97875">
        <ele>1231.8</ele>
        <time>2014-08-17T12:24:31.055Z</time>
      </trkpt>
      <trkpt lat="46.40361" lon="5.97871">
        <ele>1231.5</ele>
        <time>2014-08-17T12:24:34.370Z</time>
      </trkpt>
      <trkpt lat="46.4035" lon="5.97866">
        <ele>1230.3</ele>
        <time>2014-08-17T12:24:37.064Z</time>
      </trkpt>
      <trkpt lat="46.40338" lon="5.97859">
        <ele>1229.1</ele>
        <time>2014-08-17T12:24:39.086Z</time>
      </trkpt>
      <trkpt lat="46.40329" lon="5.97854">
        <ele>1229.1</ele>
        <time>2014-08-17T12:24:40.762Z</time>
      </trkpt>
      <trkpt lat="46.40299" lon="5.97829">
        <ele>1227.8</ele>
        <time>2014-08-17T12:24:54.517Z</time>
      </trkpt>
      <trkpt lat="46.40284" lon="5.97817">
        <ele>1227.2</ele>
        <time>2014-08-17T12:24:56.992Z</time>
      </trkpt>
      <trkpt lat="46.40274" lon="5.97812">
        <ele>1224.8</ele>
        <time>2014-08-17T12:24:58.373Z</time>
      </trkpt>
      <trkpt lat="46.40265" lon="5.97804">
        <ele>1220.7</ele>
        <time>2014-08-17T12:24:59.760Z</time>
      </trkpt>
      <trkpt lat="46.4021" lon="5.97715">
        <ele>1215.6</ele>
        <time>2014-08-17T12:25:47.842Z</time>
      </trkpt>
      <trkpt lat="46.40204" lon="5.97703">
        <ele>1217.2</ele>
        <time>2014-08-17T12:25:49.743Z</time>
      </trkpt>
      <trkpt lat="46.40198" lon="5.9769">
        <ele>1219</ele>
        <time>2014-08-17T12:25:51.549Z</time>
      </trkpt>
      <trkpt lat="46.4018" lon="5.97666">
        <ele>1220.1</ele>
        <time>2014-08-17T12:25:54.689Z</time>
      </trkpt>
      <trkpt lat="46.40152" lon="5.97619">
        <ele>1220</ele>
        <time>2014-08-17T12:25:59.501Z</time>
      </trkpt>
      <trkpt lat="46.4013" lon="5.97559">
        <ele>1215.7</ele>
        <time>2014-08-17T12:26:04.959Z</time>
      </trkpt>
      <trkpt lat="46.40116" lon="5.97546">
        <ele>1212.3</ele>
        <time>2014-08-17T12:26:06.970Z</time>
      </trkpt>
      <trkpt lat="46.40095" lon="5.97534">
        <ele>1210.2</ele>
        <time>2014-08-17T12:26:09.500Z</time>
      </trkpt>
      <trkpt lat="46.40083" lon="5.97522">
        <ele>1210.5</ele>
        <time>2014-08-17T12:26:11.190Z</time>
      </trkpt>
      <trkpt lat="46.40067" lon="5.975">
        <ele>1212.6</ele>
        <time>2014-08-17T12:26:13.748Z</time>
      </trkpt>
      <trkpt lat="46.39988" lon="5.97419">
        <ele>1195.1</ele>
        <time>2014-08-17T12:26:25.309Z</time>
      </trkpt>
      <trkpt lat="46.39961" lon="5.97366">
        <ele>1193.8</ele>
        <time>2014-08-17T12:26:30.962Z</time>
      </trkpt>
      <trkpt lat="46.39918" lon="5.97312">
        <ele>1187.1</ele>
        <time>2014-08-17T12:26:40.541Z</time>
      </trkpt>
      <trkpt lat="46.3991" lon="5.97296">
        <ele>1185.2</ele>
        <time>2014-08-17T12:26:43.011Z</time>
      </trkpt>
      <trkpt lat="46.3988" lon="5.97258">
        <ele>1175.7</ele>
        <time>2014-08-17T12:26:50.609Z</time>
      </trkpt>
      <trkpt lat="46.39856" lon="5.97244">
        <ele>1172.2</ele>
        <time>2014-08-17T12:26:55.750Z</time>
      </trkpt>
      <trkpt lat="46.39847" lon="5.97233">
        <ele>1170.8</ele>
        <time>2014-08-17T12:26:58.365Z</time>
      </trkpt>
      <trkpt lat="46.39844" lon="5.97221">
        <ele>1169.4</ele>
        <time>2014-08-17T12:27:00.718Z</time>
      </trkpt>
      <trkpt lat="46.39841" lon="5.97196">
        <ele>1169.2</ele>
        <time>2014-08-17T12:27:07.765Z</time>
      </trkpt>
      <trkpt lat="46.39841" lon="5.97172">
        <ele>1171.5</ele>
        <time>2014-08-17T12:27:17.328Z</time>
      </trkpt>
      <trkpt lat="46.3984" lon="5.97158">
        <ele>1175.7</ele>
        <time>2014-08-17T12:27:19.549Z</time>
      </trkpt>
      <trkpt lat="46.39837" lon="5.97146">
        <ele>1190</ele>
        <time>2014-08-17T12:27:21.594Z</time>
      </trkpt>
      <trkpt lat="46.39831" lon="5.97134">
        <ele>1207</ele>
        <time>2014-08-17T12:27:23.469Z</time>
      </trkpt>
      <trkpt lat="46.39804" lon="5.97096">
        <ele>1212.6</ele>
        <time>2014-08-17T12:27:32.874Z</time>
      </trkpt>
      <trkpt lat="46.39793" lon="5.97086">
        <ele>1212.3</ele>
        <time>2014-08-17T12:27:35.919Z</time>
      </trkpt>
      <trkpt lat="46.39789" lon="5.97073">
        <ele>1209.4</ele>
        <time>2014-08-17T12:27:38.266Z</time>
      </trkpt>
      <trkpt lat="46.39782" lon="5.9706">
        <ele>1206.3</ele>
        <time>2014-08-17T12:27:41.338Z</time>
      </trkpt>
      <trkpt lat="46.3977" lon="5.97046">
        <ele>1205.7</ele>
        <time>2014-08-17T12:27:44.805Z</time>
      </trkpt>
      <trkpt lat="46.39758" lon="5.97038">
        <ele>1207.1</ele>
        <time>2014-08-17T12:27:47.539Z</time>
      </trkpt>
      <trkpt lat="46.3973" lon="5.97012">
        <ele>1211.9</ele>
        <time>2014-08-17T12:27:53.358Z</time>
      </trkpt>
      <trkpt lat="46.39716" lon="5.96996">
        <ele>1212.1</ele>
        <time>2014-08-17T12:27:56.354Z</time>
      </trkpt>
      <trkpt lat="46.3969" lon="5.96957">
        <ele>1191.8</ele>
        <time>2014-08-17T12:28:03.088Z</time>
      </trkpt>
      <trkpt lat="46.39652" lon="5.96907">
        <ele>1180.6</ele>
        <time>2014-08-17T12:28:10.784Z</time>
      </trkpt>
      <trkpt lat="46.39645" lon="5.96886">
        <ele>1180.4</ele>
        <time>2014-08-17T12:28:13.590Z</time>
      </trkpt>
      <trkpt lat="46.39662" lon="5.96824">
        <ele>1173.2</ele>
        <time>2014-08-17T12:28:29.236Z</time>
      </trkpt>
      <trkpt lat="46.39663" lon="5.96807">
        <ele>1172.2</ele>
        <time>2014-08-17T12:28:30.770Z</time>
      </trkpt>
      <trkpt lat="46.39667" lon="5.96783">
        <ele>1169.1</ele>
        <time>2014-08-17T12:28:32.788Z</time>
      </trkpt>
      <trkpt lat="46.39665" lon="5.96762">
        <ele>1165.3</ele>
        <time>2014-08-17T12:28:34.474Z</time>
      </trkpt>
      <trkpt lat="46.39645" lon="5.96704">
        <ele>1163.3</ele>
        <time>2014-08-17T12:28:39.674Z</time>
      </trkpt>
      <trkpt lat="46.39633" lon="5.96682">
        <ele>1165.1</ele>
        <time>2014-08-17T12:28:41.819Z</time>
      </trkpt>
      <trkpt lat="46.39644" lon="5.96632">
        <ele>1167.2</ele>
        <time>2014-08-17T12:28:46.373Z</time>
      </trkpt>
      <trkpt lat="46.39643" lon="5.96606">
        <ele>1166.2</ele>
        <time>2014-08-17T12:28:48.774Z</time>
      </trkpt>
      <trkpt lat="46.39646" lon="5.96567">
        <ele>1163.1</ele>
        <time>2014-08-17T12:29:11.294Z</time>
      </trkpt>
      <trkpt lat="46.39644" lon="5.96554">
        <ele>1162.5</ele>
        <time>2014-08-17T12:29:14.760Z</time>
      </trkpt>
      <trkpt lat="46.39645" lon="5.96578">
        <ele>1159.4</ele>
        <time>2014-08-17T12:29:39.439Z</time>
      </trkpt>
      <trkpt lat="46.39639" lon="5.96593">
        <ele>1160</ele>
        <time>2014-08-17T12:29:42.521Z</time>
      </trkpt>
      <trkpt lat="46.3963" lon="5.96605">
        <ele>1161.3</ele>
        <time>2014-08-17T12:29:45.316Z</time>
      </trkpt>
      <trkpt lat="46.39619" lon="5.96617">
        <ele>1163.1</ele>
        <time>2014-08-17T12:29:48.215Z</time>
      </trkpt>
      <trkpt lat="46.39597" lon="5.96634">
        <ele>1164.9</ele>
        <time>2014-08-17T12:29:52.569Z</time>
      </trkpt>
      <trkpt lat="46.39569" lon="5.96661">
        <ele>1161.5</ele>
        <time>2014-08-17T12:29:58.124Z</time>
      </trkpt>
      <trkpt lat="46.3955" lon="5.96674">
        <ele>1160.4</ele>
        <time>2014-08-17T12:30:01.509Z</time>
      </trkpt>
      <trkpt lat="46.39539" lon="5.96678">
        <ele>1160</ele>
        <time>2014-08-17T12:30:03.772Z</time>
      </trkpt>
      <trkpt lat="46.39524" lon="5.96686">
        <ele>1158.7</ele>
        <time>2014-08-17T12:32:01.480Z</time>
      </trkpt>
      <trkpt lat="46.39516" lon="5.96694">
        <ele>1159.6</ele>
        <time>2014-08-17T12:32:04.179Z</time>
      </trkpt>
      <trkpt lat="46.39509" lon="5.96703">
        <ele>1162.9</ele>
        <time>2014-08-17T12:32:06.515Z</time>
      </trkpt>
      <trkpt lat="46.39504" lon="5.96718">
        <ele>1167.8</ele>
        <time>2014-08-17T12:32:09.163Z</time>
      </trkpt>
      <trkpt lat="46.39504" lon="5.96732">
        <ele>1172.2</ele>
        <time>2014-08-17T12:32:11.180Z</time>
      </trkpt>
      <trkpt lat="46.39499" lon="5.96749">
        <ele>1177</ele>
        <time>2014-08-17T12:32:13.863Z</time>
      </trkpt>
      <trkpt lat="46.39483" lon="5.96759">
        <ele>1183.1</ele>
        <time>2014-08-17T12:32:17.780Z</time>
      </trkpt>
      <trkpt lat="46.39463" lon="5.96777">
        <ele>1189</ele>
        <time>2014-08-17T12:32:26.020Z</time>
      </trkpt>
      <trkpt lat="46.39453" lon="5.9679">
        <ele>1183.5</ele>
        <time>2014-08-17T12:32:27.780Z</time>
      </trkpt>
      <trkpt lat="46.39423" lon="5.96811">
        <ele>1169.7</ele>
        <time>2014-08-17T12:32:52.878Z</time>
      </trkpt>
      <trkpt lat="46.39413" lon="5.96812">
        <ele>1172.6</ele>
        <time>2014-08-17T12:32:56.206Z</time>
      </trkpt>
      <trkpt lat="46.39402" lon="5.96809">
        <ele>1175.1</ele>
        <time>2014-08-17T12:32:59.539Z</time>
      </trkpt>
      <trkpt lat="46.39388" lon="5.96809">
        <ele>1174.8</ele>
        <time>2014-08-17T12:33:03.303Z</time>
      </trkpt>
      <trkpt lat="46.39376" lon="5.9681">
        <ele>1170.6</ele>
        <time>2014-08-17T12:33:06.265Z</time>
      </trkpt>
      <trkpt lat="46.39366" lon="5.96809">
        <ele>1164.5</ele>
        <time>2014-08-17T12:33:08.667Z</time>
      </trkpt>
      <trkpt lat="46.39352" lon="5.96809">
        <ele>1160.2</ele>
        <time>2014-08-17T12:33:12.047Z</time>
      </trkpt>
      <trkpt lat="46.39342" lon="5.96812">
        <ele>1158.2</ele>
        <time>2014-08-17T12:33:14.758Z</time>
      </trkpt>
      <trkpt lat="46.39332" lon="5.96818">
        <ele>1157</ele>
        <time>2014-08-17T12:33:17.624Z</time>
      </trkpt>
      <trkpt lat="46.39321" lon="5.96823">
        <ele>1156.1</ele>
        <time>2014-08-17T12:33:20.997Z</time>
      </trkpt>
      <trkpt lat="46.39308" lon="5.96823">
        <ele>1155.3</ele>
        <time>2014-08-17T12:33:24.636Z</time>
      </trkpt>
      <trkpt lat="46.39299" lon="5.96825">
        <ele>1153.7</ele>
        <time>2014-08-17T12:33:27.239Z</time>
      </trkpt>
      <trkpt lat="46.39284" lon="5.96826">
        <ele>1151.4</ele>
        <time>2014-08-17T12:33:31.218Z</time>
      </trkpt>
      <trkpt lat="46.39268" lon="5.96825">
        <ele>1151</ele>
        <time>2014-08-17T12:33:35.384Z</time>
      </trkpt>
      <trkpt lat="46.39252" lon="5.96828">
        <ele>1154</ele>
        <time>2014-08-17T12:33:39.683Z</time>
      </trkpt>
      <trkpt lat="46.39242" lon="5.96831">
        <ele>1157.3</ele>
        <time>2014-08-17T12:33:42.247Z</time>
      </trkpt>
      <trkpt lat="46.39209" lon="5.96833">
        <ele>1154.9</ele>
        <time>2014-08-17T12:33:49.596Z</time>
      </trkpt>
      <trkpt lat="46.39143" lon="5.96848">
        <ele>1149.7</ele>
        <time>2014-08-17T12:34:04.338Z</time>
      </trkpt>
      <trkpt lat="46.39123" lon="5.96855">
        <ele>1150.5</ele>
        <time>2014-08-17T12:34:09.777Z</time>
      </trkpt>
      <trkpt lat="46.39105" lon="5.96856">
        <ele>1150.5</ele>
        <time>2014-08-17T12:34:21.007Z</time>
      </trkpt>
      <trkpt lat="46.39094" lon="5.96854">
        <ele>1150.9</ele>
        <time>2014-08-17T12:34:25.652Z</time>
      </trkpt>
      <trkpt lat="46.39084" lon="5.96852">
        <ele>1154.1</ele>
        <time>2014-08-17T12:34:30.251Z</time>
      </trkpt>
      <trkpt lat="46.39074" lon="5.96847">
        <ele>1159</ele>
        <time>2014-08-17T12:34:35.734Z</time>
      </trkpt>
      <trkpt lat="46.39064" lon="5.96841">
        <ele>1162.8</ele>
        <time>2014-08-17T12:34:41.262Z</time>
      </trkpt>
      <trkpt lat="46.39025" lon="5.96828">
        <ele>1173.9</ele>
        <time>2014-08-17T12:35:01.650Z</time>
      </trkpt>
      <trkpt lat="46.39016" lon="5.96832">
        <ele>1173.7</ele>
        <time>2014-08-17T12:35:06.508Z</time>
      </trkpt>
      <trkpt lat="46.39007" lon="5.96839">
        <ele>1173.2</ele>
        <time>2014-08-17T12:35:12.267Z</time>
      </trkpt>
      <trkpt lat="46.39002" lon="5.96852">
        <ele>1173.5</ele>
        <time>2014-08-17T12:35:17.915Z</time>
      </trkpt>
      <trkpt lat="46.39002" lon="5.96866">
        <ele>1174.2</ele>
        <time>2014-08-17T12:35:23.947Z</time>
      </trkpt>
      <trkpt lat="46.38998" lon="5.96878">
        <ele>1174.9</ele>
        <time>2014-08-17T12:35:30.255Z</time>
      </trkpt>
      <trkpt lat="46.38988" lon="5.96881">
        <ele>1175.4</ele>
        <time>2014-08-17T12:35:37.539Z</time>
      </trkpt>
      <trkpt lat="46.38969" lon="5.96883">
        <ele>1176.5</ele>
        <time>2014-08-17T12:35:49.234Z</time>
      </trkpt>
      <trkpt lat="46.38958" lon="5.96881">
        <ele>1178</ele>
        <time>2014-08-17T12:35:55.766Z</time>
      </trkpt>
      <trkpt lat="46.38941" lon="5.96871">
        <ele>1181.1</ele>
        <time>2014-08-17T12:37:14.767Z</time>
      </trkpt>
      <trkpt lat="46.38918" lon="5.9687">
        <ele>1191.7</ele>
        <time>2014-08-17T12:37:38.147Z</time>
      </trkpt>
      <trkpt lat="46.38901" lon="5.96859">
        <ele>1184.4</ele>
        <time>2014-08-17T12:37:51.180Z</time>
      </trkpt>
      <trkpt lat="46.38884" lon="5.96839">
        <ele>1181.6</ele>
        <time>2014-08-17T12:37:59.095Z</time>
      </trkpt>
      <trkpt lat="46.38874" lon="5.96816">
        <ele>1181.2</ele>
        <time>2014-08-17T12:38:04.074Z</time>
      </trkpt>
      <trkpt lat="46.38849" lon="5.96729">
        <ele>1181.2</ele>
        <time>2014-08-17T12:38:24.993Z</time>
      </trkpt>
      <trkpt lat="46.3884" lon="5.96663">
        <ele>1181.8</ele>
        <time>2014-08-17T12:38:35.180Z</time>
      </trkpt>
      <trkpt lat="46.38834" lon="5.96643">
        <ele>1181.4</ele>
        <time>2014-08-17T12:38:37.968Z</time>
      </trkpt>
      <trkpt lat="46.38798" lon="5.96592">
        <ele>1179.1</ele>
        <time>2014-08-17T12:38:46.558Z</time>
      </trkpt>
      <trkpt lat="46.38792" lon="5.96567">
        <ele>1177.9</ele>
        <time>2014-08-17T12:38:48.722Z</time>
      </trkpt>
      <trkpt lat="46.38785" lon="5.96549">
        <ele>1175.1</ele>
        <time>2014-08-17T12:38:50.672Z</time>
      </trkpt>
      <trkpt lat="46.38766" lon="5.96532">
        <ele>1171.5</ele>
        <time>2014-08-17T12:38:53.660Z</time>
      </trkpt>
      <trkpt lat="46.38753" lon="5.96522">
        <ele>1168.3</ele>
        <time>2014-08-17T12:38:55.546Z</time>
      </trkpt>
      <trkpt lat="46.38711" lon="5.96447">
        <ele>1163.4</ele>
        <time>2014-08-17T12:39:03.656Z</time>
      </trkpt>
      <trkpt lat="46.38691" lon="5.96391">
        <ele>1159.8</ele>
        <time>2014-08-17T12:39:08.980Z</time>
      </trkpt>
      <trkpt lat="46.38646" lon="5.96337">
        <ele>1155.1</ele>
        <time>2014-08-17T12:39:15.767Z</time>
      </trkpt>
      <trkpt lat="46.38619" lon="5.96296">
        <ele>1154.3</ele>
        <time>2014-08-17T12:39:22.044Z</time>
      </trkpt>
      <trkpt lat="46.38591" lon="5.96261">
        <ele>1154</ele>
        <time>2014-08-17T12:39:30.294Z</time>
      </trkpt>
      <trkpt lat="46.3858" lon="5.9624">
        <ele>1153.5</ele>
        <time>2014-08-17T12:39:32.941Z</time>
      </trkpt>
      <trkpt lat="46.38566" lon="5.96226">
        <ele>1152.7</ele>
        <time>2014-08-17T12:39:34.906Z</time>
      </trkpt>
      <trkpt lat="46.38543" lon="5.96217">
        <ele>1151.4</ele>
        <time>2014-08-17T12:39:37.607Z</time>
      </trkpt>
      <trkpt lat="46.38526" lon="5.96207">
        <ele>1149.4</ele>
        <time>2014-08-17T12:39:39.560Z</time>
      </trkpt>
      <trkpt lat="46.38498" lon="5.96188">
        <ele>1147.1</ele>
        <time>2014-08-17T12:39:42.876Z</time>
      </trkpt>
      <trkpt lat="46.38458" lon="5.96142">
        <ele>1141.5</ele>
        <time>2014-08-17T12:39:49.034Z</time>
      </trkpt>
      <trkpt lat="46.38444" lon="5.96138">
        <ele>1138.6</ele>
        <time>2014-08-17T12:39:50.899Z</time>
      </trkpt>
      <trkpt lat="46.38429" lon="5.96139">
        <ele>1136.2</ele>
        <time>2014-08-17T12:39:52.995Z</time>
      </trkpt>
      <trkpt lat="46.3841" lon="5.96149">
        <ele>1134.3</ele>
        <time>2014-08-17T12:39:56.791Z</time>
      </trkpt>
      <trkpt lat="46.38399" lon="5.9615">
        <ele>1132.3</ele>
        <time>2014-08-17T12:39:59.587Z</time>
      </trkpt>
      <trkpt lat="46.38399" lon="5.9613">
        <ele>1129.4</ele>
        <time>2014-08-17T12:40:04.307Z</time>
      </trkpt>
      <trkpt lat="46.38394" lon="5.96119">
        <ele>1126.3</ele>
        <time>2014-08-17T12:40:07.942Z</time>
      </trkpt>
      <trkpt lat="46.38385" lon="5.96111">
        <ele>1123.9</ele>
        <time>2014-08-17T12:40:14.866Z</time>
      </trkpt>
      <trkpt lat="46.3837" lon="5.96091">
        <ele>1122.3</ele>
        <time>2014-08-17T12:40:27.723Z</time>
      </trkpt>
      <trkpt lat="46.38361" lon="5.96087">
        <ele>1122.4</ele>
        <time>2014-08-17T12:40:33.893Z</time>
      </trkpt>
      <trkpt lat="46.38336" lon="5.96069">
        <ele>1124.9</ele>
        <time>2014-08-17T12:40:52.707Z</time>
      </trkpt>
      <trkpt lat="46.38327" lon="5.96061">
        <ele>1126.6</ele>
        <time>2014-08-17T12:41:01.204Z</time>
      </trkpt>
      <trkpt lat="46.38317" lon="5.96044">
        <ele>1129.5</ele>
        <time>2014-08-17T12:41:12.766Z</time>
      </trkpt>
      <trkpt lat="46.3832" lon="5.96016">
        <ele>1131.8</ele>
        <time>2014-08-17T12:41:57.306Z</time>
      </trkpt>
      <trkpt lat="46.38317" lon="5.95983">
        <ele>1137.7</ele>
        <time>2014-08-17T12:42:11.232Z</time>
      </trkpt>
      <trkpt lat="46.38309" lon="5.95966">
        <ele>1140.8</ele>
        <time>2014-08-17T12:42:19.764Z</time>
      </trkpt>
      <trkpt lat="46.38286" lon="5.95978">
        <ele>1142.7</ele>
        <time>2014-08-17T12:44:39.153Z</time>
      </trkpt>
      <trkpt lat="46.38277" lon="5.95968">
        <ele>1143.3</ele>
        <time>2014-08-17T12:44:45.133Z</time>
      </trkpt>
      <trkpt lat="46.38273" lon="5.95955">
        <ele>1146.4</ele>
        <time>2014-08-17T12:44:49.142Z</time>
      </trkpt>
      <trkpt lat="46.38267" lon="5.95927">
        <ele>1159.5</ele>
        <time>2014-08-17T12:44:56.770Z</time>
      </trkpt>
      <trkpt lat="46.38262" lon="5.95878">
        <ele>1161.1</ele>
        <time>2014-08-17T12:45:58.004Z</time>
      </trkpt>
      <trkpt lat="46.38264" lon="5.95834">
        <ele>1163.1</ele>
        <time>2014-08-17T12:46:16.771Z</time>
      </trkpt>
      <trkpt lat="46.38263" lon="5.95807">
        <ele>1160.8</ele>
        <time>2014-08-17T12:46:53.605Z</time>
      </trkpt>
      <trkpt lat="46.38264" lon="5.95794">
        <ele>1162.9</ele>
        <time>2014-08-17T12:46:57.722Z</time>
      </trkpt>
      <trkpt lat="46.38262" lon="5.95781">
        <ele>1168</ele>
        <time>2014-08-17T12:47:01.771Z</time>
      </trkpt>
      <trkpt lat="46.3825" lon="5.95776">
        <ele>1175</ele>
        <time>2014-08-17T12:48:09.717Z</time>
      </trkpt>
      <trkpt lat="46.38238" lon="5.95797">
        <ele>1183.2</ele>
        <time>2014-08-17T12:48:25.845Z</time>
      </trkpt>
      <trkpt lat="46.3823" lon="5.95805">
        <ele>1191.2</ele>
        <time>2014-08-17T12:48:32.546Z</time>
      </trkpt>
      <trkpt lat="46.38225" lon="5.95817">
        <ele>1195.3</ele>
        <time>2014-08-17T12:48:39.130Z</time>
      </trkpt>
      <trkpt lat="46.38218" lon="5.95842">
        <ele>1193.3</ele>
        <time>2014-08-17T12:48:50.666Z</time>
      </trkpt>
      <trkpt lat="46.38212" lon="5.95852">
        <ele>1191.2</ele>
        <time>2014-08-17T12:48:57.718Z</time>
      </trkpt>
      <trkpt lat="46.38204" lon="5.95859">
        <ele>1192.9</ele>
        <time>2014-08-17T12:49:06.386Z</time>
      </trkpt>
      <trkpt lat="46.38198" lon="5.95869">
        <ele>1195.8</ele>
        <time>2014-08-17T12:49:14.888Z</time>
      </trkpt>
      <trkpt lat="46.38184" lon="5.95908">
        <ele>1194.4</ele>
        <time>2014-08-17T12:49:31.708Z</time>
      </trkpt>
      <trkpt lat="46.38181" lon="5.95922">
        <ele>1191.6</ele>
        <time>2014-08-17T12:49:36.285Z</time>
      </trkpt>
      <trkpt lat="46.38173" lon="5.95932">
        <ele>1190.2</ele>
        <time>2014-08-17T12:49:41.650Z</time>
      </trkpt>
      <trkpt lat="46.38147" lon="5.95946">
        <ele>1189.3</ele>
        <time>2014-08-17T12:50:05.732Z</time>
      </trkpt>
      <trkpt lat="46.38138" lon="5.95954">
        <ele>1188.1</ele>
        <time>2014-08-17T12:50:10.872Z</time>
      </trkpt>
      <trkpt lat="46.38118" lon="5.95981">
        <ele>1182.4</ele>
        <time>2014-08-17T12:50:19.769Z</time>
      </trkpt>
      <trkpt lat="46.38112" lon="5.95991">
        <ele>1180.4</ele>
        <time>2014-08-17T12:50:22.673Z</time>
      </trkpt>
      <trkpt lat="46.38101" lon="5.96018">
        <ele>1179.9</ele>
        <time>2014-08-17T12:50:28.466Z</time>
      </trkpt>
      <trkpt lat="46.38096" lon="5.96051">
        <ele>1177.3</ele>
        <time>2014-08-17T12:50:33.873Z</time>
      </trkpt>
      <trkpt lat="46.38093" lon="5.96104">
        <ele>1176</ele>
        <time>2014-08-17T12:50:41.943Z</time>
      </trkpt>
      <trkpt lat="46.38085" lon="5.9615">
        <ele>1176.6</ele>
        <time>2014-08-17T12:50:49.878Z</time>
      </trkpt>
      <trkpt lat="46.3808" lon="5.96164">
        <ele>1176.5</ele>
        <time>2014-08-17T12:50:52.645Z</time>
      </trkpt>
      <trkpt lat="46.3792" lon="5.96538">
        <ele>1172.2</ele>
        <time>2014-08-17T12:51:56.324Z</time>
      </trkpt>
      <trkpt lat="46.37912" lon="5.96551">
        <ele>1172.2</ele>
        <time>2014-08-17T12:51:59.280Z</time>
      </trkpt>
      <trkpt lat="46.37905" lon="5.9656">
        <ele>1172.2</ele>
        <time>2014-08-17T12:52:01.550Z</time>
      </trkpt>
      <trkpt lat="46.37724" lon="5.96729">
        <ele>1177.5</ele>
        <time>2014-08-17T12:52:52.243Z</time>
      </trkpt>
      <trkpt lat="46.37716" lon="5.96736">
        <ele>1177.3</ele>
        <time>2014-08-17T12:52:56.016Z</time>
      </trkpt>
      <trkpt lat="46.37705" lon="5.96742">
        <ele>1177.6</ele>
        <time>2014-08-17T12:53:00.967Z</time>
      </trkpt>
      <trkpt lat="46.37643" lon="5.96817">
        <ele>1177.9</ele>
        <time>2014-08-17T12:53:27.891Z</time>
      </trkpt>
      <trkpt lat="46.37636" lon="5.96829">
        <ele>1177.6</ele>
        <time>2014-08-17T12:53:30.930Z</time>
      </trkpt>
      <trkpt lat="46.3756" lon="5.96999">
        <ele>1174.8</ele>
        <time>2014-08-17T12:54:12.631Z</time>
      </trkpt>
      <trkpt lat="46.37514" lon="5.97194">
        <ele>1173.2</ele>
        <time>2014-08-17T12:54:41.998Z</time>
      </trkpt>
      <trkpt lat="46.37487" lon="5.97252">
        <ele>1172.2</ele>
        <time>2014-08-17T12:54:52.010Z</time>
      </trkpt>
      <trkpt lat="46.37481" lon="5.97262">
        <ele>1172.6</ele>
        <time>2014-08-17T12:54:54.778Z</time>
      </trkpt>
      <trkpt lat="46.37465" lon="5.97317">
        <ele>1171.3</ele>
        <time>2014-08-17T12:55:33.326Z</time>
      </trkpt>
      <trkpt lat="46.37463" lon="5.97333">
        <ele>1171.4</ele>
        <time>2014-08-17T12:55:36.407Z</time>
      </trkpt>
      <trkpt lat="46.37462" lon="5.97379">
        <ele>1173.7</ele>
        <time>2014-08-17T12:55:45.309Z</time>
      </trkpt>
      <trkpt lat="46.37443" lon="5.97554">
        <ele>1175</ele>
        <time>2014-08-17T12:56:14.210Z</time>
      </trkpt>
      <trkpt lat="46.37433" lon="5.97555">
        <ele>1174.4</ele>
        <time>2014-08-17T12:56:16.879Z</time>
      </trkpt>
      <trkpt lat="46.37416" lon="5.97552">
        <ele>1174.4</ele>
        <time>2014-08-17T12:56:20.147Z</time>
      </trkpt>
      <trkpt lat="46.37404" lon="5.97539">
        <ele>1173.9</ele>
        <time>2014-08-17T12:56:22.815Z</time>
      </trkpt>
      <trkpt lat="46.3736" lon="5.97471">
        <ele>1169.2</ele>
        <time>2014-08-17T12:56:35.253Z</time>
      </trkpt>
      <trkpt lat="46.37351" lon="5.97455">
        <ele>1169.1</ele>
        <time>2014-08-17T12:56:38.155Z</time>
      </trkpt>
      <trkpt lat="46.37338" lon="5.97419">
        <ele>1168.5</ele>
        <time>2014-08-17T12:56:44.050Z</time>
      </trkpt>
      <trkpt lat="46.37317" lon="5.97335">
        <ele>1168.8</ele>
        <time>2014-08-17T12:56:56.565Z</time>
      </trkpt>
      <trkpt lat="46.37309" lon="5.97318">
        <ele>1169.5</ele>
        <time>2014-08-17T12:56:59.466Z</time>
      </trkpt>
      <trkpt lat="46.37301" lon="5.97303">
        <ele>1169.7</ele>
        <time>2014-08-17T12:57:02.198Z</time>
      </trkpt>
      <trkpt lat="46.37125" lon="5.97077">
        <ele>1169.4</ele>
        <time>2014-08-17T12:57:51.955Z</time>
      </trkpt>
      <trkpt lat="46.37036" lon="5.96925">
        <ele>1169.5</ele>
        <time>2014-08-17T12:58:22.592Z</time>
      </trkpt>
      <trkpt lat="46.3701" lon="5.96894">
        <ele>1169.7</ele>
        <time>2014-08-17T12:58:29.612Z</time>
      </trkpt>
      <trkpt lat="46.36884" lon="5.96767">
        <ele>1164</ele>
        <time>2014-08-17T12:58:53.266Z</time>
      </trkpt>
      <trkpt lat="46.36873" lon="5.96745">
        <ele>1162.8</ele>
        <time>2014-08-17T12:58:55.381Z</time>
      </trkpt>
      <trkpt lat="46.3686" lon="5.96686">
        <ele>1161.6</ele>
        <time>2014-08-17T12:59:00.699Z</time>
      </trkpt>
      <trkpt lat="46.36839" lon="5.96562">
        <ele>1161.8</ele>
        <time>2014-08-17T12:59:13.787Z</time>
      </trkpt>
      <trkpt lat="46.36801" lon="5.9641">
        <ele>1159.8</ele>
        <time>2014-08-17T12:59:45.835Z</time>
      </trkpt>
      <trkpt lat="46.36797" lon="5.96353">
        <ele>1163</ele>
        <time>2014-08-17T13:00:01.087Z</time>
      </trkpt>
      <trkpt lat="46.36754" lon="5.96257">
        <ele>1167.2</ele>
        <time>2014-08-17T13:00:32.687Z</time>
      </trkpt>
      <trkpt lat="46.36726" lon="5.96206">
        <ele>1171.3</ele>
        <time>2014-08-17T13:00:49.793Z</time>
      </trkpt>
      <trkpt lat="46.36708" lon="5.96186">
        <ele>1170.5</ele>
        <time>2014-08-17T13:00:57.494Z</time>
      </trkpt>
      <trkpt lat="46.3666" lon="5.96138">
        <ele>1176.8</ele>
        <time>2014-08-17T13:01:19.918Z</time>
      </trkpt>
      <trkpt lat="46.36613" lon="5.96082">
        <ele>1178.5</ele>
        <time>2014-08-17T13:01:42.820Z</time>
      </trkpt>
      <trkpt lat="46.36606" lon="5.96072">
        <ele>1180.2</ele>
        <time>2014-08-17T13:01:46.621Z</time>
      </trkpt>
      <trkpt lat="46.36598" lon="5.96064">
        <ele>1181.6</ele>
        <time>2014-08-17T13:01:50.430Z</time>
      </trkpt>
      <trkpt lat="46.3659" lon="5.96057">
        <ele>1182.6</ele>
        <time>2014-08-17T13:01:54.336Z</time>
      </trkpt>
      <trkpt lat="46.3658" lon="5.96052">
        <ele>1183.5</ele>
        <time>2014-08-17T13:01:58.461Z</time>
      </trkpt>
      <trkpt lat="46.36572" lon="5.96046">
        <ele>1183.9</ele>
        <time>2014-08-17T13:02:02.160Z</time>
      </trkpt>
      <trkpt lat="46.36554" lon="5.96037">
        <ele>1182.9</ele>
        <time>2014-08-17T13:02:10.007Z</time>
      </trkpt>
      <trkpt lat="46.36539" lon="5.9602">
        <ele>1183.6</ele>
        <time>2014-08-17T13:02:18.670Z</time>
      </trkpt>
      <trkpt lat="46.3652" lon="5.96012">
        <ele>1186</ele>
        <time>2014-08-17T13:02:28.925Z</time>
      </trkpt>
      <trkpt lat="46.36511" lon="5.9601">
        <ele>1187.4</ele>
        <time>2014-08-17T13:02:34.379Z</time>
      </trkpt>
      <trkpt lat="46.36502" lon="5.96005">
        <ele>1188.9</ele>
        <time>2014-08-17T13:02:40.255Z</time>
      </trkpt>
      <trkpt lat="46.36495" lon="5.95996">
        <ele>1190.2</ele>
        <time>2014-08-17T13:02:46.433Z</time>
      </trkpt>
      <trkpt lat="46.36492" lon="5.95984">
        <ele>1191.8</ele>
        <time>2014-08-17T13:02:51.986Z</time>
      </trkpt>
      <trkpt lat="46.36488" lon="5.95971">
        <ele>1192.3</ele>
        <time>2014-08-17T13:02:58.166Z</time>
      </trkpt>
      <trkpt lat="46.36482" lon="5.95959">
        <ele>1193.4</ele>
        <time>2014-08-17T13:03:03.921Z</time>
      </trkpt>
      <trkpt lat="46.36477" lon="5.95946">
        <ele>1194.7</ele>
        <time>2014-08-17T13:03:09.702Z</time>
      </trkpt>
      <trkpt lat="46.36469" lon="5.95939">
        <ele>1196.1</ele>
        <time>2014-08-17T13:03:15.680Z</time>
      </trkpt>
      <trkpt lat="46.36459" lon="5.95934">
        <ele>1197.6</ele>
        <time>2014-08-17T13:03:22.481Z</time>
      </trkpt>
      <trkpt lat="46.36415" lon="5.95878">
        <ele>1201</ele>
        <time>2014-08-17T13:04:04.667Z</time>
      </trkpt>
      <trkpt lat="46.36397" lon="5.95865">
        <ele>1201.2</ele>
        <time>2014-08-17T13:04:14.588Z</time>
      </trkpt>
      <trkpt lat="46.36389" lon="5.95856">
        <ele>1202.6</ele>
        <time>2014-08-17T13:04:19.109Z</time>
      </trkpt>
      <trkpt lat="46.36384" lon="5.95845">
        <ele>1203.9</ele>
        <time>2014-08-17T13:04:23.331Z</time>
      </trkpt>
      <trkpt lat="46.36379" lon="5.95832">
        <ele>1205</ele>
        <time>2014-08-17T13:04:27.915Z</time>
      </trkpt>
      <trkpt lat="46.36378" lon="5.95802">
        <ele>1208.5</ele>
        <time>2014-08-17T13:04:36.654Z</time>
      </trkpt>
      <trkpt lat="46.36379" lon="5.95788">
        <ele>1210.6</ele>
        <time>2014-08-17T13:04:40.779Z</time>
      </trkpt>
      <trkpt lat="46.36384" lon="5.95764">
        <ele>1211.6</ele>
        <time>2014-08-17T13:04:52.074Z</time>
      </trkpt>
      <trkpt lat="46.36416" lon="5.9568">
        <ele>1209.2</ele>
        <time>2014-08-17T13:05:45.810Z</time>
      </trkpt>
      <trkpt lat="46.36432" lon="5.95669">
        <ele>1208.4</ele>
        <time>2014-08-17T13:05:49.260Z</time>
      </trkpt>
      <trkpt lat="46.36455" lon="5.95661">
        <ele>1208.2</ele>
        <time>2014-08-17T13:05:55.099Z</time>
      </trkpt>
      <trkpt lat="46.36463" lon="5.95652">
        <ele>1209.1</ele>
        <time>2014-08-17T13:05:58.305Z</time>
      </trkpt>
      <trkpt lat="46.36462" lon="5.95637">
        <ele>1210.2</ele>
        <time>2014-08-17T13:06:02.434Z</time>
      </trkpt>
      <trkpt lat="46.36448" lon="5.95619">
        <ele>1212.3</ele>
        <time>2014-08-17T13:06:09.463Z</time>
      </trkpt>
      <trkpt lat="46.36438" lon="5.95613">
        <ele>1213.1</ele>
        <time>2014-08-17T13:06:13.321Z</time>
      </trkpt>
      <trkpt lat="46.36418" lon="5.9561">
        <ele>1214.3</ele>
        <time>2014-08-17T13:06:21.777Z</time>
      </trkpt>
      <trkpt lat="46.36368" lon="5.9559">
        <ele>1218.3</ele>
        <time>2014-08-17T13:07:32.895Z</time>
      </trkpt>
      <trkpt lat="46.3633" lon="5.9558">
        <ele>1220.5</ele>
        <time>2014-08-17T13:07:49.261Z</time>
      </trkpt>
      <trkpt lat="46.36304" lon="5.95563">
        <ele>1223.6</ele>
        <time>2014-08-17T13:08:01.070Z</time>
      </trkpt>
      <trkpt lat="46.36294" lon="5.95563">
        <ele>1224.4</ele>
        <time>2014-08-17T13:08:04.919Z</time>
      </trkpt>
      <trkpt lat="46.36284" lon="5.9556">
        <ele>1224.5</ele>
        <time>2014-08-17T13:08:09.419Z</time>
      </trkpt>
      <trkpt lat="46.36274" lon="5.95559">
        <ele>1224.7</ele>
        <time>2014-08-17T13:08:12.958Z</time>
      </trkpt>
      <trkpt lat="46.36198" lon="5.95534">
        <ele>1226.5</ele>
        <time>2014-08-17T13:08:36.782Z</time>
      </trkpt>
      <trkpt lat="46.36189" lon="5.95533">
        <ele>1226.7</ele>
        <time>2014-08-17T13:08:39.424Z</time>
      </trkpt>
      <trkpt lat="46.36167" lon="5.95528">
        <ele>1227.9</ele>
        <time>2014-08-17T13:08:45.781Z</time>
      </trkpt>
      <trkpt lat="46.36149" lon="5.95519">
        <ele>1228.3</ele>
        <time>2014-08-17T13:08:55.260Z</time>
      </trkpt>
      <trkpt lat="46.36122" lon="5.95502">
        <ele>1228.9</ele>
        <time>2014-08-17T13:09:05.736Z</time>
      </trkpt>
      <trkpt lat="46.36105" lon="5.95488">
        <ele>1230.8</ele>
        <time>2014-08-17T13:09:13.230Z</time>
      </trkpt>
      <trkpt lat="46.36082" lon="5.95458">
        <ele>1235.3</ele>
        <time>2014-08-17T13:09:25.689Z</time>
      </trkpt>
      <trkpt lat="46.36061" lon="5.95425">
        <ele>1234.8</ele>
        <time>2014-08-17T13:09:37.783Z</time>
      </trkpt>
      <trkpt lat="46.3604" lon="5.95412">
        <ele>1233.2</ele>
        <time>2014-08-17T13:09:50.687Z</time>
      </trkpt>
      <trkpt lat="46.36029" lon="5.95412">
        <ele>1233.6</ele>
        <time>2014-08-17T13:09:54.338Z</time>
      </trkpt>
      <trkpt lat="46.36007" lon="5.95406">
        <ele>1235.9</ele>
        <time>2014-08-17T13:10:01.549Z</time>
      </trkpt>
      <trkpt lat="46.35999" lon="5.95402">
        <ele>1237.2</ele>
        <time>2014-08-17T13:10:04.781Z</time>
      </trkpt>
      <trkpt lat="46.35994" lon="5.95387">
        <ele>1237</ele>
        <time>2014-08-17T13:11:13.894Z</time>
      </trkpt>
      <trkpt lat="46.35994" lon="5.9536">
        <ele>1239.4</ele>
        <time>2014-08-17T13:11:33.844Z</time>
      </trkpt>
      <trkpt lat="46.35989" lon="5.95333">
        <ele>1243</ele>
        <time>2014-08-17T13:12:07.448Z</time>
      </trkpt>
      <trkpt lat="46.35981" lon="5.95308">
        <ele>1248.8</ele>
        <time>2014-08-17T13:12:29.781Z</time>
      </trkpt>
      <trkpt lat="46.35976" lon="5.95296">
        <ele>1248.6</ele>
        <time>2014-08-17T13:13:11.305Z</time>
      </trkpt>
      <trkpt lat="46.35969" lon="5.95286">
        <ele>1248.6</ele>
        <time>2014-08-17T13:13:17.354Z</time>
      </trkpt>
      <trkpt lat="46.35961" lon="5.95279">
        <ele>1249.5</ele>
        <time>2014-08-17T13:13:22.641Z</time>
      </trkpt>
      <trkpt lat="46.35952" lon="5.95276">
        <ele>1250.7</ele>
        <time>2014-08-17T13:13:27.778Z</time>
      </trkpt>
      <trkpt lat="46.35942" lon="5.95273">
        <ele>1251.6</ele>
        <time>2014-08-17T13:13:32.952Z</time>
      </trkpt>
      <trkpt lat="46.35924" lon="5.95263">
        <ele>1252.5</ele>
        <time>2014-08-17T13:13:42.067Z</time>
      </trkpt>
      <trkpt lat="46.35915" lon="5.95258">
        <ele>1252.6</ele>
        <time>2014-08-17T13:13:46.714Z</time>
      </trkpt>
      <trkpt lat="46.35889" lon="5.95239">
        <ele>1251.3</ele>
        <time>2014-08-17T13:14:00.963Z</time>
      </trkpt>
      <trkpt lat="46.35879" lon="5.95234">
        <ele>1251.5</ele>
        <time>2014-08-17T13:14:06.015Z</time>
      </trkpt>
      <trkpt lat="46.35861" lon="5.95227">
        <ele>1253.1</ele>
        <time>2014-08-17T13:14:15.556Z</time>
      </trkpt>
      <trkpt lat="46.35775" lon="5.95164">
        <ele>1252</ele>
        <time>2014-08-17T13:14:52.341Z</time>
      </trkpt>
      <trkpt lat="46.35766" lon="5.9516">
        <ele>1252.8</ele>
        <time>2014-08-17T13:14:58.738Z</time>
      </trkpt>
      <trkpt lat="46.35757" lon="5.95153">
        <ele>1253.4</ele>
        <time>2014-08-17T13:15:05.951Z</time>
      </trkpt>
      <trkpt lat="46.35743" lon="5.95134">
        <ele>1255.1</ele>
        <time>2014-08-17T13:15:19.192Z</time>
      </trkpt>
      <trkpt lat="46.35735" lon="5.95126">
        <ele>1256.2</ele>
        <time>2014-08-17T13:15:25.079Z</time>
      </trkpt>
      <trkpt lat="46.35725" lon="5.95123">
        <ele>1256.6</ele>
        <time>2014-08-17T13:15:31.294Z</time>
      </trkpt>
      <trkpt lat="46.35719" lon="5.95113">
        <ele>1256</ele>
        <time>2014-08-17T13:15:37.781Z</time>
      </trkpt>
      <trkpt lat="46.35715" lon="5.951">
        <ele>1253.6</ele>
        <time>2014-08-17T13:15:55.787Z</time>
      </trkpt>
      <trkpt lat="46.35706" lon="5.95089">
        <ele>1252.8</ele>
        <time>2014-08-17T13:16:22.682Z</time>
      </trkpt>
      <trkpt lat="46.35694" lon="5.95067">
        <ele>1258</ele>
        <time>2014-08-17T13:16:32.965Z</time>
      </trkpt>
      <trkpt lat="46.35691" lon="5.95053">
        <ele>1260.8</ele>
        <time>2014-08-17T13:16:36.784Z</time>
      </trkpt>
      <trkpt lat="46.35685" lon="5.9504">
        <ele>1261.1</ele>
        <time>2014-08-17T13:18:20.791Z</time>
      </trkpt>
      <trkpt lat="46.35688" lon="5.95027">
        <ele>1262</ele>
        <time>2014-08-17T13:18:51.338Z</time>
      </trkpt>
      <trkpt lat="46.35672" lon="5.94992">
        <ele>1281</ele>
        <time>2014-08-17T13:19:24.897Z</time>
      </trkpt>
      <trkpt lat="46.35664" lon="5.94985">
        <ele>1283.9</ele>
        <time>2014-08-17T13:19:38.966Z</time>
      </trkpt>
      <trkpt lat="46.35657" lon="5.94976">
        <ele>1284.9</ele>
        <time>2014-08-17T13:19:57.787Z</time>
      </trkpt>
      <trkpt lat="46.35645" lon="5.94958">
        <ele>1284</ele>
        <time>2014-08-17T13:20:16.329Z</time>
      </trkpt>
      <trkpt lat="46.35617" lon="5.94925">
        <ele>1284.1</ele>
        <time>2014-08-17T13:20:52.634Z</time>
      </trkpt>
      <trkpt lat="46.35611" lon="5.94914">
        <ele>1284.2</ele>
        <time>2014-08-17T13:20:56.197Z</time>
      </trkpt>
      <trkpt lat="46.35569" lon="5.94869">
        <ele>1292.4</ele>
        <time>2014-08-17T13:21:31.379Z</time>
      </trkpt>
      <trkpt lat="46.35562" lon="5.9486">
        <ele>1291.2</ele>
        <time>2014-08-17T13:21:36.561Z</time>
      </trkpt>
      <trkpt lat="46.35556" lon="5.94848">
        <ele>1289.7</ele>
        <time>2014-08-17T13:21:41.358Z</time>
      </trkpt>
      <trkpt lat="46.35548" lon="5.94837">
        <ele>1289.4</ele>
        <time>2014-08-17T13:21:46.105Z</time>
      </trkpt>
      <trkpt lat="46.35538" lon="5.94832">
        <ele>1289.4</ele>
        <time>2014-08-17T13:21:50.789Z</time>
      </trkpt>
      <trkpt lat="46.35523" lon="5.94814">
        <ele>1289</ele>
        <time>2014-08-17T13:22:36.611Z</time>
      </trkpt>
      <trkpt lat="46.35517" lon="5.94805">
        <ele>1288.8</ele>
        <time>2014-08-17T13:22:40.015Z</time>
      </trkpt>
      <trkpt lat="46.35503" lon="5.94789">
        <ele>1292.3</ele>
        <time>2014-08-17T13:23:11.210Z</time>
      </trkpt>
      <trkpt lat="46.35494" lon="5.94782">
        <ele>1291.7</ele>
        <time>2014-08-17T13:23:17.917Z</time>
      </trkpt>
      <trkpt lat="46.35485" lon="5.94774">
        <ele>1294.1</ele>
        <time>2014-08-17T13:23:22.816Z</time>
      </trkpt>
      <trkpt lat="46.35472" lon="5.94753">
        <ele>1297.5</ele>
        <time>2014-08-17T13:23:32.276Z</time>
      </trkpt>
      <trkpt lat="46.35462" lon="5.94746">
        <ele>1298.8</ele>
        <time>2014-08-17T13:23:37.848Z</time>
      </trkpt>
      <trkpt lat="46.35454" lon="5.94737">
        <ele>1299.9</ele>
        <time>2014-08-17T13:23:43.034Z</time>
      </trkpt>
      <trkpt lat="46.35445" lon="5.94731">
        <ele>1300.9</ele>
        <time>2014-08-17T13:23:48.401Z</time>
      </trkpt>
      <trkpt lat="46.3543" lon="5.94712">
        <ele>1300.7</ele>
        <time>2014-08-17T13:23:59.431Z</time>
      </trkpt>
      <trkpt lat="46.35427" lon="5.94698">
        <ele>1299.3</ele>
        <time>2014-08-17T13:24:06.416Z</time>
      </trkpt>
      <trkpt lat="46.35429" lon="5.94685">
        <ele>1298</ele>
        <time>2014-08-17T13:24:12.377Z</time>
      </trkpt>
      <trkpt lat="46.35433" lon="5.94673">
        <ele>1298.4</ele>
        <time>2014-08-17T13:24:17.785Z</time>
      </trkpt>
      <trkpt lat="46.35455" lon="5.94627">
        <ele>1303.9</ele>
        <time>2014-08-17T13:25:19.789Z</time>
      </trkpt>
      <trkpt lat="46.35456" lon="5.9461">
        <ele>1300.8</ele>
        <time>2014-08-17T13:27:26.192Z</time>
      </trkpt>
      <trkpt lat="46.35466" lon="5.94583">
        <ele>1305.4</ele>
        <time>2014-08-17T13:27:38.780Z</time>
      </trkpt>
      <trkpt lat="46.35482" lon="5.94549">
        <ele>1311.5</ele>
        <time>2014-08-17T13:27:58.803Z</time>
      </trkpt>
      <trkpt lat="46.3549" lon="5.94538">
        <ele>1310.1</ele>
        <time>2014-08-17T13:28:04.717Z</time>
      </trkpt>
      <trkpt lat="46.35495" lon="5.94526">
        <ele>1308.1</ele>
        <time>2014-08-17T13:28:10.215Z</time>
      </trkpt>
      <trkpt lat="46.35493" lon="5.94511">
        <ele>1306.2</ele>
        <time>2014-08-17T13:28:15.947Z</time>
      </trkpt>
      <trkpt lat="46.35494" lon="5.94496">
        <ele>1304.9</ele>
        <time>2014-08-17T13:28:20.815Z</time>
      </trkpt>
      <trkpt lat="46.3549" lon="5.94483">
        <ele>1304.2</ele>
        <time>2014-08-17T13:28:25.970Z</time>
      </trkpt>
      <trkpt lat="46.35483" lon="5.94474">
        <ele>1303.4</ele>
        <time>2014-08-17T13:28:30.758Z</time>
      </trkpt>
      <trkpt lat="46.35466" lon="5.94462">
        <ele>1302.3</ele>
        <time>2014-08-17T13:28:41.205Z</time>
      </trkpt>
      <trkpt lat="46.35458" lon="5.94454">
        <ele>1302.1</ele>
        <time>2014-08-17T13:28:46.423Z</time>
      </trkpt>
      <trkpt lat="46.35447" lon="5.94452">
        <ele>1302.2</ele>
        <time>2014-08-17T13:28:52.020Z</time>
      </trkpt>
      <trkpt lat="46.35439" lon="5.94446">
        <ele>1302.4</ele>
        <time>2014-08-17T13:28:57.311Z</time>
      </trkpt>
      <trkpt lat="46.35432" lon="5.94438">
        <ele>1302.5</ele>
        <time>2014-08-17T13:29:02.793Z</time>
      </trkpt>
      <trkpt lat="46.35414" lon="5.94436">
        <ele>1301.7</ele>
        <time>2014-08-17T13:30:38.039Z</time>
      </trkpt>
      <trkpt lat="46.35385" lon="5.94428">
        <ele>1302</ele>
        <time>2014-08-17T13:30:50.251Z</time>
      </trkpt>
      <trkpt lat="46.35362" lon="5.94431">
        <ele>1302.9</ele>
        <time>2014-08-17T13:30:58.888Z</time>
      </trkpt>
      <trkpt lat="46.35337" lon="5.94402">
        <ele>1306.8</ele>
        <time>2014-08-17T13:31:14.580Z</time>
      </trkpt>
      <trkpt lat="46.35328" lon="5.94396">
        <ele>1307.8</ele>
        <time>2014-08-17T13:31:19.196Z</time>
      </trkpt>
      <trkpt lat="46.35319" lon="5.94387">
        <ele>1307.9</ele>
        <time>2014-08-17T13:31:23.645Z</time>
      </trkpt>
      <trkpt lat="46.35303" lon="5.94367">
        <ele>1306.1</ele>
        <time>2014-08-17T13:31:33.173Z</time>
      </trkpt>
      <trkpt lat="46.35297" lon="5.94356">
        <ele>1306.2</ele>
        <time>2014-08-17T13:31:38.144Z</time>
      </trkpt>
      <trkpt lat="46.35283" lon="5.94315">
        <ele>1305.3</ele>
        <time>2014-08-17T13:31:52.920Z</time>
      </trkpt>
      <trkpt lat="46.35261" lon="5.94286">
        <ele>1303.7</ele>
        <time>2014-08-17T13:32:04.398Z</time>
      </trkpt>
      <trkpt lat="46.35254" lon="5.94277">
        <ele>1303.1</ele>
        <time>2014-08-17T13:32:08.804Z</time>
      </trkpt>
      <trkpt lat="46.35245" lon="5.94271">
        <ele>1303.2</ele>
        <time>2014-08-17T13:32:14.033Z</time>
      </trkpt>
      <trkpt lat="46.35235" lon="5.9427">
        <ele>1304.8</ele>
        <time>2014-08-17T13:32:19.796Z</time>
      </trkpt>
      <trkpt lat="46.35209" lon="5.94254">
        <ele>1306.8</ele>
        <time>2014-08-17T13:38:14.445Z</time>
      </trkpt>
      <trkpt lat="46.35201" lon="5.94245">
        <ele>1306.5</ele>
        <time>2014-08-17T13:38:18.411Z</time>
      </trkpt>
      <trkpt lat="46.35193" lon="5.94221">
        <ele>1308</ele>
        <time>2014-08-17T13:38:26.877Z</time>
      </trkpt>
      <trkpt lat="46.35187" lon="5.94211">
        <ele>1308.4</ele>
        <time>2014-08-17T13:38:31.862Z</time>
      </trkpt>
      <trkpt lat="46.35166" lon="5.94155">
        <ele>1305.5</ele>
        <time>2014-08-17T13:39:29.749Z</time>
      </trkpt>
      <trkpt lat="46.35161" lon="5.94131">
        <ele>1305.1</ele>
        <time>2014-08-17T13:39:33.927Z</time>
      </trkpt>
      <trkpt lat="46.3516" lon="5.94103">
        <ele>1304.3</ele>
        <time>2014-08-17T13:39:37.599Z</time>
      </trkpt>
      <trkpt lat="46.35171" lon="5.94018">
        <ele>1300.8</ele>
        <time>2014-08-17T13:39:48.335Z</time>
      </trkpt>
      <trkpt lat="46.35166" lon="5.9398">
        <ele>1302.8</ele>
        <time>2014-08-17T13:39:53.657Z</time>
      </trkpt>
      <trkpt lat="46.35157" lon="5.93942">
        <ele>1302.4</ele>
        <time>2014-08-17T13:40:00.046Z</time>
      </trkpt>
      <trkpt lat="46.35148" lon="5.93931">
        <ele>1301.3</ele>
        <time>2014-08-17T13:40:03.232Z</time>
      </trkpt>
      <trkpt lat="46.35139" lon="5.93924">
        <ele>1300.7</ele>
        <time>2014-08-17T13:40:06.679Z</time>
      </trkpt>
      <trkpt lat="46.35131" lon="5.93913">
        <ele>1300.5</ele>
        <time>2014-08-17T13:40:10.833Z</time>
      </trkpt>
      <trkpt lat="46.35142" lon="5.93874">
        <ele>1299.2</ele>
        <time>2014-08-17T13:40:24.623Z</time>
      </trkpt>
      <trkpt lat="46.35147" lon="5.93861">
        <ele>1298.6</ele>
        <time>2014-08-17T13:40:29.334Z</time>
      </trkpt>
      <trkpt lat="46.3515" lon="5.93849">
        <ele>1298.4</ele>
        <time>2014-08-17T13:40:33.793Z</time>
      </trkpt>
      <trkpt lat="46.35137" lon="5.93827">
        <ele>1298.3</ele>
        <time>2014-08-17T13:41:07.302Z</time>
      </trkpt>
      <trkpt lat="46.35112" lon="5.93807">
        <ele>1303.7</ele>
        <time>2014-08-17T13:41:21.778Z</time>
      </trkpt>
      <trkpt lat="46.35104" lon="5.93799">
        <ele>1306.6</ele>
        <time>2014-08-17T13:41:26.618Z</time>
      </trkpt>
      <trkpt lat="46.35098" lon="5.93788">
        <ele>1308.2</ele>
        <time>2014-08-17T13:41:32.046Z</time>
      </trkpt>
      <trkpt lat="46.35096" lon="5.93774">
        <ele>1308.1</ele>
        <time>2014-08-17T13:41:37.400Z</time>
      </trkpt>
      <trkpt lat="46.35089" lon="5.93764">
        <ele>1307.2</ele>
        <time>2014-08-17T13:41:43.738Z</time>
      </trkpt>
      <trkpt lat="46.35081" lon="5.93757">
        <ele>1306.7</ele>
        <time>2014-08-17T13:41:49.810Z</time>
      </trkpt>
      <trkpt lat="46.35073" lon="5.93745">
        <ele>1306.1</ele>
        <time>2014-08-17T13:42:13.804Z</time>
      </trkpt>
      <trkpt lat="46.35072" lon="5.93732">
        <ele>1305.8</ele>
        <time>2014-08-17T13:42:20.747Z</time>
      </trkpt>
      <trkpt lat="46.35063" lon="5.93679">
        <ele>1314.2</ele>
        <time>2014-08-17T13:42:46.102Z</time>
      </trkpt>
      <trkpt lat="46.35063" lon="5.93665">
        <ele>1315.4</ele>
        <time>2014-08-17T13:42:52.751Z</time>
      </trkpt>
      <trkpt lat="46.35062" lon="5.93651">
        <ele>1316</ele>
        <time>2014-08-17T13:43:00.520Z</time>
      </trkpt>
      <trkpt lat="46.35063" lon="5.93637">
        <ele>1316.6</ele>
        <time>2014-08-17T13:43:08.406Z</time>
      </trkpt>
      <trkpt lat="46.35053" lon="5.93596">
        <ele>1314.8</ele>
        <time>2014-08-17T13:43:30.879Z</time>
      </trkpt>
      <trkpt lat="46.35044" lon="5.93588">
        <ele>1313.9</ele>
        <time>2014-08-17T13:43:38.171Z</time>
      </trkpt>
      <trkpt lat="46.3503" lon="5.93571">
        <ele>1312.7</ele>
        <time>2014-08-17T13:43:52.859Z</time>
      </trkpt>
      <trkpt lat="46.35021" lon="5.93567">
        <ele>1311.8</ele>
        <time>2014-08-17T13:44:01.318Z</time>
      </trkpt>
      <trkpt lat="46.35013" lon="5.93559">
        <ele>1311.2</ele>
        <time>2014-08-17T13:44:08.246Z</time>
      </trkpt>
      <trkpt lat="46.35004" lon="5.93549">
        <ele>1311.2</ele>
        <time>2014-08-17T13:44:14.499Z</time>
      </trkpt>
      <trkpt lat="46.34996" lon="5.9354">
        <ele>1311.4</ele>
        <time>2014-08-17T13:44:19.051Z</time>
      </trkpt>
      <trkpt lat="46.3499" lon="5.93531">
        <ele>1311.4</ele>
        <time>2014-08-17T13:44:23.402Z</time>
      </trkpt>
      <trkpt lat="46.34981" lon="5.93525">
        <ele>1311.3</ele>
        <time>2014-08-17T13:44:28.178Z</time>
      </trkpt>
      <trkpt lat="46.34967" lon="5.93504">
        <ele>1311.5</ele>
        <time>2014-08-17T13:44:39.677Z</time>
      </trkpt>
      <trkpt lat="46.34933" lon="5.93464">
        <ele>1310</ele>
        <time>2014-08-17T13:56:08.762Z</time>
      </trkpt>
      <trkpt lat="46.34923" lon="5.9346">
        <ele>1309.3</ele>
        <time>2014-08-17T13:56:13.338Z</time>
      </trkpt>
      <trkpt lat="46.34912" lon="5.93454">
        <ele>1308.3</ele>
        <time>2014-08-17T13:56:17.972Z</time>
      </trkpt>
      <trkpt lat="46.34896" lon="5.9344">
        <ele>1307.4</ele>
        <time>2014-08-17T13:56:25.412Z</time>
      </trkpt>
      <trkpt lat="46.34888" lon="5.93432">
        <ele>1307.5</ele>
        <time>2014-08-17T13:56:29.105Z</time>
      </trkpt>
      <trkpt lat="46.34879" lon="5.93424">
        <ele>1307.5</ele>
        <time>2014-08-17T13:56:33.084Z</time>
      </trkpt>
      <trkpt lat="46.3487" lon="5.93418">
        <ele>1307.2</ele>
        <time>2014-08-17T13:56:37.044Z</time>
      </trkpt>
      <trkpt lat="46.34854" lon="5.93399">
        <ele>1306.4</ele>
        <time>2014-08-17T13:56:45.411Z</time>
      </trkpt>
      <trkpt lat="46.34845" lon="5.93393">
        <ele>1305.9</ele>
        <time>2014-08-17T13:56:50.019Z</time>
      </trkpt>
      <trkpt lat="46.34836" lon="5.93387">
        <ele>1305.8</ele>
        <time>2014-08-17T13:56:54.930Z</time>
      </trkpt>
      <trkpt lat="46.34757" lon="5.9332">
        <ele>1301.2</ele>
        <time>2014-08-17T13:57:29.647Z</time>
      </trkpt>
      <trkpt lat="46.34748" lon="5.93313">
        <ele>1300.1</ele>
        <time>2014-08-17T13:57:34.113Z</time>
      </trkpt>
      <trkpt lat="46.3474" lon="5.93309">
        <ele>1299.2</ele>
        <time>2014-08-17T13:57:38.828Z</time>
      </trkpt>
      <trkpt lat="46.3473" lon="5.93311">
        <ele>1298.6</ele>
        <time>2014-08-17T13:57:47.746Z</time>
      </trkpt>
      <trkpt lat="46.34721" lon="5.93305">
        <ele>1298.6</ele>
        <time>2014-08-17T13:57:58.515Z</time>
      </trkpt>
      <trkpt lat="46.3471" lon="5.93303">
        <ele>1299.3</ele>
        <time>2014-08-17T13:58:07.551Z</time>
      </trkpt>
      <trkpt lat="46.34699" lon="5.93298">
        <ele>1299.9</ele>
        <time>2014-08-17T13:58:13.551Z</time>
      </trkpt>
      <trkpt lat="46.34691" lon="5.9329">
        <ele>1299.8</ele>
        <time>2014-08-17T13:58:17.804Z</time>
      </trkpt>
      <trkpt lat="46.34669" lon="5.93281">
        <ele>1297.2</ele>
        <time>2014-08-17T13:58:54.504Z</time>
      </trkpt>
      <trkpt lat="46.34647" lon="5.93248">
        <ele>1296</ele>
        <time>2014-08-17T13:59:04.270Z</time>
      </trkpt>
      <trkpt lat="46.34638" lon="5.93242">
        <ele>1295.1</ele>
        <time>2014-08-17T13:59:06.848Z</time>
      </trkpt>
      <trkpt lat="46.34607" lon="5.932">
        <ele>1292.5</ele>
        <time>2014-08-17T14:00:23.717Z</time>
      </trkpt>
      <trkpt lat="46.34568" lon="5.9316">
        <ele>1288.7</ele>
        <time>2014-08-17T14:00:33.689Z</time>
      </trkpt>
      <trkpt lat="46.34555" lon="5.93149">
        <ele>1286.9</ele>
        <time>2014-08-17T14:00:36.889Z</time>
      </trkpt>
      <trkpt lat="46.34545" lon="5.93145">
        <ele>1285.8</ele>
        <time>2014-08-17T14:00:39.198Z</time>
      </trkpt>
      <trkpt lat="46.34536" lon="5.93139">
        <ele>1285.5</ele>
        <time>2014-08-17T14:00:41.292Z</time>
      </trkpt>
      <trkpt lat="46.34527" lon="5.93129">
        <ele>1285.4</ele>
        <time>2014-08-17T14:00:43.485Z</time>
      </trkpt>
      <trkpt lat="46.34516" lon="5.93119">
        <ele>1284.9</ele>
        <time>2014-08-17T14:00:45.778Z</time>
      </trkpt>
      <trkpt lat="46.34485" lon="5.93098">
        <ele>1282.7</ele>
        <time>2014-08-17T14:00:50.503Z</time>
      </trkpt>
      <trkpt lat="46.34452" lon="5.93081">
        <ele>1279.3</ele>
        <time>2014-08-17T14:00:56.941Z</time>
      </trkpt>
      <trkpt lat="46.34447" lon="5.93067">
        <ele>1276.9</ele>
        <time>2014-08-17T14:00:59.684Z</time>
      </trkpt>
      <trkpt lat="46.34442" lon="5.93039">
        <ele>1273.4</ele>
        <time>2014-08-17T14:01:05.555Z</time>
      </trkpt>
      <trkpt lat="46.3444" lon="5.93008">
        <ele>1272.8</ele>
        <time>2014-08-17T14:01:14.341Z</time>
      </trkpt>
      <trkpt lat="46.34437" lon="5.92995">
        <ele>1273.3</ele>
        <time>2014-08-17T14:01:18.587Z</time>
      </trkpt>
      <trkpt lat="46.34434" lon="5.92936">
        <ele>1276.1</ele>
        <time>2014-08-17T14:01:36.827Z</time>
      </trkpt>
      <trkpt lat="46.34429" lon="5.92919">
        <ele>1276.1</ele>
        <time>2014-08-17T14:02:15.816Z</time>
      </trkpt>
      <trkpt lat="46.34428" lon="5.92889">
        <ele>1274.8</ele>
        <time>2014-08-17T14:03:04.028Z</time>
      </trkpt>
      <trkpt lat="46.34422" lon="5.92832">
        <ele>1287.4</ele>
        <time>2014-08-17T14:03:18.140Z</time>
      </trkpt>
      <trkpt lat="46.34415" lon="5.92816">
        <ele>1286.6</ele>
        <time>2014-08-17T14:03:20.927Z</time>
      </trkpt>
      <trkpt lat="46.344" lon="5.92798">
        <ele>1284.1</ele>
        <time>2014-08-17T14:03:23.863Z</time>
      </trkpt>
      <trkpt lat="46.34368" lon="5.92739">
        <ele>1278.9</ele>
        <time>2014-08-17T14:03:29.951Z</time>
      </trkpt>
      <trkpt lat="46.34353" lon="5.9272">
        <ele>1277.3</ele>
        <time>2014-08-17T14:03:33.548Z</time>
      </trkpt>
      <trkpt lat="46.34354" lon="5.92707">
        <ele>1275.6</ele>
        <time>2014-08-17T14:03:35.170Z</time>
      </trkpt>
      <trkpt lat="46.34369" lon="5.92697">
        <ele>1273.6</ele>
        <time>2014-08-17T14:03:37.431Z</time>
      </trkpt>
      <trkpt lat="46.34389" lon="5.92692">
        <ele>1271.4</ele>
        <time>2014-08-17T14:03:40.403Z</time>
      </trkpt>
      <trkpt lat="46.34405" lon="5.9269">
        <ele>1268.4</ele>
        <time>2014-08-17T14:03:43.194Z</time>
      </trkpt>
      <trkpt lat="46.34405" lon="5.92673">
        <ele>1264.6</ele>
        <time>2014-08-17T14:03:45.670Z</time>
      </trkpt>
      <trkpt lat="46.34394" lon="5.92646">
        <ele>1259.9</ele>
        <time>2014-08-17T14:03:50.831Z</time>
      </trkpt>
      <trkpt lat="46.34401" lon="5.92612">
        <ele>1259.6</ele>
        <time>2014-08-17T14:04:19.384Z</time>
      </trkpt>
      <trkpt lat="46.34405" lon="5.926">
        <ele>1259.9</ele>
        <time>2014-08-17T14:04:22.390Z</time>
      </trkpt>
      <trkpt lat="46.34407" lon="5.92567">
        <ele>1265.1</ele>
        <time>2014-08-17T14:04:29.713Z</time>
      </trkpt>
      <trkpt lat="46.34406" lon="5.92541">
        <ele>1267.3</ele>
        <time>2014-08-17T14:04:35.339Z</time>
      </trkpt>
      <trkpt lat="46.34408" lon="5.92525">
        <ele>1267.3</ele>
        <time>2014-08-17T14:04:38.779Z</time>
      </trkpt>
      <trkpt lat="46.34413" lon="5.92508">
        <ele>1267.4</ele>
        <time>2014-08-17T14:04:42.324Z</time>
      </trkpt>
      <trkpt lat="46.34465" lon="5.92394">
        <ele>1261.5</ele>
        <time>2014-08-17T14:05:05.503Z</time>
      </trkpt>
      <trkpt lat="46.34473" lon="5.92381">
        <ele>1261.9</ele>
        <time>2014-08-17T14:05:08.061Z</time>
      </trkpt>
      <trkpt lat="46.34478" lon="5.92369">
        <ele>1262.7</ele>
        <time>2014-08-17T14:05:10.880Z</time>
      </trkpt>
      <trkpt lat="46.34516" lon="5.92242">
        <ele>1267.3</ele>
        <time>2014-08-17T14:05:40.078Z</time>
      </trkpt>
      <trkpt lat="46.34528" lon="5.92241">
        <ele>1266.1</ele>
        <time>2014-08-17T14:05:43.130Z</time>
      </trkpt>
      <trkpt lat="46.34539" lon="5.92241">
        <ele>1265.2</ele>
        <time>2014-08-17T14:05:46.739Z</time>
      </trkpt>
      <trkpt lat="46.34553" lon="5.92244">
        <ele>1264.4</ele>
        <time>2014-08-17T14:05:51.628Z</time>
      </trkpt>
      <trkpt lat="46.34571" lon="5.92251">
        <ele>1263.2</ele>
        <time>2014-08-17T14:05:56.536Z</time>
      </trkpt>
      <trkpt lat="46.3459" lon="5.92246">
        <ele>1261.7</ele>
        <time>2014-08-17T14:05:59.940Z</time>
      </trkpt>
      <trkpt lat="46.34603" lon="5.92237">
        <ele>1260.3</ele>
        <time>2014-08-17T14:06:02.057Z</time>
      </trkpt>
      <trkpt lat="46.34612" lon="5.92219">
        <ele>1259.5</ele>
        <time>2014-08-17T14:06:04.193Z</time>
      </trkpt>
      <trkpt lat="46.34616" lon="5.92156">
        <ele>1258.2</ele>
        <time>2014-08-17T14:06:10.258Z</time>
      </trkpt>
      <trkpt lat="46.34623" lon="5.92139">
        <ele>1256.4</ele>
        <time>2014-08-17T14:06:12.020Z</time>
      </trkpt>
      <trkpt lat="46.3464" lon="5.92128">
        <ele>1253.8</ele>
        <time>2014-08-17T14:06:14.657Z</time>
      </trkpt>
      <trkpt lat="46.34652" lon="5.92123">
        <ele>1251.5</ele>
        <time>2014-08-17T14:06:16.538Z</time>
      </trkpt>
      <trkpt lat="46.34671" lon="5.92127">
        <ele>1250.6</ele>
        <time>2014-08-17T14:06:19.520Z</time>
      </trkpt>
      <trkpt lat="46.34684" lon="5.92136">
        <ele>1250.7</ele>
        <time>2014-08-17T14:06:21.745Z</time>
      </trkpt>
      <trkpt lat="46.34696" lon="5.92147">
        <ele>1250.9</ele>
        <time>2014-08-17T14:06:23.834Z</time>
      </trkpt>
      <trkpt lat="46.34714" lon="5.92156">
        <ele>1250.8</ele>
        <time>2014-08-17T14:06:26.601Z</time>
      </trkpt>
      <trkpt lat="46.3473" lon="5.92153">
        <ele>1250.4</ele>
        <time>2014-08-17T14:06:29.110Z</time>
      </trkpt>
      <trkpt lat="46.34742" lon="5.92144">
        <ele>1249.9</ele>
        <time>2014-08-17T14:06:31.442Z</time>
      </trkpt>
      <trkpt lat="46.34754" lon="5.92128">
        <ele>1248.6</ele>
        <time>2014-08-17T14:06:34.704Z</time>
      </trkpt>
      <trkpt lat="46.34763" lon="5.92118">
        <ele>1247</ele>
        <time>2014-08-17T14:06:36.703Z</time>
      </trkpt>
      <trkpt lat="46.34801" lon="5.92111">
        <ele>1243.1</ele>
        <time>2014-08-17T14:06:43.116Z</time>
      </trkpt>
      <trkpt lat="46.34817" lon="5.92105">
        <ele>1241.4</ele>
        <time>2014-08-17T14:06:45.559Z</time>
      </trkpt>
      <trkpt lat="46.34836" lon="5.92095">
        <ele>1240.1</ele>
        <time>2014-08-17T14:06:48.414Z</time>
      </trkpt>
      <trkpt lat="46.34861" lon="5.92097">
        <ele>1239.3</ele>
        <time>2014-08-17T14:06:51.588Z</time>
      </trkpt>
      <trkpt lat="46.34897" lon="5.92111">
        <ele>1232.9</ele>
        <time>2014-08-17T14:06:57.060Z</time>
      </trkpt>
      <trkpt lat="46.34909" lon="5.92108">
        <ele>1227</ele>
        <time>2014-08-17T14:07:00.704Z</time>
      </trkpt>
      <trkpt lat="46.34918" lon="5.92103">
        <ele>1222.4</ele>
        <time>2014-08-17T14:07:05.134Z</time>
      </trkpt>
      <trkpt lat="46.34927" lon="5.92095">
        <ele>1218.6</ele>
        <time>2014-08-17T14:07:10.285Z</time>
      </trkpt>
      <trkpt lat="46.34936" lon="5.92089">
        <ele>1215</ele>
        <time>2014-08-17T14:07:15.105Z</time>
      </trkpt>
      <trkpt lat="46.34944" lon="5.92082">
        <ele>1212.5</ele>
        <time>2014-08-17T14:07:19.812Z</time>
      </trkpt>
      <trkpt lat="46.34953" lon="5.92072">
        <ele>1211.2</ele>
        <time>2014-08-17T14:07:28.804Z</time>
      </trkpt>
      <trkpt lat="46.34964" lon="5.9207">
        <ele>1209.3</ele>
        <time>2014-08-17T14:07:47.803Z</time>
      </trkpt>
      <trkpt lat="46.34965" lon="5.92085">
        <ele>1208</ele>
        <time>2014-08-17T14:08:12.806Z</time>
      </trkpt>
      <trkpt lat="46.34984" lon="5.92091">
        <ele>1206.5</ele>
        <time>2014-08-17T14:09:53.121Z</time>
      </trkpt>
      <trkpt lat="46.34993" lon="5.92093">
        <ele>1206.1</ele>
        <time>2014-08-17T14:09:57.533Z</time>
      </trkpt>
      <trkpt lat="46.35012" lon="5.92105">
        <ele>1206.1</ele>
        <time>2014-08-17T14:10:08.975Z</time>
      </trkpt>
      <trkpt lat="46.35028" lon="5.92124">
        <ele>1209.5</ele>
        <time>2014-08-17T14:10:19.341Z</time>
      </trkpt>
      <trkpt lat="46.35036" lon="5.92129">
        <ele>1210.8</ele>
        <time>2014-08-17T14:10:24.094Z</time>
      </trkpt>
      <trkpt lat="46.35047" lon="5.92133">
        <ele>1211.2</ele>
        <time>2014-08-17T14:10:29.794Z</time>
      </trkpt>
      <trkpt lat="46.35059" lon="5.92139">
        <ele>1210.9</ele>
        <time>2014-08-17T14:10:34.906Z</time>
      </trkpt>
      <trkpt lat="46.35069" lon="5.92142">
        <ele>1210.5</ele>
        <time>2014-08-17T14:10:38.644Z</time>
      </trkpt>
      <trkpt lat="46.35081" lon="5.92143">
        <ele>1209.7</ele>
        <time>2014-08-17T14:10:41.575Z</time>
      </trkpt>
      <trkpt lat="46.35107" lon="5.92143">
        <ele>1205.9</ele>
        <time>2014-08-17T14:10:45.748Z</time>
      </trkpt>
      <trkpt lat="46.35125" lon="5.9214">
        <ele>1203.8</ele>
        <time>2014-08-17T14:10:48.373Z</time>
      </trkpt>
      <trkpt lat="46.35143" lon="5.92132">
        <ele>1201.8</ele>
        <time>2014-08-17T14:10:51.057Z</time>
      </trkpt>
      <trkpt lat="46.35153" lon="5.92124">
        <ele>1199.6</ele>
        <time>2014-08-17T14:10:52.717Z</time>
      </trkpt>
      <trkpt lat="46.35168" lon="5.92109">
        <ele>1197.2</ele>
        <time>2014-08-17T14:10:55.696Z</time>
      </trkpt>
      <trkpt lat="46.35177" lon="5.92104">
        <ele>1194.7</ele>
        <time>2014-08-17T14:10:57.525Z</time>
      </trkpt>
      <trkpt lat="46.35188" lon="5.92098">
        <ele>1192.8</ele>
        <time>2014-08-17T14:10:59.678Z</time>
      </trkpt>
      <trkpt lat="46.35214" lon="5.9208">
        <ele>1192.9</ele>
        <time>2014-08-17T14:11:04.082Z</time>
      </trkpt>
      <trkpt lat="46.35232" lon="5.92064">
        <ele>1193.7</ele>
        <time>2014-08-17T14:11:07.836Z</time>
      </trkpt>
      <trkpt lat="46.35251" lon="5.92049">
        <ele>1191.6</ele>
        <time>2014-08-17T14:11:23.824Z</time>
      </trkpt>
      <trkpt lat="46.35265" lon="5.92049">
        <ele>1191</ele>
        <time>2014-08-17T14:11:55.283Z</time>
      </trkpt>
      <trkpt lat="46.35275" lon="5.92046">
        <ele>1190.7</ele>
        <time>2014-08-17T14:11:58.828Z</time>
      </trkpt>
      <trkpt lat="46.35281" lon="5.92029">
        <ele>1190.6</ele>
        <time>2014-08-17T14:14:15.729Z</time>
      </trkpt>
      <trkpt lat="46.35279" lon="5.92001">
        <ele>1191.1</ele>
        <time>2014-08-17T14:14:28.809Z</time>
      </trkpt>
      <trkpt lat="46.35268" lon="5.91961">
        <ele>1195.5</ele>
        <time>2014-08-17T14:14:45.841Z</time>
      </trkpt>
      <trkpt lat="46.35264" lon="5.91885">
        <ele>1202.7</ele>
        <time>2014-08-17T14:15:01.829Z</time>
      </trkpt>
      <trkpt lat="46.35259" lon="5.9187">
        <ele>1202</ele>
        <time>2014-08-17T14:15:43.038Z</time>
      </trkpt>
      <trkpt lat="46.35248" lon="5.91862">
        <ele>1201.5</ele>
        <time>2014-08-17T14:15:47.309Z</time>
      </trkpt>
      <trkpt lat="46.35228" lon="5.91852">
        <ele>1200.7</ele>
        <time>2014-08-17T14:15:53.692Z</time>
      </trkpt>
      <trkpt lat="46.35218" lon="5.91844">
        <ele>1200</ele>
        <time>2014-08-17T14:15:56.814Z</time>
      </trkpt>
      <trkpt lat="46.35186" lon="5.91821">
        <ele>1203.5</ele>
        <time>2014-08-17T14:16:05.912Z</time>
      </trkpt>
      <trkpt lat="46.35166" lon="5.91799">
        <ele>1205.9</ele>
        <time>2014-08-17T14:16:12.188Z</time>
      </trkpt>
      <trkpt lat="46.35157" lon="5.91784">
        <ele>1205.7</ele>
        <time>2014-08-17T14:16:15.277Z</time>
      </trkpt>
      <trkpt lat="46.35149" lon="5.91766">
        <ele>1204.4</ele>
        <time>2014-08-17T14:16:18.552Z</time>
      </trkpt>
      <trkpt lat="46.35144" lon="5.91749">
        <ele>1202.9</ele>
        <time>2014-08-17T14:16:21.627Z</time>
      </trkpt>
      <trkpt lat="46.35137" lon="5.91733">
        <ele>1202</ele>
        <time>2014-08-17T14:16:24.644Z</time>
      </trkpt>
      <trkpt lat="46.35115" lon="5.91709">
        <ele>1201.6</ele>
        <time>2014-08-17T14:16:30.897Z</time>
      </trkpt>
      <trkpt lat="46.35104" lon="5.91702">
        <ele>1202.9</ele>
        <time>2014-08-17T14:16:33.907Z</time>
      </trkpt>
      <trkpt lat="46.35092" lon="5.91695">
        <ele>1204.4</ele>
        <time>2014-08-17T14:16:36.917Z</time>
      </trkpt>
      <trkpt lat="46.35069" lon="5.91678">
        <ele>1205.3</ele>
        <time>2014-08-17T14:16:43.361Z</time>
      </trkpt>
      <trkpt lat="46.35016" lon="5.91625">
        <ele>1199.3</ele>
        <time>2014-08-17T14:16:58.363Z</time>
      </trkpt>
      <trkpt lat="46.34971" lon="5.91574">
        <ele>1198.8</ele>
        <time>2014-08-17T14:17:11.211Z</time>
      </trkpt>
      <trkpt lat="46.34946" lon="5.91552">
        <ele>1197.4</ele>
        <time>2014-08-17T14:17:18.036Z</time>
      </trkpt>
      <trkpt lat="46.34934" lon="5.91546">
        <ele>1196.8</ele>
        <time>2014-08-17T14:17:21.803Z</time>
      </trkpt>
      <trkpt lat="46.34927" lon="5.91536">
        <ele>1196.2</ele>
        <time>2014-08-17T14:17:25.157Z</time>
      </trkpt>
      <trkpt lat="46.34928" lon="5.91523">
        <ele>1195.5</ele>
        <time>2014-08-17T14:17:28.695Z</time>
      </trkpt>
      <trkpt lat="46.34925" lon="5.9151">
        <ele>1194.8</ele>
        <time>2014-08-17T14:17:32.978Z</time>
      </trkpt>
      <trkpt lat="46.34918" lon="5.915">
        <ele>1194.3</ele>
        <time>2014-08-17T14:17:37.810Z</time>
      </trkpt>
      <trkpt lat="46.34904" lon="5.91476">
        <ele>1193.5</ele>
        <time>2014-08-17T14:18:17.423Z</time>
      </trkpt>
      <trkpt lat="46.34899" lon="5.91452">
        <ele>1192.4</ele>
        <time>2014-08-17T14:18:22.123Z</time>
      </trkpt>
      <trkpt lat="46.34892" lon="5.91439">
        <ele>1190.6</ele>
        <time>2014-08-17T14:18:24.725Z</time>
      </trkpt>
      <trkpt lat="46.34886" lon="5.9142">
        <ele>1189</ele>
        <time>2014-08-17T14:18:27.499Z</time>
      </trkpt>
      <trkpt lat="46.34882" lon="5.91365">
        <ele>1186</ele>
        <time>2014-08-17T14:18:34.016Z</time>
      </trkpt>
      <trkpt lat="46.34878" lon="5.9135">
        <ele>1185.6</ele>
        <time>2014-08-17T14:18:36.048Z</time>
      </trkpt>
      <trkpt lat="46.34863" lon="5.91334">
        <ele>1185.5</ele>
        <time>2014-08-17T14:18:39.678Z</time>
      </trkpt>
      <trkpt lat="46.34854" lon="5.91321">
        <ele>1185.2</ele>
        <time>2014-08-17T14:18:41.832Z</time>
      </trkpt>
      <trkpt lat="46.34837" lon="5.91286">
        <ele>1182.8</ele>
        <time>2014-08-17T14:19:37.797Z</time>
      </trkpt>
      <trkpt lat="46.34834" lon="5.91272">
        <ele>1183.3</ele>
        <time>2014-08-17T14:19:40.938Z</time>
      </trkpt>
      <trkpt lat="46.34832" lon="5.9124">
        <ele>1183.4</ele>
        <time>2014-08-17T14:19:46.981Z</time>
      </trkpt>
      <trkpt lat="46.34828" lon="5.91224">
        <ele>1182.8</ele>
        <time>2014-08-17T14:19:50.258Z</time>
      </trkpt>
      <trkpt lat="46.34822" lon="5.91211">
        <ele>1182.3</ele>
        <time>2014-08-17T14:19:53.279Z</time>
      </trkpt>
      <trkpt lat="46.34815" lon="5.91185">
        <ele>1182.5</ele>
        <time>2014-08-17T14:19:59.460Z</time>
      </trkpt>
      <trkpt lat="46.34809" lon="5.91172">
        <ele>1184</ele>
        <time>2014-08-17T14:20:03.013Z</time>
      </trkpt>
      <trkpt lat="46.34803" lon="5.91161">
        <ele>1185.6</ele>
        <time>2014-08-17T14:20:06.739Z</time>
      </trkpt>
      <trkpt lat="46.34796" lon="5.91152">
        <ele>1186.7</ele>
        <time>2014-08-17T14:20:10.698Z</time>
      </trkpt>
      <trkpt lat="46.34789" lon="5.91142">
        <ele>1188</ele>
        <time>2014-08-17T14:20:15.327Z</time>
      </trkpt>
      <trkpt lat="46.34782" lon="5.91115">
        <ele>1192.4</ele>
        <time>2014-08-17T14:20:24.779Z</time>
      </trkpt>
      <trkpt lat="46.3478" lon="5.91087">
        <ele>1191.6</ele>
        <time>2014-08-17T14:20:34.300Z</time>
      </trkpt>
      <trkpt lat="46.34784" lon="5.91028">
        <ele>1197.3</ele>
        <time>2014-08-17T14:22:36.815Z</time>
      </trkpt>
      <trkpt lat="46.3479" lon="5.91001">
        <ele>1209.9</ele>
        <time>2014-08-17T14:22:44.192Z</time>
      </trkpt>
      <trkpt lat="46.34796" lon="5.90988">
        <ele>1214.1</ele>
        <time>2014-08-17T14:22:48.719Z</time>
      </trkpt>
      <trkpt lat="46.34794" lon="5.90974">
        <ele>1216.5</ele>
        <time>2014-08-17T14:22:53.470Z</time>
      </trkpt>
      <trkpt lat="46.34792" lon="5.9096">
        <ele>1216.4</ele>
        <time>2014-08-17T14:22:58.831Z</time>
      </trkpt>
      <trkpt lat="46.3477" lon="5.90926">
        <ele>1213</ele>
        <time>2014-08-17T14:24:24.226Z</time>
      </trkpt>
      <trkpt lat="46.3476" lon="5.90928">
        <ele>1213.7</ele>
        <time>2014-08-17T14:24:29.842Z</time>
      </trkpt>
      <trkpt lat="46.34755" lon="5.90915">
        <ele>1213.4</ele>
        <time>2014-08-17T14:24:35.606Z</time>
      </trkpt>
      <trkpt lat="46.34742" lon="5.90895">
        <ele>1212.7</ele>
        <time>2014-08-17T14:24:45.038Z</time>
      </trkpt>
      <trkpt lat="46.34735" lon="5.90886">
        <ele>1214.6</ele>
        <time>2014-08-17T14:24:49.051Z</time>
      </trkpt>
      <trkpt lat="46.34734" lon="5.9087">
        <ele>1217.7</ele>
        <time>2014-08-17T14:24:53.949Z</time>
      </trkpt>
      <trkpt lat="46.34738" lon="5.90842">
        <ele>1220.1</ele>
        <time>2014-08-17T14:25:04.188Z</time>
      </trkpt>
      <trkpt lat="46.34733" lon="5.9083">
        <ele>1218.5</ele>
        <time>2014-08-17T14:25:10.095Z</time>
      </trkpt>
      <trkpt lat="46.3473" lon="5.90814">
        <ele>1213.9</ele>
        <time>2014-08-17T14:25:16.524Z</time>
      </trkpt>
      <trkpt lat="46.34734" lon="5.90786">
        <ele>1199.2</ele>
        <time>2014-08-17T14:25:27.595Z</time>
      </trkpt>
      <trkpt lat="46.34743" lon="5.90777">
        <ele>1197.2</ele>
        <time>2014-08-17T14:25:34.042Z</time>
      </trkpt>
      <trkpt lat="46.3475" lon="5.90766">
        <ele>1198</ele>
        <time>2014-08-17T14:25:39.272Z</time>
      </trkpt>
      <trkpt lat="46.34747" lon="5.90736">
        <ele>1199.1</ele>
        <time>2014-08-17T14:25:48.916Z</time>
      </trkpt>
      <trkpt lat="46.3475" lon="5.90721">
        <ele>1198.5</ele>
        <time>2014-08-17T14:25:53.673Z</time>
      </trkpt>
      <trkpt lat="46.34762" lon="5.90695">
        <ele>1197.2</ele>
        <time>2014-08-17T14:26:01.922Z</time>
      </trkpt>
      <trkpt lat="46.34781" lon="5.90674">
        <ele>1196.5</ele>
        <time>2014-08-17T14:26:08.520Z</time>
      </trkpt>
      <trkpt lat="46.34788" lon="5.90661">
        <ele>1194.7</ele>
        <time>2014-08-17T14:26:10.946Z</time>
      </trkpt>
      <trkpt lat="46.34834" lon="5.90556">
        <ele>1185.9</ele>
        <time>2014-08-17T14:26:25.024Z</time>
      </trkpt>
      <trkpt lat="46.34842" lon="5.90533">
        <ele>1184.6</ele>
        <time>2014-08-17T14:26:27.795Z</time>
      </trkpt>
      <trkpt lat="46.3484" lon="5.90507">
        <ele>1182.6</ele>
        <time>2014-08-17T14:26:30.595Z</time>
      </trkpt>
      <trkpt lat="46.3483" lon="5.90482">
        <ele>1179.5</ele>
        <time>2014-08-17T14:26:33.672Z</time>
      </trkpt>
      <trkpt lat="46.34826" lon="5.90461">
        <ele>1176.1</ele>
        <time>2014-08-17T14:26:35.730Z</time>
      </trkpt>
      <trkpt lat="46.34824" lon="5.90403">
        <ele>1172.8</ele>
        <time>2014-08-17T14:26:42.546Z</time>
      </trkpt>
      <trkpt lat="46.34821" lon="5.90389">
        <ele>1173.3</ele>
        <time>2014-08-17T14:26:44.917Z</time>
      </trkpt>
      <trkpt lat="46.34815" lon="5.9038">
        <ele>1173.9</ele>
        <time>2014-08-17T14:26:47.666Z</time>
      </trkpt>
      <trkpt lat="46.34808" lon="5.90367">
        <ele>1174.6</ele>
        <time>2014-08-17T14:26:51.831Z</time>
      </trkpt>
      <trkpt lat="46.34791" lon="5.90347">
        <ele>1175.1</ele>
        <time>2014-08-17T14:27:22.091Z</time>
      </trkpt>
      <trkpt lat="46.34784" lon="5.90337">
        <ele>1175.6</ele>
        <time>2014-08-17T14:27:26.580Z</time>
      </trkpt>
      <trkpt lat="46.34776" lon="5.90328">
        <ele>1177.6</ele>
        <time>2014-08-17T14:27:31.817Z</time>
      </trkpt>
      <trkpt lat="46.3477" lon="5.90318">
        <ele>1179.8</ele>
        <time>2014-08-17T14:27:36.816Z</time>
      </trkpt>
      <trkpt lat="46.34761" lon="5.9031">
        <ele>1181.2</ele>
        <time>2014-08-17T14:27:43.589Z</time>
      </trkpt>
      <trkpt lat="46.34753" lon="5.90304">
        <ele>1183.2</ele>
        <time>2014-08-17T14:27:49.875Z</time>
      </trkpt>
      <trkpt lat="46.34718" lon="5.90285">
        <ele>1183.5</ele>
        <time>2014-08-17T14:28:43.835Z</time>
      </trkpt>
      <trkpt lat="46.34707" lon="5.90284">
        <ele>1182.3</ele>
        <time>2014-08-17T14:29:11.240Z</time>
      </trkpt>
      <trkpt lat="46.34697" lon="5.90286">
        <ele>1182.3</ele>
        <time>2014-08-17T14:29:16.681Z</time>
      </trkpt>
      <trkpt lat="46.34687" lon="5.9029">
        <ele>1182</ele>
        <time>2014-08-17T14:29:21.897Z</time>
      </trkpt>
      <trkpt lat="46.34677" lon="5.90291">
        <ele>1180.7</ele>
        <time>2014-08-17T14:29:26.415Z</time>
      </trkpt>
      <trkpt lat="46.34669" lon="5.90295">
        <ele>1178</ele>
        <time>2014-08-17T14:29:31.107Z</time>
      </trkpt>
      <trkpt lat="46.34662" lon="5.90308">
        <ele>1173.8</ele>
        <time>2014-08-17T14:29:36.572Z</time>
      </trkpt>
      <trkpt lat="46.34646" lon="5.90325">
        <ele>1161.8</ele>
        <time>2014-08-17T14:29:45.312Z</time>
      </trkpt>
      <trkpt lat="46.3464" lon="5.90339">
        <ele>1158.4</ele>
        <time>2014-08-17T14:29:49.677Z</time>
      </trkpt>
      <trkpt lat="46.34635" lon="5.90352">
        <ele>1158.9</ele>
        <time>2014-08-17T14:29:53.259Z</time>
      </trkpt>
      <trkpt lat="46.34635" lon="5.90366">
        <ele>1161</ele>
        <time>2014-08-17T14:29:57.850Z</time>
      </trkpt>
      <trkpt lat="46.34637" lon="5.90381">
        <ele>1162</ele>
        <time>2014-08-17T14:30:03.511Z</time>
      </trkpt>
      <trkpt lat="46.34644" lon="5.90393">
        <ele>1161.3</ele>
        <time>2014-08-17T14:30:11.123Z</time>
      </trkpt>
      <trkpt lat="46.34636" lon="5.90403">
        <ele>1160.5</ele>
        <time>2014-08-17T14:30:18.822Z</time>
      </trkpt>
      <trkpt lat="46.34613" lon="5.9041">
        <ele>1159.9</ele>
        <time>2014-08-17T14:32:00.260Z</time>
      </trkpt>
      <trkpt lat="46.34607" lon="5.90423">
        <ele>1159.3</ele>
        <time>2014-08-17T14:32:06.680Z</time>
      </trkpt>
      <trkpt lat="46.34603" lon="5.90437">
        <ele>1160.4</ele>
        <time>2014-08-17T14:32:11.462Z</time>
      </trkpt>
      <trkpt lat="46.34586" lon="5.90449">
        <ele>1168.3</ele>
        <time>2014-08-17T14:32:20.782Z</time>
      </trkpt>
      <trkpt lat="46.34577" lon="5.9045">
        <ele>1171.7</ele>
        <time>2014-08-17T14:32:25.829Z</time>
      </trkpt>
      <trkpt lat="46.34558" lon="5.90445">
        <ele>1175.5</ele>
        <time>2014-08-17T14:33:28.759Z</time>
      </trkpt>
      <trkpt lat="46.3455" lon="5.90451">
        <ele>1174.3</ele>
        <time>2014-08-17T14:33:39.135Z</time>
      </trkpt>
      <trkpt lat="46.3454" lon="5.90451">
        <ele>1174</ele>
        <time>2014-08-17T14:33:50.556Z</time>
      </trkpt>
      <trkpt lat="46.34523" lon="5.90443">
        <ele>1175.4</ele>
        <time>2014-08-17T14:34:10.606Z</time>
      </trkpt>
      <trkpt lat="46.34513" lon="5.90436">
        <ele>1177.4</ele>
        <time>2014-08-17T14:34:17.150Z</time>
      </trkpt>
      <trkpt lat="46.34497" lon="5.90419">
        <ele>1186.1</ele>
        <time>2014-08-17T14:34:29.194Z</time>
      </trkpt>
      <trkpt lat="46.3449" lon="5.90408">
        <ele>1190.8</ele>
        <time>2014-08-17T14:34:34.628Z</time>
      </trkpt>
      <trkpt lat="46.34485" lon="5.90395">
        <ele>1192.9</ele>
        <time>2014-08-17T14:34:39.468Z</time>
      </trkpt>
      <trkpt lat="46.34471" lon="5.90372">
        <ele>1190.8</ele>
        <time>2014-08-17T14:34:48.566Z</time>
      </trkpt>
      <trkpt lat="46.34462" lon="5.90345">
        <ele>1188</ele>
        <time>2014-08-17T14:34:58.064Z</time>
      </trkpt>
      <trkpt lat="46.34456" lon="5.90335">
        <ele>1184.5</ele>
        <time>2014-08-17T14:35:03.478Z</time>
      </trkpt>
      <trkpt lat="46.34438" lon="5.90323">
        <ele>1180.9</ele>
        <time>2014-08-17T14:35:17.711Z</time>
      </trkpt>
      <trkpt lat="46.34429" lon="5.90312">
        <ele>1182.3</ele>
        <time>2014-08-17T14:35:29.115Z</time>
      </trkpt>
      <trkpt lat="46.34422" lon="5.90305">
        <ele>1184.1</ele>
        <time>2014-08-17T14:35:38.374Z</time>
      </trkpt>
      <trkpt lat="46.3441" lon="5.90298">
        <ele>1185.8</ele>
        <time>2014-08-17T14:36:11.704Z</time>
      </trkpt>
      <trkpt lat="46.34402" lon="5.9029">
        <ele>1186</ele>
        <time>2014-08-17T14:36:38.514Z</time>
      </trkpt>
      <trkpt lat="46.34396" lon="5.90279">
        <ele>1184.6</ele>
        <time>2014-08-17T14:37:03.891Z</time>
      </trkpt>
      <trkpt lat="46.34389" lon="5.9027">
        <ele>1182.1</ele>
        <time>2014-08-17T14:37:12.198Z</time>
      </trkpt>
      <trkpt lat="46.34383" lon="5.90257">
        <ele>1178.5</ele>
        <time>2014-08-17T14:37:16.713Z</time>
      </trkpt>
      <trkpt lat="46.3438" lon="5.90244">
        <ele>1175.2</ele>
        <time>2014-08-17T14:37:20.784Z</time>
      </trkpt>
      <trkpt lat="46.3438" lon="5.90228">
        <ele>1173.3</ele>
        <time>2014-08-17T14:37:26.524Z</time>
      </trkpt>
      <trkpt lat="46.34382" lon="5.90211">
        <ele>1172.1</ele>
        <time>2014-08-17T14:37:31.649Z</time>
      </trkpt>
      <trkpt lat="46.34381" lon="5.90175">
        <ele>1169.8</ele>
        <time>2014-08-17T14:37:40.196Z</time>
      </trkpt>
      <trkpt lat="46.34379" lon="5.90156">
        <ele>1168.2</ele>
        <time>2014-08-17T14:37:43.725Z</time>
      </trkpt>
      <trkpt lat="46.34372" lon="5.90125">
        <ele>1165.8</ele>
        <time>2014-08-17T14:37:49.481Z</time>
      </trkpt>
      <trkpt lat="46.34362" lon="5.90094">
        <ele>1164.9</ele>
        <time>2014-08-17T14:37:55.154Z</time>
      </trkpt>
      <trkpt lat="46.34356" lon="5.90081">
        <ele>1164.9</ele>
        <time>2014-08-17T14:37:57.766Z</time>
      </trkpt>
      <trkpt lat="46.34352" lon="5.90065">
        <ele>1165.4</ele>
        <time>2014-08-17T14:38:00.683Z</time>
      </trkpt>
      <trkpt lat="46.3435" lon="5.90028">
        <ele>1167.1</ele>
        <time>2014-08-17T14:38:10.403Z</time>
      </trkpt>
      <trkpt lat="46.34344" lon="5.90016">
        <ele>1166.4</ele>
        <time>2014-08-17T14:38:13.849Z</time>
      </trkpt>
      <trkpt lat="46.34335" lon="5.90003">
        <ele>1164.9</ele>
        <time>2014-08-17T14:38:29.836Z</time>
      </trkpt>
      <trkpt lat="46.34284" lon="5.89973">
        <ele>1160.3</ele>
        <time>2014-08-17T14:38:53.939Z</time>
      </trkpt>
      <trkpt lat="46.34271" lon="5.89967">
        <ele>1157.3</ele>
        <time>2014-08-17T14:38:55.489Z</time>
      </trkpt>
      <trkpt lat="46.34263" lon="5.89984">
        <ele>1154.8</ele>
        <time>2014-08-17T14:38:57.085Z</time>
      </trkpt>
      <trkpt lat="46.34267" lon="5.90001">
        <ele>1152.4</ele>
        <time>2014-08-17T14:38:58.820Z</time>
      </trkpt>
      <trkpt lat="46.34247" lon="5.9004">
        <ele>1148.1</ele>
        <time>2014-08-17T14:39:06.162Z</time>
      </trkpt>
      <trkpt lat="46.34192" lon="5.90039">
        <ele>1145.6</ele>
        <time>2014-08-17T14:39:13.011Z</time>
      </trkpt>
      <trkpt lat="46.34177" lon="5.90045">
        <ele>1144.9</ele>
        <time>2014-08-17T14:39:15.011Z</time>
      </trkpt>
      <trkpt lat="46.34157" lon="5.90057">
        <ele>1144.4</ele>
        <time>2014-08-17T14:39:17.911Z</time>
      </trkpt>
      <trkpt lat="46.34137" lon="5.90064">
        <ele>1143.8</ele>
        <time>2014-08-17T14:39:20.683Z</time>
      </trkpt>
      <trkpt lat="46.34124" lon="5.90065">
        <ele>1142.9</ele>
        <time>2014-08-17T14:39:22.462Z</time>
      </trkpt>
      <trkpt lat="46.34108" lon="5.90067">
        <ele>1142.3</ele>
        <time>2014-08-17T14:39:24.382Z</time>
      </trkpt>
      <trkpt lat="46.34085" lon="5.90077">
        <ele>1142.5</ele>
        <time>2014-08-17T14:39:27.296Z</time>
      </trkpt>
      <trkpt lat="46.3403" lon="5.90118">
        <ele>1143.6</ele>
        <time>2014-08-17T14:39:36.258Z</time>
      </trkpt>
      <trkpt lat="46.33986" lon="5.90163">
        <ele>1142.8</ele>
        <time>2014-08-17T14:39:44.938Z</time>
      </trkpt>
      <trkpt lat="46.33976" lon="5.9017">
        <ele>1142.8</ele>
        <time>2014-08-17T14:39:46.847Z</time>
      </trkpt>
      <trkpt lat="46.33963" lon="5.90177">
        <ele>1143.3</ele>
        <time>2014-08-17T14:39:49.416Z</time>
      </trkpt>
      <trkpt lat="46.33953" lon="5.90176">
        <ele>1144.3</ele>
        <time>2014-08-17T14:39:51.413Z</time>
      </trkpt>
      <trkpt lat="46.33939" lon="5.90173">
        <ele>1145</ele>
        <time>2014-08-17T14:39:54.233Z</time>
      </trkpt>
      <trkpt lat="46.33938" lon="5.90155">
        <ele>1144.8</ele>
        <time>2014-08-17T14:39:56.797Z</time>
      </trkpt>
      <trkpt lat="46.33942" lon="5.90138">
        <ele>1143.6</ele>
        <time>2014-08-17T14:39:59.827Z</time>
      </trkpt>
      <trkpt lat="46.33908" lon="5.90121">
        <ele>1139.2</ele>
        <time>2014-08-17T14:45:45.302Z</time>
      </trkpt>
      <trkpt lat="46.33893" lon="5.90107">
        <ele>1138.3</ele>
        <time>2014-08-17T14:45:48.413Z</time>
      </trkpt>
      <trkpt lat="46.33881" lon="5.90086">
        <ele>1137.1</ele>
        <time>2014-08-17T14:45:50.832Z</time>
      </trkpt>
      <trkpt lat="46.33844" lon="5.89988">
        <ele>1132.2</ele>
        <time>2014-08-17T14:46:05.525Z</time>
      </trkpt>
      <trkpt lat="46.33831" lon="5.89973">
        <ele>1131.4</ele>
        <time>2014-08-17T14:46:08.445Z</time>
      </trkpt>
      <trkpt lat="46.33821" lon="5.89967">
        <ele>1131.5</ele>
        <time>2014-08-17T14:46:10.361Z</time>
      </trkpt>
      <trkpt lat="46.33802" lon="5.8997">
        <ele>1132</ele>
        <time>2014-08-17T14:46:13.545Z</time>
      </trkpt>
      <trkpt lat="46.33775" lon="5.89986">
        <ele>1131.1</ele>
        <time>2014-08-17T14:46:18.578Z</time>
      </trkpt>
      <trkpt lat="46.33759" lon="5.89976">
        <ele>1129.7</ele>
        <time>2014-08-17T14:46:21.407Z</time>
      </trkpt>
      <trkpt lat="46.33738" lon="5.89942">
        <ele>1128.1</ele>
        <time>2014-08-17T14:46:26.307Z</time>
      </trkpt>
      <trkpt lat="46.33727" lon="5.89934">
        <ele>1128.1</ele>
        <time>2014-08-17T14:46:28.219Z</time>
      </trkpt>
      <trkpt lat="46.33701" lon="5.89929">
        <ele>1129.2</ele>
        <time>2014-08-17T14:46:32.172Z</time>
      </trkpt>
      <trkpt lat="46.33682" lon="5.89914">
        <ele>1130</ele>
        <time>2014-08-17T14:46:35.154Z</time>
      </trkpt>
      <trkpt lat="46.33653" lon="5.89865">
        <ele>1129.4</ele>
        <time>2014-08-17T14:46:41.110Z</time>
      </trkpt>
      <trkpt lat="46.33643" lon="5.89849">
        <ele>1127.9</ele>
        <time>2014-08-17T14:46:43.061Z</time>
      </trkpt>
      <trkpt lat="46.33627" lon="5.89809">
        <ele>1126.3</ele>
        <time>2014-08-17T14:46:47.034Z</time>
      </trkpt>
      <trkpt lat="46.33617" lon="5.89791">
        <ele>1126.1</ele>
        <time>2014-08-17T14:46:48.981Z</time>
      </trkpt>
      <trkpt lat="46.33595" lon="5.89776">
        <ele>1125.9</ele>
        <time>2014-08-17T14:46:52.022Z</time>
      </trkpt>
      <trkpt lat="46.33571" lon="5.89775">
        <ele>1125.4</ele>
        <time>2014-08-17T14:46:55.141Z</time>
      </trkpt>
      <trkpt lat="46.33549" lon="5.89788">
        <ele>1124.3</ele>
        <time>2014-08-17T14:46:58.198Z</time>
      </trkpt>
      <trkpt lat="46.33514" lon="5.89845">
        <ele>1119.9</ele>
        <time>2014-08-17T14:47:05.298Z</time>
      </trkpt>
      <trkpt lat="46.33485" lon="5.89896">
        <ele>1116.3</ele>
        <time>2014-08-17T14:47:12.279Z</time>
      </trkpt>
      <trkpt lat="46.33471" lon="5.89911">
        <ele>1116.6</ele>
        <time>2014-08-17T14:47:15.231Z</time>
      </trkpt>
      <trkpt lat="46.33448" lon="5.89927">
        <ele>1118.6</ele>
        <time>2014-08-17T14:47:20.050Z</time>
      </trkpt>
      <trkpt lat="46.33397" lon="5.89962">
        <ele>1117.2</ele>
        <time>2014-08-17T14:47:31.666Z</time>
      </trkpt>
      <trkpt lat="46.33361" lon="5.89996">
        <ele>1113.8</ele>
        <time>2014-08-17T14:47:39.901Z</time>
      </trkpt>
      <trkpt lat="46.33348" lon="5.90011">
        <ele>1116.6</ele>
        <time>2014-08-17T14:47:42.801Z</time>
      </trkpt>
      <trkpt lat="46.33306" lon="5.9007">
        <ele>1117.9</ele>
        <time>2014-08-17T14:47:52.009Z</time>
      </trkpt>
      <trkpt lat="46.33296" lon="5.90082">
        <ele>1114.4</ele>
        <time>2014-08-17T14:47:54.028Z</time>
      </trkpt>
      <trkpt lat="46.33256" lon="5.90117">
        <ele>1113.1</ele>
        <time>2014-08-17T14:48:01.405Z</time>
      </trkpt>
      <trkpt lat="46.33244" lon="5.9013">
        <ele>1113.5</ele>
        <time>2014-08-17T14:48:03.733Z</time>
      </trkpt>
      <trkpt lat="46.33232" lon="5.90149">
        <ele>1111.1</ele>
        <time>2014-08-17T14:48:06.703Z</time>
      </trkpt>
      <trkpt lat="46.33195" lon="5.90244">
        <ele>1114.3</ele>
        <time>2014-08-17T14:48:20.686Z</time>
      </trkpt>
      <trkpt lat="46.33169" lon="5.90325">
        <ele>1114.9</ele>
        <time>2014-08-17T14:48:33.497Z</time>
      </trkpt>
      <trkpt lat="46.33146" lon="5.9038">
        <ele>1114.3</ele>
        <time>2014-08-17T14:48:45.634Z</time>
      </trkpt>
      <trkpt lat="46.33142" lon="5.90393">
        <ele>1112</ele>
        <time>2014-08-17T14:48:48.442Z</time>
      </trkpt>
      <trkpt lat="46.33135" lon="5.90406">
        <ele>1110.3</ele>
        <time>2014-08-17T14:48:51.657Z</time>
      </trkpt>
      <trkpt lat="46.33123" lon="5.90409">
        <ele>1110.6</ele>
        <time>2014-08-17T14:48:54.808Z</time>
      </trkpt>
      <trkpt lat="46.33111" lon="5.904">
        <ele>1112.4</ele>
        <time>2014-08-17T14:48:57.721Z</time>
      </trkpt>
      <trkpt lat="46.32707" lon="5.89961">
        <ele>1125.3</ele>
        <time>2014-08-17T14:50:34.169Z</time>
      </trkpt>
      <trkpt lat="46.3268" lon="5.89942">
        <ele>1123.9</ele>
        <time>2014-08-17T14:50:43.803Z</time>
      </trkpt>
      <trkpt lat="46.32607" lon="5.89912">
        <ele>1135.1</ele>
        <time>2014-08-17T14:51:12.247Z</time>
      </trkpt>
      <trkpt lat="46.32597" lon="5.89907">
        <ele>1136.7</ele>
        <time>2014-08-17T14:51:16.970Z</time>
      </trkpt>
      <trkpt lat="46.32552" lon="5.89882">
        <ele>1137</ele>
        <time>2014-08-17T14:51:39.042Z</time>
      </trkpt>
      <trkpt lat="46.32526" lon="5.8986">
        <ele>1137.3</ele>
        <time>2014-08-17T14:51:51.821Z</time>
      </trkpt>
      <trkpt lat="46.32489" lon="5.89811">
        <ele>1147.8</ele>
        <time>2014-08-17T14:52:13.462Z</time>
      </trkpt>
      <trkpt lat="46.32476" lon="5.89789">
        <ele>1151.2</ele>
        <time>2014-08-17T14:52:23.073Z</time>
      </trkpt>
      <trkpt lat="46.32462" lon="5.8977">
        <ele>1148.1</ele>
        <time>2014-08-17T14:52:31.967Z</time>
      </trkpt>
      <trkpt lat="46.3245" lon="5.8975">
        <ele>1147.3</ele>
        <time>2014-08-17T14:52:40.617Z</time>
      </trkpt>
      <trkpt lat="46.32445" lon="5.89737">
        <ele>1147.2</ele>
        <time>2014-08-17T14:52:45.110Z</time>
      </trkpt>
      <trkpt lat="46.32442" lon="5.89724">
        <ele>1148.1</ele>
        <time>2014-08-17T14:52:49.185Z</time>
      </trkpt>
      <trkpt lat="46.32439" lon="5.89696">
        <ele>1151.3</ele>
        <time>2014-08-17T14:52:57.160Z</time>
      </trkpt>
      <trkpt lat="46.32435" lon="5.89563">
        <ele>1161.4</ele>
        <time>2014-08-17T14:53:26.169Z</time>
      </trkpt>
      <trkpt lat="46.32428" lon="5.89576">
        <ele>1161.9</ele>
        <time>2014-08-17T14:53:29.445Z</time>
      </trkpt>
      <trkpt lat="46.3242" lon="5.89606">
        <ele>1157.5</ele>
        <time>2014-08-17T14:53:36.718Z</time>
      </trkpt>
      <trkpt lat="46.32423" lon="5.89618">
        <ele>1154.8</ele>
        <time>2014-08-17T14:53:40.229Z</time>
      </trkpt>
      <trkpt lat="46.3243" lon="5.89626">
        <ele>1153.5</ele>
        <time>2014-08-17T14:53:43.709Z</time>
      </trkpt>
      <trkpt lat="46.3244" lon="5.89622">
        <ele>1153.8</ele>
        <time>2014-08-17T14:53:47.879Z</time>
      </trkpt>
      <trkpt lat="46.32441" lon="5.89605">
        <ele>1155.2</ele>
        <time>2014-08-17T14:53:52.275Z</time>
      </trkpt>
      <trkpt lat="46.32433" lon="5.89561">
        <ele>1158</ele>
        <time>2014-08-17T14:54:07.212Z</time>
      </trkpt>
      <trkpt lat="46.32432" lon="5.89542">
        <ele>1158</ele>
        <time>2014-08-17T14:54:12.331Z</time>
      </trkpt>
      <trkpt lat="46.32436" lon="5.89494">
        <ele>1156.9</ele>
        <time>2014-08-17T14:54:22.223Z</time>
      </trkpt>
      <trkpt lat="46.32441" lon="5.89473">
        <ele>1157.1</ele>
        <time>2014-08-17T14:54:26.011Z</time>
      </trkpt>
      <trkpt lat="46.32487" lon="5.89367">
        <ele>1156</ele>
        <time>2014-08-17T14:54:46.783Z</time>
      </trkpt>
      <trkpt lat="46.32503" lon="5.89339">
        <ele>1155.6</ele>
        <time>2014-08-17T14:54:52.670Z</time>
      </trkpt>
      <trkpt lat="46.32512" lon="5.89314">
        <ele>1155.5</ele>
        <time>2014-08-17T14:54:57.140Z</time>
      </trkpt>
      <trkpt lat="46.32515" lon="5.89292">
        <ele>1155.1</ele>
        <time>2014-08-17T14:55:00.299Z</time>
      </trkpt>
      <trkpt lat="46.32516" lon="5.89259">
        <ele>1154.4</ele>
        <time>2014-08-17T14:55:03.851Z</time>
      </trkpt>
      <trkpt lat="46.32512" lon="5.89136">
        <ele>1151.4</ele>
        <time>2014-08-17T14:55:14.918Z</time>
      </trkpt>
      <trkpt lat="46.32514" lon="5.89112">
        <ele>1151.1</ele>
        <time>2014-08-17T14:55:16.916Z</time>
      </trkpt>
      <trkpt lat="46.32519" lon="5.89091">
        <ele>1150.2</ele>
        <time>2014-08-17T14:55:18.834Z</time>
      </trkpt>
      <trkpt lat="46.32545" lon="5.89032">
        <ele>1147.3</ele>
        <time>2014-08-17T14:55:25.240Z</time>
      </trkpt>
      <trkpt lat="46.32552" lon="5.89022">
        <ele>1147.6</ele>
        <time>2014-08-17T14:55:27.210Z</time>
      </trkpt>
      <trkpt lat="46.3257" lon="5.89008">
        <ele>1152.8</ele>
        <time>2014-08-17T14:55:32.402Z</time>
      </trkpt>
      <trkpt lat="46.32591" lon="5.88985">
        <ele>1156.3</ele>
        <time>2014-08-17T14:55:39.230Z</time>
      </trkpt>
      <trkpt lat="46.32599" lon="5.88973">
        <ele>1155.8</ele>
        <time>2014-08-17T14:55:41.986Z</time>
      </trkpt>
      <trkpt lat="46.32633" lon="5.88872">
        <ele>1151</ele>
        <time>2014-08-17T14:55:57.407Z</time>
      </trkpt>
      <trkpt lat="46.32714" lon="5.88734">
        <ele>1139.2</ele>
        <time>2014-08-17T14:56:11.061Z</time>
      </trkpt>
      <trkpt lat="46.32743" lon="5.887">
        <ele>1132</ele>
        <time>2014-08-17T14:56:14.528Z</time>
      </trkpt>
      <trkpt lat="46.32787" lon="5.88654">
        <ele>1134.2</ele>
        <time>2014-08-17T14:56:21.652Z</time>
      </trkpt>
      <trkpt lat="46.32797" lon="5.88641">
        <ele>1135.5</ele>
        <time>2014-08-17T14:56:24.574Z</time>
      </trkpt>
      <trkpt lat="46.32805" lon="5.88632">
        <ele>1137.2</ele>
        <time>2014-08-17T14:56:27.317Z</time>
      </trkpt>
      <trkpt lat="46.32811" lon="5.88622">
        <ele>1139.3</ele>
        <time>2014-08-17T14:56:29.888Z</time>
      </trkpt>
      <trkpt lat="46.32818" lon="5.88593">
        <ele>1142</ele>
        <time>2014-08-17T14:56:36.318Z</time>
      </trkpt>
      <trkpt lat="46.32819" lon="5.88566">
        <ele>1140.6</ele>
        <time>2014-08-17T14:56:42.262Z</time>
      </trkpt>
      <trkpt lat="46.32818" lon="5.88551">
        <ele>1141</ele>
        <time>2014-08-17T14:56:45.758Z</time>
      </trkpt>
      <trkpt lat="46.32823" lon="5.88539">
        <ele>1142.2</ele>
        <time>2014-08-17T14:56:49.440Z</time>
      </trkpt>
      <trkpt lat="46.32846" lon="5.88461">
        <ele>1146.9</ele>
        <time>2014-08-17T14:57:19.526Z</time>
      </trkpt>
      <trkpt lat="46.32849" lon="5.88448">
        <ele>1148.2</ele>
        <time>2014-08-17T14:57:24.928Z</time>
      </trkpt>
      <trkpt lat="46.32849" lon="5.88433">
        <ele>1148.9</ele>
        <time>2014-08-17T14:57:30.743Z</time>
      </trkpt>
      <trkpt lat="46.32845" lon="5.88421">
        <ele>1148.8</ele>
        <time>2014-08-17T14:57:35.655Z</time>
      </trkpt>
      <trkpt lat="46.32838" lon="5.88407">
        <ele>1148.6</ele>
        <time>2014-08-17T14:57:41.583Z</time>
      </trkpt>
      <trkpt lat="46.32832" lon="5.88398">
        <ele>1148.5</ele>
        <time>2014-08-17T14:57:46.160Z</time>
      </trkpt>
      <trkpt lat="46.32826" lon="5.88386">
        <ele>1149.1</ele>
        <time>2014-08-17T14:57:51.188Z</time>
      </trkpt>
      <trkpt lat="46.32822" lon="5.88371">
        <ele>1150.4</ele>
        <time>2014-08-17T14:57:56.214Z</time>
      </trkpt>
      <trkpt lat="46.32821" lon="5.88358">
        <ele>1151.8</ele>
        <time>2014-08-17T14:58:00.275Z</time>
      </trkpt>
      <trkpt lat="46.32823" lon="5.88344">
        <ele>1152.8</ele>
        <time>2014-08-17T14:58:04.621Z</time>
      </trkpt>
      <trkpt lat="46.3283" lon="5.88335">
        <ele>1153.7</ele>
        <time>2014-08-17T14:58:08.910Z</time>
      </trkpt>
      <trkpt lat="46.3284" lon="5.88328">
        <ele>1154.8</ele>
        <time>2014-08-17T14:58:13.690Z</time>
      </trkpt>
      <trkpt lat="46.32851" lon="5.88326">
        <ele>1156.8</ele>
        <time>2014-08-17T14:58:18.509Z</time>
      </trkpt>
      <trkpt lat="46.32882" lon="5.88326">
        <ele>1164.2</ele>
        <time>2014-08-17T14:58:32.506Z</time>
      </trkpt>
      <trkpt lat="46.32891" lon="5.88329">
        <ele>1167</ele>
        <time>2014-08-17T14:58:37.265Z</time>
      </trkpt>
      <trkpt lat="46.32941" lon="5.88348">
        <ele>1169.3</ele>
        <time>2014-08-17T14:59:01.197Z</time>
      </trkpt>
      <trkpt lat="46.32951" lon="5.88349">
        <ele>1170</ele>
        <time>2014-08-17T14:59:05.912Z</time>
      </trkpt>
      <trkpt lat="46.32961" lon="5.88347">
        <ele>1172.7</ele>
        <time>2014-08-17T14:59:10.072Z</time>
      </trkpt>
      <trkpt lat="46.3297" lon="5.88343">
        <ele>1175.1</ele>
        <time>2014-08-17T14:59:14.301Z</time>
      </trkpt>
      <trkpt lat="46.3298" lon="5.88339">
        <ele>1175</ele>
        <time>2014-08-17T14:59:19.142Z</time>
      </trkpt>
      <trkpt lat="46.32991" lon="5.88339">
        <ele>1173</ele>
        <time>2014-08-17T14:59:24.071Z</time>
      </trkpt>
      <trkpt lat="46.33" lon="5.8834">
        <ele>1171.1</ele>
        <time>2014-08-17T14:59:28.504Z</time>
      </trkpt>
      <trkpt lat="46.33011" lon="5.88344">
        <ele>1170</ele>
        <time>2014-08-17T14:59:33.674Z</time>
      </trkpt>
      <trkpt lat="46.33029" lon="5.88343">
        <ele>1170.1</ele>
        <time>2014-08-17T14:59:42.516Z</time>
      </trkpt>
      <trkpt lat="46.33048" lon="5.88339">
        <ele>1173.1</ele>
        <time>2014-08-17T14:59:52.240Z</time>
      </trkpt>
      <trkpt lat="46.33059" lon="5.88339">
        <ele>1179.1</ele>
        <time>2014-08-17T14:59:57.777Z</time>
      </trkpt>
      <trkpt lat="46.3307" lon="5.8834">
        <ele>1184.6</ele>
        <time>2014-08-17T15:00:03.172Z</time>
      </trkpt>
      <trkpt lat="46.3308" lon="5.88337">
        <ele>1187</ele>
        <time>2014-08-17T15:00:08.257Z</time>
      </trkpt>
      <trkpt lat="46.33089" lon="5.88333">
        <ele>1187.2</ele>
        <time>2014-08-17T15:00:12.718Z</time>
      </trkpt>
      <trkpt lat="46.33107" lon="5.8832">
        <ele>1187.4</ele>
        <time>2014-08-17T15:00:22.945Z</time>
      </trkpt>
      <trkpt lat="46.33127" lon="5.88309">
        <ele>1186.2</ele>
        <time>2014-08-17T15:00:33.165Z</time>
      </trkpt>
      <trkpt lat="46.33137" lon="5.88302">
        <ele>1185.1</ele>
        <time>2014-08-17T15:00:38.615Z</time>
      </trkpt>
      <trkpt lat="46.33142" lon="5.8829">
        <ele>1184.9</ele>
        <time>2014-08-17T15:00:43.835Z</time>
      </trkpt>
      <trkpt lat="46.33136" lon="5.88274">
        <ele>1186.1</ele>
        <time>2014-08-17T15:02:26.253Z</time>
      </trkpt>
      <trkpt lat="46.33127" lon="5.88269">
        <ele>1184.7</ele>
        <time>2014-08-17T15:02:37.330Z</time>
      </trkpt>
      <trkpt lat="46.33118" lon="5.88267">
        <ele>1183.8</ele>
        <time>2014-08-17T15:02:45.833Z</time>
      </trkpt>
      <trkpt lat="46.33104" lon="5.88255">
        <ele>1182.9</ele>
        <time>2014-08-17T15:03:07.647Z</time>
      </trkpt>
      <trkpt lat="46.33095" lon="5.8825">
        <ele>1179.8</ele>
        <time>2014-08-17T15:03:12.853Z</time>
      </trkpt>
      <trkpt lat="46.33085" lon="5.88246">
        <ele>1172.2</ele>
        <time>2014-08-17T15:03:16.836Z</time>
      </trkpt>
      <trkpt lat="46.33058" lon="5.88245">
        <ele>1161.6</ele>
        <time>2014-08-17T15:07:27.095Z</time>
      </trkpt>
      <trkpt lat="46.33049" lon="5.88239">
        <ele>1167.6</ele>
        <time>2014-08-17T15:07:31.765Z</time>
      </trkpt>
      <trkpt lat="46.3304" lon="5.88231">
        <ele>1176.3</ele>
        <time>2014-08-17T15:07:35.615Z</time>
      </trkpt>
      <trkpt lat="46.3303" lon="5.88224">
        <ele>1183.1</ele>
        <time>2014-08-17T15:07:39.473Z</time>
      </trkpt>
      <trkpt lat="46.33019" lon="5.88219">
        <ele>1185.7</ele>
        <time>2014-08-17T15:07:42.634Z</time>
      </trkpt>
      <trkpt lat="46.33003" lon="5.882">
        <ele>1185.1</ele>
        <time>2014-08-17T15:07:48.530Z</time>
      </trkpt>
      <trkpt lat="46.32988" lon="5.88178">
        <ele>1182.9</ele>
        <time>2014-08-17T15:07:54.978Z</time>
      </trkpt>
      <trkpt lat="46.32961" lon="5.88148">
        <ele>1182.8</ele>
        <time>2014-08-17T15:08:05.568Z</time>
      </trkpt>
      <trkpt lat="46.32954" lon="5.88139">
        <ele>1183.7</ele>
        <time>2014-08-17T15:08:08.266Z</time>
      </trkpt>
      <trkpt lat="46.32947" lon="5.88126">
        <ele>1184.6</ele>
        <time>2014-08-17T15:08:11.471Z</time>
      </trkpt>
      <trkpt lat="46.32941" lon="5.88109">
        <ele>1185</ele>
        <time>2014-08-17T15:08:14.758Z</time>
      </trkpt>
      <trkpt lat="46.32939" lon="5.88094">
        <ele>1184.3</ele>
        <time>2014-08-17T15:08:17.348Z</time>
      </trkpt>
      <trkpt lat="46.32941" lon="5.88059">
        <ele>1181.8</ele>
        <time>2014-08-17T15:08:23.224Z</time>
      </trkpt>
      <trkpt lat="46.32938" lon="5.88044">
        <ele>1181.1</ele>
        <time>2014-08-17T15:08:25.850Z</time>
      </trkpt>
      <trkpt lat="46.32939" lon="5.88026">
        <ele>1181.7</ele>
        <time>2014-08-17T15:08:28.892Z</time>
      </trkpt>
      <trkpt lat="46.32944" lon="5.88006">
        <ele>1183.9</ele>
        <time>2014-08-17T15:08:32.356Z</time>
      </trkpt>
      <trkpt lat="46.32944" lon="5.87992">
        <ele>1187.5</ele>
        <time>2014-08-17T15:08:34.707Z</time>
      </trkpt>
      <trkpt lat="46.32925" lon="5.87963">
        <ele>1195.4</ele>
        <time>2014-08-17T15:08:45.965Z</time>
      </trkpt>
      <trkpt lat="46.32914" lon="5.87957">
        <ele>1192.4</ele>
        <time>2014-08-17T15:08:50.145Z</time>
      </trkpt>
      <trkpt lat="46.32903" lon="5.87952">
        <ele>1189.1</ele>
        <time>2014-08-17T15:08:54.133Z</time>
      </trkpt>
      <trkpt lat="46.32894" lon="5.87947">
        <ele>1186.6</ele>
        <time>2014-08-17T15:08:57.711Z</time>
      </trkpt>
      <trkpt lat="46.32875" lon="5.8794">
        <ele>1183.7</ele>
        <time>2014-08-17T15:09:05.232Z</time>
      </trkpt>
      <trkpt lat="46.32865" lon="5.87934">
        <ele>1182.5</ele>
        <time>2014-08-17T15:09:09.200Z</time>
      </trkpt>
      <trkpt lat="46.32856" lon="5.87929">
        <ele>1182.9</ele>
        <time>2014-08-17T15:09:13.279Z</time>
      </trkpt>
      <trkpt lat="46.32837" lon="5.87929">
        <ele>1189.5</ele>
        <time>2014-08-17T15:09:22.642Z</time>
      </trkpt>
      <trkpt lat="46.32807" lon="5.87923">
        <ele>1193.9</ele>
        <time>2014-08-17T15:09:36.850Z</time>
      </trkpt>
      <trkpt lat="46.32784" lon="5.87915">
        <ele>1192.4</ele>
        <time>2014-08-17T15:09:54.728Z</time>
      </trkpt>
      <trkpt lat="46.32775" lon="5.8791">
        <ele>1192</ele>
        <time>2014-08-17T15:09:59.776Z</time>
      </trkpt>
      <trkpt lat="46.32766" lon="5.87907">
        <ele>1191.5</ele>
        <time>2014-08-17T15:10:04.769Z</time>
      </trkpt>
      <trkpt lat="46.32757" lon="5.87909">
        <ele>1191.9</ele>
        <time>2014-08-17T15:10:09.780Z</time>
      </trkpt>
      <trkpt lat="46.32736" lon="5.879">
        <ele>1196.1</ele>
        <time>2014-08-17T15:10:17.309Z</time>
      </trkpt>
      <trkpt lat="46.32727" lon="5.87894">
        <ele>1196.7</ele>
        <time>2014-08-17T15:10:19.866Z</time>
      </trkpt>
      <trkpt lat="46.32711" lon="5.8789">
        <ele>1195.5</ele>
        <time>2014-08-17T15:10:23.997Z</time>
      </trkpt>
      <trkpt lat="46.327" lon="5.87884">
        <ele>1193.5</ele>
        <time>2014-08-17T15:10:27.451Z</time>
      </trkpt>
      <trkpt lat="46.32686" lon="5.87873">
        <ele>1192</ele>
        <time>2014-08-17T15:10:35.197Z</time>
      </trkpt>
      <trkpt lat="46.32678" lon="5.87858">
        <ele>1191.7</ele>
        <time>2014-08-17T15:10:41.377Z</time>
      </trkpt>
      <trkpt lat="46.32677" lon="5.87845">
        <ele>1192.8</ele>
        <time>2014-08-17T15:10:45.799Z</time>
      </trkpt>
      <trkpt lat="46.32667" lon="5.87842">
        <ele>1195.2</ele>
        <time>2014-08-17T15:10:50.863Z</time>
      </trkpt>
      <trkpt lat="46.32655" lon="5.87836">
        <ele>1198.2</ele>
        <time>2014-08-17T15:11:03.097Z</time>
      </trkpt>
      <trkpt lat="46.32636" lon="5.87838">
        <ele>1198.6</ele>
        <time>2014-08-17T15:11:09.160Z</time>
      </trkpt>
      <trkpt lat="46.32625" lon="5.87838">
        <ele>1201.7</ele>
        <time>2014-08-17T15:11:11.886Z</time>
      </trkpt>
      <trkpt lat="46.32616" lon="5.87841">
        <ele>1205.4</ele>
        <time>2014-08-17T15:11:14.200Z</time>
      </trkpt>
      <trkpt lat="46.32595" lon="5.87842">
        <ele>1210.7</ele>
        <time>2014-08-17T15:11:20.018Z</time>
      </trkpt>
      <trkpt lat="46.32586" lon="5.8784">
        <ele>1212.5</ele>
        <time>2014-08-17T15:11:22.692Z</time>
      </trkpt>
      <trkpt lat="46.32566" lon="5.87828">
        <ele>1214</ele>
        <time>2014-08-17T15:11:29.150Z</time>
      </trkpt>
      <trkpt lat="46.32555" lon="5.8782">
        <ele>1211.3</ele>
        <time>2014-08-17T15:11:32.419Z</time>
      </trkpt>
      <trkpt lat="46.3254" lon="5.87813">
        <ele>1207.9</ele>
        <time>2014-08-17T15:11:36.121Z</time>
      </trkpt>
      <trkpt lat="46.32521" lon="5.87809">
        <ele>1206.1</ele>
        <time>2014-08-17T15:11:40.109Z</time>
      </trkpt>
      <trkpt lat="46.32509" lon="5.87814">
        <ele>1205.3</ele>
        <time>2014-08-17T15:11:42.622Z</time>
      </trkpt>
      <trkpt lat="46.32503" lon="5.87828">
        <ele>1204.6</ele>
        <time>2014-08-17T15:11:45.387Z</time>
      </trkpt>
      <trkpt lat="46.32501" lon="5.87844">
        <ele>1202.7</ele>
        <time>2014-08-17T15:11:48.248Z</time>
      </trkpt>
      <trkpt lat="46.32497" lon="5.87857">
        <ele>1200.6</ele>
        <time>2014-08-17T15:11:50.867Z</time>
      </trkpt>
      <trkpt lat="46.32488" lon="5.87866">
        <ele>1199.1</ele>
        <time>2014-08-17T15:11:58.395Z</time>
      </trkpt>
      <trkpt lat="46.3247" lon="5.87876">
        <ele>1201.1</ele>
        <time>2014-08-17T15:12:07.663Z</time>
      </trkpt>
      <trkpt lat="46.3246" lon="5.87881">
        <ele>1202.8</ele>
        <time>2014-08-17T15:12:11.919Z</time>
      </trkpt>
      <trkpt lat="46.32434" lon="5.87899">
        <ele>1202.7</ele>
        <time>2014-08-17T15:12:22.084Z</time>
      </trkpt>
      <trkpt lat="46.32414" lon="5.87909">
        <ele>1203.2</ele>
        <time>2014-08-17T15:12:29.413Z</time>
      </trkpt>
      <trkpt lat="46.32374" lon="5.8792">
        <ele>1208.6</ele>
        <time>2014-08-17T15:12:43.184Z</time>
      </trkpt>
      <trkpt lat="46.32365" lon="5.8792">
        <ele>1208.3</ele>
        <time>2014-08-17T15:12:46.306Z</time>
      </trkpt>
      <trkpt lat="46.32355" lon="5.8792">
        <ele>1207.3</ele>
        <time>2014-08-17T15:12:49.866Z</time>
      </trkpt>
      <trkpt lat="46.32342" lon="5.87917">
        <ele>1205.8</ele>
        <time>2014-08-17T15:13:21.470Z</time>
      </trkpt>
      <trkpt lat="46.32333" lon="5.87911">
        <ele>1205.8</ele>
        <time>2014-08-17T15:13:25.726Z</time>
      </trkpt>
      <trkpt lat="46.32302" lon="5.87904">
        <ele>1206.6</ele>
        <time>2014-08-17T15:13:37.377Z</time>
      </trkpt>
      <trkpt lat="46.32292" lon="5.87899">
        <ele>1207.6</ele>
        <time>2014-08-17T15:13:41.416Z</time>
      </trkpt>
      <trkpt lat="46.32281" lon="5.87897">
        <ele>1209.7</ele>
        <time>2014-08-17T15:13:46.168Z</time>
      </trkpt>
      <trkpt lat="46.32274" lon="5.87886">
        <ele>1211.9</ele>
        <time>2014-08-17T15:13:50.092Z</time>
      </trkpt>
      <trkpt lat="46.32264" lon="5.87877">
        <ele>1212.8</ele>
        <time>2014-08-17T15:13:53.558Z</time>
      </trkpt>
      <trkpt lat="46.32256" lon="5.87867">
        <ele>1211.8</ele>
        <time>2014-08-17T15:13:56.280Z</time>
      </trkpt>
      <trkpt lat="46.32249" lon="5.87859">
        <ele>1210.6</ele>
        <time>2014-08-17T15:13:58.708Z</time>
      </trkpt>
      <trkpt lat="46.3224" lon="5.87846">
        <ele>1210.5</ele>
        <time>2014-08-17T15:14:01.835Z</time>
      </trkpt>
      <trkpt lat="46.32198" lon="5.87805">
        <ele>1214.2</ele>
        <time>2014-08-17T15:14:12.934Z</time>
      </trkpt>
      <trkpt lat="46.3219" lon="5.87792">
        <ele>1210.2</ele>
        <time>2014-08-17T15:14:15.225Z</time>
      </trkpt>
      <trkpt lat="46.32171" lon="5.87776">
        <ele>1201.5</ele>
        <time>2014-08-17T15:14:19.769Z</time>
      </trkpt>
      <trkpt lat="46.32153" lon="5.87751">
        <ele>1203.2</ele>
        <time>2014-08-17T15:14:27.036Z</time>
      </trkpt>
      <trkpt lat="46.32144" lon="5.87743">
        <ele>1203</ele>
        <time>2014-08-17T15:14:31.229Z</time>
      </trkpt>
      <trkpt lat="46.32138" lon="5.87732">
        <ele>1201.4</ele>
        <time>2014-08-17T15:14:36.519Z</time>
      </trkpt>
      <trkpt lat="46.32127" lon="5.87706">
        <ele>1203.1</ele>
        <time>2014-08-17T15:14:47.388Z</time>
      </trkpt>
      <trkpt lat="46.32114" lon="5.87687">
        <ele>1209.1</ele>
        <time>2014-08-17T15:14:55.288Z</time>
      </trkpt>
      <trkpt lat="46.32104" lon="5.87682">
        <ele>1209.3</ele>
        <time>2014-08-17T15:14:59.817Z</time>
      </trkpt>
      <trkpt lat="46.32098" lon="5.87672">
        <ele>1208.2</ele>
        <time>2014-08-17T15:15:05.022Z</time>
      </trkpt>
      <trkpt lat="46.32092" lon="5.8766">
        <ele>1207.7</ele>
        <time>2014-08-17T15:15:11.139Z</time>
      </trkpt>
      <trkpt lat="46.32072" lon="5.87639">
        <ele>1208.2</ele>
        <time>2014-08-17T15:16:58.032Z</time>
      </trkpt>
      <trkpt lat="46.32062" lon="5.87632">
        <ele>1208.4</ele>
        <time>2014-08-17T15:17:02.971Z</time>
      </trkpt>
      <trkpt lat="46.32045" lon="5.8761">
        <ele>1211.9</ele>
        <time>2014-08-17T15:17:10.766Z</time>
      </trkpt>
      <trkpt lat="46.32036" lon="5.87604">
        <ele>1212.6</ele>
        <time>2014-08-17T15:17:13.783Z</time>
      </trkpt>
      <trkpt lat="46.32028" lon="5.87594">
        <ele>1212.2</ele>
        <time>2014-08-17T15:17:17.516Z</time>
      </trkpt>
      <trkpt lat="46.3202" lon="5.87589">
        <ele>1210.9</ele>
        <time>2014-08-17T15:17:21.142Z</time>
      </trkpt>
      <trkpt lat="46.32003" lon="5.87572">
        <ele>1207.8</ele>
        <time>2014-08-17T15:17:31.430Z</time>
      </trkpt>
      <trkpt lat="46.31967" lon="5.87519">
        <ele>1203.3</ele>
        <time>2014-08-17T15:17:56.372Z</time>
      </trkpt>
      <trkpt lat="46.31959" lon="5.87511">
        <ele>1204.6</ele>
        <time>2014-08-17T15:17:59.771Z</time>
      </trkpt>
      <trkpt lat="46.31945" lon="5.87491">
        <ele>1206.6</ele>
        <time>2014-08-17T15:18:08.482Z</time>
      </trkpt>
      <trkpt lat="46.31934" lon="5.87483">
        <ele>1207.6</ele>
        <time>2014-08-17T15:18:14.005Z</time>
      </trkpt>
      <trkpt lat="46.31923" lon="5.87477">
        <ele>1208.5</ele>
        <time>2014-08-17T15:18:17.785Z</time>
      </trkpt>
      <trkpt lat="46.31904" lon="5.8747">
        <ele>1209.1</ele>
        <time>2014-08-17T15:18:24.121Z</time>
      </trkpt>
      <trkpt lat="46.31897" lon="5.8746">
        <ele>1209.7</ele>
        <time>2014-08-17T15:18:27.780Z</time>
      </trkpt>
      <trkpt lat="46.31893" lon="5.87446">
        <ele>1211.6</ele>
        <time>2014-08-17T15:18:32.074Z</time>
      </trkpt>
      <trkpt lat="46.31872" lon="5.87431">
        <ele>1212</ele>
        <time>2014-08-17T15:18:41.325Z</time>
      </trkpt>
      <trkpt lat="46.31866" lon="5.87419">
        <ele>1210.2</ele>
        <time>2014-08-17T15:18:45.873Z</time>
      </trkpt>
      <trkpt lat="46.31847" lon="5.87403">
        <ele>1208.7</ele>
        <time>2014-08-17T15:19:01.049Z</time>
      </trkpt>
      <trkpt lat="46.31831" lon="5.87386">
        <ele>1208.8</ele>
        <time>2014-08-17T15:19:10.289Z</time>
      </trkpt>
      <trkpt lat="46.31822" lon="5.87375">
        <ele>1208.9</ele>
        <time>2014-08-17T15:19:14.711Z</time>
      </trkpt>
      <trkpt lat="46.31803" lon="5.87358">
        <ele>1211.2</ele>
        <time>2014-08-17T15:19:20.433Z</time>
      </trkpt>
      <trkpt lat="46.31789" lon="5.87351">
        <ele>1213</ele>
        <time>2014-08-17T15:19:23.861Z</time>
      </trkpt>
      <trkpt lat="46.31779" lon="5.87348">
        <ele>1214.1</ele>
        <time>2014-08-17T15:19:26.677Z</time>
      </trkpt>
      <trkpt lat="46.31765" lon="5.87328">
        <ele>1211.8</ele>
        <time>2014-08-17T15:19:33.855Z</time>
      </trkpt>
      <trkpt lat="46.31759" lon="5.87317">
        <ele>1208.3</ele>
        <time>2014-08-17T15:19:37.846Z</time>
      </trkpt>
      <trkpt lat="46.31748" lon="5.8731">
        <ele>1204.7</ele>
        <time>2014-08-17T15:19:41.303Z</time>
      </trkpt>
      <trkpt lat="46.3174" lon="5.87303">
        <ele>1201.8</ele>
        <time>2014-08-17T15:19:44.084Z</time>
      </trkpt>
      <trkpt lat="46.31728" lon="5.873">
        <ele>1199.9</ele>
        <time>2014-08-17T15:19:47.498Z</time>
      </trkpt>
      <trkpt lat="46.31717" lon="5.87301">
        <ele>1198.5</ele>
        <time>2014-08-17T15:19:51.231Z</time>
      </trkpt>
      <trkpt lat="46.31711" lon="5.8729">
        <ele>1196.2</ele>
        <time>2014-08-17T15:19:54.743Z</time>
      </trkpt>
      <trkpt lat="46.31703" lon="5.87282">
        <ele>1194.6</ele>
        <time>2014-08-17T15:19:59.388Z</time>
      </trkpt>
      <trkpt lat="46.31693" lon="5.87278">
        <ele>1195.3</ele>
        <time>2014-08-17T15:20:04.560Z</time>
      </trkpt>
      <trkpt lat="46.31685" lon="5.8727">
        <ele>1197.3</ele>
        <time>2014-08-17T15:20:11.149Z</time>
      </trkpt>
      <trkpt lat="46.31677" lon="5.87264">
        <ele>1198.8</ele>
        <time>2014-08-17T15:20:17.918Z</time>
      </trkpt>
      <trkpt lat="46.31667" lon="5.87255">
        <ele>1198.1</ele>
        <time>2014-08-17T15:20:48.727Z</time>
      </trkpt>
      <trkpt lat="46.31659" lon="5.87251">
        <ele>1198.7</ele>
        <time>2014-08-17T15:20:56.858Z</time>
      </trkpt>
      <trkpt lat="46.31642" lon="5.87239">
        <ele>1201.8</ele>
        <time>2014-08-17T15:21:17.899Z</time>
      </trkpt>
      <trkpt lat="46.31631" lon="5.87233">
        <ele>1200.4</ele>
        <time>2014-08-17T15:21:22.774Z</time>
      </trkpt>
      <trkpt lat="46.31622" lon="5.87225">
        <ele>1199.7</ele>
        <time>2014-08-17T15:21:26.780Z</time>
      </trkpt>
      <trkpt lat="46.31612" lon="5.87223">
        <ele>1200</ele>
        <time>2014-08-17T15:21:30.256Z</time>
      </trkpt>
      <trkpt lat="46.31592" lon="5.87224">
        <ele>1201.7</ele>
        <time>2014-08-17T15:21:38.294Z</time>
      </trkpt>
      <trkpt lat="46.31583" lon="5.87229">
        <ele>1201.9</ele>
        <time>2014-08-17T15:21:42.336Z</time>
      </trkpt>
      <trkpt lat="46.31563" lon="5.87267">
        <ele>1199.6</ele>
        <time>2014-08-17T15:22:41.863Z</time>
      </trkpt>
      <trkpt lat="46.31539" lon="5.87259">
        <ele>1198.6</ele>
        <time>2014-08-17T15:23:07.270Z</time>
      </trkpt>
      <trkpt lat="46.31534" lon="5.87247">
        <ele>1198.6</ele>
        <time>2014-08-17T15:23:10.860Z</time>
      </trkpt>
      <trkpt lat="46.31522" lon="5.87229">
        <ele>1199.7</ele>
        <time>2014-08-17T15:24:18.899Z</time>
      </trkpt>
      <trkpt lat="46.31495" lon="5.87205">
        <ele>1195.5</ele>
        <time>2014-08-17T15:24:29.772Z</time>
      </trkpt>
      <trkpt lat="46.3148" lon="5.87189">
        <ele>1193</ele>
        <time>2014-08-17T15:24:36.355Z</time>
      </trkpt>
      <trkpt lat="46.31475" lon="5.87178">
        <ele>1192.3</ele>
        <time>2014-08-17T15:24:40.748Z</time>
      </trkpt>
      <trkpt lat="46.3147" lon="5.87165">
        <ele>1191.6</ele>
        <time>2014-08-17T15:24:46.777Z</time>
      </trkpt>
      <trkpt lat="46.31455" lon="5.87149">
        <ele>1189.2</ele>
        <time>2014-08-17T15:25:01.458Z</time>
      </trkpt>
      <trkpt lat="46.31447" lon="5.87138">
        <ele>1188.9</ele>
        <time>2014-08-17T15:25:07.236Z</time>
      </trkpt>
      <trkpt lat="46.31439" lon="5.87132">
        <ele>1188.7</ele>
        <time>2014-08-17T15:25:11.260Z</time>
      </trkpt>
      <trkpt lat="46.3143" lon="5.87126">
        <ele>1188</ele>
        <time>2014-08-17T15:25:15.422Z</time>
      </trkpt>
      <trkpt lat="46.31412" lon="5.87112">
        <ele>1184.1</ele>
        <time>2014-08-17T15:25:26.085Z</time>
      </trkpt>
      <trkpt lat="46.31406" lon="5.87101">
        <ele>1182</ele>
        <time>2014-08-17T15:25:32.393Z</time>
      </trkpt>
      <trkpt lat="46.31393" lon="5.87061">
        <ele>1180.7</ele>
        <time>2014-08-17T15:25:51.348Z</time>
      </trkpt>
      <trkpt lat="46.31377" lon="5.87025">
        <ele>1173.8</ele>
        <time>2014-08-17T15:26:19.868Z</time>
      </trkpt>
      <trkpt lat="46.31365" lon="5.87016">
        <ele>1173.7</ele>
        <time>2014-08-17T15:26:52.376Z</time>
      </trkpt>
      <trkpt lat="46.31358" lon="5.87007">
        <ele>1173.2</ele>
        <time>2014-08-17T15:26:59.857Z</time>
      </trkpt>
      <trkpt lat="46.31352" lon="5.86987">
        <ele>1172.8</ele>
        <time>2014-08-17T15:27:34.958Z</time>
      </trkpt>
      <trkpt lat="46.31346" lon="5.86976">
        <ele>1172.7</ele>
        <time>2014-08-17T15:27:41.870Z</time>
      </trkpt>
      <trkpt lat="46.31316" lon="5.86977">
        <ele>1175.3</ele>
        <time>2014-08-17T15:30:04.724Z</time>
      </trkpt>
      <trkpt lat="46.31307" lon="5.86975">
        <ele>1180.4</ele>
        <time>2014-08-17T15:30:09.863Z</time>
      </trkpt>
      <trkpt lat="46.31285" lon="5.86966">
        <ele>1187.3</ele>
        <time>2014-08-17T15:30:20.671Z</time>
      </trkpt>
      <trkpt lat="46.31262" lon="5.86948">
        <ele>1184.1</ele>
        <time>2014-08-17T15:30:26.100Z</time>
      </trkpt>
      <trkpt lat="46.31236" lon="5.86917">
        <ele>1179.8</ele>
        <time>2014-08-17T15:30:30.875Z</time>
      </trkpt>
      <trkpt lat="46.31183" lon="5.86845">
        <ele>1174.2</ele>
        <time>2014-08-17T15:30:43.651Z</time>
      </trkpt>
      <trkpt lat="46.31174" lon="5.86836">
        <ele>1172.9</ele>
        <time>2014-08-17T15:30:45.865Z</time>
      </trkpt>
      <trkpt lat="46.31131" lon="5.86797">
        <ele>1172.7</ele>
        <time>2014-08-17T15:31:04.862Z</time>
      </trkpt>
      <trkpt lat="46.31124" lon="5.86785">
        <ele>1173.3</ele>
        <time>2014-08-17T15:31:48.859Z</time>
      </trkpt>
      <trkpt lat="46.31109" lon="5.86769">
        <ele>1171.6</ele>
        <time>2014-08-17T15:32:58.849Z</time>
      </trkpt>
      <trkpt lat="46.31102" lon="5.86758">
        <ele>1171.7</ele>
        <time>2014-08-17T15:33:03.865Z</time>
      </trkpt>
      <trkpt lat="46.31051" lon="5.86723">
        <ele>1173.2</ele>
        <time>2014-08-17T15:33:44.962Z</time>
      </trkpt>
      <trkpt lat="46.31042" lon="5.86719">
        <ele>1175.2</ele>
        <time>2014-08-17T15:33:49.137Z</time>
      </trkpt>
      <trkpt lat="46.31032" lon="5.86719">
        <ele>1176.2</ele>
        <time>2014-08-17T15:33:53.890Z</time>
      </trkpt>
      <trkpt lat="46.31022" lon="5.86722">
        <ele>1176.3</ele>
        <time>2014-08-17T15:33:58.931Z</time>
      </trkpt>
      <trkpt lat="46.31006" lon="5.8673">
        <ele>1175.1</ele>
        <time>2014-08-17T15:34:55.869Z</time>
      </trkpt>
      <trkpt lat="46.30987" lon="5.8673">
        <ele>1174.2</ele>
        <time>2014-08-17T15:35:32.275Z</time>
      </trkpt>
      <trkpt lat="46.30979" lon="5.86724">
        <ele>1177</ele>
        <time>2014-08-17T15:35:39.282Z</time>
      </trkpt>
      <trkpt lat="46.30973" lon="5.86714">
        <ele>1185.2</ele>
        <time>2014-08-17T15:35:45.880Z</time>
      </trkpt>
      <trkpt lat="46.30968" lon="5.86701">
        <ele>1193.8</ele>
        <time>2014-08-17T15:35:53.314Z</time>
      </trkpt>
      <trkpt lat="46.30936" lon="5.86693">
        <ele>1186.7</ele>
        <time>2014-08-17T15:36:34.737Z</time>
      </trkpt>
      <trkpt lat="46.30926" lon="5.86686">
        <ele>1188.5</ele>
        <time>2014-08-17T15:36:39.861Z</time>
      </trkpt>
      <trkpt lat="46.30917" lon="5.86678">
        <ele>1189.8</ele>
        <time>2014-08-17T15:36:45.079Z</time>
      </trkpt>
      <trkpt lat="46.30908" lon="5.86671">
        <ele>1189</ele>
        <time>2014-08-17T15:36:50.365Z</time>
      </trkpt>
      <trkpt lat="46.30869" lon="5.86629">
        <ele>1171</ele>
        <time>2014-08-17T15:37:13.530Z</time>
      </trkpt>
      <trkpt lat="46.3086" lon="5.86622">
        <ele>1171.3</ele>
        <time>2014-08-17T15:37:18.202Z</time>
      </trkpt>
      <trkpt lat="46.30835" lon="5.86596">
        <ele>1172.1</ele>
        <time>2014-08-17T15:37:32.762Z</time>
      </trkpt>
      <trkpt lat="46.30818" lon="5.86582">
        <ele>1171.6</ele>
        <time>2014-08-17T15:37:43.685Z</time>
      </trkpt>
      <trkpt lat="46.30779" lon="5.86539">
        <ele>1171.1</ele>
        <time>2014-08-17T15:38:13.871Z</time>
      </trkpt>
      <trkpt lat="46.30768" lon="5.86511">
        <ele>1172.1</ele>
        <time>2014-08-17T15:39:20.444Z</time>
      </trkpt>
      <trkpt lat="46.30745" lon="5.86483">
        <ele>1189.2</ele>
        <time>2014-08-17T15:39:51.182Z</time>
      </trkpt>
      <trkpt lat="46.30736" lon="5.86477">
        <ele>1188</ele>
        <time>2014-08-17T15:40:07.731Z</time>
      </trkpt>
      <trkpt lat="46.30729" lon="5.86468">
        <ele>1185.3</ele>
        <time>2014-08-17T15:40:23.865Z</time>
      </trkpt>
      <trkpt lat="46.30711" lon="5.86455">
        <ele>1180</ele>
        <time>2014-08-17T15:40:43.878Z</time>
      </trkpt>
      <trkpt lat="46.30671" lon="5.86415">
        <ele>1177.9</ele>
        <time>2014-08-17T15:41:53.065Z</time>
      </trkpt>
      <trkpt lat="46.30661" lon="5.86408">
        <ele>1176.8</ele>
        <time>2014-08-17T15:41:57.063Z</time>
      </trkpt>
      <trkpt lat="46.30652" lon="5.86403">
        <ele>1173.6</ele>
        <time>2014-08-17T15:41:59.771Z</time>
      </trkpt>
      <trkpt lat="46.30642" lon="5.864">
        <ele>1167.4</ele>
        <time>2014-08-17T15:42:02.310Z</time>
      </trkpt>
      <trkpt lat="46.30631" lon="5.86395">
        <ele>1159.5</ele>
        <time>2014-08-17T15:42:04.906Z</time>
      </trkpt>
      <trkpt lat="46.30615" lon="5.86393">
        <ele>1152.7</ele>
        <time>2014-08-17T15:42:07.623Z</time>
      </trkpt>
      <trkpt lat="46.30597" lon="5.86387">
        <ele>1148.9</ele>
        <time>2014-08-17T15:42:10.438Z</time>
      </trkpt>
      <trkpt lat="46.30585" lon="5.86379">
        <ele>1147.8</ele>
        <time>2014-08-17T15:42:12.332Z</time>
      </trkpt>
      <trkpt lat="46.3057" lon="5.86364">
        <ele>1147.7</ele>
        <time>2014-08-17T15:42:15.139Z</time>
      </trkpt>
      <trkpt lat="46.30551" lon="5.8633">
        <ele>1146.2</ele>
        <time>2014-08-17T15:42:20.588Z</time>
      </trkpt>
      <trkpt lat="46.30542" lon="5.8632">
        <ele>1144.6</ele>
        <time>2014-08-17T15:42:23.141Z</time>
      </trkpt>
      <trkpt lat="46.30523" lon="5.86315">
        <ele>1140.4</ele>
        <time>2014-08-17T15:42:29.100Z</time>
      </trkpt>
      <trkpt lat="46.30494" lon="5.86303">
        <ele>1135.1</ele>
        <time>2014-08-17T15:42:37.821Z</time>
      </trkpt>
      <trkpt lat="46.30477" lon="5.86299">
        <ele>1132.9</ele>
        <time>2014-08-17T15:42:41.062Z</time>
      </trkpt>
      <trkpt lat="46.3046" lon="5.86305">
        <ele>1129.9</ele>
        <time>2014-08-17T15:42:44.003Z</time>
      </trkpt>
      <trkpt lat="46.30443" lon="5.8632">
        <ele>1127.2</ele>
        <time>2014-08-17T15:42:47.124Z</time>
      </trkpt>
      <trkpt lat="46.30433" lon="5.86318">
        <ele>1125.5</ele>
        <time>2014-08-17T15:42:48.876Z</time>
      </trkpt>
      <trkpt lat="46.30428" lon="5.86288">
        <ele>1123.2</ele>
        <time>2014-08-17T15:43:17.354Z</time>
      </trkpt>
      <trkpt lat="46.30432" lon="5.86272">
        <ele>1122.3</ele>
        <time>2014-08-17T15:43:21.375Z</time>
      </trkpt>
      <trkpt lat="46.30436" lon="5.86242">
        <ele>1117.1</ele>
        <time>2014-08-17T15:43:31.673Z</time>
      </trkpt>
      <trkpt lat="46.30435" lon="5.86229">
        <ele>1115.4</ele>
        <time>2014-08-17T15:43:36.727Z</time>
      </trkpt>
      <trkpt lat="46.30427" lon="5.86218">
        <ele>1115</ele>
        <time>2014-08-17T15:43:41.502Z</time>
      </trkpt>
      <trkpt lat="46.30417" lon="5.86212">
        <ele>1115.7</ele>
        <time>2014-08-17T15:43:44.753Z</time>
      </trkpt>
      <trkpt lat="46.30395" lon="5.86207">
        <ele>1117.7</ele>
        <time>2014-08-17T15:43:52.194Z</time>
      </trkpt>
      <trkpt lat="46.30385" lon="5.86208">
        <ele>1118.5</ele>
        <time>2014-08-17T15:43:56.232Z</time>
      </trkpt>
      <trkpt lat="46.30377" lon="5.86214">
        <ele>1119</ele>
        <time>2014-08-17T15:44:00.074Z</time>
      </trkpt>
      <trkpt lat="46.3037" lon="5.86223">
        <ele>1119</ele>
        <time>2014-08-17T15:44:03.797Z</time>
      </trkpt>
      <trkpt lat="46.30362" lon="5.86231">
        <ele>1119.3</ele>
        <time>2014-08-17T15:44:07.081Z</time>
      </trkpt>
      <trkpt lat="46.30352" lon="5.86235">
        <ele>1120.7</ele>
        <time>2014-08-17T15:44:10.821Z</time>
      </trkpt>
      <trkpt lat="46.30342" lon="5.86231">
        <ele>1122.7</ele>
        <time>2014-08-17T15:44:14.582Z</time>
      </trkpt>
      <trkpt lat="46.30332" lon="5.86225">
        <ele>1124.5</ele>
        <time>2014-08-17T15:44:18.893Z</time>
      </trkpt>
      <trkpt lat="46.30311" lon="5.86205">
        <ele>1124.5</ele>
        <time>2014-08-17T15:44:44.902Z</time>
      </trkpt>
      <trkpt lat="46.30305" lon="5.86196">
        <ele>1124.2</ele>
        <time>2014-08-17T15:44:50.218Z</time>
      </trkpt>
      <trkpt lat="46.30296" lon="5.86186">
        <ele>1125.5</ele>
        <time>2014-08-17T15:44:56.034Z</time>
      </trkpt>
      <trkpt lat="46.30286" lon="5.86177">
        <ele>1128.5</ele>
        <time>2014-08-17T15:45:02.971Z</time>
      </trkpt>
      <trkpt lat="46.30277" lon="5.86173">
        <ele>1131.8</ele>
        <time>2014-08-17T15:45:09.189Z</time>
      </trkpt>
      <trkpt lat="46.30268" lon="5.86178">
        <ele>1133.8</ele>
        <time>2014-08-17T15:45:15.273Z</time>
      </trkpt>
      <trkpt lat="46.3026" lon="5.86187">
        <ele>1135.1</ele>
        <time>2014-08-17T15:45:21.360Z</time>
      </trkpt>
      <trkpt lat="46.30248" lon="5.86209">
        <ele>1138.4</ele>
        <time>2014-08-17T15:45:34.408Z</time>
      </trkpt>
      <trkpt lat="46.30239" lon="5.86216">
        <ele>1139.7</ele>
        <time>2014-08-17T15:45:41.511Z</time>
      </trkpt>
      <trkpt lat="46.30229" lon="5.86218">
        <ele>1140.3</ele>
        <time>2014-08-17T15:45:48.641Z</time>
      </trkpt>
      <trkpt lat="46.3022" lon="5.86219">
        <ele>1140.3</ele>
        <time>2014-08-17T15:45:56.170Z</time>
      </trkpt>
      <trkpt lat="46.3021" lon="5.86211">
        <ele>1140</ele>
        <time>2014-08-17T15:46:05.370Z</time>
      </trkpt>
      <trkpt lat="46.30182" lon="5.86167">
        <ele>1144.8</ele>
        <time>2014-08-17T15:46:31.842Z</time>
      </trkpt>
      <trkpt lat="46.30164" lon="5.86117">
        <ele>1149.1</ele>
        <time>2014-08-17T15:46:52.436Z</time>
      </trkpt>
      <trkpt lat="46.30156" lon="5.86108">
        <ele>1147.1</ele>
        <time>2014-08-17T15:46:57.526Z</time>
      </trkpt>
      <trkpt lat="46.30146" lon="5.86109">
        <ele>1146</ele>
        <time>2014-08-17T15:47:02.829Z</time>
      </trkpt>
      <trkpt lat="46.30136" lon="5.86115">
        <ele>1146.5</ele>
        <time>2014-08-17T15:47:08.298Z</time>
      </trkpt>
      <trkpt lat="46.3012" lon="5.86133">
        <ele>1151.1</ele>
        <time>2014-08-17T15:47:18.875Z</time>
      </trkpt>
      <trkpt lat="46.30106" lon="5.86159">
        <ele>1156.1</ele>
        <time>2014-08-17T15:47:40.891Z</time>
      </trkpt>
      <trkpt lat="46.30092" lon="5.86179">
        <ele>1157.1</ele>
        <time>2014-08-17T15:47:51.529Z</time>
      </trkpt>
      <trkpt lat="46.30052" lon="5.86221">
        <ele>1165.6</ele>
        <time>2014-08-17T15:51:46.353Z</time>
      </trkpt>
      <trkpt lat="46.29878" lon="5.86371">
        <ele>1176.6</ele>
        <time>2014-08-17T15:53:05.564Z</time>
      </trkpt>
      <trkpt lat="46.29869" lon="5.86376">
        <ele>1177</ele>
        <time>2014-08-17T15:53:09.430Z</time>
      </trkpt>
      <trkpt lat="46.29858" lon="5.86377">
        <ele>1177.7</ele>
        <time>2014-08-17T15:53:13.917Z</time>
      </trkpt>
      <trkpt lat="46.29849" lon="5.86376">
        <ele>1178.9</ele>
        <time>2014-08-17T15:53:17.817Z</time>
      </trkpt>
      <trkpt lat="46.29798" lon="5.86359">
        <ele>1178.2</ele>
        <time>2014-08-17T15:53:37.995Z</time>
      </trkpt>
      <trkpt lat="46.29787" lon="5.86354">
        <ele>1178.6</ele>
        <time>2014-08-17T15:53:42.276Z</time>
      </trkpt>
      <trkpt lat="46.29778" lon="5.86349">
        <ele>1179.2</ele>
        <time>2014-08-17T15:53:46.144Z</time>
      </trkpt>
      <trkpt lat="46.29733" lon="5.8629">
        <ele>1187.4</ele>
        <time>2014-08-17T15:54:12.603Z</time>
      </trkpt>
      <trkpt lat="46.29728" lon="5.86278">
        <ele>1188.5</ele>
        <time>2014-08-17T15:54:16.883Z</time>
      </trkpt>
      <trkpt lat="46.29727" lon="5.86264">
        <ele>1188.8</ele>
        <time>2014-08-17T15:54:21.086Z</time>
      </trkpt>
      <trkpt lat="46.29731" lon="5.86214">
        <ele>1187.3</ele>
        <time>2014-08-17T15:54:32.247Z</time>
      </trkpt>
      <trkpt lat="46.29727" lon="5.86108">
        <ele>1186.8</ele>
        <time>2014-08-17T15:54:47.103Z</time>
      </trkpt>
      <trkpt lat="46.29729" lon="5.8609">
        <ele>1186.6</ele>
        <time>2014-08-17T15:54:48.659Z</time>
      </trkpt>
      <trkpt lat="46.29736" lon="5.86061">
        <ele>1186</ele>
        <time>2014-08-17T15:54:51.183Z</time>
      </trkpt>
      <trkpt lat="46.29816" lon="5.85823">
        <ele>1171.6</ele>
        <time>2014-08-17T15:55:09.025Z</time>
      </trkpt>
      <trkpt lat="46.29825" lon="5.85785">
        <ele>1169.6</ele>
        <time>2014-08-17T15:55:11.668Z</time>
      </trkpt>
      <trkpt lat="46.29829" lon="5.85756">
        <ele>1168.7</ele>
        <time>2014-08-17T15:55:13.502Z</time>
      </trkpt>
      <trkpt lat="46.2983" lon="5.85708">
        <ele>1168.6</ele>
        <time>2014-08-17T15:55:16.637Z</time>
      </trkpt>
      <trkpt lat="46.29824" lon="5.85681">
        <ele>1168.5</ele>
        <time>2014-08-17T15:55:18.489Z</time>
      </trkpt>
      <trkpt lat="46.29812" lon="5.8566">
        <ele>1168</ele>
        <time>2014-08-17T15:55:20.489Z</time>
      </trkpt>
      <trkpt lat="46.29788" lon="5.85637">
        <ele>1167</ele>
        <time>2014-08-17T15:55:23.638Z</time>
      </trkpt>
      <trkpt lat="46.29772" lon="5.85625">
        <ele>1166.4</ele>
        <time>2014-08-17T15:55:25.809Z</time>
      </trkpt>
      <trkpt lat="46.29728" lon="5.856">
        <ele>1166.9</ele>
        <time>2014-08-17T15:55:33.166Z</time>
      </trkpt>
      <trkpt lat="46.2969" lon="5.85585">
        <ele>1168.4</ele>
        <time>2014-08-17T15:55:41.945Z</time>
      </trkpt>
      <trkpt lat="46.29675" lon="5.85578">
        <ele>1168.7</ele>
        <time>2014-08-17T15:55:45.590Z</time>
      </trkpt>
      <trkpt lat="46.29664" lon="5.85574">
        <ele>1169</ele>
        <time>2014-08-17T15:55:48.406Z</time>
      </trkpt>
      <trkpt lat="46.29622" lon="5.85564">
        <ele>1168.7</ele>
        <time>2014-08-17T15:55:59.217Z</time>
      </trkpt>
      <trkpt lat="46.2961" lon="5.85563">
        <ele>1168.2</ele>
        <time>2014-08-17T15:56:02.426Z</time>
      </trkpt>
      <trkpt lat="46.29589" lon="5.85555">
        <ele>1167.1</ele>
        <time>2014-08-17T15:56:09.270Z</time>
      </trkpt>
      <trkpt lat="46.2957" lon="5.85541">
        <ele>1167.7</ele>
        <time>2014-08-17T15:56:15.781Z</time>
      </trkpt>
      <trkpt lat="46.29411" lon="5.85388">
        <ele>1175.5</ele>
        <time>2014-08-17T15:56:53.283Z</time>
      </trkpt>
      <trkpt lat="46.29393" lon="5.85376">
        <ele>1174.5</ele>
        <time>2014-08-17T15:56:56.353Z</time>
      </trkpt>
      <trkpt lat="46.29324" lon="5.85348">
        <ele>1170</ele>
        <time>2014-08-17T15:57:08.776Z</time>
      </trkpt>
      <trkpt lat="46.29308" lon="5.85336">
        <ele>1169.6</ele>
        <time>2014-08-17T15:57:11.947Z</time>
      </trkpt>
      <trkpt lat="46.29297" lon="5.85327">
        <ele>1168.3</ele>
        <time>2014-08-17T15:57:14.220Z</time>
      </trkpt>
      <trkpt lat="46.29226" lon="5.85251">
        <ele>1166.7</ele>
        <time>2014-08-17T15:57:29.733Z</time>
      </trkpt>
      <trkpt lat="46.29202" lon="5.8523">
        <ele>1167.3</ele>
        <time>2014-08-17T15:57:34.342Z</time>
      </trkpt>
      <trkpt lat="46.29128" lon="5.85188">
        <ele>1162.5</ele>
        <time>2014-08-17T15:57:47.178Z</time>
      </trkpt>
      <trkpt lat="46.29094" lon="5.85175">
        <ele>1165.2</ele>
        <time>2014-08-17T15:57:53.535Z</time>
      </trkpt>
      <trkpt lat="46.29078" lon="5.85171">
        <ele>1166.6</ele>
        <time>2014-08-17T15:57:56.489Z</time>
      </trkpt>
      <trkpt lat="46.29005" lon="5.85169">
        <ele>1165</ele>
        <time>2014-08-17T15:58:11.093Z</time>
      </trkpt>
      <trkpt lat="46.28985" lon="5.85165">
        <ele>1162.5</ele>
        <time>2014-08-17T15:58:15.690Z</time>
      </trkpt>
      <trkpt lat="46.28962" lon="5.85164">
        <ele>1164.7</ele>
        <time>2014-08-17T15:58:21.554Z</time>
      </trkpt>
      <trkpt lat="46.2895" lon="5.8516">
        <ele>1166.5</ele>
        <time>2014-08-17T15:58:25.384Z</time>
      </trkpt>
      <trkpt lat="46.2894" lon="5.8516">
        <ele>1167</ele>
        <time>2014-08-17T15:58:29.057Z</time>
      </trkpt>
      <trkpt lat="46.28931" lon="5.85156">
        <ele>1166.7</ele>
        <time>2014-08-17T15:58:32.884Z</time>
      </trkpt>
      <trkpt lat="46.28902" lon="5.85148">
        <ele>1165.8</ele>
        <time>2014-08-17T15:58:59.857Z</time>
      </trkpt>
      <trkpt lat="46.28891" lon="5.85145">
        <ele>1166.7</ele>
        <time>2014-08-17T15:59:03.141Z</time>
      </trkpt>
      <trkpt lat="46.28871" lon="5.85138">
        <ele>1168.3</ele>
        <time>2014-08-17T15:59:08.379Z</time>
      </trkpt>
      <trkpt lat="46.28847" lon="5.85124">
        <ele>1169.2</ele>
        <time>2014-08-17T15:59:14.495Z</time>
      </trkpt>
      <trkpt lat="46.28821" lon="5.85092">
        <ele>1171.3</ele>
        <time>2014-08-17T15:59:23.041Z</time>
      </trkpt>
      <trkpt lat="46.28814" lon="5.85082">
        <ele>1171.8</ele>
        <time>2014-08-17T15:59:25.524Z</time>
      </trkpt>
      <trkpt lat="46.28797" lon="5.85041">
        <ele>1172.6</ele>
        <time>2014-08-17T15:59:34.886Z</time>
      </trkpt>
      <trkpt lat="46.28781" lon="5.85017">
        <ele>1171.5</ele>
        <time>2014-08-17T16:03:09.631Z</time>
      </trkpt>
      <trkpt lat="46.28765" lon="5.85">
        <ele>1171.7</ele>
        <time>2014-08-17T16:03:17.190Z</time>
      </trkpt>
      <trkpt lat="46.28757" lon="5.84989">
        <ele>1172</ele>
        <time>2014-08-17T16:03:20.318Z</time>
      </trkpt>
      <trkpt lat="46.28608" lon="5.84831">
        <ele>1164.7</ele>
        <time>2014-08-17T16:03:55.806Z</time>
      </trkpt>
      <trkpt lat="46.28577" lon="5.84804">
        <ele>1161.7</ele>
        <time>2014-08-17T16:04:02.794Z</time>
      </trkpt>
      <trkpt lat="46.28569" lon="5.84797">
        <ele>1161.5</ele>
        <time>2014-08-17T16:04:05.333Z</time>
      </trkpt>
      <trkpt lat="46.28562" lon="5.84785">
        <ele>1161.4</ele>
        <time>2014-08-17T16:04:08.270Z</time>
      </trkpt>
      <trkpt lat="46.2856" lon="5.84771">
        <ele>1161.2</ele>
        <time>2014-08-17T16:04:10.895Z</time>
      </trkpt>
      <trkpt lat="46.28565" lon="5.84801">
        <ele>1160</ele>
        <time>2014-08-17T16:05:06.884Z</time>
      </trkpt>
      <trkpt lat="46.28562" lon="5.84782">
        <ele>1159.1</ele>
        <time>2014-08-17T16:07:03.426Z</time>
      </trkpt>
      <trkpt lat="46.28567" lon="5.84765">
        <ele>1160</ele>
        <time>2014-08-17T16:07:09.131Z</time>
      </trkpt>
      <trkpt lat="46.28577" lon="5.84752">
        <ele>1163</ele>
        <time>2014-08-17T16:07:15.478Z</time>
      </trkpt>
      <trkpt lat="46.28577" lon="5.84738">
        <ele>1166.1</ele>
        <time>2014-08-17T16:07:20.762Z</time>
      </trkpt>
      <trkpt lat="46.28578" lon="5.84724">
        <ele>1167.1</ele>
        <time>2014-08-17T16:07:27.150Z</time>
      </trkpt>
      <trkpt lat="46.28579" lon="5.84711">
        <ele>1166</ele>
        <time>2014-08-17T16:07:33.875Z</time>
      </trkpt>
      <trkpt lat="46.28577" lon="5.84697">
        <ele>1163.5</ele>
        <time>2014-08-17T16:07:40.886Z</time>
      </trkpt>
      <trkpt lat="46.28577" lon="5.84684">
        <ele>1160.6</ele>
        <time>2014-08-17T16:07:48.250Z</time>
      </trkpt>
      <trkpt lat="46.2858" lon="5.8467">
        <ele>1159.1</ele>
        <time>2014-08-17T16:07:56.876Z</time>
      </trkpt>
      <trkpt lat="46.2858" lon="5.84656">
        <ele>1159.3</ele>
        <time>2014-08-17T16:08:04.919Z</time>
      </trkpt>
      <trkpt lat="46.28591" lon="5.84635">
        <ele>1161.9</ele>
        <time>2014-08-17T16:08:19.837Z</time>
      </trkpt>
      <trkpt lat="46.28598" lon="5.84609">
        <ele>1163.7</ele>
        <time>2014-08-17T16:08:35.377Z</time>
      </trkpt>
      <trkpt lat="46.286" lon="5.84596">
        <ele>1164</ele>
        <time>2014-08-17T16:08:42.573Z</time>
      </trkpt>
      <trkpt lat="46.28598" lon="5.84514">
        <ele>1164.7</ele>
        <time>2014-08-17T16:09:21.080Z</time>
      </trkpt>
      <trkpt lat="46.28606" lon="5.84486">
        <ele>1165.9</ele>
        <time>2014-08-17T16:09:34.419Z</time>
      </trkpt>
      <trkpt lat="46.28617" lon="5.84462">
        <ele>1166</ele>
        <time>2014-08-17T16:09:46.995Z</time>
      </trkpt>
      <trkpt lat="46.28661" lon="5.84385">
        <ele>1166.1</ele>
        <time>2014-08-17T16:10:37.123Z</time>
      </trkpt>
      <trkpt lat="46.28678" lon="5.84371">
        <ele>1166.4</ele>
        <time>2014-08-17T16:10:51.738Z</time>
      </trkpt>
      <trkpt lat="46.28686" lon="5.84363">
        <ele>1166.5</ele>
        <time>2014-08-17T16:10:58.663Z</time>
      </trkpt>
      <trkpt lat="46.28694" lon="5.84358">
        <ele>1166.5</ele>
        <time>2014-08-17T16:11:04.818Z</time>
      </trkpt>
      <trkpt lat="46.28705" lon="5.84357">
        <ele>1166.5</ele>
        <time>2014-08-17T16:11:11.218Z</time>
      </trkpt>
      <trkpt lat="46.28713" lon="5.84366">
        <ele>1166.6</ele>
        <time>2014-08-17T16:11:16.231Z</time>
      </trkpt>
      <trkpt lat="46.2871" lon="5.84379">
        <ele>1167.3</ele>
        <time>2014-08-17T16:11:21.832Z</time>
      </trkpt>
      <trkpt lat="46.28707" lon="5.84391">
        <ele>1168.5</ele>
        <time>2014-08-17T16:11:27.509Z</time>
      </trkpt>
      <trkpt lat="46.28708" lon="5.84406">
        <ele>1169.7</ele>
        <time>2014-08-17T16:11:34.047Z</time>
      </trkpt>
      <trkpt lat="46.28721" lon="5.84442">
        <ele>1174.3</ele>
        <time>2014-08-17T16:11:55.065Z</time>
      </trkpt>
      <trkpt lat="46.28722" lon="5.84456">
        <ele>1175.2</ele>
        <time>2014-08-17T16:12:03.071Z</time>
      </trkpt>
      <trkpt lat="46.28713" lon="5.84462">
        <ele>1175.6</ele>
        <time>2014-08-17T16:12:11.886Z</time>
      </trkpt>
      <trkpt lat="46.28707" lon="5.84448">
        <ele>1174.5</ele>
        <time>2014-08-17T16:15:02.892Z</time>
      </trkpt>
      <trkpt lat="46.28716" lon="5.84459">
        <ele>1181.5</ele>
        <time>2014-08-18T08:18:10.668Z</time>
      </trkpt>
      <trkpt lat="46.28716" lon="5.84427">
        <ele>1179.5</ele>
        <time>2014-08-18T08:19:14.288Z</time>
      </trkpt>
      <trkpt lat="46.28712" lon="5.84414">
        <ele>1179.1</ele>
        <time>2014-08-18T08:19:17.042Z</time>
      </trkpt>
      <trkpt lat="46.28707" lon="5.84395">
        <ele>1178.4</ele>
        <time>2014-08-18T08:19:20.331Z</time>
      </trkpt>
      <trkpt lat="46.28712" lon="5.84373">
        <ele>1177.5</ele>
        <time>2014-08-18T08:19:24.292Z</time>
      </trkpt>
      <trkpt lat="46.28708" lon="5.84361">
        <ele>1176.6</ele>
        <time>2014-08-18T08:19:26.372Z</time>
      </trkpt>
      <trkpt lat="46.28693" lon="5.84362">
        <ele>1175.5</ele>
        <time>2014-08-18T08:19:30.201Z</time>
      </trkpt>
      <trkpt lat="46.28677" lon="5.84375">
        <ele>1173.8</ele>
        <time>2014-08-18T08:19:35.206Z</time>
      </trkpt>
      <trkpt lat="46.28669" lon="5.84382">
        <ele>1171.2</ele>
        <time>2014-08-18T08:19:39.143Z</time>
      </trkpt>
      <trkpt lat="46.2866" lon="5.84388">
        <ele>1168.9</ele>
        <time>2014-08-18T08:19:43.241Z</time>
      </trkpt>
      <trkpt lat="46.28653" lon="5.84397">
        <ele>1167.6</ele>
        <time>2014-08-18T08:19:46.780Z</time>
      </trkpt>
      <trkpt lat="46.2862" lon="5.84457">
        <ele>1165.8</ele>
        <time>2014-08-18T08:20:04.629Z</time>
      </trkpt>
      <trkpt lat="46.28599" lon="5.84508">
        <ele>1165.2</ele>
        <time>2014-08-18T08:20:16.784Z</time>
      </trkpt>
      <trkpt lat="46.28597" lon="5.84523">
        <ele>1166.2</ele>
        <time>2014-08-18T08:20:19.485Z</time>
      </trkpt>
      <trkpt lat="46.28598" lon="5.84579">
        <ele>1167.6</ele>
        <time>2014-08-18T08:20:28.008Z</time>
      </trkpt>
      <trkpt lat="46.28599" lon="5.84598">
        <ele>1167</ele>
        <time>2014-08-18T08:20:30.566Z</time>
      </trkpt>
      <trkpt lat="46.28598" lon="5.84616">
        <ele>1166</ele>
        <time>2014-08-18T08:20:32.586Z</time>
      </trkpt>
      <trkpt lat="46.2859" lon="5.84641">
        <ele>1165</ele>
        <time>2014-08-18T08:20:35.583Z</time>
      </trkpt>
      <trkpt lat="46.28582" lon="5.84658">
        <ele>1164.3</ele>
        <time>2014-08-18T08:20:37.522Z</time>
      </trkpt>
      <trkpt lat="46.28573" lon="5.84683">
        <ele>1164</ele>
        <time>2014-08-18T08:20:40.094Z</time>
      </trkpt>
      <trkpt lat="46.28573" lon="5.84703">
        <ele>1164.2</ele>
        <time>2014-08-18T08:20:41.925Z</time>
      </trkpt>
      <trkpt lat="46.28568" lon="5.84728">
        <ele>1165.2</ele>
        <time>2014-08-18T08:20:44.703Z</time>
      </trkpt>
      <trkpt lat="46.28567" lon="5.84749">
        <ele>1166.4</ele>
        <time>2014-08-18T08:20:47.172Z</time>
      </trkpt>
      <trkpt lat="46.28563" lon="5.84781">
        <ele>1167.6</ele>
        <time>2014-08-18T08:20:51.660Z</time>
      </trkpt>
      <trkpt lat="46.28552" lon="5.84785">
        <ele>1165.4</ele>
        <time>2014-08-18T08:21:14.786Z</time>
      </trkpt>
      <trkpt lat="46.28538" lon="5.84784">
        <ele>1165.3</ele>
        <time>2014-08-18T08:21:39.455Z</time>
      </trkpt>
      <trkpt lat="46.28527" lon="5.84777">
        <ele>1165.3</ele>
        <time>2014-08-18T08:22:02.306Z</time>
      </trkpt>
      <trkpt lat="46.28554" lon="5.84789">
        <ele>1164.4</ele>
        <time>2014-08-18T08:22:33.762Z</time>
      </trkpt>
      <trkpt lat="46.28562" lon="5.84795">
        <ele>1164.2</ele>
        <time>2014-08-18T08:22:37.491Z</time>
      </trkpt>
      <trkpt lat="46.28558" lon="5.84826">
        <ele>1163.6</ele>
        <time>2014-08-18T08:22:47.694Z</time>
      </trkpt>
      <trkpt lat="46.28558" lon="5.84841">
        <ele>1162.6</ele>
        <time>2014-08-18T08:22:53.351Z</time>
      </trkpt>
      <trkpt lat="46.28555" lon="5.84871">
        <ele>1160.7</ele>
        <time>2014-08-18T08:23:01.941Z</time>
      </trkpt>
      <trkpt lat="46.28536" lon="5.84939">
        <ele>1162.7</ele>
        <time>2014-08-18T08:23:26.841Z</time>
      </trkpt>
      <trkpt lat="46.28518" lon="5.84974">
        <ele>1163.6</ele>
        <time>2014-08-18T08:23:43.910Z</time>
      </trkpt>
      <trkpt lat="46.28514" lon="5.84988">
        <ele>1164.3</ele>
        <time>2014-08-18T08:23:50.371Z</time>
      </trkpt>
      <trkpt lat="46.28492" lon="5.85038">
        <ele>1172.1</ele>
        <time>2014-08-18T08:24:15.504Z</time>
      </trkpt>
      <trkpt lat="46.28488" lon="5.8505">
        <ele>1173</ele>
        <time>2014-08-18T08:24:21.151Z</time>
      </trkpt>
      <trkpt lat="46.28484" lon="5.85061">
        <ele>1173.3</ele>
        <time>2014-08-18T08:24:26.728Z</time>
      </trkpt>
      <trkpt lat="46.28478" lon="5.85071">
        <ele>1172.8</ele>
        <time>2014-08-18T08:24:32.318Z</time>
      </trkpt>
      <trkpt lat="46.28463" lon="5.8511">
        <ele>1175.5</ele>
        <time>2014-08-18T08:24:48.877Z</time>
      </trkpt>
      <trkpt lat="46.28457" lon="5.8512">
        <ele>1176.9</ele>
        <time>2014-08-18T08:24:54.077Z</time>
      </trkpt>
      <trkpt lat="46.28439" lon="5.85157">
        <ele>1181.9</ele>
        <time>2014-08-18T08:25:11.013Z</time>
      </trkpt>
      <trkpt lat="46.28432" lon="5.85166">
        <ele>1182.5</ele>
        <time>2014-08-18T08:25:16.403Z</time>
      </trkpt>
      <trkpt lat="46.28399" lon="5.85237">
        <ele>1188.8</ele>
        <time>2014-08-18T08:25:50.137Z</time>
      </trkpt>
      <trkpt lat="46.28387" lon="5.85315">
        <ele>1189.7</ele>
        <time>2014-08-18T08:26:27.623Z</time>
      </trkpt>
      <trkpt lat="46.28374" lon="5.85355">
        <ele>1192.5</ele>
        <time>2014-08-18T08:26:49.077Z</time>
      </trkpt>
      <trkpt lat="46.28369" lon="5.85383">
        <ele>1196.9</ele>
        <time>2014-08-18T08:27:02.174Z</time>
      </trkpt>
      <trkpt lat="46.2837" lon="5.8541">
        <ele>1201</ele>
        <time>2014-08-18T08:27:15.097Z</time>
      </trkpt>
      <trkpt lat="46.28378" lon="5.85465">
        <ele>1203.5</ele>
        <time>2014-08-18T08:27:38.613Z</time>
      </trkpt>
      <trkpt lat="46.28376" lon="5.85478">
        <ele>1204.2</ele>
        <time>2014-08-18T08:27:43.696Z</time>
      </trkpt>
      <trkpt lat="46.2836" lon="5.85514">
        <ele>1206.5</ele>
        <time>2014-08-18T08:27:59.756Z</time>
      </trkpt>
      <trkpt lat="46.28354" lon="5.85525">
        <ele>1207.3</ele>
        <time>2014-08-18T08:28:04.938Z</time>
      </trkpt>
      <trkpt lat="46.2834" lon="5.85564">
        <ele>1208.5</ele>
        <time>2014-08-18T08:28:20.990Z</time>
      </trkpt>
      <trkpt lat="46.28338" lon="5.85579">
        <ele>1209.4</ele>
        <time>2014-08-18T08:28:26.359Z</time>
      </trkpt>
      <trkpt lat="46.28338" lon="5.85594">
        <ele>1210.9</ele>
        <time>2014-08-18T08:28:31.932Z</time>
      </trkpt>
      <trkpt lat="46.28342" lon="5.8562">
        <ele>1213</ele>
        <time>2014-08-18T08:28:43.723Z</time>
      </trkpt>
      <trkpt lat="46.28343" lon="5.8565">
        <ele>1214.3</ele>
        <time>2014-08-18T08:28:56.358Z</time>
      </trkpt>
      <trkpt lat="46.28342" lon="5.85664">
        <ele>1215.5</ele>
        <time>2014-08-18T08:29:02.472Z</time>
      </trkpt>
      <trkpt lat="46.28339" lon="5.85676">
        <ele>1216.7</ele>
        <time>2014-08-18T08:29:07.860Z</time>
      </trkpt>
      <trkpt lat="46.28332" lon="5.85687">
        <ele>1217.8</ele>
        <time>2014-08-18T08:29:13.516Z</time>
      </trkpt>
      <trkpt lat="46.28325" lon="5.85694">
        <ele>1218.8</ele>
        <time>2014-08-18T08:29:18.668Z</time>
      </trkpt>
      <trkpt lat="46.28301" lon="5.85708">
        <ele>1218.4</ele>
        <time>2014-08-18T08:29:40.388Z</time>
      </trkpt>
      <trkpt lat="46.28292" lon="5.85716">
        <ele>1218.1</ele>
        <time>2014-08-18T08:29:45.226Z</time>
      </trkpt>
      <trkpt lat="46.28283" lon="5.8572">
        <ele>1219</ele>
        <time>2014-08-18T08:29:49.753Z</time>
      </trkpt>
      <trkpt lat="46.28274" lon="5.85719">
        <ele>1221.1</ele>
        <time>2014-08-18T08:29:54.388Z</time>
      </trkpt>
      <trkpt lat="46.28236" lon="5.85706">
        <ele>1229</ele>
        <time>2014-08-18T08:30:15.799Z</time>
      </trkpt>
      <trkpt lat="46.28226" lon="5.85707">
        <ele>1229</ele>
        <time>2014-08-18T08:30:21.873Z</time>
      </trkpt>
      <trkpt lat="46.28188" lon="5.85693">
        <ele>1232</ele>
        <time>2014-08-18T08:30:47.881Z</time>
      </trkpt>
      <trkpt lat="46.2817" lon="5.85681">
        <ele>1234.2</ele>
        <time>2014-08-18T08:30:58.502Z</time>
      </trkpt>
      <trkpt lat="46.28149" lon="5.85661">
        <ele>1237</ele>
        <time>2014-08-18T08:31:07.570Z</time>
      </trkpt>
      <trkpt lat="46.28127" lon="5.85647">
        <ele>1236.3</ele>
        <time>2014-08-18T08:31:12.648Z</time>
      </trkpt>
      <trkpt lat="46.28111" lon="5.8564">
        <ele>1235.7</ele>
        <time>2014-08-18T08:31:15.535Z</time>
      </trkpt>
      <trkpt lat="46.28096" lon="5.85636">
        <ele>1235.1</ele>
        <time>2014-08-18T08:31:18.026Z</time>
      </trkpt>
      <trkpt lat="46.28082" lon="5.85636">
        <ele>1234.5</ele>
        <time>2014-08-18T08:31:20.289Z</time>
      </trkpt>
      <trkpt lat="46.28045" lon="5.85651">
        <ele>1233.6</ele>
        <time>2014-08-18T08:31:27.470Z</time>
      </trkpt>
      <trkpt lat="46.28036" lon="5.85652">
        <ele>1233.2</ele>
        <time>2014-08-18T08:31:29.662Z</time>
      </trkpt>
      <trkpt lat="46.27977" lon="5.85633">
        <ele>1236.3</ele>
        <time>2014-08-18T08:31:56.250Z</time>
      </trkpt>
      <trkpt lat="46.27966" lon="5.85632">
        <ele>1240.6</ele>
        <time>2014-08-18T08:32:02.336Z</time>
      </trkpt>
      <trkpt lat="46.27948" lon="5.85627">
        <ele>1244.9</ele>
        <time>2014-08-18T08:32:14.255Z</time>
      </trkpt>
      <trkpt lat="46.27937" lon="5.85628">
        <ele>1243.6</ele>
        <time>2014-08-18T08:32:21.401Z</time>
      </trkpt>
      <trkpt lat="46.27928" lon="5.85631">
        <ele>1242</ele>
        <time>2014-08-18T08:32:27.593Z</time>
      </trkpt>
      <trkpt lat="46.27915" lon="5.85636">
        <ele>1240.6</ele>
        <time>2014-08-18T08:32:36.201Z</time>
      </trkpt>
      <trkpt lat="46.27905" lon="5.85636">
        <ele>1238.9</ele>
        <time>2014-08-18T08:32:41.623Z</time>
      </trkpt>
      <trkpt lat="46.27896" lon="5.8564">
        <ele>1237.5</ele>
        <time>2014-08-18T08:32:45.968Z</time>
      </trkpt>
      <trkpt lat="46.27888" lon="5.85646">
        <ele>1237.6</ele>
        <time>2014-08-18T08:32:50.202Z</time>
      </trkpt>
      <trkpt lat="46.27881" lon="5.85657">
        <ele>1239.3</ele>
        <time>2014-08-18T08:32:54.489Z</time>
      </trkpt>
      <trkpt lat="46.27875" lon="5.85669">
        <ele>1240.9</ele>
        <time>2014-08-18T08:32:58.930Z</time>
      </trkpt>
      <trkpt lat="46.27852" lon="5.85697">
        <ele>1240.8</ele>
        <time>2014-08-18T08:33:11.752Z</time>
      </trkpt>
      <trkpt lat="46.27825" lon="5.85722">
        <ele>1241.8</ele>
        <time>2014-08-18T08:33:22.563Z</time>
      </trkpt>
      <trkpt lat="46.27816" lon="5.85726">
        <ele>1242.9</ele>
        <time>2014-08-18T08:33:25.318Z</time>
      </trkpt>
      <trkpt lat="46.27805" lon="5.85726">
        <ele>1244.5</ele>
        <time>2014-08-18T08:33:28.662Z</time>
      </trkpt>
      <trkpt lat="46.27773" lon="5.8572">
        <ele>1246.4</ele>
        <time>2014-08-18T08:33:48.746Z</time>
      </trkpt>
      <trkpt lat="46.27764" lon="5.8572">
        <ele>1250.9</ele>
        <time>2014-08-18T08:33:52.628Z</time>
      </trkpt>
      <trkpt lat="46.27751" lon="5.85719">
        <ele>1257.4</ele>
        <time>2014-08-18T08:33:57.901Z</time>
      </trkpt>
      <trkpt lat="46.27742" lon="5.85719">
        <ele>1260.3</ele>
        <time>2014-08-18T08:34:01.514Z</time>
      </trkpt>
      <trkpt lat="46.27681" lon="5.85744">
        <ele>1259.6</ele>
        <time>2014-08-18T08:34:22.753Z</time>
      </trkpt>
      <trkpt lat="46.27663" lon="5.85758">
        <ele>1257.6</ele>
        <time>2014-08-18T08:34:29.409Z</time>
      </trkpt>
      <trkpt lat="46.27597" lon="5.85824">
        <ele>1258</ele>
        <time>2014-08-18T08:34:58.067Z</time>
      </trkpt>
      <trkpt lat="46.27589" lon="5.85831">
        <ele>1258</ele>
        <time>2014-08-18T08:35:02.565Z</time>
      </trkpt>
      <trkpt lat="46.2758" lon="5.85838">
        <ele>1258.6</ele>
        <time>2014-08-18T08:35:07.111Z</time>
      </trkpt>
      <trkpt lat="46.27574" lon="5.85848">
        <ele>1258.7</ele>
        <time>2014-08-18T08:35:11.366Z</time>
      </trkpt>
      <trkpt lat="46.27571" lon="5.85864">
        <ele>1257.4</ele>
        <time>2014-08-18T08:35:16.407Z</time>
      </trkpt>
      <trkpt lat="46.2757" lon="5.85905">
        <ele>1250.8</ele>
        <time>2014-08-18T08:35:28.831Z</time>
      </trkpt>
      <trkpt lat="46.27572" lon="5.85921">
        <ele>1251.3</ele>
        <time>2014-08-18T08:35:33.909Z</time>
      </trkpt>
      <trkpt lat="46.27575" lon="5.85936">
        <ele>1253.1</ele>
        <time>2014-08-18T08:35:38.463Z</time>
      </trkpt>
      <trkpt lat="46.27584" lon="5.85962">
        <ele>1257.7</ele>
        <time>2014-08-18T08:35:47.524Z</time>
      </trkpt>
      <trkpt lat="46.2759" lon="5.85976">
        <ele>1261</ele>
        <time>2014-08-18T08:35:52.376Z</time>
      </trkpt>
      <trkpt lat="46.27603" lon="5.85997">
        <ele>1268.4</ele>
        <time>2014-08-18T08:36:01.707Z</time>
      </trkpt>
      <trkpt lat="46.2761" lon="5.86007">
        <ele>1269.6</ele>
        <time>2014-08-18T08:36:07.087Z</time>
      </trkpt>
      <trkpt lat="46.27616" lon="5.86018">
        <ele>1270</ele>
        <time>2014-08-18T08:36:11.675Z</time>
      </trkpt>
      <trkpt lat="46.27615" lon="5.86054">
        <ele>1270.5</ele>
        <time>2014-08-18T08:36:30.307Z</time>
      </trkpt>
      <trkpt lat="46.27608" lon="5.86063">
        <ele>1269.6</ele>
        <time>2014-08-18T08:36:34.559Z</time>
      </trkpt>
      <trkpt lat="46.276" lon="5.86071">
        <ele>1269.3</ele>
        <time>2014-08-18T08:36:38.936Z</time>
      </trkpt>
      <trkpt lat="46.2758" lon="5.86084">
        <ele>1270.5</ele>
        <time>2014-08-18T08:36:48.881Z</time>
      </trkpt>
      <trkpt lat="46.2757" lon="5.86086">
        <ele>1270.1</ele>
        <time>2014-08-18T08:36:53.615Z</time>
      </trkpt>
      <trkpt lat="46.27551" lon="5.86083">
        <ele>1263.1</ele>
        <time>2014-08-18T08:37:02.925Z</time>
      </trkpt>
      <trkpt lat="46.27542" lon="5.86078">
        <ele>1258.1</ele>
        <time>2014-08-18T08:37:07.739Z</time>
      </trkpt>
      <trkpt lat="46.27523" lon="5.86075">
        <ele>1254.1</ele>
        <time>2014-08-18T08:37:19.103Z</time>
      </trkpt>
      <trkpt lat="46.27502" lon="5.86075">
        <ele>1249.7</ele>
        <time>2014-08-18T08:37:31.790Z</time>
      </trkpt>
      <trkpt lat="46.27489" lon="5.86073">
        <ele>1247.1</ele>
        <time>2014-08-18T08:37:38.784Z</time>
      </trkpt>
      <trkpt lat="46.27481" lon="5.8607">
        <ele>1249.2</ele>
        <time>2014-08-18T08:37:44.189Z</time>
      </trkpt>
      <trkpt lat="46.27471" lon="5.86068">
        <ele>1255.2</ele>
        <time>2014-08-18T08:37:50.009Z</time>
      </trkpt>
      <trkpt lat="46.27462" lon="5.86067">
        <ele>1261.8</ele>
        <time>2014-08-18T08:37:55.531Z</time>
      </trkpt>
      <trkpt lat="46.27452" lon="5.86064">
        <ele>1267</ele>
        <time>2014-08-18T08:38:00.638Z</time>
      </trkpt>
      <trkpt lat="46.27443" lon="5.86059">
        <ele>1270.7</ele>
        <time>2014-08-18T08:38:06.155Z</time>
      </trkpt>
      <trkpt lat="46.27433" lon="5.86056">
        <ele>1273.7</ele>
        <time>2014-08-18T08:38:11.185Z</time>
      </trkpt>
      <trkpt lat="46.27406" lon="5.86038">
        <ele>1277.6</ele>
        <time>2014-08-18T08:38:26.616Z</time>
      </trkpt>
      <trkpt lat="46.27396" lon="5.86038">
        <ele>1277.5</ele>
        <time>2014-08-18T08:38:31.297Z</time>
      </trkpt>
      <trkpt lat="46.27377" lon="5.86047">
        <ele>1278.6</ele>
        <time>2014-08-18T08:38:40.220Z</time>
      </trkpt>
      <trkpt lat="46.27368" lon="5.86053">
        <ele>1279.1</ele>
        <time>2014-08-18T08:38:44.877Z</time>
      </trkpt>
      <trkpt lat="46.27357" lon="5.86056">
        <ele>1279.3</ele>
        <time>2014-08-18T08:38:50.395Z</time>
      </trkpt>
      <trkpt lat="46.27319" lon="5.86071">
        <ele>1287.6</ele>
        <time>2014-08-18T08:39:11.602Z</time>
      </trkpt>
      <trkpt lat="46.27309" lon="5.86072">
        <ele>1288.8</ele>
        <time>2014-08-18T08:39:16.856Z</time>
      </trkpt>
      <trkpt lat="46.273" lon="5.86073">
        <ele>1288.6</ele>
        <time>2014-08-18T08:39:21.945Z</time>
      </trkpt>
      <trkpt lat="46.2729" lon="5.86076">
        <ele>1287.4</ele>
        <time>2014-08-18T08:39:26.854Z</time>
      </trkpt>
      <trkpt lat="46.27281" lon="5.86079">
        <ele>1286.1</ele>
        <time>2014-08-18T08:39:31.375Z</time>
      </trkpt>
      <trkpt lat="46.27271" lon="5.86085">
        <ele>1286.2</ele>
        <time>2014-08-18T08:39:35.961Z</time>
      </trkpt>
      <trkpt lat="46.27253" lon="5.86099">
        <ele>1289.5</ele>
        <time>2014-08-18T08:39:43.821Z</time>
      </trkpt>
      <trkpt lat="46.27243" lon="5.86104">
        <ele>1290.5</ele>
        <time>2014-08-18T08:39:47.721Z</time>
      </trkpt>
      <trkpt lat="46.27223" lon="5.86109">
        <ele>1290.3</ele>
        <time>2014-08-18T08:39:55.390Z</time>
      </trkpt>
      <trkpt lat="46.27203" lon="5.86116">
        <ele>1291.4</ele>
        <time>2014-08-18T08:40:03.755Z</time>
      </trkpt>
      <trkpt lat="46.27194" lon="5.86119">
        <ele>1293.9</ele>
        <time>2014-08-18T08:40:07.935Z</time>
      </trkpt>
      <trkpt lat="46.27184" lon="5.8612">
        <ele>1296.5</ele>
        <time>2014-08-18T08:40:12.185Z</time>
      </trkpt>
      <trkpt lat="46.27173" lon="5.86123">
        <ele>1298</ele>
        <time>2014-08-18T08:40:16.814Z</time>
      </trkpt>
      <trkpt lat="46.27163" lon="5.86124">
        <ele>1298.9</ele>
        <time>2014-08-18T08:40:21.153Z</time>
      </trkpt>
      <trkpt lat="46.27151" lon="5.86122">
        <ele>1299.8</ele>
        <time>2014-08-18T08:40:26.275Z</time>
      </trkpt>
      <trkpt lat="46.27122" lon="5.86104">
        <ele>1300.2</ele>
        <time>2014-08-18T08:40:38.179Z</time>
      </trkpt>
      <trkpt lat="46.27113" lon="5.86101">
        <ele>1300.4</ele>
        <time>2014-08-18T08:40:41.537Z</time>
      </trkpt>
      <trkpt lat="46.27102" lon="5.86103">
        <ele>1300.7</ele>
        <time>2014-08-18T08:40:45.175Z</time>
      </trkpt>
      <trkpt lat="46.27094" lon="5.86109">
        <ele>1300.4</ele>
        <time>2014-08-18T08:40:48.365Z</time>
      </trkpt>
      <trkpt lat="46.27088" lon="5.8612">
        <ele>1299.6</ele>
        <time>2014-08-18T08:40:51.678Z</time>
      </trkpt>
      <trkpt lat="46.27085" lon="5.86149">
        <ele>1298.2</ele>
        <time>2014-08-18T08:41:06.280Z</time>
      </trkpt>
      <trkpt lat="46.27086" lon="5.86176">
        <ele>1298.8</ele>
        <time>2014-08-18T08:41:14.296Z</time>
      </trkpt>
      <trkpt lat="46.27091" lon="5.86202">
        <ele>1303.2</ele>
        <time>2014-08-18T08:41:22.393Z</time>
      </trkpt>
      <trkpt lat="46.27104" lon="5.8624">
        <ele>1307</ele>
        <time>2014-08-18T08:41:34.628Z</time>
      </trkpt>
      <trkpt lat="46.27106" lon="5.86255">
        <ele>1307</ele>
        <time>2014-08-18T08:41:39.062Z</time>
      </trkpt>
      <trkpt lat="46.27105" lon="5.86287">
        <ele>1306.5</ele>
        <time>2014-08-18T08:41:46.785Z</time>
      </trkpt>
      <trkpt lat="46.27106" lon="5.86301">
        <ele>1306.3</ele>
        <time>2014-08-18T08:41:49.817Z</time>
      </trkpt>
      <trkpt lat="46.2711" lon="5.86317">
        <ele>1306.4</ele>
        <time>2014-08-18T08:41:53.200Z</time>
      </trkpt>
      <trkpt lat="46.27116" lon="5.86331">
        <ele>1306.4</ele>
        <time>2014-08-18T08:41:56.266Z</time>
      </trkpt>
      <trkpt lat="46.2713" lon="5.86354">
        <ele>1305.6</ele>
        <time>2014-08-18T08:42:02.018Z</time>
      </trkpt>
      <trkpt lat="46.27136" lon="5.8637">
        <ele>1304.3</ele>
        <time>2014-08-18T08:42:05.105Z</time>
      </trkpt>
      <trkpt lat="46.27144" lon="5.86419">
        <ele>1300.6</ele>
        <time>2014-08-18T08:42:13.517Z</time>
      </trkpt>
      <trkpt lat="46.27153" lon="5.86434">
        <ele>1299.3</ele>
        <time>2014-08-18T08:42:16.377Z</time>
      </trkpt>
      <trkpt lat="46.27168" lon="5.86448">
        <ele>1297.7</ele>
        <time>2014-08-18T08:42:19.240Z</time>
      </trkpt>
      <trkpt lat="46.27202" lon="5.86464">
        <ele>1293.1</ele>
        <time>2014-08-18T08:42:23.593Z</time>
      </trkpt>
      <trkpt lat="46.27224" lon="5.86483">
        <ele>1290.6</ele>
        <time>2014-08-18T08:42:26.279Z</time>
      </trkpt>
      <trkpt lat="46.27239" lon="5.86499">
        <ele>1288.1</ele>
        <time>2014-08-18T08:42:28.307Z</time>
      </trkpt>
      <trkpt lat="46.27247" lon="5.8652">
        <ele>1285.8</ele>
        <time>2014-08-18T08:42:30.359Z</time>
      </trkpt>
      <trkpt lat="46.2725" lon="5.8655">
        <ele>1283.8</ele>
        <time>2014-08-18T08:42:33.948Z</time>
      </trkpt>
      <trkpt lat="46.27249" lon="5.86565">
        <ele>1282.2</ele>
        <time>2014-08-18T08:42:36.300Z</time>
      </trkpt>
      <trkpt lat="46.27244" lon="5.8658">
        <ele>1281.7</ele>
        <time>2014-08-18T08:42:38.696Z</time>
      </trkpt>
      <trkpt lat="46.27231" lon="5.86589">
        <ele>1282.2</ele>
        <time>2014-08-18T08:42:41.423Z</time>
      </trkpt>
      <trkpt lat="46.27181" lon="5.86611">
        <ele>1284.9</ele>
        <time>2014-08-18T08:42:52.868Z</time>
      </trkpt>
      <trkpt lat="46.27171" lon="5.86608">
        <ele>1285.1</ele>
        <time>2014-08-18T08:42:55.468Z</time>
      </trkpt>
      <trkpt lat="46.27161" lon="5.86603">
        <ele>1285.1</ele>
        <time>2014-08-18T08:42:58.318Z</time>
      </trkpt>
      <trkpt lat="46.27145" lon="5.86583">
        <ele>1280.5</ele>
        <time>2014-08-18T08:43:04.373Z</time>
      </trkpt>
      <trkpt lat="46.2713" lon="5.86561">
        <ele>1273.2</ele>
        <time>2014-08-18T08:43:10.479Z</time>
      </trkpt>
      <trkpt lat="46.27122" lon="5.86553">
        <ele>1273.1</ele>
        <time>2014-08-18T08:43:13.137Z</time>
      </trkpt>
      <trkpt lat="46.27111" lon="5.86548">
        <ele>1275.7</ele>
        <time>2014-08-18T08:43:16.781Z</time>
      </trkpt>
      <trkpt lat="46.271" lon="5.86547">
        <ele>1280.2</ele>
        <time>2014-08-18T08:43:20.612Z</time>
      </trkpt>
      <trkpt lat="46.27088" lon="5.86549">
        <ele>1285.5</ele>
        <time>2014-08-18T08:43:24.499Z</time>
      </trkpt>
      <trkpt lat="46.27067" lon="5.86556">
        <ele>1292.2</ele>
        <time>2014-08-18T08:43:32.468Z</time>
      </trkpt>
      <trkpt lat="46.27029" lon="5.86579">
        <ele>1288.9</ele>
        <time>2014-08-18T08:43:49.750Z</time>
      </trkpt>
      <trkpt lat="46.27019" lon="5.86583">
        <ele>1287.5</ele>
        <time>2014-08-18T08:43:53.382Z</time>
      </trkpt>
      <trkpt lat="46.27008" lon="5.86586">
        <ele>1287.4</ele>
        <time>2014-08-18T08:43:57.004Z</time>
      </trkpt>
      <trkpt lat="46.26997" lon="5.86583">
        <ele>1288.9</ele>
        <time>2014-08-18T08:44:00.836Z</time>
      </trkpt>
      <trkpt lat="46.26985" lon="5.86582">
        <ele>1291.7</ele>
        <time>2014-08-18T08:44:05.438Z</time>
      </trkpt>
      <trkpt lat="46.26972" lon="5.86584">
        <ele>1294.2</ele>
        <time>2014-08-18T08:44:09.675Z</time>
      </trkpt>
      <trkpt lat="46.26958" lon="5.86602">
        <ele>1294.8</ele>
        <time>2014-08-18T08:44:26.244Z</time>
      </trkpt>
      <trkpt lat="46.26947" lon="5.86629">
        <ele>1294.8</ele>
        <time>2014-08-18T08:44:36.335Z</time>
      </trkpt>
      <trkpt lat="46.26944" lon="5.86641">
        <ele>1295.8</ele>
        <time>2014-08-18T08:44:40.793Z</time>
      </trkpt>
      <trkpt lat="46.26942" lon="5.86655">
        <ele>1296.7</ele>
        <time>2014-08-18T08:44:44.413Z</time>
      </trkpt>
      <trkpt lat="46.26941" lon="5.86701">
        <ele>1300.3</ele>
        <time>2014-08-18T08:44:55.396Z</time>
      </trkpt>
      <trkpt lat="46.26942" lon="5.86718">
        <ele>1302.3</ele>
        <time>2014-08-18T08:44:58.490Z</time>
      </trkpt>
      <trkpt lat="46.26947" lon="5.86742">
        <ele>1304.5</ele>
        <time>2014-08-18T08:45:02.202Z</time>
      </trkpt>
      <trkpt lat="46.26973" lon="5.86816">
        <ele>1294.5</ele>
        <time>2014-08-18T08:45:12.098Z</time>
      </trkpt>
      <trkpt lat="46.26978" lon="5.86844">
        <ele>1292.2</ele>
        <time>2014-08-18T08:45:16.900Z</time>
      </trkpt>
      <trkpt lat="46.26975" lon="5.8688">
        <ele>1291.1</ele>
        <time>2014-08-18T08:45:22.557Z</time>
      </trkpt>
      <trkpt lat="46.26976" lon="5.86906">
        <ele>1290.4</ele>
        <time>2014-08-18T08:45:26.326Z</time>
      </trkpt>
      <trkpt lat="46.26981" lon="5.86933">
        <ele>1289.5</ele>
        <time>2014-08-18T08:45:30.308Z</time>
      </trkpt>
      <trkpt lat="46.26976" lon="5.86959">
        <ele>1287.8</ele>
        <time>2014-08-18T08:45:34.466Z</time>
      </trkpt>
      <trkpt lat="46.26964" lon="5.86948">
        <ele>1284.7</ele>
        <time>2014-08-18T08:45:38.509Z</time>
      </trkpt>
      <trkpt lat="46.26951" lon="5.86928">
        <ele>1280.9</ele>
        <time>2014-08-18T08:45:47.254Z</time>
      </trkpt>
      <trkpt lat="46.26938" lon="5.86922">
        <ele>1278.3</ele>
        <time>2014-08-18T08:45:54.738Z</time>
      </trkpt>
      <trkpt lat="46.26924" lon="5.86922">
        <ele>1277.4</ele>
        <time>2014-08-18T08:46:02.867Z</time>
      </trkpt>
      <trkpt lat="46.26905" lon="5.86933">
        <ele>1277.5</ele>
        <time>2014-08-18T08:46:15.003Z</time>
      </trkpt>
      <trkpt lat="46.26877" lon="5.86966">
        <ele>1275.9</ele>
        <time>2014-08-18T08:46:39.455Z</time>
      </trkpt>
      <trkpt lat="46.26863" lon="5.86978">
        <ele>1274.4</ele>
        <time>2014-08-18T08:46:49.115Z</time>
      </trkpt>
      <trkpt lat="46.26852" lon="5.86983">
        <ele>1273.5</ele>
        <time>2014-08-18T08:46:57.507Z</time>
      </trkpt>
      <trkpt lat="46.26839" lon="5.86984">
        <ele>1273.5</ele>
        <time>2014-08-18T08:47:09.813Z</time>
      </trkpt>
      <trkpt lat="46.26816" lon="5.86981">
        <ele>1275.7</ele>
        <time>2014-08-18T08:47:50.041Z</time>
      </trkpt>
      <trkpt lat="46.26807" lon="5.86978">
        <ele>1276.8</ele>
        <time>2014-08-18T08:48:08.847Z</time>
      </trkpt>
      <trkpt lat="46.26797" lon="5.86974">
        <ele>1278.1</ele>
        <time>2014-08-18T08:48:27.097Z</time>
      </trkpt>
      <trkpt lat="46.26788" lon="5.86968">
        <ele>1278.9</ele>
        <time>2014-08-18T08:48:35.359Z</time>
      </trkpt>
      <trkpt lat="46.26768" lon="5.86939">
        <ele>1278</ele>
        <time>2014-08-18T08:48:52.041Z</time>
      </trkpt>
      <trkpt lat="46.26758" lon="5.8693">
        <ele>1278.3</ele>
        <time>2014-08-18T08:48:59.225Z</time>
      </trkpt>
      <trkpt lat="46.26748" lon="5.86923">
        <ele>1279</ele>
        <time>2014-08-18T08:49:05.148Z</time>
      </trkpt>
      <trkpt lat="46.26738" lon="5.86922">
        <ele>1280.4</ele>
        <time>2014-08-18T08:49:10.049Z</time>
      </trkpt>
      <trkpt lat="46.26729" lon="5.86923">
        <ele>1282.7</ele>
        <time>2014-08-18T08:49:14.478Z</time>
      </trkpt>
      <trkpt lat="46.26719" lon="5.86927">
        <ele>1285.1</ele>
        <time>2014-08-18T08:49:22.960Z</time>
      </trkpt>
      <trkpt lat="46.26708" lon="5.86925">
        <ele>1287.5</ele>
        <time>2014-08-18T08:49:32.995Z</time>
      </trkpt>
      <trkpt lat="46.26692" lon="5.86907">
        <ele>1291.1</ele>
        <time>2014-08-18T08:49:50.109Z</time>
      </trkpt>
      <trkpt lat="46.26672" lon="5.86904">
        <ele>1288.7</ele>
        <time>2014-08-18T08:50:09.835Z</time>
      </trkpt>
      <trkpt lat="46.26651" lon="5.86912">
        <ele>1286.5</ele>
        <time>2014-08-18T08:50:31.536Z</time>
      </trkpt>
      <trkpt lat="46.26623" lon="5.86914">
        <ele>1294.9</ele>
        <time>2014-08-18T08:50:58.810Z</time>
      </trkpt>
      <trkpt lat="46.26611" lon="5.86916">
        <ele>1297.3</ele>
        <time>2014-08-18T08:51:09.721Z</time>
      </trkpt>
      <trkpt lat="46.26602" lon="5.86917">
        <ele>1298.4</ele>
        <time>2014-08-18T08:51:19.200Z</time>
      </trkpt>
      <trkpt lat="46.26592" lon="5.86913">
        <ele>1298.2</ele>
        <time>2014-08-18T08:51:29.098Z</time>
      </trkpt>
      <trkpt lat="46.26581" lon="5.86912">
        <ele>1297.3</ele>
        <time>2014-08-18T08:51:39.258Z</time>
      </trkpt>
      <trkpt lat="46.26559" lon="5.86915">
        <ele>1297.3</ele>
        <time>2014-08-18T08:52:00.950Z</time>
      </trkpt>
      <trkpt lat="46.26548" lon="5.86915">
        <ele>1297.8</ele>
        <time>2014-08-18T08:52:11.529Z</time>
      </trkpt>
      <trkpt lat="46.26539" lon="5.86917">
        <ele>1297.3</ele>
        <time>2014-08-18T08:52:20.536Z</time>
      </trkpt>
      <trkpt lat="46.26528" lon="5.86922">
        <ele>1295.8</ele>
        <time>2014-08-18T08:52:31.596Z</time>
      </trkpt>
      <trkpt lat="46.26519" lon="5.86921">
        <ele>1294.6</ele>
        <time>2014-08-18T08:52:40.550Z</time>
      </trkpt>
      <trkpt lat="46.26486" lon="5.86951">
        <ele>1292.1</ele>
        <time>2014-08-18T08:53:18.675Z</time>
      </trkpt>
      <trkpt lat="46.26494" lon="5.86944">
        <ele>1291</ele>
        <time>2014-08-18T08:53:27.446Z</time>
      </trkpt>
      <trkpt lat="46.26512" lon="5.86927">
        <ele>1286.9</ele>
        <time>2014-08-18T08:53:48.043Z</time>
      </trkpt>
      <trkpt lat="46.26519" lon="5.86901">
        <ele>1283.9</ele>
        <time>2014-08-18T08:53:58.408Z</time>
      </trkpt>
      <trkpt lat="46.26515" lon="5.86889">
        <ele>1285.7</ele>
        <time>2014-08-18T08:54:08.195Z</time>
      </trkpt>
      <trkpt lat="46.26506" lon="5.86886">
        <ele>1289.3</ele>
        <time>2014-08-18T08:54:18.351Z</time>
      </trkpt>
      <trkpt lat="46.26497" lon="5.86881">
        <ele>1292.5</ele>
        <time>2014-08-18T08:54:28.828Z</time>
      </trkpt>
      <trkpt lat="46.26491" lon="5.86868">
        <ele>1293.7</ele>
        <time>2014-08-18T08:54:47.851Z</time>
      </trkpt>
      <trkpt lat="46.26464" lon="5.86836">
        <ele>1289.5</ele>
        <time>2014-08-18T08:55:39.004Z</time>
      </trkpt>
      <trkpt lat="46.26454" lon="5.86827">
        <ele>1289.5</ele>
        <time>2014-08-18T08:55:56.358Z</time>
      </trkpt>
      <trkpt lat="46.26444" lon="5.86822">
        <ele>1290.3</ele>
        <time>2014-08-18T08:56:12.945Z</time>
      </trkpt>
      <trkpt lat="46.26433" lon="5.86813">
        <ele>1291.1</ele>
        <time>2014-08-18T08:56:21.381Z</time>
      </trkpt>
      <trkpt lat="46.26419" lon="5.86791">
        <ele>1291.6</ele>
        <time>2014-08-18T08:56:29.909Z</time>
      </trkpt>
      <trkpt lat="46.26402" lon="5.86752">
        <ele>1292.7</ele>
        <time>2014-08-18T08:56:42.673Z</time>
      </trkpt>
      <trkpt lat="46.26398" lon="5.86679">
        <ele>1289.6</ele>
        <time>2014-08-18T08:57:18.677Z</time>
      </trkpt>
      <trkpt lat="46.26391" lon="5.86657">
        <ele>1289.7</ele>
        <time>2014-08-18T08:57:33.660Z</time>
      </trkpt>
      <trkpt lat="46.26373" lon="5.8662">
        <ele>1296.8</ele>
        <time>2014-08-18T08:57:46.468Z</time>
      </trkpt>
      <trkpt lat="46.26366" lon="5.8661">
        <ele>1301.3</ele>
        <time>2014-08-18T08:57:49.788Z</time>
      </trkpt>
      <trkpt lat="46.26359" lon="5.86602">
        <ele>1303.8</ele>
        <time>2014-08-18T08:57:53.143Z</time>
      </trkpt>
      <trkpt lat="46.26353" lon="5.86589">
        <ele>1303.9</ele>
        <time>2014-08-18T08:57:57.198Z</time>
      </trkpt>
      <trkpt lat="46.26351" lon="5.86576">
        <ele>1302.9</ele>
        <time>2014-08-18T08:58:01.266Z</time>
      </trkpt>
      <trkpt lat="46.26346" lon="5.86563">
        <ele>1301.9</ele>
        <time>2014-08-18T08:58:06.825Z</time>
      </trkpt>
      <trkpt lat="46.26328" lon="5.86469">
        <ele>1309.4</ele>
        <time>2014-08-18T08:58:38.664Z</time>
      </trkpt>
      <trkpt lat="46.26333" lon="5.86427">
        <ele>1310.5</ele>
        <time>2014-08-18T08:58:52.135Z</time>
      </trkpt>
      <trkpt lat="46.26326" lon="5.86346">
        <ele>1303.5</ele>
        <time>2014-08-18T08:59:13.209Z</time>
      </trkpt>
      <trkpt lat="46.26322" lon="5.86333">
        <ele>1302.5</ele>
        <time>2014-08-18T08:59:16.021Z</time>
      </trkpt>
      <trkpt lat="46.26316" lon="5.86322">
        <ele>1300.6</ele>
        <time>2014-08-18T08:59:18.817Z</time>
      </trkpt>
      <trkpt lat="46.263" lon="5.86288">
        <ele>1296.1</ele>
        <time>2014-08-18T08:59:27.125Z</time>
      </trkpt>
      <trkpt lat="46.26295" lon="5.86275">
        <ele>1296.5</ele>
        <time>2014-08-18T08:59:29.687Z</time>
      </trkpt>
      <trkpt lat="46.26283" lon="5.8625">
        <ele>1301</ele>
        <time>2014-08-18T08:59:39.470Z</time>
      </trkpt>
      <trkpt lat="46.26269" lon="5.86237">
        <ele>1299.9</ele>
        <time>2014-08-18T08:59:44.000Z</time>
      </trkpt>
      <trkpt lat="46.2626" lon="5.86232">
        <ele>1300.6</ele>
        <time>2014-08-18T08:59:46.628Z</time>
      </trkpt>
      <trkpt lat="46.2625" lon="5.86224">
        <ele>1302.3</ele>
        <time>2014-08-18T08:59:50.061Z</time>
      </trkpt>
      <trkpt lat="46.26242" lon="5.86217">
        <ele>1303.3</ele>
        <time>2014-08-18T08:59:52.869Z</time>
      </trkpt>
      <trkpt lat="46.26234" lon="5.86201">
        <ele>1303.6</ele>
        <time>2014-08-18T08:59:56.423Z</time>
      </trkpt>
      <trkpt lat="46.26231" lon="5.86188">
        <ele>1302.9</ele>
        <time>2014-08-18T08:59:58.820Z</time>
      </trkpt>
      <trkpt lat="46.26228" lon="5.86143">
        <ele>1299.1</ele>
        <time>2014-08-18T09:00:06.237Z</time>
      </trkpt>
      <trkpt lat="46.2623" lon="5.86125">
        <ele>1298.7</ele>
        <time>2014-08-18T09:00:09.170Z</time>
      </trkpt>
      <trkpt lat="46.26244" lon="5.86078">
        <ele>1301.6</ele>
        <time>2014-08-18T09:00:17.950Z</time>
      </trkpt>
      <trkpt lat="46.26241" lon="5.8606">
        <ele>1305.7</ele>
        <time>2014-08-18T09:00:21.247Z</time>
      </trkpt>
      <trkpt lat="46.26239" lon="5.86041">
        <ele>1307.5</ele>
        <time>2014-08-18T09:00:24.796Z</time>
      </trkpt>
      <trkpt lat="46.2624" lon="5.86027">
        <ele>1306.4</ele>
        <time>2014-08-18T09:00:27.791Z</time>
      </trkpt>
      <trkpt lat="46.26233" lon="5.86016">
        <ele>1303.4</ele>
        <time>2014-08-18T09:00:30.919Z</time>
      </trkpt>
      <trkpt lat="46.26226" lon="5.86007">
        <ele>1300.1</ele>
        <time>2014-08-18T09:00:34.120Z</time>
      </trkpt>
      <trkpt lat="46.26216" lon="5.86003">
        <ele>1298.9</ele>
        <time>2014-08-18T09:00:36.940Z</time>
      </trkpt>
      <trkpt lat="46.26202" lon="5.85995">
        <ele>1300.6</ele>
        <time>2014-08-18T09:00:40.838Z</time>
      </trkpt>
      <trkpt lat="46.26192" lon="5.85986">
        <ele>1303.1</ele>
        <time>2014-08-18T09:00:43.482Z</time>
      </trkpt>
      <trkpt lat="46.26182" lon="5.85973">
        <ele>1304.4</ele>
        <time>2014-08-18T09:00:46.147Z</time>
      </trkpt>
      <trkpt lat="46.26131" lon="5.85829">
        <ele>1300.3</ele>
        <time>2014-08-18T09:01:02.610Z</time>
      </trkpt>
      <trkpt lat="46.26116" lon="5.85772">
        <ele>1296.3</ele>
        <time>2014-08-18T09:01:08.864Z</time>
      </trkpt>
      <trkpt lat="46.26103" lon="5.85756">
        <ele>1293.6</ele>
        <time>2014-08-18T09:01:11.807Z</time>
      </trkpt>
      <trkpt lat="46.26083" lon="5.85746">
        <ele>1291.1</ele>
        <time>2014-08-18T09:01:16.641Z</time>
      </trkpt>
      <trkpt lat="46.26034" lon="5.85741">
        <ele>1288.8</ele>
        <time>2014-08-18T09:01:35.834Z</time>
      </trkpt>
      <trkpt lat="46.26024" lon="5.85738">
        <ele>1287.2</ele>
        <time>2014-08-18T09:01:39.500Z</time>
      </trkpt>
      <trkpt lat="46.26015" lon="5.85729">
        <ele>1284.9</ele>
        <time>2014-08-18T09:01:43.255Z</time>
      </trkpt>
      <trkpt lat="46.26011" lon="5.85717">
        <ele>1282</ele>
        <time>2014-08-18T09:01:46.250Z</time>
      </trkpt>
      <trkpt lat="46.26009" lon="5.85685">
        <ele>1277.4</ele>
        <time>2014-08-18T09:01:54.167Z</time>
      </trkpt>
      <trkpt lat="46.26005" lon="5.85672">
        <ele>1279.3</ele>
        <time>2014-08-18T09:01:57.541Z</time>
      </trkpt>
      <trkpt lat="46.26005" lon="5.85656">
        <ele>1282.5</ele>
        <time>2014-08-18T09:02:01.671Z</time>
      </trkpt>
      <trkpt lat="46.26" lon="5.85623">
        <ele>1285.2</ele>
        <time>2014-08-18T09:02:09.606Z</time>
      </trkpt>
      <trkpt lat="46.25996" lon="5.85611">
        <ele>1285.8</ele>
        <time>2014-08-18T09:02:12.584Z</time>
      </trkpt>
      <trkpt lat="46.25994" lon="5.85599">
        <ele>1286.3</ele>
        <time>2014-08-18T09:02:15.573Z</time>
      </trkpt>
      <trkpt lat="46.25993" lon="5.85584">
        <ele>1287.1</ele>
        <time>2014-08-18T09:02:18.901Z</time>
      </trkpt>
      <trkpt lat="46.25997" lon="5.85556">
        <ele>1291.9</ele>
        <time>2014-08-18T09:02:24.941Z</time>
      </trkpt>
      <trkpt lat="46.25995" lon="5.85541">
        <ele>1293.9</ele>
        <time>2014-08-18T09:02:27.974Z</time>
      </trkpt>
      <trkpt lat="46.25991" lon="5.85528">
        <ele>1293.9</ele>
        <time>2014-08-18T09:02:31.176Z</time>
      </trkpt>
      <trkpt lat="46.25984" lon="5.85514">
        <ele>1292.7</ele>
        <time>2014-08-18T09:02:35.327Z</time>
      </trkpt>
      <trkpt lat="46.25968" lon="5.85496">
        <ele>1291.1</ele>
        <time>2014-08-18T09:02:43.069Z</time>
      </trkpt>
      <trkpt lat="46.25958" lon="5.85491">
        <ele>1290.6</ele>
        <time>2014-08-18T09:02:47.054Z</time>
      </trkpt>
      <trkpt lat="46.25948" lon="5.8549">
        <ele>1289.3</ele>
        <time>2014-08-18T09:02:51.060Z</time>
      </trkpt>
      <trkpt lat="46.25938" lon="5.85491">
        <ele>1288.1</ele>
        <time>2014-08-18T09:02:54.637Z</time>
      </trkpt>
      <trkpt lat="46.25928" lon="5.85489">
        <ele>1287.8</ele>
        <time>2014-08-18T09:02:57.712Z</time>
      </trkpt>
      <trkpt lat="46.25918" lon="5.85486">
        <ele>1288.4</ele>
        <time>2014-08-18T09:03:00.950Z</time>
      </trkpt>
      <trkpt lat="46.25888" lon="5.85484">
        <ele>1293</ele>
        <time>2014-08-18T09:03:10.190Z</time>
      </trkpt>
      <trkpt lat="46.25868" lon="5.85479">
        <ele>1295.8</ele>
        <time>2014-08-18T09:03:16.706Z</time>
      </trkpt>
      <trkpt lat="46.25859" lon="5.85473">
        <ele>1294.7</ele>
        <time>2014-08-18T09:03:20.191Z</time>
      </trkpt>
      <trkpt lat="46.25852" lon="5.85464">
        <ele>1293</ele>
        <time>2014-08-18T09:03:23.314Z</time>
      </trkpt>
      <trkpt lat="46.25843" lon="5.85437">
        <ele>1292.3</ele>
        <time>2014-08-18T09:03:29.668Z</time>
      </trkpt>
      <trkpt lat="46.25819" lon="5.85402">
        <ele>1294.7</ele>
        <time>2014-08-18T09:03:41.263Z</time>
      </trkpt>
      <trkpt lat="46.2581" lon="5.85395">
        <ele>1294.1</ele>
        <time>2014-08-18T09:03:45.168Z</time>
      </trkpt>
      <trkpt lat="46.25795" lon="5.85375">
        <ele>1293.5</ele>
        <time>2014-08-18T09:03:52.737Z</time>
      </trkpt>
      <trkpt lat="46.25786" lon="5.85366">
        <ele>1294.1</ele>
        <time>2014-08-18T09:03:56.359Z</time>
      </trkpt>
      <trkpt lat="46.25757" lon="5.85347">
        <ele>1285.1</ele>
        <time>2014-08-18T09:04:07.953Z</time>
      </trkpt>
      <trkpt lat="46.25747" lon="5.85342">
        <ele>1280.9</ele>
        <time>2014-08-18T09:04:13.211Z</time>
      </trkpt>
      <trkpt lat="46.25733" lon="5.85327">
        <ele>1278.9</ele>
        <time>2014-08-18T09:04:20.095Z</time>
      </trkpt>
      <trkpt lat="46.25729" lon="5.85314">
        <ele>1279.8</ele>
        <time>2014-08-18T09:04:23.081Z</time>
      </trkpt>
      <trkpt lat="46.2572" lon="5.8528">
        <ele>1287.2</ele>
        <time>2014-08-18T09:04:30.235Z</time>
      </trkpt>
      <trkpt lat="46.25714" lon="5.85269">
        <ele>1294.6</ele>
        <time>2014-08-18T09:04:33.189Z</time>
      </trkpt>
      <trkpt lat="46.25678" lon="5.85224">
        <ele>1305.5</ele>
        <time>2014-08-18T09:04:50.049Z</time>
      </trkpt>
      <trkpt lat="46.25652" lon="5.85201">
        <ele>1298.4</ele>
        <time>2014-08-18T09:05:03.795Z</time>
      </trkpt>
      <trkpt lat="46.25627" lon="5.85185">
        <ele>1299.2</ele>
        <time>2014-08-18T09:05:15.035Z</time>
      </trkpt>
      <trkpt lat="46.25595" lon="5.85156">
        <ele>1301.8</ele>
        <time>2014-08-18T09:05:27.945Z</time>
      </trkpt>
      <trkpt lat="46.25581" lon="5.85134">
        <ele>1301.7</ele>
        <time>2014-08-18T09:05:34.183Z</time>
      </trkpt>
      <trkpt lat="46.25572" lon="5.85126">
        <ele>1302</ele>
        <time>2014-08-18T09:05:37.510Z</time>
      </trkpt>
      <trkpt lat="46.25554" lon="5.85113">
        <ele>1305.3</ele>
        <time>2014-08-18T09:05:44.300Z</time>
      </trkpt>
      <trkpt lat="46.2554" lon="5.85108">
        <ele>1307.1</ele>
        <time>2014-08-18T09:05:50.088Z</time>
      </trkpt>
      <trkpt lat="46.25527" lon="5.851">
        <ele>1307.7</ele>
        <time>2014-08-18T09:05:55.874Z</time>
      </trkpt>
      <trkpt lat="46.25518" lon="5.85096">
        <ele>1308.4</ele>
        <time>2014-08-18T09:05:58.580Z</time>
      </trkpt>
      <trkpt lat="46.25505" lon="5.85093">
        <ele>1310.4</ele>
        <time>2014-08-18T09:06:02.059Z</time>
      </trkpt>
      <trkpt lat="46.25481" lon="5.85085">
        <ele>1313.9</ele>
        <time>2014-08-18T09:06:08.386Z</time>
      </trkpt>
      <trkpt lat="46.2547" lon="5.85082">
        <ele>1313.8</ele>
        <time>2014-08-18T09:06:11.330Z</time>
      </trkpt>
      <trkpt lat="46.25449" lon="5.85075">
        <ele>1311.1</ele>
        <time>2014-08-18T09:06:17.834Z</time>
      </trkpt>
      <trkpt lat="46.25429" lon="5.85072">
        <ele>1304.2</ele>
        <time>2014-08-18T09:06:24.130Z</time>
      </trkpt>
      <trkpt lat="46.25419" lon="5.85068">
        <ele>1302.1</ele>
        <time>2014-08-18T09:06:27.614Z</time>
      </trkpt>
      <trkpt lat="46.2541" lon="5.85061">
        <ele>1303.1</ele>
        <time>2014-08-18T09:06:30.765Z</time>
      </trkpt>
      <trkpt lat="46.25391" lon="5.85056">
        <ele>1311</ele>
        <time>2014-08-18T09:06:36.922Z</time>
      </trkpt>
      <trkpt lat="46.25381" lon="5.85047">
        <ele>1315.4</ele>
        <time>2014-08-18T09:06:40.400Z</time>
      </trkpt>
      <trkpt lat="46.25346" lon="5.85009">
        <ele>1323</ele>
        <time>2014-08-18T09:06:57.460Z</time>
      </trkpt>
      <trkpt lat="46.25267" lon="5.84876">
        <ele>1312.1</ele>
        <time>2014-08-18T09:07:13.477Z</time>
      </trkpt>
      <trkpt lat="46.25178" lon="5.84765">
        <ele>1309.5</ele>
        <time>2014-08-18T09:07:24.729Z</time>
      </trkpt>
      <trkpt lat="46.25164" lon="5.8474">
        <ele>1301.1</ele>
        <time>2014-08-18T09:07:27.452Z</time>
      </trkpt>
      <trkpt lat="46.25159" lon="5.84712">
        <ele>1299.6</ele>
        <time>2014-08-18T09:07:30.244Z</time>
      </trkpt>
      <trkpt lat="46.25167" lon="5.84662">
        <ele>1299.6</ele>
        <time>2014-08-18T09:07:36.312Z</time>
      </trkpt>
      <trkpt lat="46.25177" lon="5.84638">
        <ele>1299.3</ele>
        <time>2014-08-18T09:07:39.074Z</time>
      </trkpt>
      <trkpt lat="46.25187" lon="5.84603">
        <ele>1297.8</ele>
        <time>2014-08-18T09:07:42.678Z</time>
      </trkpt>
      <trkpt lat="46.25188" lon="5.84577">
        <ele>1295.6</ele>
        <time>2014-08-18T09:07:45.729Z</time>
      </trkpt>
      <trkpt lat="46.25169" lon="5.84524">
        <ele>1292.9</ele>
        <time>2014-08-18T09:07:53.934Z</time>
      </trkpt>
      <trkpt lat="46.25151" lon="5.84498">
        <ele>1294.1</ele>
        <time>2014-08-18T09:07:58.823Z</time>
      </trkpt>
      <trkpt lat="46.25137" lon="5.84487">
        <ele>1294.4</ele>
        <time>2014-08-18T09:08:02.162Z</time>
      </trkpt>
      <trkpt lat="46.25099" lon="5.84467">
        <ele>1289</ele>
        <time>2014-08-18T09:08:10.686Z</time>
      </trkpt>
      <trkpt lat="46.25019" lon="5.84413">
        <ele>1286.3</ele>
        <time>2014-08-18T09:08:24.265Z</time>
      </trkpt>
      <trkpt lat="46.25005" lon="5.84399">
        <ele>1283</ele>
        <time>2014-08-18T09:08:26.849Z</time>
      </trkpt>
      <trkpt lat="46.2498" lon="5.84334">
        <ele>1277.4</ele>
        <time>2014-08-18T09:08:35.623Z</time>
      </trkpt>
      <trkpt lat="46.24931" lon="5.84259">
        <ele>1270.9</ele>
        <time>2014-08-18T09:08:46.540Z</time>
      </trkpt>
      <trkpt lat="46.24924" lon="5.84237">
        <ele>1272.2</ele>
        <time>2014-08-18T09:08:48.732Z</time>
      </trkpt>
      <trkpt lat="46.24916" lon="5.84218">
        <ele>1273.3</ele>
        <time>2014-08-18T09:08:50.686Z</time>
      </trkpt>
      <trkpt lat="46.24886" lon="5.84183">
        <ele>1271.5</ele>
        <time>2014-08-18T09:08:54.963Z</time>
      </trkpt>
      <trkpt lat="46.24867" lon="5.84156">
        <ele>1269.1</ele>
        <time>2014-08-18T09:08:57.548Z</time>
      </trkpt>
      <trkpt lat="46.24849" lon="5.84124">
        <ele>1266.5</ele>
        <time>2014-08-18T09:09:00.412Z</time>
      </trkpt>
      <trkpt lat="46.24828" lon="5.84104">
        <ele>1263.9</ele>
        <time>2014-08-18T09:09:03.037Z</time>
      </trkpt>
      <trkpt lat="46.24799" lon="5.84096">
        <ele>1261.3</ele>
        <time>2014-08-18T09:09:06.331Z</time>
      </trkpt>
      <trkpt lat="46.24774" lon="5.84085">
        <ele>1259.1</ele>
        <time>2014-08-18T09:09:09.243Z</time>
      </trkpt>
      <trkpt lat="46.24735" lon="5.83989">
        <ele>1256.4</ele>
        <time>2014-08-18T09:09:17.080Z</time>
      </trkpt>
      <trkpt lat="46.24705" lon="5.83963">
        <ele>1255</ele>
        <time>2014-08-18T09:09:20.531Z</time>
      </trkpt>
      <trkpt lat="46.24686" lon="5.83956">
        <ele>1253.6</ele>
        <time>2014-08-18T09:09:22.511Z</time>
      </trkpt>
      <trkpt lat="46.24658" lon="5.83951">
        <ele>1251.9</ele>
        <time>2014-08-18T09:09:25.285Z</time>
      </trkpt>
      <trkpt lat="46.24632" lon="5.83939">
        <ele>1250.5</ele>
        <time>2014-08-18T09:09:28.008Z</time>
      </trkpt>
      <trkpt lat="46.24617" lon="5.83925">
        <ele>1250</ele>
        <time>2014-08-18T09:09:29.806Z</time>
      </trkpt>
      <trkpt lat="46.2459" lon="5.83908">
        <ele>1250.1</ele>
        <time>2014-08-18T09:09:32.430Z</time>
      </trkpt>
      <trkpt lat="46.24454" lon="5.83851">
        <ele>1242.1</ele>
        <time>2014-08-18T09:09:44.121Z</time>
      </trkpt>
      <trkpt lat="46.24413" lon="5.83804">
        <ele>1232.5</ele>
        <time>2014-08-18T09:09:50.149Z</time>
      </trkpt>
      <trkpt lat="46.24388" lon="5.83793">
        <ele>1225.1</ele>
        <time>2014-08-18T09:09:55.234Z</time>
      </trkpt>
      <trkpt lat="46.24375" lon="5.8379">
        <ele>1223.2</ele>
        <time>2014-08-18T09:09:57.476Z</time>
      </trkpt>
      <trkpt lat="46.24358" lon="5.8379">
        <ele>1222.4</ele>
        <time>2014-08-18T09:10:00.044Z</time>
      </trkpt>
      <trkpt lat="46.24336" lon="5.83808">
        <ele>1221.9</ele>
        <time>2014-08-18T09:10:03.671Z</time>
      </trkpt>
      <trkpt lat="46.24326" lon="5.83819">
        <ele>1220.5</ele>
        <time>2014-08-18T09:10:05.689Z</time>
      </trkpt>
      <trkpt lat="46.24308" lon="5.83817">
        <ele>1217.8</ele>
        <time>2014-08-18T09:10:08.553Z</time>
      </trkpt>
      <trkpt lat="46.2429" lon="5.83798">
        <ele>1215.3</ele>
        <time>2014-08-18T09:10:11.381Z</time>
      </trkpt>
      <trkpt lat="46.24281" lon="5.83767">
        <ele>1213.8</ele>
        <time>2014-08-18T09:10:13.982Z</time>
      </trkpt>
      <trkpt lat="46.24274" lon="5.83728">
        <ele>1212.2</ele>
        <time>2014-08-18T09:10:16.759Z</time>
      </trkpt>
      <trkpt lat="46.24256" lon="5.8368">
        <ele>1204.3</ele>
        <time>2014-08-18T09:10:20.538Z</time>
      </trkpt>
      <trkpt lat="46.24236" lon="5.8365">
        <ele>1200.8</ele>
        <time>2014-08-18T09:10:23.542Z</time>
      </trkpt>
      <trkpt lat="46.24178" lon="5.83529">
        <ele>1190.7</ele>
        <time>2014-08-18T09:10:33.754Z</time>
      </trkpt>
      <trkpt lat="46.24156" lon="5.83501">
        <ele>1187.8</ele>
        <time>2014-08-18T09:10:36.840Z</time>
      </trkpt>
      <trkpt lat="46.24139" lon="5.83496">
        <ele>1185.5</ele>
        <time>2014-08-18T09:10:38.642Z</time>
      </trkpt>
      <trkpt lat="46.24118" lon="5.83497">
        <ele>1183.1</ele>
        <time>2014-08-18T09:10:40.511Z</time>
      </trkpt>
      <trkpt lat="46.24087" lon="5.83491">
        <ele>1181</ele>
        <time>2014-08-18T09:10:43.360Z</time>
      </trkpt>
      <trkpt lat="46.24067" lon="5.83479">
        <ele>1179.6</ele>
        <time>2014-08-18T09:10:45.319Z</time>
      </trkpt>
      <trkpt lat="46.24017" lon="5.8346">
        <ele>1176.5</ele>
        <time>2014-08-18T09:10:49.952Z</time>
      </trkpt>
      <trkpt lat="46.23972" lon="5.83451">
        <ele>1172.5</ele>
        <time>2014-08-18T09:10:54.674Z</time>
      </trkpt>
      <trkpt lat="46.2395" lon="5.83441">
        <ele>1171.5</ele>
        <time>2014-08-18T09:10:57.898Z</time>
      </trkpt>
      <trkpt lat="46.23939" lon="5.83427">
        <ele>1171.7</ele>
        <time>2014-08-18T09:11:00.440Z</time>
      </trkpt>
      <trkpt lat="46.23935" lon="5.83409">
        <ele>1172.7</ele>
        <time>2014-08-18T09:11:03.353Z</time>
      </trkpt>
      <trkpt lat="46.23935" lon="5.83395">
        <ele>1173.8</ele>
        <time>2014-08-18T09:11:06.184Z</time>
      </trkpt>
      <trkpt lat="46.23941" lon="5.83381">
        <ele>1173.7</ele>
        <time>2014-08-18T09:11:10.428Z</time>
      </trkpt>
      <trkpt lat="46.23957" lon="5.83365">
        <ele>1169.6</ele>
        <time>2014-08-18T09:11:21.954Z</time>
      </trkpt>
      <trkpt lat="46.23967" lon="5.83358">
        <ele>1168.1</ele>
        <time>2014-08-18T09:11:27.196Z</time>
      </trkpt>
      <trkpt lat="46.23984" lon="5.83338">
        <ele>1164.6</ele>
        <time>2014-08-18T09:11:35.278Z</time>
      </trkpt>
      <trkpt lat="46.2399" lon="5.83326">
        <ele>1163.3</ele>
        <time>2014-08-18T09:11:39.259Z</time>
      </trkpt>
      <trkpt lat="46.23989" lon="5.83309">
        <ele>1163.8</ele>
        <time>2014-08-18T09:11:44.181Z</time>
      </trkpt>
      <trkpt lat="46.23983" lon="5.8328">
        <ele>1168.2</ele>
        <time>2014-08-18T09:11:52.572Z</time>
      </trkpt>
      <trkpt lat="46.23977" lon="5.8327">
        <ele>1168.1</ele>
        <time>2014-08-18T09:11:56.073Z</time>
      </trkpt>
      <trkpt lat="46.23969" lon="5.83263">
        <ele>1166.8</ele>
        <time>2014-08-18T09:11:59.632Z</time>
      </trkpt>
      <trkpt lat="46.23961" lon="5.83252">
        <ele>1165.6</ele>
        <time>2014-08-18T09:12:04.225Z</time>
      </trkpt>
      <trkpt lat="46.23953" lon="5.83221">
        <ele>1164.7</ele>
        <time>2014-08-18T09:12:12.696Z</time>
      </trkpt>
      <trkpt lat="46.23946" lon="5.83202">
        <ele>1164.4</ele>
        <time>2014-08-18T09:12:16.828Z</time>
      </trkpt>
      <trkpt lat="46.23919" lon="5.83151">
        <ele>1160.7</ele>
        <time>2014-08-18T09:12:24.654Z</time>
      </trkpt>
      <trkpt lat="46.23919" lon="5.83132">
        <ele>1158.9</ele>
        <time>2014-08-18T09:12:26.791Z</time>
      </trkpt>
      <trkpt lat="46.23921" lon="5.83117">
        <ele>1158</ele>
        <time>2014-08-18T09:12:28.365Z</time>
      </trkpt>
      <trkpt lat="46.23922" lon="5.83072">
        <ele>1160.6</ele>
        <time>2014-08-18T09:12:33.445Z</time>
      </trkpt>
      <trkpt lat="46.23918" lon="5.83046">
        <ele>1161.4</ele>
        <time>2014-08-18T09:12:36.449Z</time>
      </trkpt>
      <trkpt lat="46.23896" lon="5.83007">
        <ele>1160.3</ele>
        <time>2014-08-18T09:12:41.956Z</time>
      </trkpt>
      <trkpt lat="46.23867" lon="5.82936">
        <ele>1161.4</ele>
        <time>2014-08-18T09:12:50.381Z</time>
      </trkpt>
      <trkpt lat="46.23864" lon="5.82918">
        <ele>1160.9</ele>
        <time>2014-08-18T09:12:52.360Z</time>
      </trkpt>
      <trkpt lat="46.23863" lon="5.8289">
        <ele>1159.7</ele>
        <time>2014-08-18T09:12:55.369Z</time>
      </trkpt>
      <trkpt lat="46.2384" lon="5.82761">
        <ele>1153.2</ele>
        <time>2014-08-18T09:13:07.580Z</time>
      </trkpt>
      <trkpt lat="46.23831" lon="5.8274">
        <ele>1152.6</ele>
        <time>2014-08-18T09:13:10.119Z</time>
      </trkpt>
      <trkpt lat="46.23797" lon="5.8271">
        <ele>1150.6</ele>
        <time>2014-08-18T09:13:15.364Z</time>
      </trkpt>
      <trkpt lat="46.23782" lon="5.82689">
        <ele>1148.1</ele>
        <time>2014-08-18T09:13:17.995Z</time>
      </trkpt>
      <trkpt lat="46.23772" lon="5.8264">
        <ele>1142.3</ele>
        <time>2014-08-18T09:13:22.616Z</time>
      </trkpt>
      <trkpt lat="46.23775" lon="5.82572">
        <ele>1140.3</ele>
        <time>2014-08-18T09:13:28.980Z</time>
      </trkpt>
      <trkpt lat="46.2377" lon="5.82545">
        <ele>1140</ele>
        <time>2014-08-18T09:13:31.554Z</time>
      </trkpt>
      <trkpt lat="46.23759" lon="5.82521">
        <ele>1139.3</ele>
        <time>2014-08-18T09:13:35.188Z</time>
      </trkpt>
      <trkpt lat="46.23754" lon="5.82505">
        <ele>1140.5</ele>
        <time>2014-08-18T09:13:38.095Z</time>
      </trkpt>
      <trkpt lat="46.23714" lon="5.82462">
        <ele>1142.2</ele>
        <time>2014-08-18T09:13:54.444Z</time>
      </trkpt>
      <trkpt lat="46.23693" lon="5.82429">
        <ele>1140.4</ele>
        <time>2014-08-18T09:14:05.306Z</time>
      </trkpt>
      <trkpt lat="46.23687" lon="5.82419">
        <ele>1139.3</ele>
        <time>2014-08-18T09:14:09.252Z</time>
      </trkpt>
      <trkpt lat="46.23673" lon="5.82379">
        <ele>1136.2</ele>
        <time>2014-08-18T09:14:23.481Z</time>
      </trkpt>
      <trkpt lat="46.2367" lon="5.82366">
        <ele>1135.5</ele>
        <time>2014-08-18T09:14:27.743Z</time>
      </trkpt>
      <trkpt lat="46.23673" lon="5.8231">
        <ele>1146.9</ele>
        <time>2014-08-18T09:14:48.278Z</time>
      </trkpt>
      <trkpt lat="46.23668" lon="5.82267">
        <ele>1155</ele>
        <time>2014-08-18T09:15:05.254Z</time>
      </trkpt>
      <trkpt lat="46.2367" lon="5.82252">
        <ele>1157.9</ele>
        <time>2014-08-18T09:15:11.501Z</time>
      </trkpt>
      <trkpt lat="46.23664" lon="5.82224">
        <ele>1161.2</ele>
        <time>2014-08-18T09:15:21.935Z</time>
      </trkpt>
      <trkpt lat="46.23666" lon="5.82209">
        <ele>1162</ele>
        <time>2014-08-18T09:15:27.462Z</time>
      </trkpt>
      <trkpt lat="46.23666" lon="5.82194">
        <ele>1161.7</ele>
        <time>2014-08-18T09:15:32.756Z</time>
      </trkpt>
      <trkpt lat="46.23661" lon="5.82148">
        <ele>1157</ele>
        <time>2014-08-18T09:15:45.620Z</time>
      </trkpt>
      <trkpt lat="46.23657" lon="5.82134">
        <ele>1155</ele>
        <time>2014-08-18T09:15:48.884Z</time>
      </trkpt>
      <trkpt lat="46.2365" lon="5.82121">
        <ele>1153.5</ele>
        <time>2014-08-18T09:15:52.297Z</time>
      </trkpt>
      <trkpt lat="46.23642" lon="5.8211">
        <ele>1153.6</ele>
        <time>2014-08-18T09:15:55.703Z</time>
      </trkpt>
      <trkpt lat="46.23631" lon="5.82069">
        <ele>1158.3</ele>
        <time>2014-08-18T09:16:04.574Z</time>
      </trkpt>
      <trkpt lat="46.23624" lon="5.81978">
        <ele>1161.3</ele>
        <time>2014-08-18T09:16:23.639Z</time>
      </trkpt>
      <trkpt lat="46.23626" lon="5.81898">
        <ele>1159.6</ele>
        <time>2014-08-18T09:16:38.721Z</time>
      </trkpt>
      <trkpt lat="46.23621" lon="5.81879">
        <ele>1158.9</ele>
        <time>2014-08-18T09:16:42.062Z</time>
      </trkpt>
      <trkpt lat="46.23615" lon="5.81867">
        <ele>1159.5</ele>
        <time>2014-08-18T09:16:44.687Z</time>
      </trkpt>
      <trkpt lat="46.23598" lon="5.81841">
        <ele>1163.4</ele>
        <time>2014-08-18T09:16:54.488Z</time>
      </trkpt>
      <trkpt lat="46.23592" lon="5.81828">
        <ele>1161.6</ele>
        <time>2014-08-18T09:16:56.925Z</time>
      </trkpt>
      <trkpt lat="46.23589" lon="5.81814">
        <ele>1160.7</ele>
        <time>2014-08-18T09:16:59.304Z</time>
      </trkpt>
      <trkpt lat="46.23589" lon="5.81795">
        <ele>1161.1</ele>
        <time>2014-08-18T09:17:02.135Z</time>
      </trkpt>
      <trkpt lat="46.23584" lon="5.8178">
        <ele>1161.8</ele>
        <time>2014-08-18T09:17:04.687Z</time>
      </trkpt>
      <trkpt lat="46.23591" lon="5.81798">
        <ele>1161.2</ele>
        <time>2014-08-18T09:17:22.686Z</time>
      </trkpt>
      <trkpt lat="46.23598" lon="5.81779">
        <ele>1159.1</ele>
        <time>2014-08-18T09:25:03.622Z</time>
      </trkpt>
      <trkpt lat="46.23591" lon="5.81767">
        <ele>1160.4</ele>
        <time>2014-08-18T09:25:08.081Z</time>
      </trkpt>
      <trkpt lat="46.2358" lon="5.81755">
        <ele>1164.2</ele>
        <time>2014-08-18T09:25:12.107Z</time>
      </trkpt>
      <trkpt lat="46.23575" lon="5.81743">
        <ele>1168.2</ele>
        <time>2014-08-18T09:25:14.601Z</time>
      </trkpt>
      <trkpt lat="46.23572" lon="5.8173">
        <ele>1169.6</ele>
        <time>2014-08-18T09:25:16.949Z</time>
      </trkpt>
      <trkpt lat="46.23565" lon="5.81713">
        <ele>1168.3</ele>
        <time>2014-08-18T09:25:20.072Z</time>
      </trkpt>
      <trkpt lat="46.23556" lon="5.81703">
        <ele>1165.5</ele>
        <time>2014-08-18T09:25:22.686Z</time>
      </trkpt>
      <trkpt lat="46.23533" lon="5.81689">
        <ele>1163.5</ele>
        <time>2014-08-18T09:25:27.652Z</time>
      </trkpt>
      <trkpt lat="46.23524" lon="5.81681">
        <ele>1164.7</ele>
        <time>2014-08-18T09:25:29.590Z</time>
      </trkpt>
      <trkpt lat="46.23505" lon="5.81656">
        <ele>1165.9</ele>
        <time>2014-08-18T09:25:33.702Z</time>
      </trkpt>
      <trkpt lat="46.23495" lon="5.81634">
        <ele>1164.2</ele>
        <time>2014-08-18T09:25:36.504Z</time>
      </trkpt>
      <trkpt lat="46.23466" lon="5.81536">
        <ele>1152.7</ele>
        <time>2014-08-18T09:25:45.234Z</time>
      </trkpt>
      <trkpt lat="46.23454" lon="5.81511">
        <ele>1151.1</ele>
        <time>2014-08-18T09:25:47.875Z</time>
      </trkpt>
      <trkpt lat="46.23449" lon="5.81485">
        <ele>1150.7</ele>
        <time>2014-08-18T09:25:50.702Z</time>
      </trkpt>
      <trkpt lat="46.23454" lon="5.81436">
        <ele>1153.8</ele>
        <time>2014-08-18T09:26:00.210Z</time>
      </trkpt>
      <trkpt lat="46.23452" lon="5.81422">
        <ele>1154.8</ele>
        <time>2014-08-18T09:26:03.775Z</time>
      </trkpt>
      <trkpt lat="46.23443" lon="5.81391">
        <ele>1155.2</ele>
        <time>2014-08-18T09:26:18.701Z</time>
      </trkpt>
      <trkpt lat="46.23441" lon="5.81376">
        <ele>1154.7</ele>
        <time>2014-08-18T09:26:22.632Z</time>
      </trkpt>
      <trkpt lat="46.23435" lon="5.81364">
        <ele>1154.8</ele>
        <time>2014-08-18T09:26:26.551Z</time>
      </trkpt>
      <trkpt lat="46.23431" lon="5.81351">
        <ele>1155.6</ele>
        <time>2014-08-18T09:26:29.996Z</time>
      </trkpt>
      <trkpt lat="46.23426" lon="5.81337">
        <ele>1157</ele>
        <time>2014-08-18T09:26:33.582Z</time>
      </trkpt>
      <trkpt lat="46.23404" lon="5.81308">
        <ele>1156.5</ele>
        <time>2014-08-18T09:26:42.910Z</time>
      </trkpt>
      <trkpt lat="46.2339" lon="5.81283">
        <ele>1159.1</ele>
        <time>2014-08-18T09:26:49.128Z</time>
      </trkpt>
      <trkpt lat="46.23382" lon="5.81274">
        <ele>1160.8</ele>
        <time>2014-08-18T09:26:51.665Z</time>
      </trkpt>
      <trkpt lat="46.23361" lon="5.81256">
        <ele>1161.5</ele>
        <time>2014-08-18T09:26:57.281Z</time>
      </trkpt>
      <trkpt lat="46.2334" lon="5.81244">
        <ele>1160.5</ele>
        <time>2014-08-18T09:27:02.198Z</time>
      </trkpt>
      <trkpt lat="46.23329" lon="5.81239">
        <ele>1160</ele>
        <time>2014-08-18T09:27:05.207Z</time>
      </trkpt>
      <trkpt lat="46.23318" lon="5.8123">
        <ele>1160.8</ele>
        <time>2014-08-18T09:27:08.283Z</time>
      </trkpt>
      <trkpt lat="46.23312" lon="5.81221">
        <ele>1162.8</ele>
        <time>2014-08-18T09:27:10.777Z</time>
      </trkpt>
      <trkpt lat="46.23307" lon="5.81208">
        <ele>1164.5</ele>
        <time>2014-08-18T09:27:13.515Z</time>
      </trkpt>
      <trkpt lat="46.23298" lon="5.81178">
        <ele>1162.2</ele>
        <time>2014-08-18T09:27:19.364Z</time>
      </trkpt>
      <trkpt lat="46.23297" lon="5.8113">
        <ele>1160.5</ele>
        <time>2014-08-18T09:27:28.286Z</time>
      </trkpt>
      <trkpt lat="46.23295" lon="5.81117">
        <ele>1161.7</ele>
        <time>2014-08-18T09:27:30.900Z</time>
      </trkpt>
      <trkpt lat="46.23286" lon="5.81103">
        <ele>1162.5</ele>
        <time>2014-08-18T09:27:34.754Z</time>
      </trkpt>
      <trkpt lat="46.23267" lon="5.81082">
        <ele>1164.3</ele>
        <time>2014-08-18T09:27:42.040Z</time>
      </trkpt>
      <trkpt lat="46.2326" lon="5.8107">
        <ele>1165.7</ele>
        <time>2014-08-18T09:27:45.347Z</time>
      </trkpt>
      <trkpt lat="46.23259" lon="5.81057">
        <ele>1166.7</ele>
        <time>2014-08-18T09:27:47.997Z</time>
      </trkpt>
      <trkpt lat="46.2326" lon="5.81024">
        <ele>1164.8</ele>
        <time>2014-08-18T09:27:54.261Z</time>
      </trkpt>
      <trkpt lat="46.23265" lon="5.81008">
        <ele>1163.2</ele>
        <time>2014-08-18T09:27:57.965Z</time>
      </trkpt>
      <trkpt lat="46.23272" lon="5.80995">
        <ele>1162.8</ele>
        <time>2014-08-18T09:28:01.632Z</time>
      </trkpt>
      <trkpt lat="46.2328" lon="5.8099">
        <ele>1163.9</ele>
        <time>2014-08-18T09:28:04.695Z</time>
      </trkpt>
      <trkpt lat="46.2329" lon="5.80988">
        <ele>1166.3</ele>
        <time>2014-08-18T09:28:07.807Z</time>
      </trkpt>
      <trkpt lat="46.233" lon="5.80982">
        <ele>1168.9</ele>
        <time>2014-08-18T09:28:11.408Z</time>
      </trkpt>
      <trkpt lat="46.23309" lon="5.8097">
        <ele>1170.6</ele>
        <time>2014-08-18T09:28:15.147Z</time>
      </trkpt>
      <trkpt lat="46.23318" lon="5.80944">
        <ele>1172.5</ele>
        <time>2014-08-18T09:28:22.133Z</time>
      </trkpt>
      <trkpt lat="46.23317" lon="5.8093">
        <ele>1172.3</ele>
        <time>2014-08-18T09:28:25.969Z</time>
      </trkpt>
      <trkpt lat="46.23311" lon="5.80917">
        <ele>1170.5</ele>
        <time>2014-08-18T09:28:29.681Z</time>
      </trkpt>
      <trkpt lat="46.23305" lon="5.80906">
        <ele>1168.1</ele>
        <time>2014-08-18T09:28:33.091Z</time>
      </trkpt>
      <trkpt lat="46.23296" lon="5.80897">
        <ele>1166.6</ele>
        <time>2014-08-18T09:28:36.550Z</time>
      </trkpt>
      <trkpt lat="46.23288" lon="5.80884">
        <ele>1166.5</ele>
        <time>2014-08-18T09:28:40.490Z</time>
      </trkpt>
      <trkpt lat="46.23283" lon="5.80871">
        <ele>1167.3</ele>
        <time>2014-08-18T09:28:43.934Z</time>
      </trkpt>
      <trkpt lat="46.23283" lon="5.80855">
        <ele>1168.7</ele>
        <time>2014-08-18T09:28:47.869Z</time>
      </trkpt>
      <trkpt lat="46.23299" lon="5.80761">
        <ele>1183.4</ele>
        <time>2014-08-18T09:29:18.971Z</time>
      </trkpt>
      <trkpt lat="46.2333" lon="5.80708">
        <ele>1189.1</ele>
        <time>2014-08-18T09:29:39.613Z</time>
      </trkpt>
      <trkpt lat="46.23333" lon="5.80695">
        <ele>1187.3</ele>
        <time>2014-08-18T09:29:46.230Z</time>
      </trkpt>
      <trkpt lat="46.23341" lon="5.80702">
        <ele>1185.4</ele>
        <time>2014-08-18T09:29:52.513Z</time>
      </trkpt>
      <trkpt lat="46.23346" lon="5.80713">
        <ele>1183.4</ele>
        <time>2014-08-18T09:30:00.005Z</time>
      </trkpt>
      <trkpt lat="46.23353" lon="5.80724">
        <ele>1181.5</ele>
        <time>2014-08-18T09:30:09.694Z</time>
      </trkpt>
      <trkpt lat="46.23377" lon="5.80748">
        <ele>1187.7</ele>
        <time>2014-08-18T09:30:45.363Z</time>
      </trkpt>
      <trkpt lat="46.23388" lon="5.80755">
        <ele>1188.8</ele>
        <time>2014-08-18T09:30:49.901Z</time>
      </trkpt>
      <trkpt lat="46.23398" lon="5.8076">
        <ele>1188.2</ele>
        <time>2014-08-18T09:30:53.121Z</time>
      </trkpt>
      <trkpt lat="46.23408" lon="5.8076">
        <ele>1188.1</ele>
        <time>2014-08-18T09:30:56.143Z</time>
      </trkpt>
      <trkpt lat="46.23458" lon="5.80761">
        <ele>1191.3</ele>
        <time>2014-08-18T09:31:09.306Z</time>
      </trkpt>
      <trkpt lat="46.23494" lon="5.80753">
        <ele>1188.7</ele>
        <time>2014-08-18T09:31:18.694Z</time>
      </trkpt>
      <trkpt lat="46.23535" lon="5.80758">
        <ele>1187.3</ele>
        <time>2014-08-18T09:31:37.099Z</time>
      </trkpt>
      <trkpt lat="46.23548" lon="5.80762">
        <ele>1187.3</ele>
        <time>2014-08-18T09:31:41.324Z</time>
      </trkpt>
      <trkpt lat="46.2357" lon="5.80761">
        <ele>1184.7</ele>
        <time>2014-08-18T09:31:47.922Z</time>
      </trkpt>
      <trkpt lat="46.2359" lon="5.80756">
        <ele>1183.7</ele>
        <time>2014-08-18T09:31:54.139Z</time>
      </trkpt>
      <trkpt lat="46.23601" lon="5.80757">
        <ele>1185.4</ele>
        <time>2014-08-18T09:31:57.968Z</time>
      </trkpt>
      <trkpt lat="46.2361" lon="5.80764">
        <ele>1186.8</ele>
        <time>2014-08-18T09:32:02.129Z</time>
      </trkpt>
      <trkpt lat="46.23645" lon="5.80797">
        <ele>1186.7</ele>
        <time>2014-08-18T09:32:16.671Z</time>
      </trkpt>
      <trkpt lat="46.23656" lon="5.808">
        <ele>1186.6</ele>
        <time>2014-08-18T09:32:20.678Z</time>
      </trkpt>
      <trkpt lat="46.23665" lon="5.80801">
        <ele>1187.4</ele>
        <time>2014-08-18T09:32:25.157Z</time>
      </trkpt>
      <trkpt lat="46.23674" lon="5.80804">
        <ele>1189.5</ele>
        <time>2014-08-18T09:32:30.355Z</time>
      </trkpt>
      <trkpt lat="46.23684" lon="5.80805">
        <ele>1191.6</ele>
        <time>2014-08-18T09:32:36.955Z</time>
      </trkpt>
      <trkpt lat="46.23704" lon="5.8081">
        <ele>1191.4</ele>
        <time>2014-08-18T09:32:50.137Z</time>
      </trkpt>
      <trkpt lat="46.23713" lon="5.8081">
        <ele>1190.6</ele>
        <time>2014-08-18T09:32:56.160Z</time>
      </trkpt>
      <trkpt lat="46.23724" lon="5.80807">
        <ele>1191.1</ele>
        <time>2014-08-18T09:33:04.030Z</time>
      </trkpt>
      <trkpt lat="46.23734" lon="5.80803">
        <ele>1192.6</ele>
        <time>2014-08-18T09:33:11.995Z</time>
      </trkpt>
      <trkpt lat="46.23763" lon="5.80795">
        <ele>1195.2</ele>
        <time>2014-08-18T09:33:29.684Z</time>
      </trkpt>
      <trkpt lat="46.23772" lon="5.8079">
        <ele>1194.3</ele>
        <time>2014-08-18T09:33:36.053Z</time>
      </trkpt>
      <trkpt lat="46.2378" lon="5.80783">
        <ele>1194.1</ele>
        <time>2014-08-18T09:33:42.175Z</time>
      </trkpt>
      <trkpt lat="46.23787" lon="5.80774">
        <ele>1194</ele>
        <time>2014-08-18T09:33:46.932Z</time>
      </trkpt>
      <trkpt lat="46.23796" lon="5.80768">
        <ele>1193.4</ele>
        <time>2014-08-18T09:33:51.583Z</time>
      </trkpt>
      <trkpt lat="46.23805" lon="5.80763">
        <ele>1193.4</ele>
        <time>2014-08-18T09:33:57.204Z</time>
      </trkpt>
      <trkpt lat="46.23815" lon="5.80754">
        <ele>1194.8</ele>
        <time>2014-08-18T09:34:04.186Z</time>
      </trkpt>
      <trkpt lat="46.23829" lon="5.80733">
        <ele>1196.6</ele>
        <time>2014-08-18T09:34:16.056Z</time>
      </trkpt>
      <trkpt lat="46.23845" lon="5.80716">
        <ele>1196.1</ele>
        <time>2014-08-18T09:34:25.504Z</time>
      </trkpt>
      <trkpt lat="46.23849" lon="5.80704">
        <ele>1196</ele>
        <time>2014-08-18T09:34:30.304Z</time>
      </trkpt>
      <trkpt lat="46.23848" lon="5.80674">
        <ele>1193.9</ele>
        <time>2014-08-18T09:34:40.548Z</time>
      </trkpt>
      <trkpt lat="46.2384" lon="5.80665">
        <ele>1193.7</ele>
        <time>2014-08-18T09:34:45.328Z</time>
      </trkpt>
      <trkpt lat="46.23829" lon="5.80659">
        <ele>1195.6</ele>
        <time>2014-08-18T09:34:50.208Z</time>
      </trkpt>
      <trkpt lat="46.2382" lon="5.80653">
        <ele>1198.3</ele>
        <time>2014-08-18T09:34:54.469Z</time>
      </trkpt>
      <trkpt lat="46.23811" lon="5.80646">
        <ele>1200.9</ele>
        <time>2014-08-18T09:34:59.135Z</time>
      </trkpt>
      <trkpt lat="46.23802" lon="5.8064">
        <ele>1202.9</ele>
        <time>2014-08-18T09:35:03.603Z</time>
      </trkpt>
      <trkpt lat="46.23792" lon="5.80639">
        <ele>1203.5</ele>
        <time>2014-08-18T09:35:08.259Z</time>
      </trkpt>
      <trkpt lat="46.23782" lon="5.80635">
        <ele>1202.6</ele>
        <time>2014-08-18T09:35:14.353Z</time>
      </trkpt>
      <trkpt lat="46.23768" lon="5.80611">
        <ele>1200</ele>
        <time>2014-08-18T09:35:23.253Z</time>
      </trkpt>
      <trkpt lat="46.23753" lon="5.8059">
        <ele>1196.9</ele>
        <time>2014-08-18T09:35:29.807Z</time>
      </trkpt>
      <trkpt lat="46.23747" lon="5.80579">
        <ele>1195</ele>
        <time>2014-08-18T09:35:32.696Z</time>
      </trkpt>
      <trkpt lat="46.2374" lon="5.80571">
        <ele>1192.7</ele>
        <time>2014-08-18T09:35:35.573Z</time>
      </trkpt>
      <trkpt lat="46.23726" lon="5.80549">
        <ele>1191.4</ele>
        <time>2014-08-18T09:35:42.283Z</time>
      </trkpt>
      <trkpt lat="46.23714" lon="5.80535">
        <ele>1193.6</ele>
        <time>2014-08-18T09:35:47.377Z</time>
      </trkpt>
      <trkpt lat="46.23703" lon="5.80525">
        <ele>1194.6</ele>
        <time>2014-08-18T09:35:51.451Z</time>
      </trkpt>
      <trkpt lat="46.23701" lon="5.80496">
        <ele>1195.5</ele>
        <time>2014-08-18T09:35:56.623Z</time>
      </trkpt>
      <trkpt lat="46.23702" lon="5.80481">
        <ele>1194.8</ele>
        <time>2014-08-18T09:35:59.570Z</time>
      </trkpt>
      <trkpt lat="46.23698" lon="5.80466">
        <ele>1194.3</ele>
        <time>2014-08-18T09:36:03.539Z</time>
      </trkpt>
      <trkpt lat="46.23679" lon="5.80427">
        <ele>1193</ele>
        <time>2014-08-18T09:36:18.376Z</time>
      </trkpt>
      <trkpt lat="46.23676" lon="5.8041">
        <ele>1192.2</ele>
        <time>2014-08-18T09:36:22.148Z</time>
      </trkpt>
      <trkpt lat="46.23665" lon="5.80393">
        <ele>1192.1</ele>
        <time>2014-08-18T09:36:26.582Z</time>
      </trkpt>
      <trkpt lat="46.23639" lon="5.80376">
        <ele>1194.5</ele>
        <time>2014-08-18T09:36:33.788Z</time>
      </trkpt>
      <trkpt lat="46.23635" lon="5.80362">
        <ele>1195.7</ele>
        <time>2014-08-18T09:36:36.526Z</time>
      </trkpt>
      <trkpt lat="46.23624" lon="5.80354">
        <ele>1195.9</ele>
        <time>2014-08-18T09:36:39.546Z</time>
      </trkpt>
      <trkpt lat="46.23614" lon="5.80351">
        <ele>1195.6</ele>
        <time>2014-08-18T09:36:42.425Z</time>
      </trkpt>
      <trkpt lat="46.23582" lon="5.80335">
        <ele>1196.3</ele>
        <time>2014-08-18T09:36:53.350Z</time>
      </trkpt>
      <trkpt lat="46.23572" lon="5.80332">
        <ele>1197.5</ele>
        <time>2014-08-18T09:36:56.467Z</time>
      </trkpt>
      <trkpt lat="46.23562" lon="5.80334">
        <ele>1198.3</ele>
        <time>2014-08-18T09:36:59.492Z</time>
      </trkpt>
      <trkpt lat="46.23551" lon="5.80334">
        <ele>1198.2</ele>
        <time>2014-08-18T09:37:02.847Z</time>
      </trkpt>
      <trkpt lat="46.2354" lon="5.8033">
        <ele>1197.8</ele>
        <time>2014-08-18T09:37:06.988Z</time>
      </trkpt>
      <trkpt lat="46.2353" lon="5.80325">
        <ele>1197.8</ele>
        <time>2014-08-18T09:37:10.634Z</time>
      </trkpt>
      <trkpt lat="46.23519" lon="5.80324">
        <ele>1198.6</ele>
        <time>2014-08-18T09:37:14.473Z</time>
      </trkpt>
      <trkpt lat="46.23511" lon="5.80317">
        <ele>1199.7</ele>
        <time>2014-08-18T09:37:17.602Z</time>
      </trkpt>
      <trkpt lat="46.23512" lon="5.80286">
        <ele>1197.3</ele>
        <time>2014-08-18T09:37:25.250Z</time>
      </trkpt>
      <trkpt lat="46.2351" lon="5.80264">
        <ele>1194.8</ele>
        <time>2014-08-18T09:37:32.471Z</time>
      </trkpt>
      <trkpt lat="46.235" lon="5.80233">
        <ele>1193.3</ele>
        <time>2014-08-18T09:37:42.029Z</time>
      </trkpt>
      <trkpt lat="46.23484" lon="5.80205">
        <ele>1190.5</ele>
        <time>2014-08-18T09:37:47.697Z</time>
      </trkpt>
      <trkpt lat="46.2348" lon="5.80189">
        <ele>1188.7</ele>
        <time>2014-08-18T09:37:54.723Z</time>
      </trkpt>
      <trkpt lat="46.23484" lon="5.80177">
        <ele>1188</ele>
        <time>2014-08-18T09:37:57.392Z</time>
      </trkpt>
      <trkpt lat="46.2349" lon="5.80166">
        <ele>1186.5</ele>
        <time>2014-08-18T09:37:59.828Z</time>
      </trkpt>
      <trkpt lat="46.23499" lon="5.80133">
        <ele>1184.1</ele>
        <time>2014-08-18T09:38:05.599Z</time>
      </trkpt>
      <trkpt lat="46.23501" lon="5.80119">
        <ele>1185.4</ele>
        <time>2014-08-18T09:38:07.706Z</time>
      </trkpt>
      <trkpt lat="46.23497" lon="5.80107">
        <ele>1187.4</ele>
        <time>2014-08-18T09:38:09.611Z</time>
      </trkpt>
      <trkpt lat="46.23489" lon="5.8009">
        <ele>1188.2</ele>
        <time>2014-08-18T09:38:12.484Z</time>
      </trkpt>
      <trkpt lat="46.23476" lon="5.80049">
        <ele>1185.2</ele>
        <time>2014-08-18T09:38:18.402Z</time>
      </trkpt>
      <trkpt lat="46.23473" lon="5.80033">
        <ele>1182.1</ele>
        <time>2014-08-18T09:38:20.588Z</time>
      </trkpt>
      <trkpt lat="46.23474" lon="5.80015">
        <ele>1179.5</ele>
        <time>2014-08-18T09:38:22.899Z</time>
      </trkpt>
      <trkpt lat="46.23506" lon="5.79894">
        <ele>1176.8</ele>
        <time>2014-08-18T09:38:43.942Z</time>
      </trkpt>
      <trkpt lat="46.23513" lon="5.79802">
        <ele>1170.1</ele>
        <time>2014-08-18T09:38:58.177Z</time>
      </trkpt>
      <trkpt lat="46.23511" lon="5.79766">
        <ele>1163.3</ele>
        <time>2014-08-18T09:39:03.843Z</time>
      </trkpt>
      <trkpt lat="46.23498" lon="5.79739">
        <ele>1158.5</ele>
        <time>2014-08-18T09:39:09.374Z</time>
      </trkpt>
      <trkpt lat="46.23494" lon="5.79722">
        <ele>1157.6</ele>
        <time>2014-08-18T09:39:12.251Z</time>
      </trkpt>
      <trkpt lat="46.23484" lon="5.79627">
        <ele>1160.9</ele>
        <time>2014-08-18T09:39:29.555Z</time>
      </trkpt>
      <trkpt lat="46.23481" lon="5.79614">
        <ele>1161.7</ele>
        <time>2014-08-18T09:39:32.858Z</time>
      </trkpt>
      <trkpt lat="46.23479" lon="5.796">
        <ele>1162.3</ele>
        <time>2014-08-18T09:39:36.792Z</time>
      </trkpt>
      <trkpt lat="46.23468" lon="5.79576">
        <ele>1161.7</ele>
        <time>2014-08-18T09:39:45.810Z</time>
      </trkpt>
      <trkpt lat="46.23472" lon="5.79562">
        <ele>1161.5</ele>
        <time>2014-08-18T09:39:50.449Z</time>
      </trkpt>
      <trkpt lat="46.2348" lon="5.79522">
        <ele>1161.4</ele>
        <time>2014-08-18T09:40:02.273Z</time>
      </trkpt>
      <trkpt lat="46.2348" lon="5.79508">
        <ele>1162.7</ele>
        <time>2014-08-18T09:40:05.699Z</time>
      </trkpt>
      <trkpt lat="46.23466" lon="5.79477">
        <ele>1165.5</ele>
        <time>2014-08-18T09:40:47.780Z</time>
      </trkpt>
      <trkpt lat="46.23423" lon="5.79421">
        <ele>1163.6</ele>
        <time>2014-08-18T09:41:10.978Z</time>
      </trkpt>
      <trkpt lat="46.23415" lon="5.79414">
        <ele>1164.1</ele>
        <time>2014-08-18T09:41:14.535Z</time>
      </trkpt>
      <trkpt lat="46.23406" lon="5.7941">
        <ele>1164.3</ele>
        <time>2014-08-18T09:41:18.513Z</time>
      </trkpt>
      <trkpt lat="46.23398" lon="5.794">
        <ele>1163.8</ele>
        <time>2014-08-18T09:41:23.736Z</time>
      </trkpt>
      <trkpt lat="46.23397" lon="5.79386">
        <ele>1163.1</ele>
        <time>2014-08-18T09:41:29.189Z</time>
      </trkpt>
      <trkpt lat="46.23408" lon="5.79332">
        <ele>1171</ele>
        <time>2014-08-18T09:41:50.650Z</time>
      </trkpt>
      <trkpt lat="46.23412" lon="5.7932">
        <ele>1174.2</ele>
        <time>2014-08-18T09:41:55.698Z</time>
      </trkpt>
      <trkpt lat="46.23419" lon="5.79286">
        <ele>1173.9</ele>
        <time>2014-08-18T09:43:53.312Z</time>
      </trkpt>
      <trkpt lat="46.23425" lon="5.7927">
        <ele>1172.7</ele>
        <time>2014-08-18T09:43:58.037Z</time>
      </trkpt>
      <trkpt lat="46.23432" lon="5.79262">
        <ele>1171.4</ele>
        <time>2014-08-18T09:44:00.089Z</time>
      </trkpt>
      <trkpt lat="46.23447" lon="5.79255">
        <ele>1170</ele>
        <time>2014-08-18T09:44:02.424Z</time>
      </trkpt>
      <trkpt lat="46.2347" lon="5.79239">
        <ele>1169.3</ele>
        <time>2014-08-18T09:44:05.621Z</time>
      </trkpt>
      <trkpt lat="46.23484" lon="5.7922">
        <ele>1169.7</ele>
        <time>2014-08-18T09:44:07.928Z</time>
      </trkpt>
      <trkpt lat="46.23555" lon="5.79074">
        <ele>1158.6</ele>
        <time>2014-08-18T09:44:25.698Z</time>
      </trkpt>
      <trkpt lat="46.23567" lon="5.79065">
        <ele>1158.7</ele>
        <time>2014-08-18T09:44:34.701Z</time>
      </trkpt>
      <trkpt lat="46.23579" lon="5.79078">
        <ele>1157.3</ele>
        <time>2014-08-18T09:44:41.332Z</time>
      </trkpt>
      <trkpt lat="46.23588" lon="5.79092">
        <ele>1156.8</ele>
        <time>2014-08-18T09:44:43.703Z</time>
      </trkpt>
      <trkpt lat="46.23589" lon="5.79071">
        <ele>1155.2</ele>
        <time>2014-08-18T09:51:26.705Z</time>
      </trkpt>
      <trkpt lat="46.236" lon="5.79024">
        <ele>1152.6</ele>
        <time>2014-08-18T09:51:59.697Z</time>
      </trkpt>
      <trkpt lat="46.23609" lon="5.79013">
        <ele>1152.9</ele>
        <time>2014-08-18T09:52:04.875Z</time>
      </trkpt>
      <trkpt lat="46.23617" lon="5.79001">
        <ele>1154.2</ele>
        <time>2014-08-18T09:52:07.686Z</time>
      </trkpt>
      <trkpt lat="46.23626" lon="5.78976">
        <ele>1155</ele>
        <time>2014-08-18T09:52:10.939Z</time>
      </trkpt>
      <trkpt lat="46.23629" lon="5.78957">
        <ele>1153.8</ele>
        <time>2014-08-18T09:52:12.829Z</time>
      </trkpt>
      <trkpt lat="46.23623" lon="5.78913">
        <ele>1149</ele>
        <time>2014-08-18T09:52:16.779Z</time>
      </trkpt>
      <trkpt lat="46.2364" lon="5.78847">
        <ele>1148</ele>
        <time>2014-08-18T09:52:21.620Z</time>
      </trkpt>
      <trkpt lat="46.23642" lon="5.78821">
        <ele>1147.7</ele>
        <time>2014-08-18T09:52:23.879Z</time>
      </trkpt>
      <trkpt lat="46.23646" lon="5.78805">
        <ele>1146.6</ele>
        <time>2014-08-18T09:52:25.702Z</time>
      </trkpt>
      <trkpt lat="46.23636" lon="5.78811">
        <ele>1143.7</ele>
        <time>2014-08-18T09:53:04.717Z</time>
      </trkpt>
      <trkpt lat="46.23646" lon="5.78801">
        <ele>1142.5</ele>
        <time>2014-08-18T09:53:28.860Z</time>
      </trkpt>
      <trkpt lat="46.2365" lon="5.78785">
        <ele>1141.6</ele>
        <time>2014-08-18T09:53:32.300Z</time>
      </trkpt>
      <trkpt lat="46.23652" lon="5.78758">
        <ele>1139.8</ele>
        <time>2014-08-18T09:53:35.022Z</time>
      </trkpt>
      <trkpt lat="46.23633" lon="5.78698">
        <ele>1136.8</ele>
        <time>2014-08-18T09:53:39.722Z</time>
      </trkpt>
      <trkpt lat="46.23629" lon="5.78657">
        <ele>1136.2</ele>
        <time>2014-08-18T09:53:43.561Z</time>
      </trkpt>
      <trkpt lat="46.23642" lon="5.7864">
        <ele>1136</ele>
        <time>2014-08-18T09:53:46.066Z</time>
      </trkpt>
      <trkpt lat="46.23659" lon="5.78634">
        <ele>1135</ele>
        <time>2014-08-18T09:53:48.713Z</time>
      </trkpt>
      <trkpt lat="46.23679" lon="5.78629">
        <ele>1132.2</ele>
        <time>2014-08-18T09:53:51.805Z</time>
      </trkpt>
      <trkpt lat="46.23701" lon="5.7861">
        <ele>1129</ele>
        <time>2014-08-18T09:53:55.233Z</time>
      </trkpt>
      <trkpt lat="46.23706" lon="5.78572">
        <ele>1126.3</ele>
        <time>2014-08-18T09:53:57.833Z</time>
      </trkpt>
      <trkpt lat="46.23699" lon="5.78543">
        <ele>1122.4</ele>
        <time>2014-08-18T09:53:59.792Z</time>
      </trkpt>
      <trkpt lat="46.23654" lon="5.78467">
        <ele>1109.8</ele>
        <time>2014-08-18T09:54:05.232Z</time>
      </trkpt>
      <trkpt lat="46.23635" lon="5.78449">
        <ele>1104.4</ele>
        <time>2014-08-18T09:54:07.482Z</time>
      </trkpt>
      <trkpt lat="46.23609" lon="5.7843">
        <ele>1100.3</ele>
        <time>2014-08-18T09:54:11.366Z</time>
      </trkpt>
      <trkpt lat="46.23587" lon="5.78418">
        <ele>1098.3</ele>
        <time>2014-08-18T09:54:15.680Z</time>
      </trkpt>
      <trkpt lat="46.23578" lon="5.78409">
        <ele>1098.3</ele>
        <time>2014-08-18T09:54:17.566Z</time>
      </trkpt>
      <trkpt lat="46.23573" lon="5.78397">
        <ele>1098.6</ele>
        <time>2014-08-18T09:54:19.083Z</time>
      </trkpt>
      <trkpt lat="46.23562" lon="5.78357">
        <ele>1095.6</ele>
        <time>2014-08-18T09:54:22.599Z</time>
      </trkpt>
      <trkpt lat="46.23553" lon="5.7834">
        <ele>1091.9</ele>
        <time>2014-08-18T09:54:24.214Z</time>
      </trkpt>
      <trkpt lat="46.23534" lon="5.78328">
        <ele>1086.6</ele>
        <time>2014-08-18T09:54:26.431Z</time>
      </trkpt>
      <trkpt lat="46.23513" lon="5.78301">
        <ele>1080.5</ele>
        <time>2014-08-18T09:54:30.368Z</time>
      </trkpt>
      <trkpt lat="46.23508" lon="5.78271">
        <ele>1075.6</ele>
        <time>2014-08-18T09:54:34.542Z</time>
      </trkpt>
      <trkpt lat="46.23515" lon="5.78247">
        <ele>1074.6</ele>
        <time>2014-08-18T09:54:37.037Z</time>
      </trkpt>
      <trkpt lat="46.2352" lon="5.78222">
        <ele>1077.1</ele>
        <time>2014-08-18T09:54:38.981Z</time>
      </trkpt>
      <trkpt lat="46.23509" lon="5.78187">
        <ele>1079.3</ele>
        <time>2014-08-18T09:54:41.518Z</time>
      </trkpt>
      <trkpt lat="46.23496" lon="5.78165">
        <ele>1076.7</ele>
        <time>2014-08-18T09:54:43.343Z</time>
      </trkpt>
      <trkpt lat="46.23472" lon="5.78134">
        <ele>1069.6</ele>
        <time>2014-08-18T09:54:46.273Z</time>
      </trkpt>
      <trkpt lat="46.23458" lon="5.7811">
        <ele>1061.6</ele>
        <time>2014-08-18T09:54:48.176Z</time>
      </trkpt>
      <trkpt lat="46.23407" lon="5.77987">
        <ele>1048.3</ele>
        <time>2014-08-18T09:54:56.415Z</time>
      </trkpt>
      <trkpt lat="46.2339" lon="5.77962">
        <ele>1045.4</ele>
        <time>2014-08-18T09:54:58.319Z</time>
      </trkpt>
      <trkpt lat="46.23371" lon="5.7794">
        <ele>1042.4</ele>
        <time>2014-08-18T09:55:00.315Z</time>
      </trkpt>
      <trkpt lat="46.23312" lon="5.77902">
        <ele>1037.9</ele>
        <time>2014-08-18T09:55:06.092Z</time>
      </trkpt>
      <trkpt lat="46.23278" lon="5.7785">
        <ele>1032.1</ele>
        <time>2014-08-18T09:55:11.043Z</time>
      </trkpt>
      <trkpt lat="46.23233" lon="5.77821">
        <ele>1026.9</ele>
        <time>2014-08-18T09:55:15.733Z</time>
      </trkpt>
      <trkpt lat="46.23207" lon="5.77799">
        <ele>1025.4</ele>
        <time>2014-08-18T09:55:18.660Z</time>
      </trkpt>
      <trkpt lat="46.23143" lon="5.77729">
        <ele>1021</ele>
        <time>2014-08-18T09:55:28.215Z</time>
      </trkpt>
      <trkpt lat="46.2313" lon="5.77714">
        <ele>1020.7</ele>
        <time>2014-08-18T09:55:30.106Z</time>
      </trkpt>
      <trkpt lat="46.23109" lon="5.77695">
        <ele>1020.3</ele>
        <time>2014-08-18T09:55:32.865Z</time>
      </trkpt>
      <trkpt lat="46.23048" lon="5.7762">
        <ele>1015.8</ele>
        <time>2014-08-18T09:55:42.948Z</time>
      </trkpt>
      <trkpt lat="46.23047" lon="5.77607">
        <ele>1014.4</ele>
        <time>2014-08-18T09:55:45.705Z</time>
      </trkpt>
      <trkpt lat="46.23057" lon="5.77623">
        <ele>1011.4</ele>
        <time>2014-08-18T09:56:11.754Z</time>
      </trkpt>
      <trkpt lat="46.23047" lon="5.77627">
        <ele>1011.2</ele>
        <time>2014-08-18T09:56:15.040Z</time>
      </trkpt>
      <trkpt lat="46.22989" lon="5.77627">
        <ele>1009</ele>
        <time>2014-08-18T09:56:30.472Z</time>
      </trkpt>
      <trkpt lat="46.22974" lon="5.77625">
        <ele>1008.7</ele>
        <time>2014-08-18T09:56:33.593Z</time>
      </trkpt>
      <trkpt lat="46.2296" lon="5.7762">
        <ele>1008.6</ele>
        <time>2014-08-18T09:56:36.575Z</time>
      </trkpt>
      <trkpt lat="46.22951" lon="5.77614">
        <ele>1008.5</ele>
        <time>2014-08-18T09:56:38.643Z</time>
      </trkpt>
      <trkpt lat="46.22938" lon="5.77604">
        <ele>1008.7</ele>
        <time>2014-08-18T09:56:41.622Z</time>
      </trkpt>
      <trkpt lat="46.22892" lon="5.77549">
        <ele>1009.3</ele>
        <time>2014-08-18T09:56:55.186Z</time>
      </trkpt>
      <trkpt lat="46.22881" lon="5.7754">
        <ele>1009.2</ele>
        <time>2014-08-18T09:56:57.862Z</time>
      </trkpt>
      <trkpt lat="46.22858" lon="5.77528">
        <ele>1009.4</ele>
        <time>2014-08-18T09:57:02.694Z</time>
      </trkpt>
      <trkpt lat="46.22844" lon="5.77523">
        <ele>1009.6</ele>
        <time>2014-08-18T09:57:05.602Z</time>
      </trkpt>
      <trkpt lat="46.22835" lon="5.77518">
        <ele>1009.8</ele>
        <time>2014-08-18T09:57:07.467Z</time>
      </trkpt>
      <trkpt lat="46.22828" lon="5.77511">
        <ele>1010.1</ele>
        <time>2014-08-18T09:57:09.352Z</time>
      </trkpt>
      <trkpt lat="46.22801" lon="5.77498">
        <ele>1010.8</ele>
        <time>2014-08-18T09:57:14.416Z</time>
      </trkpt>
      <trkpt lat="46.22757" lon="5.77469">
        <ele>1008.6</ele>
        <time>2014-08-18T09:57:23.729Z</time>
      </trkpt>
      <trkpt lat="46.22748" lon="5.77464">
        <ele>1008.2</ele>
        <time>2014-08-18T09:57:25.776Z</time>
      </trkpt>
      <trkpt lat="46.22694" lon="5.77447">
        <ele>1008</ele>
        <time>2014-08-18T09:57:37.649Z</time>
      </trkpt>
      <trkpt lat="46.22682" lon="5.77441">
        <ele>1007.9</ele>
        <time>2014-08-18T09:57:40.921Z</time>
      </trkpt>
      <trkpt lat="46.22633" lon="5.77435">
        <ele>1005.9</ele>
        <time>2014-08-18T09:57:55.527Z</time>
      </trkpt>
      <trkpt lat="46.22623" lon="5.77437">
        <ele>1006.7</ele>
        <time>2014-08-18T09:57:59.972Z</time>
      </trkpt>
      <trkpt lat="46.22615" lon="5.77443">
        <ele>1007.5</ele>
        <time>2014-08-18T09:58:05.708Z</time>
      </trkpt>
      <trkpt lat="46.22634" lon="5.77433">
        <ele>1007.5</ele>
        <time>2014-08-18T10:07:03.331Z</time>
      </trkpt>
      <trkpt lat="46.22639" lon="5.77398">
        <ele>1007.9</ele>
        <time>2014-08-18T10:07:13.667Z</time>
      </trkpt>
      <trkpt lat="46.22639" lon="5.77384">
        <ele>1010</ele>
        <time>2014-08-18T10:07:17.366Z</time>
      </trkpt>
      <trkpt lat="46.22629" lon="5.77377">
        <ele>1012.2</ele>
        <time>2014-08-18T10:07:20.919Z</time>
      </trkpt>
      <trkpt lat="46.22593" lon="5.77375">
        <ele>1012.6</ele>
        <time>2014-08-18T10:07:31.823Z</time>
      </trkpt>
      <trkpt lat="46.22574" lon="5.77379">
        <ele>1007.5</ele>
        <time>2014-08-18T10:07:38.527Z</time>
      </trkpt>
      <trkpt lat="46.22541" lon="5.7738">
        <ele>1004.6</ele>
        <time>2014-08-18T10:07:48.968Z</time>
      </trkpt>
      <trkpt lat="46.22529" lon="5.77384">
        <ele>1004.6</ele>
        <time>2014-08-18T10:07:51.937Z</time>
      </trkpt>
      <trkpt lat="46.22515" lon="5.7739">
        <ele>1004.7</ele>
        <time>2014-08-18T10:07:54.436Z</time>
      </trkpt>
      <trkpt lat="46.22467" lon="5.77426">
        <ele>1007.9</ele>
        <time>2014-08-18T10:08:01.219Z</time>
      </trkpt>
      <trkpt lat="46.2241" lon="5.77475">
        <ele>1004.7</ele>
        <time>2014-08-18T10:08:13.168Z</time>
      </trkpt>
      <trkpt lat="46.22398" lon="5.77478">
        <ele>1005.7</ele>
        <time>2014-08-18T10:08:15.138Z</time>
      </trkpt>
      <trkpt lat="46.22351" lon="5.77468">
        <ele>1005.4</ele>
        <time>2014-08-18T10:08:21.539Z</time>
      </trkpt>
      <trkpt lat="46.22328" lon="5.77467">
        <ele>1003.5</ele>
        <time>2014-08-18T10:08:24.748Z</time>
      </trkpt>
      <trkpt lat="46.22309" lon="5.77457">
        <ele>1001.5</ele>
        <time>2014-08-18T10:08:27.675Z</time>
      </trkpt>
      <trkpt lat="46.22296" lon="5.77437">
        <ele>1000.1</ele>
        <time>2014-08-18T10:08:31.350Z</time>
      </trkpt>
      <trkpt lat="46.22286" lon="5.77416">
        <ele>999.2</ele>
        <time>2014-08-18T10:08:37.359Z</time>
      </trkpt>
      <trkpt lat="46.22279" lon="5.7739">
        <ele>998.3</ele>
        <time>2014-08-18T10:08:43.686Z</time>
      </trkpt>
      <trkpt lat="46.22266" lon="5.77361">
        <ele>996.7</ele>
        <time>2014-08-18T10:08:47.773Z</time>
      </trkpt>
      <trkpt lat="46.22236" lon="5.7731">
        <ele>993.1</ele>
        <time>2014-08-18T10:08:55.155Z</time>
      </trkpt>
      <trkpt lat="46.22233" lon="5.77298">
        <ele>991.9</ele>
        <time>2014-08-18T10:08:57.409Z</time>
      </trkpt>
      <trkpt lat="46.22231" lon="5.77283">
        <ele>990.7</ele>
        <time>2014-08-18T10:09:00.076Z</time>
      </trkpt>
      <trkpt lat="46.22233" lon="5.77266">
        <ele>989.2</ele>
        <time>2014-08-18T10:09:02.446Z</time>
      </trkpt>
      <trkpt lat="46.22236" lon="5.77253">
        <ele>987.5</ele>
        <time>2014-08-18T10:09:04.042Z</time>
      </trkpt>
      <trkpt lat="46.2224" lon="5.7724">
        <ele>986.3</ele>
        <time>2014-08-18T10:09:05.617Z</time>
      </trkpt>
      <trkpt lat="46.22254" lon="5.77222">
        <ele>985.7</ele>
        <time>2014-08-18T10:09:08.278Z</time>
      </trkpt>
      <trkpt lat="46.22266" lon="5.77215">
        <ele>985.1</ele>
        <time>2014-08-18T10:09:09.954Z</time>
      </trkpt>
      <trkpt lat="46.22289" lon="5.77211">
        <ele>984.2</ele>
        <time>2014-08-18T10:09:12.709Z</time>
      </trkpt>
      <trkpt lat="46.2231" lon="5.77201">
        <ele>982.9</ele>
        <time>2014-08-18T10:09:15.441Z</time>
      </trkpt>
      <trkpt lat="46.22316" lon="5.77171">
        <ele>981.5</ele>
        <time>2014-08-18T10:09:18.166Z</time>
      </trkpt>
      <trkpt lat="46.22312" lon="5.77143">
        <ele>980.5</ele>
        <time>2014-08-18T10:09:20.780Z</time>
      </trkpt>
      <trkpt lat="46.22303" lon="5.77138">
        <ele>979.8</ele>
        <time>2014-08-18T10:09:22.836Z</time>
      </trkpt>
      <trkpt lat="46.22294" lon="5.77141">
        <ele>979.5</ele>
        <time>2014-08-18T10:09:26.062Z</time>
      </trkpt>
      <trkpt lat="46.22284" lon="5.77147">
        <ele>979.4</ele>
        <time>2014-08-18T10:09:30.960Z</time>
      </trkpt>
      <trkpt lat="46.22275" lon="5.77149">
        <ele>979.3</ele>
        <time>2014-08-18T10:09:34.597Z</time>
      </trkpt>
      <trkpt lat="46.22264" lon="5.77144">
        <ele>979.1</ele>
        <time>2014-08-18T10:09:38.691Z</time>
      </trkpt>
      <trkpt lat="46.22225" lon="5.77098">
        <ele>981.6</ele>
        <time>2014-08-18T10:09:57.364Z</time>
      </trkpt>
      <trkpt lat="46.2221" lon="5.77075">
        <ele>980.7</ele>
        <time>2014-08-18T10:10:04.067Z</time>
      </trkpt>
      <trkpt lat="46.22203" lon="5.77067">
        <ele>980.3</ele>
        <time>2014-08-18T10:10:07.061Z</time>
      </trkpt>
      <trkpt lat="46.2219" lon="5.77064">
        <ele>980.1</ele>
        <time>2014-08-18T10:10:11.305Z</time>
      </trkpt>
      <trkpt lat="46.2215" lon="5.77073">
        <ele>977.7</ele>
        <time>2014-08-18T10:10:21.713Z</time>
      </trkpt>
      <trkpt lat="46.22116" lon="5.77077">
        <ele>977.1</ele>
        <time>2014-08-18T10:10:35.836Z</time>
      </trkpt>
      <trkpt lat="46.22093" lon="5.77074">
        <ele>980.1</ele>
        <time>2014-08-18T10:10:42.942Z</time>
      </trkpt>
      <trkpt lat="46.22082" lon="5.77071">
        <ele>979.9</ele>
        <time>2014-08-18T10:10:48.252Z</time>
      </trkpt>
      <trkpt lat="46.22063" lon="5.77063">
        <ele>977.5</ele>
        <time>2014-08-18T10:10:58.549Z</time>
      </trkpt>
      <trkpt lat="46.22055" lon="5.77052">
        <ele>976.5</ele>
        <time>2014-08-18T10:11:03.928Z</time>
      </trkpt>
      <trkpt lat="46.22059" lon="5.7704">
        <ele>976.4</ele>
        <time>2014-08-18T10:11:09.043Z</time>
      </trkpt>
      <trkpt lat="46.22068" lon="5.77035">
        <ele>978.5</ele>
        <time>2014-08-18T10:11:14.101Z</time>
      </trkpt>
      <trkpt lat="46.22077" lon="5.77033">
        <ele>978</ele>
        <time>2014-08-18T10:11:19.324Z</time>
      </trkpt>
      <trkpt lat="46.22087" lon="5.7703">
        <ele>977.2</ele>
        <time>2014-08-18T10:11:23.999Z</time>
      </trkpt>
      <trkpt lat="46.22096" lon="5.77032">
        <ele>977.6</ele>
        <time>2014-08-18T10:11:27.908Z</time>
      </trkpt>
      <trkpt lat="46.22106" lon="5.77031">
        <ele>978.8</ele>
        <time>2014-08-18T10:11:31.776Z</time>
      </trkpt>
      <trkpt lat="46.22115" lon="5.77024">
        <ele>980.3</ele>
        <time>2014-08-18T10:11:35.698Z</time>
      </trkpt>
      <trkpt lat="46.22122" lon="5.77014">
        <ele>981.8</ele>
        <time>2014-08-18T10:11:39.999Z</time>
      </trkpt>
      <trkpt lat="46.22121" lon="5.76971">
        <ele>985.3</ele>
        <time>2014-08-18T10:11:53.470Z</time>
      </trkpt>
      <trkpt lat="46.22123" lon="5.76956">
        <ele>988</ele>
        <time>2014-08-18T10:11:58.496Z</time>
      </trkpt>
      <trkpt lat="46.22114" lon="5.76908">
        <ele>996.2</ele>
        <time>2014-08-18T10:12:13.969Z</time>
      </trkpt>
      <trkpt lat="46.22113" lon="5.76879">
        <ele>998</ele>
        <time>2014-08-18T10:12:23.879Z</time>
      </trkpt>
      <trkpt lat="46.22108" lon="5.76866">
        <ele>998.3</ele>
        <time>2014-08-18T10:12:28.690Z</time>
      </trkpt>
      <trkpt lat="46.22105" lon="5.76852">
        <ele>999</ele>
        <time>2014-08-18T10:12:33.411Z</time>
      </trkpt>
      <trkpt lat="46.22101" lon="5.7684">
        <ele>1001</ele>
        <time>2014-08-18T10:12:37.793Z</time>
      </trkpt>
      <trkpt lat="46.22099" lon="5.76827">
        <ele>1004.2</ele>
        <time>2014-08-18T10:12:42.304Z</time>
      </trkpt>
      <trkpt lat="46.22095" lon="5.76815">
        <ele>1006.1</ele>
        <time>2014-08-18T10:12:46.908Z</time>
      </trkpt>
      <trkpt lat="46.22083" lon="5.7679">
        <ele>1003.1</ele>
        <time>2014-08-18T10:12:57.240Z</time>
      </trkpt>
      <trkpt lat="46.22074" lon="5.76782">
        <ele>1001.3</ele>
        <time>2014-08-18T10:13:02.690Z</time>
      </trkpt>
      <trkpt lat="46.22068" lon="5.7677">
        <ele>999.4</ele>
        <time>2014-08-18T10:13:08.268Z</time>
      </trkpt>
      <trkpt lat="46.22003" lon="5.76683">
        <ele>998.8</ele>
        <time>2014-08-18T10:13:50.584Z</time>
      </trkpt>
      <trkpt lat="46.21978" lon="5.76655">
        <ele>999.8</ele>
        <time>2014-08-18T10:14:02.242Z</time>
      </trkpt>
      <trkpt lat="46.21957" lon="5.76624">
        <ele>999</ele>
        <time>2014-08-18T10:14:12.991Z</time>
      </trkpt>
      <trkpt lat="46.21951" lon="5.7661">
        <ele>1001.6</ele>
        <time>2014-08-18T10:14:17.378Z</time>
      </trkpt>
      <trkpt lat="46.21937" lon="5.76569">
        <ele>1007.3</ele>
        <time>2014-08-18T10:14:29.339Z</time>
      </trkpt>
      <trkpt lat="46.21895" lon="5.76491">
        <ele>1002.1</ele>
        <time>2014-08-18T10:14:57.785Z</time>
      </trkpt>
      <trkpt lat="46.21888" lon="5.76482">
        <ele>1001.8</ele>
        <time>2014-08-18T10:15:01.468Z</time>
      </trkpt>
      <trkpt lat="46.21878" lon="5.76473">
        <ele>1001.4</ele>
        <time>2014-08-18T10:15:05.906Z</time>
      </trkpt>
      <trkpt lat="46.21872" lon="5.76461">
        <ele>1002.4</ele>
        <time>2014-08-18T10:15:09.954Z</time>
      </trkpt>
      <trkpt lat="46.21806" lon="5.76398">
        <ele>1027.7</ele>
        <time>2014-08-18T10:15:33.434Z</time>
      </trkpt>
      <trkpt lat="46.21759" lon="5.76363">
        <ele>1015.8</ele>
        <time>2014-08-18T10:15:44.623Z</time>
      </trkpt>
      <trkpt lat="46.21744" lon="5.76356">
        <ele>1013.5</ele>
        <time>2014-08-18T10:15:47.608Z</time>
      </trkpt>
      <trkpt lat="46.21678" lon="5.76337">
        <ele>1009.8</ele>
        <time>2014-08-18T10:15:59.290Z</time>
      </trkpt>
      <trkpt lat="46.21669" lon="5.76336">
        <ele>1007.1</ele>
        <time>2014-08-18T10:16:01.096Z</time>
      </trkpt>
      <trkpt lat="46.21643" lon="5.76337">
        <ele>1000.8</ele>
        <time>2014-08-18T10:16:06.461Z</time>
      </trkpt>
      <trkpt lat="46.21629" lon="5.7634">
        <ele>1001.9</ele>
        <time>2014-08-18T10:16:09.647Z</time>
      </trkpt>
      <trkpt lat="46.21605" lon="5.76341">
        <ele>1004.7</ele>
        <time>2014-08-18T10:16:15.788Z</time>
      </trkpt>
      <trkpt lat="46.21553" lon="5.7635">
        <ele>1002.4</ele>
        <time>2014-08-18T10:16:31.164Z</time>
      </trkpt>
      <trkpt lat="46.21544" lon="5.76349">
        <ele>1003.1</ele>
        <time>2014-08-18T10:16:34.062Z</time>
      </trkpt>
      <trkpt lat="46.21534" lon="5.76346">
        <ele>1003.8</ele>
        <time>2014-08-18T10:16:37.626Z</time>
      </trkpt>
      <trkpt lat="46.21515" lon="5.76347">
        <ele>1008.1</ele>
        <time>2014-08-18T10:16:43.999Z</time>
      </trkpt>
      <trkpt lat="46.21481" lon="5.76355">
        <ele>1006.6</ele>
        <time>2014-08-18T10:16:54.270Z</time>
      </trkpt>
      <trkpt lat="46.21439" lon="5.76359">
        <ele>998</ele>
        <time>2014-08-18T10:17:08.007Z</time>
      </trkpt>
      <trkpt lat="46.2143" lon="5.76362">
        <ele>999.6</ele>
        <time>2014-08-18T10:17:11.508Z</time>
      </trkpt>
      <trkpt lat="46.21403" lon="5.76378">
        <ele>1011.1</ele>
        <time>2014-08-18T10:17:22.811Z</time>
      </trkpt>
      <trkpt lat="46.21397" lon="5.76391">
        <ele>1014.1</ele>
        <time>2014-08-18T10:17:26.988Z</time>
      </trkpt>
      <trkpt lat="46.21394" lon="5.76405">
        <ele>1014.9</ele>
        <time>2014-08-18T10:17:32.083Z</time>
      </trkpt>
      <trkpt lat="46.21355" lon="5.76524">
        <ele>1030.6</ele>
        <time>2014-08-18T10:18:26.307Z</time>
      </trkpt>
      <trkpt lat="46.21349" lon="5.76536">
        <ele>1031.4</ele>
        <time>2014-08-18T10:18:32.173Z</time>
      </trkpt>
      <trkpt lat="46.21341" lon="5.76544">
        <ele>1031.4</ele>
        <time>2014-08-18T10:18:36.704Z</time>
      </trkpt>
      <trkpt lat="46.21334" lon="5.76555">
        <ele>1029.9</ele>
        <time>2014-08-18T10:18:41.401Z</time>
      </trkpt>
      <trkpt lat="46.21327" lon="5.76568">
        <ele>1027.2</ele>
        <time>2014-08-18T10:18:46.545Z</time>
      </trkpt>
      <trkpt lat="46.21316" lon="5.76602">
        <ele>1021.5</ele>
        <time>2014-08-18T10:18:57.238Z</time>
      </trkpt>
      <trkpt lat="46.21315" lon="5.76617">
        <ele>1018.3</ele>
        <time>2014-08-18T10:19:00.187Z</time>
      </trkpt>
      <trkpt lat="46.21324" lon="5.76695">
        <ele>1014.2</ele>
        <time>2014-08-18T10:19:12.253Z</time>
      </trkpt>
      <trkpt lat="46.21329" lon="5.76715">
        <ele>1016.5</ele>
        <time>2014-08-18T10:19:14.725Z</time>
      </trkpt>
      <trkpt lat="46.21333" lon="5.76737">
        <ele>1019.1</ele>
        <time>2014-08-18T10:19:17.681Z</time>
      </trkpt>
      <trkpt lat="46.21324" lon="5.76747">
        <ele>1020.4</ele>
        <time>2014-08-18T10:19:20.045Z</time>
      </trkpt>
      <trkpt lat="46.21311" lon="5.76752">
        <ele>1019.9</ele>
        <time>2014-08-18T10:19:22.869Z</time>
      </trkpt>
      <trkpt lat="46.21291" lon="5.76743">
        <ele>1015.1</ele>
        <time>2014-08-18T10:19:28.130Z</time>
      </trkpt>
      <trkpt lat="46.21256" lon="5.76712">
        <ele>1018.1</ele>
        <time>2014-08-18T10:19:39.144Z</time>
      </trkpt>
      <trkpt lat="46.21242" lon="5.7671">
        <ele>1018.5</ele>
        <time>2014-08-18T10:19:42.868Z</time>
      </trkpt>
      <trkpt lat="46.21227" lon="5.76714">
        <ele>1016.9</ele>
        <time>2014-08-18T10:19:47.290Z</time>
      </trkpt>
      <trkpt lat="46.21219" lon="5.76722">
        <ele>1013.3</ele>
        <time>2014-08-18T10:19:50.698Z</time>
      </trkpt>
      <trkpt lat="46.21211" lon="5.76734">
        <ele>1008.9</ele>
        <time>2014-08-18T10:19:53.750Z</time>
      </trkpt>
      <trkpt lat="46.21199" lon="5.76759">
        <ele>1004.7</ele>
        <time>2014-08-18T10:19:57.191Z</time>
      </trkpt>
      <trkpt lat="46.21147" lon="5.76952">
        <ele>991.7</ele>
        <time>2014-08-18T10:20:16.079Z</time>
      </trkpt>
      <trkpt lat="46.21132" lon="5.76975">
        <ele>989.4</ele>
        <time>2014-08-18T10:20:19.885Z</time>
      </trkpt>
      <trkpt lat="46.21103" lon="5.77003">
        <ele>981.9</ele>
        <time>2014-08-18T10:20:31.323Z</time>
      </trkpt>
      <trkpt lat="46.21093" lon="5.77006">
        <ele>976.7</ele>
        <time>2014-08-18T10:20:35.326Z</time>
      </trkpt>
      <trkpt lat="46.21084" lon="5.77016">
        <ele>972.8</ele>
        <time>2014-08-18T10:20:39.579Z</time>
      </trkpt>
      <trkpt lat="46.2108" lon="5.7703">
        <ele>970.9</ele>
        <time>2014-08-18T10:20:42.770Z</time>
      </trkpt>
      <trkpt lat="46.21075" lon="5.77043">
        <ele>969.2</ele>
        <time>2014-08-18T10:20:45.337Z</time>
      </trkpt>
      <trkpt lat="46.21066" lon="5.7705">
        <ele>966.5</ele>
        <time>2014-08-18T10:20:47.508Z</time>
      </trkpt>
      <trkpt lat="46.21044" lon="5.7706">
        <ele>963.5</ele>
        <time>2014-08-18T10:20:52.353Z</time>
      </trkpt>
      <trkpt lat="46.21033" lon="5.77069">
        <ele>963.8</ele>
        <time>2014-08-18T10:20:55.105Z</time>
      </trkpt>
      <trkpt lat="46.21006" lon="5.77101">
        <ele>965.1</ele>
        <time>2014-08-18T10:21:01.752Z</time>
      </trkpt>
      <trkpt lat="46.20987" lon="5.77134">
        <ele>963.5</ele>
        <time>2014-08-18T10:21:06.817Z</time>
      </trkpt>
      <trkpt lat="46.20977" lon="5.77154">
        <ele>962.9</ele>
        <time>2014-08-18T10:21:09.670Z</time>
      </trkpt>
      <trkpt lat="46.20926" lon="5.77304">
        <ele>970.2</ele>
        <time>2014-08-18T10:21:34.306Z</time>
      </trkpt>
      <trkpt lat="46.20918" lon="5.77319">
        <ele>969.3</ele>
        <time>2014-08-18T10:21:36.908Z</time>
      </trkpt>
      <trkpt lat="46.20902" lon="5.77327">
        <ele>967.4</ele>
        <time>2014-08-18T10:21:40.182Z</time>
      </trkpt>
      <trkpt lat="46.20888" lon="5.77321">
        <ele>966.1</ele>
        <time>2014-08-18T10:21:43.129Z</time>
      </trkpt>
      <trkpt lat="46.20881" lon="5.77313">
        <ele>965.7</ele>
        <time>2014-08-18T10:21:45.035Z</time>
      </trkpt>
      <trkpt lat="46.2086" lon="5.77268">
        <ele>966.9</ele>
        <time>2014-08-18T10:21:53.543Z</time>
      </trkpt>
      <trkpt lat="46.2085" lon="5.77257">
        <ele>966.1</ele>
        <time>2014-08-18T10:21:56.434Z</time>
      </trkpt>
      <trkpt lat="46.20841" lon="5.77249">
        <ele>965</ele>
        <time>2014-08-18T10:21:58.816Z</time>
      </trkpt>
      <trkpt lat="46.20828" lon="5.77247">
        <ele>964.4</ele>
        <time>2014-08-18T10:22:02.174Z</time>
      </trkpt>
      <trkpt lat="46.20815" lon="5.77252">
        <ele>964.6</ele>
        <time>2014-08-18T10:22:06.020Z</time>
      </trkpt>
      <trkpt lat="46.20806" lon="5.77259">
        <ele>965.5</ele>
        <time>2014-08-18T10:22:08.713Z</time>
      </trkpt>
      <trkpt lat="46.20798" lon="5.77272">
        <ele>966.5</ele>
        <time>2014-08-18T10:22:11.816Z</time>
      </trkpt>
      <trkpt lat="46.20769" lon="5.77332">
        <ele>968.4</ele>
        <time>2014-08-18T10:22:22.297Z</time>
      </trkpt>
      <trkpt lat="46.20752" lon="5.7736">
        <ele>970.6</ele>
        <time>2014-08-18T10:22:27.291Z</time>
      </trkpt>
      <trkpt lat="46.20736" lon="5.77393">
        <ele>975.2</ele>
        <time>2014-08-18T10:22:32.866Z</time>
      </trkpt>
      <trkpt lat="46.20721" lon="5.77408">
        <ele>972.9</ele>
        <time>2014-08-18T10:22:36.356Z</time>
      </trkpt>
      <trkpt lat="46.20704" lon="5.77411">
        <ele>969.6</ele>
        <time>2014-08-18T10:22:39.797Z</time>
      </trkpt>
      <trkpt lat="46.20694" lon="5.77411">
        <ele>967.9</ele>
        <time>2014-08-18T10:22:42.415Z</time>
      </trkpt>
      <trkpt lat="46.20682" lon="5.77404">
        <ele>967.8</ele>
        <time>2014-08-18T10:22:46.661Z</time>
      </trkpt>
      <trkpt lat="46.20673" lon="5.77395">
        <ele>967.9</ele>
        <time>2014-08-18T10:22:51.063Z</time>
      </trkpt>
      <trkpt lat="46.20667" lon="5.77385">
        <ele>967.3</ele>
        <time>2014-08-18T10:22:55.268Z</time>
      </trkpt>
      <trkpt lat="46.20657" lon="5.77377">
        <ele>966.2</ele>
        <time>2014-08-18T10:22:59.884Z</time>
      </trkpt>
      <trkpt lat="46.20647" lon="5.77373">
        <ele>965.5</ele>
        <time>2014-08-18T10:23:05.013Z</time>
      </trkpt>
      <trkpt lat="46.20637" lon="5.77373">
        <ele>966</ele>
        <time>2014-08-18T10:23:09.875Z</time>
      </trkpt>
      <trkpt lat="46.20628" lon="5.77378">
        <ele>967.7</ele>
        <time>2014-08-18T10:23:15.494Z</time>
      </trkpt>
      <trkpt lat="46.20619" lon="5.77387">
        <ele>970.6</ele>
        <time>2014-08-18T10:23:21.106Z</time>
      </trkpt>
      <trkpt lat="46.2061" lon="5.77394">
        <ele>974.6</ele>
        <time>2014-08-18T10:23:26.638Z</time>
      </trkpt>
      <trkpt lat="46.20601" lon="5.77398">
        <ele>978.9</ele>
        <time>2014-08-18T10:23:31.739Z</time>
      </trkpt>
      <trkpt lat="46.20591" lon="5.77395">
        <ele>981.6</ele>
        <time>2014-08-18T10:23:37.124Z</time>
      </trkpt>
      <trkpt lat="46.20566" lon="5.77373">
        <ele>981</ele>
        <time>2014-08-18T10:23:51.159Z</time>
      </trkpt>
      <trkpt lat="46.20563" lon="5.7736">
        <ele>981.8</ele>
        <time>2014-08-18T10:23:54.920Z</time>
      </trkpt>
      <trkpt lat="46.20563" lon="5.77344">
        <ele>982.8</ele>
        <time>2014-08-18T10:23:59.049Z</time>
      </trkpt>
      <trkpt lat="46.20566" lon="5.7733">
        <ele>984</ele>
        <time>2014-08-18T10:24:02.770Z</time>
      </trkpt>
      <trkpt lat="46.20581" lon="5.77294">
        <ele>984.1</ele>
        <time>2014-08-18T10:24:13.359Z</time>
      </trkpt>
      <trkpt lat="46.20646" lon="5.77162">
        <ele>993.3</ele>
        <time>2014-08-18T10:25:00.165Z</time>
      </trkpt>
      <trkpt lat="46.2065" lon="5.7715">
        <ele>994</ele>
        <time>2014-08-18T10:25:03.769Z</time>
      </trkpt>
      <trkpt lat="46.20654" lon="5.77123">
        <ele>995</ele>
        <time>2014-08-18T10:25:10.809Z</time>
      </trkpt>
      <trkpt lat="46.20655" lon="5.77108">
        <ele>994.7</ele>
        <time>2014-08-18T10:25:14.719Z</time>
      </trkpt>
      <trkpt lat="46.20653" lon="5.77085">
        <ele>994.1</ele>
        <time>2014-08-18T10:25:26.752Z</time>
      </trkpt>
      <trkpt lat="46.2065" lon="5.7707">
        <ele>994.1</ele>
        <time>2014-08-18T10:25:31.885Z</time>
      </trkpt>
      <trkpt lat="46.20642" lon="5.76979">
        <ele>1011.4</ele>
        <time>2014-08-18T10:25:58.015Z</time>
      </trkpt>
      <trkpt lat="46.2064" lon="5.76966">
        <ele>1011.3</ele>
        <time>2014-08-18T10:26:01.607Z</time>
      </trkpt>
      <trkpt lat="46.20626" lon="5.76927">
        <ele>1017</ele>
        <time>2014-08-18T10:26:15.776Z</time>
      </trkpt>
      <trkpt lat="46.20619" lon="5.76915">
        <ele>1023.3</ele>
        <time>2014-08-18T10:26:20.969Z</time>
      </trkpt>
      <trkpt lat="46.20594" lon="5.76887">
        <ele>1029.3</ele>
        <time>2014-08-18T10:26:36.082Z</time>
      </trkpt>
      <trkpt lat="46.20565" lon="5.76867">
        <ele>1040</ele>
        <time>2014-08-18T10:26:48.725Z</time>
      </trkpt>
      <trkpt lat="46.2054" lon="5.76839">
        <ele>1046.3</ele>
        <time>2014-08-18T10:27:00.100Z</time>
      </trkpt>
      <trkpt lat="46.20531" lon="5.76835">
        <ele>1045.4</ele>
        <time>2014-08-18T10:27:03.906Z</time>
      </trkpt>
      <trkpt lat="46.20522" lon="5.76827">
        <ele>1045.3</ele>
        <time>2014-08-18T10:27:08.094Z</time>
      </trkpt>
      <trkpt lat="46.20507" lon="5.76808">
        <ele>1042.9</ele>
        <time>2014-08-18T10:27:16.192Z</time>
      </trkpt>
      <trkpt lat="46.20499" lon="5.76796">
        <ele>1040.6</ele>
        <time>2014-08-18T10:27:20.229Z</time>
      </trkpt>
      <trkpt lat="46.20494" lon="5.76785">
        <ele>1038.9</ele>
        <time>2014-08-18T10:27:23.559Z</time>
      </trkpt>
      <trkpt lat="46.20486" lon="5.76773">
        <ele>1036.9</ele>
        <time>2014-08-18T10:27:27.405Z</time>
      </trkpt>
      <trkpt lat="46.20478" lon="5.76763">
        <ele>1035.3</ele>
        <time>2014-08-18T10:27:31.162Z</time>
      </trkpt>
      <trkpt lat="46.20458" lon="5.76745">
        <ele>1035.5</ele>
        <time>2014-08-18T10:27:38.841Z</time>
      </trkpt>
      <trkpt lat="46.2044" lon="5.76735">
        <ele>1036</ele>
        <time>2014-08-18T10:27:45.316Z</time>
      </trkpt>
      <trkpt lat="46.20429" lon="5.76733">
        <ele>1035</ele>
        <time>2014-08-18T10:27:48.564Z</time>
      </trkpt>
      <trkpt lat="46.2041" lon="5.76724">
        <ele>1028.6</ele>
        <time>2014-08-18T10:27:54.051Z</time>
      </trkpt>
      <trkpt lat="46.20399" lon="5.7672">
        <ele>1026.6</ele>
        <time>2014-08-18T10:27:57.567Z</time>
      </trkpt>
      <trkpt lat="46.20378" lon="5.76717">
        <ele>1027.6</ele>
        <time>2014-08-18T10:28:03.618Z</time>
      </trkpt>
      <trkpt lat="46.20358" lon="5.76709">
        <ele>1031.4</ele>
        <time>2014-08-18T10:28:10.583Z</time>
      </trkpt>
      <trkpt lat="46.20339" lon="5.76699">
        <ele>1038.1</ele>
        <time>2014-08-18T10:28:17.937Z</time>
      </trkpt>
      <trkpt lat="46.2033" lon="5.76692">
        <ele>1041.7</ele>
        <time>2014-08-18T10:28:21.624Z</time>
      </trkpt>
      <trkpt lat="46.20317" lon="5.7667">
        <ele>1044.1</ele>
        <time>2014-08-18T10:28:28.694Z</time>
      </trkpt>
      <trkpt lat="46.20265" lon="5.7661">
        <ele>1032.7</ele>
        <time>2014-08-18T10:28:46.694Z</time>
      </trkpt>
      <trkpt lat="46.20257" lon="5.76596">
        <ele>1030.1</ele>
        <time>2014-08-18T10:28:48.722Z</time>
      </trkpt>
      <trkpt lat="46.20239" lon="5.76545">
        <ele>1031.3</ele>
        <time>2014-08-18T10:28:59.298Z</time>
      </trkpt>
      <trkpt lat="46.2023" lon="5.76537">
        <ele>1033.6</ele>
        <time>2014-08-18T10:29:01.750Z</time>
      </trkpt>
      <trkpt lat="46.20217" lon="5.76529">
        <ele>1035</ele>
        <time>2014-08-18T10:29:04.925Z</time>
      </trkpt>
      <trkpt lat="46.20204" lon="5.76525">
        <ele>1035.9</ele>
        <time>2014-08-18T10:29:07.754Z</time>
      </trkpt>
      <trkpt lat="46.20176" lon="5.76507">
        <ele>1038.4</ele>
        <time>2014-08-18T10:29:15.072Z</time>
      </trkpt>
      <trkpt lat="46.20165" lon="5.76484">
        <ele>1040.5</ele>
        <time>2014-08-18T10:29:20.207Z</time>
      </trkpt>
      <trkpt lat="46.20157" lon="5.76475">
        <ele>1042.1</ele>
        <time>2014-08-18T10:29:22.910Z</time>
      </trkpt>
      <trkpt lat="46.20149" lon="5.76468">
        <ele>1043.2</ele>
        <time>2014-08-18T10:29:25.567Z</time>
      </trkpt>
      <trkpt lat="46.20141" lon="5.76458">
        <ele>1043.8</ele>
        <time>2014-08-18T10:29:28.533Z</time>
      </trkpt>
      <trkpt lat="46.20124" lon="5.76442">
        <ele>1044.6</ele>
        <time>2014-08-18T10:29:33.688Z</time>
      </trkpt>
      <trkpt lat="46.20103" lon="5.76437">
        <ele>1046.3</ele>
        <time>2014-08-18T10:29:39.875Z</time>
      </trkpt>
      <trkpt lat="46.2008" lon="5.76436">
        <ele>1043.3</ele>
        <time>2014-08-18T10:29:47.050Z</time>
      </trkpt>
      <trkpt lat="46.20072" lon="5.76432">
        <ele>1038.5</ele>
        <time>2014-08-18T10:29:49.445Z</time>
      </trkpt>
      <trkpt lat="46.20067" lon="5.76417">
        <ele>1034.5</ele>
        <time>2014-08-18T10:29:52.084Z</time>
      </trkpt>
      <trkpt lat="46.20064" lon="5.76398">
        <ele>1033.5</ele>
        <time>2014-08-18T10:29:55.104Z</time>
      </trkpt>
      <trkpt lat="46.20057" lon="5.76389">
        <ele>1033.7</ele>
        <time>2014-08-18T10:29:57.538Z</time>
      </trkpt>
      <trkpt lat="46.20047" lon="5.76382">
        <ele>1032.5</ele>
        <time>2014-08-18T10:30:00.403Z</time>
      </trkpt>
      <trkpt lat="46.20035" lon="5.76377">
        <ele>1029.9</ele>
        <time>2014-08-18T10:30:05.338Z</time>
      </trkpt>
      <trkpt lat="46.20023" lon="5.76369">
        <ele>1027.3</ele>
        <time>2014-08-18T10:30:10.462Z</time>
      </trkpt>
      <trkpt lat="46.20015" lon="5.76359">
        <ele>1024.9</ele>
        <time>2014-08-18T10:30:13.411Z</time>
      </trkpt>
      <trkpt lat="46.20004" lon="5.76341">
        <ele>1022.5</ele>
        <time>2014-08-18T10:30:17.414Z</time>
      </trkpt>
      <trkpt lat="46.19995" lon="5.76331">
        <ele>1019.9</ele>
        <time>2014-08-18T10:30:19.887Z</time>
      </trkpt>
      <trkpt lat="46.19982" lon="5.7632">
        <ele>1017.7</ele>
        <time>2014-08-18T10:30:23.145Z</time>
      </trkpt>
      <trkpt lat="46.19963" lon="5.76308">
        <ele>1016.5</ele>
        <time>2014-08-18T10:30:27.172Z</time>
      </trkpt>
      <trkpt lat="46.19951" lon="5.76304">
        <ele>1015.9</ele>
        <time>2014-08-18T10:30:29.381Z</time>
      </trkpt>
      <trkpt lat="46.19929" lon="5.76294">
        <ele>1014.9</ele>
        <time>2014-08-18T10:30:33.063Z</time>
      </trkpt>
      <trkpt lat="46.19887" lon="5.76286">
        <ele>1012.8</ele>
        <time>2014-08-18T10:30:39.284Z</time>
      </trkpt>
      <trkpt lat="46.19863" lon="5.76278">
        <ele>1013.7</ele>
        <time>2014-08-18T10:30:42.500Z</time>
      </trkpt>
      <trkpt lat="46.1985" lon="5.76267">
        <ele>1014.9</ele>
        <time>2014-08-18T10:30:44.477Z</time>
      </trkpt>
      <trkpt lat="46.19811" lon="5.76179">
        <ele>1012.6</ele>
        <time>2014-08-18T10:30:53.476Z</time>
      </trkpt>
      <trkpt lat="46.19804" lon="5.76148">
        <ele>1013</ele>
        <time>2014-08-18T10:30:55.602Z</time>
      </trkpt>
      <trkpt lat="46.19788" lon="5.76114">
        <ele>1014.5</ele>
        <time>2014-08-18T10:30:58.444Z</time>
      </trkpt>
      <trkpt lat="46.19782" lon="5.76096">
        <ele>1016</ele>
        <time>2014-08-18T10:30:59.947Z</time>
      </trkpt>
      <trkpt lat="46.19773" lon="5.76078">
        <ele>1016.7</ele>
        <time>2014-08-18T10:31:01.536Z</time>
      </trkpt>
      <trkpt lat="46.1976" lon="5.76073">
        <ele>1016.1</ele>
        <time>2014-08-18T10:31:03.046Z</time>
      </trkpt>
      <trkpt lat="46.1973" lon="5.76069">
        <ele>1014.3</ele>
        <time>2014-08-18T10:31:07.931Z</time>
      </trkpt>
      <trkpt lat="46.19711" lon="5.76072">
        <ele>1008.8</ele>
        <time>2014-08-18T10:31:11.404Z</time>
      </trkpt>
      <trkpt lat="46.19698" lon="5.76064">
        <ele>997.3</ele>
        <time>2014-08-18T10:31:14.104Z</time>
      </trkpt>
      <trkpt lat="46.19684" lon="5.7605">
        <ele>985</ele>
        <time>2014-08-18T10:31:18.014Z</time>
      </trkpt>
      <trkpt lat="46.19671" lon="5.76035">
        <ele>977.9</ele>
        <time>2014-08-18T10:31:22.133Z</time>
      </trkpt>
      <trkpt lat="46.19651" lon="5.76002">
        <ele>976.4</ele>
        <time>2014-08-18T10:31:31.637Z</time>
      </trkpt>
      <trkpt lat="46.19643" lon="5.75993">
        <ele>974.7</ele>
        <time>2014-08-18T10:31:36.728Z</time>
      </trkpt>
      <trkpt lat="46.19627" lon="5.76005">
        <ele>971.3</ele>
        <time>2014-08-18T10:33:12.440Z</time>
      </trkpt>
      <trkpt lat="46.19618" lon="5.76002">
        <ele>969.8</ele>
        <time>2014-08-18T10:33:17.722Z</time>
      </trkpt>
      <trkpt lat="46.19614" lon="5.75976">
        <ele>963</ele>
        <time>2014-08-18T10:34:08.815Z</time>
      </trkpt>
      <trkpt lat="46.19605" lon="5.75968">
        <ele>963.2</ele>
        <time>2014-08-18T10:34:11.880Z</time>
      </trkpt>
      <trkpt lat="46.19598" lon="5.75951">
        <ele>961.7</ele>
        <time>2014-08-18T10:34:14.712Z</time>
      </trkpt>
      <trkpt lat="46.19587" lon="5.75939">
        <ele>959.7</ele>
        <time>2014-08-18T10:34:17.071Z</time>
      </trkpt>
      <trkpt lat="46.19577" lon="5.75931">
        <ele>959</ele>
        <time>2014-08-18T10:34:18.888Z</time>
      </trkpt>
      <trkpt lat="46.19542" lon="5.75909">
        <ele>960</ele>
        <time>2014-08-18T10:34:24.168Z</time>
      </trkpt>
      <trkpt lat="46.19498" lon="5.75847">
        <ele>953.3</ele>
        <time>2014-08-18T10:34:32.365Z</time>
      </trkpt>
      <trkpt lat="46.19472" lon="5.75792">
        <ele>948.3</ele>
        <time>2014-08-18T10:34:37.414Z</time>
      </trkpt>
      <trkpt lat="46.19452" lon="5.75763">
        <ele>948.7</ele>
        <time>2014-08-18T10:34:40.405Z</time>
      </trkpt>
      <trkpt lat="46.1942" lon="5.75726">
        <ele>939.4</ele>
        <time>2014-08-18T10:34:47.578Z</time>
      </trkpt>
      <trkpt lat="46.1941" lon="5.75708">
        <ele>931.5</ele>
        <time>2014-08-18T10:34:51.505Z</time>
      </trkpt>
      <trkpt lat="46.19393" lon="5.75692">
        <ele>925.7</ele>
        <time>2014-08-18T10:34:55.988Z</time>
      </trkpt>
      <trkpt lat="46.19352" lon="5.75662">
        <ele>906.2</ele>
        <time>2014-08-18T10:35:03.516Z</time>
      </trkpt>
      <trkpt lat="46.19341" lon="5.75651">
        <ele>906.1</ele>
        <time>2014-08-18T10:35:04.892Z</time>
      </trkpt>
      <trkpt lat="46.19291" lon="5.75611">
        <ele>908.2</ele>
        <time>2014-08-18T10:35:10.599Z</time>
      </trkpt>
      <trkpt lat="46.19277" lon="5.75589">
        <ele>908.4</ele>
        <time>2014-08-18T10:35:12.419Z</time>
      </trkpt>
      <trkpt lat="46.19251" lon="5.75557">
        <ele>907.2</ele>
        <time>2014-08-18T10:35:15.385Z</time>
      </trkpt>
      <trkpt lat="46.19203" lon="5.75517">
        <ele>906.4</ele>
        <time>2014-08-18T10:35:19.823Z</time>
      </trkpt>
      <trkpt lat="46.19173" lon="5.75494">
        <ele>907.1</ele>
        <time>2014-08-18T10:35:22.726Z</time>
      </trkpt>
      <trkpt lat="46.19114" lon="5.75425">
        <ele>897.7</ele>
        <time>2014-08-18T10:35:29.993Z</time>
      </trkpt>
      <trkpt lat="46.19072" lon="5.7534">
        <ele>883.9</ele>
        <time>2014-08-18T10:35:35.860Z</time>
      </trkpt>
      <trkpt lat="46.19038" lon="5.75309">
        <ele>881.4</ele>
        <time>2014-08-18T10:35:38.953Z</time>
      </trkpt>
      <trkpt lat="46.18954" lon="5.75264">
        <ele>876.5</ele>
        <time>2014-08-18T10:35:46.141Z</time>
      </trkpt>
      <trkpt lat="46.18927" lon="5.75238">
        <ele>873.6</ele>
        <time>2014-08-18T10:35:49.320Z</time>
      </trkpt>
      <trkpt lat="46.18912" lon="5.75217">
        <ele>870.3</ele>
        <time>2014-08-18T10:35:51.445Z</time>
      </trkpt>
      <trkpt lat="46.18826" lon="5.75051">
        <ele>833.6</ele>
        <time>2014-08-18T10:36:02.914Z</time>
      </trkpt>
      <trkpt lat="46.1874" lon="5.74941">
        <ele>827.7</ele>
        <time>2014-08-18T10:36:09.927Z</time>
      </trkpt>
      <trkpt lat="46.18702" lon="5.74903">
        <ele>823.8</ele>
        <time>2014-08-18T10:36:12.494Z</time>
      </trkpt>
      <trkpt lat="46.18588" lon="5.74824">
        <ele>809.4</ele>
        <time>2014-08-18T10:36:19.163Z</time>
      </trkpt>
      <trkpt lat="46.18537" lon="5.74772">
        <ele>771.3</ele>
        <time>2014-08-18T10:36:24.038Z</time>
      </trkpt>
      <trkpt lat="46.18521" lon="5.74749">
        <ele>757.4</ele>
        <time>2014-08-18T10:36:28.420Z</time>
      </trkpt>
      <trkpt lat="46.18509" lon="5.7472">
        <ele>743.3</ele>
        <time>2014-08-18T10:36:35.631Z</time>
      </trkpt>
      <trkpt lat="46.18501" lon="5.74707">
        <ele>739.2</ele>
        <time>2014-08-18T10:36:40.176Z</time>
      </trkpt>
      <trkpt lat="46.18493" lon="5.74702">
        <ele>735.5</ele>
        <time>2014-08-18T10:36:43.086Z</time>
      </trkpt>
      <trkpt lat="46.1847" lon="5.74693">
        <ele>730.1</ele>
        <time>2014-08-18T10:36:48.188Z</time>
      </trkpt>
      <trkpt lat="46.18458" lon="5.74687">
        <ele>729.6</ele>
        <time>2014-08-18T10:36:50.511Z</time>
      </trkpt>
      <trkpt lat="46.18429" lon="5.74676">
        <ele>729.7</ele>
        <time>2014-08-18T10:36:54.453Z</time>
      </trkpt>
      <trkpt lat="46.18405" lon="5.74671">
        <ele>728</ele>
        <time>2014-08-18T10:36:57.112Z</time>
      </trkpt>
      <trkpt lat="46.18385" lon="5.74672">
        <ele>726.1</ele>
        <time>2014-08-18T10:36:59.187Z</time>
      </trkpt>
      <trkpt lat="46.18368" lon="5.74676">
        <ele>723.7</ele>
        <time>2014-08-18T10:37:01.529Z</time>
      </trkpt>
      <trkpt lat="46.18359" lon="5.74679">
        <ele>720.4</ele>
        <time>2014-08-18T10:37:03.833Z</time>
      </trkpt>
      <trkpt lat="46.18349" lon="5.74671">
        <ele>716.6</ele>
        <time>2014-08-18T10:37:06.867Z</time>
      </trkpt>
      <trkpt lat="46.18347" lon="5.74648">
        <ele>712.9</ele>
        <time>2014-08-18T10:37:10.581Z</time>
      </trkpt>
      <trkpt lat="46.18343" lon="5.74633">
        <ele>710</ele>
        <time>2014-08-18T10:37:12.536Z</time>
      </trkpt>
      <trkpt lat="46.18349" lon="5.74606">
        <ele>707.2</ele>
        <time>2014-08-18T10:37:15.425Z</time>
      </trkpt>
      <trkpt lat="46.18345" lon="5.74584">
        <ele>703</ele>
        <time>2014-08-18T10:37:17.228Z</time>
      </trkpt>
      <trkpt lat="46.18321" lon="5.74548">
        <ele>697.8</ele>
        <time>2014-08-18T10:37:20.738Z</time>
      </trkpt>
      <trkpt lat="46.18315" lon="5.74527">
        <ele>694</ele>
        <time>2014-08-18T10:37:22.488Z</time>
      </trkpt>
      <trkpt lat="46.18314" lon="5.74511">
        <ele>692.5</ele>
        <time>2014-08-18T10:37:24.207Z</time>
      </trkpt>
      <trkpt lat="46.18318" lon="5.74496">
        <ele>692</ele>
        <time>2014-08-18T10:37:26.113Z</time>
      </trkpt>
      <trkpt lat="46.18331" lon="5.74476">
        <ele>690.4</ele>
        <time>2014-08-18T10:37:29.009Z</time>
      </trkpt>
      <trkpt lat="46.18344" lon="5.74462">
        <ele>687</ele>
        <time>2014-08-18T10:37:31.033Z</time>
      </trkpt>
      <trkpt lat="46.18384" lon="5.7443">
        <ele>678.8</ele>
        <time>2014-08-18T10:37:35.866Z</time>
      </trkpt>
      <trkpt lat="46.18413" lon="5.74415">
        <ele>673.8</ele>
        <time>2014-08-18T10:37:39.337Z</time>
      </trkpt>
      <trkpt lat="46.18441" lon="5.7441">
        <ele>672.7</ele>
        <time>2014-08-18T10:37:42.531Z</time>
      </trkpt>
      <trkpt lat="46.18471" lon="5.74411">
        <ele>671.1</ele>
        <time>2014-08-18T10:37:45.485Z</time>
      </trkpt>
      <trkpt lat="46.18485" lon="5.74414">
        <ele>669.4</ele>
        <time>2014-08-18T10:37:47.044Z</time>
      </trkpt>
      <trkpt lat="46.185" lon="5.74419">
        <ele>668.4</ele>
        <time>2014-08-18T10:37:48.925Z</time>
      </trkpt>
      <trkpt lat="46.18514" lon="5.74418">
        <ele>667.9</ele>
        <time>2014-08-18T10:37:51.037Z</time>
      </trkpt>
      <trkpt lat="46.18526" lon="5.74413">
        <ele>666.6</ele>
        <time>2014-08-18T10:37:53.116Z</time>
      </trkpt>
      <trkpt lat="46.18534" lon="5.74403">
        <ele>663.7</ele>
        <time>2014-08-18T10:37:55.572Z</time>
      </trkpt>
      <trkpt lat="46.18538" lon="5.74382">
        <ele>660.3</ele>
        <time>2014-08-18T10:37:58.751Z</time>
      </trkpt>
      <trkpt lat="46.18556" lon="5.74341">
        <ele>653.3</ele>
        <time>2014-08-18T10:38:06.214Z</time>
      </trkpt>
      <trkpt lat="46.18562" lon="5.74323">
        <ele>648.4</ele>
        <time>2014-08-18T10:38:09.498Z</time>
      </trkpt>
      <trkpt lat="46.18565" lon="5.74306">
        <ele>643.7</ele>
        <time>2014-08-18T10:38:12.759Z</time>
      </trkpt>
      <trkpt lat="46.1856" lon="5.74287">
        <ele>637.8</ele>
        <time>2014-08-18T10:39:12.080Z</time>
      </trkpt>
      <trkpt lat="46.18555" lon="5.74274">
        <ele>638.5</ele>
        <time>2014-08-18T10:39:40.013Z</time>
      </trkpt>
      <trkpt lat="46.18545" lon="5.74272">
        <ele>638.1</ele>
        <time>2014-08-18T10:40:07.827Z</time>
      </trkpt>
      <trkpt lat="46.18544" lon="5.74257">
        <ele>635.6</ele>
        <time>2014-08-18T10:40:22.325Z</time>
      </trkpt>
      <trkpt lat="46.18539" lon="5.74242">
        <ele>632.5</ele>
        <time>2014-08-18T10:40:38.083Z</time>
      </trkpt>
      <trkpt lat="46.18531" lon="5.74235">
        <ele>629.4</ele>
        <time>2014-08-18T10:40:51.034Z</time>
      </trkpt>
      <trkpt lat="46.1851" lon="5.74231">
        <ele>624.6</ele>
        <time>2014-08-18T10:41:00.761Z</time>
      </trkpt>
      <trkpt lat="46.18491" lon="5.74237">
        <ele>618.4</ele>
        <time>2014-08-18T10:41:05.558Z</time>
      </trkpt>
      <trkpt lat="46.18472" lon="5.74249">
        <ele>612.8</ele>
        <time>2014-08-18T10:41:09.233Z</time>
      </trkpt>
      <trkpt lat="46.18459" lon="5.74263">
        <ele>609</ele>
        <time>2014-08-18T10:41:11.582Z</time>
      </trkpt>
      <trkpt lat="46.1845" lon="5.74256">
        <ele>606.8</ele>
        <time>2014-08-18T10:41:13.214Z</time>
      </trkpt>
      <trkpt lat="46.18442" lon="5.74243">
        <ele>605.2</ele>
        <time>2014-08-18T10:41:15.012Z</time>
      </trkpt>
      <trkpt lat="46.18412" lon="5.7423">
        <ele>594.9</ele>
        <time>2014-08-18T10:41:20.926Z</time>
      </trkpt>
      <trkpt lat="46.18351" lon="5.74189">
        <ele>569</ele>
        <time>2014-08-18T10:41:34.255Z</time>
      </trkpt>
      <trkpt lat="46.18332" lon="5.74182">
        <ele>563.3</ele>
        <time>2014-08-18T10:41:40.786Z</time>
      </trkpt>
      <trkpt lat="46.1832" lon="5.74181">
        <ele>559.7</ele>
        <time>2014-08-18T10:41:46.238Z</time>
      </trkpt>
      <trkpt lat="46.18311" lon="5.74181">
        <ele>556.9</ele>
        <time>2014-08-18T10:41:50.985Z</time>
      </trkpt>
      <trkpt lat="46.18302" lon="5.7418">
        <ele>554.3</ele>
        <time>2014-08-18T10:41:56.044Z</time>
      </trkpt>
      <trkpt lat="46.18292" lon="5.74176">
        <ele>552</ele>
        <time>2014-08-18T10:42:01.756Z</time>
      </trkpt>
      <trkpt lat="46.18281" lon="5.74175">
        <ele>550.2</ele>
        <time>2014-08-18T10:42:07.828Z</time>
      </trkpt>
      <trkpt lat="46.18271" lon="5.74173">
        <ele>549.1</ele>
        <time>2014-08-18T10:42:13.353Z</time>
      </trkpt>
      <trkpt lat="46.18252" lon="5.74164">
        <ele>548.8</ele>
        <time>2014-08-18T10:42:22.642Z</time>
      </trkpt>
      <trkpt lat="46.18244" lon="5.74159">
        <ele>550.7</ele>
        <time>2014-08-18T10:42:26.086Z</time>
      </trkpt>
      <trkpt lat="46.18237" lon="5.74144">
        <ele>552.4</ele>
        <time>2014-08-18T10:42:29.908Z</time>
      </trkpt>
      <trkpt lat="46.18228" lon="5.7413">
        <ele>552</ele>
        <time>2014-08-18T10:42:32.681Z</time>
      </trkpt>
      <trkpt lat="46.18219" lon="5.74121">
        <ele>550.8</ele>
        <time>2014-08-18T10:42:34.258Z</time>
      </trkpt>
      <trkpt lat="46.18193" lon="5.7411">
        <ele>550.4</ele>
        <time>2014-08-18T10:42:37.641Z</time>
      </trkpt>
      <trkpt lat="46.18149" lon="5.74103">
        <ele>551.5</ele>
        <time>2014-08-18T10:42:45.257Z</time>
      </trkpt>
      <trkpt lat="46.1814" lon="5.74105">
        <ele>552.7</ele>
        <time>2014-08-18T10:42:49.196Z</time>
      </trkpt>
      <trkpt lat="46.18132" lon="5.74114">
        <ele>553.7</ele>
        <time>2014-08-18T10:42:53.645Z</time>
      </trkpt>
      <trkpt lat="46.18125" lon="5.74125">
        <ele>553.3</ele>
        <time>2014-08-18T10:42:58.367Z</time>
      </trkpt>
      <trkpt lat="46.18116" lon="5.74135">
        <ele>551.2</ele>
        <time>2014-08-18T10:43:02.306Z</time>
      </trkpt>
      <trkpt lat="46.18095" lon="5.7415">
        <ele>547.7</ele>
        <time>2014-08-18T10:43:09.118Z</time>
      </trkpt>
      <trkpt lat="46.18087" lon="5.74159">
        <ele>547.7</ele>
        <time>2014-08-18T10:43:12.017Z</time>
      </trkpt>
      <trkpt lat="46.18074" lon="5.7418">
        <ele>548.7</ele>
        <time>2014-08-18T10:43:17.734Z</time>
      </trkpt>
      <trkpt lat="46.18064" lon="5.74205">
        <ele>548.2</ele>
        <time>2014-08-18T10:44:47.650Z</time>
      </trkpt>
      <trkpt lat="46.18056" lon="5.74213">
        <ele>548.7</ele>
        <time>2014-08-18T10:44:51.375Z</time>
      </trkpt>
      <trkpt lat="46.1805" lon="5.74204">
        <ele>550.2</ele>
        <time>2014-08-18T10:44:54.868Z</time>
      </trkpt>
      <trkpt lat="46.18058" lon="5.74175">
        <ele>550.5</ele>
        <time>2014-08-18T10:45:02.389Z</time>
      </trkpt>
      <trkpt lat="46.18109" lon="5.74064">
        <ele>539.8</ele>
        <time>2014-08-18T10:45:16.774Z</time>
      </trkpt>
      <trkpt lat="46.1812" lon="5.73977">
        <ele>536.1</ele>
        <time>2014-08-18T10:45:24.461Z</time>
      </trkpt>
      <trkpt lat="46.18125" lon="5.73958">
        <ele>535</ele>
        <time>2014-08-18T10:45:26.244Z</time>
      </trkpt>
      <trkpt lat="46.18139" lon="5.73947">
        <ele>533.1</ele>
        <time>2014-08-18T10:45:28.310Z</time>
      </trkpt>
      <trkpt lat="46.1818" lon="5.73924">
        <ele>529.2</ele>
        <time>2014-08-18T10:45:34.244Z</time>
      </trkpt>
      <trkpt lat="46.18221" lon="5.73916">
        <ele>524.5</ele>
        <time>2014-08-18T10:45:39.685Z</time>
      </trkpt>
      <trkpt lat="46.18237" lon="5.73916">
        <ele>521.9</ele>
        <time>2014-08-18T10:45:41.619Z</time>
      </trkpt>
      <trkpt lat="46.18311" lon="5.7393">
        <ele>513.9</ele>
        <time>2014-08-18T10:45:51.490Z</time>
      </trkpt>
      <trkpt lat="46.1833" lon="5.73931">
        <ele>512.4</ele>
        <time>2014-08-18T10:45:56.393Z</time>
      </trkpt>
      <trkpt lat="46.18317" lon="5.73922">
        <ele>513.6</ele>
        <time>2014-08-18T10:45:59.660Z</time>
      </trkpt>
      <trkpt lat="46.18297" lon="5.73921">
        <ele>517.3</ele>
        <time>2014-08-18T10:46:03.210Z</time>
      </trkpt>
      <trkpt lat="46.1828" lon="5.73917">
        <ele>521.4</ele>
        <time>2014-08-18T10:46:05.991Z</time>
      </trkpt>
      <trkpt lat="46.18269" lon="5.73911">
        <ele>523.5</ele>
        <time>2014-08-18T10:46:07.778Z</time>
      </trkpt>
      <trkpt lat="46.18254" lon="5.73893">
        <ele>522.9</ele>
        <time>2014-08-18T10:46:10.605Z</time>
      </trkpt>
      <trkpt lat="46.18245" lon="5.73872">
        <ele>520.1</ele>
        <time>2014-08-18T10:46:12.868Z</time>
      </trkpt>
      <trkpt lat="46.18235" lon="5.73837">
        <ele>514.6</ele>
        <time>2014-08-18T10:46:15.876Z</time>
      </trkpt>
      <trkpt lat="46.18227" lon="5.7382">
        <ele>506.7</ele>
        <time>2014-08-18T10:46:17.546Z</time>
      </trkpt>
      <trkpt lat="46.18209" lon="5.7381">
        <ele>499.4</ele>
        <time>2014-08-18T10:46:20.052Z</time>
      </trkpt>
      <trkpt lat="46.18176" lon="5.73803">
        <ele>497.4</ele>
        <time>2014-08-18T10:46:25.586Z</time>
      </trkpt>
      <trkpt lat="46.18167" lon="5.73801">
        <ele>500.4</ele>
        <time>2014-08-18T10:46:27.377Z</time>
      </trkpt>
      <trkpt lat="46.18157" lon="5.73799">
        <ele>503</ele>
        <time>2014-08-18T10:46:29.616Z</time>
      </trkpt>
      <trkpt lat="46.18146" lon="5.73799">
        <ele>503.7</ele>
        <time>2014-08-18T10:46:32.233Z</time>
      </trkpt>
      <trkpt lat="46.18134" lon="5.738">
        <ele>502.2</ele>
        <time>2014-08-18T10:46:35.140Z</time>
      </trkpt>
      <trkpt lat="46.18123" lon="5.73799">
        <ele>500.1</ele>
        <time>2014-08-18T10:46:38.148Z</time>
      </trkpt>
      <trkpt lat="46.18111" lon="5.738">
        <ele>499.3</ele>
        <time>2014-08-18T10:46:41.536Z</time>
      </trkpt>
      <trkpt lat="46.18101" lon="5.73803">
        <ele>499.5</ele>
        <time>2014-08-18T10:46:44.328Z</time>
      </trkpt>
      <trkpt lat="46.18089" lon="5.73808">
        <ele>500.9</ele>
        <time>2014-08-18T10:46:47.769Z</time>
      </trkpt>
      <trkpt lat="46.18077" lon="5.73814">
        <ele>503.2</ele>
        <time>2014-08-18T10:46:51.099Z</time>
      </trkpt>
      <trkpt lat="46.18067" lon="5.73819">
        <ele>504.8</ele>
        <time>2014-08-18T10:46:54.061Z</time>
      </trkpt>
      <trkpt lat="46.18056" lon="5.73822">
        <ele>504.8</ele>
        <time>2014-08-18T10:46:57.007Z</time>
      </trkpt>
      <trkpt lat="46.18024" lon="5.73823">
        <ele>505.2</ele>
        <time>2014-08-18T10:47:06.438Z</time>
      </trkpt>
      <trkpt lat="46.17972" lon="5.73816">
        <ele>509.5</ele>
        <time>2014-08-18T10:47:20.343Z</time>
      </trkpt>
      <trkpt lat="46.17951" lon="5.73811">
        <ele>508.9</ele>
        <time>2014-08-18T10:47:26.192Z</time>
      </trkpt>
      <trkpt lat="46.1792" lon="5.73817">
        <ele>511.1</ele>
        <time>2014-08-18T10:47:37.735Z</time>
      </trkpt>
      <trkpt lat="46.17908" lon="5.73822">
        <ele>513.9</ele>
        <time>2014-08-18T10:47:41.174Z</time>
      </trkpt>
      <trkpt lat="46.17881" lon="5.73846">
        <ele>519.6</ele>
        <time>2014-08-18T10:47:49.828Z</time>
      </trkpt>
      <trkpt lat="46.17872" lon="5.73853">
        <ele>519.2</ele>
        <time>2014-08-18T10:47:52.622Z</time>
      </trkpt>
      <trkpt lat="46.17841" lon="5.73858">
        <ele>516.9</ele>
        <time>2014-08-18T10:48:00.119Z</time>
      </trkpt>
      <trkpt lat="46.17808" lon="5.73854">
        <ele>517.3</ele>
        <time>2014-08-18T10:48:06.735Z</time>
      </trkpt>
      <trkpt lat="46.17819" lon="5.73859">
        <ele>520.4</ele>
        <time>2014-08-18T10:53:55.738Z</time>
      </trkpt>
      <trkpt lat="46.17808" lon="5.7388">
        <ele>518</ele>
        <time>2014-08-18T10:57:43.047Z</time>
      </trkpt>
      <trkpt lat="46.17799" lon="5.73875">
        <ele>517.1</ele>
        <time>2014-08-18T10:58:19.738Z</time>
      </trkpt>
      <trkpt lat="46.17789" lon="5.73878">
        <ele>513.1</ele>
        <time>2014-08-18T11:01:24.757Z</time>
      </trkpt>
      <trkpt lat="46.17757" lon="5.73876">
        <ele>520.6</ele>
        <time>2014-08-18T11:02:28.739Z</time>
      </trkpt>
      <trkpt lat="46.17774" lon="5.73875">
        <ele>552.4</ele>
        <time>2014-08-18T11:03:23.739Z</time>
      </trkpt>
      <trkpt lat="46.1776" lon="5.7388">
        <ele>538.4</ele>
        <time>2014-08-18T11:05:02.956Z</time>
      </trkpt>
      <trkpt lat="46.17751" lon="5.73877">
        <ele>543.1</ele>
        <time>2014-08-18T11:05:08.279Z</time>
      </trkpt>
      <trkpt lat="46.17741" lon="5.73881">
        <ele>553.2</ele>
        <time>2014-08-18T11:05:12.548Z</time>
      </trkpt>
      <trkpt lat="46.17736" lon="5.73895">
        <ele>565.8</ele>
        <time>2014-08-18T11:05:16.612Z</time>
      </trkpt>
      <trkpt lat="46.17739" lon="5.73909">
        <ele>574.5</ele>
        <time>2014-08-18T11:05:21.076Z</time>
      </trkpt>
      <trkpt lat="46.17729" lon="5.73913">
        <ele>577.7</ele>
        <time>2014-08-18T11:05:25.713Z</time>
      </trkpt>
      <trkpt lat="46.17721" lon="5.73931">
        <ele>584</ele>
        <time>2014-08-18T11:05:31.403Z</time>
      </trkpt>
      <trkpt lat="46.17712" lon="5.73936">
        <ele>600.8</ele>
        <time>2014-08-18T11:05:34.426Z</time>
      </trkpt>
      <trkpt lat="46.17701" lon="5.73941">
        <ele>623.5</ele>
        <time>2014-08-18T11:05:38.093Z</time>
      </trkpt>
      <trkpt lat="46.17692" lon="5.7395">
        <ele>645.8</ele>
        <time>2014-08-18T11:05:42.417Z</time>
      </trkpt>
      <trkpt lat="46.17692" lon="5.73966">
        <ele>664.6</ele>
        <time>2014-08-18T11:05:46.722Z</time>
      </trkpt>
      <trkpt lat="46.17685" lon="5.73978">
        <ele>675.2</ele>
        <time>2014-08-18T11:05:53.626Z</time>
      </trkpt>
      <trkpt lat="46.17694" lon="5.73985">
        <ele>675.9</ele>
        <time>2014-08-18T11:06:00.739Z</time>
      </trkpt>
      <trkpt lat="46.17733" lon="5.73976">
        <ele>670.3</ele>
        <time>2014-08-18T11:06:53.760Z</time>
      </trkpt>
      <trkpt lat="46.17748" lon="5.7397">
        <ele>650.2</ele>
        <time>2014-08-18T11:07:03.741Z</time>
      </trkpt>
      <trkpt lat="46.17753" lon="5.73969">
        <ele>544.2</ele>
        <time>2014-08-18T11:07:40.381Z</time>
      </trkpt>
      <trkpt lat="46.17751" lon="5.73969">
        <ele>500.8</ele>
        <time>2014-08-18T11:34:57.758Z</time>
      </trkpt>
      <trkpt lat="46.17741" lon="5.73966">
        <ele>500.5</ele>
        <time>2014-08-18T11:49:04.757Z</time>
      </trkpt>
      <trkpt lat="46.17757" lon="5.7395">
        <ele>500.1</ele>
        <time>2014-08-18T11:54:38.207Z</time>
      </trkpt>
      <trkpt lat="46.17771" lon="5.73912">
        <ele>502.3</ele>
        <time>2014-08-18T11:54:50.332Z</time>
      </trkpt>
      <trkpt lat="46.17774" lon="5.739">
        <ele>502.8</ele>
        <time>2014-08-18T11:54:53.722Z</time>
      </trkpt>
      <trkpt lat="46.17766" lon="5.73893">
        <ele>503.1</ele>
        <time>2014-08-18T11:54:57.264Z</time>
      </trkpt>
      <trkpt lat="46.17757" lon="5.73902">
        <ele>505.1</ele>
        <time>2014-08-18T11:55:00.228Z</time>
      </trkpt>
      <trkpt lat="46.17743" lon="5.73919">
        <ele>510.2</ele>
        <time>2014-08-18T11:55:03.098Z</time>
      </trkpt>
      <trkpt lat="46.17733" lon="5.73938">
        <ele>516.3</ele>
        <time>2014-08-18T11:55:04.959Z</time>
      </trkpt>
      <trkpt lat="46.17708" lon="5.7401">
        <ele>514.3</ele>
        <time>2014-08-18T11:55:11.467Z</time>
      </trkpt>
      <trkpt lat="46.17684" lon="5.74101">
        <ele>496.2</ele>
        <time>2014-08-18T11:56:33.771Z</time>
      </trkpt>
      <trkpt lat="46.17685" lon="5.74122">
        <ele>498.5</ele>
        <time>2014-08-18T11:56:36.607Z</time>
      </trkpt>
      <trkpt lat="46.1768" lon="5.7415">
        <ele>502.9</ele>
        <time>2014-08-18T11:56:40.066Z</time>
      </trkpt>
      <trkpt lat="46.17663" lon="5.74193">
        <ele>507.8</ele>
        <time>2014-08-18T11:56:44.998Z</time>
      </trkpt>
      <trkpt lat="46.17642" lon="5.74237">
        <ele>505</ele>
        <time>2014-08-18T11:56:51.270Z</time>
      </trkpt>
      <trkpt lat="46.17631" lon="5.74253">
        <ele>500.7</ele>
        <time>2014-08-18T11:56:54.455Z</time>
      </trkpt>
      <trkpt lat="46.17626" lon="5.74267">
        <ele>494.4</ele>
        <time>2014-08-18T11:56:57.020Z</time>
      </trkpt>
      <trkpt lat="46.17609" lon="5.74292">
        <ele>485.1</ele>
        <time>2014-08-18T11:57:02.759Z</time>
      </trkpt>
      <trkpt lat="46.17623" lon="5.74276">
        <ele>484.5</ele>
        <time>2014-08-18T11:59:04.763Z</time>
      </trkpt>
      <trkpt lat="46.1765" lon="5.74237">
        <ele>483.9</ele>
        <time>2014-08-18T11:59:19.761Z</time>
      </trkpt>
      <trkpt lat="46.17639" lon="5.74255">
        <ele>483.4</ele>
        <time>2014-08-18T12:02:24.469Z</time>
      </trkpt>
      <trkpt lat="46.17618" lon="5.74281">
        <ele>480.4</ele>
        <time>2014-08-18T12:02:31.756Z</time>
      </trkpt>
      <trkpt lat="46.1761" lon="5.74295">
        <ele>476.9</ele>
        <time>2014-08-18T12:02:34.152Z</time>
      </trkpt>
      <trkpt lat="46.17601" lon="5.74307">
        <ele>473.4</ele>
        <time>2014-08-18T12:02:36.367Z</time>
      </trkpt>
      <trkpt lat="46.17589" lon="5.7432">
        <ele>471.1</ele>
        <time>2014-08-18T12:02:39.271Z</time>
      </trkpt>
      <trkpt lat="46.17552" lon="5.74377">
        <ele>484.2</ele>
        <time>2014-08-18T12:02:48.566Z</time>
      </trkpt>
      <trkpt lat="46.1754" lon="5.74407">
        <ele>485.9</ele>
        <time>2014-08-18T12:02:52.008Z</time>
      </trkpt>
      <trkpt lat="46.17525" lon="5.74426">
        <ele>486</ele>
        <time>2014-08-18T12:02:55.025Z</time>
      </trkpt>
      <trkpt lat="46.17483" lon="5.74529">
        <ele>477.6</ele>
        <time>2014-08-18T12:03:07.179Z</time>
      </trkpt>
      <trkpt lat="46.17476" lon="5.74543">
        <ele>477</ele>
        <time>2014-08-18T12:03:08.934Z</time>
      </trkpt>
      <trkpt lat="46.17469" lon="5.74553">
        <ele>477.9</ele>
        <time>2014-08-18T12:03:10.525Z</time>
      </trkpt>
      <trkpt lat="46.17456" lon="5.74567">
        <ele>481</ele>
        <time>2014-08-18T12:03:12.966Z</time>
      </trkpt>
      <trkpt lat="46.17312" lon="5.74649">
        <ele>514.2</ele>
        <time>2014-08-18T12:03:33.983Z</time>
      </trkpt>
      <trkpt lat="46.17295" lon="5.74678">
        <ele>515.1</ele>
        <time>2014-08-18T12:03:36.961Z</time>
      </trkpt>
      <trkpt lat="46.17283" lon="5.74692">
        <ele>515.5</ele>
        <time>2014-08-18T12:03:39.480Z</time>
      </trkpt>
      <trkpt lat="46.17273" lon="5.74689">
        <ele>516.3</ele>
        <time>2014-08-18T12:03:41.948Z</time>
      </trkpt>
      <trkpt lat="46.17263" lon="5.74684">
        <ele>517.9</ele>
        <time>2014-08-18T12:03:44.722Z</time>
      </trkpt>
      <trkpt lat="46.17246" lon="5.74693">
        <ele>519.4</ele>
        <time>2014-08-18T12:03:49.200Z</time>
      </trkpt>
      <trkpt lat="46.17229" lon="5.74705">
        <ele>519</ele>
        <time>2014-08-18T12:03:53.473Z</time>
      </trkpt>
      <trkpt lat="46.17212" lon="5.74715">
        <ele>516.8</ele>
        <time>2014-08-18T12:03:57.105Z</time>
      </trkpt>
      <trkpt lat="46.17168" lon="5.74776">
        <ele>514</ele>
        <time>2014-08-18T12:04:05.452Z</time>
      </trkpt>
      <trkpt lat="46.17157" lon="5.74797">
        <ele>513.3</ele>
        <time>2014-08-18T12:04:07.772Z</time>
      </trkpt>
      <trkpt lat="46.17126" lon="5.74906">
        <ele>483.1</ele>
        <time>2014-08-18T12:04:17.628Z</time>
      </trkpt>
      <trkpt lat="46.17111" lon="5.74937">
        <ele>469.4</ele>
        <time>2014-08-18T12:04:21.784Z</time>
      </trkpt>
      <trkpt lat="46.17097" lon="5.74956">
        <ele>464.9</ele>
        <time>2014-08-18T12:04:24.631Z</time>
      </trkpt>
      <trkpt lat="46.1708" lon="5.74973">
        <ele>464.6</ele>
        <time>2014-08-18T12:04:27.497Z</time>
      </trkpt>
      <trkpt lat="46.17056" lon="5.75003">
        <ele>469.7</ele>
        <time>2014-08-18T12:04:31.451Z</time>
      </trkpt>
      <trkpt lat="46.17041" lon="5.75056">
        <ele>480.3</ele>
        <time>2014-08-18T12:04:35.408Z</time>
      </trkpt>
      <trkpt lat="46.17038" lon="5.75085">
        <ele>476.1</ele>
        <time>2014-08-18T12:04:37.506Z</time>
      </trkpt>
      <trkpt lat="46.17033" lon="5.75109">
        <ele>466.7</ele>
        <time>2014-08-18T12:04:39.286Z</time>
      </trkpt>
      <trkpt lat="46.17011" lon="5.75138">
        <ele>455.8</ele>
        <time>2014-08-18T12:04:42.437Z</time>
      </trkpt>
      <trkpt lat="46.16996" lon="5.75155">
        <ele>447.9</ele>
        <time>2014-08-18T12:04:44.541Z</time>
      </trkpt>
      <trkpt lat="46.16985" lon="5.75173">
        <ele>445</ele>
        <time>2014-08-18T12:04:46.426Z</time>
      </trkpt>
      <trkpt lat="46.16977" lon="5.75193">
        <ele>445.9</ele>
        <time>2014-08-18T12:04:48.053Z</time>
      </trkpt>
      <trkpt lat="46.1696" lon="5.75294">
        <ele>458.2</ele>
        <time>2014-08-18T12:04:55.327Z</time>
      </trkpt>
      <trkpt lat="46.16952" lon="5.7532">
        <ele>458.9</ele>
        <time>2014-08-18T12:04:57.364Z</time>
      </trkpt>
      <trkpt lat="46.16886" lon="5.75421">
        <ele>445.7</ele>
        <time>2014-08-18T12:05:07.774Z</time>
      </trkpt>
      <trkpt lat="46.16872" lon="5.75452">
        <ele>444.4</ele>
        <time>2014-08-18T12:05:10.645Z</time>
      </trkpt>
      <trkpt lat="46.16841" lon="5.75561">
        <ele>443.4</ele>
        <time>2014-08-18T12:05:19.629Z</time>
      </trkpt>
      <trkpt lat="46.16793" lon="5.75749">
        <ele>438</ele>
        <time>2014-08-18T12:05:33.190Z</time>
      </trkpt>
      <trkpt lat="46.16777" lon="5.75796">
        <ele>435.4</ele>
        <time>2014-08-18T12:05:36.741Z</time>
      </trkpt>
      <trkpt lat="46.16696" lon="5.75971">
        <ele>425.5</ele>
        <time>2014-08-18T12:05:51.132Z</time>
      </trkpt>
      <trkpt lat="46.16655" lon="5.76049">
        <ele>430.9</ele>
        <time>2014-08-18T12:05:58.159Z</time>
      </trkpt>
      <trkpt lat="46.16615" lon="5.761">
        <ele>438.2</ele>
        <time>2014-08-18T12:06:03.935Z</time>
      </trkpt>
      <trkpt lat="46.16579" lon="5.7614">
        <ele>443.4</ele>
        <time>2014-08-18T12:06:09.094Z</time>
      </trkpt>
      <trkpt lat="46.1655" lon="5.76163">
        <ele>446.9</ele>
        <time>2014-08-18T12:06:13.370Z</time>
      </trkpt>
      <trkpt lat="46.16533" lon="5.76174">
        <ele>449.2</ele>
        <time>2014-08-18T12:06:15.920Z</time>
      </trkpt>
      <trkpt lat="46.16489" lon="5.7621">
        <ele>459.8</ele>
        <time>2014-08-18T12:06:23.455Z</time>
      </trkpt>
      <trkpt lat="46.16463" lon="5.76237">
        <ele>457.3</ele>
        <time>2014-08-18T12:06:28.756Z</time>
      </trkpt>
      <trkpt lat="46.16448" lon="5.76263">
        <ele>448.1</ele>
        <time>2014-08-18T12:06:32.743Z</time>
      </trkpt>
      <trkpt lat="46.16424" lon="5.76328">
        <ele>414.7</ele>
        <time>2014-08-18T12:06:41.420Z</time>
      </trkpt>
      <trkpt lat="46.1641" lon="5.76353">
        <ele>415.2</ele>
        <time>2014-08-18T12:06:45.404Z</time>
      </trkpt>
      <trkpt lat="46.164" lon="5.76383">
        <ele>422.8</ele>
        <time>2014-08-18T12:06:49.615Z</time>
      </trkpt>
      <trkpt lat="46.16398" lon="5.76403">
        <ele>428.4</ele>
        <time>2014-08-18T12:06:52.421Z</time>
      </trkpt>
      <trkpt lat="46.16402" lon="5.76491">
        <ele>462</ele>
        <time>2014-08-18T12:07:06.086Z</time>
      </trkpt>
      <trkpt lat="46.164" lon="5.76506">
        <ele>462.6</ele>
        <time>2014-08-18T12:07:08.779Z</time>
      </trkpt>
      <trkpt lat="46.16394" lon="5.76538">
        <ele>461.1</ele>
        <time>2014-08-18T12:07:14.795Z</time>
      </trkpt>
      <trkpt lat="46.164" lon="5.76612">
        <ele>480.9</ele>
        <time>2014-08-18T12:07:29.472Z</time>
      </trkpt>
      <trkpt lat="46.16396" lon="5.76643">
        <ele>486.2</ele>
        <time>2014-08-18T12:07:35.084Z</time>
      </trkpt>
      <trkpt lat="46.16385" lon="5.76681">
        <ele>486.2</ele>
        <time>2014-08-18T12:07:42.210Z</time>
      </trkpt>
      <trkpt lat="46.16361" lon="5.7672">
        <ele>474.8</ele>
        <time>2014-08-18T12:07:49.346Z</time>
      </trkpt>
      <trkpt lat="46.16355" lon="5.76734">
        <ele>456.9</ele>
        <time>2014-08-18T12:07:51.919Z</time>
      </trkpt>
      <trkpt lat="46.16328" lon="5.76771">
        <ele>422.7</ele>
        <time>2014-08-18T12:08:00.717Z</time>
      </trkpt>
      <trkpt lat="46.16316" lon="5.76799">
        <ele>423</ele>
        <time>2014-08-18T12:08:06.483Z</time>
      </trkpt>
      <trkpt lat="46.16307" lon="5.76827">
        <ele>426.6</ele>
        <time>2014-08-18T12:08:12.255Z</time>
      </trkpt>
      <trkpt lat="46.16299" lon="5.7684">
        <ele>429.3</ele>
        <time>2014-08-18T12:08:15.616Z</time>
      </trkpt>
      <trkpt lat="46.1629" lon="5.7687">
        <ele>434.9</ele>
        <time>2014-08-18T12:08:21.851Z</time>
      </trkpt>
      <trkpt lat="46.16287" lon="5.76885">
        <ele>438.3</ele>
        <time>2014-08-18T12:08:24.808Z</time>
      </trkpt>
      <trkpt lat="46.16286" lon="5.76924">
        <ele>441.3</ele>
        <time>2014-08-18T12:08:32.056Z</time>
      </trkpt>
      <trkpt lat="46.16286" lon="5.76942">
        <ele>440.9</ele>
        <time>2014-08-18T12:08:35.323Z</time>
      </trkpt>
      <trkpt lat="46.16277" lon="5.77008">
        <ele>441.5</ele>
        <time>2014-08-18T12:08:47.396Z</time>
      </trkpt>
      <trkpt lat="46.16272" lon="5.77024">
        <ele>442.2</ele>
        <time>2014-08-18T12:08:50.453Z</time>
      </trkpt>
      <trkpt lat="46.1622" lon="5.77123">
        <ele>444.9</ele>
        <time>2014-08-18T12:09:13.481Z</time>
      </trkpt>
      <trkpt lat="46.16215" lon="5.77139">
        <ele>444.6</ele>
        <time>2014-08-18T12:09:16.707Z</time>
      </trkpt>
      <trkpt lat="46.16207" lon="5.77191">
        <ele>443.9</ele>
        <time>2014-08-18T12:09:26.199Z</time>
      </trkpt>
      <trkpt lat="46.16206" lon="5.77223">
        <ele>441.2</ele>
        <time>2014-08-18T12:09:31.857Z</time>
      </trkpt>
      <trkpt lat="46.16214" lon="5.77331">
        <ele>435.1</ele>
        <time>2014-08-18T12:09:52.623Z</time>
      </trkpt>
      <trkpt lat="46.16245" lon="5.77537">
        <ele>445.5</ele>
        <time>2014-08-18T12:10:30.938Z</time>
      </trkpt>
      <trkpt lat="46.16229" lon="5.7764">
        <ele>451.7</ele>
        <time>2014-08-18T12:10:48.805Z</time>
      </trkpt>
      <trkpt lat="46.16226" lon="5.77653">
        <ele>451.2</ele>
        <time>2014-08-18T12:10:51.603Z</time>
      </trkpt>
      <trkpt lat="46.16224" lon="5.77667">
        <ele>452.5</ele>
        <time>2014-08-18T12:10:54.931Z</time>
      </trkpt>
      <trkpt lat="46.16232" lon="5.77726">
        <ele>472.8</ele>
        <time>2014-08-18T12:11:07.499Z</time>
      </trkpt>
      <trkpt lat="46.16229" lon="5.77743">
        <ele>475.7</ele>
        <time>2014-08-18T12:11:11.041Z</time>
      </trkpt>
      <trkpt lat="46.16217" lon="5.77783">
        <ele>463.5</ele>
        <time>2014-08-18T12:11:19.879Z</time>
      </trkpt>
      <trkpt lat="46.16206" lon="5.77806">
        <ele>460</ele>
        <time>2014-08-18T12:11:25.377Z</time>
      </trkpt>
      <trkpt lat="46.16199" lon="5.77817">
        <ele>460.5</ele>
        <time>2014-08-18T12:11:28.168Z</time>
      </trkpt>
      <trkpt lat="46.1619" lon="5.77824">
        <ele>460.2</ele>
        <time>2014-08-18T12:11:31.011Z</time>
      </trkpt>
      <trkpt lat="46.16182" lon="5.77829">
        <ele>457.9</ele>
        <time>2014-08-18T12:11:33.571Z</time>
      </trkpt>
      <trkpt lat="46.16165" lon="5.77842">
        <ele>451.8</ele>
        <time>2014-08-18T12:11:39.171Z</time>
      </trkpt>
      <trkpt lat="46.16148" lon="5.77865">
        <ele>463</ele>
        <time>2014-08-18T12:11:46.172Z</time>
      </trkpt>
      <trkpt lat="46.16136" lon="5.77876">
        <ele>472.2</ele>
        <time>2014-08-18T12:11:50.861Z</time>
      </trkpt>
      <trkpt lat="46.16099" lon="5.77895">
        <ele>485.3</ele>
        <time>2014-08-18T12:12:01.768Z</time>
      </trkpt>
      <trkpt lat="46.16083" lon="5.77911">
        <ele>485.1</ele>
        <time>2014-08-18T12:12:10.671Z</time>
      </trkpt>
      <trkpt lat="46.16073" lon="5.77924">
        <ele>482.4</ele>
        <time>2014-08-18T12:12:14.808Z</time>
      </trkpt>
      <trkpt lat="46.16051" lon="5.77963">
        <ele>462</ele>
        <time>2014-08-18T12:12:24.235Z</time>
      </trkpt>
      <trkpt lat="46.16042" lon="5.77995">
        <ele>460.5</ele>
        <time>2014-08-18T12:12:30.311Z</time>
      </trkpt>
      <trkpt lat="46.16036" lon="5.78008">
        <ele>461.6</ele>
        <time>2014-08-18T12:12:33.015Z</time>
      </trkpt>
      <trkpt lat="46.15995" lon="5.7807">
        <ele>462.2</ele>
        <time>2014-08-18T12:12:47.384Z</time>
      </trkpt>
      <trkpt lat="46.15974" lon="5.78112">
        <ele>461.6</ele>
        <time>2014-08-18T12:12:55.778Z</time>
      </trkpt>
      <trkpt lat="46.15968" lon="5.78127">
        <ele>461.6</ele>
        <time>2014-08-18T12:12:58.644Z</time>
      </trkpt>
      <trkpt lat="46.15961" lon="5.7814">
        <ele>462.2</ele>
        <time>2014-08-18T12:13:01.228Z</time>
      </trkpt>
      <trkpt lat="46.15952" lon="5.78151">
        <ele>464</ele>
        <time>2014-08-18T12:13:03.989Z</time>
      </trkpt>
      <trkpt lat="46.15946" lon="5.78165">
        <ele>465.9</ele>
        <time>2014-08-18T12:13:06.579Z</time>
      </trkpt>
      <trkpt lat="46.15937" lon="5.78177">
        <ele>467.1</ele>
        <time>2014-08-18T12:13:09.438Z</time>
      </trkpt>
      <trkpt lat="46.15932" lon="5.78191">
        <ele>467.7</ele>
        <time>2014-08-18T12:13:12.063Z</time>
      </trkpt>
      <trkpt lat="46.15923" lon="5.78203">
        <ele>468</ele>
        <time>2014-08-18T12:13:14.930Z</time>
      </trkpt>
      <trkpt lat="46.15895" lon="5.78263">
        <ele>463.9</ele>
        <time>2014-08-18T12:13:26.142Z</time>
      </trkpt>
      <trkpt lat="46.15889" lon="5.78278">
        <ele>463.2</ele>
        <time>2014-08-18T12:13:28.810Z</time>
      </trkpt>
      <trkpt lat="46.15882" lon="5.78285">
        <ele>463.2</ele>
        <time>2014-08-18T12:13:30.750Z</time>
      </trkpt>
      <trkpt lat="46.15873" lon="5.78299">
        <ele>463.9</ele>
        <time>2014-08-18T12:13:33.421Z</time>
      </trkpt>
      <trkpt lat="46.15829" lon="5.7842">
        <ele>471.3</ele>
        <time>2014-08-18T12:13:54.033Z</time>
      </trkpt>
      <trkpt lat="46.15821" lon="5.78433">
        <ele>471</ele>
        <time>2014-08-18T12:13:56.620Z</time>
      </trkpt>
      <trkpt lat="46.15813" lon="5.78445">
        <ele>471.5</ele>
        <time>2014-08-18T12:13:59.182Z</time>
      </trkpt>
      <trkpt lat="46.15795" lon="5.78481">
        <ele>476.5</ele>
        <time>2014-08-18T12:14:06.427Z</time>
      </trkpt>
      <trkpt lat="46.1579" lon="5.78494">
        <ele>478.9</ele>
        <time>2014-08-18T12:14:08.936Z</time>
      </trkpt>
      <trkpt lat="46.15771" lon="5.78517">
        <ele>486.2</ele>
        <time>2014-08-18T12:14:15.612Z</time>
      </trkpt>
      <trkpt lat="46.15763" lon="5.78526">
        <ele>489.6</ele>
        <time>2014-08-18T12:14:18.464Z</time>
      </trkpt>
      <trkpt lat="46.15744" lon="5.7854">
        <ele>493.5</ele>
        <time>2014-08-18T12:14:24.038Z</time>
      </trkpt>
      <trkpt lat="46.15722" lon="5.78548">
        <ele>503.2</ele>
        <time>2014-08-18T12:14:30.374Z</time>
      </trkpt>
      <trkpt lat="46.15713" lon="5.78541">
        <ele>506.5</ele>
        <time>2014-08-18T12:14:33.756Z</time>
      </trkpt>
      <trkpt lat="46.15701" lon="5.78551">
        <ele>507.8</ele>
        <time>2014-08-18T12:14:39.202Z</time>
      </trkpt>
      <trkpt lat="46.15682" lon="5.78577">
        <ele>506.5</ele>
        <time>2014-08-18T12:14:47.322Z</time>
      </trkpt>
      <trkpt lat="46.15675" lon="5.78588">
        <ele>503</ele>
        <time>2014-08-18T12:14:50.200Z</time>
      </trkpt>
      <trkpt lat="46.15656" lon="5.78613">
        <ele>496.7</ele>
        <time>2014-08-18T12:14:57.274Z</time>
      </trkpt>
      <trkpt lat="46.15565" lon="5.78796">
        <ele>478.4</ele>
        <time>2014-08-18T12:15:38.286Z</time>
      </trkpt>
      <trkpt lat="46.15556" lon="5.7881">
        <ele>479.2</ele>
        <time>2014-08-18T12:15:41.430Z</time>
      </trkpt>
      <trkpt lat="46.15522" lon="5.78883">
        <ele>490.1</ele>
        <time>2014-08-18T12:15:56.211Z</time>
      </trkpt>
      <trkpt lat="46.15505" lon="5.78906">
        <ele>492.2</ele>
        <time>2014-08-18T12:16:01.648Z</time>
      </trkpt>
      <trkpt lat="46.15495" lon="5.78916">
        <ele>495.1</ele>
        <time>2014-08-18T12:16:04.437Z</time>
      </trkpt>
      <trkpt lat="46.15487" lon="5.78928">
        <ele>498.1</ele>
        <time>2014-08-18T12:16:07.038Z</time>
      </trkpt>
      <trkpt lat="46.15463" lon="5.78946">
        <ele>503.4</ele>
        <time>2014-08-18T12:16:12.801Z</time>
      </trkpt>
      <trkpt lat="46.15442" lon="5.78958">
        <ele>504.3</ele>
        <time>2014-08-18T12:16:17.756Z</time>
      </trkpt>
      <trkpt lat="46.15431" lon="5.78964">
        <ele>503.2</ele>
        <time>2014-08-18T12:16:20.239Z</time>
      </trkpt>
      <trkpt lat="46.15403" lon="5.78969">
        <ele>502.2</ele>
        <time>2014-08-18T12:16:26.305Z</time>
      </trkpt>
      <trkpt lat="46.15389" lon="5.78969">
        <ele>503.3</ele>
        <time>2014-08-18T12:16:29.447Z</time>
      </trkpt>
      <trkpt lat="46.15376" lon="5.78967">
        <ele>504.5</ele>
        <time>2014-08-18T12:16:32.473Z</time>
      </trkpt>
      <trkpt lat="46.15368" lon="5.78971">
        <ele>505.6</ele>
        <time>2014-08-18T12:16:34.768Z</time>
      </trkpt>
      <trkpt lat="46.15358" lon="5.78977">
        <ele>507</ele>
        <time>2014-08-18T12:16:37.582Z</time>
      </trkpt>
      <trkpt lat="46.15272" lon="5.79008">
        <ele>509.3</ele>
        <time>2014-08-18T12:16:57.846Z</time>
      </trkpt>
      <trkpt lat="46.15224" lon="5.7903">
        <ele>510.6</ele>
        <time>2014-08-18T12:17:08.186Z</time>
      </trkpt>
      <trkpt lat="46.15178" lon="5.79074">
        <ele>512.6</ele>
        <time>2014-08-18T12:17:19.609Z</time>
      </trkpt>
      <trkpt lat="46.15166" lon="5.79083">
        <ele>513.7</ele>
        <time>2014-08-18T12:17:22.312Z</time>
      </trkpt>
      <trkpt lat="46.15146" lon="5.79104">
        <ele>515.6</ele>
        <time>2014-08-18T12:17:27.259Z</time>
      </trkpt>
      <trkpt lat="46.15138" lon="5.7911">
        <ele>516.3</ele>
        <time>2014-08-18T12:17:29.041Z</time>
      </trkpt>
      <trkpt lat="46.15117" lon="5.79131">
        <ele>517.5</ele>
        <time>2014-08-18T12:17:34.179Z</time>
      </trkpt>
      <trkpt lat="46.15052" lon="5.79177">
        <ele>530.8</ele>
        <time>2014-08-18T12:17:48.337Z</time>
      </trkpt>
      <trkpt lat="46.15038" lon="5.7919">
        <ele>531.3</ele>
        <time>2014-08-18T12:17:51.424Z</time>
      </trkpt>
      <trkpt lat="46.15029" lon="5.79203">
        <ele>529</ele>
        <time>2014-08-18T12:17:53.792Z</time>
      </trkpt>
      <trkpt lat="46.14985" lon="5.79241">
        <ele>522.2</ele>
        <time>2014-08-18T12:18:03.885Z</time>
      </trkpt>
      <trkpt lat="46.14971" lon="5.7925">
        <ele>523.6</ele>
        <time>2014-08-18T12:18:06.904Z</time>
      </trkpt>
      <trkpt lat="46.1488" lon="5.79339">
        <ele>532.6</ele>
        <time>2014-08-18T12:18:30.632Z</time>
      </trkpt>
      <trkpt lat="46.14867" lon="5.79346">
        <ele>531.7</ele>
        <time>2014-08-18T12:18:33.362Z</time>
      </trkpt>
      <trkpt lat="46.14842" lon="5.79366">
        <ele>528.1</ele>
        <time>2014-08-18T12:18:38.854Z</time>
      </trkpt>
      <trkpt lat="46.14802" lon="5.79389">
        <ele>530.9</ele>
        <time>2014-08-18T12:18:47.905Z</time>
      </trkpt>
      <trkpt lat="46.14784" lon="5.79397">
        <ele>532.6</ele>
        <time>2014-08-18T12:18:51.815Z</time>
      </trkpt>
      <trkpt lat="46.14771" lon="5.79404">
        <ele>533.2</ele>
        <time>2014-08-18T12:18:54.829Z</time>
      </trkpt>
      <trkpt lat="46.14759" lon="5.79414">
        <ele>532.1</ele>
        <time>2014-08-18T12:18:57.681Z</time>
      </trkpt>
      <trkpt lat="46.14735" lon="5.79427">
        <ele>528.7</ele>
        <time>2014-08-18T12:19:03.134Z</time>
      </trkpt>
      <trkpt lat="46.14726" lon="5.79434">
        <ele>528.7</ele>
        <time>2014-08-18T12:19:05.605Z</time>
      </trkpt>
      <trkpt lat="46.14704" lon="5.79443">
        <ele>532.9</ele>
        <time>2014-08-18T12:19:11.250Z</time>
      </trkpt>
      <trkpt lat="46.1469" lon="5.79447">
        <ele>537.5</ele>
        <time>2014-08-18T12:19:14.741Z</time>
      </trkpt>
      <trkpt lat="46.14664" lon="5.79456">
        <ele>549</ele>
        <time>2014-08-18T12:19:21.302Z</time>
      </trkpt>
      <trkpt lat="46.14655" lon="5.79458">
        <ele>553</ele>
        <time>2014-08-18T12:19:23.687Z</time>
      </trkpt>
      <trkpt lat="46.1464" lon="5.79464">
        <ele>554.9</ele>
        <time>2014-08-18T12:19:27.412Z</time>
      </trkpt>
      <trkpt lat="46.14626" lon="5.79473">
        <ele>555.4</ele>
        <time>2014-08-18T12:19:30.841Z</time>
      </trkpt>
      <trkpt lat="46.14599" lon="5.79485">
        <ele>551.4</ele>
        <time>2014-08-18T12:19:36.720Z</time>
      </trkpt>
      <trkpt lat="46.14585" lon="5.79489">
        <ele>549.6</ele>
        <time>2014-08-18T12:19:39.361Z</time>
      </trkpt>
      <trkpt lat="46.14562" lon="5.79492">
        <ele>553</ele>
        <time>2014-08-18T12:19:43.485Z</time>
      </trkpt>
      <trkpt lat="46.14519" lon="5.79527">
        <ele>555.8</ele>
        <time>2014-08-18T12:19:52.770Z</time>
      </trkpt>
      <trkpt lat="46.14483" lon="5.79553">
        <ele>546.9</ele>
        <time>2014-08-18T12:20:06.117Z</time>
      </trkpt>
      <trkpt lat="46.14444" lon="5.7957">
        <ele>539.6</ele>
        <time>2014-08-18T12:20:15.592Z</time>
      </trkpt>
      <trkpt lat="46.14435" lon="5.79575">
        <ele>539</ele>
        <time>2014-08-18T12:20:17.857Z</time>
      </trkpt>
      <trkpt lat="46.14423" lon="5.79586">
        <ele>538.5</ele>
        <time>2014-08-18T12:20:21.396Z</time>
      </trkpt>
      <trkpt lat="46.14415" lon="5.79596">
        <ele>537.7</ele>
        <time>2014-08-18T12:20:24.368Z</time>
      </trkpt>
      <trkpt lat="46.14369" lon="5.79631">
        <ele>534.4</ele>
        <time>2014-08-18T12:20:40.570Z</time>
      </trkpt>
      <trkpt lat="46.1436" lon="5.79656">
        <ele>533.2</ele>
        <time>2014-08-18T12:20:47.748Z</time>
      </trkpt>
      <trkpt lat="46.14358" lon="5.7967">
        <ele>529.7</ele>
        <time>2014-08-18T12:20:51.032Z</time>
      </trkpt>
      <trkpt lat="46.14354" lon="5.7976">
        <ele>520.3</ele>
        <time>2014-08-18T12:21:09.125Z</time>
      </trkpt>
      <trkpt lat="46.14355" lon="5.79773">
        <ele>523.3</ele>
        <time>2014-08-18T12:21:11.843Z</time>
      </trkpt>
      <trkpt lat="46.14358" lon="5.79791">
        <ele>526.6</ele>
        <time>2014-08-18T12:21:16.214Z</time>
      </trkpt>
      <trkpt lat="46.14359" lon="5.79806">
        <ele>528.2</ele>
        <time>2014-08-18T12:21:20.413Z</time>
      </trkpt>
      <trkpt lat="46.14354" lon="5.79819">
        <ele>528.9</ele>
        <time>2014-08-18T12:21:24.925Z</time>
      </trkpt>
      <trkpt lat="46.14347" lon="5.79829">
        <ele>530.3</ele>
        <time>2014-08-18T12:21:31.687Z</time>
      </trkpt>
      <trkpt lat="46.14329" lon="5.79817">
        <ele>538.5</ele>
        <time>2014-08-18T12:21:41.960Z</time>
      </trkpt>
      <trkpt lat="46.14303" lon="5.79818">
        <ele>542.2</ele>
        <time>2014-08-18T12:21:50.185Z</time>
      </trkpt>
      <trkpt lat="46.14296" lon="5.79802">
        <ele>540.8</ele>
        <time>2014-08-18T12:21:53.707Z</time>
      </trkpt>
      <trkpt lat="46.14286" lon="5.79803">
        <ele>540.7</ele>
        <time>2014-08-18T12:21:56.402Z</time>
      </trkpt>
      <trkpt lat="46.14277" lon="5.798">
        <ele>542.3</ele>
        <time>2014-08-18T12:21:58.822Z</time>
      </trkpt>
      <trkpt lat="46.1425" lon="5.79801">
        <ele>547.1</ele>
        <time>2014-08-18T12:22:05.870Z</time>
      </trkpt>
      <trkpt lat="46.1424" lon="5.79799">
        <ele>549</ele>
        <time>2014-08-18T12:22:08.515Z</time>
      </trkpt>
      <trkpt lat="46.14231" lon="5.7979">
        <ele>549.9</ele>
        <time>2014-08-18T12:22:11.468Z</time>
      </trkpt>
      <trkpt lat="46.14221" lon="5.79775">
        <ele>548.9</ele>
        <time>2014-08-18T12:22:15.146Z</time>
      </trkpt>
      <trkpt lat="46.14202" lon="5.79763">
        <ele>542.6</ele>
        <time>2014-08-18T12:22:20.255Z</time>
      </trkpt>
      <trkpt lat="46.14194" lon="5.79755">
        <ele>538.8</ele>
        <time>2014-08-18T12:22:22.429Z</time>
      </trkpt>
      <trkpt lat="46.14182" lon="5.79747">
        <ele>535.8</ele>
        <time>2014-08-18T12:22:25.152Z</time>
      </trkpt>
      <trkpt lat="46.14169" lon="5.79739">
        <ele>534.7</ele>
        <time>2014-08-18T12:22:28.098Z</time>
      </trkpt>
      <trkpt lat="46.14111" lon="5.79711">
        <ele>537.2</ele>
        <time>2014-08-18T12:22:40.959Z</time>
      </trkpt>
      <trkpt lat="46.14088" lon="5.79702">
        <ele>535.3</ele>
        <time>2014-08-18T12:22:46.216Z</time>
      </trkpt>
      <trkpt lat="46.13981" lon="5.79642">
        <ele>534</ele>
        <time>2014-08-18T12:23:14.452Z</time>
      </trkpt>
      <trkpt lat="46.13948" lon="5.79631">
        <ele>532.9</ele>
        <time>2014-08-18T12:23:23.506Z</time>
      </trkpt>
      <trkpt lat="46.13909" lon="5.79608">
        <ele>535.2</ele>
        <time>2014-08-18T12:23:35.404Z</time>
      </trkpt>
      <trkpt lat="46.13879" lon="5.79594">
        <ele>534.6</ele>
        <time>2014-08-18T12:23:45.166Z</time>
      </trkpt>
      <trkpt lat="46.13801" lon="5.79546">
        <ele>536.1</ele>
        <time>2014-08-18T12:24:27.593Z</time>
      </trkpt>
      <trkpt lat="46.13791" lon="5.79541">
        <ele>535.8</ele>
        <time>2014-08-18T12:24:34.505Z</time>
      </trkpt>
      <trkpt lat="46.13779" lon="5.79537">
        <ele>536.1</ele>
        <time>2014-08-18T12:24:45.183Z</time>
      </trkpt>
      <trkpt lat="46.13596" lon="5.7944">
        <ele>546.5</ele>
        <time>2014-08-18T12:25:46.153Z</time>
      </trkpt>
      <trkpt lat="46.13587" lon="5.79433">
        <ele>546.3</ele>
        <time>2014-08-18T12:25:48.940Z</time>
      </trkpt>
      <trkpt lat="46.1358" lon="5.79423">
        <ele>546.4</ele>
        <time>2014-08-18T12:25:51.790Z</time>
      </trkpt>
      <trkpt lat="46.13527" lon="5.79369">
        <ele>550.4</ele>
        <time>2014-08-18T12:26:09.836Z</time>
      </trkpt>
      <trkpt lat="46.13518" lon="5.79363">
        <ele>549.3</ele>
        <time>2014-08-18T12:26:12.439Z</time>
      </trkpt>
      <trkpt lat="46.13482" lon="5.79354">
        <ele>552.6</ele>
        <time>2014-08-18T12:26:22.771Z</time>
      </trkpt>
      <trkpt lat="46.1346" lon="5.79353">
        <ele>561.2</ele>
        <time>2014-08-18T12:26:28.796Z</time>
      </trkpt>
      <trkpt lat="46.13448" lon="5.7935">
        <ele>563.5</ele>
        <time>2014-08-18T12:26:32.353Z</time>
      </trkpt>
      <trkpt lat="46.13435" lon="5.7935">
        <ele>564.2</ele>
        <time>2014-08-18T12:26:35.525Z</time>
      </trkpt>
      <trkpt lat="46.13424" lon="5.79352">
        <ele>564.2</ele>
        <time>2014-08-18T12:26:38.352Z</time>
      </trkpt>
      <trkpt lat="46.13414" lon="5.7935">
        <ele>563.1</ele>
        <time>2014-08-18T12:26:41.116Z</time>
      </trkpt>
      <trkpt lat="46.13371" lon="5.79335">
        <ele>562.3</ele>
        <time>2014-08-18T12:26:52.238Z</time>
      </trkpt>
      <trkpt lat="46.13325" lon="5.79312">
        <ele>558</ele>
        <time>2014-08-18T12:27:05.312Z</time>
      </trkpt>
      <trkpt lat="46.13314" lon="5.79308">
        <ele>558.3</ele>
        <time>2014-08-18T12:27:08.478Z</time>
      </trkpt>
      <trkpt lat="46.13299" lon="5.79286">
        <ele>559.1</ele>
        <time>2014-08-18T12:27:15.117Z</time>
      </trkpt>
      <trkpt lat="46.13288" lon="5.79279">
        <ele>559.4</ele>
        <time>2014-08-18T12:27:18.591Z</time>
      </trkpt>
      <trkpt lat="46.13131" lon="5.79198">
        <ele>564.4</ele>
        <time>2014-08-18T12:28:04.054Z</time>
      </trkpt>
      <trkpt lat="46.13121" lon="5.79195">
        <ele>565.4</ele>
        <time>2014-08-18T12:28:06.797Z</time>
      </trkpt>
      <trkpt lat="46.13103" lon="5.79183">
        <ele>567.7</ele>
        <time>2014-08-18T12:28:12.255Z</time>
      </trkpt>
      <trkpt lat="46.1309" lon="5.79179">
        <ele>568.8</ele>
        <time>2014-08-18T12:28:15.916Z</time>
      </trkpt>
      <trkpt lat="46.13071" lon="5.79165">
        <ele>572.8</ele>
        <time>2014-08-18T12:28:22.521Z</time>
      </trkpt>
      <trkpt lat="46.13059" lon="5.7916">
        <ele>575.2</ele>
        <time>2014-08-18T12:28:26.196Z</time>
      </trkpt>
      <trkpt lat="46.13047" lon="5.79151">
        <ele>577</ele>
        <time>2014-08-18T12:28:29.748Z</time>
      </trkpt>
      <trkpt lat="46.12942" lon="5.79097">
        <ele>576.7</ele>
        <time>2014-08-18T12:28:57.052Z</time>
      </trkpt>
      <trkpt lat="46.12921" lon="5.79082">
        <ele>579.4</ele>
        <time>2014-08-18T12:29:02.730Z</time>
      </trkpt>
      <trkpt lat="46.12912" lon="5.79077">
        <ele>580.8</ele>
        <time>2014-08-18T12:29:05.050Z</time>
      </trkpt>
      <trkpt lat="46.12881" lon="5.79065">
        <ele>581.4</ele>
        <time>2014-08-18T12:29:12.176Z</time>
      </trkpt>
      <trkpt lat="46.11959" lon="5.78574">
        <ele>551.6</ele>
        <time>2014-08-18T12:31:26.700Z</time>
      </trkpt>
      <trkpt lat="46.11945" lon="5.78569">
        <ele>551.1</ele>
        <time>2014-08-18T12:31:29.413Z</time>
      </trkpt>
      <trkpt lat="46.11779" lon="5.78477">
        <ele>553.5</ele>
        <time>2014-08-18T12:32:18.817Z</time>
      </trkpt>
      <trkpt lat="46.11769" lon="5.78473">
        <ele>553.7</ele>
        <time>2014-08-18T12:32:22.364Z</time>
      </trkpt>
      <trkpt lat="46.11727" lon="5.78448">
        <ele>557.7</ele>
        <time>2014-08-18T12:32:37.865Z</time>
      </trkpt>
      <trkpt lat="46.11715" lon="5.78444">
        <ele>557.2</ele>
        <time>2014-08-18T12:32:42.451Z</time>
      </trkpt>
      <trkpt lat="46.11704" lon="5.78436">
        <ele>556.7</ele>
        <time>2014-08-18T12:32:47.584Z</time>
      </trkpt>
      <trkpt lat="46.11693" lon="5.78426">
        <ele>556.5</ele>
        <time>2014-08-18T12:32:51.456Z</time>
      </trkpt>
      <trkpt lat="46.11672" lon="5.78417">
        <ele>559.1</ele>
        <time>2014-08-18T12:32:57.487Z</time>
      </trkpt>
      <trkpt lat="46.11636" lon="5.78399">
        <ele>564.8</ele>
        <time>2014-08-18T12:33:07.006Z</time>
      </trkpt>
      <trkpt lat="46.11613" lon="5.78384">
        <ele>565.5</ele>
        <time>2014-08-18T12:33:13.326Z</time>
      </trkpt>
      <trkpt lat="46.11596" lon="5.7838">
        <ele>565.4</ele>
        <time>2014-08-18T12:33:18.034Z</time>
      </trkpt>
      <trkpt lat="46.11555" lon="5.78363">
        <ele>560.9</ele>
        <time>2014-08-18T12:33:34.249Z</time>
      </trkpt>
      <trkpt lat="46.11544" lon="5.78354">
        <ele>559.5</ele>
        <time>2014-08-18T12:33:40.261Z</time>
      </trkpt>
      <trkpt lat="46.11536" lon="5.78341">
        <ele>558.8</ele>
        <time>2014-08-18T12:33:45.601Z</time>
      </trkpt>
      <trkpt lat="46.11527" lon="5.78336">
        <ele>559</ele>
        <time>2014-08-18T12:33:50.175Z</time>
      </trkpt>
      <trkpt lat="46.11518" lon="5.78334">
        <ele>560.9</ele>
        <time>2014-08-18T12:33:55.304Z</time>
      </trkpt>
      <trkpt lat="46.11508" lon="5.7833">
        <ele>563.9</ele>
        <time>2014-08-18T12:34:06.002Z</time>
      </trkpt>
      <trkpt lat="46.11499" lon="5.78324">
        <ele>565.7</ele>
        <time>2014-08-18T12:34:16.403Z</time>
      </trkpt>
      <trkpt lat="46.11488" lon="5.7832">
        <ele>564.5</ele>
        <time>2014-08-18T12:34:28.309Z</time>
      </trkpt>
      <trkpt lat="46.11466" lon="5.7831">
        <ele>560.8</ele>
        <time>2014-08-18T12:35:46.412Z</time>
      </trkpt>
      <trkpt lat="46.11457" lon="5.78305">
        <ele>561.3</ele>
        <time>2014-08-18T12:36:37.672Z</time>
      </trkpt>
      <trkpt lat="46.11449" lon="5.78315">
        <ele>563.4</ele>
        <time>2014-08-18T12:37:35.531Z</time>
      </trkpt>
      <trkpt lat="46.11442" lon="5.78305">
        <ele>565.5</ele>
        <time>2014-08-18T12:38:24.188Z</time>
      </trkpt>
      <trkpt lat="46.11442" lon="5.78308">
        <ele>566.6</ele>
        <time>2014-08-18T12:38:36.782Z</time>
      </trkpt>
      <trkpt lat="46.11435" lon="5.78299">
        <ele>566</ele>
        <time>2014-08-18T12:40:33.781Z</time>
      </trkpt>
      <trkpt lat="46.11411" lon="5.7829">
        <ele>565.3</ele>
        <time>2014-08-18T12:40:56.174Z</time>
      </trkpt>
      <trkpt lat="46.11393" lon="5.78279">
        <ele>565.2</ele>
        <time>2014-08-18T12:41:06.824Z</time>
      </trkpt>
      <trkpt lat="46.11398" lon="5.78314">
        <ele>566.3</ele>
        <time>2014-08-18T12:41:12.875Z</time>
      </trkpt>
      <trkpt lat="46.11376" lon="5.7839">
        <ele>566.8</ele>
        <time>2014-08-18T12:41:20.075Z</time>
      </trkpt>
      <trkpt lat="46.11361" lon="5.78611">
        <ele>556.5</ele>
        <time>2014-08-18T12:41:38.598Z</time>
      </trkpt>
      <trkpt lat="46.11346" lon="5.78634">
        <ele>554.7</ele>
        <time>2014-08-18T12:41:42.114Z</time>
      </trkpt>
      <trkpt lat="46.11342" lon="5.78653">
        <ele>553.1</ele>
        <time>2014-08-18T12:41:44.169Z</time>
      </trkpt>
      <trkpt lat="46.11348" lon="5.78667">
        <ele>552</ele>
        <time>2014-08-18T12:41:45.806Z</time>
      </trkpt>
      <trkpt lat="46.11428" lon="5.78771">
        <ele>544.9</ele>
        <time>2014-08-18T12:41:58.904Z</time>
      </trkpt>
      <trkpt lat="46.11441" lon="5.7879">
        <ele>543.4</ele>
        <time>2014-08-18T12:42:00.738Z</time>
      </trkpt>
      <trkpt lat="46.11454" lon="5.78828">
        <ele>542.2</ele>
        <time>2014-08-18T12:42:03.484Z</time>
      </trkpt>
      <trkpt lat="46.11456" lon="5.78901">
        <ele>540.9</ele>
        <time>2014-08-18T12:42:07.936Z</time>
      </trkpt>
      <trkpt lat="46.1145" lon="5.78986">
        <ele>538.3</ele>
        <time>2014-08-18T12:42:12.510Z</time>
      </trkpt>
      <trkpt lat="46.11404" lon="5.79182">
        <ele>529.5</ele>
        <time>2014-08-18T12:42:23.157Z</time>
      </trkpt>
      <trkpt lat="46.11406" lon="5.79296">
        <ele>524.2</ele>
        <time>2014-08-18T12:42:29.139Z</time>
      </trkpt>
      <trkpt lat="46.11418" lon="5.79443">
        <ele>513.4</ele>
        <time>2014-08-18T12:42:36.844Z</time>
      </trkpt>
      <trkpt lat="46.11407" lon="5.79626">
        <ele>498.7</ele>
        <time>2014-08-18T12:42:46.560Z</time>
      </trkpt>
      <trkpt lat="46.11397" lon="5.79679">
        <ele>494.6</ele>
        <time>2014-08-18T12:42:49.549Z</time>
      </trkpt>
      <trkpt lat="46.1131" lon="5.7995">
        <ele>481.2</ele>
        <time>2014-08-18T12:43:04.922Z</time>
      </trkpt>
      <trkpt lat="46.11294" lon="5.79986">
        <ele>477.5</ele>
        <time>2014-08-18T12:43:06.890Z</time>
      </trkpt>
      <trkpt lat="46.1126" lon="5.80029">
        <ele>474</ele>
        <time>2014-08-18T12:43:09.892Z</time>
      </trkpt>
      <trkpt lat="46.11197" lon="5.8009">
        <ele>469.8</ele>
        <time>2014-08-18T12:43:16.573Z</time>
      </trkpt>
      <trkpt lat="46.11184" lon="5.80106">
        <ele>469.4</ele>
        <time>2014-08-18T12:43:19.678Z</time>
      </trkpt>
      <trkpt lat="46.11174" lon="5.8012">
        <ele>469</ele>
        <time>2014-08-18T12:43:23.772Z</time>
      </trkpt>
      <trkpt lat="46.11185" lon="5.80119">
        <ele>468.4</ele>
        <time>2014-08-18T12:43:27.338Z</time>
      </trkpt>
      <trkpt lat="46.1119" lon="5.80108">
        <ele>467.3</ele>
        <time>2014-08-18T12:43:30.961Z</time>
      </trkpt>
      <trkpt lat="46.11197" lon="5.80098">
        <ele>465.7</ele>
        <time>2014-08-18T12:43:34.459Z</time>
      </trkpt>
      <trkpt lat="46.11204" lon="5.80086">
        <ele>464.3</ele>
        <time>2014-08-18T12:43:38.195Z</time>
      </trkpt>
      <trkpt lat="46.11206" lon="5.80073">
        <ele>463.8</ele>
        <time>2014-08-18T12:43:41.263Z</time>
      </trkpt>
      <trkpt lat="46.11203" lon="5.80059">
        <ele>464.4</ele>
        <time>2014-08-18T12:43:44.502Z</time>
      </trkpt>
      <trkpt lat="46.11195" lon="5.80053">
        <ele>464.7</ele>
        <time>2014-08-18T12:43:47.459Z</time>
      </trkpt>
      <trkpt lat="46.11185" lon="5.80056">
        <ele>463.8</ele>
        <time>2014-08-18T12:43:50.663Z</time>
      </trkpt>
      <trkpt lat="46.11178" lon="5.80065">
        <ele>462.2</ele>
        <time>2014-08-18T12:43:54.110Z</time>
      </trkpt>
      <trkpt lat="46.11159" lon="5.80135">
        <ele>466</ele>
        <time>2014-08-18T12:44:05.655Z</time>
      </trkpt>
      <trkpt lat="46.11058" lon="5.80354">
        <ele>455.3</ele>
        <time>2014-08-18T12:44:27.387Z</time>
      </trkpt>
      <trkpt lat="46.11053" lon="5.80381">
        <ele>454.1</ele>
        <time>2014-08-18T12:44:29.322Z</time>
      </trkpt>
      <trkpt lat="46.11101" lon="5.8099">
        <ele>426.1</ele>
        <time>2014-08-18T12:45:05.691Z</time>
      </trkpt>
      <trkpt lat="46.11091" lon="5.81036">
        <ele>423.8</ele>
        <time>2014-08-18T12:45:08.609Z</time>
      </trkpt>
      <trkpt lat="46.11071" lon="5.81076">
        <ele>421</ele>
        <time>2014-08-18T12:45:11.678Z</time>
      </trkpt>
      <trkpt lat="46.11032" lon="5.81133">
        <ele>417.2</ele>
        <time>2014-08-18T12:45:16.615Z</time>
      </trkpt>
      <trkpt lat="46.10956" lon="5.81229">
        <ele>412</ele>
        <time>2014-08-18T12:45:25.365Z</time>
      </trkpt>
      <trkpt lat="46.10942" lon="5.81272">
        <ele>408.6</ele>
        <time>2014-08-18T12:45:28.374Z</time>
      </trkpt>
      <trkpt lat="46.10938" lon="5.81331">
        <ele>405.4</ele>
        <time>2014-08-18T12:45:32.239Z</time>
      </trkpt>
      <trkpt lat="46.10936" lon="5.81437">
        <ele>400.7</ele>
        <time>2014-08-18T12:45:39.162Z</time>
      </trkpt>
      <trkpt lat="46.10929" lon="5.81483">
        <ele>398.8</ele>
        <time>2014-08-18T12:45:42.071Z</time>
      </trkpt>
      <trkpt lat="46.10915" lon="5.81526">
        <ele>396.4</ele>
        <time>2014-08-18T12:45:45.059Z</time>
      </trkpt>
      <trkpt lat="46.10886" lon="5.81574">
        <ele>391.8</ele>
        <time>2014-08-18T12:45:48.909Z</time>
      </trkpt>
      <trkpt lat="46.10869" lon="5.81677">
        <ele>388.1</ele>
        <time>2014-08-18T12:45:55.680Z</time>
      </trkpt>
      <trkpt lat="46.1085" lon="5.81708">
        <ele>386.7</ele>
        <time>2014-08-18T12:45:58.545Z</time>
      </trkpt>
      <trkpt lat="46.10831" lon="5.81719">
        <ele>384</ele>
        <time>2014-08-18T12:46:00.685Z</time>
      </trkpt>
      <trkpt lat="46.1079" lon="5.81764">
        <ele>379</ele>
        <time>2014-08-18T12:46:06.440Z</time>
      </trkpt>
      <trkpt lat="46.10705" lon="5.8182">
        <ele>377.6</ele>
        <time>2014-08-18T12:46:17.560Z</time>
      </trkpt>
      <trkpt lat="46.1069" lon="5.81835">
        <ele>376.6</ele>
        <time>2014-08-18T12:46:19.527Z</time>
      </trkpt>
      <trkpt lat="46.10655" lon="5.81876">
        <ele>373.9</ele>
        <time>2014-08-18T12:46:24.304Z</time>
      </trkpt>
      <trkpt lat="46.10642" lon="5.81896">
        <ele>372.5</ele>
        <time>2014-08-18T12:46:26.806Z</time>
      </trkpt>
      <trkpt lat="46.10633" lon="5.81921">
        <ele>371.8</ele>
        <time>2014-08-18T12:46:29.752Z</time>
      </trkpt>
      <trkpt lat="46.10629" lon="5.81936">
        <ele>371.1</ele>
        <time>2014-08-18T12:46:31.612Z</time>
      </trkpt>
      <trkpt lat="46.10584" lon="5.81994">
        <ele>367.9</ele>
        <time>2014-08-18T12:46:41.057Z</time>
      </trkpt>
      <trkpt lat="46.10568" lon="5.82006">
        <ele>365.8</ele>
        <time>2014-08-18T12:46:43.913Z</time>
      </trkpt>
      <trkpt lat="46.10542" lon="5.82041">
        <ele>362.5</ele>
        <time>2014-08-18T12:46:53.057Z</time>
      </trkpt>
      <trkpt lat="46.10547" lon="5.82059">
        <ele>361.4</ele>
        <time>2014-08-18T12:46:55.914Z</time>
      </trkpt>
      <trkpt lat="46.10561" lon="5.82072">
        <ele>360.5</ele>
        <time>2014-08-18T12:46:59.165Z</time>
      </trkpt>
      <trkpt lat="46.10571" lon="5.8209">
        <ele>360.2</ele>
        <time>2014-08-18T12:47:02.284Z</time>
      </trkpt>
      <trkpt lat="46.10582" lon="5.82117">
        <ele>361</ele>
        <time>2014-08-18T12:47:07.953Z</time>
      </trkpt>
      <trkpt lat="46.10584" lon="5.82131">
        <ele>362.1</ele>
        <time>2014-08-18T12:47:11.781Z</time>
      </trkpt>
      <trkpt lat="46.10595" lon="5.82157">
        <ele>362</ele>
        <time>2014-08-18T12:50:51.008Z</time>
      </trkpt>
      <trkpt lat="46.10637" lon="5.82271">
        <ele>359.9</ele>
        <time>2014-08-18T12:55:01.862Z</time>
      </trkpt>
      <trkpt lat="46.10643" lon="5.82313">
        <ele>362</ele>
        <time>2014-08-18T12:55:08.959Z</time>
      </trkpt>
      <trkpt lat="46.10649" lon="5.82337">
        <ele>362.3</ele>
        <time>2014-08-18T12:55:12.842Z</time>
      </trkpt>
      <trkpt lat="46.10651" lon="5.82352">
        <ele>361.7</ele>
        <time>2014-08-18T12:55:15.067Z</time>
      </trkpt>
      <trkpt lat="46.10684" lon="5.82415">
        <ele>361.9</ele>
        <time>2014-08-18T12:55:27.357Z</time>
      </trkpt>
      <trkpt lat="46.10692" lon="5.82435">
        <ele>361.3</ele>
        <time>2014-08-18T12:55:30.956Z</time>
      </trkpt>
      <trkpt lat="46.10699" lon="5.82471">
        <ele>354</ele>
        <time>2014-08-18T12:55:35.898Z</time>
      </trkpt>
      <trkpt lat="46.10736" lon="5.82549">
        <ele>343.3</ele>
        <time>2014-08-18T12:55:47.379Z</time>
      </trkpt>
      <trkpt lat="46.10747" lon="5.82605">
        <ele>341.8</ele>
        <time>2014-08-18T12:55:54.693Z</time>
      </trkpt>
      <trkpt lat="46.10751" lon="5.82617">
        <ele>343.8</ele>
        <time>2014-08-18T12:55:56.308Z</time>
      </trkpt>
      <trkpt lat="46.10763" lon="5.82637">
        <ele>344.7</ele>
        <time>2014-08-18T12:55:59.484Z</time>
      </trkpt>
      <trkpt lat="46.10771" lon="5.82655">
        <ele>342.4</ele>
        <time>2014-08-18T12:56:02.102Z</time>
      </trkpt>
      <trkpt lat="46.10782" lon="5.82698">
        <ele>336.2</ele>
        <time>2014-08-18T12:56:07.599Z</time>
      </trkpt>
      <trkpt lat="46.10783" lon="5.82716">
        <ele>337</ele>
        <time>2014-08-18T12:56:09.687Z</time>
      </trkpt>
      <trkpt lat="46.10788" lon="5.82734">
        <ele>338.8</ele>
        <time>2014-08-18T12:56:11.966Z</time>
      </trkpt>
      <trkpt lat="46.10824" lon="5.82828">
        <ele>337.9</ele>
        <time>2014-08-18T12:56:25.010Z</time>
      </trkpt>
      <trkpt lat="46.10832" lon="5.82858">
        <ele>339.9</ele>
        <time>2014-08-18T12:56:29.478Z</time>
      </trkpt>
      <trkpt lat="46.10838" lon="5.82872">
        <ele>338.9</ele>
        <time>2014-08-18T12:56:31.889Z</time>
      </trkpt>
      <trkpt lat="46.10839" lon="5.82886">
        <ele>337</ele>
        <time>2014-08-18T12:56:34.404Z</time>
      </trkpt>
      <trkpt lat="46.10847" lon="5.82918">
        <ele>337.2</ele>
        <time>2014-08-18T12:56:43.026Z</time>
      </trkpt>
      <trkpt lat="46.10844" lon="5.8293">
        <ele>339.8</ele>
        <time>2014-08-18T12:56:47.350Z</time>
      </trkpt>
      <trkpt lat="46.10843" lon="5.82946">
        <ele>342.5</ele>
        <time>2014-08-18T12:56:52.774Z</time>
      </trkpt>
      <trkpt lat="46.10837" lon="5.82957">
        <ele>343.1</ele>
        <time>2014-08-18T12:56:57.925Z</time>
      </trkpt>
      <trkpt lat="46.10834" lon="5.8297">
        <ele>340.8</ele>
        <time>2014-08-18T12:57:02.783Z</time>
      </trkpt>
      <trkpt lat="46.10848" lon="5.82968">
        <ele>337.1</ele>
        <time>2014-08-18T12:58:35.785Z</time>
      </trkpt>
    </trkseg>
  </trk>
</gpx>